<?xml version="1.0" encoding="UTF-8" standalone="no" ?>
<gpx xmlns="http://www.topografix.com/GPX/1/1" xmlns:xsi="http://www.w3.org/2001/XMLSchema-instance" xsi:schemaLocation="http://www.topografix.com/GPX/1/1 http://www.topografix.com/GPX/1/1/gpx.xsd" version="1.1" creator="VisuGPX - https://www.visugpx.com">
  <metadata>
    <name>WStw9n3qEz</name>
    <desc><![CDATA[

]]></desc>
  </metadata>
  <trk>
    <name><![CDATA[WStw9n3qEz_1]]></name>
    <trkseg>
      <trkpt lat="46.08287" lon="4.5906">
        <ele>602</ele>
        <time>2020-10-24T07:51:00Z</time>
      </trkpt>
      <trkpt lat="46.08287" lon="4.5906">
        <ele>602</ele>
        <time>2020-10-24T07:51:00Z</time>
      </trkpt>
      <trkpt lat="46.08286" lon="4.59062">
        <ele>601.8</ele>
        <time>2020-10-24T07:51:01Z</time>
      </trkpt>
      <trkpt lat="46.08284" lon="4.59063">
        <ele>601.6</ele>
        <time>2020-10-24T07:51:02Z</time>
      </trkpt>
      <trkpt lat="46.08284" lon="4.59063">
        <ele>601.2</ele>
        <time>2020-10-24T07:51:03Z</time>
      </trkpt>
      <trkpt lat="46.08284" lon="4.59063">
        <ele>601.2</ele>
        <time>2020-10-24T07:51:04Z</time>
      </trkpt>
      <trkpt lat="46.08283" lon="4.59066">
        <ele>601</ele>
        <time>2020-10-24T07:51:05Z</time>
      </trkpt>
      <trkpt lat="46.08283" lon="4.59066">
        <ele>600.8</ele>
        <time>2020-10-24T07:51:06Z</time>
      </trkpt>
      <trkpt lat="46.0828" lon="4.59067">
        <ele>600.8</ele>
        <time>2020-10-24T07:51:07Z</time>
      </trkpt>
      <trkpt lat="46.0828" lon="4.59067">
        <ele>600.8</ele>
        <time>2020-10-24T07:51:08Z</time>
      </trkpt>
      <trkpt lat="46.08277" lon="4.59067">
        <ele>600.6</ele>
        <time>2020-10-24T07:51:09Z</time>
      </trkpt>
      <trkpt lat="46.08277" lon="4.59067">
        <ele>600.4</ele>
        <time>2020-10-24T07:51:10Z</time>
      </trkpt>
      <trkpt lat="46.08275" lon="4.59067">
        <ele>600.2</ele>
        <time>2020-10-24T07:51:11Z</time>
      </trkpt>
      <trkpt lat="46.08275" lon="4.59067">
        <ele>600</ele>
        <time>2020-10-24T07:51:12Z</time>
      </trkpt>
      <trkpt lat="46.08275" lon="4.59067">
        <ele>599.8</ele>
        <time>2020-10-24T07:51:13Z</time>
      </trkpt>
      <trkpt lat="46.08272" lon="4.59068">
        <ele>599.4</ele>
        <time>2020-10-24T07:51:14Z</time>
      </trkpt>
      <trkpt lat="46.08272" lon="4.59068">
        <ele>599.2</ele>
        <time>2020-10-24T07:51:15Z</time>
      </trkpt>
      <trkpt lat="46.08269" lon="4.5907">
        <ele>599.4</ele>
        <time>2020-10-24T07:51:16Z</time>
      </trkpt>
      <trkpt lat="46.08267" lon="4.59071">
        <ele>599.2</ele>
        <time>2020-10-24T07:51:17Z</time>
      </trkpt>
      <trkpt lat="46.08265" lon="4.59072">
        <ele>599</ele>
        <time>2020-10-24T07:51:18Z</time>
      </trkpt>
      <trkpt lat="46.08263" lon="4.59073">
        <ele>598.8</ele>
        <time>2020-10-24T07:51:19Z</time>
      </trkpt>
      <trkpt lat="46.08261" lon="4.59074">
        <ele>598.6</ele>
        <time>2020-10-24T07:51:20Z</time>
      </trkpt>
      <trkpt lat="46.08259" lon="4.59075">
        <ele>598</ele>
        <time>2020-10-24T07:51:21Z</time>
      </trkpt>
      <trkpt lat="46.08257" lon="4.59076">
        <ele>598</ele>
        <time>2020-10-24T07:51:22Z</time>
      </trkpt>
      <trkpt lat="46.08255" lon="4.59077">
        <ele>597.6</ele>
        <time>2020-10-24T07:51:23Z</time>
      </trkpt>
      <trkpt lat="46.08253" lon="4.59078">
        <ele>597.2</ele>
        <time>2020-10-24T07:51:24Z</time>
      </trkpt>
      <trkpt lat="46.0825" lon="4.59079">
        <ele>597.2</ele>
        <time>2020-10-24T07:51:25Z</time>
      </trkpt>
      <trkpt lat="46.08248" lon="4.59079">
        <ele>596.8</ele>
        <time>2020-10-24T07:51:26Z</time>
      </trkpt>
      <trkpt lat="46.08245" lon="4.59079">
        <ele>596.2</ele>
        <time>2020-10-24T07:51:27Z</time>
      </trkpt>
      <trkpt lat="46.08243" lon="4.5908">
        <ele>596.2</ele>
        <time>2020-10-24T07:51:28Z</time>
      </trkpt>
      <trkpt lat="46.08241" lon="4.59082">
        <ele>595.8</ele>
        <time>2020-10-24T07:51:29Z</time>
      </trkpt>
      <trkpt lat="46.08239" lon="4.59083">
        <ele>595.4</ele>
        <time>2020-10-24T07:51:30Z</time>
      </trkpt>
      <trkpt lat="46.08236" lon="4.59085">
        <ele>595.2</ele>
        <time>2020-10-24T07:51:31Z</time>
      </trkpt>
      <trkpt lat="46.08234" lon="4.59087">
        <ele>594.8</ele>
        <time>2020-10-24T07:51:32Z</time>
      </trkpt>
      <trkpt lat="46.08232" lon="4.59088">
        <ele>594.4</ele>
        <time>2020-10-24T07:51:33Z</time>
      </trkpt>
      <trkpt lat="46.0823" lon="4.5909">
        <ele>594.4</ele>
        <time>2020-10-24T07:51:34Z</time>
      </trkpt>
      <trkpt lat="46.08228" lon="4.59092">
        <ele>593.8</ele>
        <time>2020-10-24T07:51:35Z</time>
      </trkpt>
      <trkpt lat="46.08226" lon="4.59094">
        <ele>593.6</ele>
        <time>2020-10-24T07:51:36Z</time>
      </trkpt>
      <trkpt lat="46.08225" lon="4.59096">
        <ele>593.2</ele>
        <time>2020-10-24T07:51:37Z</time>
      </trkpt>
      <trkpt lat="46.08223" lon="4.59098">
        <ele>592.8</ele>
        <time>2020-10-24T07:51:38Z</time>
      </trkpt>
      <trkpt lat="46.08223" lon="4.59098">
        <ele>592.6</ele>
        <time>2020-10-24T07:51:39Z</time>
      </trkpt>
      <trkpt lat="46.08223" lon="4.59098">
        <ele>592.2</ele>
        <time>2020-10-24T07:51:40Z</time>
      </trkpt>
      <trkpt lat="46.08223" lon="4.59098">
        <ele>592</ele>
        <time>2020-10-24T07:51:41Z</time>
      </trkpt>
      <trkpt lat="46.0822" lon="4.59099">
        <ele>591.4</ele>
        <time>2020-10-24T07:51:42Z</time>
      </trkpt>
      <trkpt lat="46.08218" lon="4.59101">
        <ele>591.2</ele>
        <time>2020-10-24T07:51:43Z</time>
      </trkpt>
      <trkpt lat="46.08216" lon="4.59103">
        <ele>590.6</ele>
        <time>2020-10-24T07:51:44Z</time>
      </trkpt>
      <trkpt lat="46.08213" lon="4.59105">
        <ele>590.4</ele>
        <time>2020-10-24T07:51:45Z</time>
      </trkpt>
      <trkpt lat="46.08211" lon="4.59108">
        <ele>589.8</ele>
        <time>2020-10-24T07:51:46Z</time>
      </trkpt>
      <trkpt lat="46.08209" lon="4.5911">
        <ele>589.2</ele>
        <time>2020-10-24T07:51:47Z</time>
      </trkpt>
      <trkpt lat="46.08208" lon="4.59113">
        <ele>588.8</ele>
        <time>2020-10-24T07:51:48Z</time>
      </trkpt>
      <trkpt lat="46.08206" lon="4.59115">
        <ele>588.2</ele>
        <time>2020-10-24T07:51:49Z</time>
      </trkpt>
      <trkpt lat="46.08203" lon="4.59118">
        <ele>587.4</ele>
        <time>2020-10-24T07:51:50Z</time>
      </trkpt>
      <trkpt lat="46.08202" lon="4.5912">
        <ele>587.4</ele>
        <time>2020-10-24T07:51:51Z</time>
      </trkpt>
      <trkpt lat="46.082" lon="4.59122">
        <ele>586.8</ele>
        <time>2020-10-24T07:51:52Z</time>
      </trkpt>
      <trkpt lat="46.08198" lon="4.59124">
        <ele>586.6</ele>
        <time>2020-10-24T07:51:53Z</time>
      </trkpt>
      <trkpt lat="46.08196" lon="4.59127">
        <ele>586</ele>
        <time>2020-10-24T07:51:54Z</time>
      </trkpt>
      <trkpt lat="46.08193" lon="4.59129">
        <ele>585.4</ele>
        <time>2020-10-24T07:51:55Z</time>
      </trkpt>
      <trkpt lat="46.08191" lon="4.59131">
        <ele>585.2</ele>
        <time>2020-10-24T07:51:56Z</time>
      </trkpt>
      <trkpt lat="46.08189" lon="4.59132">
        <ele>584.8</ele>
        <time>2020-10-24T07:51:57Z</time>
      </trkpt>
      <trkpt lat="46.08186" lon="4.59134">
        <ele>584.6</ele>
        <time>2020-10-24T07:51:58Z</time>
      </trkpt>
      <trkpt lat="46.08184" lon="4.59136">
        <ele>584</ele>
        <time>2020-10-24T07:51:59Z</time>
      </trkpt>
      <trkpt lat="46.08182" lon="4.59137">
        <ele>583.4</ele>
        <time>2020-10-24T07:52:00Z</time>
      </trkpt>
      <trkpt lat="46.08179" lon="4.59139">
        <ele>583.4</ele>
        <time>2020-10-24T07:52:01Z</time>
      </trkpt>
      <trkpt lat="46.08176" lon="4.59139">
        <ele>582.8</ele>
        <time>2020-10-24T07:52:02Z</time>
      </trkpt>
      <trkpt lat="46.08174" lon="4.5914">
        <ele>582.6</ele>
        <time>2020-10-24T07:52:03Z</time>
      </trkpt>
      <trkpt lat="46.08171" lon="4.5914">
        <ele>582.4</ele>
        <time>2020-10-24T07:52:04Z</time>
      </trkpt>
      <trkpt lat="46.08169" lon="4.5914">
        <ele>582</ele>
        <time>2020-10-24T07:52:05Z</time>
      </trkpt>
      <trkpt lat="46.08166" lon="4.5914">
        <ele>581.8</ele>
        <time>2020-10-24T07:52:06Z</time>
      </trkpt>
      <trkpt lat="46.08164" lon="4.59139">
        <ele>581.4</ele>
        <time>2020-10-24T07:52:07Z</time>
      </trkpt>
      <trkpt lat="46.08161" lon="4.59138">
        <ele>581</ele>
        <time>2020-10-24T07:52:08Z</time>
      </trkpt>
      <trkpt lat="46.08159" lon="4.59137">
        <ele>580.8</ele>
        <time>2020-10-24T07:52:09Z</time>
      </trkpt>
      <trkpt lat="46.08157" lon="4.59136">
        <ele>580.6</ele>
        <time>2020-10-24T07:52:10Z</time>
      </trkpt>
      <trkpt lat="46.08155" lon="4.59134">
        <ele>580.4</ele>
        <time>2020-10-24T07:52:11Z</time>
      </trkpt>
      <trkpt lat="46.08153" lon="4.59133">
        <ele>580.4</ele>
        <time>2020-10-24T07:52:12Z</time>
      </trkpt>
      <trkpt lat="46.0815" lon="4.59132">
        <ele>580</ele>
        <time>2020-10-24T07:52:13Z</time>
      </trkpt>
      <trkpt lat="46.08148" lon="4.59131">
        <ele>579.8</ele>
        <time>2020-10-24T07:52:14Z</time>
      </trkpt>
      <trkpt lat="46.08146" lon="4.5913">
        <ele>579.6</ele>
        <time>2020-10-24T07:52:15Z</time>
      </trkpt>
      <trkpt lat="46.08144" lon="4.59129">
        <ele>579.4</ele>
        <time>2020-10-24T07:52:16Z</time>
      </trkpt>
      <trkpt lat="46.08142" lon="4.59128">
        <ele>579.2</ele>
        <time>2020-10-24T07:52:17Z</time>
      </trkpt>
      <trkpt lat="46.0814" lon="4.59127">
        <ele>579</ele>
        <time>2020-10-24T07:52:18Z</time>
      </trkpt>
      <trkpt lat="46.08138" lon="4.59127">
        <ele>578.4</ele>
        <time>2020-10-24T07:52:19Z</time>
      </trkpt>
      <trkpt lat="46.08135" lon="4.59126">
        <ele>578.4</ele>
        <time>2020-10-24T07:52:20Z</time>
      </trkpt>
      <trkpt lat="46.08133" lon="4.59125">
        <ele>578.4</ele>
        <time>2020-10-24T07:52:21Z</time>
      </trkpt>
      <trkpt lat="46.08131" lon="4.59124">
        <ele>578</ele>
        <time>2020-10-24T07:52:22Z</time>
      </trkpt>
      <trkpt lat="46.08128" lon="4.59123">
        <ele>577.6</ele>
        <time>2020-10-24T07:52:23Z</time>
      </trkpt>
      <trkpt lat="46.08126" lon="4.59123">
        <ele>577.8</ele>
        <time>2020-10-24T07:52:24Z</time>
      </trkpt>
      <trkpt lat="46.08123" lon="4.59122">
        <ele>577.8</ele>
        <time>2020-10-24T07:52:25Z</time>
      </trkpt>
      <trkpt lat="46.0812" lon="4.59121">
        <ele>577.4</ele>
        <time>2020-10-24T07:52:26Z</time>
      </trkpt>
      <trkpt lat="46.08118" lon="4.59121">
        <ele>577.2</ele>
        <time>2020-10-24T07:52:27Z</time>
      </trkpt>
      <trkpt lat="46.08116" lon="4.59121">
        <ele>577.2</ele>
        <time>2020-10-24T07:52:28Z</time>
      </trkpt>
      <trkpt lat="46.08113" lon="4.59121">
        <ele>576.8</ele>
        <time>2020-10-24T07:52:29Z</time>
      </trkpt>
      <trkpt lat="46.08111" lon="4.5912">
        <ele>576.4</ele>
        <time>2020-10-24T07:52:30Z</time>
      </trkpt>
      <trkpt lat="46.08108" lon="4.5912">
        <ele>576.4</ele>
        <time>2020-10-24T07:52:31Z</time>
      </trkpt>
      <trkpt lat="46.08106" lon="4.5912">
        <ele>575.8</ele>
        <time>2020-10-24T07:52:32Z</time>
      </trkpt>
      <trkpt lat="46.08103" lon="4.5912">
        <ele>575.8</ele>
        <time>2020-10-24T07:52:33Z</time>
      </trkpt>
      <trkpt lat="46.08101" lon="4.5912">
        <ele>575</ele>
        <time>2020-10-24T07:52:34Z</time>
      </trkpt>
      <trkpt lat="46.08099" lon="4.59119">
        <ele>574.6</ele>
        <time>2020-10-24T07:52:35Z</time>
      </trkpt>
      <trkpt lat="46.08097" lon="4.59119">
        <ele>574.6</ele>
        <time>2020-10-24T07:52:36Z</time>
      </trkpt>
      <trkpt lat="46.08095" lon="4.59118">
        <ele>574.2</ele>
        <time>2020-10-24T07:52:37Z</time>
      </trkpt>
      <trkpt lat="46.08093" lon="4.59117">
        <ele>573.6</ele>
        <time>2020-10-24T07:52:38Z</time>
      </trkpt>
      <trkpt lat="46.08091" lon="4.59117">
        <ele>573.6</ele>
        <time>2020-10-24T07:52:39Z</time>
      </trkpt>
      <trkpt lat="46.08088" lon="4.59117">
        <ele>573.2</ele>
        <time>2020-10-24T07:52:40Z</time>
      </trkpt>
      <trkpt lat="46.08086" lon="4.59117">
        <ele>572.4</ele>
        <time>2020-10-24T07:52:41Z</time>
      </trkpt>
      <trkpt lat="46.08083" lon="4.59117">
        <ele>572.4</ele>
        <time>2020-10-24T07:52:42Z</time>
      </trkpt>
      <trkpt lat="46.08081" lon="4.59117">
        <ele>572</ele>
        <time>2020-10-24T07:52:43Z</time>
      </trkpt>
      <trkpt lat="46.08079" lon="4.59117">
        <ele>571.6</ele>
        <time>2020-10-24T07:52:44Z</time>
      </trkpt>
      <trkpt lat="46.08076" lon="4.59117">
        <ele>571.8</ele>
        <time>2020-10-24T07:52:45Z</time>
      </trkpt>
      <trkpt lat="46.08074" lon="4.59118">
        <ele>571.6</ele>
        <time>2020-10-24T07:52:46Z</time>
      </trkpt>
      <trkpt lat="46.08072" lon="4.59119">
        <ele>571.2</ele>
        <time>2020-10-24T07:52:47Z</time>
      </trkpt>
      <trkpt lat="46.0807" lon="4.59119">
        <ele>571.2</ele>
        <time>2020-10-24T07:52:48Z</time>
      </trkpt>
      <trkpt lat="46.08068" lon="4.5912">
        <ele>570.8</ele>
        <time>2020-10-24T07:52:49Z</time>
      </trkpt>
      <trkpt lat="46.08066" lon="4.5912">
        <ele>570.4</ele>
        <time>2020-10-24T07:52:50Z</time>
      </trkpt>
      <trkpt lat="46.08064" lon="4.59121">
        <ele>570.4</ele>
        <time>2020-10-24T07:52:51Z</time>
      </trkpt>
      <trkpt lat="46.08062" lon="4.59122">
        <ele>570</ele>
        <time>2020-10-24T07:52:52Z</time>
      </trkpt>
      <trkpt lat="46.0806" lon="4.59122">
        <ele>569.6</ele>
        <time>2020-10-24T07:52:53Z</time>
      </trkpt>
      <trkpt lat="46.08058" lon="4.59123">
        <ele>569.6</ele>
        <time>2020-10-24T07:52:54Z</time>
      </trkpt>
      <trkpt lat="46.08056" lon="4.59124">
        <ele>569.2</ele>
        <time>2020-10-24T07:52:55Z</time>
      </trkpt>
      <trkpt lat="46.08054" lon="4.59123">
        <ele>569.2</ele>
        <time>2020-10-24T07:52:56Z</time>
      </trkpt>
      <trkpt lat="46.08052" lon="4.59123">
        <ele>569</ele>
        <time>2020-10-24T07:52:57Z</time>
      </trkpt>
      <trkpt lat="46.08049" lon="4.59123">
        <ele>568.4</ele>
        <time>2020-10-24T07:52:58Z</time>
      </trkpt>
      <trkpt lat="46.08046" lon="4.59122">
        <ele>568</ele>
        <time>2020-10-24T07:52:59Z</time>
      </trkpt>
      <trkpt lat="46.08044" lon="4.59121">
        <ele>567.8</ele>
        <time>2020-10-24T07:53:00Z</time>
      </trkpt>
      <trkpt lat="46.08042" lon="4.59119">
        <ele>567.6</ele>
        <time>2020-10-24T07:53:01Z</time>
      </trkpt>
      <trkpt lat="46.0804" lon="4.59118">
        <ele>567.2</ele>
        <time>2020-10-24T07:53:02Z</time>
      </trkpt>
      <trkpt lat="46.0804" lon="4.59118">
        <ele>567.2</ele>
        <time>2020-10-24T07:53:03Z</time>
      </trkpt>
      <trkpt lat="46.08037" lon="4.59117">
        <ele>566.8</ele>
        <time>2020-10-24T07:53:04Z</time>
      </trkpt>
      <trkpt lat="46.08037" lon="4.59117">
        <ele>566.6</ele>
        <time>2020-10-24T07:53:05Z</time>
      </trkpt>
      <trkpt lat="46.08035" lon="4.5912">
        <ele>566.2</ele>
        <time>2020-10-24T07:53:06Z</time>
      </trkpt>
      <trkpt lat="46.08034" lon="4.59122">
        <ele>566</ele>
        <time>2020-10-24T07:53:07Z</time>
      </trkpt>
      <trkpt lat="46.08034" lon="4.59122">
        <ele>565</ele>
        <time>2020-10-24T07:53:08Z</time>
      </trkpt>
      <trkpt lat="46.08034" lon="4.59128">
        <ele>564.6</ele>
        <time>2020-10-24T07:53:09Z</time>
      </trkpt>
      <trkpt lat="46.08034" lon="4.5913">
        <ele>564.4</ele>
        <time>2020-10-24T07:53:10Z</time>
      </trkpt>
      <trkpt lat="46.08033" lon="4.59134">
        <ele>564</ele>
        <time>2020-10-24T07:53:11Z</time>
      </trkpt>
      <trkpt lat="46.08033" lon="4.59137">
        <ele>563.6</ele>
        <time>2020-10-24T07:53:12Z</time>
      </trkpt>
      <trkpt lat="46.08033" lon="4.5914">
        <ele>563</ele>
        <time>2020-10-24T07:53:13Z</time>
      </trkpt>
      <trkpt lat="46.08032" lon="4.59143">
        <ele>562.4</ele>
        <time>2020-10-24T07:53:14Z</time>
      </trkpt>
      <trkpt lat="46.08031" lon="4.59145">
        <ele>562.4</ele>
        <time>2020-10-24T07:53:15Z</time>
      </trkpt>
      <trkpt lat="46.0803" lon="4.59147">
        <ele>562</ele>
        <time>2020-10-24T07:53:16Z</time>
      </trkpt>
      <trkpt lat="46.08028" lon="4.59149">
        <ele>561.8</ele>
        <time>2020-10-24T07:53:17Z</time>
      </trkpt>
      <trkpt lat="46.08026" lon="4.59151">
        <ele>561.8</ele>
        <time>2020-10-24T07:53:18Z</time>
      </trkpt>
      <trkpt lat="46.08024" lon="4.59152">
        <ele>561.2</ele>
        <time>2020-10-24T07:53:19Z</time>
      </trkpt>
      <trkpt lat="46.08022" lon="4.59154">
        <ele>561</ele>
        <time>2020-10-24T07:53:20Z</time>
      </trkpt>
      <trkpt lat="46.0802" lon="4.59155">
        <ele>560.8</ele>
        <time>2020-10-24T07:53:21Z</time>
      </trkpt>
      <trkpt lat="46.08018" lon="4.59156">
        <ele>560.6</ele>
        <time>2020-10-24T07:53:22Z</time>
      </trkpt>
      <trkpt lat="46.08016" lon="4.59157">
        <ele>560.6</ele>
        <time>2020-10-24T07:53:23Z</time>
      </trkpt>
      <trkpt lat="46.08014" lon="4.59158">
        <ele>560.2</ele>
        <time>2020-10-24T07:53:24Z</time>
      </trkpt>
      <trkpt lat="46.08012" lon="4.59158">
        <ele>560</ele>
        <time>2020-10-24T07:53:25Z</time>
      </trkpt>
      <trkpt lat="46.0801" lon="4.59158">
        <ele>560.2</ele>
        <time>2020-10-24T07:53:26Z</time>
      </trkpt>
      <trkpt lat="46.08007" lon="4.59158">
        <ele>560.2</ele>
        <time>2020-10-24T07:53:27Z</time>
      </trkpt>
      <trkpt lat="46.08004" lon="4.59158">
        <ele>559.8</ele>
        <time>2020-10-24T07:53:28Z</time>
      </trkpt>
      <trkpt lat="46.08002" lon="4.59159">
        <ele>560.2</ele>
        <time>2020-10-24T07:53:29Z</time>
      </trkpt>
      <trkpt lat="46.07999" lon="4.59159">
        <ele>560</ele>
        <time>2020-10-24T07:53:30Z</time>
      </trkpt>
      <trkpt lat="46.07997" lon="4.59159">
        <ele>559.6</ele>
        <time>2020-10-24T07:53:31Z</time>
      </trkpt>
      <trkpt lat="46.07995" lon="4.5916">
        <ele>559.8</ele>
        <time>2020-10-24T07:53:32Z</time>
      </trkpt>
      <trkpt lat="46.07993" lon="4.5916">
        <ele>559.8</ele>
        <time>2020-10-24T07:53:33Z</time>
      </trkpt>
      <trkpt lat="46.0799" lon="4.5916">
        <ele>559.8</ele>
        <time>2020-10-24T07:53:34Z</time>
      </trkpt>
      <trkpt lat="46.07987" lon="4.59161">
        <ele>559.8</ele>
        <time>2020-10-24T07:53:35Z</time>
      </trkpt>
      <trkpt lat="46.07984" lon="4.59162">
        <ele>559.8</ele>
        <time>2020-10-24T07:53:36Z</time>
      </trkpt>
      <trkpt lat="46.07982" lon="4.59163">
        <ele>559.8</ele>
        <time>2020-10-24T07:53:37Z</time>
      </trkpt>
      <trkpt lat="46.07979" lon="4.59164">
        <ele>560.4</ele>
        <time>2020-10-24T07:53:38Z</time>
      </trkpt>
      <trkpt lat="46.07976" lon="4.59166">
        <ele>560.4</ele>
        <time>2020-10-24T07:53:39Z</time>
      </trkpt>
      <trkpt lat="46.07973" lon="4.59167">
        <ele>560.4</ele>
        <time>2020-10-24T07:53:40Z</time>
      </trkpt>
      <trkpt lat="46.0797" lon="4.59169">
        <ele>559.8</ele>
        <time>2020-10-24T07:53:41Z</time>
      </trkpt>
      <trkpt lat="46.07968" lon="4.5917">
        <ele>559.6</ele>
        <time>2020-10-24T07:53:42Z</time>
      </trkpt>
      <trkpt lat="46.07965" lon="4.59171">
        <ele>559.8</ele>
        <time>2020-10-24T07:53:43Z</time>
      </trkpt>
      <trkpt lat="46.07963" lon="4.59173">
        <ele>559.6</ele>
        <time>2020-10-24T07:53:44Z</time>
      </trkpt>
      <trkpt lat="46.07961" lon="4.59175">
        <ele>559.4</ele>
        <time>2020-10-24T07:53:45Z</time>
      </trkpt>
      <trkpt lat="46.0796" lon="4.59177">
        <ele>559.6</ele>
        <time>2020-10-24T07:53:46Z</time>
      </trkpt>
      <trkpt lat="46.0796" lon="4.5918">
        <ele>559.4</ele>
        <time>2020-10-24T07:53:47Z</time>
      </trkpt>
      <trkpt lat="46.07959" lon="4.59183">
        <ele>559</ele>
        <time>2020-10-24T07:53:48Z</time>
      </trkpt>
      <trkpt lat="46.07959" lon="4.59186">
        <ele>559.2</ele>
        <time>2020-10-24T07:53:49Z</time>
      </trkpt>
      <trkpt lat="46.07958" lon="4.59189">
        <ele>559</ele>
        <time>2020-10-24T07:53:50Z</time>
      </trkpt>
      <trkpt lat="46.07958" lon="4.59192">
        <ele>559.2</ele>
        <time>2020-10-24T07:53:51Z</time>
      </trkpt>
      <trkpt lat="46.07958" lon="4.59195">
        <ele>559</ele>
        <time>2020-10-24T07:53:52Z</time>
      </trkpt>
      <trkpt lat="46.07958" lon="4.59198">
        <ele>558.8</ele>
        <time>2020-10-24T07:53:53Z</time>
      </trkpt>
      <trkpt lat="46.07958" lon="4.59201">
        <ele>559</ele>
        <time>2020-10-24T07:53:54Z</time>
      </trkpt>
      <trkpt lat="46.07958" lon="4.59201">
        <ele>558.8</ele>
        <time>2020-10-24T07:53:55Z</time>
      </trkpt>
      <trkpt lat="46.07958" lon="4.59206">
        <ele>559</ele>
        <time>2020-10-24T07:53:56Z</time>
      </trkpt>
      <trkpt lat="46.07958" lon="4.59209">
        <ele>559.2</ele>
        <time>2020-10-24T07:53:57Z</time>
      </trkpt>
      <trkpt lat="46.07958" lon="4.59212">
        <ele>559</ele>
        <time>2020-10-24T07:53:58Z</time>
      </trkpt>
      <trkpt lat="46.07958" lon="4.59215">
        <ele>559.4</ele>
        <time>2020-10-24T07:53:59Z</time>
      </trkpt>
      <trkpt lat="46.07958" lon="4.59217">
        <ele>559</ele>
        <time>2020-10-24T07:54:00Z</time>
      </trkpt>
      <trkpt lat="46.07958" lon="4.5922">
        <ele>559</ele>
        <time>2020-10-24T07:54:01Z</time>
      </trkpt>
      <trkpt lat="46.07958" lon="4.5922">
        <ele>559.4</ele>
        <time>2020-10-24T07:54:02Z</time>
      </trkpt>
      <trkpt lat="46.07958" lon="4.59225">
        <ele>559.2</ele>
        <time>2020-10-24T07:54:03Z</time>
      </trkpt>
      <trkpt lat="46.07957" lon="4.59229">
        <ele>559.2</ele>
        <time>2020-10-24T07:54:04Z</time>
      </trkpt>
      <trkpt lat="46.07957" lon="4.59232">
        <ele>559</ele>
        <time>2020-10-24T07:54:05Z</time>
      </trkpt>
      <trkpt lat="46.07957" lon="4.59235">
        <ele>559.2</ele>
        <time>2020-10-24T07:54:06Z</time>
      </trkpt>
      <trkpt lat="46.07957" lon="4.59239">
        <ele>559.4</ele>
        <time>2020-10-24T07:54:07Z</time>
      </trkpt>
      <trkpt lat="46.07957" lon="4.59242">
        <ele>559.4</ele>
        <time>2020-10-24T07:54:08Z</time>
      </trkpt>
      <trkpt lat="46.07957" lon="4.59246">
        <ele>559.2</ele>
        <time>2020-10-24T07:54:09Z</time>
      </trkpt>
      <trkpt lat="46.07957" lon="4.59249">
        <ele>559.4</ele>
        <time>2020-10-24T07:54:10Z</time>
      </trkpt>
      <trkpt lat="46.07957" lon="4.59252">
        <ele>559.4</ele>
        <time>2020-10-24T07:54:11Z</time>
      </trkpt>
      <trkpt lat="46.07957" lon="4.59256">
        <ele>559.6</ele>
        <time>2020-10-24T07:54:12Z</time>
      </trkpt>
      <trkpt lat="46.07957" lon="4.59258">
        <ele>559.6</ele>
        <time>2020-10-24T07:54:13Z</time>
      </trkpt>
      <trkpt lat="46.07956" lon="4.59261">
        <ele>559.4</ele>
        <time>2020-10-24T07:54:14Z</time>
      </trkpt>
      <trkpt lat="46.07956" lon="4.59264">
        <ele>559.8</ele>
        <time>2020-10-24T07:54:15Z</time>
      </trkpt>
      <trkpt lat="46.07956" lon="4.59267">
        <ele>559.8</ele>
        <time>2020-10-24T07:54:16Z</time>
      </trkpt>
      <trkpt lat="46.07956" lon="4.5927">
        <ele>559.6</ele>
        <time>2020-10-24T07:54:17Z</time>
      </trkpt>
      <trkpt lat="46.07956" lon="4.59272">
        <ele>560</ele>
        <time>2020-10-24T07:54:18Z</time>
      </trkpt>
      <trkpt lat="46.07955" lon="4.59275">
        <ele>559.8</ele>
        <time>2020-10-24T07:54:19Z</time>
      </trkpt>
      <trkpt lat="46.07955" lon="4.59279">
        <ele>559.6</ele>
        <time>2020-10-24T07:54:20Z</time>
      </trkpt>
      <trkpt lat="46.07956" lon="4.59282">
        <ele>559.8</ele>
        <time>2020-10-24T07:54:21Z</time>
      </trkpt>
      <trkpt lat="46.07956" lon="4.59284">
        <ele>559.6</ele>
        <time>2020-10-24T07:54:22Z</time>
      </trkpt>
      <trkpt lat="46.07956" lon="4.59288">
        <ele>560</ele>
        <time>2020-10-24T07:54:23Z</time>
      </trkpt>
      <trkpt lat="46.07956" lon="4.59291">
        <ele>560.2</ele>
        <time>2020-10-24T07:54:24Z</time>
      </trkpt>
      <trkpt lat="46.07956" lon="4.59295">
        <ele>560</ele>
        <time>2020-10-24T07:54:25Z</time>
      </trkpt>
      <trkpt lat="46.07957" lon="4.59298">
        <ele>560.4</ele>
        <time>2020-10-24T07:54:26Z</time>
      </trkpt>
      <trkpt lat="46.07957" lon="4.593">
        <ele>560</ele>
        <time>2020-10-24T07:54:27Z</time>
      </trkpt>
      <trkpt lat="46.07957" lon="4.593">
        <ele>560.6</ele>
        <time>2020-10-24T07:54:28Z</time>
      </trkpt>
      <trkpt lat="46.07956" lon="4.59305">
        <ele>560.6</ele>
        <time>2020-10-24T07:54:29Z</time>
      </trkpt>
      <trkpt lat="46.07956" lon="4.59308">
        <ele>560.6</ele>
        <time>2020-10-24T07:54:30Z</time>
      </trkpt>
      <trkpt lat="46.07957" lon="4.59311">
        <ele>560.6</ele>
        <time>2020-10-24T07:54:31Z</time>
      </trkpt>
      <trkpt lat="46.07957" lon="4.59315">
        <ele>560.6</ele>
        <time>2020-10-24T07:54:32Z</time>
      </trkpt>
      <trkpt lat="46.07957" lon="4.59319">
        <ele>560.4</ele>
        <time>2020-10-24T07:54:33Z</time>
      </trkpt>
      <trkpt lat="46.07956" lon="4.59322">
        <ele>560.6</ele>
        <time>2020-10-24T07:54:34Z</time>
      </trkpt>
      <trkpt lat="46.07956" lon="4.59325">
        <ele>560.4</ele>
        <time>2020-10-24T07:54:35Z</time>
      </trkpt>
      <trkpt lat="46.07956" lon="4.59328">
        <ele>560.2</ele>
        <time>2020-10-24T07:54:36Z</time>
      </trkpt>
      <trkpt lat="46.07956" lon="4.59331">
        <ele>560.6</ele>
        <time>2020-10-24T07:54:37Z</time>
      </trkpt>
      <trkpt lat="46.07956" lon="4.59334">
        <ele>560.4</ele>
        <time>2020-10-24T07:54:38Z</time>
      </trkpt>
      <trkpt lat="46.07956" lon="4.59337">
        <ele>560.4</ele>
        <time>2020-10-24T07:54:39Z</time>
      </trkpt>
      <trkpt lat="46.07957" lon="4.59341">
        <ele>560.6</ele>
        <time>2020-10-24T07:54:40Z</time>
      </trkpt>
      <trkpt lat="46.07957" lon="4.59344">
        <ele>560.6</ele>
        <time>2020-10-24T07:54:41Z</time>
      </trkpt>
      <trkpt lat="46.07957" lon="4.59348">
        <ele>560.6</ele>
        <time>2020-10-24T07:54:42Z</time>
      </trkpt>
      <trkpt lat="46.07957" lon="4.59351">
        <ele>560.6</ele>
        <time>2020-10-24T07:54:43Z</time>
      </trkpt>
      <trkpt lat="46.07957" lon="4.59354">
        <ele>560.6</ele>
        <time>2020-10-24T07:54:44Z</time>
      </trkpt>
      <trkpt lat="46.07958" lon="4.59357">
        <ele>560.6</ele>
        <time>2020-10-24T07:54:45Z</time>
      </trkpt>
      <trkpt lat="46.07957" lon="4.59361">
        <ele>560.6</ele>
        <time>2020-10-24T07:54:46Z</time>
      </trkpt>
      <trkpt lat="46.07958" lon="4.59365">
        <ele>560.4</ele>
        <time>2020-10-24T07:54:47Z</time>
      </trkpt>
      <trkpt lat="46.07957" lon="4.59368">
        <ele>560.8</ele>
        <time>2020-10-24T07:54:48Z</time>
      </trkpt>
      <trkpt lat="46.07957" lon="4.59371">
        <ele>560.8</ele>
        <time>2020-10-24T07:54:49Z</time>
      </trkpt>
      <trkpt lat="46.07957" lon="4.59374">
        <ele>560.8</ele>
        <time>2020-10-24T07:54:50Z</time>
      </trkpt>
      <trkpt lat="46.07958" lon="4.59377">
        <ele>561</ele>
        <time>2020-10-24T07:54:51Z</time>
      </trkpt>
      <trkpt lat="46.07958" lon="4.59381">
        <ele>561</ele>
        <time>2020-10-24T07:54:52Z</time>
      </trkpt>
      <trkpt lat="46.07958" lon="4.59385">
        <ele>561</ele>
        <time>2020-10-24T07:54:53Z</time>
      </trkpt>
      <trkpt lat="46.07959" lon="4.59388">
        <ele>561.2</ele>
        <time>2020-10-24T07:54:54Z</time>
      </trkpt>
      <trkpt lat="46.07959" lon="4.59391">
        <ele>561</ele>
        <time>2020-10-24T07:54:55Z</time>
      </trkpt>
      <trkpt lat="46.07959" lon="4.59395">
        <ele>561.4</ele>
        <time>2020-10-24T07:54:56Z</time>
      </trkpt>
      <trkpt lat="46.07959" lon="4.59399">
        <ele>561.4</ele>
        <time>2020-10-24T07:54:57Z</time>
      </trkpt>
      <trkpt lat="46.07958" lon="4.59403">
        <ele>561.4</ele>
        <time>2020-10-24T07:54:58Z</time>
      </trkpt>
      <trkpt lat="46.07958" lon="4.59407">
        <ele>561.8</ele>
        <time>2020-10-24T07:54:59Z</time>
      </trkpt>
      <trkpt lat="46.07958" lon="4.59411">
        <ele>561.6</ele>
        <time>2020-10-24T07:55:00Z</time>
      </trkpt>
      <trkpt lat="46.07958" lon="4.59415">
        <ele>561.6</ele>
        <time>2020-10-24T07:55:01Z</time>
      </trkpt>
      <trkpt lat="46.07958" lon="4.59418">
        <ele>561.8</ele>
        <time>2020-10-24T07:55:02Z</time>
      </trkpt>
      <trkpt lat="46.07958" lon="4.59422">
        <ele>561.8</ele>
        <time>2020-10-24T07:55:03Z</time>
      </trkpt>
      <trkpt lat="46.07958" lon="4.59425">
        <ele>562</ele>
        <time>2020-10-24T07:55:04Z</time>
      </trkpt>
      <trkpt lat="46.07957" lon="4.59428">
        <ele>562.2</ele>
        <time>2020-10-24T07:55:05Z</time>
      </trkpt>
      <trkpt lat="46.07957" lon="4.59432">
        <ele>562</ele>
        <time>2020-10-24T07:55:06Z</time>
      </trkpt>
      <trkpt lat="46.07956" lon="4.59435">
        <ele>562.4</ele>
        <time>2020-10-24T07:55:07Z</time>
      </trkpt>
      <trkpt lat="46.07955" lon="4.59438">
        <ele>562.2</ele>
        <time>2020-10-24T07:55:08Z</time>
      </trkpt>
      <trkpt lat="46.07954" lon="4.59441">
        <ele>561.8</ele>
        <time>2020-10-24T07:55:09Z</time>
      </trkpt>
      <trkpt lat="46.07954" lon="4.59441">
        <ele>562.2</ele>
        <time>2020-10-24T07:55:10Z</time>
      </trkpt>
      <trkpt lat="46.07953" lon="4.59446">
        <ele>562.2</ele>
        <time>2020-10-24T07:55:11Z</time>
      </trkpt>
      <trkpt lat="46.07953" lon="4.59449">
        <ele>562.4</ele>
        <time>2020-10-24T07:55:12Z</time>
      </trkpt>
      <trkpt lat="46.07953" lon="4.59451">
        <ele>562.6</ele>
        <time>2020-10-24T07:55:13Z</time>
      </trkpt>
      <trkpt lat="46.07953" lon="4.59454">
        <ele>562.4</ele>
        <time>2020-10-24T07:55:14Z</time>
      </trkpt>
      <trkpt lat="46.07952" lon="4.59457">
        <ele>563</ele>
        <time>2020-10-24T07:55:15Z</time>
      </trkpt>
      <trkpt lat="46.07952" lon="4.5946">
        <ele>562.8</ele>
        <time>2020-10-24T07:55:16Z</time>
      </trkpt>
      <trkpt lat="46.07951" lon="4.59463">
        <ele>562.8</ele>
        <time>2020-10-24T07:55:17Z</time>
      </trkpt>
      <trkpt lat="46.0795" lon="4.59466">
        <ele>563</ele>
        <time>2020-10-24T07:55:18Z</time>
      </trkpt>
      <trkpt lat="46.0795" lon="4.59469">
        <ele>563.2</ele>
        <time>2020-10-24T07:55:19Z</time>
      </trkpt>
      <trkpt lat="46.0795" lon="4.59472">
        <ele>563.2</ele>
        <time>2020-10-24T07:55:20Z</time>
      </trkpt>
      <trkpt lat="46.07949" lon="4.59476">
        <ele>563</ele>
        <time>2020-10-24T07:55:21Z</time>
      </trkpt>
      <trkpt lat="46.07949" lon="4.59479">
        <ele>563</ele>
        <time>2020-10-24T07:55:22Z</time>
      </trkpt>
      <trkpt lat="46.07949" lon="4.59483">
        <ele>563.4</ele>
        <time>2020-10-24T07:55:23Z</time>
      </trkpt>
      <trkpt lat="46.07949" lon="4.59486">
        <ele>563.2</ele>
        <time>2020-10-24T07:55:24Z</time>
      </trkpt>
      <trkpt lat="46.07949" lon="4.59489">
        <ele>563.2</ele>
        <time>2020-10-24T07:55:25Z</time>
      </trkpt>
      <trkpt lat="46.07949" lon="4.59492">
        <ele>563.6</ele>
        <time>2020-10-24T07:55:26Z</time>
      </trkpt>
      <trkpt lat="46.07949" lon="4.59495">
        <ele>563.4</ele>
        <time>2020-10-24T07:55:27Z</time>
      </trkpt>
      <trkpt lat="46.07949" lon="4.59498">
        <ele>563.2</ele>
        <time>2020-10-24T07:55:28Z</time>
      </trkpt>
      <trkpt lat="46.07949" lon="4.59501">
        <ele>563.6</ele>
        <time>2020-10-24T07:55:29Z</time>
      </trkpt>
      <trkpt lat="46.07949" lon="4.59504">
        <ele>563.6</ele>
        <time>2020-10-24T07:55:30Z</time>
      </trkpt>
      <trkpt lat="46.07949" lon="4.59507">
        <ele>563.8</ele>
        <time>2020-10-24T07:55:31Z</time>
      </trkpt>
      <trkpt lat="46.07949" lon="4.5951">
        <ele>564.2</ele>
        <time>2020-10-24T07:55:32Z</time>
      </trkpt>
      <trkpt lat="46.07949" lon="4.59513">
        <ele>564.4</ele>
        <time>2020-10-24T07:55:33Z</time>
      </trkpt>
      <trkpt lat="46.07948" lon="4.59516">
        <ele>564.2</ele>
        <time>2020-10-24T07:55:34Z</time>
      </trkpt>
      <trkpt lat="46.07948" lon="4.59519">
        <ele>564.6</ele>
        <time>2020-10-24T07:55:35Z</time>
      </trkpt>
      <trkpt lat="46.07947" lon="4.59522">
        <ele>564.4</ele>
        <time>2020-10-24T07:55:36Z</time>
      </trkpt>
      <trkpt lat="46.07947" lon="4.59525">
        <ele>564.6</ele>
        <time>2020-10-24T07:55:37Z</time>
      </trkpt>
      <trkpt lat="46.07947" lon="4.59528">
        <ele>564.4</ele>
        <time>2020-10-24T07:55:38Z</time>
      </trkpt>
      <trkpt lat="46.07946" lon="4.5953">
        <ele>564.4</ele>
        <time>2020-10-24T07:55:39Z</time>
      </trkpt>
      <trkpt lat="46.07946" lon="4.59533">
        <ele>564.6</ele>
        <time>2020-10-24T07:55:40Z</time>
      </trkpt>
      <trkpt lat="46.07946" lon="4.59536">
        <ele>564.2</ele>
        <time>2020-10-24T07:55:41Z</time>
      </trkpt>
      <trkpt lat="46.07946" lon="4.59539">
        <ele>564</ele>
        <time>2020-10-24T07:55:42Z</time>
      </trkpt>
      <trkpt lat="46.07946" lon="4.59543">
        <ele>564.2</ele>
        <time>2020-10-24T07:55:43Z</time>
      </trkpt>
      <trkpt lat="46.07945" lon="4.59546">
        <ele>564</ele>
        <time>2020-10-24T07:55:44Z</time>
      </trkpt>
      <trkpt lat="46.07945" lon="4.59548">
        <ele>563.8</ele>
        <time>2020-10-24T07:55:45Z</time>
      </trkpt>
      <trkpt lat="46.07944" lon="4.59551">
        <ele>564</ele>
        <time>2020-10-24T07:55:46Z</time>
      </trkpt>
      <trkpt lat="46.07944" lon="4.59554">
        <ele>563.8</ele>
        <time>2020-10-24T07:55:47Z</time>
      </trkpt>
      <trkpt lat="46.07943" lon="4.59558">
        <ele>564.2</ele>
        <time>2020-10-24T07:55:48Z</time>
      </trkpt>
      <trkpt lat="46.07942" lon="4.59561">
        <ele>564</ele>
        <time>2020-10-24T07:55:49Z</time>
      </trkpt>
      <trkpt lat="46.07942" lon="4.59565">
        <ele>563.6</ele>
        <time>2020-10-24T07:55:50Z</time>
      </trkpt>
      <trkpt lat="46.07942" lon="4.59569">
        <ele>563.8</ele>
        <time>2020-10-24T07:55:51Z</time>
      </trkpt>
      <trkpt lat="46.07942" lon="4.59573">
        <ele>563.8</ele>
        <time>2020-10-24T07:55:52Z</time>
      </trkpt>
      <trkpt lat="46.07942" lon="4.59577">
        <ele>563.6</ele>
        <time>2020-10-24T07:55:53Z</time>
      </trkpt>
      <trkpt lat="46.07942" lon="4.5958">
        <ele>564</ele>
        <time>2020-10-24T07:55:54Z</time>
      </trkpt>
      <trkpt lat="46.07941" lon="4.59584">
        <ele>564</ele>
        <time>2020-10-24T07:55:55Z</time>
      </trkpt>
      <trkpt lat="46.07941" lon="4.59587">
        <ele>564.4</ele>
        <time>2020-10-24T07:55:56Z</time>
      </trkpt>
      <trkpt lat="46.07941" lon="4.5959">
        <ele>564</ele>
        <time>2020-10-24T07:55:57Z</time>
      </trkpt>
      <trkpt lat="46.07941" lon="4.59593">
        <ele>564</ele>
        <time>2020-10-24T07:55:58Z</time>
      </trkpt>
      <trkpt lat="46.07941" lon="4.59593">
        <ele>564.4</ele>
        <time>2020-10-24T07:55:59Z</time>
      </trkpt>
      <trkpt lat="46.07941" lon="4.59598">
        <ele>564.2</ele>
        <time>2020-10-24T07:56:00Z</time>
      </trkpt>
      <trkpt lat="46.07941" lon="4.59598">
        <ele>564.4</ele>
        <time>2020-10-24T07:56:01Z</time>
      </trkpt>
      <trkpt lat="46.0794" lon="4.59603">
        <ele>564.4</ele>
        <time>2020-10-24T07:56:02Z</time>
      </trkpt>
      <trkpt lat="46.0794" lon="4.59603">
        <ele>564.2</ele>
        <time>2020-10-24T07:56:03Z</time>
      </trkpt>
      <trkpt lat="46.07939" lon="4.59608">
        <ele>564.6</ele>
        <time>2020-10-24T07:56:04Z</time>
      </trkpt>
      <trkpt lat="46.07939" lon="4.59608">
        <ele>564.6</ele>
        <time>2020-10-24T07:56:05Z</time>
      </trkpt>
      <trkpt lat="46.07939" lon="4.59613">
        <ele>564.8</ele>
        <time>2020-10-24T07:56:06Z</time>
      </trkpt>
      <trkpt lat="46.07939" lon="4.59616">
        <ele>564.8</ele>
        <time>2020-10-24T07:56:07Z</time>
      </trkpt>
      <trkpt lat="46.07939" lon="4.59619">
        <ele>564.6</ele>
        <time>2020-10-24T07:56:08Z</time>
      </trkpt>
      <trkpt lat="46.0794" lon="4.59622">
        <ele>565</ele>
        <time>2020-10-24T07:56:09Z</time>
      </trkpt>
      <trkpt lat="46.0794" lon="4.59626">
        <ele>564.8</ele>
        <time>2020-10-24T07:56:10Z</time>
      </trkpt>
      <trkpt lat="46.07939" lon="4.59629">
        <ele>564.6</ele>
        <time>2020-10-24T07:56:11Z</time>
      </trkpt>
      <trkpt lat="46.07939" lon="4.59629">
        <ele>565.4</ele>
        <time>2020-10-24T07:56:12Z</time>
      </trkpt>
      <trkpt lat="46.0794" lon="4.59634">
        <ele>565.2</ele>
        <time>2020-10-24T07:56:13Z</time>
      </trkpt>
      <trkpt lat="46.07939" lon="4.59637">
        <ele>565.2</ele>
        <time>2020-10-24T07:56:14Z</time>
      </trkpt>
      <trkpt lat="46.07939" lon="4.59641">
        <ele>565.6</ele>
        <time>2020-10-24T07:56:15Z</time>
      </trkpt>
      <trkpt lat="46.07939" lon="4.59644">
        <ele>565.4</ele>
        <time>2020-10-24T07:56:16Z</time>
      </trkpt>
      <trkpt lat="46.07939" lon="4.59647">
        <ele>565.6</ele>
        <time>2020-10-24T07:56:17Z</time>
      </trkpt>
      <trkpt lat="46.07939" lon="4.59651">
        <ele>565.2</ele>
        <time>2020-10-24T07:56:18Z</time>
      </trkpt>
      <trkpt lat="46.07939" lon="4.59654">
        <ele>565.2</ele>
        <time>2020-10-24T07:56:19Z</time>
      </trkpt>
      <trkpt lat="46.07939" lon="4.59658">
        <ele>565.4</ele>
        <time>2020-10-24T07:56:20Z</time>
      </trkpt>
      <trkpt lat="46.0794" lon="4.59661">
        <ele>565.2</ele>
        <time>2020-10-24T07:56:21Z</time>
      </trkpt>
      <trkpt lat="46.0794" lon="4.59665">
        <ele>565</ele>
        <time>2020-10-24T07:56:22Z</time>
      </trkpt>
      <trkpt lat="46.0794" lon="4.59668">
        <ele>565.4</ele>
        <time>2020-10-24T07:56:23Z</time>
      </trkpt>
      <trkpt lat="46.0794" lon="4.59671">
        <ele>565.2</ele>
        <time>2020-10-24T07:56:24Z</time>
      </trkpt>
      <trkpt lat="46.07941" lon="4.59674">
        <ele>565.6</ele>
        <time>2020-10-24T07:56:25Z</time>
      </trkpt>
      <trkpt lat="46.07941" lon="4.59678">
        <ele>565.2</ele>
        <time>2020-10-24T07:56:26Z</time>
      </trkpt>
      <trkpt lat="46.07942" lon="4.59681">
        <ele>565.2</ele>
        <time>2020-10-24T07:56:27Z</time>
      </trkpt>
      <trkpt lat="46.07942" lon="4.59684">
        <ele>565.6</ele>
        <time>2020-10-24T07:56:28Z</time>
      </trkpt>
      <trkpt lat="46.07943" lon="4.59687">
        <ele>565.4</ele>
        <time>2020-10-24T07:56:29Z</time>
      </trkpt>
      <trkpt lat="46.07944" lon="4.5969">
        <ele>565.2</ele>
        <time>2020-10-24T07:56:30Z</time>
      </trkpt>
      <trkpt lat="46.07944" lon="4.59693">
        <ele>566</ele>
        <time>2020-10-24T07:56:31Z</time>
      </trkpt>
      <trkpt lat="46.07945" lon="4.59696">
        <ele>565.8</ele>
        <time>2020-10-24T07:56:32Z</time>
      </trkpt>
      <trkpt lat="46.07945" lon="4.59696">
        <ele>565.8</ele>
        <time>2020-10-24T07:56:33Z</time>
      </trkpt>
      <trkpt lat="46.07945" lon="4.59701">
        <ele>566.2</ele>
        <time>2020-10-24T07:56:34Z</time>
      </trkpt>
      <trkpt lat="46.07946" lon="4.59704">
        <ele>566</ele>
        <time>2020-10-24T07:56:35Z</time>
      </trkpt>
      <trkpt lat="46.07946" lon="4.59707">
        <ele>566.6</ele>
        <time>2020-10-24T07:56:36Z</time>
      </trkpt>
      <trkpt lat="46.07947" lon="4.59711">
        <ele>566.4</ele>
        <time>2020-10-24T07:56:37Z</time>
      </trkpt>
      <trkpt lat="46.07948" lon="4.59713">
        <ele>566.2</ele>
        <time>2020-10-24T07:56:38Z</time>
      </trkpt>
      <trkpt lat="46.07949" lon="4.59716">
        <ele>566.8</ele>
        <time>2020-10-24T07:56:39Z</time>
      </trkpt>
      <trkpt lat="46.0795" lon="4.59719">
        <ele>566.8</ele>
        <time>2020-10-24T07:56:40Z</time>
      </trkpt>
      <trkpt lat="46.07951" lon="4.59722">
        <ele>566.8</ele>
        <time>2020-10-24T07:56:41Z</time>
      </trkpt>
      <trkpt lat="46.07952" lon="4.59725">
        <ele>567</ele>
        <time>2020-10-24T07:56:42Z</time>
      </trkpt>
      <trkpt lat="46.07953" lon="4.59728">
        <ele>567.2</ele>
        <time>2020-10-24T07:56:43Z</time>
      </trkpt>
      <trkpt lat="46.07954" lon="4.59731">
        <ele>567.6</ele>
        <time>2020-10-24T07:56:44Z</time>
      </trkpt>
      <trkpt lat="46.07955" lon="4.59733">
        <ele>567.6</ele>
        <time>2020-10-24T07:56:45Z</time>
      </trkpt>
      <trkpt lat="46.07955" lon="4.59736">
        <ele>567.6</ele>
        <time>2020-10-24T07:56:46Z</time>
      </trkpt>
      <trkpt lat="46.07956" lon="4.59739">
        <ele>568.2</ele>
        <time>2020-10-24T07:56:47Z</time>
      </trkpt>
      <trkpt lat="46.07957" lon="4.59742">
        <ele>568</ele>
        <time>2020-10-24T07:56:48Z</time>
      </trkpt>
      <trkpt lat="46.07958" lon="4.59745">
        <ele>568.2</ele>
        <time>2020-10-24T07:56:49Z</time>
      </trkpt>
      <trkpt lat="46.07958" lon="4.59748">
        <ele>568.6</ele>
        <time>2020-10-24T07:56:50Z</time>
      </trkpt>
      <trkpt lat="46.07959" lon="4.59751">
        <ele>568.6</ele>
        <time>2020-10-24T07:56:51Z</time>
      </trkpt>
      <trkpt lat="46.0796" lon="4.59754">
        <ele>568.4</ele>
        <time>2020-10-24T07:56:52Z</time>
      </trkpt>
      <trkpt lat="46.07961" lon="4.59757">
        <ele>568.8</ele>
        <time>2020-10-24T07:56:53Z</time>
      </trkpt>
      <trkpt lat="46.07962" lon="4.5976">
        <ele>569</ele>
        <time>2020-10-24T07:56:54Z</time>
      </trkpt>
      <trkpt lat="46.07963" lon="4.59762">
        <ele>569</ele>
        <time>2020-10-24T07:56:55Z</time>
      </trkpt>
      <trkpt lat="46.07964" lon="4.59765">
        <ele>569.4</ele>
        <time>2020-10-24T07:56:56Z</time>
      </trkpt>
      <trkpt lat="46.07965" lon="4.59768">
        <ele>569.2</ele>
        <time>2020-10-24T07:56:57Z</time>
      </trkpt>
      <trkpt lat="46.07966" lon="4.5977">
        <ele>569.6</ele>
        <time>2020-10-24T07:56:58Z</time>
      </trkpt>
      <trkpt lat="46.07967" lon="4.59773">
        <ele>569.6</ele>
        <time>2020-10-24T07:56:59Z</time>
      </trkpt>
      <trkpt lat="46.07967" lon="4.59773">
        <ele>569.4</ele>
        <time>2020-10-24T07:57:00Z</time>
      </trkpt>
      <trkpt lat="46.07968" lon="4.59779">
        <ele>570.2</ele>
        <time>2020-10-24T07:57:01Z</time>
      </trkpt>
      <trkpt lat="46.07969" lon="4.59781">
        <ele>570.2</ele>
        <time>2020-10-24T07:57:02Z</time>
      </trkpt>
      <trkpt lat="46.07969" lon="4.59781">
        <ele>570</ele>
        <time>2020-10-24T07:57:03Z</time>
      </trkpt>
      <trkpt lat="46.0797" lon="4.59787">
        <ele>570.6</ele>
        <time>2020-10-24T07:57:04Z</time>
      </trkpt>
      <trkpt lat="46.0797" lon="4.5979">
        <ele>570.4</ele>
        <time>2020-10-24T07:57:05Z</time>
      </trkpt>
      <trkpt lat="46.07971" lon="4.59793">
        <ele>571</ele>
        <time>2020-10-24T07:57:06Z</time>
      </trkpt>
      <trkpt lat="46.07972" lon="4.59796">
        <ele>571</ele>
        <time>2020-10-24T07:57:07Z</time>
      </trkpt>
      <trkpt lat="46.07973" lon="4.59798">
        <ele>571.2</ele>
        <time>2020-10-24T07:57:08Z</time>
      </trkpt>
      <trkpt lat="46.07973" lon="4.59801">
        <ele>571.8</ele>
        <time>2020-10-24T07:57:09Z</time>
      </trkpt>
      <trkpt lat="46.07974" lon="4.59804">
        <ele>571.8</ele>
        <time>2020-10-24T07:57:10Z</time>
      </trkpt>
      <trkpt lat="46.07975" lon="4.59807">
        <ele>571.8</ele>
        <time>2020-10-24T07:57:11Z</time>
      </trkpt>
      <trkpt lat="46.07975" lon="4.59807">
        <ele>572.2</ele>
        <time>2020-10-24T07:57:12Z</time>
      </trkpt>
      <trkpt lat="46.07976" lon="4.59811">
        <ele>572.2</ele>
        <time>2020-10-24T07:57:13Z</time>
      </trkpt>
      <trkpt lat="46.07976" lon="4.59811">
        <ele>572.2</ele>
        <time>2020-10-24T07:57:14Z</time>
      </trkpt>
      <trkpt lat="46.07976" lon="4.59816">
        <ele>572.6</ele>
        <time>2020-10-24T07:57:15Z</time>
      </trkpt>
      <trkpt lat="46.07977" lon="4.59819">
        <ele>572.8</ele>
        <time>2020-10-24T07:57:16Z</time>
      </trkpt>
      <trkpt lat="46.07977" lon="4.59822">
        <ele>573.2</ele>
        <time>2020-10-24T07:57:17Z</time>
      </trkpt>
      <trkpt lat="46.07978" lon="4.59824">
        <ele>573.4</ele>
        <time>2020-10-24T07:57:18Z</time>
      </trkpt>
      <trkpt lat="46.07979" lon="4.59827">
        <ele>573.6</ele>
        <time>2020-10-24T07:57:19Z</time>
      </trkpt>
      <trkpt lat="46.0798" lon="4.5983">
        <ele>574.2</ele>
        <time>2020-10-24T07:57:20Z</time>
      </trkpt>
      <trkpt lat="46.07981" lon="4.59834">
        <ele>574</ele>
        <time>2020-10-24T07:57:21Z</time>
      </trkpt>
      <trkpt lat="46.07982" lon="4.59837">
        <ele>574</ele>
        <time>2020-10-24T07:57:22Z</time>
      </trkpt>
      <trkpt lat="46.07982" lon="4.59837">
        <ele>574.2</ele>
        <time>2020-10-24T07:57:23Z</time>
      </trkpt>
      <trkpt lat="46.07983" lon="4.59842">
        <ele>574.4</ele>
        <time>2020-10-24T07:57:24Z</time>
      </trkpt>
      <trkpt lat="46.07983" lon="4.59845">
        <ele>574.8</ele>
        <time>2020-10-24T07:57:25Z</time>
      </trkpt>
      <trkpt lat="46.07983" lon="4.59848">
        <ele>574.8</ele>
        <time>2020-10-24T07:57:26Z</time>
      </trkpt>
      <trkpt lat="46.07984" lon="4.59851">
        <ele>575.2</ele>
        <time>2020-10-24T07:57:27Z</time>
      </trkpt>
      <trkpt lat="46.07985" lon="4.59855">
        <ele>575.8</ele>
        <time>2020-10-24T07:57:28Z</time>
      </trkpt>
      <trkpt lat="46.07985" lon="4.59858">
        <ele>575.8</ele>
        <time>2020-10-24T07:57:29Z</time>
      </trkpt>
      <trkpt lat="46.07986" lon="4.59861">
        <ele>576</ele>
        <time>2020-10-24T07:57:30Z</time>
      </trkpt>
      <trkpt lat="46.07985" lon="4.59864">
        <ele>576.2</ele>
        <time>2020-10-24T07:57:31Z</time>
      </trkpt>
      <trkpt lat="46.07985" lon="4.59867">
        <ele>576.6</ele>
        <time>2020-10-24T07:57:32Z</time>
      </trkpt>
      <trkpt lat="46.07984" lon="4.5987">
        <ele>576.8</ele>
        <time>2020-10-24T07:57:33Z</time>
      </trkpt>
      <trkpt lat="46.07984" lon="4.5987">
        <ele>577</ele>
        <time>2020-10-24T07:57:34Z</time>
      </trkpt>
      <trkpt lat="46.07983" lon="4.59874">
        <ele>577</ele>
        <time>2020-10-24T07:57:35Z</time>
      </trkpt>
      <trkpt lat="46.07983" lon="4.59874">
        <ele>577</ele>
        <time>2020-10-24T07:57:36Z</time>
      </trkpt>
      <trkpt lat="46.07983" lon="4.59877">
        <ele>577</ele>
        <time>2020-10-24T07:57:37Z</time>
      </trkpt>
      <trkpt lat="46.07983" lon="4.59877">
        <ele>577</ele>
        <time>2020-10-24T07:57:38Z</time>
      </trkpt>
      <trkpt lat="46.07982" lon="4.59881">
        <ele>577.4</ele>
        <time>2020-10-24T07:57:39Z</time>
      </trkpt>
      <trkpt lat="46.07982" lon="4.59881">
        <ele>578</ele>
        <time>2020-10-24T07:57:40Z</time>
      </trkpt>
      <trkpt lat="46.0798" lon="4.59885">
        <ele>578.2</ele>
        <time>2020-10-24T07:57:41Z</time>
      </trkpt>
      <trkpt lat="46.0798" lon="4.59885">
        <ele>578.4</ele>
        <time>2020-10-24T07:57:42Z</time>
      </trkpt>
      <trkpt lat="46.07979" lon="4.59888">
        <ele>578.4</ele>
        <time>2020-10-24T07:57:43Z</time>
      </trkpt>
      <trkpt lat="46.07979" lon="4.59888">
        <ele>578.4</ele>
        <time>2020-10-24T07:57:44Z</time>
      </trkpt>
      <trkpt lat="46.07977" lon="4.59892">
        <ele>578.4</ele>
        <time>2020-10-24T07:57:45Z</time>
      </trkpt>
      <trkpt lat="46.07977" lon="4.59892">
        <ele>578.2</ele>
        <time>2020-10-24T07:57:46Z</time>
      </trkpt>
      <trkpt lat="46.07976" lon="4.59897">
        <ele>578.4</ele>
        <time>2020-10-24T07:57:47Z</time>
      </trkpt>
      <trkpt lat="46.07976" lon="4.59897">
        <ele>578.6</ele>
        <time>2020-10-24T07:57:48Z</time>
      </trkpt>
      <trkpt lat="46.07975" lon="4.599">
        <ele>578.8</ele>
        <time>2020-10-24T07:57:49Z</time>
      </trkpt>
      <trkpt lat="46.07975" lon="4.599">
        <ele>579</ele>
        <time>2020-10-24T07:57:50Z</time>
      </trkpt>
      <trkpt lat="46.07973" lon="4.59904">
        <ele>579.2</ele>
        <time>2020-10-24T07:57:51Z</time>
      </trkpt>
      <trkpt lat="46.07973" lon="4.59904">
        <ele>579.2</ele>
        <time>2020-10-24T07:57:52Z</time>
      </trkpt>
      <trkpt lat="46.07972" lon="4.59907">
        <ele>579.6</ele>
        <time>2020-10-24T07:57:53Z</time>
      </trkpt>
      <trkpt lat="46.07972" lon="4.59907">
        <ele>579.8</ele>
        <time>2020-10-24T07:57:54Z</time>
      </trkpt>
      <trkpt lat="46.07969" lon="4.59911">
        <ele>580.2</ele>
        <time>2020-10-24T07:57:55Z</time>
      </trkpt>
      <trkpt lat="46.07969" lon="4.59911">
        <ele>580.4</ele>
        <time>2020-10-24T07:57:56Z</time>
      </trkpt>
      <trkpt lat="46.07967" lon="4.59914">
        <ele>580.4</ele>
        <time>2020-10-24T07:57:57Z</time>
      </trkpt>
      <trkpt lat="46.07967" lon="4.59914">
        <ele>580.4</ele>
        <time>2020-10-24T07:57:58Z</time>
      </trkpt>
      <trkpt lat="46.07965" lon="4.59917">
        <ele>580.6</ele>
        <time>2020-10-24T07:57:59Z</time>
      </trkpt>
      <trkpt lat="46.07965" lon="4.59917">
        <ele>580.4</ele>
        <time>2020-10-24T07:58:00Z</time>
      </trkpt>
      <trkpt lat="46.07964" lon="4.5992">
        <ele>580.4</ele>
        <time>2020-10-24T07:58:01Z</time>
      </trkpt>
      <trkpt lat="46.07964" lon="4.5992">
        <ele>580.2</ele>
        <time>2020-10-24T07:58:02Z</time>
      </trkpt>
      <trkpt lat="46.07962" lon="4.59924">
        <ele>580.2</ele>
        <time>2020-10-24T07:58:03Z</time>
      </trkpt>
      <trkpt lat="46.07962" lon="4.59924">
        <ele>580.2</ele>
        <time>2020-10-24T07:58:04Z</time>
      </trkpt>
      <trkpt lat="46.0796" lon="4.59927">
        <ele>580</ele>
        <time>2020-10-24T07:58:05Z</time>
      </trkpt>
      <trkpt lat="46.0796" lon="4.59927">
        <ele>579.8</ele>
        <time>2020-10-24T07:58:06Z</time>
      </trkpt>
      <trkpt lat="46.07958" lon="4.59929">
        <ele>579.6</ele>
        <time>2020-10-24T07:58:07Z</time>
      </trkpt>
      <trkpt lat="46.07958" lon="4.59929">
        <ele>579.2</ele>
        <time>2020-10-24T07:58:08Z</time>
      </trkpt>
      <trkpt lat="46.07955" lon="4.59931">
        <ele>578.6</ele>
        <time>2020-10-24T07:58:09Z</time>
      </trkpt>
      <trkpt lat="46.07955" lon="4.59931">
        <ele>578.4</ele>
        <time>2020-10-24T07:58:10Z</time>
      </trkpt>
      <trkpt lat="46.07952" lon="4.59933">
        <ele>578.2</ele>
        <time>2020-10-24T07:58:11Z</time>
      </trkpt>
      <trkpt lat="46.07952" lon="4.59933">
        <ele>577.8</ele>
        <time>2020-10-24T07:58:12Z</time>
      </trkpt>
      <trkpt lat="46.07949" lon="4.59935">
        <ele>577.6</ele>
        <time>2020-10-24T07:58:13Z</time>
      </trkpt>
      <trkpt lat="46.07949" lon="4.59935">
        <ele>577.6</ele>
        <time>2020-10-24T07:58:14Z</time>
      </trkpt>
      <trkpt lat="46.07947" lon="4.59937">
        <ele>577.2</ele>
        <time>2020-10-24T07:58:15Z</time>
      </trkpt>
      <trkpt lat="46.07947" lon="4.59937">
        <ele>577.2</ele>
        <time>2020-10-24T07:58:16Z</time>
      </trkpt>
      <trkpt lat="46.07944" lon="4.59939">
        <ele>576.6</ele>
        <time>2020-10-24T07:58:17Z</time>
      </trkpt>
      <trkpt lat="46.07944" lon="4.59939">
        <ele>576</ele>
        <time>2020-10-24T07:58:18Z</time>
      </trkpt>
      <trkpt lat="46.07942" lon="4.59942">
        <ele>575.6</ele>
        <time>2020-10-24T07:58:19Z</time>
      </trkpt>
      <trkpt lat="46.07942" lon="4.59942">
        <ele>575.2</ele>
        <time>2020-10-24T07:58:20Z</time>
      </trkpt>
      <trkpt lat="46.07941" lon="4.59944">
        <ele>575.2</ele>
        <time>2020-10-24T07:58:21Z</time>
      </trkpt>
      <trkpt lat="46.07941" lon="4.59944">
        <ele>575</ele>
        <time>2020-10-24T07:58:22Z</time>
      </trkpt>
      <trkpt lat="46.07938" lon="4.59946">
        <ele>574.6</ele>
        <time>2020-10-24T07:58:23Z</time>
      </trkpt>
      <trkpt lat="46.07938" lon="4.59946">
        <ele>574.4</ele>
        <time>2020-10-24T07:58:24Z</time>
      </trkpt>
      <trkpt lat="46.07935" lon="4.59949">
        <ele>574.2</ele>
        <time>2020-10-24T07:58:25Z</time>
      </trkpt>
      <trkpt lat="46.07935" lon="4.59949">
        <ele>574</ele>
        <time>2020-10-24T07:58:26Z</time>
      </trkpt>
      <trkpt lat="46.07934" lon="4.59953">
        <ele>573.8</ele>
        <time>2020-10-24T07:58:27Z</time>
      </trkpt>
      <trkpt lat="46.07933" lon="4.59956">
        <ele>573.6</ele>
        <time>2020-10-24T07:58:28Z</time>
      </trkpt>
      <trkpt lat="46.07932" lon="4.59958">
        <ele>572.6</ele>
        <time>2020-10-24T07:58:29Z</time>
      </trkpt>
      <trkpt lat="46.07931" lon="4.59961">
        <ele>572</ele>
        <time>2020-10-24T07:58:30Z</time>
      </trkpt>
      <trkpt lat="46.0793" lon="4.59964">
        <ele>572</ele>
        <time>2020-10-24T07:58:31Z</time>
      </trkpt>
      <trkpt lat="46.07929" lon="4.59967">
        <ele>571.6</ele>
        <time>2020-10-24T07:58:32Z</time>
      </trkpt>
      <trkpt lat="46.07928" lon="4.59969">
        <ele>571</ele>
        <time>2020-10-24T07:58:33Z</time>
      </trkpt>
      <trkpt lat="46.07927" lon="4.59971">
        <ele>570.8</ele>
        <time>2020-10-24T07:58:34Z</time>
      </trkpt>
      <trkpt lat="46.07926" lon="4.59974">
        <ele>570</ele>
        <time>2020-10-24T07:58:35Z</time>
      </trkpt>
      <trkpt lat="46.07925" lon="4.59977">
        <ele>569.4</ele>
        <time>2020-10-24T07:58:36Z</time>
      </trkpt>
      <trkpt lat="46.07924" lon="4.5998">
        <ele>569.4</ele>
        <time>2020-10-24T07:58:37Z</time>
      </trkpt>
      <trkpt lat="46.07923" lon="4.59982">
        <ele>569</ele>
        <time>2020-10-24T07:58:38Z</time>
      </trkpt>
      <trkpt lat="46.07922" lon="4.59985">
        <ele>568.6</ele>
        <time>2020-10-24T07:58:39Z</time>
      </trkpt>
      <trkpt lat="46.07921" lon="4.59988">
        <ele>568.4</ele>
        <time>2020-10-24T07:58:40Z</time>
      </trkpt>
      <trkpt lat="46.07921" lon="4.59991">
        <ele>567.8</ele>
        <time>2020-10-24T07:58:41Z</time>
      </trkpt>
      <trkpt lat="46.07921" lon="4.59995">
        <ele>567.4</ele>
        <time>2020-10-24T07:58:42Z</time>
      </trkpt>
      <trkpt lat="46.07921" lon="4.59997">
        <ele>567.4</ele>
        <time>2020-10-24T07:58:43Z</time>
      </trkpt>
      <trkpt lat="46.07923" lon="4.6">
        <ele>567</ele>
        <time>2020-10-24T07:58:44Z</time>
      </trkpt>
      <trkpt lat="46.07924" lon="4.60003">
        <ele>566.4</ele>
        <time>2020-10-24T07:58:45Z</time>
      </trkpt>
      <trkpt lat="46.07924" lon="4.60003">
        <ele>566.4</ele>
        <time>2020-10-24T07:58:46Z</time>
      </trkpt>
      <trkpt lat="46.07926" lon="4.60006">
        <ele>566.2</ele>
        <time>2020-10-24T07:58:47Z</time>
      </trkpt>
      <trkpt lat="46.07926" lon="4.60006">
        <ele>565.8</ele>
        <time>2020-10-24T07:58:48Z</time>
      </trkpt>
      <trkpt lat="46.07928" lon="4.60011">
        <ele>565.4</ele>
        <time>2020-10-24T07:58:49Z</time>
      </trkpt>
      <trkpt lat="46.07929" lon="4.60013">
        <ele>565.4</ele>
        <time>2020-10-24T07:58:50Z</time>
      </trkpt>
      <trkpt lat="46.0793" lon="4.60015">
        <ele>565.6</ele>
        <time>2020-10-24T07:58:51Z</time>
      </trkpt>
      <trkpt lat="46.07931" lon="4.60018">
        <ele>565.2</ele>
        <time>2020-10-24T07:58:52Z</time>
      </trkpt>
      <trkpt lat="46.07933" lon="4.60021">
        <ele>565</ele>
        <time>2020-10-24T07:58:53Z</time>
      </trkpt>
      <trkpt lat="46.07934" lon="4.60024">
        <ele>565.2</ele>
        <time>2020-10-24T07:58:54Z</time>
      </trkpt>
      <trkpt lat="46.07935" lon="4.60027">
        <ele>564.8</ele>
        <time>2020-10-24T07:58:55Z</time>
      </trkpt>
      <trkpt lat="46.07936" lon="4.6003">
        <ele>564.4</ele>
        <time>2020-10-24T07:58:56Z</time>
      </trkpt>
      <trkpt lat="46.07937" lon="4.60033">
        <ele>564.6</ele>
        <time>2020-10-24T07:58:57Z</time>
      </trkpt>
      <trkpt lat="46.07939" lon="4.60036">
        <ele>564.2</ele>
        <time>2020-10-24T07:58:58Z</time>
      </trkpt>
      <trkpt lat="46.0794" lon="4.60039">
        <ele>564</ele>
        <time>2020-10-24T07:58:59Z</time>
      </trkpt>
      <trkpt lat="46.07941" lon="4.60041">
        <ele>564</ele>
        <time>2020-10-24T07:59:00Z</time>
      </trkpt>
      <trkpt lat="46.07941" lon="4.60041">
        <ele>563.6</ele>
        <time>2020-10-24T07:59:01Z</time>
      </trkpt>
      <trkpt lat="46.07943" lon="4.60047">
        <ele>563.2</ele>
        <time>2020-10-24T07:59:02Z</time>
      </trkpt>
      <trkpt lat="46.07944" lon="4.60049">
        <ele>563.4</ele>
        <time>2020-10-24T07:59:03Z</time>
      </trkpt>
      <trkpt lat="46.07946" lon="4.60052">
        <ele>563</ele>
        <time>2020-10-24T07:59:04Z</time>
      </trkpt>
      <trkpt lat="46.07946" lon="4.60052">
        <ele>562.6</ele>
        <time>2020-10-24T07:59:05Z</time>
      </trkpt>
      <trkpt lat="46.07948" lon="4.60058">
        <ele>562.6</ele>
        <time>2020-10-24T07:59:06Z</time>
      </trkpt>
      <trkpt lat="46.07949" lon="4.6006">
        <ele>562.2</ele>
        <time>2020-10-24T07:59:07Z</time>
      </trkpt>
      <trkpt lat="46.0795" lon="4.60063">
        <ele>561.8</ele>
        <time>2020-10-24T07:59:08Z</time>
      </trkpt>
      <trkpt lat="46.0795" lon="4.60065">
        <ele>561.8</ele>
        <time>2020-10-24T07:59:09Z</time>
      </trkpt>
      <trkpt lat="46.07952" lon="4.60069">
        <ele>561.4</ele>
        <time>2020-10-24T07:59:10Z</time>
      </trkpt>
      <trkpt lat="46.07954" lon="4.60072">
        <ele>561</ele>
        <time>2020-10-24T07:59:11Z</time>
      </trkpt>
      <trkpt lat="46.07955" lon="4.60074">
        <ele>561</ele>
        <time>2020-10-24T07:59:12Z</time>
      </trkpt>
      <trkpt lat="46.07957" lon="4.60078">
        <ele>560.8</ele>
        <time>2020-10-24T07:59:13Z</time>
      </trkpt>
      <trkpt lat="46.07958" lon="4.60081">
        <ele>560.6</ele>
        <time>2020-10-24T07:59:14Z</time>
      </trkpt>
      <trkpt lat="46.07959" lon="4.60084">
        <ele>560.4</ele>
        <time>2020-10-24T07:59:15Z</time>
      </trkpt>
      <trkpt lat="46.0796" lon="4.60088">
        <ele>560.2</ele>
        <time>2020-10-24T07:59:16Z</time>
      </trkpt>
      <trkpt lat="46.07962" lon="4.60091">
        <ele>560</ele>
        <time>2020-10-24T07:59:17Z</time>
      </trkpt>
      <trkpt lat="46.07963" lon="4.60094">
        <ele>560</ele>
        <time>2020-10-24T07:59:18Z</time>
      </trkpt>
      <trkpt lat="46.07964" lon="4.60097">
        <ele>559.8</ele>
        <time>2020-10-24T07:59:19Z</time>
      </trkpt>
      <trkpt lat="46.07966" lon="4.601">
        <ele>559.4</ele>
        <time>2020-10-24T07:59:20Z</time>
      </trkpt>
      <trkpt lat="46.07967" lon="4.60103">
        <ele>559.6</ele>
        <time>2020-10-24T07:59:21Z</time>
      </trkpt>
      <trkpt lat="46.07968" lon="4.60106">
        <ele>559.6</ele>
        <time>2020-10-24T07:59:22Z</time>
      </trkpt>
      <trkpt lat="46.07969" lon="4.6011">
        <ele>559.2</ele>
        <time>2020-10-24T07:59:23Z</time>
      </trkpt>
      <trkpt lat="46.07971" lon="4.60113">
        <ele>559.4</ele>
        <time>2020-10-24T07:59:24Z</time>
      </trkpt>
      <trkpt lat="46.07971" lon="4.60113">
        <ele>559.2</ele>
        <time>2020-10-24T07:59:25Z</time>
      </trkpt>
      <trkpt lat="46.07974" lon="4.60119">
        <ele>559</ele>
        <time>2020-10-24T07:59:26Z</time>
      </trkpt>
      <trkpt lat="46.07975" lon="4.60122">
        <ele>559</ele>
        <time>2020-10-24T07:59:27Z</time>
      </trkpt>
      <trkpt lat="46.07976" lon="4.60125">
        <ele>558.6</ele>
        <time>2020-10-24T07:59:28Z</time>
      </trkpt>
      <trkpt lat="46.07977" lon="4.60128">
        <ele>558.4</ele>
        <time>2020-10-24T07:59:29Z</time>
      </trkpt>
      <trkpt lat="46.07978" lon="4.60131">
        <ele>558.4</ele>
        <time>2020-10-24T07:59:30Z</time>
      </trkpt>
      <trkpt lat="46.07979" lon="4.60134">
        <ele>558</ele>
        <time>2020-10-24T07:59:31Z</time>
      </trkpt>
      <trkpt lat="46.07981" lon="4.60137">
        <ele>558</ele>
        <time>2020-10-24T07:59:32Z</time>
      </trkpt>
      <trkpt lat="46.07982" lon="4.6014">
        <ele>558.2</ele>
        <time>2020-10-24T07:59:33Z</time>
      </trkpt>
      <trkpt lat="46.07982" lon="4.60142">
        <ele>557.8</ele>
        <time>2020-10-24T07:59:34Z</time>
      </trkpt>
      <trkpt lat="46.07983" lon="4.60145">
        <ele>557.2</ele>
        <time>2020-10-24T07:59:35Z</time>
      </trkpt>
      <trkpt lat="46.07983" lon="4.60148">
        <ele>557.2</ele>
        <time>2020-10-24T07:59:36Z</time>
      </trkpt>
      <trkpt lat="46.07984" lon="4.60151">
        <ele>556.8</ele>
        <time>2020-10-24T07:59:37Z</time>
      </trkpt>
      <trkpt lat="46.07985" lon="4.60155">
        <ele>556.4</ele>
        <time>2020-10-24T07:59:38Z</time>
      </trkpt>
      <trkpt lat="46.07986" lon="4.60159">
        <ele>556.2</ele>
        <time>2020-10-24T07:59:39Z</time>
      </trkpt>
      <trkpt lat="46.07986" lon="4.60159">
        <ele>555.6</ele>
        <time>2020-10-24T07:59:40Z</time>
      </trkpt>
      <trkpt lat="46.07988" lon="4.60167">
        <ele>555.4</ele>
        <time>2020-10-24T07:59:41Z</time>
      </trkpt>
      <trkpt lat="46.07989" lon="4.6017">
        <ele>555.2</ele>
        <time>2020-10-24T07:59:42Z</time>
      </trkpt>
      <trkpt lat="46.0799" lon="4.60174">
        <ele>554.6</ele>
        <time>2020-10-24T07:59:43Z</time>
      </trkpt>
      <trkpt lat="46.07991" lon="4.60177">
        <ele>554.4</ele>
        <time>2020-10-24T07:59:44Z</time>
      </trkpt>
      <trkpt lat="46.07992" lon="4.6018">
        <ele>554</ele>
        <time>2020-10-24T07:59:45Z</time>
      </trkpt>
      <trkpt lat="46.07993" lon="4.60184">
        <ele>553.6</ele>
        <time>2020-10-24T07:59:46Z</time>
      </trkpt>
      <trkpt lat="46.07994" lon="4.60187">
        <ele>553.6</ele>
        <time>2020-10-24T07:59:47Z</time>
      </trkpt>
      <trkpt lat="46.07995" lon="4.60191">
        <ele>553.2</ele>
        <time>2020-10-24T07:59:48Z</time>
      </trkpt>
      <trkpt lat="46.07995" lon="4.60194">
        <ele>552.8</ele>
        <time>2020-10-24T07:59:49Z</time>
      </trkpt>
      <trkpt lat="46.07996" lon="4.60198">
        <ele>553</ele>
        <time>2020-10-24T07:59:50Z</time>
      </trkpt>
      <trkpt lat="46.07996" lon="4.60201">
        <ele>552.6</ele>
        <time>2020-10-24T07:59:51Z</time>
      </trkpt>
      <trkpt lat="46.07997" lon="4.60205">
        <ele>552.4</ele>
        <time>2020-10-24T07:59:52Z</time>
      </trkpt>
      <trkpt lat="46.07997" lon="4.60207">
        <ele>552.4</ele>
        <time>2020-10-24T07:59:53Z</time>
      </trkpt>
      <trkpt lat="46.07997" lon="4.60207">
        <ele>552</ele>
        <time>2020-10-24T07:59:54Z</time>
      </trkpt>
      <trkpt lat="46.07999" lon="4.60212">
        <ele>551.6</ele>
        <time>2020-10-24T07:59:55Z</time>
      </trkpt>
      <trkpt lat="46.08" lon="4.60215">
        <ele>551.8</ele>
        <time>2020-10-24T07:59:56Z</time>
      </trkpt>
      <trkpt lat="46.08" lon="4.60215">
        <ele>551.6</ele>
        <time>2020-10-24T07:59:57Z</time>
      </trkpt>
      <trkpt lat="46.08001" lon="4.60222">
        <ele>551.4</ele>
        <time>2020-10-24T07:59:58Z</time>
      </trkpt>
      <trkpt lat="46.08002" lon="4.60224">
        <ele>551.4</ele>
        <time>2020-10-24T07:59:59Z</time>
      </trkpt>
      <trkpt lat="46.08003" lon="4.6023">
        <ele>550.8</ele>
        <time>2020-10-24T08:00:01Z</time>
      </trkpt>
      <trkpt lat="46.08004" lon="4.60232">
        <ele>550.8</ele>
        <time>2020-10-24T08:00:02Z</time>
      </trkpt>
      <trkpt lat="46.08004" lon="4.60236">
        <ele>550.6</ele>
        <time>2020-10-24T08:00:03Z</time>
      </trkpt>
      <trkpt lat="46.08004" lon="4.6024">
        <ele>550.2</ele>
        <time>2020-10-24T08:00:04Z</time>
      </trkpt>
      <trkpt lat="46.08004" lon="4.60244">
        <ele>550.4</ele>
        <time>2020-10-24T08:00:05Z</time>
      </trkpt>
      <trkpt lat="46.08004" lon="4.60247">
        <ele>550.2</ele>
        <time>2020-10-24T08:00:06Z</time>
      </trkpt>
      <trkpt lat="46.08004" lon="4.60251">
        <ele>550</ele>
        <time>2020-10-24T08:00:07Z</time>
      </trkpt>
      <trkpt lat="46.08003" lon="4.60254">
        <ele>550</ele>
        <time>2020-10-24T08:00:08Z</time>
      </trkpt>
      <trkpt lat="46.08002" lon="4.60257">
        <ele>550.2</ele>
        <time>2020-10-24T08:00:09Z</time>
      </trkpt>
      <trkpt lat="46.08002" lon="4.60261">
        <ele>549.8</ele>
        <time>2020-10-24T08:00:10Z</time>
      </trkpt>
      <trkpt lat="46.08001" lon="4.60264">
        <ele>549.4</ele>
        <time>2020-10-24T08:00:11Z</time>
      </trkpt>
      <trkpt lat="46.08001" lon="4.60264">
        <ele>549.4</ele>
        <time>2020-10-24T08:00:12Z</time>
      </trkpt>
      <trkpt lat="46.07999" lon="4.60271">
        <ele>549</ele>
        <time>2020-10-24T08:00:13Z</time>
      </trkpt>
      <trkpt lat="46.07999" lon="4.60275">
        <ele>548.6</ele>
        <time>2020-10-24T08:00:14Z</time>
      </trkpt>
      <trkpt lat="46.07998" lon="4.60278">
        <ele>548.4</ele>
        <time>2020-10-24T08:00:15Z</time>
      </trkpt>
      <trkpt lat="46.07998" lon="4.60281">
        <ele>548.2</ele>
        <time>2020-10-24T08:00:16Z</time>
      </trkpt>
      <trkpt lat="46.07997" lon="4.60284">
        <ele>547.8</ele>
        <time>2020-10-24T08:00:17Z</time>
      </trkpt>
      <trkpt lat="46.07996" lon="4.60287">
        <ele>548</ele>
        <time>2020-10-24T08:00:18Z</time>
      </trkpt>
      <trkpt lat="46.07995" lon="4.6029">
        <ele>547.8</ele>
        <time>2020-10-24T08:00:19Z</time>
      </trkpt>
      <trkpt lat="46.07994" lon="4.60293">
        <ele>547.4</ele>
        <time>2020-10-24T08:00:20Z</time>
      </trkpt>
      <trkpt lat="46.07993" lon="4.60296">
        <ele>547.6</ele>
        <time>2020-10-24T08:00:21Z</time>
      </trkpt>
      <trkpt lat="46.07992" lon="4.603">
        <ele>547.2</ele>
        <time>2020-10-24T08:00:22Z</time>
      </trkpt>
      <trkpt lat="46.07992" lon="4.60303">
        <ele>547</ele>
        <time>2020-10-24T08:00:23Z</time>
      </trkpt>
      <trkpt lat="46.07991" lon="4.60306">
        <ele>546.8</ele>
        <time>2020-10-24T08:00:24Z</time>
      </trkpt>
      <trkpt lat="46.0799" lon="4.60309">
        <ele>546.6</ele>
        <time>2020-10-24T08:00:25Z</time>
      </trkpt>
      <trkpt lat="46.07988" lon="4.60312">
        <ele>546.4</ele>
        <time>2020-10-24T08:00:26Z</time>
      </trkpt>
      <trkpt lat="46.07986" lon="4.60314">
        <ele>546.4</ele>
        <time>2020-10-24T08:00:27Z</time>
      </trkpt>
      <trkpt lat="46.07985" lon="4.60317">
        <ele>546.4</ele>
        <time>2020-10-24T08:00:28Z</time>
      </trkpt>
      <trkpt lat="46.07983" lon="4.60319">
        <ele>545.8</ele>
        <time>2020-10-24T08:00:29Z</time>
      </trkpt>
      <trkpt lat="46.07981" lon="4.60322">
        <ele>546</ele>
        <time>2020-10-24T08:00:30Z</time>
      </trkpt>
      <trkpt lat="46.07979" lon="4.60324">
        <ele>545.4</ele>
        <time>2020-10-24T08:00:31Z</time>
      </trkpt>
      <trkpt lat="46.07976" lon="4.60327">
        <ele>545.4</ele>
        <time>2020-10-24T08:00:32Z</time>
      </trkpt>
      <trkpt lat="46.07975" lon="4.60329">
        <ele>545.2</ele>
        <time>2020-10-24T08:00:33Z</time>
      </trkpt>
      <trkpt lat="46.07973" lon="4.60331">
        <ele>544.8</ele>
        <time>2020-10-24T08:00:34Z</time>
      </trkpt>
      <trkpt lat="46.07971" lon="4.60334">
        <ele>544.6</ele>
        <time>2020-10-24T08:00:35Z</time>
      </trkpt>
      <trkpt lat="46.07969" lon="4.60337">
        <ele>544.4</ele>
        <time>2020-10-24T08:00:36Z</time>
      </trkpt>
      <trkpt lat="46.07968" lon="4.6034">
        <ele>544</ele>
        <time>2020-10-24T08:00:37Z</time>
      </trkpt>
      <trkpt lat="46.07966" lon="4.60343">
        <ele>543.6</ele>
        <time>2020-10-24T08:00:38Z</time>
      </trkpt>
      <trkpt lat="46.07964" lon="4.60346">
        <ele>543.8</ele>
        <time>2020-10-24T08:00:39Z</time>
      </trkpt>
      <trkpt lat="46.07962" lon="4.60349">
        <ele>543.6</ele>
        <time>2020-10-24T08:00:40Z</time>
      </trkpt>
      <trkpt lat="46.0796" lon="4.60353">
        <ele>543.2</ele>
        <time>2020-10-24T08:00:41Z</time>
      </trkpt>
      <trkpt lat="46.07959" lon="4.60356">
        <ele>543.2</ele>
        <time>2020-10-24T08:00:42Z</time>
      </trkpt>
      <trkpt lat="46.07957" lon="4.60359">
        <ele>543</ele>
        <time>2020-10-24T08:00:43Z</time>
      </trkpt>
      <trkpt lat="46.07955" lon="4.60363">
        <ele>542.4</ele>
        <time>2020-10-24T08:00:44Z</time>
      </trkpt>
      <trkpt lat="46.07955" lon="4.60363">
        <ele>542.6</ele>
        <time>2020-10-24T08:00:45Z</time>
      </trkpt>
      <trkpt lat="46.07952" lon="4.60369">
        <ele>542.4</ele>
        <time>2020-10-24T08:00:46Z</time>
      </trkpt>
      <trkpt lat="46.07951" lon="4.60371">
        <ele>542</ele>
        <time>2020-10-24T08:00:47Z</time>
      </trkpt>
      <trkpt lat="46.07951" lon="4.60371">
        <ele>542.2</ele>
        <time>2020-10-24T08:00:48Z</time>
      </trkpt>
      <trkpt lat="46.07949" lon="4.60376">
        <ele>542</ele>
        <time>2020-10-24T08:00:49Z</time>
      </trkpt>
      <trkpt lat="46.07947" lon="4.60379">
        <ele>542</ele>
        <time>2020-10-24T08:00:50Z</time>
      </trkpt>
      <trkpt lat="46.07946" lon="4.60381">
        <ele>542.2</ele>
        <time>2020-10-24T08:00:51Z</time>
      </trkpt>
      <trkpt lat="46.07945" lon="4.60384">
        <ele>542.2</ele>
        <time>2020-10-24T08:00:52Z</time>
      </trkpt>
      <trkpt lat="46.07943" lon="4.60387">
        <ele>541.8</ele>
        <time>2020-10-24T08:00:53Z</time>
      </trkpt>
      <trkpt lat="46.07942" lon="4.6039">
        <ele>542</ele>
        <time>2020-10-24T08:00:54Z</time>
      </trkpt>
      <trkpt lat="46.07941" lon="4.60393">
        <ele>541.8</ele>
        <time>2020-10-24T08:00:55Z</time>
      </trkpt>
      <trkpt lat="46.0794" lon="4.60396">
        <ele>541.8</ele>
        <time>2020-10-24T08:00:56Z</time>
      </trkpt>
      <trkpt lat="46.07939" lon="4.60398">
        <ele>542</ele>
        <time>2020-10-24T08:00:57Z</time>
      </trkpt>
      <trkpt lat="46.07938" lon="4.60401">
        <ele>541.8</ele>
        <time>2020-10-24T08:00:58Z</time>
      </trkpt>
      <trkpt lat="46.07937" lon="4.60403">
        <ele>541.8</ele>
        <time>2020-10-24T08:00:59Z</time>
      </trkpt>
      <trkpt lat="46.07936" lon="4.60406">
        <ele>541.8</ele>
        <time>2020-10-24T08:01:00Z</time>
      </trkpt>
      <trkpt lat="46.07935" lon="4.60409">
        <ele>541.6</ele>
        <time>2020-10-24T08:01:01Z</time>
      </trkpt>
      <trkpt lat="46.07934" lon="4.60412">
        <ele>542</ele>
        <time>2020-10-24T08:01:02Z</time>
      </trkpt>
      <trkpt lat="46.07933" lon="4.60415">
        <ele>541.8</ele>
        <time>2020-10-24T08:01:03Z</time>
      </trkpt>
      <trkpt lat="46.07932" lon="4.60418">
        <ele>541.6</ele>
        <time>2020-10-24T08:01:04Z</time>
      </trkpt>
      <trkpt lat="46.07932" lon="4.60421">
        <ele>542</ele>
        <time>2020-10-24T08:01:05Z</time>
      </trkpt>
      <trkpt lat="46.07931" lon="4.60425">
        <ele>541.8</ele>
        <time>2020-10-24T08:01:06Z</time>
      </trkpt>
      <trkpt lat="46.0793" lon="4.60428">
        <ele>541.8</ele>
        <time>2020-10-24T08:01:07Z</time>
      </trkpt>
      <trkpt lat="46.07929" lon="4.60432">
        <ele>542</ele>
        <time>2020-10-24T08:01:08Z</time>
      </trkpt>
      <trkpt lat="46.07928" lon="4.60435">
        <ele>542.2</ele>
        <time>2020-10-24T08:01:09Z</time>
      </trkpt>
      <trkpt lat="46.07928" lon="4.60438">
        <ele>542.4</ele>
        <time>2020-10-24T08:01:10Z</time>
      </trkpt>
      <trkpt lat="46.07928" lon="4.60441">
        <ele>542.8</ele>
        <time>2020-10-24T08:01:11Z</time>
      </trkpt>
      <trkpt lat="46.07927" lon="4.60445">
        <ele>543</ele>
        <time>2020-10-24T08:01:12Z</time>
      </trkpt>
      <trkpt lat="46.07927" lon="4.60448">
        <ele>543.2</ele>
        <time>2020-10-24T08:01:13Z</time>
      </trkpt>
      <trkpt lat="46.07927" lon="4.60448">
        <ele>542.8</ele>
        <time>2020-10-24T08:01:14Z</time>
      </trkpt>
      <trkpt lat="46.07928" lon="4.60455">
        <ele>542.6</ele>
        <time>2020-10-24T08:01:15Z</time>
      </trkpt>
      <trkpt lat="46.07928" lon="4.60459">
        <ele>542.8</ele>
        <time>2020-10-24T08:01:16Z</time>
      </trkpt>
      <trkpt lat="46.07929" lon="4.60462">
        <ele>542.6</ele>
        <time>2020-10-24T08:01:17Z</time>
      </trkpt>
      <trkpt lat="46.07929" lon="4.60465">
        <ele>542.6</ele>
        <time>2020-10-24T08:01:18Z</time>
      </trkpt>
      <trkpt lat="46.0793" lon="4.60468">
        <ele>542.8</ele>
        <time>2020-10-24T08:01:19Z</time>
      </trkpt>
      <trkpt lat="46.0793" lon="4.60472">
        <ele>542.8</ele>
        <time>2020-10-24T08:01:20Z</time>
      </trkpt>
      <trkpt lat="46.07931" lon="4.60475">
        <ele>543.2</ele>
        <time>2020-10-24T08:01:21Z</time>
      </trkpt>
      <trkpt lat="46.07931" lon="4.60478">
        <ele>542.8</ele>
        <time>2020-10-24T08:01:22Z</time>
      </trkpt>
      <trkpt lat="46.07932" lon="4.60481">
        <ele>543</ele>
        <time>2020-10-24T08:01:23Z</time>
      </trkpt>
      <trkpt lat="46.07933" lon="4.60484">
        <ele>543.4</ele>
        <time>2020-10-24T08:01:24Z</time>
      </trkpt>
      <trkpt lat="46.07933" lon="4.60487">
        <ele>543.4</ele>
        <time>2020-10-24T08:01:25Z</time>
      </trkpt>
      <trkpt lat="46.07934" lon="4.60489">
        <ele>543</ele>
        <time>2020-10-24T08:01:26Z</time>
      </trkpt>
      <trkpt lat="46.07934" lon="4.60492">
        <ele>543.6</ele>
        <time>2020-10-24T08:01:27Z</time>
      </trkpt>
      <trkpt lat="46.07935" lon="4.60495">
        <ele>543.8</ele>
        <time>2020-10-24T08:01:28Z</time>
      </trkpt>
      <trkpt lat="46.07935" lon="4.60498">
        <ele>543.4</ele>
        <time>2020-10-24T08:01:29Z</time>
      </trkpt>
      <trkpt lat="46.07936" lon="4.60501">
        <ele>543.8</ele>
        <time>2020-10-24T08:01:30Z</time>
      </trkpt>
      <trkpt lat="46.07936" lon="4.60501">
        <ele>544</ele>
        <time>2020-10-24T08:01:31Z</time>
      </trkpt>
      <trkpt lat="46.07938" lon="4.60504">
        <ele>544.2</ele>
        <time>2020-10-24T08:01:32Z</time>
      </trkpt>
      <trkpt lat="46.07938" lon="4.60504">
        <ele>544.2</ele>
        <time>2020-10-24T08:01:33Z</time>
      </trkpt>
      <trkpt lat="46.0794" lon="4.60508">
        <ele>544.4</ele>
        <time>2020-10-24T08:01:34Z</time>
      </trkpt>
      <trkpt lat="46.0794" lon="4.60508">
        <ele>544.6</ele>
        <time>2020-10-24T08:01:35Z</time>
      </trkpt>
      <trkpt lat="46.07941" lon="4.60512">
        <ele>544.8</ele>
        <time>2020-10-24T08:01:36Z</time>
      </trkpt>
      <trkpt lat="46.07941" lon="4.60512">
        <ele>544.8</ele>
        <time>2020-10-24T08:01:37Z</time>
      </trkpt>
      <trkpt lat="46.07942" lon="4.60516">
        <ele>545</ele>
        <time>2020-10-24T08:01:38Z</time>
      </trkpt>
      <trkpt lat="46.07942" lon="4.60516">
        <ele>545.2</ele>
        <time>2020-10-24T08:01:39Z</time>
      </trkpt>
      <trkpt lat="46.07943" lon="4.60521">
        <ele>545.4</ele>
        <time>2020-10-24T08:01:40Z</time>
      </trkpt>
      <trkpt lat="46.07943" lon="4.60521">
        <ele>545.8</ele>
        <time>2020-10-24T08:01:41Z</time>
      </trkpt>
      <trkpt lat="46.07944" lon="4.60525">
        <ele>546.2</ele>
        <time>2020-10-24T08:01:42Z</time>
      </trkpt>
      <trkpt lat="46.07944" lon="4.60525">
        <ele>546.4</ele>
        <time>2020-10-24T08:01:43Z</time>
      </trkpt>
      <trkpt lat="46.07945" lon="4.60528">
        <ele>546.4</ele>
        <time>2020-10-24T08:01:44Z</time>
      </trkpt>
      <trkpt lat="46.07945" lon="4.60528">
        <ele>546.4</ele>
        <time>2020-10-24T08:01:45Z</time>
      </trkpt>
      <trkpt lat="46.07946" lon="4.60533">
        <ele>546.8</ele>
        <time>2020-10-24T08:01:46Z</time>
      </trkpt>
      <trkpt lat="46.07946" lon="4.60533">
        <ele>547</ele>
        <time>2020-10-24T08:01:47Z</time>
      </trkpt>
      <trkpt lat="46.07947" lon="4.60536">
        <ele>546.8</ele>
        <time>2020-10-24T08:01:48Z</time>
      </trkpt>
      <trkpt lat="46.07947" lon="4.60536">
        <ele>547</ele>
        <time>2020-10-24T08:01:49Z</time>
      </trkpt>
      <trkpt lat="46.07948" lon="4.6054">
        <ele>547</ele>
        <time>2020-10-24T08:01:50Z</time>
      </trkpt>
      <trkpt lat="46.07948" lon="4.6054">
        <ele>547</ele>
        <time>2020-10-24T08:01:51Z</time>
      </trkpt>
      <trkpt lat="46.07949" lon="4.60544">
        <ele>546.8</ele>
        <time>2020-10-24T08:01:52Z</time>
      </trkpt>
      <trkpt lat="46.07949" lon="4.60544">
        <ele>547.6</ele>
        <time>2020-10-24T08:01:53Z</time>
      </trkpt>
      <trkpt lat="46.0795" lon="4.60548">
        <ele>547.8</ele>
        <time>2020-10-24T08:01:54Z</time>
      </trkpt>
      <trkpt lat="46.0795" lon="4.60548">
        <ele>548</ele>
        <time>2020-10-24T08:01:55Z</time>
      </trkpt>
      <trkpt lat="46.07952" lon="4.60553">
        <ele>548.4</ele>
        <time>2020-10-24T08:01:56Z</time>
      </trkpt>
      <trkpt lat="46.07952" lon="4.60553">
        <ele>548.2</ele>
        <time>2020-10-24T08:01:57Z</time>
      </trkpt>
      <trkpt lat="46.07953" lon="4.60557">
        <ele>548</ele>
        <time>2020-10-24T08:01:58Z</time>
      </trkpt>
      <trkpt lat="46.07953" lon="4.60557">
        <ele>547.8</ele>
        <time>2020-10-24T08:01:59Z</time>
      </trkpt>
      <trkpt lat="46.07954" lon="4.60561">
        <ele>547.6</ele>
        <time>2020-10-24T08:02:00Z</time>
      </trkpt>
      <trkpt lat="46.07954" lon="4.60561">
        <ele>547.6</ele>
        <time>2020-10-24T08:02:01Z</time>
      </trkpt>
      <trkpt lat="46.07955" lon="4.60565">
        <ele>547.6</ele>
        <time>2020-10-24T08:02:02Z</time>
      </trkpt>
      <trkpt lat="46.07955" lon="4.60565">
        <ele>547.6</ele>
        <time>2020-10-24T08:02:03Z</time>
      </trkpt>
      <trkpt lat="46.07956" lon="4.60568">
        <ele>547.6</ele>
        <time>2020-10-24T08:02:04Z</time>
      </trkpt>
      <trkpt lat="46.07956" lon="4.60568">
        <ele>547.6</ele>
        <time>2020-10-24T08:02:05Z</time>
      </trkpt>
      <trkpt lat="46.07958" lon="4.60571">
        <ele>547.8</ele>
        <time>2020-10-24T08:02:06Z</time>
      </trkpt>
      <trkpt lat="46.07958" lon="4.60571">
        <ele>547.8</ele>
        <time>2020-10-24T08:02:07Z</time>
      </trkpt>
      <trkpt lat="46.07959" lon="4.60574">
        <ele>548</ele>
        <time>2020-10-24T08:02:08Z</time>
      </trkpt>
      <trkpt lat="46.07959" lon="4.60574">
        <ele>548</ele>
        <time>2020-10-24T08:02:09Z</time>
      </trkpt>
      <trkpt lat="46.0796" lon="4.60578">
        <ele>548</ele>
        <time>2020-10-24T08:02:10Z</time>
      </trkpt>
      <trkpt lat="46.0796" lon="4.60578">
        <ele>547.8</ele>
        <time>2020-10-24T08:02:11Z</time>
      </trkpt>
      <trkpt lat="46.07961" lon="4.60582">
        <ele>548</ele>
        <time>2020-10-24T08:02:12Z</time>
      </trkpt>
      <trkpt lat="46.07961" lon="4.60582">
        <ele>548.2</ele>
        <time>2020-10-24T08:02:13Z</time>
      </trkpt>
      <trkpt lat="46.07962" lon="4.60585">
        <ele>548.4</ele>
        <time>2020-10-24T08:02:14Z</time>
      </trkpt>
      <trkpt lat="46.07962" lon="4.60585">
        <ele>548.4</ele>
        <time>2020-10-24T08:02:15Z</time>
      </trkpt>
      <trkpt lat="46.07962" lon="4.60589">
        <ele>548.8</ele>
        <time>2020-10-24T08:02:16Z</time>
      </trkpt>
      <trkpt lat="46.07962" lon="4.60589">
        <ele>549.2</ele>
        <time>2020-10-24T08:02:17Z</time>
      </trkpt>
      <trkpt lat="46.07964" lon="4.60593">
        <ele>549.2</ele>
        <time>2020-10-24T08:02:18Z</time>
      </trkpt>
      <trkpt lat="46.07964" lon="4.60593">
        <ele>549.2</ele>
        <time>2020-10-24T08:02:19Z</time>
      </trkpt>
      <trkpt lat="46.07964" lon="4.60596">
        <ele>549.2</ele>
        <time>2020-10-24T08:02:20Z</time>
      </trkpt>
      <trkpt lat="46.07964" lon="4.60596">
        <ele>549.2</ele>
        <time>2020-10-24T08:02:21Z</time>
      </trkpt>
      <trkpt lat="46.07965" lon="4.606">
        <ele>549.4</ele>
        <time>2020-10-24T08:02:22Z</time>
      </trkpt>
      <trkpt lat="46.07965" lon="4.606">
        <ele>549.6</ele>
        <time>2020-10-24T08:02:23Z</time>
      </trkpt>
      <trkpt lat="46.07966" lon="4.60604">
        <ele>549.8</ele>
        <time>2020-10-24T08:02:24Z</time>
      </trkpt>
      <trkpt lat="46.07966" lon="4.60604">
        <ele>550</ele>
        <time>2020-10-24T08:02:25Z</time>
      </trkpt>
      <trkpt lat="46.07968" lon="4.60607">
        <ele>549.8</ele>
        <time>2020-10-24T08:02:26Z</time>
      </trkpt>
      <trkpt lat="46.07968" lon="4.60607">
        <ele>549.8</ele>
        <time>2020-10-24T08:02:27Z</time>
      </trkpt>
      <trkpt lat="46.0797" lon="4.6061">
        <ele>549.8</ele>
        <time>2020-10-24T08:02:28Z</time>
      </trkpt>
      <trkpt lat="46.0797" lon="4.6061">
        <ele>549.8</ele>
        <time>2020-10-24T08:02:29Z</time>
      </trkpt>
      <trkpt lat="46.07971" lon="4.60614">
        <ele>549.8</ele>
        <time>2020-10-24T08:02:30Z</time>
      </trkpt>
      <trkpt lat="46.07971" lon="4.60614">
        <ele>550</ele>
        <time>2020-10-24T08:02:31Z</time>
      </trkpt>
      <trkpt lat="46.07973" lon="4.60617">
        <ele>550.2</ele>
        <time>2020-10-24T08:02:32Z</time>
      </trkpt>
      <trkpt lat="46.07973" lon="4.60617">
        <ele>550.4</ele>
        <time>2020-10-24T08:02:33Z</time>
      </trkpt>
      <trkpt lat="46.07974" lon="4.60621">
        <ele>550.4</ele>
        <time>2020-10-24T08:02:34Z</time>
      </trkpt>
      <trkpt lat="46.07974" lon="4.60621">
        <ele>550.6</ele>
        <time>2020-10-24T08:02:35Z</time>
      </trkpt>
      <trkpt lat="46.07976" lon="4.60625">
        <ele>550.6</ele>
        <time>2020-10-24T08:02:36Z</time>
      </trkpt>
      <trkpt lat="46.07976" lon="4.60625">
        <ele>550.8</ele>
        <time>2020-10-24T08:02:37Z</time>
      </trkpt>
      <trkpt lat="46.07977" lon="4.60628">
        <ele>550.8</ele>
        <time>2020-10-24T08:02:38Z</time>
      </trkpt>
      <trkpt lat="46.07977" lon="4.60628">
        <ele>550.8</ele>
        <time>2020-10-24T08:02:39Z</time>
      </trkpt>
      <trkpt lat="46.07979" lon="4.60631">
        <ele>550.8</ele>
        <time>2020-10-24T08:02:40Z</time>
      </trkpt>
      <trkpt lat="46.07979" lon="4.60631">
        <ele>550.8</ele>
        <time>2020-10-24T08:02:41Z</time>
      </trkpt>
      <trkpt lat="46.07981" lon="4.60635">
        <ele>551</ele>
        <time>2020-10-24T08:02:42Z</time>
      </trkpt>
      <trkpt lat="46.07981" lon="4.60635">
        <ele>551</ele>
        <time>2020-10-24T08:02:43Z</time>
      </trkpt>
      <trkpt lat="46.07982" lon="4.60638">
        <ele>551.2</ele>
        <time>2020-10-24T08:02:44Z</time>
      </trkpt>
      <trkpt lat="46.07982" lon="4.60638">
        <ele>551.2</ele>
        <time>2020-10-24T08:02:45Z</time>
      </trkpt>
      <trkpt lat="46.07984" lon="4.60641">
        <ele>551.4</ele>
        <time>2020-10-24T08:02:46Z</time>
      </trkpt>
      <trkpt lat="46.07984" lon="4.60641">
        <ele>551.4</ele>
        <time>2020-10-24T08:02:47Z</time>
      </trkpt>
      <trkpt lat="46.07986" lon="4.60643">
        <ele>551.6</ele>
        <time>2020-10-24T08:02:48Z</time>
      </trkpt>
      <trkpt lat="46.07986" lon="4.60643">
        <ele>551.8</ele>
        <time>2020-10-24T08:02:49Z</time>
      </trkpt>
      <trkpt lat="46.07988" lon="4.60646">
        <ele>552</ele>
        <time>2020-10-24T08:02:50Z</time>
      </trkpt>
      <trkpt lat="46.07989" lon="4.60648">
        <ele>552.2</ele>
        <time>2020-10-24T08:02:51Z</time>
      </trkpt>
      <trkpt lat="46.07989" lon="4.60648">
        <ele>552.2</ele>
        <time>2020-10-24T08:02:52Z</time>
      </trkpt>
      <trkpt lat="46.07992" lon="4.60651">
        <ele>552.4</ele>
        <time>2020-10-24T08:02:53Z</time>
      </trkpt>
      <trkpt lat="46.07992" lon="4.60651">
        <ele>552.6</ele>
        <time>2020-10-24T08:02:54Z</time>
      </trkpt>
      <trkpt lat="46.07994" lon="4.60653">
        <ele>552.6</ele>
        <time>2020-10-24T08:02:55Z</time>
      </trkpt>
      <trkpt lat="46.07994" lon="4.60653">
        <ele>552.8</ele>
        <time>2020-10-24T08:02:56Z</time>
      </trkpt>
      <trkpt lat="46.07996" lon="4.60654">
        <ele>552.8</ele>
        <time>2020-10-24T08:02:57Z</time>
      </trkpt>
      <trkpt lat="46.07996" lon="4.60654">
        <ele>552.8</ele>
        <time>2020-10-24T08:02:58Z</time>
      </trkpt>
      <trkpt lat="46.07998" lon="4.60657">
        <ele>552.8</ele>
        <time>2020-10-24T08:02:59Z</time>
      </trkpt>
      <trkpt lat="46.07998" lon="4.60657">
        <ele>552.8</ele>
        <time>2020-10-24T08:03:00Z</time>
      </trkpt>
      <trkpt lat="46.08" lon="4.6066">
        <ele>552.8</ele>
        <time>2020-10-24T08:03:01Z</time>
      </trkpt>
      <trkpt lat="46.08" lon="4.6066">
        <ele>553</ele>
        <time>2020-10-24T08:03:02Z</time>
      </trkpt>
      <trkpt lat="46.08003" lon="4.60662">
        <ele>553.4</ele>
        <time>2020-10-24T08:03:03Z</time>
      </trkpt>
      <trkpt lat="46.08003" lon="4.60662">
        <ele>553.6</ele>
        <time>2020-10-24T08:03:04Z</time>
      </trkpt>
      <trkpt lat="46.08006" lon="4.60665">
        <ele>553.8</ele>
        <time>2020-10-24T08:03:05Z</time>
      </trkpt>
      <trkpt lat="46.08006" lon="4.60665">
        <ele>554.2</ele>
        <time>2020-10-24T08:03:06Z</time>
      </trkpt>
      <trkpt lat="46.08008" lon="4.60667">
        <ele>554.4</ele>
        <time>2020-10-24T08:03:07Z</time>
      </trkpt>
      <trkpt lat="46.08008" lon="4.60667">
        <ele>554.4</ele>
        <time>2020-10-24T08:03:08Z</time>
      </trkpt>
      <trkpt lat="46.08011" lon="4.60669">
        <ele>554.6</ele>
        <time>2020-10-24T08:03:09Z</time>
      </trkpt>
      <trkpt lat="46.08011" lon="4.60669">
        <ele>554.8</ele>
        <time>2020-10-24T08:03:10Z</time>
      </trkpt>
      <trkpt lat="46.08014" lon="4.6067">
        <ele>554.8</ele>
        <time>2020-10-24T08:03:11Z</time>
      </trkpt>
      <trkpt lat="46.08014" lon="4.6067">
        <ele>554.8</ele>
        <time>2020-10-24T08:03:12Z</time>
      </trkpt>
      <trkpt lat="46.08017" lon="4.60672">
        <ele>555</ele>
        <time>2020-10-24T08:03:13Z</time>
      </trkpt>
      <trkpt lat="46.08017" lon="4.60672">
        <ele>555</ele>
        <time>2020-10-24T08:03:14Z</time>
      </trkpt>
      <trkpt lat="46.0802" lon="4.60673">
        <ele>555.2</ele>
        <time>2020-10-24T08:03:15Z</time>
      </trkpt>
      <trkpt lat="46.0802" lon="4.60673">
        <ele>555.4</ele>
        <time>2020-10-24T08:03:16Z</time>
      </trkpt>
      <trkpt lat="46.08023" lon="4.60673">
        <ele>555.8</ele>
        <time>2020-10-24T08:03:17Z</time>
      </trkpt>
      <trkpt lat="46.08023" lon="4.60673">
        <ele>556</ele>
        <time>2020-10-24T08:03:18Z</time>
      </trkpt>
      <trkpt lat="46.08026" lon="4.60674">
        <ele>556.2</ele>
        <time>2020-10-24T08:03:19Z</time>
      </trkpt>
      <trkpt lat="46.08026" lon="4.60674">
        <ele>556.6</ele>
        <time>2020-10-24T08:03:20Z</time>
      </trkpt>
      <trkpt lat="46.08028" lon="4.60673">
        <ele>556.8</ele>
        <time>2020-10-24T08:03:21Z</time>
      </trkpt>
      <trkpt lat="46.08028" lon="4.60673">
        <ele>557</ele>
        <time>2020-10-24T08:03:22Z</time>
      </trkpt>
      <trkpt lat="46.08031" lon="4.60673">
        <ele>557.2</ele>
        <time>2020-10-24T08:03:23Z</time>
      </trkpt>
      <trkpt lat="46.08031" lon="4.60673">
        <ele>557.4</ele>
        <time>2020-10-24T08:03:24Z</time>
      </trkpt>
      <trkpt lat="46.08034" lon="4.60673">
        <ele>557.6</ele>
        <time>2020-10-24T08:03:25Z</time>
      </trkpt>
      <trkpt lat="46.08034" lon="4.60673">
        <ele>557.6</ele>
        <time>2020-10-24T08:03:26Z</time>
      </trkpt>
      <trkpt lat="46.08037" lon="4.60673">
        <ele>557.8</ele>
        <time>2020-10-24T08:03:27Z</time>
      </trkpt>
      <trkpt lat="46.08037" lon="4.60673">
        <ele>558</ele>
        <time>2020-10-24T08:03:28Z</time>
      </trkpt>
      <trkpt lat="46.0804" lon="4.60673">
        <ele>558.2</ele>
        <time>2020-10-24T08:03:29Z</time>
      </trkpt>
      <trkpt lat="46.0804" lon="4.60673">
        <ele>558.4</ele>
        <time>2020-10-24T08:03:30Z</time>
      </trkpt>
      <trkpt lat="46.08042" lon="4.60673">
        <ele>558.6</ele>
        <time>2020-10-24T08:03:31Z</time>
      </trkpt>
      <trkpt lat="46.08042" lon="4.60673">
        <ele>559</ele>
        <time>2020-10-24T08:03:32Z</time>
      </trkpt>
      <trkpt lat="46.08045" lon="4.60673">
        <ele>559.2</ele>
        <time>2020-10-24T08:03:33Z</time>
      </trkpt>
      <trkpt lat="46.08045" lon="4.60673">
        <ele>559.4</ele>
        <time>2020-10-24T08:03:34Z</time>
      </trkpt>
      <trkpt lat="46.08049" lon="4.60672">
        <ele>559.6</ele>
        <time>2020-10-24T08:03:35Z</time>
      </trkpt>
      <trkpt lat="46.08049" lon="4.60672">
        <ele>560</ele>
        <time>2020-10-24T08:03:36Z</time>
      </trkpt>
      <trkpt lat="46.08051" lon="4.60672">
        <ele>560</ele>
        <time>2020-10-24T08:03:37Z</time>
      </trkpt>
      <trkpt lat="46.08051" lon="4.60672">
        <ele>560.4</ele>
        <time>2020-10-24T08:03:38Z</time>
      </trkpt>
      <trkpt lat="46.08054" lon="4.60671">
        <ele>560.2</ele>
        <time>2020-10-24T08:03:39Z</time>
      </trkpt>
      <trkpt lat="46.08054" lon="4.60671">
        <ele>560.6</ele>
        <time>2020-10-24T08:03:40Z</time>
      </trkpt>
      <trkpt lat="46.08057" lon="4.60671">
        <ele>560.8</ele>
        <time>2020-10-24T08:03:41Z</time>
      </trkpt>
      <trkpt lat="46.08057" lon="4.60671">
        <ele>561</ele>
        <time>2020-10-24T08:03:42Z</time>
      </trkpt>
      <trkpt lat="46.0806" lon="4.60671">
        <ele>561</ele>
        <time>2020-10-24T08:03:43Z</time>
      </trkpt>
      <trkpt lat="46.0806" lon="4.60671">
        <ele>561.4</ele>
        <time>2020-10-24T08:03:44Z</time>
      </trkpt>
      <trkpt lat="46.08063" lon="4.6067">
        <ele>561.6</ele>
        <time>2020-10-24T08:03:45Z</time>
      </trkpt>
      <trkpt lat="46.08063" lon="4.6067">
        <ele>561.8</ele>
        <time>2020-10-24T08:03:46Z</time>
      </trkpt>
      <trkpt lat="46.08066" lon="4.60669">
        <ele>562</ele>
        <time>2020-10-24T08:03:47Z</time>
      </trkpt>
      <trkpt lat="46.08066" lon="4.60669">
        <ele>562.2</ele>
        <time>2020-10-24T08:03:48Z</time>
      </trkpt>
      <trkpt lat="46.08068" lon="4.60668">
        <ele>562.4</ele>
        <time>2020-10-24T08:03:49Z</time>
      </trkpt>
      <trkpt lat="46.08068" lon="4.60668">
        <ele>562.6</ele>
        <time>2020-10-24T08:03:50Z</time>
      </trkpt>
      <trkpt lat="46.08071" lon="4.60666">
        <ele>562.6</ele>
        <time>2020-10-24T08:03:51Z</time>
      </trkpt>
      <trkpt lat="46.08071" lon="4.60666">
        <ele>562.8</ele>
        <time>2020-10-24T08:03:52Z</time>
      </trkpt>
      <trkpt lat="46.08074" lon="4.60665">
        <ele>562.8</ele>
        <time>2020-10-24T08:03:53Z</time>
      </trkpt>
      <trkpt lat="46.08074" lon="4.60665">
        <ele>563</ele>
        <time>2020-10-24T08:03:54Z</time>
      </trkpt>
      <trkpt lat="46.08077" lon="4.60663">
        <ele>563.2</ele>
        <time>2020-10-24T08:03:55Z</time>
      </trkpt>
      <trkpt lat="46.08077" lon="4.60663">
        <ele>563.4</ele>
        <time>2020-10-24T08:03:56Z</time>
      </trkpt>
      <trkpt lat="46.08079" lon="4.60661">
        <ele>563.6</ele>
        <time>2020-10-24T08:03:57Z</time>
      </trkpt>
      <trkpt lat="46.08079" lon="4.60661">
        <ele>564</ele>
        <time>2020-10-24T08:03:58Z</time>
      </trkpt>
      <trkpt lat="46.08082" lon="4.60659">
        <ele>564.2</ele>
        <time>2020-10-24T08:03:59Z</time>
      </trkpt>
      <trkpt lat="46.08082" lon="4.60659">
        <ele>564.4</ele>
        <time>2020-10-24T08:04:00Z</time>
      </trkpt>
      <trkpt lat="46.08085" lon="4.60658">
        <ele>564.6</ele>
        <time>2020-10-24T08:04:01Z</time>
      </trkpt>
      <trkpt lat="46.08085" lon="4.60658">
        <ele>564.8</ele>
        <time>2020-10-24T08:04:02Z</time>
      </trkpt>
      <trkpt lat="46.08088" lon="4.60657">
        <ele>565</ele>
        <time>2020-10-24T08:04:03Z</time>
      </trkpt>
      <trkpt lat="46.08088" lon="4.60657">
        <ele>565</ele>
        <time>2020-10-24T08:04:04Z</time>
      </trkpt>
      <trkpt lat="46.08092" lon="4.60657">
        <ele>565.2</ele>
        <time>2020-10-24T08:04:05Z</time>
      </trkpt>
      <trkpt lat="46.08093" lon="4.60656">
        <ele>565.6</ele>
        <time>2020-10-24T08:04:06Z</time>
      </trkpt>
      <trkpt lat="46.08093" lon="4.60656">
        <ele>566</ele>
        <time>2020-10-24T08:04:07Z</time>
      </trkpt>
      <trkpt lat="46.08096" lon="4.60655">
        <ele>566.2</ele>
        <time>2020-10-24T08:04:08Z</time>
      </trkpt>
      <trkpt lat="46.08096" lon="4.60655">
        <ele>566.4</ele>
        <time>2020-10-24T08:04:09Z</time>
      </trkpt>
      <trkpt lat="46.08098" lon="4.60654">
        <ele>566.4</ele>
        <time>2020-10-24T08:04:10Z</time>
      </trkpt>
      <trkpt lat="46.08098" lon="4.60654">
        <ele>566.6</ele>
        <time>2020-10-24T08:04:11Z</time>
      </trkpt>
      <trkpt lat="46.081" lon="4.60653">
        <ele>566.8</ele>
        <time>2020-10-24T08:04:12Z</time>
      </trkpt>
      <trkpt lat="46.081" lon="4.60653">
        <ele>567</ele>
        <time>2020-10-24T08:04:13Z</time>
      </trkpt>
      <trkpt lat="46.08103" lon="4.60652">
        <ele>567.2</ele>
        <time>2020-10-24T08:04:14Z</time>
      </trkpt>
      <trkpt lat="46.08103" lon="4.60652">
        <ele>567.4</ele>
        <time>2020-10-24T08:04:15Z</time>
      </trkpt>
      <trkpt lat="46.08105" lon="4.6065">
        <ele>567.2</ele>
        <time>2020-10-24T08:04:16Z</time>
      </trkpt>
      <trkpt lat="46.08105" lon="4.6065">
        <ele>567.2</ele>
        <time>2020-10-24T08:04:17Z</time>
      </trkpt>
      <trkpt lat="46.08107" lon="4.6065">
        <ele>567.2</ele>
        <time>2020-10-24T08:04:18Z</time>
      </trkpt>
      <trkpt lat="46.08107" lon="4.6065">
        <ele>567.2</ele>
        <time>2020-10-24T08:04:19Z</time>
      </trkpt>
      <trkpt lat="46.08109" lon="4.60649">
        <ele>567.2</ele>
        <time>2020-10-24T08:04:20Z</time>
      </trkpt>
      <trkpt lat="46.08109" lon="4.60649">
        <ele>567.4</ele>
        <time>2020-10-24T08:04:21Z</time>
      </trkpt>
      <trkpt lat="46.08112" lon="4.60649">
        <ele>567.6</ele>
        <time>2020-10-24T08:04:22Z</time>
      </trkpt>
      <trkpt lat="46.08112" lon="4.60649">
        <ele>567.4</ele>
        <time>2020-10-24T08:04:23Z</time>
      </trkpt>
      <trkpt lat="46.08114" lon="4.60648">
        <ele>567.4</ele>
        <time>2020-10-24T08:04:24Z</time>
      </trkpt>
      <trkpt lat="46.08114" lon="4.60648">
        <ele>567.6</ele>
        <time>2020-10-24T08:04:25Z</time>
      </trkpt>
      <trkpt lat="46.08116" lon="4.60648">
        <ele>567.8</ele>
        <time>2020-10-24T08:04:26Z</time>
      </trkpt>
      <trkpt lat="46.08116" lon="4.60648">
        <ele>567.8</ele>
        <time>2020-10-24T08:04:27Z</time>
      </trkpt>
      <trkpt lat="46.08119" lon="4.60648">
        <ele>568</ele>
        <time>2020-10-24T08:04:28Z</time>
      </trkpt>
      <trkpt lat="46.0812" lon="4.60648">
        <ele>568.2</ele>
        <time>2020-10-24T08:04:29Z</time>
      </trkpt>
      <trkpt lat="46.08122" lon="4.60648">
        <ele>568</ele>
        <time>2020-10-24T08:04:30Z</time>
      </trkpt>
      <trkpt lat="46.08124" lon="4.60647">
        <ele>568</ele>
        <time>2020-10-24T08:04:31Z</time>
      </trkpt>
      <trkpt lat="46.08126" lon="4.60647">
        <ele>567.8</ele>
        <time>2020-10-24T08:04:32Z</time>
      </trkpt>
      <trkpt lat="46.08128" lon="4.60647">
        <ele>567.8</ele>
        <time>2020-10-24T08:04:33Z</time>
      </trkpt>
      <trkpt lat="46.08128" lon="4.60647">
        <ele>567.6</ele>
        <time>2020-10-24T08:04:34Z</time>
      </trkpt>
      <trkpt lat="46.08132" lon="4.60646">
        <ele>567.4</ele>
        <time>2020-10-24T08:04:35Z</time>
      </trkpt>
      <trkpt lat="46.08134" lon="4.60645">
        <ele>567.4</ele>
        <time>2020-10-24T08:04:36Z</time>
      </trkpt>
      <trkpt lat="46.08134" lon="4.60645">
        <ele>567.4</ele>
        <time>2020-10-24T08:04:37Z</time>
      </trkpt>
      <trkpt lat="46.08137" lon="4.60644">
        <ele>567.4</ele>
        <time>2020-10-24T08:04:38Z</time>
      </trkpt>
      <trkpt lat="46.08137" lon="4.60644">
        <ele>567.8</ele>
        <time>2020-10-24T08:04:39Z</time>
      </trkpt>
      <trkpt lat="46.0814" lon="4.60642">
        <ele>568</ele>
        <time>2020-10-24T08:04:40Z</time>
      </trkpt>
      <trkpt lat="46.0814" lon="4.60642">
        <ele>568.2</ele>
        <time>2020-10-24T08:04:41Z</time>
      </trkpt>
      <trkpt lat="46.08143" lon="4.60642">
        <ele>568.4</ele>
        <time>2020-10-24T08:04:42Z</time>
      </trkpt>
      <trkpt lat="46.08143" lon="4.60642">
        <ele>568.4</ele>
        <time>2020-10-24T08:04:43Z</time>
      </trkpt>
      <trkpt lat="46.08143" lon="4.60642">
        <ele>568.6</ele>
        <time>2020-10-24T08:04:44Z</time>
      </trkpt>
      <trkpt lat="46.08146" lon="4.60642">
        <ele>568.8</ele>
        <time>2020-10-24T08:04:45Z</time>
      </trkpt>
      <trkpt lat="46.08146" lon="4.60642">
        <ele>568.8</ele>
        <time>2020-10-24T08:04:46Z</time>
      </trkpt>
      <trkpt lat="46.08149" lon="4.60643">
        <ele>568.8</ele>
        <time>2020-10-24T08:04:47Z</time>
      </trkpt>
      <trkpt lat="46.08149" lon="4.60643">
        <ele>569</ele>
        <time>2020-10-24T08:04:48Z</time>
      </trkpt>
      <trkpt lat="46.08151" lon="4.60643">
        <ele>569</ele>
        <time>2020-10-24T08:04:49Z</time>
      </trkpt>
      <trkpt lat="46.08151" lon="4.60643">
        <ele>569.2</ele>
        <time>2020-10-24T08:04:50Z</time>
      </trkpt>
      <trkpt lat="46.08153" lon="4.60644">
        <ele>569.2</ele>
        <time>2020-10-24T08:04:51Z</time>
      </trkpt>
      <trkpt lat="46.08153" lon="4.60644">
        <ele>569.2</ele>
        <time>2020-10-24T08:04:52Z</time>
      </trkpt>
      <trkpt lat="46.08156" lon="4.60645">
        <ele>569.2</ele>
        <time>2020-10-24T08:04:53Z</time>
      </trkpt>
      <trkpt lat="46.08156" lon="4.60645">
        <ele>569.2</ele>
        <time>2020-10-24T08:04:54Z</time>
      </trkpt>
      <trkpt lat="46.08159" lon="4.60644">
        <ele>569.2</ele>
        <time>2020-10-24T08:04:55Z</time>
      </trkpt>
      <trkpt lat="46.08159" lon="4.60644">
        <ele>569.4</ele>
        <time>2020-10-24T08:04:56Z</time>
      </trkpt>
      <trkpt lat="46.08162" lon="4.60645">
        <ele>569.4</ele>
        <time>2020-10-24T08:04:57Z</time>
      </trkpt>
      <trkpt lat="46.08162" lon="4.60645">
        <ele>569.4</ele>
        <time>2020-10-24T08:04:58Z</time>
      </trkpt>
      <trkpt lat="46.08165" lon="4.60646">
        <ele>569.2</ele>
        <time>2020-10-24T08:04:59Z</time>
      </trkpt>
      <trkpt lat="46.08165" lon="4.60646">
        <ele>569.4</ele>
        <time>2020-10-24T08:05:00Z</time>
      </trkpt>
      <trkpt lat="46.08168" lon="4.60646">
        <ele>569.2</ele>
        <time>2020-10-24T08:05:01Z</time>
      </trkpt>
      <trkpt lat="46.0817" lon="4.60645">
        <ele>569.2</ele>
        <time>2020-10-24T08:05:02Z</time>
      </trkpt>
      <trkpt lat="46.08172" lon="4.60645">
        <ele>569.4</ele>
        <time>2020-10-24T08:05:03Z</time>
      </trkpt>
      <trkpt lat="46.08172" lon="4.60645">
        <ele>569.6</ele>
        <time>2020-10-24T08:05:04Z</time>
      </trkpt>
      <trkpt lat="46.08175" lon="4.60646">
        <ele>570</ele>
        <time>2020-10-24T08:05:05Z</time>
      </trkpt>
      <trkpt lat="46.08175" lon="4.60646">
        <ele>570</ele>
        <time>2020-10-24T08:05:06Z</time>
      </trkpt>
      <trkpt lat="46.08178" lon="4.60646">
        <ele>570</ele>
        <time>2020-10-24T08:05:07Z</time>
      </trkpt>
      <trkpt lat="46.08178" lon="4.60646">
        <ele>570</ele>
        <time>2020-10-24T08:05:08Z</time>
      </trkpt>
      <trkpt lat="46.0818" lon="4.60647">
        <ele>570</ele>
        <time>2020-10-24T08:05:09Z</time>
      </trkpt>
      <trkpt lat="46.0818" lon="4.60647">
        <ele>570</ele>
        <time>2020-10-24T08:05:10Z</time>
      </trkpt>
      <trkpt lat="46.08183" lon="4.60649">
        <ele>570.2</ele>
        <time>2020-10-24T08:05:11Z</time>
      </trkpt>
      <trkpt lat="46.08183" lon="4.60649">
        <ele>570.2</ele>
        <time>2020-10-24T08:05:12Z</time>
      </trkpt>
      <trkpt lat="46.08186" lon="4.6065">
        <ele>570.2</ele>
        <time>2020-10-24T08:05:13Z</time>
      </trkpt>
      <trkpt lat="46.08186" lon="4.6065">
        <ele>570</ele>
        <time>2020-10-24T08:05:14Z</time>
      </trkpt>
      <trkpt lat="46.0819" lon="4.60651">
        <ele>570.2</ele>
        <time>2020-10-24T08:05:15Z</time>
      </trkpt>
      <trkpt lat="46.08192" lon="4.60652">
        <ele>570.4</ele>
        <time>2020-10-24T08:05:16Z</time>
      </trkpt>
      <trkpt lat="46.08192" lon="4.60652">
        <ele>570.6</ele>
        <time>2020-10-24T08:05:17Z</time>
      </trkpt>
      <trkpt lat="46.08195" lon="4.60652">
        <ele>570.6</ele>
        <time>2020-10-24T08:05:18Z</time>
      </trkpt>
      <trkpt lat="46.08197" lon="4.60653">
        <ele>570.2</ele>
        <time>2020-10-24T08:05:19Z</time>
      </trkpt>
      <trkpt lat="46.08199" lon="4.60653">
        <ele>570.2</ele>
        <time>2020-10-24T08:05:20Z</time>
      </trkpt>
      <trkpt lat="46.08199" lon="4.60653">
        <ele>570.4</ele>
        <time>2020-10-24T08:05:21Z</time>
      </trkpt>
      <trkpt lat="46.08202" lon="4.60654">
        <ele>570.4</ele>
        <time>2020-10-24T08:05:22Z</time>
      </trkpt>
      <trkpt lat="46.08202" lon="4.60654">
        <ele>570.4</ele>
        <time>2020-10-24T08:05:23Z</time>
      </trkpt>
      <trkpt lat="46.08205" lon="4.60654">
        <ele>570.4</ele>
        <time>2020-10-24T08:05:24Z</time>
      </trkpt>
      <trkpt lat="46.08205" lon="4.60654">
        <ele>570.4</ele>
        <time>2020-10-24T08:05:25Z</time>
      </trkpt>
      <trkpt lat="46.08208" lon="4.60656">
        <ele>570.4</ele>
        <time>2020-10-24T08:05:26Z</time>
      </trkpt>
      <trkpt lat="46.08208" lon="4.60656">
        <ele>570.4</ele>
        <time>2020-10-24T08:05:27Z</time>
      </trkpt>
      <trkpt lat="46.08211" lon="4.60657">
        <ele>570.4</ele>
        <time>2020-10-24T08:05:28Z</time>
      </trkpt>
      <trkpt lat="46.08211" lon="4.60657">
        <ele>570.4</ele>
        <time>2020-10-24T08:05:29Z</time>
      </trkpt>
      <trkpt lat="46.08214" lon="4.60657">
        <ele>570.4</ele>
        <time>2020-10-24T08:05:30Z</time>
      </trkpt>
      <trkpt lat="46.08214" lon="4.60657">
        <ele>570.6</ele>
        <time>2020-10-24T08:05:31Z</time>
      </trkpt>
      <trkpt lat="46.08217" lon="4.60657">
        <ele>570.6</ele>
        <time>2020-10-24T08:05:32Z</time>
      </trkpt>
      <trkpt lat="46.08217" lon="4.60657">
        <ele>570.6</ele>
        <time>2020-10-24T08:05:33Z</time>
      </trkpt>
      <trkpt lat="46.08219" lon="4.60658">
        <ele>570.8</ele>
        <time>2020-10-24T08:05:34Z</time>
      </trkpt>
      <trkpt lat="46.08219" lon="4.60658">
        <ele>570.8</ele>
        <time>2020-10-24T08:05:35Z</time>
      </trkpt>
      <trkpt lat="46.08222" lon="4.60659">
        <ele>571</ele>
        <time>2020-10-24T08:05:36Z</time>
      </trkpt>
      <trkpt lat="46.08224" lon="4.60659">
        <ele>571</ele>
        <time>2020-10-24T08:05:37Z</time>
      </trkpt>
      <trkpt lat="46.08224" lon="4.60659">
        <ele>571.2</ele>
        <time>2020-10-24T08:05:38Z</time>
      </trkpt>
      <trkpt lat="46.08227" lon="4.6066">
        <ele>571.4</ele>
        <time>2020-10-24T08:05:39Z</time>
      </trkpt>
      <trkpt lat="46.08227" lon="4.6066">
        <ele>571.6</ele>
        <time>2020-10-24T08:05:40Z</time>
      </trkpt>
      <trkpt lat="46.0823" lon="4.60661">
        <ele>571.6</ele>
        <time>2020-10-24T08:05:41Z</time>
      </trkpt>
      <trkpt lat="46.0823" lon="4.60661">
        <ele>572</ele>
        <time>2020-10-24T08:05:42Z</time>
      </trkpt>
      <trkpt lat="46.08233" lon="4.60662">
        <ele>572</ele>
        <time>2020-10-24T08:05:43Z</time>
      </trkpt>
      <trkpt lat="46.08235" lon="4.60663">
        <ele>572.4</ele>
        <time>2020-10-24T08:05:44Z</time>
      </trkpt>
      <trkpt lat="46.08235" lon="4.60663">
        <ele>572.8</ele>
        <time>2020-10-24T08:05:45Z</time>
      </trkpt>
      <trkpt lat="46.08238" lon="4.60664">
        <ele>573</ele>
        <time>2020-10-24T08:05:46Z</time>
      </trkpt>
      <trkpt lat="46.08238" lon="4.60664">
        <ele>573</ele>
        <time>2020-10-24T08:05:47Z</time>
      </trkpt>
      <trkpt lat="46.0824" lon="4.60664">
        <ele>572.8</ele>
        <time>2020-10-24T08:05:48Z</time>
      </trkpt>
      <trkpt lat="46.0824" lon="4.60664">
        <ele>572.6</ele>
        <time>2020-10-24T08:05:49Z</time>
      </trkpt>
      <trkpt lat="46.08243" lon="4.60664">
        <ele>572.8</ele>
        <time>2020-10-24T08:05:50Z</time>
      </trkpt>
      <trkpt lat="46.08243" lon="4.60664">
        <ele>573</ele>
        <time>2020-10-24T08:05:51Z</time>
      </trkpt>
      <trkpt lat="46.08246" lon="4.60664">
        <ele>573</ele>
        <time>2020-10-24T08:05:52Z</time>
      </trkpt>
      <trkpt lat="46.08246" lon="4.60664">
        <ele>573.2</ele>
        <time>2020-10-24T08:05:53Z</time>
      </trkpt>
      <trkpt lat="46.0825" lon="4.60665">
        <ele>573.4</ele>
        <time>2020-10-24T08:05:54Z</time>
      </trkpt>
      <trkpt lat="46.0825" lon="4.60665">
        <ele>573.4</ele>
        <time>2020-10-24T08:05:55Z</time>
      </trkpt>
      <trkpt lat="46.08252" lon="4.60665">
        <ele>573.6</ele>
        <time>2020-10-24T08:05:56Z</time>
      </trkpt>
      <trkpt lat="46.08252" lon="4.60665">
        <ele>573.6</ele>
        <time>2020-10-24T08:05:57Z</time>
      </trkpt>
      <trkpt lat="46.08255" lon="4.60665">
        <ele>573.8</ele>
        <time>2020-10-24T08:05:58Z</time>
      </trkpt>
      <trkpt lat="46.08255" lon="4.60665">
        <ele>574</ele>
        <time>2020-10-24T08:05:59Z</time>
      </trkpt>
      <trkpt lat="46.08259" lon="4.60665">
        <ele>574.2</ele>
        <time>2020-10-24T08:06:00Z</time>
      </trkpt>
      <trkpt lat="46.08259" lon="4.60665">
        <ele>574</ele>
        <time>2020-10-24T08:06:01Z</time>
      </trkpt>
      <trkpt lat="46.08261" lon="4.60665">
        <ele>574.2</ele>
        <time>2020-10-24T08:06:02Z</time>
      </trkpt>
      <trkpt lat="46.08263" lon="4.60665">
        <ele>574.4</ele>
        <time>2020-10-24T08:06:03Z</time>
      </trkpt>
      <trkpt lat="46.08265" lon="4.60666">
        <ele>574.6</ele>
        <time>2020-10-24T08:06:04Z</time>
      </trkpt>
      <trkpt lat="46.08265" lon="4.60666">
        <ele>574.8</ele>
        <time>2020-10-24T08:06:05Z</time>
      </trkpt>
      <trkpt lat="46.08269" lon="4.60666">
        <ele>575</ele>
        <time>2020-10-24T08:06:06Z</time>
      </trkpt>
      <trkpt lat="46.08269" lon="4.60666">
        <ele>575</ele>
        <time>2020-10-24T08:06:07Z</time>
      </trkpt>
      <trkpt lat="46.08271" lon="4.60665">
        <ele>575</ele>
        <time>2020-10-24T08:06:08Z</time>
      </trkpt>
      <trkpt lat="46.08271" lon="4.60665">
        <ele>575.2</ele>
        <time>2020-10-24T08:06:09Z</time>
      </trkpt>
      <trkpt lat="46.08274" lon="4.60665">
        <ele>575.2</ele>
        <time>2020-10-24T08:06:10Z</time>
      </trkpt>
      <trkpt lat="46.08274" lon="4.60665">
        <ele>575.2</ele>
        <time>2020-10-24T08:06:11Z</time>
      </trkpt>
      <trkpt lat="46.08276" lon="4.60665">
        <ele>575.2</ele>
        <time>2020-10-24T08:06:12Z</time>
      </trkpt>
      <trkpt lat="46.08276" lon="4.60665">
        <ele>575.2</ele>
        <time>2020-10-24T08:06:13Z</time>
      </trkpt>
      <trkpt lat="46.08279" lon="4.60666">
        <ele>575.4</ele>
        <time>2020-10-24T08:06:14Z</time>
      </trkpt>
      <trkpt lat="46.08279" lon="4.60666">
        <ele>575.6</ele>
        <time>2020-10-24T08:06:15Z</time>
      </trkpt>
      <trkpt lat="46.08282" lon="4.60666">
        <ele>575.8</ele>
        <time>2020-10-24T08:06:16Z</time>
      </trkpt>
      <trkpt lat="46.08282" lon="4.60666">
        <ele>576</ele>
        <time>2020-10-24T08:06:17Z</time>
      </trkpt>
      <trkpt lat="46.08285" lon="4.60666">
        <ele>576.4</ele>
        <time>2020-10-24T08:06:18Z</time>
      </trkpt>
      <trkpt lat="46.08285" lon="4.60666">
        <ele>576.4</ele>
        <time>2020-10-24T08:06:19Z</time>
      </trkpt>
      <trkpt lat="46.08288" lon="4.60667">
        <ele>576.4</ele>
        <time>2020-10-24T08:06:20Z</time>
      </trkpt>
      <trkpt lat="46.08288" lon="4.60667">
        <ele>576.4</ele>
        <time>2020-10-24T08:06:21Z</time>
      </trkpt>
      <trkpt lat="46.08291" lon="4.60667">
        <ele>576.4</ele>
        <time>2020-10-24T08:06:22Z</time>
      </trkpt>
      <trkpt lat="46.08291" lon="4.60667">
        <ele>576.4</ele>
        <time>2020-10-24T08:06:23Z</time>
      </trkpt>
      <trkpt lat="46.08294" lon="4.60667">
        <ele>576.6</ele>
        <time>2020-10-24T08:06:24Z</time>
      </trkpt>
      <trkpt lat="46.08294" lon="4.60667">
        <ele>576.4</ele>
        <time>2020-10-24T08:06:25Z</time>
      </trkpt>
      <trkpt lat="46.08297" lon="4.60668">
        <ele>576.4</ele>
        <time>2020-10-24T08:06:26Z</time>
      </trkpt>
      <trkpt lat="46.08299" lon="4.60669">
        <ele>576.8</ele>
        <time>2020-10-24T08:06:27Z</time>
      </trkpt>
      <trkpt lat="46.08301" lon="4.60669">
        <ele>577</ele>
        <time>2020-10-24T08:06:28Z</time>
      </trkpt>
      <trkpt lat="46.08301" lon="4.60669">
        <ele>577.4</ele>
        <time>2020-10-24T08:06:29Z</time>
      </trkpt>
      <trkpt lat="46.08304" lon="4.60669">
        <ele>577.4</ele>
        <time>2020-10-24T08:06:30Z</time>
      </trkpt>
      <trkpt lat="46.08304" lon="4.60669">
        <ele>577.4</ele>
        <time>2020-10-24T08:06:31Z</time>
      </trkpt>
      <trkpt lat="46.08307" lon="4.60668">
        <ele>577.4</ele>
        <time>2020-10-24T08:06:32Z</time>
      </trkpt>
      <trkpt lat="46.08307" lon="4.60668">
        <ele>577.6</ele>
        <time>2020-10-24T08:06:33Z</time>
      </trkpt>
      <trkpt lat="46.08311" lon="4.60668">
        <ele>578</ele>
        <time>2020-10-24T08:06:34Z</time>
      </trkpt>
      <trkpt lat="46.08311" lon="4.60668">
        <ele>578</ele>
        <time>2020-10-24T08:06:35Z</time>
      </trkpt>
      <trkpt lat="46.08314" lon="4.60668">
        <ele>578.2</ele>
        <time>2020-10-24T08:06:36Z</time>
      </trkpt>
      <trkpt lat="46.08314" lon="4.60668">
        <ele>578.4</ele>
        <time>2020-10-24T08:06:37Z</time>
      </trkpt>
      <trkpt lat="46.08317" lon="4.60668">
        <ele>578.8</ele>
        <time>2020-10-24T08:06:38Z</time>
      </trkpt>
      <trkpt lat="46.08317" lon="4.60668">
        <ele>579</ele>
        <time>2020-10-24T08:06:39Z</time>
      </trkpt>
      <trkpt lat="46.08321" lon="4.60667">
        <ele>579.4</ele>
        <time>2020-10-24T08:06:40Z</time>
      </trkpt>
      <trkpt lat="46.08323" lon="4.60667">
        <ele>579.6</ele>
        <time>2020-10-24T08:06:41Z</time>
      </trkpt>
      <trkpt lat="46.08323" lon="4.60667">
        <ele>579.8</ele>
        <time>2020-10-24T08:06:42Z</time>
      </trkpt>
      <trkpt lat="46.08326" lon="4.60666">
        <ele>580</ele>
        <time>2020-10-24T08:06:43Z</time>
      </trkpt>
      <trkpt lat="46.08326" lon="4.60666">
        <ele>580.2</ele>
        <time>2020-10-24T08:06:44Z</time>
      </trkpt>
      <trkpt lat="46.08329" lon="4.60665">
        <ele>580.4</ele>
        <time>2020-10-24T08:06:45Z</time>
      </trkpt>
      <trkpt lat="46.08329" lon="4.60665">
        <ele>580.6</ele>
        <time>2020-10-24T08:06:46Z</time>
      </trkpt>
      <trkpt lat="46.08331" lon="4.60664">
        <ele>580.8</ele>
        <time>2020-10-24T08:06:47Z</time>
      </trkpt>
      <trkpt lat="46.08331" lon="4.60664">
        <ele>581.2</ele>
        <time>2020-10-24T08:06:48Z</time>
      </trkpt>
      <trkpt lat="46.08334" lon="4.60663">
        <ele>581.6</ele>
        <time>2020-10-24T08:06:49Z</time>
      </trkpt>
      <trkpt lat="46.08334" lon="4.60663">
        <ele>581.8</ele>
        <time>2020-10-24T08:06:50Z</time>
      </trkpt>
      <trkpt lat="46.08338" lon="4.60662">
        <ele>581.8</ele>
        <time>2020-10-24T08:06:51Z</time>
      </trkpt>
      <trkpt lat="46.08338" lon="4.60662">
        <ele>581.8</ele>
        <time>2020-10-24T08:06:52Z</time>
      </trkpt>
      <trkpt lat="46.08341" lon="4.6066">
        <ele>582</ele>
        <time>2020-10-24T08:06:53Z</time>
      </trkpt>
      <trkpt lat="46.08341" lon="4.6066">
        <ele>582.2</ele>
        <time>2020-10-24T08:06:54Z</time>
      </trkpt>
      <trkpt lat="46.08344" lon="4.60658">
        <ele>582.4</ele>
        <time>2020-10-24T08:06:55Z</time>
      </trkpt>
      <trkpt lat="46.08344" lon="4.60658">
        <ele>582.4</ele>
        <time>2020-10-24T08:06:56Z</time>
      </trkpt>
      <trkpt lat="46.08346" lon="4.60656">
        <ele>582.6</ele>
        <time>2020-10-24T08:06:57Z</time>
      </trkpt>
      <trkpt lat="46.08346" lon="4.60656">
        <ele>582.6</ele>
        <time>2020-10-24T08:06:58Z</time>
      </trkpt>
      <trkpt lat="46.08349" lon="4.60655">
        <ele>582.6</ele>
        <time>2020-10-24T08:06:59Z</time>
      </trkpt>
      <trkpt lat="46.08349" lon="4.60655">
        <ele>582.8</ele>
        <time>2020-10-24T08:07:00Z</time>
      </trkpt>
      <trkpt lat="46.08349" lon="4.60655">
        <ele>583</ele>
        <time>2020-10-24T08:07:01Z</time>
      </trkpt>
      <trkpt lat="46.08351" lon="4.60653">
        <ele>583</ele>
        <time>2020-10-24T08:07:02Z</time>
      </trkpt>
      <trkpt lat="46.08351" lon="4.60653">
        <ele>583.2</ele>
        <time>2020-10-24T08:07:03Z</time>
      </trkpt>
      <trkpt lat="46.08351" lon="4.60653">
        <ele>583.4</ele>
        <time>2020-10-24T08:07:04Z</time>
      </trkpt>
      <trkpt lat="46.08351" lon="4.60653">
        <ele>583.8</ele>
        <time>2020-10-24T08:07:05Z</time>
      </trkpt>
      <trkpt lat="46.08351" lon="4.60653">
        <ele>584.2</ele>
        <time>2020-10-24T08:07:06Z</time>
      </trkpt>
      <trkpt lat="46.08351" lon="4.60653">
        <ele>584.4</ele>
        <time>2020-10-24T08:07:07Z</time>
      </trkpt>
      <trkpt lat="46.08351" lon="4.60653">
        <ele>584.2</ele>
        <time>2020-10-24T08:07:08Z</time>
      </trkpt>
      <trkpt lat="46.08351" lon="4.60653">
        <ele>584.2</ele>
        <time>2020-10-24T08:07:09Z</time>
      </trkpt>
      <trkpt lat="46.08353" lon="4.60653">
        <ele>584</ele>
        <time>2020-10-24T08:07:10Z</time>
      </trkpt>
      <trkpt lat="46.08353" lon="4.60653">
        <ele>584</ele>
        <time>2020-10-24T08:07:11Z</time>
      </trkpt>
      <trkpt lat="46.08356" lon="4.60655">
        <ele>584</ele>
        <time>2020-10-24T08:07:12Z</time>
      </trkpt>
      <trkpt lat="46.08357" lon="4.60656">
        <ele>584</ele>
        <time>2020-10-24T08:07:13Z</time>
      </trkpt>
      <trkpt lat="46.08359" lon="4.60658">
        <ele>584.4</ele>
        <time>2020-10-24T08:07:14Z</time>
      </trkpt>
      <trkpt lat="46.08359" lon="4.60658">
        <ele>584</ele>
        <time>2020-10-24T08:07:15Z</time>
      </trkpt>
      <trkpt lat="46.08362" lon="4.60661">
        <ele>584</ele>
        <time>2020-10-24T08:07:16Z</time>
      </trkpt>
      <trkpt lat="46.08362" lon="4.60661">
        <ele>584</ele>
        <time>2020-10-24T08:07:17Z</time>
      </trkpt>
      <trkpt lat="46.08364" lon="4.60664">
        <ele>584.2</ele>
        <time>2020-10-24T08:07:18Z</time>
      </trkpt>
      <trkpt lat="46.08364" lon="4.60664">
        <ele>584.6</ele>
        <time>2020-10-24T08:07:19Z</time>
      </trkpt>
      <trkpt lat="46.08366" lon="4.60666">
        <ele>585</ele>
        <time>2020-10-24T08:07:20Z</time>
      </trkpt>
      <trkpt lat="46.08366" lon="4.60666">
        <ele>585.2</ele>
        <time>2020-10-24T08:07:21Z</time>
      </trkpt>
      <trkpt lat="46.08369" lon="4.60669">
        <ele>585.4</ele>
        <time>2020-10-24T08:07:22Z</time>
      </trkpt>
      <trkpt lat="46.08369" lon="4.60669">
        <ele>585</ele>
        <time>2020-10-24T08:07:23Z</time>
      </trkpt>
      <trkpt lat="46.08371" lon="4.60673">
        <ele>585</ele>
        <time>2020-10-24T08:07:24Z</time>
      </trkpt>
      <trkpt lat="46.08373" lon="4.60675">
        <ele>585</ele>
        <time>2020-10-24T08:07:25Z</time>
      </trkpt>
      <trkpt lat="46.08373" lon="4.60675">
        <ele>585.2</ele>
        <time>2020-10-24T08:07:26Z</time>
      </trkpt>
      <trkpt lat="46.08375" lon="4.60678">
        <ele>585.2</ele>
        <time>2020-10-24T08:07:27Z</time>
      </trkpt>
      <trkpt lat="46.08375" lon="4.60678">
        <ele>585.2</ele>
        <time>2020-10-24T08:07:28Z</time>
      </trkpt>
      <trkpt lat="46.08377" lon="4.60682">
        <ele>585.2</ele>
        <time>2020-10-24T08:07:29Z</time>
      </trkpt>
      <trkpt lat="46.08377" lon="4.60682">
        <ele>585.4</ele>
        <time>2020-10-24T08:07:30Z</time>
      </trkpt>
      <trkpt lat="46.08379" lon="4.60685">
        <ele>585.6</ele>
        <time>2020-10-24T08:07:31Z</time>
      </trkpt>
      <trkpt lat="46.08379" lon="4.60685">
        <ele>585.6</ele>
        <time>2020-10-24T08:07:32Z</time>
      </trkpt>
      <trkpt lat="46.08382" lon="4.60688">
        <ele>585.8</ele>
        <time>2020-10-24T08:07:33Z</time>
      </trkpt>
      <trkpt lat="46.08383" lon="4.6069">
        <ele>586</ele>
        <time>2020-10-24T08:07:34Z</time>
      </trkpt>
      <trkpt lat="46.08384" lon="4.60693">
        <ele>586.2</ele>
        <time>2020-10-24T08:07:35Z</time>
      </trkpt>
      <trkpt lat="46.08384" lon="4.60693">
        <ele>586.4</ele>
        <time>2020-10-24T08:07:36Z</time>
      </trkpt>
      <trkpt lat="46.08387" lon="4.60696">
        <ele>586.8</ele>
        <time>2020-10-24T08:07:37Z</time>
      </trkpt>
      <trkpt lat="46.08387" lon="4.60696">
        <ele>587.2</ele>
        <time>2020-10-24T08:07:38Z</time>
      </trkpt>
      <trkpt lat="46.08389" lon="4.60699">
        <ele>587.2</ele>
        <time>2020-10-24T08:07:39Z</time>
      </trkpt>
      <trkpt lat="46.08389" lon="4.60699">
        <ele>587.4</ele>
        <time>2020-10-24T08:07:40Z</time>
      </trkpt>
      <trkpt lat="46.08391" lon="4.60703">
        <ele>587.4</ele>
        <time>2020-10-24T08:07:41Z</time>
      </trkpt>
      <trkpt lat="46.08391" lon="4.60703">
        <ele>587.4</ele>
        <time>2020-10-24T08:07:42Z</time>
      </trkpt>
      <trkpt lat="46.08391" lon="4.60706">
        <ele>587.4</ele>
        <time>2020-10-24T08:07:43Z</time>
      </trkpt>
      <trkpt lat="46.08391" lon="4.60706">
        <ele>587.6</ele>
        <time>2020-10-24T08:07:44Z</time>
      </trkpt>
      <trkpt lat="46.08391" lon="4.60706">
        <ele>587.8</ele>
        <time>2020-10-24T08:07:45Z</time>
      </trkpt>
      <trkpt lat="46.08391" lon="4.60706">
        <ele>588</ele>
        <time>2020-10-24T08:07:46Z</time>
      </trkpt>
      <trkpt lat="46.08391" lon="4.60706">
        <ele>588.2</ele>
        <time>2020-10-24T08:07:47Z</time>
      </trkpt>
      <trkpt lat="46.08391" lon="4.60706">
        <ele>588.2</ele>
        <time>2020-10-24T08:07:48Z</time>
      </trkpt>
      <trkpt lat="46.08391" lon="4.60706">
        <ele>588.2</ele>
        <time>2020-10-24T08:07:49Z</time>
      </trkpt>
      <trkpt lat="46.08391" lon="4.60706">
        <ele>588.2</ele>
        <time>2020-10-24T08:07:50Z</time>
      </trkpt>
      <trkpt lat="46.08393" lon="4.60707">
        <ele>588</ele>
        <time>2020-10-24T08:07:51Z</time>
      </trkpt>
      <trkpt lat="46.08393" lon="4.60707">
        <ele>587.8</ele>
        <time>2020-10-24T08:07:52Z</time>
      </trkpt>
      <trkpt lat="46.08395" lon="4.60709">
        <ele>587.6</ele>
        <time>2020-10-24T08:07:53Z</time>
      </trkpt>
      <trkpt lat="46.08395" lon="4.60709">
        <ele>587.4</ele>
        <time>2020-10-24T08:07:54Z</time>
      </trkpt>
      <trkpt lat="46.08398" lon="4.60712">
        <ele>587.4</ele>
        <time>2020-10-24T08:07:55Z</time>
      </trkpt>
      <trkpt lat="46.08398" lon="4.60712">
        <ele>587.4</ele>
        <time>2020-10-24T08:07:56Z</time>
      </trkpt>
      <trkpt lat="46.084" lon="4.60716">
        <ele>587.4</ele>
        <time>2020-10-24T08:07:57Z</time>
      </trkpt>
      <trkpt lat="46.084" lon="4.60716">
        <ele>587.4</ele>
        <time>2020-10-24T08:07:58Z</time>
      </trkpt>
      <trkpt lat="46.08402" lon="4.60719">
        <ele>587.4</ele>
        <time>2020-10-24T08:07:59Z</time>
      </trkpt>
      <trkpt lat="46.08402" lon="4.60719">
        <ele>587.4</ele>
        <time>2020-10-24T08:08:00Z</time>
      </trkpt>
      <trkpt lat="46.08405" lon="4.60721">
        <ele>587.6</ele>
        <time>2020-10-24T08:08:01Z</time>
      </trkpt>
      <trkpt lat="46.08405" lon="4.60721">
        <ele>587.4</ele>
        <time>2020-10-24T08:08:02Z</time>
      </trkpt>
      <trkpt lat="46.08407" lon="4.60724">
        <ele>587.4</ele>
        <time>2020-10-24T08:08:03Z</time>
      </trkpt>
      <trkpt lat="46.08407" lon="4.60724">
        <ele>587.6</ele>
        <time>2020-10-24T08:08:04Z</time>
      </trkpt>
      <trkpt lat="46.0841" lon="4.60728">
        <ele>587.4</ele>
        <time>2020-10-24T08:08:05Z</time>
      </trkpt>
      <trkpt lat="46.0841" lon="4.60728">
        <ele>587.6</ele>
        <time>2020-10-24T08:08:06Z</time>
      </trkpt>
      <trkpt lat="46.08411" lon="4.60732">
        <ele>587.6</ele>
        <time>2020-10-24T08:08:07Z</time>
      </trkpt>
      <trkpt lat="46.08411" lon="4.60732">
        <ele>587.8</ele>
        <time>2020-10-24T08:08:08Z</time>
      </trkpt>
      <trkpt lat="46.08413" lon="4.60735">
        <ele>588</ele>
        <time>2020-10-24T08:08:09Z</time>
      </trkpt>
      <trkpt lat="46.08413" lon="4.60735">
        <ele>588</ele>
        <time>2020-10-24T08:08:10Z</time>
      </trkpt>
      <trkpt lat="46.08415" lon="4.60739">
        <ele>587.6</ele>
        <time>2020-10-24T08:08:11Z</time>
      </trkpt>
      <trkpt lat="46.08415" lon="4.60739">
        <ele>587.4</ele>
        <time>2020-10-24T08:08:12Z</time>
      </trkpt>
      <trkpt lat="46.08416" lon="4.60743">
        <ele>587.4</ele>
        <time>2020-10-24T08:08:13Z</time>
      </trkpt>
      <trkpt lat="46.08416" lon="4.60743">
        <ele>587.4</ele>
        <time>2020-10-24T08:08:14Z</time>
      </trkpt>
      <trkpt lat="46.08418" lon="4.60746">
        <ele>587.6</ele>
        <time>2020-10-24T08:08:15Z</time>
      </trkpt>
      <trkpt lat="46.08418" lon="4.60746">
        <ele>587.4</ele>
        <time>2020-10-24T08:08:16Z</time>
      </trkpt>
      <trkpt lat="46.08419" lon="4.6075">
        <ele>587.6</ele>
        <time>2020-10-24T08:08:17Z</time>
      </trkpt>
      <trkpt lat="46.08419" lon="4.6075">
        <ele>587.6</ele>
        <time>2020-10-24T08:08:18Z</time>
      </trkpt>
      <trkpt lat="46.0842" lon="4.60754">
        <ele>587.8</ele>
        <time>2020-10-24T08:08:19Z</time>
      </trkpt>
      <trkpt lat="46.0842" lon="4.60754">
        <ele>587.8</ele>
        <time>2020-10-24T08:08:20Z</time>
      </trkpt>
      <trkpt lat="46.08421" lon="4.60758">
        <ele>587.8</ele>
        <time>2020-10-24T08:08:21Z</time>
      </trkpt>
      <trkpt lat="46.08421" lon="4.60758">
        <ele>588</ele>
        <time>2020-10-24T08:08:22Z</time>
      </trkpt>
      <trkpt lat="46.08422" lon="4.60762">
        <ele>588.2</ele>
        <time>2020-10-24T08:08:23Z</time>
      </trkpt>
      <trkpt lat="46.08422" lon="4.60762">
        <ele>588.6</ele>
        <time>2020-10-24T08:08:24Z</time>
      </trkpt>
      <trkpt lat="46.08422" lon="4.60766">
        <ele>588.8</ele>
        <time>2020-10-24T08:08:25Z</time>
      </trkpt>
      <trkpt lat="46.08422" lon="4.60766">
        <ele>589</ele>
        <time>2020-10-24T08:08:26Z</time>
      </trkpt>
      <trkpt lat="46.08422" lon="4.60771">
        <ele>589.2</ele>
        <time>2020-10-24T08:08:27Z</time>
      </trkpt>
      <trkpt lat="46.08422" lon="4.60771">
        <ele>589.4</ele>
        <time>2020-10-24T08:08:28Z</time>
      </trkpt>
      <trkpt lat="46.08421" lon="4.60774">
        <ele>589.4</ele>
        <time>2020-10-24T08:08:29Z</time>
      </trkpt>
      <trkpt lat="46.08421" lon="4.60774">
        <ele>589.6</ele>
        <time>2020-10-24T08:08:30Z</time>
      </trkpt>
      <trkpt lat="46.08421" lon="4.60779">
        <ele>589.4</ele>
        <time>2020-10-24T08:08:31Z</time>
      </trkpt>
      <trkpt lat="46.08421" lon="4.60779">
        <ele>589.4</ele>
        <time>2020-10-24T08:08:32Z</time>
      </trkpt>
      <trkpt lat="46.08421" lon="4.60783">
        <ele>589.2</ele>
        <time>2020-10-24T08:08:33Z</time>
      </trkpt>
      <trkpt lat="46.08421" lon="4.60783">
        <ele>589.4</ele>
        <time>2020-10-24T08:08:34Z</time>
      </trkpt>
      <trkpt lat="46.0842" lon="4.60787">
        <ele>589.4</ele>
        <time>2020-10-24T08:08:35Z</time>
      </trkpt>
      <trkpt lat="46.0842" lon="4.60787">
        <ele>589.4</ele>
        <time>2020-10-24T08:08:36Z</time>
      </trkpt>
      <trkpt lat="46.08419" lon="4.6079">
        <ele>589.4</ele>
        <time>2020-10-24T08:08:37Z</time>
      </trkpt>
      <trkpt lat="46.08419" lon="4.6079">
        <ele>589.4</ele>
        <time>2020-10-24T08:08:38Z</time>
      </trkpt>
      <trkpt lat="46.08418" lon="4.60792">
        <ele>589.4</ele>
        <time>2020-10-24T08:08:39Z</time>
      </trkpt>
      <trkpt lat="46.08418" lon="4.60792">
        <ele>589.2</ele>
        <time>2020-10-24T08:08:40Z</time>
      </trkpt>
      <trkpt lat="46.08417" lon="4.60796">
        <ele>589</ele>
        <time>2020-10-24T08:08:41Z</time>
      </trkpt>
      <trkpt lat="46.08417" lon="4.60796">
        <ele>588.6</ele>
        <time>2020-10-24T08:08:42Z</time>
      </trkpt>
      <trkpt lat="46.08415" lon="4.60799">
        <ele>588.4</ele>
        <time>2020-10-24T08:08:43Z</time>
      </trkpt>
      <trkpt lat="46.08415" lon="4.60799">
        <ele>588.6</ele>
        <time>2020-10-24T08:08:44Z</time>
      </trkpt>
      <trkpt lat="46.08413" lon="4.60803">
        <ele>588.6</ele>
        <time>2020-10-24T08:08:45Z</time>
      </trkpt>
      <trkpt lat="46.08411" lon="4.60804">
        <ele>588.4</ele>
        <time>2020-10-24T08:08:46Z</time>
      </trkpt>
      <trkpt lat="46.0841" lon="4.60805">
        <ele>588.6</ele>
        <time>2020-10-24T08:08:47Z</time>
      </trkpt>
      <trkpt lat="46.0841" lon="4.60805">
        <ele>588.2</ele>
        <time>2020-10-24T08:08:48Z</time>
      </trkpt>
      <trkpt lat="46.08408" lon="4.60806">
        <ele>588.4</ele>
        <time>2020-10-24T08:08:49Z</time>
      </trkpt>
      <trkpt lat="46.08408" lon="4.60806">
        <ele>588.4</ele>
        <time>2020-10-24T08:08:50Z</time>
      </trkpt>
      <trkpt lat="46.08408" lon="4.60806">
        <ele>588.6</ele>
        <time>2020-10-24T08:08:51Z</time>
      </trkpt>
      <trkpt lat="46.08408" lon="4.60806">
        <ele>588.6</ele>
        <time>2020-10-24T08:08:52Z</time>
      </trkpt>
      <trkpt lat="46.08408" lon="4.60806">
        <ele>588.8</ele>
        <time>2020-10-24T08:08:53Z</time>
      </trkpt>
      <trkpt lat="46.08408" lon="4.60806">
        <ele>589.2</ele>
        <time>2020-10-24T08:08:54Z</time>
      </trkpt>
      <trkpt lat="46.08408" lon="4.60806">
        <ele>589.6</ele>
        <time>2020-10-24T08:08:55Z</time>
      </trkpt>
      <trkpt lat="46.08408" lon="4.60806">
        <ele>589.6</ele>
        <time>2020-10-24T08:08:56Z</time>
      </trkpt>
      <trkpt lat="46.08408" lon="4.60806">
        <ele>589.8</ele>
        <time>2020-10-24T08:08:57Z</time>
      </trkpt>
      <trkpt lat="46.08408" lon="4.60806">
        <ele>590</ele>
        <time>2020-10-24T08:08:58Z</time>
      </trkpt>
      <trkpt lat="46.08408" lon="4.60806">
        <ele>590.2</ele>
        <time>2020-10-24T08:08:59Z</time>
      </trkpt>
      <trkpt lat="46.08408" lon="4.60806">
        <ele>590.4</ele>
        <time>2020-10-24T08:09:00Z</time>
      </trkpt>
      <trkpt lat="46.08408" lon="4.60806">
        <ele>590.6</ele>
        <time>2020-10-24T08:09:01Z</time>
      </trkpt>
      <trkpt lat="46.08408" lon="4.60806">
        <ele>590.6</ele>
        <time>2020-10-24T08:09:02Z</time>
      </trkpt>
      <trkpt lat="46.08408" lon="4.60806">
        <ele>590.6</ele>
        <time>2020-10-24T08:09:03Z</time>
      </trkpt>
      <trkpt lat="46.08408" lon="4.60806">
        <ele>590.8</ele>
        <time>2020-10-24T08:09:04Z</time>
      </trkpt>
      <trkpt lat="46.08408" lon="4.60806">
        <ele>591</ele>
        <time>2020-10-24T08:09:05Z</time>
      </trkpt>
      <trkpt lat="46.08408" lon="4.60806">
        <ele>591</ele>
        <time>2020-10-24T08:09:06Z</time>
      </trkpt>
      <trkpt lat="46.08408" lon="4.60806">
        <ele>591</ele>
        <time>2020-10-24T08:09:07Z</time>
      </trkpt>
      <trkpt lat="46.08408" lon="4.60806">
        <ele>591</ele>
        <time>2020-10-24T08:09:08Z</time>
      </trkpt>
      <trkpt lat="46.08408" lon="4.60806">
        <ele>591</ele>
        <time>2020-10-24T08:09:09Z</time>
      </trkpt>
      <trkpt lat="46.08408" lon="4.60806">
        <ele>591.2</ele>
        <time>2020-10-24T08:09:10Z</time>
      </trkpt>
      <trkpt lat="46.08408" lon="4.60806">
        <ele>591</ele>
        <time>2020-10-24T08:09:11Z</time>
      </trkpt>
      <trkpt lat="46.08408" lon="4.60806">
        <ele>590.8</ele>
        <time>2020-10-24T08:09:12Z</time>
      </trkpt>
      <trkpt lat="46.08408" lon="4.60806">
        <ele>590.6</ele>
        <time>2020-10-24T08:09:13Z</time>
      </trkpt>
      <trkpt lat="46.08408" lon="4.60806">
        <ele>590.6</ele>
        <time>2020-10-24T08:09:14Z</time>
      </trkpt>
      <trkpt lat="46.08408" lon="4.60806">
        <ele>590.4</ele>
        <time>2020-10-24T08:09:15Z</time>
      </trkpt>
      <trkpt lat="46.08408" lon="4.60806">
        <ele>590.2</ele>
        <time>2020-10-24T08:09:16Z</time>
      </trkpt>
      <trkpt lat="46.08408" lon="4.60806">
        <ele>590.2</ele>
        <time>2020-10-24T08:09:17Z</time>
      </trkpt>
      <trkpt lat="46.08408" lon="4.60806">
        <ele>590.2</ele>
        <time>2020-10-24T08:09:18Z</time>
      </trkpt>
      <trkpt lat="46.08408" lon="4.60806">
        <ele>590.2</ele>
        <time>2020-10-24T08:09:19Z</time>
      </trkpt>
      <trkpt lat="46.08408" lon="4.60806">
        <ele>590.6</ele>
        <time>2020-10-24T08:09:20Z</time>
      </trkpt>
      <trkpt lat="46.08408" lon="4.60806">
        <ele>590.4</ele>
        <time>2020-10-24T08:09:21Z</time>
      </trkpt>
      <trkpt lat="46.08408" lon="4.60806">
        <ele>590.2</ele>
        <time>2020-10-24T08:09:22Z</time>
      </trkpt>
      <trkpt lat="46.08408" lon="4.60806">
        <ele>590.2</ele>
        <time>2020-10-24T08:09:23Z</time>
      </trkpt>
      <trkpt lat="46.08408" lon="4.60806">
        <ele>590</ele>
        <time>2020-10-24T08:09:24Z</time>
      </trkpt>
      <trkpt lat="46.08408" lon="4.60806">
        <ele>590</ele>
        <time>2020-10-24T08:09:25Z</time>
      </trkpt>
      <trkpt lat="46.08408" lon="4.60806">
        <ele>590</ele>
        <time>2020-10-24T08:09:26Z</time>
      </trkpt>
      <trkpt lat="46.08408" lon="4.60806">
        <ele>590</ele>
        <time>2020-10-24T08:09:27Z</time>
      </trkpt>
      <trkpt lat="46.08408" lon="4.60806">
        <ele>589.8</ele>
        <time>2020-10-24T08:09:28Z</time>
      </trkpt>
      <trkpt lat="46.08408" lon="4.60806">
        <ele>589.8</ele>
        <time>2020-10-24T08:09:29Z</time>
      </trkpt>
      <trkpt lat="46.08408" lon="4.60806">
        <ele>589.8</ele>
        <time>2020-10-24T08:09:30Z</time>
      </trkpt>
      <trkpt lat="46.08408" lon="4.60806">
        <ele>590.2</ele>
        <time>2020-10-24T08:09:31Z</time>
      </trkpt>
      <trkpt lat="46.08408" lon="4.60806">
        <ele>590.6</ele>
        <time>2020-10-24T08:09:32Z</time>
      </trkpt>
      <trkpt lat="46.08408" lon="4.60806">
        <ele>590.8</ele>
        <time>2020-10-24T08:09:33Z</time>
      </trkpt>
      <trkpt lat="46.08408" lon="4.60806">
        <ele>591</ele>
        <time>2020-10-24T08:09:34Z</time>
      </trkpt>
      <trkpt lat="46.08408" lon="4.60806">
        <ele>591</ele>
        <time>2020-10-24T08:09:35Z</time>
      </trkpt>
      <trkpt lat="46.08408" lon="4.60806">
        <ele>591</ele>
        <time>2020-10-24T08:09:36Z</time>
      </trkpt>
      <trkpt lat="46.08408" lon="4.60806">
        <ele>591.2</ele>
        <time>2020-10-24T08:09:37Z</time>
      </trkpt>
      <trkpt lat="46.08408" lon="4.60806">
        <ele>590.8</ele>
        <time>2020-10-24T08:09:38Z</time>
      </trkpt>
      <trkpt lat="46.08408" lon="4.60806">
        <ele>590.6</ele>
        <time>2020-10-24T08:09:39Z</time>
      </trkpt>
      <trkpt lat="46.08408" lon="4.60806">
        <ele>590.2</ele>
        <time>2020-10-24T08:09:40Z</time>
      </trkpt>
      <trkpt lat="46.08408" lon="4.60806">
        <ele>589.8</ele>
        <time>2020-10-24T08:09:41Z</time>
      </trkpt>
      <trkpt lat="46.08408" lon="4.60806">
        <ele>589.6</ele>
        <time>2020-10-24T08:09:42Z</time>
      </trkpt>
      <trkpt lat="46.08408" lon="4.60806">
        <ele>589.2</ele>
        <time>2020-10-24T08:09:43Z</time>
      </trkpt>
      <trkpt lat="46.08408" lon="4.60806">
        <ele>589</ele>
        <time>2020-10-24T08:09:44Z</time>
      </trkpt>
      <trkpt lat="46.08408" lon="4.60806">
        <ele>588.6</ele>
        <time>2020-10-24T08:09:45Z</time>
      </trkpt>
      <trkpt lat="46.08408" lon="4.60806">
        <ele>588.4</ele>
        <time>2020-10-24T08:09:46Z</time>
      </trkpt>
      <trkpt lat="46.08408" lon="4.60806">
        <ele>588.2</ele>
        <time>2020-10-24T08:09:47Z</time>
      </trkpt>
      <trkpt lat="46.08408" lon="4.60806">
        <ele>588.2</ele>
        <time>2020-10-24T08:09:48Z</time>
      </trkpt>
      <trkpt lat="46.08408" lon="4.60806">
        <ele>588.2</ele>
        <time>2020-10-24T08:09:49Z</time>
      </trkpt>
      <trkpt lat="46.08407" lon="4.60804">
        <ele>588.2</ele>
        <time>2020-10-24T08:09:50Z</time>
      </trkpt>
      <trkpt lat="46.08407" lon="4.60804">
        <ele>588.4</ele>
        <time>2020-10-24T08:09:51Z</time>
      </trkpt>
      <trkpt lat="46.08407" lon="4.60804">
        <ele>588.4</ele>
        <time>2020-10-24T08:09:52Z</time>
      </trkpt>
      <trkpt lat="46.08407" lon="4.60804">
        <ele>588.6</ele>
        <time>2020-10-24T08:09:53Z</time>
      </trkpt>
      <trkpt lat="46.08407" lon="4.60804">
        <ele>588.6</ele>
        <time>2020-10-24T08:09:54Z</time>
      </trkpt>
      <trkpt lat="46.08407" lon="4.60804">
        <ele>588.6</ele>
        <time>2020-10-24T08:09:55Z</time>
      </trkpt>
      <trkpt lat="46.08407" lon="4.60804">
        <ele>588.4</ele>
        <time>2020-10-24T08:09:56Z</time>
      </trkpt>
      <trkpt lat="46.08407" lon="4.60804">
        <ele>588.4</ele>
        <time>2020-10-24T08:09:57Z</time>
      </trkpt>
      <trkpt lat="46.08407" lon="4.60804">
        <ele>588.4</ele>
        <time>2020-10-24T08:09:58Z</time>
      </trkpt>
      <trkpt lat="46.08407" lon="4.60804">
        <ele>588.4</ele>
        <time>2020-10-24T08:09:59Z</time>
      </trkpt>
      <trkpt lat="46.08407" lon="4.60804">
        <ele>588.6</ele>
        <time>2020-10-24T08:10:01Z</time>
      </trkpt>
      <trkpt lat="46.08407" lon="4.60804">
        <ele>588.4</ele>
        <time>2020-10-24T08:10:02Z</time>
      </trkpt>
      <trkpt lat="46.08407" lon="4.60804">
        <ele>588.2</ele>
        <time>2020-10-24T08:10:03Z</time>
      </trkpt>
      <trkpt lat="46.08407" lon="4.60804">
        <ele>588</ele>
        <time>2020-10-24T08:10:04Z</time>
      </trkpt>
      <trkpt lat="46.08407" lon="4.60804">
        <ele>587.8</ele>
        <time>2020-10-24T08:10:05Z</time>
      </trkpt>
      <trkpt lat="46.08407" lon="4.60804">
        <ele>587.8</ele>
        <time>2020-10-24T08:10:06Z</time>
      </trkpt>
      <trkpt lat="46.08407" lon="4.60804">
        <ele>587.6</ele>
        <time>2020-10-24T08:10:07Z</time>
      </trkpt>
      <trkpt lat="46.08407" lon="4.60804">
        <ele>587.6</ele>
        <time>2020-10-24T08:10:08Z</time>
      </trkpt>
      <trkpt lat="46.08407" lon="4.60804">
        <ele>587.8</ele>
        <time>2020-10-24T08:10:09Z</time>
      </trkpt>
      <trkpt lat="46.08407" lon="4.60804">
        <ele>588</ele>
        <time>2020-10-24T08:10:10Z</time>
      </trkpt>
      <trkpt lat="46.08407" lon="4.60804">
        <ele>588</ele>
        <time>2020-10-24T08:10:11Z</time>
      </trkpt>
      <trkpt lat="46.08407" lon="4.60804">
        <ele>587.8</ele>
        <time>2020-10-24T08:10:12Z</time>
      </trkpt>
      <trkpt lat="46.08407" lon="4.60804">
        <ele>587.6</ele>
        <time>2020-10-24T08:10:13Z</time>
      </trkpt>
      <trkpt lat="46.08407" lon="4.60804">
        <ele>587.6</ele>
        <time>2020-10-24T08:10:14Z</time>
      </trkpt>
      <trkpt lat="46.08407" lon="4.60804">
        <ele>587.6</ele>
        <time>2020-10-24T08:10:15Z</time>
      </trkpt>
      <trkpt lat="46.08407" lon="4.60804">
        <ele>587.6</ele>
        <time>2020-10-24T08:10:16Z</time>
      </trkpt>
      <trkpt lat="46.08407" lon="4.60804">
        <ele>587.4</ele>
        <time>2020-10-24T08:10:17Z</time>
      </trkpt>
      <trkpt lat="46.08409" lon="4.60802">
        <ele>587</ele>
        <time>2020-10-24T08:10:18Z</time>
      </trkpt>
      <trkpt lat="46.08409" lon="4.60802">
        <ele>586.8</ele>
        <time>2020-10-24T08:10:19Z</time>
      </trkpt>
      <trkpt lat="46.0841" lon="4.60802">
        <ele>586.6</ele>
        <time>2020-10-24T08:10:20Z</time>
      </trkpt>
      <trkpt lat="46.0841" lon="4.60802">
        <ele>586.6</ele>
        <time>2020-10-24T08:10:21Z</time>
      </trkpt>
      <trkpt lat="46.08412" lon="4.60804">
        <ele>586.2</ele>
        <time>2020-10-24T08:10:22Z</time>
      </trkpt>
      <trkpt lat="46.08412" lon="4.60804">
        <ele>586.2</ele>
        <time>2020-10-24T08:10:23Z</time>
      </trkpt>
      <trkpt lat="46.08414" lon="4.60806">
        <ele>586.2</ele>
        <time>2020-10-24T08:10:24Z</time>
      </trkpt>
      <trkpt lat="46.08414" lon="4.60806">
        <ele>586.2</ele>
        <time>2020-10-24T08:10:25Z</time>
      </trkpt>
      <trkpt lat="46.08416" lon="4.60808">
        <ele>586.4</ele>
        <time>2020-10-24T08:10:26Z</time>
      </trkpt>
      <trkpt lat="46.08416" lon="4.60808">
        <ele>586.6</ele>
        <time>2020-10-24T08:10:27Z</time>
      </trkpt>
      <trkpt lat="46.08418" lon="4.6081">
        <ele>586.6</ele>
        <time>2020-10-24T08:10:28Z</time>
      </trkpt>
      <trkpt lat="46.08418" lon="4.6081">
        <ele>586.8</ele>
        <time>2020-10-24T08:10:29Z</time>
      </trkpt>
      <trkpt lat="46.0842" lon="4.60812">
        <ele>587</ele>
        <time>2020-10-24T08:10:30Z</time>
      </trkpt>
      <trkpt lat="46.0842" lon="4.60812">
        <ele>587.2</ele>
        <time>2020-10-24T08:10:31Z</time>
      </trkpt>
      <trkpt lat="46.08422" lon="4.60815">
        <ele>587.2</ele>
        <time>2020-10-24T08:10:32Z</time>
      </trkpt>
      <trkpt lat="46.08422" lon="4.60815">
        <ele>587.8</ele>
        <time>2020-10-24T08:10:33Z</time>
      </trkpt>
      <trkpt lat="46.08423" lon="4.60817">
        <ele>588</ele>
        <time>2020-10-24T08:10:34Z</time>
      </trkpt>
      <trkpt lat="46.08423" lon="4.60817">
        <ele>588.2</ele>
        <time>2020-10-24T08:10:35Z</time>
      </trkpt>
      <trkpt lat="46.08425" lon="4.6082">
        <ele>588.6</ele>
        <time>2020-10-24T08:10:36Z</time>
      </trkpt>
      <trkpt lat="46.08427" lon="4.60823">
        <ele>589.2</ele>
        <time>2020-10-24T08:10:38Z</time>
      </trkpt>
      <trkpt lat="46.08427" lon="4.60823">
        <ele>589.4</ele>
        <time>2020-10-24T08:10:39Z</time>
      </trkpt>
      <trkpt lat="46.08429" lon="4.60826">
        <ele>589.8</ele>
        <time>2020-10-24T08:10:40Z</time>
      </trkpt>
      <trkpt lat="46.08429" lon="4.60826">
        <ele>590.4</ele>
        <time>2020-10-24T08:10:41Z</time>
      </trkpt>
      <trkpt lat="46.0843" lon="4.60828">
        <ele>590.6</ele>
        <time>2020-10-24T08:10:42Z</time>
      </trkpt>
      <trkpt lat="46.0843" lon="4.60828">
        <ele>590.8</ele>
        <time>2020-10-24T08:10:43Z</time>
      </trkpt>
      <trkpt lat="46.08433" lon="4.6083">
        <ele>591.4</ele>
        <time>2020-10-24T08:10:44Z</time>
      </trkpt>
      <trkpt lat="46.08433" lon="4.6083">
        <ele>591.8</ele>
        <time>2020-10-24T08:10:45Z</time>
      </trkpt>
      <trkpt lat="46.08435" lon="4.60831">
        <ele>592.2</ele>
        <time>2020-10-24T08:10:46Z</time>
      </trkpt>
      <trkpt lat="46.08435" lon="4.60831">
        <ele>592.4</ele>
        <time>2020-10-24T08:10:47Z</time>
      </trkpt>
      <trkpt lat="46.08437" lon="4.60832">
        <ele>592.8</ele>
        <time>2020-10-24T08:10:48Z</time>
      </trkpt>
      <trkpt lat="46.08437" lon="4.60832">
        <ele>593</ele>
        <time>2020-10-24T08:10:49Z</time>
      </trkpt>
      <trkpt lat="46.08439" lon="4.60833">
        <ele>593.2</ele>
        <time>2020-10-24T08:10:50Z</time>
      </trkpt>
      <trkpt lat="46.08439" lon="4.60833">
        <ele>593.4</ele>
        <time>2020-10-24T08:10:51Z</time>
      </trkpt>
      <trkpt lat="46.08442" lon="4.60835">
        <ele>593.6</ele>
        <time>2020-10-24T08:10:52Z</time>
      </trkpt>
      <trkpt lat="46.08442" lon="4.60835">
        <ele>594</ele>
        <time>2020-10-24T08:10:53Z</time>
      </trkpt>
      <trkpt lat="46.08444" lon="4.60837">
        <ele>594.2</ele>
        <time>2020-10-24T08:10:54Z</time>
      </trkpt>
      <trkpt lat="46.08444" lon="4.60837">
        <ele>594.4</ele>
        <time>2020-10-24T08:10:55Z</time>
      </trkpt>
      <trkpt lat="46.08446" lon="4.60838">
        <ele>594.6</ele>
        <time>2020-10-24T08:10:56Z</time>
      </trkpt>
      <trkpt lat="46.08446" lon="4.60838">
        <ele>594.8</ele>
        <time>2020-10-24T08:10:57Z</time>
      </trkpt>
      <trkpt lat="46.08448" lon="4.6084">
        <ele>595.2</ele>
        <time>2020-10-24T08:10:58Z</time>
      </trkpt>
      <trkpt lat="46.08448" lon="4.6084">
        <ele>595.4</ele>
        <time>2020-10-24T08:10:59Z</time>
      </trkpt>
      <trkpt lat="46.08451" lon="4.60843">
        <ele>595.4</ele>
        <time>2020-10-24T08:11:00Z</time>
      </trkpt>
      <trkpt lat="46.08451" lon="4.60843">
        <ele>595.6</ele>
        <time>2020-10-24T08:11:01Z</time>
      </trkpt>
      <trkpt lat="46.08452" lon="4.60846">
        <ele>595.8</ele>
        <time>2020-10-24T08:11:02Z</time>
      </trkpt>
      <trkpt lat="46.08452" lon="4.60846">
        <ele>596.2</ele>
        <time>2020-10-24T08:11:03Z</time>
      </trkpt>
      <trkpt lat="46.08454" lon="4.60849">
        <ele>596.2</ele>
        <time>2020-10-24T08:11:04Z</time>
      </trkpt>
      <trkpt lat="46.08454" lon="4.60849">
        <ele>596.4</ele>
        <time>2020-10-24T08:11:05Z</time>
      </trkpt>
      <trkpt lat="46.08456" lon="4.60852">
        <ele>596.6</ele>
        <time>2020-10-24T08:11:06Z</time>
      </trkpt>
      <trkpt lat="46.08456" lon="4.60852">
        <ele>596.8</ele>
        <time>2020-10-24T08:11:07Z</time>
      </trkpt>
      <trkpt lat="46.08458" lon="4.60855">
        <ele>597</ele>
        <time>2020-10-24T08:11:08Z</time>
      </trkpt>
      <trkpt lat="46.08458" lon="4.60855">
        <ele>597.2</ele>
        <time>2020-10-24T08:11:09Z</time>
      </trkpt>
      <trkpt lat="46.08459" lon="4.60858">
        <ele>597.4</ele>
        <time>2020-10-24T08:11:10Z</time>
      </trkpt>
      <trkpt lat="46.08459" lon="4.60858">
        <ele>597.8</ele>
        <time>2020-10-24T08:11:11Z</time>
      </trkpt>
      <trkpt lat="46.08461" lon="4.60862">
        <ele>598</ele>
        <time>2020-10-24T08:11:12Z</time>
      </trkpt>
      <trkpt lat="46.08461" lon="4.60862">
        <ele>598</ele>
        <time>2020-10-24T08:11:13Z</time>
      </trkpt>
      <trkpt lat="46.08462" lon="4.60865">
        <ele>598.2</ele>
        <time>2020-10-24T08:11:14Z</time>
      </trkpt>
      <trkpt lat="46.08462" lon="4.60865">
        <ele>598.4</ele>
        <time>2020-10-24T08:11:15Z</time>
      </trkpt>
      <trkpt lat="46.08464" lon="4.60868">
        <ele>598.6</ele>
        <time>2020-10-24T08:11:16Z</time>
      </trkpt>
      <trkpt lat="46.08464" lon="4.60868">
        <ele>598.8</ele>
        <time>2020-10-24T08:11:17Z</time>
      </trkpt>
      <trkpt lat="46.08466" lon="4.60871">
        <ele>598.6</ele>
        <time>2020-10-24T08:11:18Z</time>
      </trkpt>
      <trkpt lat="46.08466" lon="4.60871">
        <ele>598.8</ele>
        <time>2020-10-24T08:11:19Z</time>
      </trkpt>
      <trkpt lat="46.08467" lon="4.60875">
        <ele>599</ele>
        <time>2020-10-24T08:11:20Z</time>
      </trkpt>
      <trkpt lat="46.08467" lon="4.60875">
        <ele>599.2</ele>
        <time>2020-10-24T08:11:21Z</time>
      </trkpt>
      <trkpt lat="46.08467" lon="4.60875">
        <ele>599.4</ele>
        <time>2020-10-24T08:11:22Z</time>
      </trkpt>
      <trkpt lat="46.08467" lon="4.60875">
        <ele>599.6</ele>
        <time>2020-10-24T08:11:23Z</time>
      </trkpt>
      <trkpt lat="46.08469" lon="4.60877">
        <ele>599.6</ele>
        <time>2020-10-24T08:11:24Z</time>
      </trkpt>
      <trkpt lat="46.08469" lon="4.60877">
        <ele>599.8</ele>
        <time>2020-10-24T08:11:25Z</time>
      </trkpt>
      <trkpt lat="46.08471" lon="4.60881">
        <ele>600</ele>
        <time>2020-10-24T08:11:26Z</time>
      </trkpt>
      <trkpt lat="46.08471" lon="4.60881">
        <ele>600.4</ele>
        <time>2020-10-24T08:11:27Z</time>
      </trkpt>
      <trkpt lat="46.08473" lon="4.60883">
        <ele>600.6</ele>
        <time>2020-10-24T08:11:28Z</time>
      </trkpt>
      <trkpt lat="46.08473" lon="4.60883">
        <ele>600.6</ele>
        <time>2020-10-24T08:11:29Z</time>
      </trkpt>
      <trkpt lat="46.08476" lon="4.60885">
        <ele>600.8</ele>
        <time>2020-10-24T08:11:30Z</time>
      </trkpt>
      <trkpt lat="46.08476" lon="4.60885">
        <ele>601</ele>
        <time>2020-10-24T08:11:31Z</time>
      </trkpt>
      <trkpt lat="46.08479" lon="4.60887">
        <ele>601.4</ele>
        <time>2020-10-24T08:11:32Z</time>
      </trkpt>
      <trkpt lat="46.08479" lon="4.60887">
        <ele>601.8</ele>
        <time>2020-10-24T08:11:33Z</time>
      </trkpt>
      <trkpt lat="46.08481" lon="4.60889">
        <ele>602</ele>
        <time>2020-10-24T08:11:34Z</time>
      </trkpt>
      <trkpt lat="46.08481" lon="4.60889">
        <ele>602</ele>
        <time>2020-10-24T08:11:35Z</time>
      </trkpt>
      <trkpt lat="46.08484" lon="4.60892">
        <ele>602.2</ele>
        <time>2020-10-24T08:11:36Z</time>
      </trkpt>
      <trkpt lat="46.08484" lon="4.60892">
        <ele>602.2</ele>
        <time>2020-10-24T08:11:37Z</time>
      </trkpt>
      <trkpt lat="46.08486" lon="4.60894">
        <ele>602.4</ele>
        <time>2020-10-24T08:11:38Z</time>
      </trkpt>
      <trkpt lat="46.08486" lon="4.60894">
        <ele>602.4</ele>
        <time>2020-10-24T08:11:39Z</time>
      </trkpt>
      <trkpt lat="46.08489" lon="4.60897">
        <ele>602.6</ele>
        <time>2020-10-24T08:11:40Z</time>
      </trkpt>
      <trkpt lat="46.0849" lon="4.60899">
        <ele>602.8</ele>
        <time>2020-10-24T08:11:41Z</time>
      </trkpt>
      <trkpt lat="46.08491" lon="4.60901">
        <ele>603.2</ele>
        <time>2020-10-24T08:11:42Z</time>
      </trkpt>
      <trkpt lat="46.08491" lon="4.60901">
        <ele>603.2</ele>
        <time>2020-10-24T08:11:43Z</time>
      </trkpt>
      <trkpt lat="46.08493" lon="4.60905">
        <ele>603.2</ele>
        <time>2020-10-24T08:11:44Z</time>
      </trkpt>
      <trkpt lat="46.08493" lon="4.60905">
        <ele>603.2</ele>
        <time>2020-10-24T08:11:45Z</time>
      </trkpt>
      <trkpt lat="46.08495" lon="4.60909">
        <ele>603</ele>
        <time>2020-10-24T08:11:46Z</time>
      </trkpt>
      <trkpt lat="46.08495" lon="4.60909">
        <ele>603</ele>
        <time>2020-10-24T08:11:47Z</time>
      </trkpt>
      <trkpt lat="46.08497" lon="4.60913">
        <ele>603</ele>
        <time>2020-10-24T08:11:48Z</time>
      </trkpt>
      <trkpt lat="46.08497" lon="4.60913">
        <ele>603</ele>
        <time>2020-10-24T08:11:49Z</time>
      </trkpt>
      <trkpt lat="46.08499" lon="4.60916">
        <ele>603</ele>
        <time>2020-10-24T08:11:50Z</time>
      </trkpt>
      <trkpt lat="46.08499" lon="4.60916">
        <ele>603</ele>
        <time>2020-10-24T08:11:51Z</time>
      </trkpt>
      <trkpt lat="46.08501" lon="4.6092">
        <ele>603.2</ele>
        <time>2020-10-24T08:11:52Z</time>
      </trkpt>
      <trkpt lat="46.08501" lon="4.6092">
        <ele>603.4</ele>
        <time>2020-10-24T08:11:53Z</time>
      </trkpt>
      <trkpt lat="46.08503" lon="4.60924">
        <ele>603.4</ele>
        <time>2020-10-24T08:11:54Z</time>
      </trkpt>
      <trkpt lat="46.08503" lon="4.60924">
        <ele>603.6</ele>
        <time>2020-10-24T08:11:55Z</time>
      </trkpt>
      <trkpt lat="46.08505" lon="4.60927">
        <ele>603.8</ele>
        <time>2020-10-24T08:11:56Z</time>
      </trkpt>
      <trkpt lat="46.08505" lon="4.60927">
        <ele>603.8</ele>
        <time>2020-10-24T08:11:57Z</time>
      </trkpt>
      <trkpt lat="46.08507" lon="4.6093">
        <ele>603.8</ele>
        <time>2020-10-24T08:11:58Z</time>
      </trkpt>
      <trkpt lat="46.08507" lon="4.6093">
        <ele>604</ele>
        <time>2020-10-24T08:11:59Z</time>
      </trkpt>
      <trkpt lat="46.08509" lon="4.60932">
        <ele>604</ele>
        <time>2020-10-24T08:12:00Z</time>
      </trkpt>
      <trkpt lat="46.08509" lon="4.60932">
        <ele>604.2</ele>
        <time>2020-10-24T08:12:01Z</time>
      </trkpt>
      <trkpt lat="46.08511" lon="4.60935">
        <ele>604.4</ele>
        <time>2020-10-24T08:12:02Z</time>
      </trkpt>
      <trkpt lat="46.08511" lon="4.60935">
        <ele>604.4</ele>
        <time>2020-10-24T08:12:03Z</time>
      </trkpt>
      <trkpt lat="46.08513" lon="4.60938">
        <ele>604.6</ele>
        <time>2020-10-24T08:12:04Z</time>
      </trkpt>
      <trkpt lat="46.08513" lon="4.60938">
        <ele>605</ele>
        <time>2020-10-24T08:12:05Z</time>
      </trkpt>
      <trkpt lat="46.08515" lon="4.60942">
        <ele>605</ele>
        <time>2020-10-24T08:12:06Z</time>
      </trkpt>
      <trkpt lat="46.08515" lon="4.60942">
        <ele>605</ele>
        <time>2020-10-24T08:12:07Z</time>
      </trkpt>
      <trkpt lat="46.08516" lon="4.60945">
        <ele>605</ele>
        <time>2020-10-24T08:12:08Z</time>
      </trkpt>
      <trkpt lat="46.08516" lon="4.60945">
        <ele>605.2</ele>
        <time>2020-10-24T08:12:09Z</time>
      </trkpt>
      <trkpt lat="46.08518" lon="4.60948">
        <ele>605.2</ele>
        <time>2020-10-24T08:12:10Z</time>
      </trkpt>
      <trkpt lat="46.08518" lon="4.60948">
        <ele>605.2</ele>
        <time>2020-10-24T08:12:11Z</time>
      </trkpt>
      <trkpt lat="46.0852" lon="4.60951">
        <ele>605.4</ele>
        <time>2020-10-24T08:12:12Z</time>
      </trkpt>
      <trkpt lat="46.0852" lon="4.60951">
        <ele>605.8</ele>
        <time>2020-10-24T08:12:13Z</time>
      </trkpt>
      <trkpt lat="46.08522" lon="4.60954">
        <ele>605.8</ele>
        <time>2020-10-24T08:12:14Z</time>
      </trkpt>
      <trkpt lat="46.08522" lon="4.60954">
        <ele>606</ele>
        <time>2020-10-24T08:12:15Z</time>
      </trkpt>
      <trkpt lat="46.08524" lon="4.60957">
        <ele>606.2</ele>
        <time>2020-10-24T08:12:16Z</time>
      </trkpt>
      <trkpt lat="46.08524" lon="4.60957">
        <ele>606.2</ele>
        <time>2020-10-24T08:12:17Z</time>
      </trkpt>
      <trkpt lat="46.08526" lon="4.6096">
        <ele>606.2</ele>
        <time>2020-10-24T08:12:18Z</time>
      </trkpt>
      <trkpt lat="46.08526" lon="4.6096">
        <ele>606.6</ele>
        <time>2020-10-24T08:12:19Z</time>
      </trkpt>
      <trkpt lat="46.08527" lon="4.60963">
        <ele>606.6</ele>
        <time>2020-10-24T08:12:20Z</time>
      </trkpt>
      <trkpt lat="46.08527" lon="4.60963">
        <ele>606.8</ele>
        <time>2020-10-24T08:12:21Z</time>
      </trkpt>
      <trkpt lat="46.08528" lon="4.60967">
        <ele>607</ele>
        <time>2020-10-24T08:12:22Z</time>
      </trkpt>
      <trkpt lat="46.08528" lon="4.60967">
        <ele>607</ele>
        <time>2020-10-24T08:12:23Z</time>
      </trkpt>
      <trkpt lat="46.08529" lon="4.6097">
        <ele>607.4</ele>
        <time>2020-10-24T08:12:24Z</time>
      </trkpt>
      <trkpt lat="46.08529" lon="4.6097">
        <ele>607.6</ele>
        <time>2020-10-24T08:12:25Z</time>
      </trkpt>
      <trkpt lat="46.08531" lon="4.60973">
        <ele>607.8</ele>
        <time>2020-10-24T08:12:26Z</time>
      </trkpt>
      <trkpt lat="46.08531" lon="4.60973">
        <ele>607.8</ele>
        <time>2020-10-24T08:12:27Z</time>
      </trkpt>
      <trkpt lat="46.08533" lon="4.60975">
        <ele>608</ele>
        <time>2020-10-24T08:12:28Z</time>
      </trkpt>
      <trkpt lat="46.08533" lon="4.60975">
        <ele>608.2</ele>
        <time>2020-10-24T08:12:29Z</time>
      </trkpt>
      <trkpt lat="46.08534" lon="4.60978">
        <ele>608.2</ele>
        <time>2020-10-24T08:12:30Z</time>
      </trkpt>
      <trkpt lat="46.08534" lon="4.60978">
        <ele>608.4</ele>
        <time>2020-10-24T08:12:31Z</time>
      </trkpt>
      <trkpt lat="46.08536" lon="4.60981">
        <ele>608.2</ele>
        <time>2020-10-24T08:12:32Z</time>
      </trkpt>
      <trkpt lat="46.08536" lon="4.60981">
        <ele>608.6</ele>
        <time>2020-10-24T08:12:33Z</time>
      </trkpt>
      <trkpt lat="46.08537" lon="4.60983">
        <ele>608.8</ele>
        <time>2020-10-24T08:12:34Z</time>
      </trkpt>
      <trkpt lat="46.08537" lon="4.60983">
        <ele>608.6</ele>
        <time>2020-10-24T08:12:35Z</time>
      </trkpt>
      <trkpt lat="46.08539" lon="4.60987">
        <ele>608.8</ele>
        <time>2020-10-24T08:12:36Z</time>
      </trkpt>
      <trkpt lat="46.08539" lon="4.60987">
        <ele>609</ele>
        <time>2020-10-24T08:12:37Z</time>
      </trkpt>
      <trkpt lat="46.0854" lon="4.6099">
        <ele>609.4</ele>
        <time>2020-10-24T08:12:38Z</time>
      </trkpt>
      <trkpt lat="46.0854" lon="4.6099">
        <ele>609.6</ele>
        <time>2020-10-24T08:12:39Z</time>
      </trkpt>
      <trkpt lat="46.08543" lon="4.60993">
        <ele>609.8</ele>
        <time>2020-10-24T08:12:40Z</time>
      </trkpt>
      <trkpt lat="46.08543" lon="4.60993">
        <ele>610</ele>
        <time>2020-10-24T08:12:41Z</time>
      </trkpt>
      <trkpt lat="46.08544" lon="4.60996">
        <ele>610.4</ele>
        <time>2020-10-24T08:12:42Z</time>
      </trkpt>
      <trkpt lat="46.08544" lon="4.60996">
        <ele>610.6</ele>
        <time>2020-10-24T08:12:43Z</time>
      </trkpt>
      <trkpt lat="46.08546" lon="4.60998">
        <ele>611</ele>
        <time>2020-10-24T08:12:44Z</time>
      </trkpt>
      <trkpt lat="46.08546" lon="4.60998">
        <ele>611.2</ele>
        <time>2020-10-24T08:12:45Z</time>
      </trkpt>
      <trkpt lat="46.08547" lon="4.61001">
        <ele>611.2</ele>
        <time>2020-10-24T08:12:46Z</time>
      </trkpt>
      <trkpt lat="46.08547" lon="4.61001">
        <ele>611.4</ele>
        <time>2020-10-24T08:12:47Z</time>
      </trkpt>
      <trkpt lat="46.08549" lon="4.61003">
        <ele>611.4</ele>
        <time>2020-10-24T08:12:48Z</time>
      </trkpt>
      <trkpt lat="46.08549" lon="4.61003">
        <ele>611.6</ele>
        <time>2020-10-24T08:12:49Z</time>
      </trkpt>
      <trkpt lat="46.0855" lon="4.61006">
        <ele>612</ele>
        <time>2020-10-24T08:12:50Z</time>
      </trkpt>
      <trkpt lat="46.0855" lon="4.61006">
        <ele>612</ele>
        <time>2020-10-24T08:12:51Z</time>
      </trkpt>
      <trkpt lat="46.08552" lon="4.61008">
        <ele>612.2</ele>
        <time>2020-10-24T08:12:52Z</time>
      </trkpt>
      <trkpt lat="46.08552" lon="4.61008">
        <ele>612.6</ele>
        <time>2020-10-24T08:12:53Z</time>
      </trkpt>
      <trkpt lat="46.08554" lon="4.61011">
        <ele>612.8</ele>
        <time>2020-10-24T08:12:54Z</time>
      </trkpt>
      <trkpt lat="46.08554" lon="4.61011">
        <ele>613</ele>
        <time>2020-10-24T08:12:55Z</time>
      </trkpt>
      <trkpt lat="46.08556" lon="4.61012">
        <ele>613</ele>
        <time>2020-10-24T08:12:56Z</time>
      </trkpt>
      <trkpt lat="46.08556" lon="4.61012">
        <ele>613.2</ele>
        <time>2020-10-24T08:12:57Z</time>
      </trkpt>
      <trkpt lat="46.08558" lon="4.61015">
        <ele>613.4</ele>
        <time>2020-10-24T08:12:58Z</time>
      </trkpt>
      <trkpt lat="46.08558" lon="4.61015">
        <ele>613.6</ele>
        <time>2020-10-24T08:12:59Z</time>
      </trkpt>
      <trkpt lat="46.0856" lon="4.61017">
        <ele>613.8</ele>
        <time>2020-10-24T08:13:00Z</time>
      </trkpt>
      <trkpt lat="46.0856" lon="4.61017">
        <ele>614.2</ele>
        <time>2020-10-24T08:13:01Z</time>
      </trkpt>
      <trkpt lat="46.08561" lon="4.6102">
        <ele>614.2</ele>
        <time>2020-10-24T08:13:02Z</time>
      </trkpt>
      <trkpt lat="46.08561" lon="4.6102">
        <ele>614.4</ele>
        <time>2020-10-24T08:13:03Z</time>
      </trkpt>
      <trkpt lat="46.08562" lon="4.61023">
        <ele>614.6</ele>
        <time>2020-10-24T08:13:04Z</time>
      </trkpt>
      <trkpt lat="46.08562" lon="4.61023">
        <ele>614.8</ele>
        <time>2020-10-24T08:13:05Z</time>
      </trkpt>
      <trkpt lat="46.08564" lon="4.61025">
        <ele>615.2</ele>
        <time>2020-10-24T08:13:06Z</time>
      </trkpt>
      <trkpt lat="46.08564" lon="4.61025">
        <ele>615.4</ele>
        <time>2020-10-24T08:13:07Z</time>
      </trkpt>
      <trkpt lat="46.08565" lon="4.61028">
        <ele>615.6</ele>
        <time>2020-10-24T08:13:08Z</time>
      </trkpt>
      <trkpt lat="46.08565" lon="4.61028">
        <ele>615.8</ele>
        <time>2020-10-24T08:13:09Z</time>
      </trkpt>
      <trkpt lat="46.08567" lon="4.61031">
        <ele>616</ele>
        <time>2020-10-24T08:13:10Z</time>
      </trkpt>
      <trkpt lat="46.08567" lon="4.61031">
        <ele>616.2</ele>
        <time>2020-10-24T08:13:11Z</time>
      </trkpt>
      <trkpt lat="46.08569" lon="4.61034">
        <ele>616.2</ele>
        <time>2020-10-24T08:13:12Z</time>
      </trkpt>
      <trkpt lat="46.08569" lon="4.61034">
        <ele>616.4</ele>
        <time>2020-10-24T08:13:13Z</time>
      </trkpt>
      <trkpt lat="46.08571" lon="4.61037">
        <ele>616.4</ele>
        <time>2020-10-24T08:13:14Z</time>
      </trkpt>
      <trkpt lat="46.08571" lon="4.61037">
        <ele>616.6</ele>
        <time>2020-10-24T08:13:15Z</time>
      </trkpt>
      <trkpt lat="46.08573" lon="4.61039">
        <ele>616.8</ele>
        <time>2020-10-24T08:13:16Z</time>
      </trkpt>
      <trkpt lat="46.08573" lon="4.61039">
        <ele>617.2</ele>
        <time>2020-10-24T08:13:17Z</time>
      </trkpt>
      <trkpt lat="46.08574" lon="4.61042">
        <ele>617.2</ele>
        <time>2020-10-24T08:13:18Z</time>
      </trkpt>
      <trkpt lat="46.08574" lon="4.61042">
        <ele>617.2</ele>
        <time>2020-10-24T08:13:19Z</time>
      </trkpt>
      <trkpt lat="46.08576" lon="4.61045">
        <ele>617.4</ele>
        <time>2020-10-24T08:13:20Z</time>
      </trkpt>
      <trkpt lat="46.08576" lon="4.61045">
        <ele>617.6</ele>
        <time>2020-10-24T08:13:21Z</time>
      </trkpt>
      <trkpt lat="46.08577" lon="4.61047">
        <ele>617.4</ele>
        <time>2020-10-24T08:13:22Z</time>
      </trkpt>
      <trkpt lat="46.08577" lon="4.61047">
        <ele>617.8</ele>
        <time>2020-10-24T08:13:23Z</time>
      </trkpt>
      <trkpt lat="46.08578" lon="4.6105">
        <ele>618</ele>
        <time>2020-10-24T08:13:24Z</time>
      </trkpt>
      <trkpt lat="46.08578" lon="4.6105">
        <ele>618.2</ele>
        <time>2020-10-24T08:13:25Z</time>
      </trkpt>
      <trkpt lat="46.08579" lon="4.61053">
        <ele>618.4</ele>
        <time>2020-10-24T08:13:26Z</time>
      </trkpt>
      <trkpt lat="46.08579" lon="4.61053">
        <ele>618.6</ele>
        <time>2020-10-24T08:13:27Z</time>
      </trkpt>
      <trkpt lat="46.0858" lon="4.61056">
        <ele>618.8</ele>
        <time>2020-10-24T08:13:28Z</time>
      </trkpt>
      <trkpt lat="46.0858" lon="4.61056">
        <ele>619.2</ele>
        <time>2020-10-24T08:13:29Z</time>
      </trkpt>
      <trkpt lat="46.08581" lon="4.61059">
        <ele>619.2</ele>
        <time>2020-10-24T08:13:30Z</time>
      </trkpt>
      <trkpt lat="46.08581" lon="4.61059">
        <ele>619.4</ele>
        <time>2020-10-24T08:13:31Z</time>
      </trkpt>
      <trkpt lat="46.08583" lon="4.61061">
        <ele>619.6</ele>
        <time>2020-10-24T08:13:32Z</time>
      </trkpt>
      <trkpt lat="46.08583" lon="4.61061">
        <ele>619.8</ele>
        <time>2020-10-24T08:13:33Z</time>
      </trkpt>
      <trkpt lat="46.08584" lon="4.61064">
        <ele>620.2</ele>
        <time>2020-10-24T08:13:34Z</time>
      </trkpt>
      <trkpt lat="46.08584" lon="4.61064">
        <ele>620.4</ele>
        <time>2020-10-24T08:13:35Z</time>
      </trkpt>
      <trkpt lat="46.08586" lon="4.61066">
        <ele>620.6</ele>
        <time>2020-10-24T08:13:36Z</time>
      </trkpt>
      <trkpt lat="46.08586" lon="4.61066">
        <ele>620.8</ele>
        <time>2020-10-24T08:13:37Z</time>
      </trkpt>
      <trkpt lat="46.08587" lon="4.6107">
        <ele>621</ele>
        <time>2020-10-24T08:13:38Z</time>
      </trkpt>
      <trkpt lat="46.08587" lon="4.6107">
        <ele>621</ele>
        <time>2020-10-24T08:13:39Z</time>
      </trkpt>
      <trkpt lat="46.08589" lon="4.61073">
        <ele>621.2</ele>
        <time>2020-10-24T08:13:40Z</time>
      </trkpt>
      <trkpt lat="46.08589" lon="4.61073">
        <ele>621.4</ele>
        <time>2020-10-24T08:13:41Z</time>
      </trkpt>
      <trkpt lat="46.08591" lon="4.61077">
        <ele>621.6</ele>
        <time>2020-10-24T08:13:42Z</time>
      </trkpt>
      <trkpt lat="46.08591" lon="4.61077">
        <ele>621.8</ele>
        <time>2020-10-24T08:13:43Z</time>
      </trkpt>
      <trkpt lat="46.08591" lon="4.61081">
        <ele>622</ele>
        <time>2020-10-24T08:13:44Z</time>
      </trkpt>
      <trkpt lat="46.08591" lon="4.61081">
        <ele>622.2</ele>
        <time>2020-10-24T08:13:45Z</time>
      </trkpt>
      <trkpt lat="46.08592" lon="4.61085">
        <ele>622.4</ele>
        <time>2020-10-24T08:13:46Z</time>
      </trkpt>
      <trkpt lat="46.08592" lon="4.61085">
        <ele>622.8</ele>
        <time>2020-10-24T08:13:47Z</time>
      </trkpt>
      <trkpt lat="46.08593" lon="4.61089">
        <ele>622.8</ele>
        <time>2020-10-24T08:13:48Z</time>
      </trkpt>
      <trkpt lat="46.08593" lon="4.61089">
        <ele>622.6</ele>
        <time>2020-10-24T08:13:49Z</time>
      </trkpt>
      <trkpt lat="46.08594" lon="4.61093">
        <ele>622.6</ele>
        <time>2020-10-24T08:13:50Z</time>
      </trkpt>
      <trkpt lat="46.08594" lon="4.61093">
        <ele>622.6</ele>
        <time>2020-10-24T08:13:51Z</time>
      </trkpt>
      <trkpt lat="46.08595" lon="4.61096">
        <ele>622.4</ele>
        <time>2020-10-24T08:13:52Z</time>
      </trkpt>
      <trkpt lat="46.08595" lon="4.61096">
        <ele>622.4</ele>
        <time>2020-10-24T08:13:53Z</time>
      </trkpt>
      <trkpt lat="46.08595" lon="4.611">
        <ele>622.6</ele>
        <time>2020-10-24T08:13:54Z</time>
      </trkpt>
      <trkpt lat="46.08595" lon="4.611">
        <ele>622.8</ele>
        <time>2020-10-24T08:13:55Z</time>
      </trkpt>
      <trkpt lat="46.08596" lon="4.61104">
        <ele>622.8</ele>
        <time>2020-10-24T08:13:56Z</time>
      </trkpt>
      <trkpt lat="46.08596" lon="4.61104">
        <ele>623</ele>
        <time>2020-10-24T08:13:57Z</time>
      </trkpt>
      <trkpt lat="46.08597" lon="4.61107">
        <ele>622.8</ele>
        <time>2020-10-24T08:13:58Z</time>
      </trkpt>
      <trkpt lat="46.08597" lon="4.61107">
        <ele>622.8</ele>
        <time>2020-10-24T08:13:59Z</time>
      </trkpt>
      <trkpt lat="46.08598" lon="4.61111">
        <ele>622.8</ele>
        <time>2020-10-24T08:14:00Z</time>
      </trkpt>
      <trkpt lat="46.08598" lon="4.61111">
        <ele>622.6</ele>
        <time>2020-10-24T08:14:01Z</time>
      </trkpt>
      <trkpt lat="46.086" lon="4.61114">
        <ele>622.8</ele>
        <time>2020-10-24T08:14:02Z</time>
      </trkpt>
      <trkpt lat="46.086" lon="4.61114">
        <ele>622.8</ele>
        <time>2020-10-24T08:14:03Z</time>
      </trkpt>
      <trkpt lat="46.086" lon="4.61118">
        <ele>622.8</ele>
        <time>2020-10-24T08:14:04Z</time>
      </trkpt>
      <trkpt lat="46.086" lon="4.61118">
        <ele>623</ele>
        <time>2020-10-24T08:14:05Z</time>
      </trkpt>
      <trkpt lat="46.08601" lon="4.61122">
        <ele>622.8</ele>
        <time>2020-10-24T08:14:06Z</time>
      </trkpt>
      <trkpt lat="46.08602" lon="4.61125">
        <ele>622.8</ele>
        <time>2020-10-24T08:14:07Z</time>
      </trkpt>
      <trkpt lat="46.08603" lon="4.61128">
        <ele>623</ele>
        <time>2020-10-24T08:14:08Z</time>
      </trkpt>
      <trkpt lat="46.08604" lon="4.61131">
        <ele>623.4</ele>
        <time>2020-10-24T08:14:09Z</time>
      </trkpt>
      <trkpt lat="46.08604" lon="4.61133">
        <ele>623.4</ele>
        <time>2020-10-24T08:14:10Z</time>
      </trkpt>
      <trkpt lat="46.08605" lon="4.61136">
        <ele>623.4</ele>
        <time>2020-10-24T08:14:11Z</time>
      </trkpt>
      <trkpt lat="46.08606" lon="4.61139">
        <ele>623.8</ele>
        <time>2020-10-24T08:14:12Z</time>
      </trkpt>
      <trkpt lat="46.08607" lon="4.61143">
        <ele>623.6</ele>
        <time>2020-10-24T08:14:13Z</time>
      </trkpt>
      <trkpt lat="46.08608" lon="4.61146">
        <ele>623.4</ele>
        <time>2020-10-24T08:14:14Z</time>
      </trkpt>
      <trkpt lat="46.08609" lon="4.61148">
        <ele>623.8</ele>
        <time>2020-10-24T08:14:15Z</time>
      </trkpt>
      <trkpt lat="46.0861" lon="4.61151">
        <ele>623.6</ele>
        <time>2020-10-24T08:14:16Z</time>
      </trkpt>
      <trkpt lat="46.08611" lon="4.61154">
        <ele>623.4</ele>
        <time>2020-10-24T08:14:17Z</time>
      </trkpt>
      <trkpt lat="46.08612" lon="4.61157">
        <ele>623.6</ele>
        <time>2020-10-24T08:14:18Z</time>
      </trkpt>
      <trkpt lat="46.08613" lon="4.6116">
        <ele>623.4</ele>
        <time>2020-10-24T08:14:19Z</time>
      </trkpt>
      <trkpt lat="46.08614" lon="4.61163">
        <ele>623.6</ele>
        <time>2020-10-24T08:14:20Z</time>
      </trkpt>
      <trkpt lat="46.08615" lon="4.61166">
        <ele>623.6</ele>
        <time>2020-10-24T08:14:21Z</time>
      </trkpt>
      <trkpt lat="46.08616" lon="4.6117">
        <ele>623.2</ele>
        <time>2020-10-24T08:14:22Z</time>
      </trkpt>
      <trkpt lat="46.08616" lon="4.61173">
        <ele>622.8</ele>
        <time>2020-10-24T08:14:23Z</time>
      </trkpt>
      <trkpt lat="46.08617" lon="4.61177">
        <ele>622.8</ele>
        <time>2020-10-24T08:14:24Z</time>
      </trkpt>
      <trkpt lat="46.08618" lon="4.6118">
        <ele>622.4</ele>
        <time>2020-10-24T08:14:25Z</time>
      </trkpt>
      <trkpt lat="46.08618" lon="4.61183">
        <ele>622.6</ele>
        <time>2020-10-24T08:14:26Z</time>
      </trkpt>
      <trkpt lat="46.08619" lon="4.61186">
        <ele>622.2</ele>
        <time>2020-10-24T08:14:27Z</time>
      </trkpt>
      <trkpt lat="46.08619" lon="4.61189">
        <ele>621.8</ele>
        <time>2020-10-24T08:14:28Z</time>
      </trkpt>
      <trkpt lat="46.0862" lon="4.61193">
        <ele>621.8</ele>
        <time>2020-10-24T08:14:29Z</time>
      </trkpt>
      <trkpt lat="46.0862" lon="4.61196">
        <ele>621.2</ele>
        <time>2020-10-24T08:14:30Z</time>
      </trkpt>
      <trkpt lat="46.08621" lon="4.612">
        <ele>620.8</ele>
        <time>2020-10-24T08:14:31Z</time>
      </trkpt>
      <trkpt lat="46.08621" lon="4.61203">
        <ele>621</ele>
        <time>2020-10-24T08:14:32Z</time>
      </trkpt>
      <trkpt lat="46.08622" lon="4.61206">
        <ele>620.2</ele>
        <time>2020-10-24T08:14:33Z</time>
      </trkpt>
      <trkpt lat="46.08623" lon="4.61209">
        <ele>619.8</ele>
        <time>2020-10-24T08:14:34Z</time>
      </trkpt>
      <trkpt lat="46.08624" lon="4.61213">
        <ele>619.8</ele>
        <time>2020-10-24T08:14:35Z</time>
      </trkpt>
      <trkpt lat="46.08625" lon="4.61216">
        <ele>619.6</ele>
        <time>2020-10-24T08:14:36Z</time>
      </trkpt>
      <trkpt lat="46.08626" lon="4.61219">
        <ele>619.4</ele>
        <time>2020-10-24T08:14:37Z</time>
      </trkpt>
      <trkpt lat="46.08627" lon="4.61222">
        <ele>619.6</ele>
        <time>2020-10-24T08:14:38Z</time>
      </trkpt>
      <trkpt lat="46.08627" lon="4.61225">
        <ele>619.2</ele>
        <time>2020-10-24T08:14:39Z</time>
      </trkpt>
      <trkpt lat="46.08628" lon="4.61228">
        <ele>618.8</ele>
        <time>2020-10-24T08:14:40Z</time>
      </trkpt>
      <trkpt lat="46.08629" lon="4.61231">
        <ele>618.8</ele>
        <time>2020-10-24T08:14:41Z</time>
      </trkpt>
      <trkpt lat="46.0863" lon="4.61235">
        <ele>618.6</ele>
        <time>2020-10-24T08:14:42Z</time>
      </trkpt>
      <trkpt lat="46.08631" lon="4.61238">
        <ele>618.8</ele>
        <time>2020-10-24T08:14:43Z</time>
      </trkpt>
      <trkpt lat="46.08632" lon="4.61241">
        <ele>618.8</ele>
        <time>2020-10-24T08:14:44Z</time>
      </trkpt>
      <trkpt lat="46.08633" lon="4.61245">
        <ele>618.6</ele>
        <time>2020-10-24T08:14:45Z</time>
      </trkpt>
      <trkpt lat="46.08634" lon="4.61248">
        <ele>618.8</ele>
        <time>2020-10-24T08:14:46Z</time>
      </trkpt>
      <trkpt lat="46.08635" lon="4.61252">
        <ele>618.6</ele>
        <time>2020-10-24T08:14:47Z</time>
      </trkpt>
      <trkpt lat="46.08636" lon="4.61256">
        <ele>618.4</ele>
        <time>2020-10-24T08:14:48Z</time>
      </trkpt>
      <trkpt lat="46.08636" lon="4.61259">
        <ele>619</ele>
        <time>2020-10-24T08:14:49Z</time>
      </trkpt>
      <trkpt lat="46.08637" lon="4.61263">
        <ele>618.8</ele>
        <time>2020-10-24T08:14:50Z</time>
      </trkpt>
      <trkpt lat="46.08637" lon="4.61267">
        <ele>619</ele>
        <time>2020-10-24T08:14:51Z</time>
      </trkpt>
      <trkpt lat="46.08638" lon="4.61271">
        <ele>619.2</ele>
        <time>2020-10-24T08:14:52Z</time>
      </trkpt>
      <trkpt lat="46.08639" lon="4.61274">
        <ele>619</ele>
        <time>2020-10-24T08:14:53Z</time>
      </trkpt>
      <trkpt lat="46.0864" lon="4.61277">
        <ele>619.4</ele>
        <time>2020-10-24T08:14:54Z</time>
      </trkpt>
      <trkpt lat="46.08641" lon="4.61281">
        <ele>619.2</ele>
        <time>2020-10-24T08:14:55Z</time>
      </trkpt>
      <trkpt lat="46.08643" lon="4.61284">
        <ele>619</ele>
        <time>2020-10-24T08:14:56Z</time>
      </trkpt>
      <trkpt lat="46.08644" lon="4.61286">
        <ele>619.4</ele>
        <time>2020-10-24T08:14:57Z</time>
      </trkpt>
      <trkpt lat="46.08646" lon="4.61289">
        <ele>619.2</ele>
        <time>2020-10-24T08:14:58Z</time>
      </trkpt>
      <trkpt lat="46.08647" lon="4.61292">
        <ele>619</ele>
        <time>2020-10-24T08:14:59Z</time>
      </trkpt>
      <trkpt lat="46.08649" lon="4.61295">
        <ele>619.2</ele>
        <time>2020-10-24T08:15:00Z</time>
      </trkpt>
      <trkpt lat="46.08651" lon="4.61298">
        <ele>619</ele>
        <time>2020-10-24T08:15:01Z</time>
      </trkpt>
      <trkpt lat="46.08652" lon="4.61301">
        <ele>618.6</ele>
        <time>2020-10-24T08:15:02Z</time>
      </trkpt>
      <trkpt lat="46.08654" lon="4.61303">
        <ele>618.8</ele>
        <time>2020-10-24T08:15:03Z</time>
      </trkpt>
      <trkpt lat="46.08655" lon="4.61306">
        <ele>619</ele>
        <time>2020-10-24T08:15:04Z</time>
      </trkpt>
      <trkpt lat="46.08656" lon="4.6131">
        <ele>619.2</ele>
        <time>2020-10-24T08:15:05Z</time>
      </trkpt>
      <trkpt lat="46.08658" lon="4.61313">
        <ele>619.2</ele>
        <time>2020-10-24T08:15:06Z</time>
      </trkpt>
      <trkpt lat="46.08659" lon="4.61316">
        <ele>619.2</ele>
        <time>2020-10-24T08:15:07Z</time>
      </trkpt>
      <trkpt lat="46.0866" lon="4.61319">
        <ele>619.6</ele>
        <time>2020-10-24T08:15:08Z</time>
      </trkpt>
      <trkpt lat="46.08661" lon="4.61322">
        <ele>619.6</ele>
        <time>2020-10-24T08:15:09Z</time>
      </trkpt>
      <trkpt lat="46.08662" lon="4.61325">
        <ele>619.4</ele>
        <time>2020-10-24T08:15:10Z</time>
      </trkpt>
      <trkpt lat="46.08664" lon="4.61329">
        <ele>619.8</ele>
        <time>2020-10-24T08:15:11Z</time>
      </trkpt>
      <trkpt lat="46.08665" lon="4.61332">
        <ele>619.6</ele>
        <time>2020-10-24T08:15:12Z</time>
      </trkpt>
      <trkpt lat="46.08667" lon="4.61335">
        <ele>619.2</ele>
        <time>2020-10-24T08:15:13Z</time>
      </trkpt>
      <trkpt lat="46.08668" lon="4.61338">
        <ele>619.4</ele>
        <time>2020-10-24T08:15:14Z</time>
      </trkpt>
      <trkpt lat="46.0867" lon="4.61341">
        <ele>619.4</ele>
        <time>2020-10-24T08:15:15Z</time>
      </trkpt>
      <trkpt lat="46.08672" lon="4.61344">
        <ele>619.2</ele>
        <time>2020-10-24T08:15:16Z</time>
      </trkpt>
      <trkpt lat="46.08675" lon="4.61346">
        <ele>619.4</ele>
        <time>2020-10-24T08:15:17Z</time>
      </trkpt>
      <trkpt lat="46.08677" lon="4.61348">
        <ele>619.2</ele>
        <time>2020-10-24T08:15:18Z</time>
      </trkpt>
      <trkpt lat="46.08679" lon="4.6135">
        <ele>619.4</ele>
        <time>2020-10-24T08:15:19Z</time>
      </trkpt>
      <trkpt lat="46.08682" lon="4.61352">
        <ele>619.4</ele>
        <time>2020-10-24T08:15:20Z</time>
      </trkpt>
      <trkpt lat="46.08684" lon="4.61355">
        <ele>619.2</ele>
        <time>2020-10-24T08:15:21Z</time>
      </trkpt>
      <trkpt lat="46.08686" lon="4.61357">
        <ele>619.2</ele>
        <time>2020-10-24T08:15:22Z</time>
      </trkpt>
      <trkpt lat="46.08688" lon="4.61359">
        <ele>618.8</ele>
        <time>2020-10-24T08:15:23Z</time>
      </trkpt>
      <trkpt lat="46.0869" lon="4.61361">
        <ele>618.8</ele>
        <time>2020-10-24T08:15:24Z</time>
      </trkpt>
      <trkpt lat="46.08692" lon="4.61363">
        <ele>619</ele>
        <time>2020-10-24T08:15:25Z</time>
      </trkpt>
      <trkpt lat="46.08694" lon="4.61365">
        <ele>619</ele>
        <time>2020-10-24T08:15:26Z</time>
      </trkpt>
      <trkpt lat="46.08697" lon="4.61368">
        <ele>618.8</ele>
        <time>2020-10-24T08:15:27Z</time>
      </trkpt>
      <trkpt lat="46.08699" lon="4.6137">
        <ele>618.8</ele>
        <time>2020-10-24T08:15:28Z</time>
      </trkpt>
      <trkpt lat="46.08702" lon="4.61371">
        <ele>618.4</ele>
        <time>2020-10-24T08:15:29Z</time>
      </trkpt>
      <trkpt lat="46.08705" lon="4.61372">
        <ele>618</ele>
        <time>2020-10-24T08:15:30Z</time>
      </trkpt>
      <trkpt lat="46.08706" lon="4.61373">
        <ele>618.2</ele>
        <time>2020-10-24T08:15:31Z</time>
      </trkpt>
      <trkpt lat="46.08709" lon="4.61374">
        <ele>618</ele>
        <time>2020-10-24T08:15:32Z</time>
      </trkpt>
      <trkpt lat="46.08711" lon="4.61374">
        <ele>617.8</ele>
        <time>2020-10-24T08:15:33Z</time>
      </trkpt>
      <trkpt lat="46.08712" lon="4.61375">
        <ele>617.8</ele>
        <time>2020-10-24T08:15:34Z</time>
      </trkpt>
      <trkpt lat="46.08715" lon="4.61377">
        <ele>617.4</ele>
        <time>2020-10-24T08:15:35Z</time>
      </trkpt>
      <trkpt lat="46.08716" lon="4.61378">
        <ele>616.8</ele>
        <time>2020-10-24T08:15:36Z</time>
      </trkpt>
      <trkpt lat="46.08718" lon="4.6138">
        <ele>616.8</ele>
        <time>2020-10-24T08:15:37Z</time>
      </trkpt>
      <trkpt lat="46.0872" lon="4.61381">
        <ele>616.4</ele>
        <time>2020-10-24T08:15:38Z</time>
      </trkpt>
      <trkpt lat="46.08722" lon="4.61383">
        <ele>616.2</ele>
        <time>2020-10-24T08:15:39Z</time>
      </trkpt>
      <trkpt lat="46.08725" lon="4.61385">
        <ele>615.6</ele>
        <time>2020-10-24T08:15:40Z</time>
      </trkpt>
      <trkpt lat="46.08727" lon="4.61387">
        <ele>615.2</ele>
        <time>2020-10-24T08:15:41Z</time>
      </trkpt>
      <trkpt lat="46.0873" lon="4.6139">
        <ele>615.2</ele>
        <time>2020-10-24T08:15:42Z</time>
      </trkpt>
      <trkpt lat="46.08732" lon="4.61393">
        <ele>614.4</ele>
        <time>2020-10-24T08:15:43Z</time>
      </trkpt>
      <trkpt lat="46.08734" lon="4.61395">
        <ele>614.2</ele>
        <time>2020-10-24T08:15:44Z</time>
      </trkpt>
      <trkpt lat="46.08736" lon="4.61398">
        <ele>614.4</ele>
        <time>2020-10-24T08:15:45Z</time>
      </trkpt>
      <trkpt lat="46.08738" lon="4.614">
        <ele>613.8</ele>
        <time>2020-10-24T08:15:46Z</time>
      </trkpt>
      <trkpt lat="46.0874" lon="4.61402">
        <ele>613.6</ele>
        <time>2020-10-24T08:15:47Z</time>
      </trkpt>
      <trkpt lat="46.08741" lon="4.61404">
        <ele>613.6</ele>
        <time>2020-10-24T08:15:48Z</time>
      </trkpt>
      <trkpt lat="46.08743" lon="4.61407">
        <ele>613.2</ele>
        <time>2020-10-24T08:15:49Z</time>
      </trkpt>
      <trkpt lat="46.08745" lon="4.61409">
        <ele>613.2</ele>
        <time>2020-10-24T08:15:50Z</time>
      </trkpt>
      <trkpt lat="46.08747" lon="4.61411">
        <ele>612.8</ele>
        <time>2020-10-24T08:15:51Z</time>
      </trkpt>
      <trkpt lat="46.08749" lon="4.61414">
        <ele>612.6</ele>
        <time>2020-10-24T08:15:52Z</time>
      </trkpt>
      <trkpt lat="46.0875" lon="4.61417">
        <ele>612.6</ele>
        <time>2020-10-24T08:15:53Z</time>
      </trkpt>
      <trkpt lat="46.08752" lon="4.61419">
        <ele>612.2</ele>
        <time>2020-10-24T08:15:54Z</time>
      </trkpt>
      <trkpt lat="46.08754" lon="4.61421">
        <ele>612</ele>
        <time>2020-10-24T08:15:55Z</time>
      </trkpt>
      <trkpt lat="46.08756" lon="4.61424">
        <ele>612.2</ele>
        <time>2020-10-24T08:15:56Z</time>
      </trkpt>
      <trkpt lat="46.08758" lon="4.61426">
        <ele>611.8</ele>
        <time>2020-10-24T08:15:57Z</time>
      </trkpt>
      <trkpt lat="46.0876" lon="4.61429">
        <ele>611.4</ele>
        <time>2020-10-24T08:15:58Z</time>
      </trkpt>
      <trkpt lat="46.08762" lon="4.61432">
        <ele>611.6</ele>
        <time>2020-10-24T08:15:59Z</time>
      </trkpt>
      <trkpt lat="46.08764" lon="4.61434">
        <ele>611.4</ele>
        <time>2020-10-24T08:16:00Z</time>
      </trkpt>
      <trkpt lat="46.08765" lon="4.61437">
        <ele>611.8</ele>
        <time>2020-10-24T08:16:01Z</time>
      </trkpt>
      <trkpt lat="46.08767" lon="4.61439">
        <ele>612.4</ele>
        <time>2020-10-24T08:16:02Z</time>
      </trkpt>
      <trkpt lat="46.08769" lon="4.61442">
        <ele>612</ele>
        <time>2020-10-24T08:16:03Z</time>
      </trkpt>
      <trkpt lat="46.0877" lon="4.61444">
        <ele>612.2</ele>
        <time>2020-10-24T08:16:04Z</time>
      </trkpt>
      <trkpt lat="46.08772" lon="4.61446">
        <ele>612</ele>
        <time>2020-10-24T08:16:05Z</time>
      </trkpt>
      <trkpt lat="46.08773" lon="4.61449">
        <ele>611.8</ele>
        <time>2020-10-24T08:16:06Z</time>
      </trkpt>
      <trkpt lat="46.08774" lon="4.61451">
        <ele>612.2</ele>
        <time>2020-10-24T08:16:07Z</time>
      </trkpt>
      <trkpt lat="46.08775" lon="4.61454">
        <ele>612.2</ele>
        <time>2020-10-24T08:16:08Z</time>
      </trkpt>
      <trkpt lat="46.08775" lon="4.61454">
        <ele>612.6</ele>
        <time>2020-10-24T08:16:09Z</time>
      </trkpt>
      <trkpt lat="46.08778" lon="4.6146">
        <ele>613</ele>
        <time>2020-10-24T08:16:10Z</time>
      </trkpt>
      <trkpt lat="46.08778" lon="4.61462">
        <ele>613</ele>
        <time>2020-10-24T08:16:11Z</time>
      </trkpt>
      <trkpt lat="46.0878" lon="4.61464">
        <ele>613.6</ele>
        <time>2020-10-24T08:16:12Z</time>
      </trkpt>
      <trkpt lat="46.08781" lon="4.61467">
        <ele>613.6</ele>
        <time>2020-10-24T08:16:13Z</time>
      </trkpt>
      <trkpt lat="46.08782" lon="4.61471">
        <ele>613.2</ele>
        <time>2020-10-24T08:16:14Z</time>
      </trkpt>
      <trkpt lat="46.08784" lon="4.61473">
        <ele>613.6</ele>
        <time>2020-10-24T08:16:15Z</time>
      </trkpt>
      <trkpt lat="46.08786" lon="4.61476">
        <ele>613.8</ele>
        <time>2020-10-24T08:16:16Z</time>
      </trkpt>
      <trkpt lat="46.08787" lon="4.61479">
        <ele>613.6</ele>
        <time>2020-10-24T08:16:17Z</time>
      </trkpt>
      <trkpt lat="46.08789" lon="4.61481">
        <ele>614</ele>
        <time>2020-10-24T08:16:18Z</time>
      </trkpt>
      <trkpt lat="46.0879" lon="4.61483">
        <ele>613.8</ele>
        <time>2020-10-24T08:16:19Z</time>
      </trkpt>
      <trkpt lat="46.08792" lon="4.61485">
        <ele>614.2</ele>
        <time>2020-10-24T08:16:20Z</time>
      </trkpt>
      <trkpt lat="46.08794" lon="4.61487">
        <ele>614</ele>
        <time>2020-10-24T08:16:21Z</time>
      </trkpt>
      <trkpt lat="46.08796" lon="4.6149">
        <ele>614</ele>
        <time>2020-10-24T08:16:22Z</time>
      </trkpt>
      <trkpt lat="46.08796" lon="4.6149">
        <ele>614.4</ele>
        <time>2020-10-24T08:16:23Z</time>
      </trkpt>
      <trkpt lat="46.08799" lon="4.61493">
        <ele>614.4</ele>
        <time>2020-10-24T08:16:24Z</time>
      </trkpt>
      <trkpt lat="46.08801" lon="4.61494">
        <ele>614.6</ele>
        <time>2020-10-24T08:16:25Z</time>
      </trkpt>
      <trkpt lat="46.08803" lon="4.61497">
        <ele>615</ele>
        <time>2020-10-24T08:16:26Z</time>
      </trkpt>
      <trkpt lat="46.08805" lon="4.61499">
        <ele>615</ele>
        <time>2020-10-24T08:16:27Z</time>
      </trkpt>
      <trkpt lat="46.08807" lon="4.61501">
        <ele>615.6</ele>
        <time>2020-10-24T08:16:28Z</time>
      </trkpt>
      <trkpt lat="46.08809" lon="4.61504">
        <ele>615.4</ele>
        <time>2020-10-24T08:16:29Z</time>
      </trkpt>
      <trkpt lat="46.08811" lon="4.61506">
        <ele>615.2</ele>
        <time>2020-10-24T08:16:30Z</time>
      </trkpt>
      <trkpt lat="46.08813" lon="4.61508">
        <ele>615.4</ele>
        <time>2020-10-24T08:16:31Z</time>
      </trkpt>
      <trkpt lat="46.08815" lon="4.6151">
        <ele>615.4</ele>
        <time>2020-10-24T08:16:32Z</time>
      </trkpt>
      <trkpt lat="46.08816" lon="4.61512">
        <ele>615</ele>
        <time>2020-10-24T08:16:33Z</time>
      </trkpt>
      <trkpt lat="46.08818" lon="4.61514">
        <ele>615</ele>
        <time>2020-10-24T08:16:34Z</time>
      </trkpt>
      <trkpt lat="46.0882" lon="4.61516">
        <ele>614.4</ele>
        <time>2020-10-24T08:16:35Z</time>
      </trkpt>
      <trkpt lat="46.08822" lon="4.61518">
        <ele>614.2</ele>
        <time>2020-10-24T08:16:36Z</time>
      </trkpt>
      <trkpt lat="46.08824" lon="4.61521">
        <ele>614.4</ele>
        <time>2020-10-24T08:16:37Z</time>
      </trkpt>
      <trkpt lat="46.08826" lon="4.61523">
        <ele>614.2</ele>
        <time>2020-10-24T08:16:38Z</time>
      </trkpt>
      <trkpt lat="46.08828" lon="4.61526">
        <ele>614</ele>
        <time>2020-10-24T08:16:39Z</time>
      </trkpt>
      <trkpt lat="46.0883" lon="4.61528">
        <ele>614.4</ele>
        <time>2020-10-24T08:16:40Z</time>
      </trkpt>
      <trkpt lat="46.08831" lon="4.61531">
        <ele>614.2</ele>
        <time>2020-10-24T08:16:41Z</time>
      </trkpt>
      <trkpt lat="46.08833" lon="4.61534">
        <ele>614</ele>
        <time>2020-10-24T08:16:42Z</time>
      </trkpt>
      <trkpt lat="46.08835" lon="4.61536">
        <ele>614.2</ele>
        <time>2020-10-24T08:16:43Z</time>
      </trkpt>
      <trkpt lat="46.08837" lon="4.61539">
        <ele>614.2</ele>
        <time>2020-10-24T08:16:44Z</time>
      </trkpt>
      <trkpt lat="46.08839" lon="4.61542">
        <ele>614</ele>
        <time>2020-10-24T08:16:45Z</time>
      </trkpt>
      <trkpt lat="46.08841" lon="4.61544">
        <ele>614.2</ele>
        <time>2020-10-24T08:16:46Z</time>
      </trkpt>
      <trkpt lat="46.08843" lon="4.61547">
        <ele>614</ele>
        <time>2020-10-24T08:16:47Z</time>
      </trkpt>
      <trkpt lat="46.08845" lon="4.61549">
        <ele>613.6</ele>
        <time>2020-10-24T08:16:48Z</time>
      </trkpt>
      <trkpt lat="46.08847" lon="4.61551">
        <ele>614</ele>
        <time>2020-10-24T08:16:49Z</time>
      </trkpt>
      <trkpt lat="46.08849" lon="4.61553">
        <ele>614</ele>
        <time>2020-10-24T08:16:50Z</time>
      </trkpt>
      <trkpt lat="46.0885" lon="4.61555">
        <ele>613.8</ele>
        <time>2020-10-24T08:16:51Z</time>
      </trkpt>
      <trkpt lat="46.08852" lon="4.61558">
        <ele>614</ele>
        <time>2020-10-24T08:16:52Z</time>
      </trkpt>
      <trkpt lat="46.08854" lon="4.6156">
        <ele>613.8</ele>
        <time>2020-10-24T08:16:53Z</time>
      </trkpt>
      <trkpt lat="46.08856" lon="4.61562">
        <ele>613.6</ele>
        <time>2020-10-24T08:16:54Z</time>
      </trkpt>
      <trkpt lat="46.08858" lon="4.61564">
        <ele>613.8</ele>
        <time>2020-10-24T08:16:55Z</time>
      </trkpt>
      <trkpt lat="46.0886" lon="4.61567">
        <ele>613.4</ele>
        <time>2020-10-24T08:16:56Z</time>
      </trkpt>
      <trkpt lat="46.08862" lon="4.61569">
        <ele>613.2</ele>
        <time>2020-10-24T08:16:57Z</time>
      </trkpt>
      <trkpt lat="46.08864" lon="4.61571">
        <ele>613.6</ele>
        <time>2020-10-24T08:16:58Z</time>
      </trkpt>
      <trkpt lat="46.08866" lon="4.61574">
        <ele>613.2</ele>
        <time>2020-10-24T08:16:59Z</time>
      </trkpt>
      <trkpt lat="46.08868" lon="4.61577">
        <ele>613</ele>
        <time>2020-10-24T08:17:00Z</time>
      </trkpt>
      <trkpt lat="46.0887" lon="4.61579">
        <ele>613.2</ele>
        <time>2020-10-24T08:17:01Z</time>
      </trkpt>
      <trkpt lat="46.08872" lon="4.61582">
        <ele>613</ele>
        <time>2020-10-24T08:17:02Z</time>
      </trkpt>
      <trkpt lat="46.08874" lon="4.61584">
        <ele>612.8</ele>
        <time>2020-10-24T08:17:03Z</time>
      </trkpt>
      <trkpt lat="46.08877" lon="4.61586">
        <ele>613.2</ele>
        <time>2020-10-24T08:17:04Z</time>
      </trkpt>
      <trkpt lat="46.08879" lon="4.61588">
        <ele>612.8</ele>
        <time>2020-10-24T08:17:05Z</time>
      </trkpt>
      <trkpt lat="46.08881" lon="4.6159">
        <ele>613</ele>
        <time>2020-10-24T08:17:06Z</time>
      </trkpt>
      <trkpt lat="46.08882" lon="4.61591">
        <ele>613</ele>
        <time>2020-10-24T08:17:07Z</time>
      </trkpt>
      <trkpt lat="46.08884" lon="4.61593">
        <ele>612.8</ele>
        <time>2020-10-24T08:17:08Z</time>
      </trkpt>
      <trkpt lat="46.08886" lon="4.61596">
        <ele>612.8</ele>
        <time>2020-10-24T08:17:09Z</time>
      </trkpt>
      <trkpt lat="46.08887" lon="4.61598">
        <ele>612.8</ele>
        <time>2020-10-24T08:17:10Z</time>
      </trkpt>
      <trkpt lat="46.08889" lon="4.61601">
        <ele>612.6</ele>
        <time>2020-10-24T08:17:11Z</time>
      </trkpt>
      <trkpt lat="46.08891" lon="4.61603">
        <ele>612</ele>
        <time>2020-10-24T08:17:12Z</time>
      </trkpt>
      <trkpt lat="46.08893" lon="4.61606">
        <ele>612.4</ele>
        <time>2020-10-24T08:17:13Z</time>
      </trkpt>
      <trkpt lat="46.08895" lon="4.61609">
        <ele>612</ele>
        <time>2020-10-24T08:17:14Z</time>
      </trkpt>
      <trkpt lat="46.08898" lon="4.61612">
        <ele>612.2</ele>
        <time>2020-10-24T08:17:15Z</time>
      </trkpt>
      <trkpt lat="46.08899" lon="4.61614">
        <ele>612.2</ele>
        <time>2020-10-24T08:17:16Z</time>
      </trkpt>
      <trkpt lat="46.08901" lon="4.61616">
        <ele>611.8</ele>
        <time>2020-10-24T08:17:17Z</time>
      </trkpt>
      <trkpt lat="46.08903" lon="4.61618">
        <ele>611.8</ele>
        <time>2020-10-24T08:17:18Z</time>
      </trkpt>
      <trkpt lat="46.08905" lon="4.6162">
        <ele>611.6</ele>
        <time>2020-10-24T08:17:19Z</time>
      </trkpt>
      <trkpt lat="46.08906" lon="4.61621">
        <ele>611.6</ele>
        <time>2020-10-24T08:17:20Z</time>
      </trkpt>
      <trkpt lat="46.08908" lon="4.61623">
        <ele>611.8</ele>
        <time>2020-10-24T08:17:21Z</time>
      </trkpt>
      <trkpt lat="46.0891" lon="4.61624">
        <ele>611.8</ele>
        <time>2020-10-24T08:17:22Z</time>
      </trkpt>
      <trkpt lat="46.08912" lon="4.61626">
        <ele>611.6</ele>
        <time>2020-10-24T08:17:23Z</time>
      </trkpt>
      <trkpt lat="46.08914" lon="4.61628">
        <ele>612.2</ele>
        <time>2020-10-24T08:17:24Z</time>
      </trkpt>
      <trkpt lat="46.08916" lon="4.61629">
        <ele>612.2</ele>
        <time>2020-10-24T08:17:25Z</time>
      </trkpt>
      <trkpt lat="46.08918" lon="4.61631">
        <ele>612.4</ele>
        <time>2020-10-24T08:17:26Z</time>
      </trkpt>
      <trkpt lat="46.08919" lon="4.61632">
        <ele>612.4</ele>
        <time>2020-10-24T08:17:27Z</time>
      </trkpt>
      <trkpt lat="46.08921" lon="4.61634">
        <ele>612.6</ele>
        <time>2020-10-24T08:17:28Z</time>
      </trkpt>
      <trkpt lat="46.08922" lon="4.61636">
        <ele>612.8</ele>
        <time>2020-10-24T08:17:29Z</time>
      </trkpt>
      <trkpt lat="46.08922" lon="4.61636">
        <ele>612.8</ele>
        <time>2020-10-24T08:17:30Z</time>
      </trkpt>
      <trkpt lat="46.08926" lon="4.61639">
        <ele>612.8</ele>
        <time>2020-10-24T08:17:31Z</time>
      </trkpt>
      <trkpt lat="46.08928" lon="4.61641">
        <ele>613.2</ele>
        <time>2020-10-24T08:17:32Z</time>
      </trkpt>
      <trkpt lat="46.0893" lon="4.61642">
        <ele>613.4</ele>
        <time>2020-10-24T08:17:33Z</time>
      </trkpt>
      <trkpt lat="46.08932" lon="4.61643">
        <ele>613.4</ele>
        <time>2020-10-24T08:17:34Z</time>
      </trkpt>
      <trkpt lat="46.08935" lon="4.61645">
        <ele>613.6</ele>
        <time>2020-10-24T08:17:35Z</time>
      </trkpt>
      <trkpt lat="46.08937" lon="4.61646">
        <ele>613.6</ele>
        <time>2020-10-24T08:17:36Z</time>
      </trkpt>
      <trkpt lat="46.08939" lon="4.61647">
        <ele>613.4</ele>
        <time>2020-10-24T08:17:37Z</time>
      </trkpt>
      <trkpt lat="46.08941" lon="4.61648">
        <ele>613.8</ele>
        <time>2020-10-24T08:17:38Z</time>
      </trkpt>
      <trkpt lat="46.08943" lon="4.61649">
        <ele>613.6</ele>
        <time>2020-10-24T08:17:39Z</time>
      </trkpt>
      <trkpt lat="46.08945" lon="4.6165">
        <ele>613.6</ele>
        <time>2020-10-24T08:17:40Z</time>
      </trkpt>
      <trkpt lat="46.08947" lon="4.61652">
        <ele>613.8</ele>
        <time>2020-10-24T08:17:41Z</time>
      </trkpt>
      <trkpt lat="46.0895" lon="4.61653">
        <ele>613.6</ele>
        <time>2020-10-24T08:17:42Z</time>
      </trkpt>
      <trkpt lat="46.08952" lon="4.61654">
        <ele>613.8</ele>
        <time>2020-10-24T08:17:43Z</time>
      </trkpt>
      <trkpt lat="46.08954" lon="4.61655">
        <ele>613.8</ele>
        <time>2020-10-24T08:17:44Z</time>
      </trkpt>
      <trkpt lat="46.08956" lon="4.61655">
        <ele>613.8</ele>
        <time>2020-10-24T08:17:45Z</time>
      </trkpt>
      <trkpt lat="46.08958" lon="4.61656">
        <ele>614.2</ele>
        <time>2020-10-24T08:17:46Z</time>
      </trkpt>
      <trkpt lat="46.0896" lon="4.61657">
        <ele>614</ele>
        <time>2020-10-24T08:17:47Z</time>
      </trkpt>
      <trkpt lat="46.0896" lon="4.61657">
        <ele>613.8</ele>
        <time>2020-10-24T08:17:48Z</time>
      </trkpt>
      <trkpt lat="46.08963" lon="4.61658">
        <ele>614.4</ele>
        <time>2020-10-24T08:17:49Z</time>
      </trkpt>
      <trkpt lat="46.08966" lon="4.61658">
        <ele>614.4</ele>
        <time>2020-10-24T08:17:50Z</time>
      </trkpt>
      <trkpt lat="46.08968" lon="4.61657">
        <ele>614.6</ele>
        <time>2020-10-24T08:17:51Z</time>
      </trkpt>
      <trkpt lat="46.0897" lon="4.61656">
        <ele>615</ele>
        <time>2020-10-24T08:17:52Z</time>
      </trkpt>
      <trkpt lat="46.08972" lon="4.61656">
        <ele>615</ele>
        <time>2020-10-24T08:17:53Z</time>
      </trkpt>
      <trkpt lat="46.08974" lon="4.61655">
        <ele>615.2</ele>
        <time>2020-10-24T08:17:54Z</time>
      </trkpt>
      <trkpt lat="46.08976" lon="4.61655">
        <ele>615.4</ele>
        <time>2020-10-24T08:17:55Z</time>
      </trkpt>
      <trkpt lat="46.08978" lon="4.61654">
        <ele>615.2</ele>
        <time>2020-10-24T08:17:56Z</time>
      </trkpt>
      <trkpt lat="46.0898" lon="4.61654">
        <ele>615</ele>
        <time>2020-10-24T08:17:57Z</time>
      </trkpt>
      <trkpt lat="46.08983" lon="4.61654">
        <ele>615.2</ele>
        <time>2020-10-24T08:17:58Z</time>
      </trkpt>
      <trkpt lat="46.08985" lon="4.61654">
        <ele>615</ele>
        <time>2020-10-24T08:17:59Z</time>
      </trkpt>
      <trkpt lat="46.08988" lon="4.61654">
        <ele>614.8</ele>
        <time>2020-10-24T08:18:00Z</time>
      </trkpt>
      <trkpt lat="46.08989" lon="4.61653">
        <ele>615</ele>
        <time>2020-10-24T08:18:01Z</time>
      </trkpt>
      <trkpt lat="46.08991" lon="4.61653">
        <ele>614.4</ele>
        <time>2020-10-24T08:18:02Z</time>
      </trkpt>
      <trkpt lat="46.08994" lon="4.61652">
        <ele>614.2</ele>
        <time>2020-10-24T08:18:03Z</time>
      </trkpt>
      <trkpt lat="46.08997" lon="4.61652">
        <ele>614.2</ele>
        <time>2020-10-24T08:18:04Z</time>
      </trkpt>
      <trkpt lat="46.08999" lon="4.61652">
        <ele>613.8</ele>
        <time>2020-10-24T08:18:05Z</time>
      </trkpt>
      <trkpt lat="46.09001" lon="4.61651">
        <ele>613.6</ele>
        <time>2020-10-24T08:18:06Z</time>
      </trkpt>
      <trkpt lat="46.09003" lon="4.6165">
        <ele>613.2</ele>
        <time>2020-10-24T08:18:07Z</time>
      </trkpt>
      <trkpt lat="46.09005" lon="4.6165">
        <ele>612.6</ele>
        <time>2020-10-24T08:18:08Z</time>
      </trkpt>
      <trkpt lat="46.09008" lon="4.6165">
        <ele>612.6</ele>
        <time>2020-10-24T08:18:09Z</time>
      </trkpt>
      <trkpt lat="46.09011" lon="4.6165">
        <ele>612.2</ele>
        <time>2020-10-24T08:18:10Z</time>
      </trkpt>
      <trkpt lat="46.09013" lon="4.6165">
        <ele>611.8</ele>
        <time>2020-10-24T08:18:11Z</time>
      </trkpt>
      <trkpt lat="46.09015" lon="4.6165">
        <ele>611.6</ele>
        <time>2020-10-24T08:18:12Z</time>
      </trkpt>
      <trkpt lat="46.09018" lon="4.61649">
        <ele>610.8</ele>
        <time>2020-10-24T08:18:13Z</time>
      </trkpt>
      <trkpt lat="46.0902" lon="4.61649">
        <ele>610.4</ele>
        <time>2020-10-24T08:18:14Z</time>
      </trkpt>
      <trkpt lat="46.09022" lon="4.6165">
        <ele>609.8</ele>
        <time>2020-10-24T08:18:15Z</time>
      </trkpt>
      <trkpt lat="46.09024" lon="4.6165">
        <ele>609.2</ele>
        <time>2020-10-24T08:18:16Z</time>
      </trkpt>
      <trkpt lat="46.09026" lon="4.6165">
        <ele>608.4</ele>
        <time>2020-10-24T08:18:17Z</time>
      </trkpt>
      <trkpt lat="46.09029" lon="4.6165">
        <ele>608</ele>
        <time>2020-10-24T08:18:18Z</time>
      </trkpt>
      <trkpt lat="46.09031" lon="4.6165">
        <ele>607.8</ele>
        <time>2020-10-24T08:18:19Z</time>
      </trkpt>
      <trkpt lat="46.09033" lon="4.61651">
        <ele>607.2</ele>
        <time>2020-10-24T08:18:20Z</time>
      </trkpt>
      <trkpt lat="46.09035" lon="4.61652">
        <ele>606.8</ele>
        <time>2020-10-24T08:18:21Z</time>
      </trkpt>
      <trkpt lat="46.09038" lon="4.61653">
        <ele>606.4</ele>
        <time>2020-10-24T08:18:22Z</time>
      </trkpt>
      <trkpt lat="46.0904" lon="4.61654">
        <ele>605.8</ele>
        <time>2020-10-24T08:18:23Z</time>
      </trkpt>
      <trkpt lat="46.0904" lon="4.61654">
        <ele>605.6</ele>
        <time>2020-10-24T08:18:24Z</time>
      </trkpt>
      <trkpt lat="46.09044" lon="4.61656">
        <ele>605.4</ele>
        <time>2020-10-24T08:18:25Z</time>
      </trkpt>
      <trkpt lat="46.09045" lon="4.61657">
        <ele>604.8</ele>
        <time>2020-10-24T08:18:26Z</time>
      </trkpt>
      <trkpt lat="46.09048" lon="4.61659">
        <ele>604.8</ele>
        <time>2020-10-24T08:18:27Z</time>
      </trkpt>
      <trkpt lat="46.0905" lon="4.6166">
        <ele>604.4</ele>
        <time>2020-10-24T08:18:28Z</time>
      </trkpt>
      <trkpt lat="46.09052" lon="4.61661">
        <ele>603.8</ele>
        <time>2020-10-24T08:18:29Z</time>
      </trkpt>
      <trkpt lat="46.09052" lon="4.61661">
        <ele>603.8</ele>
        <time>2020-10-24T08:18:30Z</time>
      </trkpt>
      <trkpt lat="46.09055" lon="4.61662">
        <ele>603.6</ele>
        <time>2020-10-24T08:18:31Z</time>
      </trkpt>
      <trkpt lat="46.09055" lon="4.61662">
        <ele>603.4</ele>
        <time>2020-10-24T08:18:32Z</time>
      </trkpt>
      <trkpt lat="46.09057" lon="4.61661">
        <ele>603.4</ele>
        <time>2020-10-24T08:18:33Z</time>
      </trkpt>
      <trkpt lat="46.09057" lon="4.61661">
        <ele>603.2</ele>
        <time>2020-10-24T08:18:34Z</time>
      </trkpt>
      <trkpt lat="46.0906" lon="4.61661">
        <ele>603.2</ele>
        <time>2020-10-24T08:18:35Z</time>
      </trkpt>
      <trkpt lat="46.0906" lon="4.61661">
        <ele>603</ele>
        <time>2020-10-24T08:18:36Z</time>
      </trkpt>
      <trkpt lat="46.0906" lon="4.61661">
        <ele>603</ele>
        <time>2020-10-24T08:18:37Z</time>
      </trkpt>
      <trkpt lat="46.0906" lon="4.61661">
        <ele>603</ele>
        <time>2020-10-24T08:18:38Z</time>
      </trkpt>
      <trkpt lat="46.09062" lon="4.6166">
        <ele>603</ele>
        <time>2020-10-24T08:18:39Z</time>
      </trkpt>
      <trkpt lat="46.09062" lon="4.6166">
        <ele>603.2</ele>
        <time>2020-10-24T08:18:40Z</time>
      </trkpt>
      <trkpt lat="46.09064" lon="4.61658">
        <ele>603.2</ele>
        <time>2020-10-24T08:18:41Z</time>
      </trkpt>
      <trkpt lat="46.09064" lon="4.61658">
        <ele>603.6</ele>
        <time>2020-10-24T08:18:42Z</time>
      </trkpt>
      <trkpt lat="46.09066" lon="4.61657">
        <ele>603.8</ele>
        <time>2020-10-24T08:18:43Z</time>
      </trkpt>
      <trkpt lat="46.09066" lon="4.61657">
        <ele>604</ele>
        <time>2020-10-24T08:18:44Z</time>
      </trkpt>
      <trkpt lat="46.09069" lon="4.61655">
        <ele>604</ele>
        <time>2020-10-24T08:18:45Z</time>
      </trkpt>
      <trkpt lat="46.09069" lon="4.61655">
        <ele>604</ele>
        <time>2020-10-24T08:18:46Z</time>
      </trkpt>
      <trkpt lat="46.09072" lon="4.61653">
        <ele>604</ele>
        <time>2020-10-24T08:18:47Z</time>
      </trkpt>
      <trkpt lat="46.09072" lon="4.61653">
        <ele>604.2</ele>
        <time>2020-10-24T08:18:48Z</time>
      </trkpt>
      <trkpt lat="46.09075" lon="4.61652">
        <ele>604.6</ele>
        <time>2020-10-24T08:18:49Z</time>
      </trkpt>
      <trkpt lat="46.09075" lon="4.61652">
        <ele>604.6</ele>
        <time>2020-10-24T08:18:50Z</time>
      </trkpt>
      <trkpt lat="46.09078" lon="4.61651">
        <ele>604.8</ele>
        <time>2020-10-24T08:18:51Z</time>
      </trkpt>
      <trkpt lat="46.09078" lon="4.61651">
        <ele>605</ele>
        <time>2020-10-24T08:18:52Z</time>
      </trkpt>
      <trkpt lat="46.09081" lon="4.6165">
        <ele>605.2</ele>
        <time>2020-10-24T08:18:53Z</time>
      </trkpt>
      <trkpt lat="46.09081" lon="4.6165">
        <ele>605.4</ele>
        <time>2020-10-24T08:18:54Z</time>
      </trkpt>
      <trkpt lat="46.09084" lon="4.61651">
        <ele>605.4</ele>
        <time>2020-10-24T08:18:55Z</time>
      </trkpt>
      <trkpt lat="46.09084" lon="4.61651">
        <ele>605.4</ele>
        <time>2020-10-24T08:18:56Z</time>
      </trkpt>
      <trkpt lat="46.09086" lon="4.6165">
        <ele>605.2</ele>
        <time>2020-10-24T08:18:57Z</time>
      </trkpt>
      <trkpt lat="46.09086" lon="4.6165">
        <ele>605.2</ele>
        <time>2020-10-24T08:18:58Z</time>
      </trkpt>
      <trkpt lat="46.09089" lon="4.61649">
        <ele>605.4</ele>
        <time>2020-10-24T08:18:59Z</time>
      </trkpt>
      <trkpt lat="46.09089" lon="4.61649">
        <ele>605.8</ele>
        <time>2020-10-24T08:19:00Z</time>
      </trkpt>
      <trkpt lat="46.09092" lon="4.61649">
        <ele>606</ele>
        <time>2020-10-24T08:19:01Z</time>
      </trkpt>
      <trkpt lat="46.09092" lon="4.61649">
        <ele>606</ele>
        <time>2020-10-24T08:19:02Z</time>
      </trkpt>
      <trkpt lat="46.09092" lon="4.61649">
        <ele>606.6</ele>
        <time>2020-10-24T08:19:03Z</time>
      </trkpt>
      <trkpt lat="46.09092" lon="4.61649">
        <ele>607</ele>
        <time>2020-10-24T08:19:04Z</time>
      </trkpt>
      <trkpt lat="46.09092" lon="4.61649">
        <ele>607</ele>
        <time>2020-10-24T08:19:05Z</time>
      </trkpt>
      <trkpt lat="46.09095" lon="4.61648">
        <ele>607.2</ele>
        <time>2020-10-24T08:19:06Z</time>
      </trkpt>
      <trkpt lat="46.09095" lon="4.61648">
        <ele>607.2</ele>
        <time>2020-10-24T08:19:07Z</time>
      </trkpt>
      <trkpt lat="46.09098" lon="4.61647">
        <ele>607.2</ele>
        <time>2020-10-24T08:19:08Z</time>
      </trkpt>
      <trkpt lat="46.09098" lon="4.61647">
        <ele>607.4</ele>
        <time>2020-10-24T08:19:09Z</time>
      </trkpt>
      <trkpt lat="46.091" lon="4.61646">
        <ele>607.4</ele>
        <time>2020-10-24T08:19:10Z</time>
      </trkpt>
      <trkpt lat="46.091" lon="4.61646">
        <ele>607.8</ele>
        <time>2020-10-24T08:19:11Z</time>
      </trkpt>
      <trkpt lat="46.09102" lon="4.61645">
        <ele>607.8</ele>
        <time>2020-10-24T08:19:12Z</time>
      </trkpt>
      <trkpt lat="46.09102" lon="4.61645">
        <ele>608</ele>
        <time>2020-10-24T08:19:13Z</time>
      </trkpt>
      <trkpt lat="46.09105" lon="4.61644">
        <ele>608.6</ele>
        <time>2020-10-24T08:19:14Z</time>
      </trkpt>
      <trkpt lat="46.09105" lon="4.61644">
        <ele>609</ele>
        <time>2020-10-24T08:19:15Z</time>
      </trkpt>
      <trkpt lat="46.09105" lon="4.61644">
        <ele>609.2</ele>
        <time>2020-10-24T08:19:16Z</time>
      </trkpt>
      <trkpt lat="46.09107" lon="4.61642">
        <ele>609.2</ele>
        <time>2020-10-24T08:19:17Z</time>
      </trkpt>
      <trkpt lat="46.09107" lon="4.61642">
        <ele>609.4</ele>
        <time>2020-10-24T08:19:18Z</time>
      </trkpt>
      <trkpt lat="46.09109" lon="4.61639">
        <ele>609.4</ele>
        <time>2020-10-24T08:19:19Z</time>
      </trkpt>
      <trkpt lat="46.09109" lon="4.61639">
        <ele>609.4</ele>
        <time>2020-10-24T08:19:20Z</time>
      </trkpt>
      <trkpt lat="46.09111" lon="4.61637">
        <ele>609.8</ele>
        <time>2020-10-24T08:19:21Z</time>
      </trkpt>
      <trkpt lat="46.09111" lon="4.61637">
        <ele>610</ele>
        <time>2020-10-24T08:19:22Z</time>
      </trkpt>
      <trkpt lat="46.09113" lon="4.61634">
        <ele>610.4</ele>
        <time>2020-10-24T08:19:23Z</time>
      </trkpt>
      <trkpt lat="46.09113" lon="4.61634">
        <ele>610.6</ele>
        <time>2020-10-24T08:19:24Z</time>
      </trkpt>
      <trkpt lat="46.09116" lon="4.61632">
        <ele>610.6</ele>
        <time>2020-10-24T08:19:25Z</time>
      </trkpt>
      <trkpt lat="46.09116" lon="4.61632">
        <ele>611</ele>
        <time>2020-10-24T08:19:26Z</time>
      </trkpt>
      <trkpt lat="46.09118" lon="4.61631">
        <ele>611.2</ele>
        <time>2020-10-24T08:19:27Z</time>
      </trkpt>
      <trkpt lat="46.09118" lon="4.61631">
        <ele>611.4</ele>
        <time>2020-10-24T08:19:28Z</time>
      </trkpt>
      <trkpt lat="46.09119" lon="4.61629">
        <ele>611.8</ele>
        <time>2020-10-24T08:19:29Z</time>
      </trkpt>
      <trkpt lat="46.09119" lon="4.61629">
        <ele>611.8</ele>
        <time>2020-10-24T08:19:30Z</time>
      </trkpt>
      <trkpt lat="46.09122" lon="4.61628">
        <ele>612.2</ele>
        <time>2020-10-24T08:19:31Z</time>
      </trkpt>
      <trkpt lat="46.09122" lon="4.61628">
        <ele>612.4</ele>
        <time>2020-10-24T08:19:32Z</time>
      </trkpt>
      <trkpt lat="46.09122" lon="4.61628">
        <ele>612.6</ele>
        <time>2020-10-24T08:19:33Z</time>
      </trkpt>
      <trkpt lat="46.09124" lon="4.61625">
        <ele>612.8</ele>
        <time>2020-10-24T08:19:34Z</time>
      </trkpt>
      <trkpt lat="46.09124" lon="4.61625">
        <ele>613.2</ele>
        <time>2020-10-24T08:19:35Z</time>
      </trkpt>
      <trkpt lat="46.09126" lon="4.61624">
        <ele>613.2</ele>
        <time>2020-10-24T08:19:36Z</time>
      </trkpt>
      <trkpt lat="46.09126" lon="4.61624">
        <ele>613.6</ele>
        <time>2020-10-24T08:19:37Z</time>
      </trkpt>
      <trkpt lat="46.09126" lon="4.61624">
        <ele>613.8</ele>
        <time>2020-10-24T08:19:38Z</time>
      </trkpt>
      <trkpt lat="46.09128" lon="4.61623">
        <ele>613.8</ele>
        <time>2020-10-24T08:19:39Z</time>
      </trkpt>
      <trkpt lat="46.09128" lon="4.61623">
        <ele>614.2</ele>
        <time>2020-10-24T08:19:40Z</time>
      </trkpt>
      <trkpt lat="46.0913" lon="4.61622">
        <ele>614.2</ele>
        <time>2020-10-24T08:19:41Z</time>
      </trkpt>
      <trkpt lat="46.0913" lon="4.61622">
        <ele>614.2</ele>
        <time>2020-10-24T08:19:42Z</time>
      </trkpt>
      <trkpt lat="46.09132" lon="4.61621">
        <ele>614.4</ele>
        <time>2020-10-24T08:19:43Z</time>
      </trkpt>
      <trkpt lat="46.09132" lon="4.61621">
        <ele>614.8</ele>
        <time>2020-10-24T08:19:44Z</time>
      </trkpt>
      <trkpt lat="46.09135" lon="4.61619">
        <ele>615.2</ele>
        <time>2020-10-24T08:19:45Z</time>
      </trkpt>
      <trkpt lat="46.09135" lon="4.61619">
        <ele>615.4</ele>
        <time>2020-10-24T08:19:46Z</time>
      </trkpt>
      <trkpt lat="46.09138" lon="4.61618">
        <ele>615.6</ele>
        <time>2020-10-24T08:19:47Z</time>
      </trkpt>
      <trkpt lat="46.09138" lon="4.61618">
        <ele>615.8</ele>
        <time>2020-10-24T08:19:48Z</time>
      </trkpt>
      <trkpt lat="46.0914" lon="4.61617">
        <ele>616.2</ele>
        <time>2020-10-24T08:19:49Z</time>
      </trkpt>
      <trkpt lat="46.0914" lon="4.61617">
        <ele>616.6</ele>
        <time>2020-10-24T08:19:50Z</time>
      </trkpt>
      <trkpt lat="46.09142" lon="4.61617">
        <ele>616.8</ele>
        <time>2020-10-24T08:19:51Z</time>
      </trkpt>
      <trkpt lat="46.09142" lon="4.61617">
        <ele>617.2</ele>
        <time>2020-10-24T08:19:52Z</time>
      </trkpt>
      <trkpt lat="46.09144" lon="4.61617">
        <ele>617.4</ele>
        <time>2020-10-24T08:19:53Z</time>
      </trkpt>
      <trkpt lat="46.09144" lon="4.61617">
        <ele>617.6</ele>
        <time>2020-10-24T08:19:54Z</time>
      </trkpt>
      <trkpt lat="46.09147" lon="4.61617">
        <ele>617.8</ele>
        <time>2020-10-24T08:19:55Z</time>
      </trkpt>
      <trkpt lat="46.09147" lon="4.61617">
        <ele>618.2</ele>
        <time>2020-10-24T08:19:56Z</time>
      </trkpt>
      <trkpt lat="46.09149" lon="4.61616">
        <ele>618.8</ele>
        <time>2020-10-24T08:19:57Z</time>
      </trkpt>
      <trkpt lat="46.09149" lon="4.61616">
        <ele>619</ele>
        <time>2020-10-24T08:19:58Z</time>
      </trkpt>
      <trkpt lat="46.09149" lon="4.61616">
        <ele>619</ele>
        <time>2020-10-24T08:19:59Z</time>
      </trkpt>
      <trkpt lat="46.09152" lon="4.61613">
        <ele>619</ele>
        <time>2020-10-24T08:20:00Z</time>
      </trkpt>
      <trkpt lat="46.09152" lon="4.61613">
        <ele>619.4</ele>
        <time>2020-10-24T08:20:01Z</time>
      </trkpt>
      <trkpt lat="46.09154" lon="4.61613">
        <ele>619.6</ele>
        <time>2020-10-24T08:20:02Z</time>
      </trkpt>
      <trkpt lat="46.09154" lon="4.61613">
        <ele>619.8</ele>
        <time>2020-10-24T08:20:03Z</time>
      </trkpt>
      <trkpt lat="46.09156" lon="4.61612">
        <ele>620</ele>
        <time>2020-10-24T08:20:04Z</time>
      </trkpt>
      <trkpt lat="46.09156" lon="4.61612">
        <ele>620.6</ele>
        <time>2020-10-24T08:20:05Z</time>
      </trkpt>
      <trkpt lat="46.09156" lon="4.61612">
        <ele>620.8</ele>
        <time>2020-10-24T08:20:06Z</time>
      </trkpt>
      <trkpt lat="46.09158" lon="4.61611">
        <ele>620.8</ele>
        <time>2020-10-24T08:20:07Z</time>
      </trkpt>
      <trkpt lat="46.09158" lon="4.61611">
        <ele>621.2</ele>
        <time>2020-10-24T08:20:08Z</time>
      </trkpt>
      <trkpt lat="46.09161" lon="4.6161">
        <ele>621.2</ele>
        <time>2020-10-24T08:20:09Z</time>
      </trkpt>
      <trkpt lat="46.09161" lon="4.6161">
        <ele>621.4</ele>
        <time>2020-10-24T08:20:10Z</time>
      </trkpt>
      <trkpt lat="46.09164" lon="4.61609">
        <ele>621.8</ele>
        <time>2020-10-24T08:20:11Z</time>
      </trkpt>
      <trkpt lat="46.09164" lon="4.61609">
        <ele>622.2</ele>
        <time>2020-10-24T08:20:12Z</time>
      </trkpt>
      <trkpt lat="46.09166" lon="4.61608">
        <ele>622.6</ele>
        <time>2020-10-24T08:20:13Z</time>
      </trkpt>
      <trkpt lat="46.09166" lon="4.61608">
        <ele>622.8</ele>
        <time>2020-10-24T08:20:14Z</time>
      </trkpt>
      <trkpt lat="46.09169" lon="4.61607">
        <ele>623.2</ele>
        <time>2020-10-24T08:20:15Z</time>
      </trkpt>
      <trkpt lat="46.09169" lon="4.61607">
        <ele>623.4</ele>
        <time>2020-10-24T08:20:16Z</time>
      </trkpt>
      <trkpt lat="46.09171" lon="4.61606">
        <ele>623.6</ele>
        <time>2020-10-24T08:20:17Z</time>
      </trkpt>
      <trkpt lat="46.09171" lon="4.61606">
        <ele>623.6</ele>
        <time>2020-10-24T08:20:18Z</time>
      </trkpt>
      <trkpt lat="46.09173" lon="4.61606">
        <ele>623.6</ele>
        <time>2020-10-24T08:20:19Z</time>
      </trkpt>
      <trkpt lat="46.09173" lon="4.61606">
        <ele>623.6</ele>
        <time>2020-10-24T08:20:20Z</time>
      </trkpt>
      <trkpt lat="46.09173" lon="4.61606">
        <ele>623.8</ele>
        <time>2020-10-24T08:20:21Z</time>
      </trkpt>
      <trkpt lat="46.09175" lon="4.61604">
        <ele>624</ele>
        <time>2020-10-24T08:20:22Z</time>
      </trkpt>
      <trkpt lat="46.09175" lon="4.61604">
        <ele>624</ele>
        <time>2020-10-24T08:20:23Z</time>
      </trkpt>
      <trkpt lat="46.09175" lon="4.61604">
        <ele>624.2</ele>
        <time>2020-10-24T08:20:24Z</time>
      </trkpt>
      <trkpt lat="46.09178" lon="4.61603">
        <ele>624.4</ele>
        <time>2020-10-24T08:20:25Z</time>
      </trkpt>
      <trkpt lat="46.09178" lon="4.61603">
        <ele>624.6</ele>
        <time>2020-10-24T08:20:26Z</time>
      </trkpt>
      <trkpt lat="46.0918" lon="4.61602">
        <ele>624.8</ele>
        <time>2020-10-24T08:20:27Z</time>
      </trkpt>
      <trkpt lat="46.0918" lon="4.61602">
        <ele>625</ele>
        <time>2020-10-24T08:20:28Z</time>
      </trkpt>
      <trkpt lat="46.09182" lon="4.61601">
        <ele>625.2</ele>
        <time>2020-10-24T08:20:29Z</time>
      </trkpt>
      <trkpt lat="46.09182" lon="4.61601">
        <ele>625.4</ele>
        <time>2020-10-24T08:20:30Z</time>
      </trkpt>
      <trkpt lat="46.09185" lon="4.61601">
        <ele>625.6</ele>
        <time>2020-10-24T08:20:31Z</time>
      </trkpt>
      <trkpt lat="46.09185" lon="4.61601">
        <ele>626</ele>
        <time>2020-10-24T08:20:32Z</time>
      </trkpt>
      <trkpt lat="46.09187" lon="4.61601">
        <ele>626.2</ele>
        <time>2020-10-24T08:20:33Z</time>
      </trkpt>
      <trkpt lat="46.09187" lon="4.61601">
        <ele>626.2</ele>
        <time>2020-10-24T08:20:34Z</time>
      </trkpt>
      <trkpt lat="46.09188" lon="4.616">
        <ele>626.4</ele>
        <time>2020-10-24T08:20:35Z</time>
      </trkpt>
      <trkpt lat="46.09188" lon="4.616">
        <ele>626.8</ele>
        <time>2020-10-24T08:20:36Z</time>
      </trkpt>
      <trkpt lat="46.0919" lon="4.61599">
        <ele>626.8</ele>
        <time>2020-10-24T08:20:37Z</time>
      </trkpt>
      <trkpt lat="46.0919" lon="4.61599">
        <ele>627</ele>
        <time>2020-10-24T08:20:38Z</time>
      </trkpt>
      <trkpt lat="46.09193" lon="4.61598">
        <ele>627.4</ele>
        <time>2020-10-24T08:20:39Z</time>
      </trkpt>
      <trkpt lat="46.09193" lon="4.61598">
        <ele>627.2</ele>
        <time>2020-10-24T08:20:40Z</time>
      </trkpt>
      <trkpt lat="46.09196" lon="4.61598">
        <ele>627.4</ele>
        <time>2020-10-24T08:20:41Z</time>
      </trkpt>
      <trkpt lat="46.09196" lon="4.61598">
        <ele>627.4</ele>
        <time>2020-10-24T08:20:42Z</time>
      </trkpt>
      <trkpt lat="46.09199" lon="4.61598">
        <ele>627.8</ele>
        <time>2020-10-24T08:20:43Z</time>
      </trkpt>
      <trkpt lat="46.09199" lon="4.61598">
        <ele>627.8</ele>
        <time>2020-10-24T08:20:44Z</time>
      </trkpt>
      <trkpt lat="46.09201" lon="4.61597">
        <ele>627.8</ele>
        <time>2020-10-24T08:20:45Z</time>
      </trkpt>
      <trkpt lat="46.09201" lon="4.61597">
        <ele>628</ele>
        <time>2020-10-24T08:20:46Z</time>
      </trkpt>
      <trkpt lat="46.09204" lon="4.61597">
        <ele>628.2</ele>
        <time>2020-10-24T08:20:47Z</time>
      </trkpt>
      <trkpt lat="46.09204" lon="4.61597">
        <ele>628.4</ele>
        <time>2020-10-24T08:20:48Z</time>
      </trkpt>
      <trkpt lat="46.09207" lon="4.61598">
        <ele>628.4</ele>
        <time>2020-10-24T08:20:49Z</time>
      </trkpt>
      <trkpt lat="46.09207" lon="4.61598">
        <ele>628.4</ele>
        <time>2020-10-24T08:20:50Z</time>
      </trkpt>
      <trkpt lat="46.0921" lon="4.61597">
        <ele>628.4</ele>
        <time>2020-10-24T08:20:51Z</time>
      </trkpt>
      <trkpt lat="46.0921" lon="4.61597">
        <ele>628.4</ele>
        <time>2020-10-24T08:20:52Z</time>
      </trkpt>
      <trkpt lat="46.09213" lon="4.61597">
        <ele>628.2</ele>
        <time>2020-10-24T08:20:53Z</time>
      </trkpt>
      <trkpt lat="46.09213" lon="4.61597">
        <ele>628.6</ele>
        <time>2020-10-24T08:20:54Z</time>
      </trkpt>
      <trkpt lat="46.09216" lon="4.61596">
        <ele>629</ele>
        <time>2020-10-24T08:20:55Z</time>
      </trkpt>
      <trkpt lat="46.09216" lon="4.61596">
        <ele>629.2</ele>
        <time>2020-10-24T08:20:56Z</time>
      </trkpt>
      <trkpt lat="46.09218" lon="4.61595">
        <ele>629.4</ele>
        <time>2020-10-24T08:20:57Z</time>
      </trkpt>
      <trkpt lat="46.09218" lon="4.61595">
        <ele>629.4</ele>
        <time>2020-10-24T08:20:58Z</time>
      </trkpt>
      <trkpt lat="46.0922" lon="4.61593">
        <ele>629.6</ele>
        <time>2020-10-24T08:20:59Z</time>
      </trkpt>
      <trkpt lat="46.0922" lon="4.61593">
        <ele>629.4</ele>
        <time>2020-10-24T08:21:00Z</time>
      </trkpt>
      <trkpt lat="46.09223" lon="4.61592">
        <ele>629.6</ele>
        <time>2020-10-24T08:21:01Z</time>
      </trkpt>
      <trkpt lat="46.09223" lon="4.61592">
        <ele>629.6</ele>
        <time>2020-10-24T08:21:02Z</time>
      </trkpt>
      <trkpt lat="46.09226" lon="4.61591">
        <ele>629.8</ele>
        <time>2020-10-24T08:21:03Z</time>
      </trkpt>
      <trkpt lat="46.09226" lon="4.61591">
        <ele>629.8</ele>
        <time>2020-10-24T08:21:04Z</time>
      </trkpt>
      <trkpt lat="46.09229" lon="4.6159">
        <ele>630</ele>
        <time>2020-10-24T08:21:05Z</time>
      </trkpt>
      <trkpt lat="46.09229" lon="4.6159">
        <ele>630.2</ele>
        <time>2020-10-24T08:21:06Z</time>
      </trkpt>
      <trkpt lat="46.09232" lon="4.61589">
        <ele>630.2</ele>
        <time>2020-10-24T08:21:07Z</time>
      </trkpt>
      <trkpt lat="46.09232" lon="4.61589">
        <ele>630.4</ele>
        <time>2020-10-24T08:21:08Z</time>
      </trkpt>
      <trkpt lat="46.09232" lon="4.61589">
        <ele>630.8</ele>
        <time>2020-10-24T08:21:09Z</time>
      </trkpt>
      <trkpt lat="46.09235" lon="4.61588">
        <ele>631</ele>
        <time>2020-10-24T08:21:10Z</time>
      </trkpt>
      <trkpt lat="46.09236" lon="4.61587">
        <ele>631.2</ele>
        <time>2020-10-24T08:21:11Z</time>
      </trkpt>
      <trkpt lat="46.09236" lon="4.61587">
        <ele>631.2</ele>
        <time>2020-10-24T08:21:12Z</time>
      </trkpt>
      <trkpt lat="46.09236" lon="4.61587">
        <ele>631.6</ele>
        <time>2020-10-24T08:21:13Z</time>
      </trkpt>
      <trkpt lat="46.09239" lon="4.61586">
        <ele>632</ele>
        <time>2020-10-24T08:21:14Z</time>
      </trkpt>
      <trkpt lat="46.09239" lon="4.61586">
        <ele>632.2</ele>
        <time>2020-10-24T08:21:15Z</time>
      </trkpt>
      <trkpt lat="46.09239" lon="4.61586">
        <ele>632.6</ele>
        <time>2020-10-24T08:21:16Z</time>
      </trkpt>
      <trkpt lat="46.09239" lon="4.61586">
        <ele>632.8</ele>
        <time>2020-10-24T08:21:17Z</time>
      </trkpt>
      <trkpt lat="46.09241" lon="4.61586">
        <ele>633</ele>
        <time>2020-10-24T08:21:18Z</time>
      </trkpt>
      <trkpt lat="46.09243" lon="4.61586">
        <ele>633.4</ele>
        <time>2020-10-24T08:21:19Z</time>
      </trkpt>
      <trkpt lat="46.09243" lon="4.61586">
        <ele>633.6</ele>
        <time>2020-10-24T08:21:20Z</time>
      </trkpt>
      <trkpt lat="46.09247" lon="4.61586">
        <ele>634</ele>
        <time>2020-10-24T08:21:21Z</time>
      </trkpt>
      <trkpt lat="46.09247" lon="4.61586">
        <ele>634.2</ele>
        <time>2020-10-24T08:21:22Z</time>
      </trkpt>
      <trkpt lat="46.0925" lon="4.61587">
        <ele>634.4</ele>
        <time>2020-10-24T08:21:23Z</time>
      </trkpt>
      <trkpt lat="46.0925" lon="4.61587">
        <ele>634.4</ele>
        <time>2020-10-24T08:21:24Z</time>
      </trkpt>
      <trkpt lat="46.09252" lon="4.61587">
        <ele>634.4</ele>
        <time>2020-10-24T08:21:25Z</time>
      </trkpt>
      <trkpt lat="46.09252" lon="4.61587">
        <ele>634.6</ele>
        <time>2020-10-24T08:21:26Z</time>
      </trkpt>
      <trkpt lat="46.09252" lon="4.61587">
        <ele>634.4</ele>
        <time>2020-10-24T08:21:27Z</time>
      </trkpt>
      <trkpt lat="46.09254" lon="4.61588">
        <ele>634.4</ele>
        <time>2020-10-24T08:21:28Z</time>
      </trkpt>
      <trkpt lat="46.09254" lon="4.61588">
        <ele>634.4</ele>
        <time>2020-10-24T08:21:29Z</time>
      </trkpt>
      <trkpt lat="46.09254" lon="4.61588">
        <ele>634.6</ele>
        <time>2020-10-24T08:21:30Z</time>
      </trkpt>
      <trkpt lat="46.09254" lon="4.61588">
        <ele>634.6</ele>
        <time>2020-10-24T08:21:31Z</time>
      </trkpt>
      <trkpt lat="46.09256" lon="4.61589">
        <ele>634.6</ele>
        <time>2020-10-24T08:21:32Z</time>
      </trkpt>
      <trkpt lat="46.09256" lon="4.61589">
        <ele>634.8</ele>
        <time>2020-10-24T08:21:33Z</time>
      </trkpt>
      <trkpt lat="46.09256" lon="4.61589">
        <ele>635</ele>
        <time>2020-10-24T08:21:34Z</time>
      </trkpt>
      <trkpt lat="46.09256" lon="4.61589">
        <ele>634.8</ele>
        <time>2020-10-24T08:21:35Z</time>
      </trkpt>
      <trkpt lat="46.09256" lon="4.61589">
        <ele>634.6</ele>
        <time>2020-10-24T08:21:36Z</time>
      </trkpt>
      <trkpt lat="46.09256" lon="4.61589">
        <ele>634.8</ele>
        <time>2020-10-24T08:21:37Z</time>
      </trkpt>
      <trkpt lat="46.09256" lon="4.61589">
        <ele>634.8</ele>
        <time>2020-10-24T08:21:38Z</time>
      </trkpt>
      <trkpt lat="46.09258" lon="4.61591">
        <ele>634.8</ele>
        <time>2020-10-24T08:21:39Z</time>
      </trkpt>
      <trkpt lat="46.09258" lon="4.61591">
        <ele>635.2</ele>
        <time>2020-10-24T08:21:40Z</time>
      </trkpt>
      <trkpt lat="46.09258" lon="4.61591">
        <ele>635.4</ele>
        <time>2020-10-24T08:21:41Z</time>
      </trkpt>
      <trkpt lat="46.09258" lon="4.61591">
        <ele>635.8</ele>
        <time>2020-10-24T08:21:42Z</time>
      </trkpt>
      <trkpt lat="46.09258" lon="4.61591">
        <ele>636</ele>
        <time>2020-10-24T08:21:43Z</time>
      </trkpt>
      <trkpt lat="46.09257" lon="4.61587">
        <ele>636</ele>
        <time>2020-10-24T08:21:44Z</time>
      </trkpt>
      <trkpt lat="46.09257" lon="4.61587">
        <ele>635.4</ele>
        <time>2020-10-24T08:21:45Z</time>
      </trkpt>
      <trkpt lat="46.09258" lon="4.61585">
        <ele>635.4</ele>
        <time>2020-10-24T08:21:46Z</time>
      </trkpt>
      <trkpt lat="46.09258" lon="4.61585">
        <ele>635.4</ele>
        <time>2020-10-24T08:21:47Z</time>
      </trkpt>
      <trkpt lat="46.09259" lon="4.61583">
        <ele>635.4</ele>
        <time>2020-10-24T08:21:48Z</time>
      </trkpt>
      <trkpt lat="46.09259" lon="4.61583">
        <ele>635.2</ele>
        <time>2020-10-24T08:21:49Z</time>
      </trkpt>
      <trkpt lat="46.09262" lon="4.6158">
        <ele>635.4</ele>
        <time>2020-10-24T08:21:50Z</time>
      </trkpt>
      <trkpt lat="46.09262" lon="4.6158">
        <ele>635.4</ele>
        <time>2020-10-24T08:21:51Z</time>
      </trkpt>
      <trkpt lat="46.09264" lon="4.61579">
        <ele>635.4</ele>
        <time>2020-10-24T08:21:52Z</time>
      </trkpt>
      <trkpt lat="46.09264" lon="4.61579">
        <ele>635.4</ele>
        <time>2020-10-24T08:21:53Z</time>
      </trkpt>
      <trkpt lat="46.09267" lon="4.61579">
        <ele>635.4</ele>
        <time>2020-10-24T08:21:54Z</time>
      </trkpt>
      <trkpt lat="46.09267" lon="4.61579">
        <ele>635.2</ele>
        <time>2020-10-24T08:21:55Z</time>
      </trkpt>
      <trkpt lat="46.09271" lon="4.6158">
        <ele>635</ele>
        <time>2020-10-24T08:21:56Z</time>
      </trkpt>
      <trkpt lat="46.09271" lon="4.6158">
        <ele>635</ele>
        <time>2020-10-24T08:21:57Z</time>
      </trkpt>
      <trkpt lat="46.09273" lon="4.61581">
        <ele>635</ele>
        <time>2020-10-24T08:21:58Z</time>
      </trkpt>
      <trkpt lat="46.09275" lon="4.61581">
        <ele>634.8</ele>
        <time>2020-10-24T08:21:59Z</time>
      </trkpt>
      <trkpt lat="46.09277" lon="4.61582">
        <ele>634.6</ele>
        <time>2020-10-24T08:22:00Z</time>
      </trkpt>
      <trkpt lat="46.09279" lon="4.61583">
        <ele>634.6</ele>
        <time>2020-10-24T08:22:01Z</time>
      </trkpt>
      <trkpt lat="46.09281" lon="4.61584">
        <ele>634.6</ele>
        <time>2020-10-24T08:22:02Z</time>
      </trkpt>
      <trkpt lat="46.09284" lon="4.61586">
        <ele>634.2</ele>
        <time>2020-10-24T08:22:03Z</time>
      </trkpt>
      <trkpt lat="46.09286" lon="4.61587">
        <ele>633.6</ele>
        <time>2020-10-24T08:22:04Z</time>
      </trkpt>
      <trkpt lat="46.09288" lon="4.61588">
        <ele>633.6</ele>
        <time>2020-10-24T08:22:05Z</time>
      </trkpt>
      <trkpt lat="46.09291" lon="4.6159">
        <ele>633.2</ele>
        <time>2020-10-24T08:22:06Z</time>
      </trkpt>
      <trkpt lat="46.09293" lon="4.61592">
        <ele>632.6</ele>
        <time>2020-10-24T08:22:07Z</time>
      </trkpt>
      <trkpt lat="46.09294" lon="4.61594">
        <ele>632.6</ele>
        <time>2020-10-24T08:22:08Z</time>
      </trkpt>
      <trkpt lat="46.09296" lon="4.61596">
        <ele>632.4</ele>
        <time>2020-10-24T08:22:09Z</time>
      </trkpt>
      <trkpt lat="46.09298" lon="4.61598">
        <ele>632</ele>
        <time>2020-10-24T08:22:10Z</time>
      </trkpt>
      <trkpt lat="46.093" lon="4.616">
        <ele>632</ele>
        <time>2020-10-24T08:22:11Z</time>
      </trkpt>
      <trkpt lat="46.09302" lon="4.61601">
        <ele>631.6</ele>
        <time>2020-10-24T08:22:12Z</time>
      </trkpt>
      <trkpt lat="46.09304" lon="4.61603">
        <ele>631.6</ele>
        <time>2020-10-24T08:22:13Z</time>
      </trkpt>
      <trkpt lat="46.09306" lon="4.61604">
        <ele>631.6</ele>
        <time>2020-10-24T08:22:14Z</time>
      </trkpt>
      <trkpt lat="46.09308" lon="4.61607">
        <ele>631.4</ele>
        <time>2020-10-24T08:22:15Z</time>
      </trkpt>
      <trkpt lat="46.0931" lon="4.61608">
        <ele>631.2</ele>
        <time>2020-10-24T08:22:16Z</time>
      </trkpt>
      <trkpt lat="46.09312" lon="4.6161">
        <ele>631</ele>
        <time>2020-10-24T08:22:17Z</time>
      </trkpt>
      <trkpt lat="46.09314" lon="4.61611">
        <ele>631</ele>
        <time>2020-10-24T08:22:18Z</time>
      </trkpt>
      <trkpt lat="46.09316" lon="4.61613">
        <ele>630.8</ele>
        <time>2020-10-24T08:22:19Z</time>
      </trkpt>
      <trkpt lat="46.09319" lon="4.61615">
        <ele>631</ele>
        <time>2020-10-24T08:22:20Z</time>
      </trkpt>
      <trkpt lat="46.09321" lon="4.61616">
        <ele>630.8</ele>
        <time>2020-10-24T08:22:21Z</time>
      </trkpt>
      <trkpt lat="46.09323" lon="4.61617">
        <ele>630.4</ele>
        <time>2020-10-24T08:22:22Z</time>
      </trkpt>
      <trkpt lat="46.09325" lon="4.61618">
        <ele>630.6</ele>
        <time>2020-10-24T08:22:23Z</time>
      </trkpt>
      <trkpt lat="46.09327" lon="4.6162">
        <ele>630.2</ele>
        <time>2020-10-24T08:22:24Z</time>
      </trkpt>
      <trkpt lat="46.09329" lon="4.61621">
        <ele>629.6</ele>
        <time>2020-10-24T08:22:25Z</time>
      </trkpt>
      <trkpt lat="46.09329" lon="4.61621">
        <ele>629.8</ele>
        <time>2020-10-24T08:22:26Z</time>
      </trkpt>
      <trkpt lat="46.09332" lon="4.61623">
        <ele>629.4</ele>
        <time>2020-10-24T08:22:27Z</time>
      </trkpt>
      <trkpt lat="46.09334" lon="4.61625">
        <ele>629</ele>
        <time>2020-10-24T08:22:28Z</time>
      </trkpt>
      <trkpt lat="46.09335" lon="4.61625">
        <ele>628.8</ele>
        <time>2020-10-24T08:22:29Z</time>
      </trkpt>
      <trkpt lat="46.09338" lon="4.61627">
        <ele>628.6</ele>
        <time>2020-10-24T08:22:30Z</time>
      </trkpt>
      <trkpt lat="46.0934" lon="4.61629">
        <ele>628.4</ele>
        <time>2020-10-24T08:22:31Z</time>
      </trkpt>
      <trkpt lat="46.09343" lon="4.61631">
        <ele>628.4</ele>
        <time>2020-10-24T08:22:32Z</time>
      </trkpt>
      <trkpt lat="46.09345" lon="4.61633">
        <ele>628</ele>
        <time>2020-10-24T08:22:33Z</time>
      </trkpt>
      <trkpt lat="46.09348" lon="4.61635">
        <ele>627.6</ele>
        <time>2020-10-24T08:22:34Z</time>
      </trkpt>
      <trkpt lat="46.0935" lon="4.61638">
        <ele>627.8</ele>
        <time>2020-10-24T08:22:35Z</time>
      </trkpt>
      <trkpt lat="46.09352" lon="4.61641">
        <ele>627.2</ele>
        <time>2020-10-24T08:22:36Z</time>
      </trkpt>
      <trkpt lat="46.09354" lon="4.61644">
        <ele>627</ele>
        <time>2020-10-24T08:22:37Z</time>
      </trkpt>
      <trkpt lat="46.09355" lon="4.61647">
        <ele>627</ele>
        <time>2020-10-24T08:22:38Z</time>
      </trkpt>
      <trkpt lat="46.09357" lon="4.61649">
        <ele>627</ele>
        <time>2020-10-24T08:22:39Z</time>
      </trkpt>
      <trkpt lat="46.09359" lon="4.61652">
        <ele>626.6</ele>
        <time>2020-10-24T08:22:40Z</time>
      </trkpt>
      <trkpt lat="46.09361" lon="4.61654">
        <ele>626.8</ele>
        <time>2020-10-24T08:22:41Z</time>
      </trkpt>
      <trkpt lat="46.09362" lon="4.61656">
        <ele>626.4</ele>
        <time>2020-10-24T08:22:42Z</time>
      </trkpt>
      <trkpt lat="46.09364" lon="4.61659">
        <ele>626.2</ele>
        <time>2020-10-24T08:22:43Z</time>
      </trkpt>
      <trkpt lat="46.09365" lon="4.61662">
        <ele>626.2</ele>
        <time>2020-10-24T08:22:44Z</time>
      </trkpt>
      <trkpt lat="46.09366" lon="4.61665">
        <ele>626.2</ele>
        <time>2020-10-24T08:22:45Z</time>
      </trkpt>
      <trkpt lat="46.09367" lon="4.61668">
        <ele>625.8</ele>
        <time>2020-10-24T08:22:46Z</time>
      </trkpt>
      <trkpt lat="46.09368" lon="4.61671">
        <ele>625.6</ele>
        <time>2020-10-24T08:22:47Z</time>
      </trkpt>
      <trkpt lat="46.0937" lon="4.61673">
        <ele>625.6</ele>
        <time>2020-10-24T08:22:48Z</time>
      </trkpt>
      <trkpt lat="46.09371" lon="4.61676">
        <ele>625.2</ele>
        <time>2020-10-24T08:22:49Z</time>
      </trkpt>
      <trkpt lat="46.09373" lon="4.61678">
        <ele>625</ele>
        <time>2020-10-24T08:22:50Z</time>
      </trkpt>
      <trkpt lat="46.09375" lon="4.6168">
        <ele>624.4</ele>
        <time>2020-10-24T08:22:51Z</time>
      </trkpt>
      <trkpt lat="46.09377" lon="4.61681">
        <ele>624</ele>
        <time>2020-10-24T08:22:52Z</time>
      </trkpt>
      <trkpt lat="46.09379" lon="4.61683">
        <ele>624</ele>
        <time>2020-10-24T08:22:53Z</time>
      </trkpt>
      <trkpt lat="46.09382" lon="4.61685">
        <ele>623.4</ele>
        <time>2020-10-24T08:22:54Z</time>
      </trkpt>
      <trkpt lat="46.09384" lon="4.61688">
        <ele>622.8</ele>
        <time>2020-10-24T08:22:55Z</time>
      </trkpt>
      <trkpt lat="46.09386" lon="4.6169">
        <ele>623</ele>
        <time>2020-10-24T08:22:56Z</time>
      </trkpt>
      <trkpt lat="46.09388" lon="4.61692">
        <ele>622.4</ele>
        <time>2020-10-24T08:22:57Z</time>
      </trkpt>
      <trkpt lat="46.0939" lon="4.61694">
        <ele>622</ele>
        <time>2020-10-24T08:22:58Z</time>
      </trkpt>
      <trkpt lat="46.09392" lon="4.61697">
        <ele>621.4</ele>
        <time>2020-10-24T08:22:59Z</time>
      </trkpt>
      <trkpt lat="46.09395" lon="4.61699">
        <ele>620.8</ele>
        <time>2020-10-24T08:23:00Z</time>
      </trkpt>
      <trkpt lat="46.09397" lon="4.61701">
        <ele>620.6</ele>
        <time>2020-10-24T08:23:01Z</time>
      </trkpt>
      <trkpt lat="46.094" lon="4.61703">
        <ele>620.2</ele>
        <time>2020-10-24T08:23:02Z</time>
      </trkpt>
      <trkpt lat="46.09402" lon="4.61705">
        <ele>619.8</ele>
        <time>2020-10-24T08:23:03Z</time>
      </trkpt>
      <trkpt lat="46.09404" lon="4.61707">
        <ele>619.8</ele>
        <time>2020-10-24T08:23:04Z</time>
      </trkpt>
      <trkpt lat="46.09406" lon="4.6171">
        <ele>619.2</ele>
        <time>2020-10-24T08:23:05Z</time>
      </trkpt>
      <trkpt lat="46.09408" lon="4.61712">
        <ele>618.8</ele>
        <time>2020-10-24T08:23:06Z</time>
      </trkpt>
      <trkpt lat="46.0941" lon="4.61714">
        <ele>618.6</ele>
        <time>2020-10-24T08:23:07Z</time>
      </trkpt>
      <trkpt lat="46.09413" lon="4.61717">
        <ele>618.2</ele>
        <time>2020-10-24T08:23:08Z</time>
      </trkpt>
      <trkpt lat="46.09414" lon="4.61718">
        <ele>618</ele>
        <time>2020-10-24T08:23:09Z</time>
      </trkpt>
      <trkpt lat="46.09417" lon="4.61721">
        <ele>617.8</ele>
        <time>2020-10-24T08:23:10Z</time>
      </trkpt>
      <trkpt lat="46.09419" lon="4.61723">
        <ele>617.2</ele>
        <time>2020-10-24T08:23:11Z</time>
      </trkpt>
      <trkpt lat="46.09421" lon="4.61725">
        <ele>617.2</ele>
        <time>2020-10-24T08:23:12Z</time>
      </trkpt>
      <trkpt lat="46.09423" lon="4.61727">
        <ele>616.6</ele>
        <time>2020-10-24T08:23:13Z</time>
      </trkpt>
      <trkpt lat="46.09425" lon="4.6173">
        <ele>616.2</ele>
        <time>2020-10-24T08:23:14Z</time>
      </trkpt>
      <trkpt lat="46.09428" lon="4.61732">
        <ele>616</ele>
        <time>2020-10-24T08:23:15Z</time>
      </trkpt>
      <trkpt lat="46.0943" lon="4.61733">
        <ele>615.6</ele>
        <time>2020-10-24T08:23:16Z</time>
      </trkpt>
      <trkpt lat="46.09432" lon="4.61735">
        <ele>615</ele>
        <time>2020-10-24T08:23:17Z</time>
      </trkpt>
      <trkpt lat="46.09434" lon="4.61737">
        <ele>615</ele>
        <time>2020-10-24T08:23:18Z</time>
      </trkpt>
      <trkpt lat="46.09436" lon="4.6174">
        <ele>614.4</ele>
        <time>2020-10-24T08:23:19Z</time>
      </trkpt>
      <trkpt lat="46.09439" lon="4.61741">
        <ele>614</ele>
        <time>2020-10-24T08:23:20Z</time>
      </trkpt>
      <trkpt lat="46.09441" lon="4.61743">
        <ele>613.8</ele>
        <time>2020-10-24T08:23:21Z</time>
      </trkpt>
      <trkpt lat="46.09443" lon="4.61745">
        <ele>613.2</ele>
        <time>2020-10-24T08:23:22Z</time>
      </trkpt>
      <trkpt lat="46.09444" lon="4.61746">
        <ele>612.8</ele>
        <time>2020-10-24T08:23:23Z</time>
      </trkpt>
      <trkpt lat="46.09446" lon="4.61748">
        <ele>612.4</ele>
        <time>2020-10-24T08:23:24Z</time>
      </trkpt>
      <trkpt lat="46.09448" lon="4.6175">
        <ele>611.2</ele>
        <time>2020-10-24T08:23:25Z</time>
      </trkpt>
      <trkpt lat="46.0945" lon="4.61753">
        <ele>610.6</ele>
        <time>2020-10-24T08:23:26Z</time>
      </trkpt>
      <trkpt lat="46.09452" lon="4.61755">
        <ele>609.8</ele>
        <time>2020-10-24T08:23:27Z</time>
      </trkpt>
      <trkpt lat="46.09453" lon="4.61757">
        <ele>609.4</ele>
        <time>2020-10-24T08:23:28Z</time>
      </trkpt>
      <trkpt lat="46.09455" lon="4.6176">
        <ele>609</ele>
        <time>2020-10-24T08:23:29Z</time>
      </trkpt>
      <trkpt lat="46.09456" lon="4.61762">
        <ele>608.6</ele>
        <time>2020-10-24T08:23:30Z</time>
      </trkpt>
      <trkpt lat="46.09458" lon="4.61765">
        <ele>608</ele>
        <time>2020-10-24T08:23:31Z</time>
      </trkpt>
      <trkpt lat="46.0946" lon="4.61767">
        <ele>607.6</ele>
        <time>2020-10-24T08:23:32Z</time>
      </trkpt>
      <trkpt lat="46.09461" lon="4.61769">
        <ele>607</ele>
        <time>2020-10-24T08:23:33Z</time>
      </trkpt>
      <trkpt lat="46.09463" lon="4.61771">
        <ele>606.4</ele>
        <time>2020-10-24T08:23:34Z</time>
      </trkpt>
      <trkpt lat="46.09464" lon="4.61773">
        <ele>605.6</ele>
        <time>2020-10-24T08:23:35Z</time>
      </trkpt>
      <trkpt lat="46.09466" lon="4.61774">
        <ele>605.4</ele>
        <time>2020-10-24T08:23:36Z</time>
      </trkpt>
      <trkpt lat="46.09467" lon="4.61776">
        <ele>604.4</ele>
        <time>2020-10-24T08:23:37Z</time>
      </trkpt>
      <trkpt lat="46.09469" lon="4.61777">
        <ele>604.2</ele>
        <time>2020-10-24T08:23:38Z</time>
      </trkpt>
      <trkpt lat="46.09471" lon="4.61778">
        <ele>603.6</ele>
        <time>2020-10-24T08:23:39Z</time>
      </trkpt>
      <trkpt lat="46.09473" lon="4.61778">
        <ele>602.6</ele>
        <time>2020-10-24T08:23:40Z</time>
      </trkpt>
      <trkpt lat="46.09475" lon="4.61779">
        <ele>602.4</ele>
        <time>2020-10-24T08:23:41Z</time>
      </trkpt>
      <trkpt lat="46.09478" lon="4.6178">
        <ele>601.6</ele>
        <time>2020-10-24T08:23:42Z</time>
      </trkpt>
      <trkpt lat="46.0948" lon="4.61782">
        <ele>600.8</ele>
        <time>2020-10-24T08:23:43Z</time>
      </trkpt>
      <trkpt lat="46.09483" lon="4.61782">
        <ele>600.6</ele>
        <time>2020-10-24T08:23:44Z</time>
      </trkpt>
      <trkpt lat="46.09485" lon="4.61783">
        <ele>600</ele>
        <time>2020-10-24T08:23:45Z</time>
      </trkpt>
      <trkpt lat="46.09487" lon="4.61784">
        <ele>599</ele>
        <time>2020-10-24T08:23:46Z</time>
      </trkpt>
      <trkpt lat="46.09487" lon="4.61784">
        <ele>597.8</ele>
        <time>2020-10-24T08:23:47Z</time>
      </trkpt>
      <trkpt lat="46.0949" lon="4.61785">
        <ele>597.4</ele>
        <time>2020-10-24T08:23:48Z</time>
      </trkpt>
      <trkpt lat="46.0949" lon="4.61785">
        <ele>597</ele>
        <time>2020-10-24T08:23:49Z</time>
      </trkpt>
      <trkpt lat="46.09493" lon="4.61787">
        <ele>596.8</ele>
        <time>2020-10-24T08:23:50Z</time>
      </trkpt>
      <trkpt lat="46.09493" lon="4.61787">
        <ele>596.2</ele>
        <time>2020-10-24T08:23:51Z</time>
      </trkpt>
      <trkpt lat="46.09496" lon="4.61788">
        <ele>595.8</ele>
        <time>2020-10-24T08:23:52Z</time>
      </trkpt>
      <trkpt lat="46.09496" lon="4.61788">
        <ele>595.2</ele>
        <time>2020-10-24T08:23:53Z</time>
      </trkpt>
      <trkpt lat="46.09501" lon="4.61792">
        <ele>594.6</ele>
        <time>2020-10-24T08:23:54Z</time>
      </trkpt>
      <trkpt lat="46.09501" lon="4.61793">
        <ele>594.2</ele>
        <time>2020-10-24T08:23:55Z</time>
      </trkpt>
      <trkpt lat="46.09504" lon="4.61794">
        <ele>593.4</ele>
        <time>2020-10-24T08:23:56Z</time>
      </trkpt>
      <trkpt lat="46.09506" lon="4.61796">
        <ele>593.2</ele>
        <time>2020-10-24T08:23:57Z</time>
      </trkpt>
      <trkpt lat="46.09508" lon="4.61797">
        <ele>592.6</ele>
        <time>2020-10-24T08:23:58Z</time>
      </trkpt>
      <trkpt lat="46.0951" lon="4.61798">
        <ele>592</ele>
        <time>2020-10-24T08:23:59Z</time>
      </trkpt>
      <trkpt lat="46.09513" lon="4.61798">
        <ele>591.6</ele>
        <time>2020-10-24T08:24:00Z</time>
      </trkpt>
      <trkpt lat="46.09515" lon="4.61799">
        <ele>590.8</ele>
        <time>2020-10-24T08:24:01Z</time>
      </trkpt>
      <trkpt lat="46.09518" lon="4.61799">
        <ele>590.6</ele>
        <time>2020-10-24T08:24:02Z</time>
      </trkpt>
      <trkpt lat="46.0952" lon="4.61801">
        <ele>589.6</ele>
        <time>2020-10-24T08:24:03Z</time>
      </trkpt>
      <trkpt lat="46.09523" lon="4.61802">
        <ele>589</ele>
        <time>2020-10-24T08:24:04Z</time>
      </trkpt>
      <trkpt lat="46.09525" lon="4.61804">
        <ele>589</ele>
        <time>2020-10-24T08:24:05Z</time>
      </trkpt>
      <trkpt lat="46.09527" lon="4.61806">
        <ele>588.6</ele>
        <time>2020-10-24T08:24:06Z</time>
      </trkpt>
      <trkpt lat="46.0953" lon="4.61808">
        <ele>588</ele>
        <time>2020-10-24T08:24:07Z</time>
      </trkpt>
      <trkpt lat="46.09532" lon="4.6181">
        <ele>588</ele>
        <time>2020-10-24T08:24:08Z</time>
      </trkpt>
      <trkpt lat="46.09534" lon="4.61812">
        <ele>587.4</ele>
        <time>2020-10-24T08:24:09Z</time>
      </trkpt>
      <trkpt lat="46.09536" lon="4.61814">
        <ele>587</ele>
        <time>2020-10-24T08:24:10Z</time>
      </trkpt>
      <trkpt lat="46.09538" lon="4.61816">
        <ele>587.2</ele>
        <time>2020-10-24T08:24:11Z</time>
      </trkpt>
      <trkpt lat="46.0954" lon="4.61819">
        <ele>586.6</ele>
        <time>2020-10-24T08:24:12Z</time>
      </trkpt>
      <trkpt lat="46.09542" lon="4.61821">
        <ele>586.2</ele>
        <time>2020-10-24T08:24:13Z</time>
      </trkpt>
      <trkpt lat="46.09544" lon="4.61823">
        <ele>586.2</ele>
        <time>2020-10-24T08:24:14Z</time>
      </trkpt>
      <trkpt lat="46.09546" lon="4.61825">
        <ele>586</ele>
        <time>2020-10-24T08:24:15Z</time>
      </trkpt>
      <trkpt lat="46.09549" lon="4.61827">
        <ele>586</ele>
        <time>2020-10-24T08:24:16Z</time>
      </trkpt>
      <trkpt lat="46.09551" lon="4.61829">
        <ele>586</ele>
        <time>2020-10-24T08:24:17Z</time>
      </trkpt>
      <trkpt lat="46.09553" lon="4.61831">
        <ele>585.4</ele>
        <time>2020-10-24T08:24:18Z</time>
      </trkpt>
      <trkpt lat="46.09556" lon="4.61834">
        <ele>585</ele>
        <time>2020-10-24T08:24:19Z</time>
      </trkpt>
      <trkpt lat="46.09558" lon="4.61836">
        <ele>585</ele>
        <time>2020-10-24T08:24:20Z</time>
      </trkpt>
      <trkpt lat="46.09561" lon="4.61839">
        <ele>584.4</ele>
        <time>2020-10-24T08:24:21Z</time>
      </trkpt>
      <trkpt lat="46.09563" lon="4.61841">
        <ele>584.4</ele>
        <time>2020-10-24T08:24:22Z</time>
      </trkpt>
      <trkpt lat="46.09566" lon="4.61844">
        <ele>584.4</ele>
        <time>2020-10-24T08:24:23Z</time>
      </trkpt>
      <trkpt lat="46.09568" lon="4.61847">
        <ele>584</ele>
        <time>2020-10-24T08:24:24Z</time>
      </trkpt>
      <trkpt lat="46.0957" lon="4.61849">
        <ele>583.6</ele>
        <time>2020-10-24T08:24:25Z</time>
      </trkpt>
      <trkpt lat="46.09573" lon="4.61851">
        <ele>583.6</ele>
        <time>2020-10-24T08:24:26Z</time>
      </trkpt>
      <trkpt lat="46.09575" lon="4.61853">
        <ele>583.2</ele>
        <time>2020-10-24T08:24:27Z</time>
      </trkpt>
      <trkpt lat="46.09577" lon="4.61855">
        <ele>583.4</ele>
        <time>2020-10-24T08:24:28Z</time>
      </trkpt>
      <trkpt lat="46.0958" lon="4.61857">
        <ele>583.2</ele>
        <time>2020-10-24T08:24:29Z</time>
      </trkpt>
      <trkpt lat="46.09582" lon="4.61858">
        <ele>582.8</ele>
        <time>2020-10-24T08:24:30Z</time>
      </trkpt>
      <trkpt lat="46.09584" lon="4.6186">
        <ele>583</ele>
        <time>2020-10-24T08:24:31Z</time>
      </trkpt>
      <trkpt lat="46.09586" lon="4.61862">
        <ele>582.8</ele>
        <time>2020-10-24T08:24:32Z</time>
      </trkpt>
      <trkpt lat="46.09589" lon="4.61864">
        <ele>582.4</ele>
        <time>2020-10-24T08:24:33Z</time>
      </trkpt>
      <trkpt lat="46.09591" lon="4.61865">
        <ele>582.8</ele>
        <time>2020-10-24T08:24:34Z</time>
      </trkpt>
      <trkpt lat="46.09594" lon="4.61867">
        <ele>582.6</ele>
        <time>2020-10-24T08:24:35Z</time>
      </trkpt>
      <trkpt lat="46.09596" lon="4.61869">
        <ele>582.2</ele>
        <time>2020-10-24T08:24:36Z</time>
      </trkpt>
      <trkpt lat="46.09598" lon="4.6187">
        <ele>582.6</ele>
        <time>2020-10-24T08:24:37Z</time>
      </trkpt>
      <trkpt lat="46.09599" lon="4.61871">
        <ele>582.6</ele>
        <time>2020-10-24T08:24:38Z</time>
      </trkpt>
      <trkpt lat="46.09601" lon="4.61873">
        <ele>582.2</ele>
        <time>2020-10-24T08:24:39Z</time>
      </trkpt>
      <trkpt lat="46.09603" lon="4.61875">
        <ele>582.6</ele>
        <time>2020-10-24T08:24:40Z</time>
      </trkpt>
      <trkpt lat="46.09605" lon="4.61876">
        <ele>582.8</ele>
        <time>2020-10-24T08:24:41Z</time>
      </trkpt>
      <trkpt lat="46.09607" lon="4.61878">
        <ele>582.6</ele>
        <time>2020-10-24T08:24:42Z</time>
      </trkpt>
      <trkpt lat="46.09609" lon="4.6188">
        <ele>583.2</ele>
        <time>2020-10-24T08:24:43Z</time>
      </trkpt>
      <trkpt lat="46.09611" lon="4.61881">
        <ele>583.4</ele>
        <time>2020-10-24T08:24:44Z</time>
      </trkpt>
      <trkpt lat="46.09612" lon="4.61883">
        <ele>583.4</ele>
        <time>2020-10-24T08:24:45Z</time>
      </trkpt>
      <trkpt lat="46.09615" lon="4.61884">
        <ele>583.8</ele>
        <time>2020-10-24T08:24:46Z</time>
      </trkpt>
      <trkpt lat="46.09615" lon="4.61884">
        <ele>584</ele>
        <time>2020-10-24T08:24:47Z</time>
      </trkpt>
      <trkpt lat="46.09618" lon="4.61886">
        <ele>584.4</ele>
        <time>2020-10-24T08:24:48Z</time>
      </trkpt>
      <trkpt lat="46.0962" lon="4.61888">
        <ele>584.4</ele>
        <time>2020-10-24T08:24:49Z</time>
      </trkpt>
      <trkpt lat="46.09621" lon="4.61889">
        <ele>584.6</ele>
        <time>2020-10-24T08:24:50Z</time>
      </trkpt>
      <trkpt lat="46.09621" lon="4.61889">
        <ele>585.2</ele>
        <time>2020-10-24T08:24:51Z</time>
      </trkpt>
      <trkpt lat="46.09625" lon="4.61891">
        <ele>585.4</ele>
        <time>2020-10-24T08:24:52Z</time>
      </trkpt>
      <trkpt lat="46.09627" lon="4.61893">
        <ele>585.6</ele>
        <time>2020-10-24T08:24:53Z</time>
      </trkpt>
      <trkpt lat="46.09629" lon="4.61894">
        <ele>586.2</ele>
        <time>2020-10-24T08:24:54Z</time>
      </trkpt>
      <trkpt lat="46.09631" lon="4.61896">
        <ele>586</ele>
        <time>2020-10-24T08:24:55Z</time>
      </trkpt>
      <trkpt lat="46.09633" lon="4.61898">
        <ele>586</ele>
        <time>2020-10-24T08:24:56Z</time>
      </trkpt>
      <trkpt lat="46.09635" lon="4.61899">
        <ele>586.4</ele>
        <time>2020-10-24T08:24:57Z</time>
      </trkpt>
      <trkpt lat="46.09637" lon="4.61901">
        <ele>586.4</ele>
        <time>2020-10-24T08:24:58Z</time>
      </trkpt>
      <trkpt lat="46.0964" lon="4.61903">
        <ele>586.2</ele>
        <time>2020-10-24T08:24:59Z</time>
      </trkpt>
      <trkpt lat="46.09641" lon="4.61904">
        <ele>586.6</ele>
        <time>2020-10-24T08:25:00Z</time>
      </trkpt>
      <trkpt lat="46.09644" lon="4.61906">
        <ele>586.6</ele>
        <time>2020-10-24T08:25:01Z</time>
      </trkpt>
      <trkpt lat="46.09646" lon="4.61907">
        <ele>586.4</ele>
        <time>2020-10-24T08:25:02Z</time>
      </trkpt>
      <trkpt lat="46.09648" lon="4.61909">
        <ele>586.8</ele>
        <time>2020-10-24T08:25:03Z</time>
      </trkpt>
      <trkpt lat="46.0965" lon="4.61911">
        <ele>586.8</ele>
        <time>2020-10-24T08:25:04Z</time>
      </trkpt>
      <trkpt lat="46.09652" lon="4.61913">
        <ele>586.8</ele>
        <time>2020-10-24T08:25:05Z</time>
      </trkpt>
      <trkpt lat="46.09654" lon="4.61914">
        <ele>587.4</ele>
        <time>2020-10-24T08:25:06Z</time>
      </trkpt>
      <trkpt lat="46.09656" lon="4.61916">
        <ele>587.2</ele>
        <time>2020-10-24T08:25:07Z</time>
      </trkpt>
      <trkpt lat="46.09658" lon="4.61917">
        <ele>587.6</ele>
        <time>2020-10-24T08:25:08Z</time>
      </trkpt>
      <trkpt lat="46.0966" lon="4.61919">
        <ele>587.6</ele>
        <time>2020-10-24T08:25:09Z</time>
      </trkpt>
      <trkpt lat="46.09662" lon="4.6192">
        <ele>587.8</ele>
        <time>2020-10-24T08:25:10Z</time>
      </trkpt>
      <trkpt lat="46.09664" lon="4.61921">
        <ele>588</ele>
        <time>2020-10-24T08:25:11Z</time>
      </trkpt>
      <trkpt lat="46.09666" lon="4.61922">
        <ele>588</ele>
        <time>2020-10-24T08:25:12Z</time>
      </trkpt>
      <trkpt lat="46.09667" lon="4.61924">
        <ele>588</ele>
        <time>2020-10-24T08:25:13Z</time>
      </trkpt>
      <trkpt lat="46.09669" lon="4.61925">
        <ele>588.6</ele>
        <time>2020-10-24T08:25:14Z</time>
      </trkpt>
      <trkpt lat="46.09671" lon="4.61926">
        <ele>588.6</ele>
        <time>2020-10-24T08:25:15Z</time>
      </trkpt>
      <trkpt lat="46.09673" lon="4.61928">
        <ele>588.2</ele>
        <time>2020-10-24T08:25:16Z</time>
      </trkpt>
      <trkpt lat="46.09675" lon="4.61929">
        <ele>588.6</ele>
        <time>2020-10-24T08:25:17Z</time>
      </trkpt>
      <trkpt lat="46.09677" lon="4.6193">
        <ele>588.8</ele>
        <time>2020-10-24T08:25:18Z</time>
      </trkpt>
      <trkpt lat="46.09679" lon="4.61932">
        <ele>588.4</ele>
        <time>2020-10-24T08:25:19Z</time>
      </trkpt>
      <trkpt lat="46.09681" lon="4.61933">
        <ele>589</ele>
        <time>2020-10-24T08:25:20Z</time>
      </trkpt>
      <trkpt lat="46.09683" lon="4.61934">
        <ele>588.8</ele>
        <time>2020-10-24T08:25:21Z</time>
      </trkpt>
      <trkpt lat="46.09685" lon="4.61935">
        <ele>588.6</ele>
        <time>2020-10-24T08:25:22Z</time>
      </trkpt>
      <trkpt lat="46.09687" lon="4.61937">
        <ele>589.2</ele>
        <time>2020-10-24T08:25:23Z</time>
      </trkpt>
      <trkpt lat="46.0969" lon="4.61939">
        <ele>589.2</ele>
        <time>2020-10-24T08:25:24Z</time>
      </trkpt>
      <trkpt lat="46.09692" lon="4.6194">
        <ele>589.4</ele>
        <time>2020-10-24T08:25:25Z</time>
      </trkpt>
      <trkpt lat="46.09694" lon="4.61942">
        <ele>589.6</ele>
        <time>2020-10-24T08:25:26Z</time>
      </trkpt>
      <trkpt lat="46.09696" lon="4.61943">
        <ele>589.6</ele>
        <time>2020-10-24T08:25:27Z</time>
      </trkpt>
      <trkpt lat="46.09698" lon="4.61945">
        <ele>590</ele>
        <time>2020-10-24T08:25:28Z</time>
      </trkpt>
      <trkpt lat="46.097" lon="4.61946">
        <ele>590</ele>
        <time>2020-10-24T08:25:29Z</time>
      </trkpt>
      <trkpt lat="46.09702" lon="4.61948">
        <ele>589.8</ele>
        <time>2020-10-24T08:25:30Z</time>
      </trkpt>
      <trkpt lat="46.09704" lon="4.61949">
        <ele>590</ele>
        <time>2020-10-24T08:25:31Z</time>
      </trkpt>
      <trkpt lat="46.09706" lon="4.61951">
        <ele>590.2</ele>
        <time>2020-10-24T08:25:32Z</time>
      </trkpt>
      <trkpt lat="46.09709" lon="4.61953">
        <ele>590</ele>
        <time>2020-10-24T08:25:33Z</time>
      </trkpt>
      <trkpt lat="46.09711" lon="4.61955">
        <ele>590</ele>
        <time>2020-10-24T08:25:34Z</time>
      </trkpt>
      <trkpt lat="46.09713" lon="4.61956">
        <ele>590.2</ele>
        <time>2020-10-24T08:25:35Z</time>
      </trkpt>
      <trkpt lat="46.09715" lon="4.61958">
        <ele>590</ele>
        <time>2020-10-24T08:25:36Z</time>
      </trkpt>
      <trkpt lat="46.09717" lon="4.6196">
        <ele>590.2</ele>
        <time>2020-10-24T08:25:37Z</time>
      </trkpt>
      <trkpt lat="46.09719" lon="4.61962">
        <ele>590.2</ele>
        <time>2020-10-24T08:25:38Z</time>
      </trkpt>
      <trkpt lat="46.0972" lon="4.61964">
        <ele>590</ele>
        <time>2020-10-24T08:25:39Z</time>
      </trkpt>
      <trkpt lat="46.09722" lon="4.61967">
        <ele>590.2</ele>
        <time>2020-10-24T08:25:40Z</time>
      </trkpt>
      <trkpt lat="46.09724" lon="4.61969">
        <ele>590.2</ele>
        <time>2020-10-24T08:25:41Z</time>
      </trkpt>
      <trkpt lat="46.09725" lon="4.61971">
        <ele>590.2</ele>
        <time>2020-10-24T08:25:42Z</time>
      </trkpt>
      <trkpt lat="46.09727" lon="4.61973">
        <ele>590.6</ele>
        <time>2020-10-24T08:25:43Z</time>
      </trkpt>
      <trkpt lat="46.09729" lon="4.61975">
        <ele>591</ele>
        <time>2020-10-24T08:25:44Z</time>
      </trkpt>
      <trkpt lat="46.09731" lon="4.61977">
        <ele>591</ele>
        <time>2020-10-24T08:25:45Z</time>
      </trkpt>
      <trkpt lat="46.09733" lon="4.61979">
        <ele>591.2</ele>
        <time>2020-10-24T08:25:46Z</time>
      </trkpt>
      <trkpt lat="46.09736" lon="4.61981">
        <ele>591</ele>
        <time>2020-10-24T08:25:47Z</time>
      </trkpt>
      <trkpt lat="46.09737" lon="4.61983">
        <ele>590.6</ele>
        <time>2020-10-24T08:25:48Z</time>
      </trkpt>
      <trkpt lat="46.0974" lon="4.61984">
        <ele>590.8</ele>
        <time>2020-10-24T08:25:49Z</time>
      </trkpt>
      <trkpt lat="46.09742" lon="4.61986">
        <ele>590.6</ele>
        <time>2020-10-24T08:25:50Z</time>
      </trkpt>
      <trkpt lat="46.09744" lon="4.61987">
        <ele>590.4</ele>
        <time>2020-10-24T08:25:51Z</time>
      </trkpt>
      <trkpt lat="46.09747" lon="4.61988">
        <ele>590.6</ele>
        <time>2020-10-24T08:25:52Z</time>
      </trkpt>
      <trkpt lat="46.09749" lon="4.6199">
        <ele>590.4</ele>
        <time>2020-10-24T08:25:53Z</time>
      </trkpt>
      <trkpt lat="46.09751" lon="4.61992">
        <ele>590.2</ele>
        <time>2020-10-24T08:25:54Z</time>
      </trkpt>
      <trkpt lat="46.09754" lon="4.61994">
        <ele>590.4</ele>
        <time>2020-10-24T08:25:55Z</time>
      </trkpt>
      <trkpt lat="46.09756" lon="4.61996">
        <ele>590.2</ele>
        <time>2020-10-24T08:25:56Z</time>
      </trkpt>
      <trkpt lat="46.09758" lon="4.61998">
        <ele>589.8</ele>
        <time>2020-10-24T08:25:57Z</time>
      </trkpt>
      <trkpt lat="46.0976" lon="4.61999">
        <ele>590.4</ele>
        <time>2020-10-24T08:25:58Z</time>
      </trkpt>
      <trkpt lat="46.09762" lon="4.62001">
        <ele>590.2</ele>
        <time>2020-10-24T08:25:59Z</time>
      </trkpt>
      <trkpt lat="46.09764" lon="4.62003">
        <ele>590</ele>
        <time>2020-10-24T08:26:00Z</time>
      </trkpt>
      <trkpt lat="46.09766" lon="4.62006">
        <ele>590.2</ele>
        <time>2020-10-24T08:26:01Z</time>
      </trkpt>
      <trkpt lat="46.09768" lon="4.62008">
        <ele>590</ele>
        <time>2020-10-24T08:26:02Z</time>
      </trkpt>
      <trkpt lat="46.0977" lon="4.62011">
        <ele>589.8</ele>
        <time>2020-10-24T08:26:03Z</time>
      </trkpt>
      <trkpt lat="46.09772" lon="4.62013">
        <ele>589.8</ele>
        <time>2020-10-24T08:26:04Z</time>
      </trkpt>
      <trkpt lat="46.09774" lon="4.62016">
        <ele>589.4</ele>
        <time>2020-10-24T08:26:05Z</time>
      </trkpt>
      <trkpt lat="46.09776" lon="4.62018">
        <ele>589.2</ele>
        <time>2020-10-24T08:26:06Z</time>
      </trkpt>
      <trkpt lat="46.09778" lon="4.62021">
        <ele>589.2</ele>
        <time>2020-10-24T08:26:07Z</time>
      </trkpt>
      <trkpt lat="46.0978" lon="4.62023">
        <ele>588.8</ele>
        <time>2020-10-24T08:26:08Z</time>
      </trkpt>
      <trkpt lat="46.09782" lon="4.62025">
        <ele>588.6</ele>
        <time>2020-10-24T08:26:09Z</time>
      </trkpt>
      <trkpt lat="46.09784" lon="4.62027">
        <ele>588.8</ele>
        <time>2020-10-24T08:26:10Z</time>
      </trkpt>
      <trkpt lat="46.09786" lon="4.62029">
        <ele>588.4</ele>
        <time>2020-10-24T08:26:11Z</time>
      </trkpt>
      <trkpt lat="46.09789" lon="4.62031">
        <ele>588</ele>
        <time>2020-10-24T08:26:12Z</time>
      </trkpt>
      <trkpt lat="46.09791" lon="4.62033">
        <ele>588</ele>
        <time>2020-10-24T08:26:13Z</time>
      </trkpt>
      <trkpt lat="46.09794" lon="4.62035">
        <ele>587.8</ele>
        <time>2020-10-24T08:26:14Z</time>
      </trkpt>
      <trkpt lat="46.09796" lon="4.62036">
        <ele>587.2</ele>
        <time>2020-10-24T08:26:15Z</time>
      </trkpt>
      <trkpt lat="46.09799" lon="4.62038">
        <ele>587.4</ele>
        <time>2020-10-24T08:26:16Z</time>
      </trkpt>
      <trkpt lat="46.09801" lon="4.6204">
        <ele>587</ele>
        <time>2020-10-24T08:26:17Z</time>
      </trkpt>
      <trkpt lat="46.09803" lon="4.62041">
        <ele>587</ele>
        <time>2020-10-24T08:26:18Z</time>
      </trkpt>
      <trkpt lat="46.09806" lon="4.62043">
        <ele>587</ele>
        <time>2020-10-24T08:26:19Z</time>
      </trkpt>
      <trkpt lat="46.09808" lon="4.62044">
        <ele>586.6</ele>
        <time>2020-10-24T08:26:20Z</time>
      </trkpt>
      <trkpt lat="46.0981" lon="4.62046">
        <ele>586.8</ele>
        <time>2020-10-24T08:26:21Z</time>
      </trkpt>
      <trkpt lat="46.09813" lon="4.62047">
        <ele>586.6</ele>
        <time>2020-10-24T08:26:22Z</time>
      </trkpt>
      <trkpt lat="46.09815" lon="4.62048">
        <ele>586.4</ele>
        <time>2020-10-24T08:26:23Z</time>
      </trkpt>
      <trkpt lat="46.09817" lon="4.6205">
        <ele>586.4</ele>
        <time>2020-10-24T08:26:24Z</time>
      </trkpt>
      <trkpt lat="46.0982" lon="4.62051">
        <ele>586.2</ele>
        <time>2020-10-24T08:26:25Z</time>
      </trkpt>
      <trkpt lat="46.09822" lon="4.62052">
        <ele>585.8</ele>
        <time>2020-10-24T08:26:26Z</time>
      </trkpt>
      <trkpt lat="46.09825" lon="4.62054">
        <ele>586</ele>
        <time>2020-10-24T08:26:27Z</time>
      </trkpt>
      <trkpt lat="46.09827" lon="4.62055">
        <ele>586</ele>
        <time>2020-10-24T08:26:28Z</time>
      </trkpt>
      <trkpt lat="46.0983" lon="4.62056">
        <ele>585.8</ele>
        <time>2020-10-24T08:26:29Z</time>
      </trkpt>
      <trkpt lat="46.09833" lon="4.62057">
        <ele>586</ele>
        <time>2020-10-24T08:26:30Z</time>
      </trkpt>
      <trkpt lat="46.09835" lon="4.62059">
        <ele>585.8</ele>
        <time>2020-10-24T08:26:31Z</time>
      </trkpt>
      <trkpt lat="46.09838" lon="4.6206">
        <ele>585.4</ele>
        <time>2020-10-24T08:26:32Z</time>
      </trkpt>
      <trkpt lat="46.0984" lon="4.62061">
        <ele>585.8</ele>
        <time>2020-10-24T08:26:33Z</time>
      </trkpt>
      <trkpt lat="46.09843" lon="4.62062">
        <ele>585.6</ele>
        <time>2020-10-24T08:26:34Z</time>
      </trkpt>
      <trkpt lat="46.09846" lon="4.62063">
        <ele>585.8</ele>
        <time>2020-10-24T08:26:35Z</time>
      </trkpt>
      <trkpt lat="46.09848" lon="4.62063">
        <ele>586</ele>
        <time>2020-10-24T08:26:36Z</time>
      </trkpt>
      <trkpt lat="46.09851" lon="4.62064">
        <ele>585.8</ele>
        <time>2020-10-24T08:26:37Z</time>
      </trkpt>
      <trkpt lat="46.09853" lon="4.62064">
        <ele>586.2</ele>
        <time>2020-10-24T08:26:38Z</time>
      </trkpt>
      <trkpt lat="46.09856" lon="4.62064">
        <ele>586.2</ele>
        <time>2020-10-24T08:26:39Z</time>
      </trkpt>
      <trkpt lat="46.09858" lon="4.62065">
        <ele>585.8</ele>
        <time>2020-10-24T08:26:40Z</time>
      </trkpt>
      <trkpt lat="46.0986" lon="4.62065">
        <ele>586.2</ele>
        <time>2020-10-24T08:26:41Z</time>
      </trkpt>
      <trkpt lat="46.09863" lon="4.62066">
        <ele>586.2</ele>
        <time>2020-10-24T08:26:42Z</time>
      </trkpt>
      <trkpt lat="46.09865" lon="4.62067">
        <ele>586</ele>
        <time>2020-10-24T08:26:43Z</time>
      </trkpt>
      <trkpt lat="46.09868" lon="4.62067">
        <ele>586.4</ele>
        <time>2020-10-24T08:26:44Z</time>
      </trkpt>
      <trkpt lat="46.0987" lon="4.62068">
        <ele>586.4</ele>
        <time>2020-10-24T08:26:45Z</time>
      </trkpt>
      <trkpt lat="46.09873" lon="4.62068">
        <ele>586.2</ele>
        <time>2020-10-24T08:26:46Z</time>
      </trkpt>
      <trkpt lat="46.09875" lon="4.62069">
        <ele>586.6</ele>
        <time>2020-10-24T08:26:47Z</time>
      </trkpt>
      <trkpt lat="46.09877" lon="4.6207">
        <ele>586.6</ele>
        <time>2020-10-24T08:26:48Z</time>
      </trkpt>
      <trkpt lat="46.0988" lon="4.62071">
        <ele>586.4</ele>
        <time>2020-10-24T08:26:49Z</time>
      </trkpt>
      <trkpt lat="46.09882" lon="4.62072">
        <ele>587</ele>
        <time>2020-10-24T08:26:50Z</time>
      </trkpt>
      <trkpt lat="46.09885" lon="4.62072">
        <ele>587</ele>
        <time>2020-10-24T08:26:51Z</time>
      </trkpt>
      <trkpt lat="46.09887" lon="4.62073">
        <ele>587.2</ele>
        <time>2020-10-24T08:26:52Z</time>
      </trkpt>
      <trkpt lat="46.09889" lon="4.62074">
        <ele>587.6</ele>
        <time>2020-10-24T08:26:53Z</time>
      </trkpt>
      <trkpt lat="46.09891" lon="4.62075">
        <ele>587.6</ele>
        <time>2020-10-24T08:26:54Z</time>
      </trkpt>
      <trkpt lat="46.09893" lon="4.62076">
        <ele>587.8</ele>
        <time>2020-10-24T08:26:55Z</time>
      </trkpt>
      <trkpt lat="46.09896" lon="4.62077">
        <ele>588</ele>
        <time>2020-10-24T08:26:56Z</time>
      </trkpt>
      <trkpt lat="46.09898" lon="4.62078">
        <ele>588.2</ele>
        <time>2020-10-24T08:26:57Z</time>
      </trkpt>
      <trkpt lat="46.09898" lon="4.62078">
        <ele>588.6</ele>
        <time>2020-10-24T08:26:58Z</time>
      </trkpt>
      <trkpt lat="46.09901" lon="4.6208">
        <ele>588.8</ele>
        <time>2020-10-24T08:26:59Z</time>
      </trkpt>
      <trkpt lat="46.09901" lon="4.6208">
        <ele>589</ele>
        <time>2020-10-24T08:27:00Z</time>
      </trkpt>
      <trkpt lat="46.09903" lon="4.62081">
        <ele>589.2</ele>
        <time>2020-10-24T08:27:01Z</time>
      </trkpt>
      <trkpt lat="46.09903" lon="4.62081">
        <ele>589.2</ele>
        <time>2020-10-24T08:27:02Z</time>
      </trkpt>
      <trkpt lat="46.09905" lon="4.62083">
        <ele>589.6</ele>
        <time>2020-10-24T08:27:03Z</time>
      </trkpt>
      <trkpt lat="46.09905" lon="4.62083">
        <ele>590</ele>
        <time>2020-10-24T08:27:04Z</time>
      </trkpt>
      <trkpt lat="46.09908" lon="4.62085">
        <ele>590.6</ele>
        <time>2020-10-24T08:27:05Z</time>
      </trkpt>
      <trkpt lat="46.09908" lon="4.62085">
        <ele>590.8</ele>
        <time>2020-10-24T08:27:06Z</time>
      </trkpt>
      <trkpt lat="46.0991" lon="4.62086">
        <ele>591</ele>
        <time>2020-10-24T08:27:07Z</time>
      </trkpt>
      <trkpt lat="46.0991" lon="4.62086">
        <ele>591</ele>
        <time>2020-10-24T08:27:08Z</time>
      </trkpt>
      <trkpt lat="46.09912" lon="4.62088">
        <ele>591.2</ele>
        <time>2020-10-24T08:27:09Z</time>
      </trkpt>
      <trkpt lat="46.09912" lon="4.62088">
        <ele>591.2</ele>
        <time>2020-10-24T08:27:10Z</time>
      </trkpt>
      <trkpt lat="46.09914" lon="4.6209">
        <ele>591.4</ele>
        <time>2020-10-24T08:27:11Z</time>
      </trkpt>
      <trkpt lat="46.09914" lon="4.6209">
        <ele>591.6</ele>
        <time>2020-10-24T08:27:12Z</time>
      </trkpt>
      <trkpt lat="46.09916" lon="4.62091">
        <ele>591.4</ele>
        <time>2020-10-24T08:27:13Z</time>
      </trkpt>
      <trkpt lat="46.09916" lon="4.62091">
        <ele>591.4</ele>
        <time>2020-10-24T08:27:14Z</time>
      </trkpt>
      <trkpt lat="46.09919" lon="4.62094">
        <ele>591.4</ele>
        <time>2020-10-24T08:27:15Z</time>
      </trkpt>
      <trkpt lat="46.09919" lon="4.62094">
        <ele>591.4</ele>
        <time>2020-10-24T08:27:16Z</time>
      </trkpt>
      <trkpt lat="46.09921" lon="4.62096">
        <ele>591.4</ele>
        <time>2020-10-24T08:27:17Z</time>
      </trkpt>
      <trkpt lat="46.09921" lon="4.62096">
        <ele>591.6</ele>
        <time>2020-10-24T08:27:18Z</time>
      </trkpt>
      <trkpt lat="46.09924" lon="4.621">
        <ele>591.6</ele>
        <time>2020-10-24T08:27:19Z</time>
      </trkpt>
      <trkpt lat="46.09924" lon="4.621">
        <ele>591.6</ele>
        <time>2020-10-24T08:27:20Z</time>
      </trkpt>
      <trkpt lat="46.09926" lon="4.62102">
        <ele>591.6</ele>
        <time>2020-10-24T08:27:21Z</time>
      </trkpt>
      <trkpt lat="46.09926" lon="4.62102">
        <ele>591.6</ele>
        <time>2020-10-24T08:27:22Z</time>
      </trkpt>
      <trkpt lat="46.09928" lon="4.62105">
        <ele>591.6</ele>
        <time>2020-10-24T08:27:23Z</time>
      </trkpt>
      <trkpt lat="46.09928" lon="4.62105">
        <ele>591.6</ele>
        <time>2020-10-24T08:27:24Z</time>
      </trkpt>
      <trkpt lat="46.0993" lon="4.62108">
        <ele>591.4</ele>
        <time>2020-10-24T08:27:25Z</time>
      </trkpt>
      <trkpt lat="46.0993" lon="4.62108">
        <ele>591.4</ele>
        <time>2020-10-24T08:27:26Z</time>
      </trkpt>
      <trkpt lat="46.09932" lon="4.62111">
        <ele>591.2</ele>
        <time>2020-10-24T08:27:27Z</time>
      </trkpt>
      <trkpt lat="46.09932" lon="4.62111">
        <ele>591.2</ele>
        <time>2020-10-24T08:27:28Z</time>
      </trkpt>
      <trkpt lat="46.09934" lon="4.62114">
        <ele>591.2</ele>
        <time>2020-10-24T08:27:29Z</time>
      </trkpt>
      <trkpt lat="46.09934" lon="4.62114">
        <ele>591.4</ele>
        <time>2020-10-24T08:27:30Z</time>
      </trkpt>
      <trkpt lat="46.09936" lon="4.62117">
        <ele>591.2</ele>
        <time>2020-10-24T08:27:31Z</time>
      </trkpt>
      <trkpt lat="46.09936" lon="4.62117">
        <ele>591.4</ele>
        <time>2020-10-24T08:27:32Z</time>
      </trkpt>
      <trkpt lat="46.09939" lon="4.6212">
        <ele>591.4</ele>
        <time>2020-10-24T08:27:33Z</time>
      </trkpt>
      <trkpt lat="46.09939" lon="4.6212">
        <ele>591.4</ele>
        <time>2020-10-24T08:27:34Z</time>
      </trkpt>
      <trkpt lat="46.09939" lon="4.6212">
        <ele>591.4</ele>
        <time>2020-10-24T08:27:35Z</time>
      </trkpt>
      <trkpt lat="46.09939" lon="4.6212">
        <ele>591.4</ele>
        <time>2020-10-24T08:27:36Z</time>
      </trkpt>
      <trkpt lat="46.09939" lon="4.6212">
        <ele>591</ele>
        <time>2020-10-24T08:27:37Z</time>
      </trkpt>
      <trkpt lat="46.09941" lon="4.62121">
        <ele>591.2</ele>
        <time>2020-10-24T08:27:38Z</time>
      </trkpt>
      <trkpt lat="46.09941" lon="4.62121">
        <ele>591</ele>
        <time>2020-10-24T08:27:39Z</time>
      </trkpt>
      <trkpt lat="46.09944" lon="4.62124">
        <ele>591</ele>
        <time>2020-10-24T08:27:40Z</time>
      </trkpt>
      <trkpt lat="46.09944" lon="4.62124">
        <ele>590.8</ele>
        <time>2020-10-24T08:27:41Z</time>
      </trkpt>
      <trkpt lat="46.09947" lon="4.62126">
        <ele>590.8</ele>
        <time>2020-10-24T08:27:42Z</time>
      </trkpt>
      <trkpt lat="46.09947" lon="4.62126">
        <ele>590.8</ele>
        <time>2020-10-24T08:27:43Z</time>
      </trkpt>
      <trkpt lat="46.09949" lon="4.62129">
        <ele>590.8</ele>
        <time>2020-10-24T08:27:44Z</time>
      </trkpt>
      <trkpt lat="46.09949" lon="4.62129">
        <ele>590.6</ele>
        <time>2020-10-24T08:27:45Z</time>
      </trkpt>
      <trkpt lat="46.09952" lon="4.62132">
        <ele>590.6</ele>
        <time>2020-10-24T08:27:46Z</time>
      </trkpt>
      <trkpt lat="46.09952" lon="4.62132">
        <ele>590.6</ele>
        <time>2020-10-24T08:27:47Z</time>
      </trkpt>
      <trkpt lat="46.09955" lon="4.62135">
        <ele>590.8</ele>
        <time>2020-10-24T08:27:48Z</time>
      </trkpt>
      <trkpt lat="46.09957" lon="4.62137">
        <ele>590.6</ele>
        <time>2020-10-24T08:27:49Z</time>
      </trkpt>
      <trkpt lat="46.09959" lon="4.62139">
        <ele>590.8</ele>
        <time>2020-10-24T08:27:50Z</time>
      </trkpt>
      <trkpt lat="46.09961" lon="4.62142">
        <ele>590.6</ele>
        <time>2020-10-24T08:27:51Z</time>
      </trkpt>
      <trkpt lat="46.09963" lon="4.62144">
        <ele>590.4</ele>
        <time>2020-10-24T08:27:52Z</time>
      </trkpt>
      <trkpt lat="46.09965" lon="4.62147">
        <ele>590.6</ele>
        <time>2020-10-24T08:27:53Z</time>
      </trkpt>
      <trkpt lat="46.09967" lon="4.62149">
        <ele>590</ele>
        <time>2020-10-24T08:27:54Z</time>
      </trkpt>
      <trkpt lat="46.09969" lon="4.62152">
        <ele>589.6</ele>
        <time>2020-10-24T08:27:55Z</time>
      </trkpt>
      <trkpt lat="46.09971" lon="4.62154">
        <ele>589.6</ele>
        <time>2020-10-24T08:27:56Z</time>
      </trkpt>
      <trkpt lat="46.09973" lon="4.62157">
        <ele>589.2</ele>
        <time>2020-10-24T08:27:57Z</time>
      </trkpt>
      <trkpt lat="46.09976" lon="4.62159">
        <ele>588.6</ele>
        <time>2020-10-24T08:27:58Z</time>
      </trkpt>
      <trkpt lat="46.09978" lon="4.6216">
        <ele>588.8</ele>
        <time>2020-10-24T08:27:59Z</time>
      </trkpt>
      <trkpt lat="46.09981" lon="4.62162">
        <ele>588.4</ele>
        <time>2020-10-24T08:28:00Z</time>
      </trkpt>
      <trkpt lat="46.09983" lon="4.62165">
        <ele>588</ele>
        <time>2020-10-24T08:28:01Z</time>
      </trkpt>
      <trkpt lat="46.09985" lon="4.62167">
        <ele>588</ele>
        <time>2020-10-24T08:28:02Z</time>
      </trkpt>
      <trkpt lat="46.09987" lon="4.6217">
        <ele>587.6</ele>
        <time>2020-10-24T08:28:03Z</time>
      </trkpt>
      <trkpt lat="46.09989" lon="4.62173">
        <ele>587.2</ele>
        <time>2020-10-24T08:28:04Z</time>
      </trkpt>
      <trkpt lat="46.0999" lon="4.62176">
        <ele>587</ele>
        <time>2020-10-24T08:28:05Z</time>
      </trkpt>
      <trkpt lat="46.09992" lon="4.62179">
        <ele>586.8</ele>
        <time>2020-10-24T08:28:06Z</time>
      </trkpt>
      <trkpt lat="46.09993" lon="4.62182">
        <ele>586.2</ele>
        <time>2020-10-24T08:28:07Z</time>
      </trkpt>
      <trkpt lat="46.09994" lon="4.62186">
        <ele>586</ele>
        <time>2020-10-24T08:28:08Z</time>
      </trkpt>
      <trkpt lat="46.09996" lon="4.62189">
        <ele>585.8</ele>
        <time>2020-10-24T08:28:09Z</time>
      </trkpt>
      <trkpt lat="46.09997" lon="4.62192">
        <ele>585.4</ele>
        <time>2020-10-24T08:28:10Z</time>
      </trkpt>
      <trkpt lat="46.09998" lon="4.62195">
        <ele>585</ele>
        <time>2020-10-24T08:28:11Z</time>
      </trkpt>
      <trkpt lat="46.1" lon="4.62198">
        <ele>584.8</ele>
        <time>2020-10-24T08:28:12Z</time>
      </trkpt>
      <trkpt lat="46.10001" lon="4.62201">
        <ele>584.2</ele>
        <time>2020-10-24T08:28:13Z</time>
      </trkpt>
      <trkpt lat="46.10002" lon="4.62204">
        <ele>583.8</ele>
        <time>2020-10-24T08:28:14Z</time>
      </trkpt>
      <trkpt lat="46.10003" lon="4.62207">
        <ele>583.6</ele>
        <time>2020-10-24T08:28:15Z</time>
      </trkpt>
      <trkpt lat="46.10005" lon="4.6221">
        <ele>583</ele>
        <time>2020-10-24T08:28:16Z</time>
      </trkpt>
      <trkpt lat="46.10006" lon="4.62213">
        <ele>582.4</ele>
        <time>2020-10-24T08:28:17Z</time>
      </trkpt>
      <trkpt lat="46.10008" lon="4.62216">
        <ele>582.4</ele>
        <time>2020-10-24T08:28:18Z</time>
      </trkpt>
      <trkpt lat="46.10009" lon="4.62219">
        <ele>581.8</ele>
        <time>2020-10-24T08:28:19Z</time>
      </trkpt>
      <trkpt lat="46.1001" lon="4.62222">
        <ele>581.6</ele>
        <time>2020-10-24T08:28:20Z</time>
      </trkpt>
      <trkpt lat="46.10011" lon="4.62226">
        <ele>581.4</ele>
        <time>2020-10-24T08:28:21Z</time>
      </trkpt>
      <trkpt lat="46.10012" lon="4.62229">
        <ele>581</ele>
        <time>2020-10-24T08:28:22Z</time>
      </trkpt>
      <trkpt lat="46.10014" lon="4.62233">
        <ele>580.4</ele>
        <time>2020-10-24T08:28:23Z</time>
      </trkpt>
      <trkpt lat="46.10016" lon="4.62237">
        <ele>580.4</ele>
        <time>2020-10-24T08:28:24Z</time>
      </trkpt>
      <trkpt lat="46.10018" lon="4.6224">
        <ele>579.8</ele>
        <time>2020-10-24T08:28:25Z</time>
      </trkpt>
      <trkpt lat="46.10019" lon="4.62243">
        <ele>579.6</ele>
        <time>2020-10-24T08:28:26Z</time>
      </trkpt>
      <trkpt lat="46.10021" lon="4.62246">
        <ele>579.6</ele>
        <time>2020-10-24T08:28:27Z</time>
      </trkpt>
      <trkpt lat="46.10023" lon="4.62249">
        <ele>579.2</ele>
        <time>2020-10-24T08:28:28Z</time>
      </trkpt>
      <trkpt lat="46.10024" lon="4.62252">
        <ele>579</ele>
        <time>2020-10-24T08:28:29Z</time>
      </trkpt>
      <trkpt lat="46.10025" lon="4.62255">
        <ele>579</ele>
        <time>2020-10-24T08:28:30Z</time>
      </trkpt>
      <trkpt lat="46.10027" lon="4.62258">
        <ele>578.6</ele>
        <time>2020-10-24T08:28:31Z</time>
      </trkpt>
      <trkpt lat="46.10028" lon="4.62261">
        <ele>578.2</ele>
        <time>2020-10-24T08:28:32Z</time>
      </trkpt>
      <trkpt lat="46.1003" lon="4.62263">
        <ele>578</ele>
        <time>2020-10-24T08:28:33Z</time>
      </trkpt>
      <trkpt lat="46.10032" lon="4.62265">
        <ele>577.8</ele>
        <time>2020-10-24T08:28:34Z</time>
      </trkpt>
      <trkpt lat="46.10034" lon="4.62268">
        <ele>577.4</ele>
        <time>2020-10-24T08:28:35Z</time>
      </trkpt>
      <trkpt lat="46.10035" lon="4.6227">
        <ele>577.4</ele>
        <time>2020-10-24T08:28:36Z</time>
      </trkpt>
      <trkpt lat="46.10037" lon="4.62272">
        <ele>577</ele>
        <time>2020-10-24T08:28:37Z</time>
      </trkpt>
      <trkpt lat="46.10039" lon="4.62275">
        <ele>576.6</ele>
        <time>2020-10-24T08:28:38Z</time>
      </trkpt>
      <trkpt lat="46.10041" lon="4.62277">
        <ele>576.6</ele>
        <time>2020-10-24T08:28:39Z</time>
      </trkpt>
      <trkpt lat="46.10043" lon="4.6228">
        <ele>576.2</ele>
        <time>2020-10-24T08:28:40Z</time>
      </trkpt>
      <trkpt lat="46.10045" lon="4.62283">
        <ele>575.8</ele>
        <time>2020-10-24T08:28:41Z</time>
      </trkpt>
      <trkpt lat="46.10046" lon="4.62286">
        <ele>576</ele>
        <time>2020-10-24T08:28:42Z</time>
      </trkpt>
      <trkpt lat="46.10048" lon="4.62289">
        <ele>575.6</ele>
        <time>2020-10-24T08:28:43Z</time>
      </trkpt>
      <trkpt lat="46.10049" lon="4.62292">
        <ele>575.6</ele>
        <time>2020-10-24T08:28:44Z</time>
      </trkpt>
      <trkpt lat="46.10051" lon="4.62295">
        <ele>575.6</ele>
        <time>2020-10-24T08:28:45Z</time>
      </trkpt>
      <trkpt lat="46.10052" lon="4.62299">
        <ele>575</ele>
        <time>2020-10-24T08:28:46Z</time>
      </trkpt>
      <trkpt lat="46.10054" lon="4.62302">
        <ele>574.8</ele>
        <time>2020-10-24T08:28:47Z</time>
      </trkpt>
      <trkpt lat="46.10055" lon="4.62305">
        <ele>574.8</ele>
        <time>2020-10-24T08:28:48Z</time>
      </trkpt>
      <trkpt lat="46.10057" lon="4.62309">
        <ele>574.2</ele>
        <time>2020-10-24T08:28:49Z</time>
      </trkpt>
      <trkpt lat="46.10059" lon="4.62311">
        <ele>574</ele>
        <time>2020-10-24T08:28:50Z</time>
      </trkpt>
      <trkpt lat="46.1006" lon="4.62314">
        <ele>574</ele>
        <time>2020-10-24T08:28:51Z</time>
      </trkpt>
      <trkpt lat="46.10062" lon="4.62317">
        <ele>573.6</ele>
        <time>2020-10-24T08:28:52Z</time>
      </trkpt>
      <trkpt lat="46.10063" lon="4.62319">
        <ele>573</ele>
        <time>2020-10-24T08:28:53Z</time>
      </trkpt>
      <trkpt lat="46.10065" lon="4.62321">
        <ele>573.2</ele>
        <time>2020-10-24T08:28:54Z</time>
      </trkpt>
      <trkpt lat="46.10067" lon="4.62322">
        <ele>572.6</ele>
        <time>2020-10-24T08:28:55Z</time>
      </trkpt>
      <trkpt lat="46.10069" lon="4.62323">
        <ele>572.2</ele>
        <time>2020-10-24T08:28:56Z</time>
      </trkpt>
      <trkpt lat="46.10071" lon="4.62324">
        <ele>572.2</ele>
        <time>2020-10-24T08:28:57Z</time>
      </trkpt>
      <trkpt lat="46.10073" lon="4.62324">
        <ele>571.6</ele>
        <time>2020-10-24T08:28:58Z</time>
      </trkpt>
      <trkpt lat="46.10075" lon="4.62325">
        <ele>571.4</ele>
        <time>2020-10-24T08:28:59Z</time>
      </trkpt>
      <trkpt lat="46.10077" lon="4.62325">
        <ele>571.4</ele>
        <time>2020-10-24T08:29:00Z</time>
      </trkpt>
      <trkpt lat="46.10079" lon="4.62325">
        <ele>570.8</ele>
        <time>2020-10-24T08:29:01Z</time>
      </trkpt>
      <trkpt lat="46.10082" lon="4.62326">
        <ele>570.6</ele>
        <time>2020-10-24T08:29:02Z</time>
      </trkpt>
      <trkpt lat="46.10084" lon="4.62326">
        <ele>570.2</ele>
        <time>2020-10-24T08:29:03Z</time>
      </trkpt>
      <trkpt lat="46.10086" lon="4.62326">
        <ele>570</ele>
        <time>2020-10-24T08:29:04Z</time>
      </trkpt>
      <trkpt lat="46.10089" lon="4.62326">
        <ele>569.4</ele>
        <time>2020-10-24T08:29:05Z</time>
      </trkpt>
      <trkpt lat="46.10091" lon="4.62327">
        <ele>569</ele>
        <time>2020-10-24T08:29:06Z</time>
      </trkpt>
      <trkpt lat="46.10093" lon="4.62328">
        <ele>568.6</ele>
        <time>2020-10-24T08:29:07Z</time>
      </trkpt>
      <trkpt lat="46.10096" lon="4.62329">
        <ele>568.2</ele>
        <time>2020-10-24T08:29:08Z</time>
      </trkpt>
      <trkpt lat="46.10098" lon="4.6233">
        <ele>568</ele>
        <time>2020-10-24T08:29:09Z</time>
      </trkpt>
      <trkpt lat="46.101" lon="4.62332">
        <ele>567.2</ele>
        <time>2020-10-24T08:29:10Z</time>
      </trkpt>
      <trkpt lat="46.10103" lon="4.62334">
        <ele>566.4</ele>
        <time>2020-10-24T08:29:11Z</time>
      </trkpt>
      <trkpt lat="46.10103" lon="4.62334">
        <ele>565.8</ele>
        <time>2020-10-24T08:29:12Z</time>
      </trkpt>
      <trkpt lat="46.10106" lon="4.62336">
        <ele>565.8</ele>
        <time>2020-10-24T08:29:13Z</time>
      </trkpt>
      <trkpt lat="46.10108" lon="4.62337">
        <ele>565.4</ele>
        <time>2020-10-24T08:29:14Z</time>
      </trkpt>
      <trkpt lat="46.1011" lon="4.62339">
        <ele>565</ele>
        <time>2020-10-24T08:29:15Z</time>
      </trkpt>
      <trkpt lat="46.10113" lon="4.6234">
        <ele>564.2</ele>
        <time>2020-10-24T08:29:16Z</time>
      </trkpt>
      <trkpt lat="46.10115" lon="4.62341">
        <ele>563.8</ele>
        <time>2020-10-24T08:29:17Z</time>
      </trkpt>
      <trkpt lat="46.10117" lon="4.62342">
        <ele>563.2</ele>
        <time>2020-10-24T08:29:18Z</time>
      </trkpt>
      <trkpt lat="46.1012" lon="4.62343">
        <ele>562.8</ele>
        <time>2020-10-24T08:29:19Z</time>
      </trkpt>
      <trkpt lat="46.10122" lon="4.62344">
        <ele>562</ele>
        <time>2020-10-24T08:29:20Z</time>
      </trkpt>
      <trkpt lat="46.10125" lon="4.62345">
        <ele>561.6</ele>
        <time>2020-10-24T08:29:21Z</time>
      </trkpt>
      <trkpt lat="46.10128" lon="4.62347">
        <ele>560.8</ele>
        <time>2020-10-24T08:29:22Z</time>
      </trkpt>
      <trkpt lat="46.10129" lon="4.62348">
        <ele>560.4</ele>
        <time>2020-10-24T08:29:23Z</time>
      </trkpt>
      <trkpt lat="46.10132" lon="4.62348">
        <ele>559.4</ele>
        <time>2020-10-24T08:29:24Z</time>
      </trkpt>
      <trkpt lat="46.10134" lon="4.62347">
        <ele>559</ele>
        <time>2020-10-24T08:29:25Z</time>
      </trkpt>
      <trkpt lat="46.10136" lon="4.62347">
        <ele>558.4</ele>
        <time>2020-10-24T08:29:26Z</time>
      </trkpt>
      <trkpt lat="46.10139" lon="4.62346">
        <ele>557.6</ele>
        <time>2020-10-24T08:29:27Z</time>
      </trkpt>
      <trkpt lat="46.10141" lon="4.62345">
        <ele>557.2</ele>
        <time>2020-10-24T08:29:28Z</time>
      </trkpt>
      <trkpt lat="46.10144" lon="4.62344">
        <ele>556.4</ele>
        <time>2020-10-24T08:29:29Z</time>
      </trkpt>
      <trkpt lat="46.10146" lon="4.62343">
        <ele>556</ele>
        <time>2020-10-24T08:29:30Z</time>
      </trkpt>
      <trkpt lat="46.10149" lon="4.62343">
        <ele>555.6</ele>
        <time>2020-10-24T08:29:31Z</time>
      </trkpt>
      <trkpt lat="46.10152" lon="4.62343">
        <ele>554.8</ele>
        <time>2020-10-24T08:29:32Z</time>
      </trkpt>
      <trkpt lat="46.10154" lon="4.62343">
        <ele>554.6</ele>
        <time>2020-10-24T08:29:33Z</time>
      </trkpt>
      <trkpt lat="46.10156" lon="4.62343">
        <ele>554</ele>
        <time>2020-10-24T08:29:34Z</time>
      </trkpt>
      <trkpt lat="46.10158" lon="4.62343">
        <ele>553.6</ele>
        <time>2020-10-24T08:29:35Z</time>
      </trkpt>
      <trkpt lat="46.10161" lon="4.62342">
        <ele>552.8</ele>
        <time>2020-10-24T08:29:36Z</time>
      </trkpt>
      <trkpt lat="46.10163" lon="4.62342">
        <ele>552</ele>
        <time>2020-10-24T08:29:37Z</time>
      </trkpt>
      <trkpt lat="46.10165" lon="4.62342">
        <ele>551.6</ele>
        <time>2020-10-24T08:29:38Z</time>
      </trkpt>
      <trkpt lat="46.10168" lon="4.62342">
        <ele>550.6</ele>
        <time>2020-10-24T08:29:39Z</time>
      </trkpt>
      <trkpt lat="46.1017" lon="4.62341">
        <ele>550.4</ele>
        <time>2020-10-24T08:29:40Z</time>
      </trkpt>
      <trkpt lat="46.10173" lon="4.62341">
        <ele>549.6</ele>
        <time>2020-10-24T08:29:41Z</time>
      </trkpt>
      <trkpt lat="46.10176" lon="4.62341">
        <ele>548.8</ele>
        <time>2020-10-24T08:29:42Z</time>
      </trkpt>
      <trkpt lat="46.10179" lon="4.62341">
        <ele>549</ele>
        <time>2020-10-24T08:29:43Z</time>
      </trkpt>
      <trkpt lat="46.10182" lon="4.62341">
        <ele>548.4</ele>
        <time>2020-10-24T08:29:44Z</time>
      </trkpt>
      <trkpt lat="46.10184" lon="4.62342">
        <ele>547.6</ele>
        <time>2020-10-24T08:29:45Z</time>
      </trkpt>
      <trkpt lat="46.10187" lon="4.62341">
        <ele>547.6</ele>
        <time>2020-10-24T08:29:46Z</time>
      </trkpt>
      <trkpt lat="46.1019" lon="4.62341">
        <ele>547.2</ele>
        <time>2020-10-24T08:29:47Z</time>
      </trkpt>
      <trkpt lat="46.10193" lon="4.62341">
        <ele>547</ele>
        <time>2020-10-24T08:29:48Z</time>
      </trkpt>
      <trkpt lat="46.10195" lon="4.62341">
        <ele>547</ele>
        <time>2020-10-24T08:29:49Z</time>
      </trkpt>
      <trkpt lat="46.10198" lon="4.62341">
        <ele>546.4</ele>
        <time>2020-10-24T08:29:50Z</time>
      </trkpt>
      <trkpt lat="46.10201" lon="4.62341">
        <ele>546.4</ele>
        <time>2020-10-24T08:29:51Z</time>
      </trkpt>
      <trkpt lat="46.10204" lon="4.62341">
        <ele>546.2</ele>
        <time>2020-10-24T08:29:52Z</time>
      </trkpt>
      <trkpt lat="46.10206" lon="4.6234">
        <ele>546</ele>
        <time>2020-10-24T08:29:53Z</time>
      </trkpt>
      <trkpt lat="46.10208" lon="4.6234">
        <ele>546.2</ele>
        <time>2020-10-24T08:29:54Z</time>
      </trkpt>
      <trkpt lat="46.10211" lon="4.6234">
        <ele>546</ele>
        <time>2020-10-24T08:29:55Z</time>
      </trkpt>
      <trkpt lat="46.10214" lon="4.62339">
        <ele>545.6</ele>
        <time>2020-10-24T08:29:56Z</time>
      </trkpt>
      <trkpt lat="46.10216" lon="4.62339">
        <ele>545.6</ele>
        <time>2020-10-24T08:29:57Z</time>
      </trkpt>
      <trkpt lat="46.10219" lon="4.62338">
        <ele>545</ele>
        <time>2020-10-24T08:29:58Z</time>
      </trkpt>
      <trkpt lat="46.10222" lon="4.62338">
        <ele>544.4</ele>
        <time>2020-10-24T08:29:59Z</time>
      </trkpt>
      <trkpt lat="46.10226" lon="4.62337">
        <ele>544.4</ele>
        <time>2020-10-24T08:30:00Z</time>
      </trkpt>
      <trkpt lat="46.10227" lon="4.62336">
        <ele>544.2</ele>
        <time>2020-10-24T08:30:01Z</time>
      </trkpt>
      <trkpt lat="46.1023" lon="4.62335">
        <ele>543.8</ele>
        <time>2020-10-24T08:30:02Z</time>
      </trkpt>
      <trkpt lat="46.10233" lon="4.62335">
        <ele>543.6</ele>
        <time>2020-10-24T08:30:03Z</time>
      </trkpt>
      <trkpt lat="46.10236" lon="4.62335">
        <ele>543.2</ele>
        <time>2020-10-24T08:30:04Z</time>
      </trkpt>
      <trkpt lat="46.10238" lon="4.62334">
        <ele>542.6</ele>
        <time>2020-10-24T08:30:05Z</time>
      </trkpt>
      <trkpt lat="46.1024" lon="4.62333">
        <ele>542.6</ele>
        <time>2020-10-24T08:30:06Z</time>
      </trkpt>
      <trkpt lat="46.10242" lon="4.62332">
        <ele>542</ele>
        <time>2020-10-24T08:30:07Z</time>
      </trkpt>
      <trkpt lat="46.10245" lon="4.62332">
        <ele>541.6</ele>
        <time>2020-10-24T08:30:08Z</time>
      </trkpt>
      <trkpt lat="46.10248" lon="4.62331">
        <ele>541.6</ele>
        <time>2020-10-24T08:30:09Z</time>
      </trkpt>
      <trkpt lat="46.1025" lon="4.6233">
        <ele>541.4</ele>
        <time>2020-10-24T08:30:10Z</time>
      </trkpt>
      <trkpt lat="46.10253" lon="4.62329">
        <ele>540.8</ele>
        <time>2020-10-24T08:30:11Z</time>
      </trkpt>
      <trkpt lat="46.10255" lon="4.62328">
        <ele>541</ele>
        <time>2020-10-24T08:30:12Z</time>
      </trkpt>
      <trkpt lat="46.10258" lon="4.62327">
        <ele>540.4</ele>
        <time>2020-10-24T08:30:13Z</time>
      </trkpt>
      <trkpt lat="46.10261" lon="4.62327">
        <ele>539.8</ele>
        <time>2020-10-24T08:30:14Z</time>
      </trkpt>
      <trkpt lat="46.10263" lon="4.62327">
        <ele>539.6</ele>
        <time>2020-10-24T08:30:15Z</time>
      </trkpt>
      <trkpt lat="46.10266" lon="4.62326">
        <ele>539</ele>
        <time>2020-10-24T08:30:16Z</time>
      </trkpt>
      <trkpt lat="46.1027" lon="4.62325">
        <ele>539</ele>
        <time>2020-10-24T08:30:17Z</time>
      </trkpt>
      <trkpt lat="46.10271" lon="4.62325">
        <ele>538.4</ele>
        <time>2020-10-24T08:30:18Z</time>
      </trkpt>
      <trkpt lat="46.10274" lon="4.62324">
        <ele>537.8</ele>
        <time>2020-10-24T08:30:19Z</time>
      </trkpt>
      <trkpt lat="46.10276" lon="4.62323">
        <ele>537.8</ele>
        <time>2020-10-24T08:30:20Z</time>
      </trkpt>
      <trkpt lat="46.10278" lon="4.62323">
        <ele>537.6</ele>
        <time>2020-10-24T08:30:21Z</time>
      </trkpt>
      <trkpt lat="46.1028" lon="4.62322">
        <ele>537.2</ele>
        <time>2020-10-24T08:30:22Z</time>
      </trkpt>
      <trkpt lat="46.10282" lon="4.62321">
        <ele>537.4</ele>
        <time>2020-10-24T08:30:23Z</time>
      </trkpt>
      <trkpt lat="46.10284" lon="4.6232">
        <ele>537.2</ele>
        <time>2020-10-24T08:30:24Z</time>
      </trkpt>
      <trkpt lat="46.10287" lon="4.62319">
        <ele>536.8</ele>
        <time>2020-10-24T08:30:25Z</time>
      </trkpt>
      <trkpt lat="46.10289" lon="4.62319">
        <ele>537.2</ele>
        <time>2020-10-24T08:30:26Z</time>
      </trkpt>
      <trkpt lat="46.10291" lon="4.62318">
        <ele>537</ele>
        <time>2020-10-24T08:30:27Z</time>
      </trkpt>
      <trkpt lat="46.10293" lon="4.62318">
        <ele>536.8</ele>
        <time>2020-10-24T08:30:28Z</time>
      </trkpt>
      <trkpt lat="46.10295" lon="4.62317">
        <ele>537</ele>
        <time>2020-10-24T08:30:29Z</time>
      </trkpt>
      <trkpt lat="46.10298" lon="4.62317">
        <ele>536.8</ele>
        <time>2020-10-24T08:30:30Z</time>
      </trkpt>
      <trkpt lat="46.103" lon="4.62316">
        <ele>536.4</ele>
        <time>2020-10-24T08:30:31Z</time>
      </trkpt>
      <trkpt lat="46.10302" lon="4.62316">
        <ele>536.8</ele>
        <time>2020-10-24T08:30:32Z</time>
      </trkpt>
      <trkpt lat="46.10304" lon="4.62316">
        <ele>536.6</ele>
        <time>2020-10-24T08:30:33Z</time>
      </trkpt>
      <trkpt lat="46.10306" lon="4.62316">
        <ele>536.4</ele>
        <time>2020-10-24T08:30:34Z</time>
      </trkpt>
      <trkpt lat="46.10309" lon="4.62316">
        <ele>536.8</ele>
        <time>2020-10-24T08:30:35Z</time>
      </trkpt>
      <trkpt lat="46.10311" lon="4.62316">
        <ele>536.6</ele>
        <time>2020-10-24T08:30:36Z</time>
      </trkpt>
      <trkpt lat="46.10312" lon="4.62316">
        <ele>536.4</ele>
        <time>2020-10-24T08:30:37Z</time>
      </trkpt>
      <trkpt lat="46.10314" lon="4.62315">
        <ele>536.8</ele>
        <time>2020-10-24T08:30:38Z</time>
      </trkpt>
      <trkpt lat="46.10316" lon="4.62314">
        <ele>536.8</ele>
        <time>2020-10-24T08:30:39Z</time>
      </trkpt>
      <trkpt lat="46.10318" lon="4.62313">
        <ele>536.4</ele>
        <time>2020-10-24T08:30:40Z</time>
      </trkpt>
      <trkpt lat="46.10321" lon="4.62313">
        <ele>536.4</ele>
        <time>2020-10-24T08:30:41Z</time>
      </trkpt>
      <trkpt lat="46.10323" lon="4.62312">
        <ele>536.2</ele>
        <time>2020-10-24T08:30:42Z</time>
      </trkpt>
      <trkpt lat="46.10325" lon="4.62312">
        <ele>536</ele>
        <time>2020-10-24T08:30:43Z</time>
      </trkpt>
      <trkpt lat="46.10327" lon="4.62311">
        <ele>535.8</ele>
        <time>2020-10-24T08:30:44Z</time>
      </trkpt>
      <trkpt lat="46.10329" lon="4.62311">
        <ele>535.4</ele>
        <time>2020-10-24T08:30:45Z</time>
      </trkpt>
      <trkpt lat="46.10331" lon="4.6231">
        <ele>535.4</ele>
        <time>2020-10-24T08:30:46Z</time>
      </trkpt>
      <trkpt lat="46.10333" lon="4.6231">
        <ele>535.2</ele>
        <time>2020-10-24T08:30:47Z</time>
      </trkpt>
      <trkpt lat="46.10335" lon="4.62309">
        <ele>534.8</ele>
        <time>2020-10-24T08:30:48Z</time>
      </trkpt>
      <trkpt lat="46.10337" lon="4.62308">
        <ele>534.4</ele>
        <time>2020-10-24T08:30:49Z</time>
      </trkpt>
      <trkpt lat="46.10339" lon="4.62307">
        <ele>534.4</ele>
        <time>2020-10-24T08:30:50Z</time>
      </trkpt>
      <trkpt lat="46.10342" lon="4.62306">
        <ele>534.4</ele>
        <time>2020-10-24T08:30:51Z</time>
      </trkpt>
      <trkpt lat="46.10344" lon="4.62306">
        <ele>533.8</ele>
        <time>2020-10-24T08:30:52Z</time>
      </trkpt>
      <trkpt lat="46.10347" lon="4.62304">
        <ele>533.6</ele>
        <time>2020-10-24T08:30:53Z</time>
      </trkpt>
      <trkpt lat="46.10349" lon="4.62303">
        <ele>533.4</ele>
        <time>2020-10-24T08:30:54Z</time>
      </trkpt>
      <trkpt lat="46.10351" lon="4.62302">
        <ele>533</ele>
        <time>2020-10-24T08:30:55Z</time>
      </trkpt>
      <trkpt lat="46.10353" lon="4.62302">
        <ele>532.8</ele>
        <time>2020-10-24T08:30:56Z</time>
      </trkpt>
      <trkpt lat="46.10356" lon="4.62301">
        <ele>532.6</ele>
        <time>2020-10-24T08:30:57Z</time>
      </trkpt>
      <trkpt lat="46.10358" lon="4.623">
        <ele>532</ele>
        <time>2020-10-24T08:30:58Z</time>
      </trkpt>
      <trkpt lat="46.10361" lon="4.62299">
        <ele>532</ele>
        <time>2020-10-24T08:30:59Z</time>
      </trkpt>
      <trkpt lat="46.10363" lon="4.62298">
        <ele>531.6</ele>
        <time>2020-10-24T08:31:00Z</time>
      </trkpt>
      <trkpt lat="46.10366" lon="4.62297">
        <ele>531.2</ele>
        <time>2020-10-24T08:31:01Z</time>
      </trkpt>
      <trkpt lat="46.10368" lon="4.62296">
        <ele>531.4</ele>
        <time>2020-10-24T08:31:02Z</time>
      </trkpt>
      <trkpt lat="46.1037" lon="4.62296">
        <ele>531.4</ele>
        <time>2020-10-24T08:31:03Z</time>
      </trkpt>
      <trkpt lat="46.10372" lon="4.62295">
        <ele>531.2</ele>
        <time>2020-10-24T08:31:04Z</time>
      </trkpt>
      <trkpt lat="46.10374" lon="4.62295">
        <ele>530.8</ele>
        <time>2020-10-24T08:31:05Z</time>
      </trkpt>
      <trkpt lat="46.10376" lon="4.62294">
        <ele>530.8</ele>
        <time>2020-10-24T08:31:06Z</time>
      </trkpt>
      <trkpt lat="46.10379" lon="4.62295">
        <ele>530.8</ele>
        <time>2020-10-24T08:31:07Z</time>
      </trkpt>
      <trkpt lat="46.10381" lon="4.62295">
        <ele>530.4</ele>
        <time>2020-10-24T08:31:08Z</time>
      </trkpt>
      <trkpt lat="46.10384" lon="4.62296">
        <ele>530.2</ele>
        <time>2020-10-24T08:31:09Z</time>
      </trkpt>
      <trkpt lat="46.10386" lon="4.62296">
        <ele>529.8</ele>
        <time>2020-10-24T08:31:10Z</time>
      </trkpt>
      <trkpt lat="46.10388" lon="4.62297">
        <ele>529.6</ele>
        <time>2020-10-24T08:31:11Z</time>
      </trkpt>
      <trkpt lat="46.1039" lon="4.62297">
        <ele>529.4</ele>
        <time>2020-10-24T08:31:12Z</time>
      </trkpt>
      <trkpt lat="46.10392" lon="4.62298">
        <ele>529</ele>
        <time>2020-10-24T08:31:13Z</time>
      </trkpt>
      <trkpt lat="46.10394" lon="4.62298">
        <ele>528.6</ele>
        <time>2020-10-24T08:31:14Z</time>
      </trkpt>
      <trkpt lat="46.10396" lon="4.62298">
        <ele>528.4</ele>
        <time>2020-10-24T08:31:15Z</time>
      </trkpt>
      <trkpt lat="46.10398" lon="4.62299">
        <ele>528</ele>
        <time>2020-10-24T08:31:16Z</time>
      </trkpt>
      <trkpt lat="46.104" lon="4.62299">
        <ele>527.8</ele>
        <time>2020-10-24T08:31:17Z</time>
      </trkpt>
      <trkpt lat="46.10402" lon="4.62299">
        <ele>527.6</ele>
        <time>2020-10-24T08:31:18Z</time>
      </trkpt>
      <trkpt lat="46.10404" lon="4.62299">
        <ele>527.2</ele>
        <time>2020-10-24T08:31:19Z</time>
      </trkpt>
      <trkpt lat="46.10407" lon="4.62299">
        <ele>526.6</ele>
        <time>2020-10-24T08:31:20Z</time>
      </trkpt>
      <trkpt lat="46.10409" lon="4.62299">
        <ele>526.6</ele>
        <time>2020-10-24T08:31:21Z</time>
      </trkpt>
      <trkpt lat="46.10412" lon="4.62299">
        <ele>526.2</ele>
        <time>2020-10-24T08:31:22Z</time>
      </trkpt>
      <trkpt lat="46.10415" lon="4.62299">
        <ele>525.8</ele>
        <time>2020-10-24T08:31:23Z</time>
      </trkpt>
      <trkpt lat="46.10417" lon="4.62299">
        <ele>525.8</ele>
        <time>2020-10-24T08:31:24Z</time>
      </trkpt>
      <trkpt lat="46.1042" lon="4.623">
        <ele>525.4</ele>
        <time>2020-10-24T08:31:25Z</time>
      </trkpt>
      <trkpt lat="46.10422" lon="4.623">
        <ele>524.8</ele>
        <time>2020-10-24T08:31:26Z</time>
      </trkpt>
      <trkpt lat="46.10425" lon="4.623">
        <ele>524.6</ele>
        <time>2020-10-24T08:31:27Z</time>
      </trkpt>
      <trkpt lat="46.10427" lon="4.623">
        <ele>523.8</ele>
        <time>2020-10-24T08:31:28Z</time>
      </trkpt>
      <trkpt lat="46.10429" lon="4.623">
        <ele>523.6</ele>
        <time>2020-10-24T08:31:29Z</time>
      </trkpt>
      <trkpt lat="46.10432" lon="4.623">
        <ele>523.4</ele>
        <time>2020-10-24T08:31:30Z</time>
      </trkpt>
      <trkpt lat="46.10434" lon="4.623">
        <ele>522.6</ele>
        <time>2020-10-24T08:31:31Z</time>
      </trkpt>
      <trkpt lat="46.10437" lon="4.62299">
        <ele>522.6</ele>
        <time>2020-10-24T08:31:32Z</time>
      </trkpt>
      <trkpt lat="46.10439" lon="4.623">
        <ele>522</ele>
        <time>2020-10-24T08:31:33Z</time>
      </trkpt>
      <trkpt lat="46.10442" lon="4.623">
        <ele>521.2</ele>
        <time>2020-10-24T08:31:34Z</time>
      </trkpt>
      <trkpt lat="46.10444" lon="4.623">
        <ele>521</ele>
        <time>2020-10-24T08:31:35Z</time>
      </trkpt>
      <trkpt lat="46.10446" lon="4.623">
        <ele>520.2</ele>
        <time>2020-10-24T08:31:36Z</time>
      </trkpt>
      <trkpt lat="46.10448" lon="4.62301">
        <ele>519.6</ele>
        <time>2020-10-24T08:31:37Z</time>
      </trkpt>
      <trkpt lat="46.10451" lon="4.62301">
        <ele>519.4</ele>
        <time>2020-10-24T08:31:38Z</time>
      </trkpt>
      <trkpt lat="46.10453" lon="4.62301">
        <ele>519</ele>
        <time>2020-10-24T08:31:39Z</time>
      </trkpt>
      <trkpt lat="46.10455" lon="4.62301">
        <ele>518.4</ele>
        <time>2020-10-24T08:31:40Z</time>
      </trkpt>
      <trkpt lat="46.10457" lon="4.62301">
        <ele>518.2</ele>
        <time>2020-10-24T08:31:41Z</time>
      </trkpt>
      <trkpt lat="46.1046" lon="4.62302">
        <ele>517.6</ele>
        <time>2020-10-24T08:31:42Z</time>
      </trkpt>
      <trkpt lat="46.10462" lon="4.62302">
        <ele>517.2</ele>
        <time>2020-10-24T08:31:43Z</time>
      </trkpt>
      <trkpt lat="46.10464" lon="4.62302">
        <ele>517.2</ele>
        <time>2020-10-24T08:31:44Z</time>
      </trkpt>
      <trkpt lat="46.10467" lon="4.62302">
        <ele>516.8</ele>
        <time>2020-10-24T08:31:45Z</time>
      </trkpt>
      <trkpt lat="46.10469" lon="4.62302">
        <ele>516.6</ele>
        <time>2020-10-24T08:31:46Z</time>
      </trkpt>
      <trkpt lat="46.10472" lon="4.62302">
        <ele>516.2</ele>
        <time>2020-10-24T08:31:47Z</time>
      </trkpt>
      <trkpt lat="46.10474" lon="4.62302">
        <ele>516</ele>
        <time>2020-10-24T08:31:48Z</time>
      </trkpt>
      <trkpt lat="46.10476" lon="4.62302">
        <ele>515.6</ele>
        <time>2020-10-24T08:31:49Z</time>
      </trkpt>
      <trkpt lat="46.10479" lon="4.62302">
        <ele>515.2</ele>
        <time>2020-10-24T08:31:50Z</time>
      </trkpt>
      <trkpt lat="46.10481" lon="4.62302">
        <ele>514.6</ele>
        <time>2020-10-24T08:31:51Z</time>
      </trkpt>
      <trkpt lat="46.10484" lon="4.62301">
        <ele>514.8</ele>
        <time>2020-10-24T08:31:52Z</time>
      </trkpt>
      <trkpt lat="46.10486" lon="4.623">
        <ele>514.4</ele>
        <time>2020-10-24T08:31:53Z</time>
      </trkpt>
      <trkpt lat="46.10489" lon="4.62299">
        <ele>513.8</ele>
        <time>2020-10-24T08:31:54Z</time>
      </trkpt>
      <trkpt lat="46.10491" lon="4.62298">
        <ele>514</ele>
        <time>2020-10-24T08:31:55Z</time>
      </trkpt>
      <trkpt lat="46.10494" lon="4.62298">
        <ele>513.2</ele>
        <time>2020-10-24T08:31:56Z</time>
      </trkpt>
      <trkpt lat="46.10497" lon="4.62297">
        <ele>512.8</ele>
        <time>2020-10-24T08:31:57Z</time>
      </trkpt>
      <trkpt lat="46.10499" lon="4.62297">
        <ele>512.8</ele>
        <time>2020-10-24T08:31:58Z</time>
      </trkpt>
      <trkpt lat="46.10502" lon="4.62295">
        <ele>512.2</ele>
        <time>2020-10-24T08:31:59Z</time>
      </trkpt>
      <trkpt lat="46.10504" lon="4.62294">
        <ele>511.8</ele>
        <time>2020-10-24T08:32:00Z</time>
      </trkpt>
      <trkpt lat="46.10507" lon="4.62293">
        <ele>511.6</ele>
        <time>2020-10-24T08:32:01Z</time>
      </trkpt>
      <trkpt lat="46.10507" lon="4.62293">
        <ele>511.6</ele>
        <time>2020-10-24T08:32:02Z</time>
      </trkpt>
      <trkpt lat="46.10507" lon="4.62293">
        <ele>511.6</ele>
        <time>2020-10-24T08:32:03Z</time>
      </trkpt>
      <trkpt lat="46.10507" lon="4.62293">
        <ele>511.6</ele>
        <time>2020-10-24T08:32:04Z</time>
      </trkpt>
      <trkpt lat="46.10507" lon="4.62293">
        <ele>511.6</ele>
        <time>2020-10-24T08:32:05Z</time>
      </trkpt>
      <trkpt lat="46.10507" lon="4.62293">
        <ele>511.6</ele>
        <time>2020-10-24T08:32:06Z</time>
      </trkpt>
      <trkpt lat="46.10507" lon="4.62293">
        <ele>511.4</ele>
        <time>2020-10-24T08:32:07Z</time>
      </trkpt>
      <trkpt lat="46.10507" lon="4.62293">
        <ele>511.4</ele>
        <time>2020-10-24T08:32:08Z</time>
      </trkpt>
      <trkpt lat="46.10507" lon="4.62293">
        <ele>511.2</ele>
        <time>2020-10-24T08:32:09Z</time>
      </trkpt>
      <trkpt lat="46.10507" lon="4.62293">
        <ele>511.2</ele>
        <time>2020-10-24T08:32:10Z</time>
      </trkpt>
      <trkpt lat="46.10507" lon="4.62293">
        <ele>511.4</ele>
        <time>2020-10-24T08:32:11Z</time>
      </trkpt>
      <trkpt lat="46.10507" lon="4.62293">
        <ele>511.6</ele>
        <time>2020-10-24T08:32:12Z</time>
      </trkpt>
      <trkpt lat="46.10507" lon="4.62293">
        <ele>511.6</ele>
        <time>2020-10-24T08:32:13Z</time>
      </trkpt>
      <trkpt lat="46.10507" lon="4.62293">
        <ele>511.2</ele>
        <time>2020-10-24T08:32:14Z</time>
      </trkpt>
      <trkpt lat="46.10508" lon="4.62294">
        <ele>511.2</ele>
        <time>2020-10-24T08:32:15Z</time>
      </trkpt>
      <trkpt lat="46.10508" lon="4.62294">
        <ele>511</ele>
        <time>2020-10-24T08:32:16Z</time>
      </trkpt>
      <trkpt lat="46.1051" lon="4.62294">
        <ele>510.8</ele>
        <time>2020-10-24T08:32:17Z</time>
      </trkpt>
      <trkpt lat="46.1051" lon="4.62294">
        <ele>510.6</ele>
        <time>2020-10-24T08:32:18Z</time>
      </trkpt>
      <trkpt lat="46.10512" lon="4.62292">
        <ele>510.4</ele>
        <time>2020-10-24T08:32:19Z</time>
      </trkpt>
      <trkpt lat="46.10512" lon="4.62292">
        <ele>510.4</ele>
        <time>2020-10-24T08:32:20Z</time>
      </trkpt>
      <trkpt lat="46.10515" lon="4.6229">
        <ele>510.2</ele>
        <time>2020-10-24T08:32:21Z</time>
      </trkpt>
      <trkpt lat="46.10517" lon="4.62289">
        <ele>510.2</ele>
        <time>2020-10-24T08:32:22Z</time>
      </trkpt>
      <trkpt lat="46.10518" lon="4.62288">
        <ele>510.2</ele>
        <time>2020-10-24T08:32:23Z</time>
      </trkpt>
      <trkpt lat="46.10518" lon="4.62288">
        <ele>510.2</ele>
        <time>2020-10-24T08:32:24Z</time>
      </trkpt>
      <trkpt lat="46.10522" lon="4.62286">
        <ele>510</ele>
        <time>2020-10-24T08:32:25Z</time>
      </trkpt>
      <trkpt lat="46.10524" lon="4.62286">
        <ele>509.6</ele>
        <time>2020-10-24T08:32:26Z</time>
      </trkpt>
      <trkpt lat="46.10526" lon="4.62286">
        <ele>509.4</ele>
        <time>2020-10-24T08:32:27Z</time>
      </trkpt>
      <trkpt lat="46.10528" lon="4.62286">
        <ele>509.2</ele>
        <time>2020-10-24T08:32:28Z</time>
      </trkpt>
      <trkpt lat="46.1053" lon="4.62287">
        <ele>508.6</ele>
        <time>2020-10-24T08:32:29Z</time>
      </trkpt>
      <trkpt lat="46.10532" lon="4.62287">
        <ele>508.4</ele>
        <time>2020-10-24T08:32:30Z</time>
      </trkpt>
      <trkpt lat="46.10534" lon="4.62287">
        <ele>508</ele>
        <time>2020-10-24T08:32:31Z</time>
      </trkpt>
      <trkpt lat="46.10536" lon="4.62288">
        <ele>507.4</ele>
        <time>2020-10-24T08:32:32Z</time>
      </trkpt>
      <trkpt lat="46.10536" lon="4.62288">
        <ele>507</ele>
        <time>2020-10-24T08:32:33Z</time>
      </trkpt>
      <trkpt lat="46.1054" lon="4.62289">
        <ele>506.6</ele>
        <time>2020-10-24T08:32:34Z</time>
      </trkpt>
      <trkpt lat="46.10541" lon="4.6229">
        <ele>506.4</ele>
        <time>2020-10-24T08:32:35Z</time>
      </trkpt>
      <trkpt lat="46.10543" lon="4.62291">
        <ele>505.8</ele>
        <time>2020-10-24T08:32:36Z</time>
      </trkpt>
      <trkpt lat="46.10545" lon="4.62291">
        <ele>505.4</ele>
        <time>2020-10-24T08:32:37Z</time>
      </trkpt>
      <trkpt lat="46.10547" lon="4.62291">
        <ele>504.6</ele>
        <time>2020-10-24T08:32:38Z</time>
      </trkpt>
      <trkpt lat="46.10549" lon="4.62291">
        <ele>504</ele>
        <time>2020-10-24T08:32:39Z</time>
      </trkpt>
      <trkpt lat="46.10549" lon="4.62291">
        <ele>503.6</ele>
        <time>2020-10-24T08:32:40Z</time>
      </trkpt>
      <trkpt lat="46.10552" lon="4.62291">
        <ele>503.2</ele>
        <time>2020-10-24T08:32:41Z</time>
      </trkpt>
      <trkpt lat="46.10554" lon="4.62292">
        <ele>502.6</ele>
        <time>2020-10-24T08:32:42Z</time>
      </trkpt>
      <trkpt lat="46.10554" lon="4.62292">
        <ele>502.2</ele>
        <time>2020-10-24T08:32:43Z</time>
      </trkpt>
      <trkpt lat="46.10558" lon="4.62293">
        <ele>501.8</ele>
        <time>2020-10-24T08:32:44Z</time>
      </trkpt>
      <trkpt lat="46.1056" lon="4.62293">
        <ele>501.4</ele>
        <time>2020-10-24T08:32:45Z</time>
      </trkpt>
      <trkpt lat="46.10562" lon="4.62293">
        <ele>500.8</ele>
        <time>2020-10-24T08:32:46Z</time>
      </trkpt>
      <trkpt lat="46.10564" lon="4.62292">
        <ele>500.4</ele>
        <time>2020-10-24T08:32:47Z</time>
      </trkpt>
      <trkpt lat="46.10567" lon="4.62293">
        <ele>499.8</ele>
        <time>2020-10-24T08:32:48Z</time>
      </trkpt>
      <trkpt lat="46.10569" lon="4.62292">
        <ele>499</ele>
        <time>2020-10-24T08:32:49Z</time>
      </trkpt>
      <trkpt lat="46.10571" lon="4.62292">
        <ele>498.2</ele>
        <time>2020-10-24T08:32:50Z</time>
      </trkpt>
      <trkpt lat="46.10573" lon="4.62291">
        <ele>497.8</ele>
        <time>2020-10-24T08:32:51Z</time>
      </trkpt>
      <trkpt lat="46.10573" lon="4.62291">
        <ele>497.6</ele>
        <time>2020-10-24T08:32:52Z</time>
      </trkpt>
      <trkpt lat="46.10576" lon="4.62288">
        <ele>497</ele>
        <time>2020-10-24T08:32:53Z</time>
      </trkpt>
      <trkpt lat="46.10576" lon="4.62288">
        <ele>496.2</ele>
        <time>2020-10-24T08:32:54Z</time>
      </trkpt>
      <trkpt lat="46.10578" lon="4.62285">
        <ele>495.8</ele>
        <time>2020-10-24T08:32:55Z</time>
      </trkpt>
      <trkpt lat="46.10578" lon="4.62285">
        <ele>495.6</ele>
        <time>2020-10-24T08:32:56Z</time>
      </trkpt>
      <trkpt lat="46.10579" lon="4.62281">
        <ele>495.4</ele>
        <time>2020-10-24T08:32:57Z</time>
      </trkpt>
      <trkpt lat="46.1058" lon="4.62279">
        <ele>494.8</ele>
        <time>2020-10-24T08:32:58Z</time>
      </trkpt>
      <trkpt lat="46.1058" lon="4.62279">
        <ele>494.6</ele>
        <time>2020-10-24T08:32:59Z</time>
      </trkpt>
      <trkpt lat="46.10581" lon="4.62274">
        <ele>494.6</ele>
        <time>2020-10-24T08:33:00Z</time>
      </trkpt>
      <trkpt lat="46.10581" lon="4.62272">
        <ele>494.2</ele>
        <time>2020-10-24T08:33:01Z</time>
      </trkpt>
      <trkpt lat="46.10582" lon="4.62269">
        <ele>494</ele>
        <time>2020-10-24T08:33:02Z</time>
      </trkpt>
      <trkpt lat="46.10582" lon="4.62266">
        <ele>493.6</ele>
        <time>2020-10-24T08:33:03Z</time>
      </trkpt>
      <trkpt lat="46.10583" lon="4.62263">
        <ele>493.4</ele>
        <time>2020-10-24T08:33:04Z</time>
      </trkpt>
      <trkpt lat="46.10584" lon="4.6226">
        <ele>492.8</ele>
        <time>2020-10-24T08:33:05Z</time>
      </trkpt>
      <trkpt lat="46.10585" lon="4.62257">
        <ele>492.8</ele>
        <time>2020-10-24T08:33:06Z</time>
      </trkpt>
      <trkpt lat="46.10586" lon="4.62254">
        <ele>492.4</ele>
        <time>2020-10-24T08:33:07Z</time>
      </trkpt>
      <trkpt lat="46.10587" lon="4.62251">
        <ele>491.8</ele>
        <time>2020-10-24T08:33:08Z</time>
      </trkpt>
      <trkpt lat="46.10588" lon="4.62248">
        <ele>491.6</ele>
        <time>2020-10-24T08:33:09Z</time>
      </trkpt>
      <trkpt lat="46.1059" lon="4.62245">
        <ele>491</ele>
        <time>2020-10-24T08:33:10Z</time>
      </trkpt>
      <trkpt lat="46.10591" lon="4.62242">
        <ele>490.6</ele>
        <time>2020-10-24T08:33:11Z</time>
      </trkpt>
      <trkpt lat="46.10592" lon="4.62238">
        <ele>490.6</ele>
        <time>2020-10-24T08:33:12Z</time>
      </trkpt>
      <trkpt lat="46.10593" lon="4.62235">
        <ele>490</ele>
        <time>2020-10-24T08:33:13Z</time>
      </trkpt>
      <trkpt lat="46.10595" lon="4.62232">
        <ele>489.6</ele>
        <time>2020-10-24T08:33:14Z</time>
      </trkpt>
      <trkpt lat="46.10596" lon="4.62229">
        <ele>489.4</ele>
        <time>2020-10-24T08:33:15Z</time>
      </trkpt>
      <trkpt lat="46.10598" lon="4.62226">
        <ele>488.6</ele>
        <time>2020-10-24T08:33:16Z</time>
      </trkpt>
      <trkpt lat="46.10599" lon="4.62223">
        <ele>488.4</ele>
        <time>2020-10-24T08:33:17Z</time>
      </trkpt>
      <trkpt lat="46.106" lon="4.62221">
        <ele>488</ele>
        <time>2020-10-24T08:33:18Z</time>
      </trkpt>
      <trkpt lat="46.10601" lon="4.62218">
        <ele>487.4</ele>
        <time>2020-10-24T08:33:19Z</time>
      </trkpt>
      <trkpt lat="46.10602" lon="4.62215">
        <ele>487.2</ele>
        <time>2020-10-24T08:33:20Z</time>
      </trkpt>
      <trkpt lat="46.10604" lon="4.62212">
        <ele>486.6</ele>
        <time>2020-10-24T08:33:21Z</time>
      </trkpt>
      <trkpt lat="46.10604" lon="4.62209">
        <ele>486.2</ele>
        <time>2020-10-24T08:33:22Z</time>
      </trkpt>
      <trkpt lat="46.10605" lon="4.62206">
        <ele>485.6</ele>
        <time>2020-10-24T08:33:23Z</time>
      </trkpt>
      <trkpt lat="46.10606" lon="4.62204">
        <ele>485.2</ele>
        <time>2020-10-24T08:33:24Z</time>
      </trkpt>
      <trkpt lat="46.10607" lon="4.62201">
        <ele>484.6</ele>
        <time>2020-10-24T08:33:25Z</time>
      </trkpt>
      <trkpt lat="46.10608" lon="4.62198">
        <ele>484</ele>
        <time>2020-10-24T08:33:26Z</time>
      </trkpt>
      <trkpt lat="46.1061" lon="4.62195">
        <ele>483</ele>
        <time>2020-10-24T08:33:27Z</time>
      </trkpt>
      <trkpt lat="46.10611" lon="4.62193">
        <ele>482.8</ele>
        <time>2020-10-24T08:33:28Z</time>
      </trkpt>
      <trkpt lat="46.10612" lon="4.6219">
        <ele>482.4</ele>
        <time>2020-10-24T08:33:29Z</time>
      </trkpt>
      <trkpt lat="46.10613" lon="4.62187">
        <ele>481.8</ele>
        <time>2020-10-24T08:33:30Z</time>
      </trkpt>
      <trkpt lat="46.10614" lon="4.62184">
        <ele>481.4</ele>
        <time>2020-10-24T08:33:31Z</time>
      </trkpt>
      <trkpt lat="46.10616" lon="4.62181">
        <ele>481.2</ele>
        <time>2020-10-24T08:33:32Z</time>
      </trkpt>
      <trkpt lat="46.10617" lon="4.62178">
        <ele>480.6</ele>
        <time>2020-10-24T08:33:33Z</time>
      </trkpt>
      <trkpt lat="46.10618" lon="4.62176">
        <ele>480.2</ele>
        <time>2020-10-24T08:33:34Z</time>
      </trkpt>
      <trkpt lat="46.10618" lon="4.62173">
        <ele>479.8</ele>
        <time>2020-10-24T08:33:35Z</time>
      </trkpt>
      <trkpt lat="46.10619" lon="4.6217">
        <ele>479.4</ele>
        <time>2020-10-24T08:33:36Z</time>
      </trkpt>
      <trkpt lat="46.1062" lon="4.62168">
        <ele>478.6</ele>
        <time>2020-10-24T08:33:37Z</time>
      </trkpt>
      <trkpt lat="46.10622" lon="4.62165">
        <ele>478.2</ele>
        <time>2020-10-24T08:33:38Z</time>
      </trkpt>
      <trkpt lat="46.10622" lon="4.62162">
        <ele>477.2</ele>
        <time>2020-10-24T08:33:39Z</time>
      </trkpt>
      <trkpt lat="46.10624" lon="4.6216">
        <ele>476.8</ele>
        <time>2020-10-24T08:33:40Z</time>
      </trkpt>
      <trkpt lat="46.10625" lon="4.62158">
        <ele>476</ele>
        <time>2020-10-24T08:33:41Z</time>
      </trkpt>
      <trkpt lat="46.10626" lon="4.62155">
        <ele>475.8</ele>
        <time>2020-10-24T08:33:42Z</time>
      </trkpt>
      <trkpt lat="46.10627" lon="4.62152">
        <ele>475.2</ele>
        <time>2020-10-24T08:33:43Z</time>
      </trkpt>
      <trkpt lat="46.10627" lon="4.62149">
        <ele>474.8</ele>
        <time>2020-10-24T08:33:44Z</time>
      </trkpt>
      <trkpt lat="46.10628" lon="4.62146">
        <ele>474</ele>
        <time>2020-10-24T08:33:45Z</time>
      </trkpt>
      <trkpt lat="46.10629" lon="4.62143">
        <ele>473.4</ele>
        <time>2020-10-24T08:33:46Z</time>
      </trkpt>
      <trkpt lat="46.1063" lon="4.6214">
        <ele>472.8</ele>
        <time>2020-10-24T08:33:47Z</time>
      </trkpt>
      <trkpt lat="46.10631" lon="4.62137">
        <ele>472.2</ele>
        <time>2020-10-24T08:33:48Z</time>
      </trkpt>
      <trkpt lat="46.10632" lon="4.62133">
        <ele>472</ele>
        <time>2020-10-24T08:33:49Z</time>
      </trkpt>
      <trkpt lat="46.10633" lon="4.6213">
        <ele>471.4</ele>
        <time>2020-10-24T08:33:50Z</time>
      </trkpt>
      <trkpt lat="46.10634" lon="4.62127">
        <ele>471</ele>
        <time>2020-10-24T08:33:51Z</time>
      </trkpt>
      <trkpt lat="46.10636" lon="4.62124">
        <ele>471</ele>
        <time>2020-10-24T08:33:52Z</time>
      </trkpt>
      <trkpt lat="46.10638" lon="4.62121">
        <ele>470.4</ele>
        <time>2020-10-24T08:33:53Z</time>
      </trkpt>
      <trkpt lat="46.1064" lon="4.62118">
        <ele>469.8</ele>
        <time>2020-10-24T08:33:54Z</time>
      </trkpt>
      <trkpt lat="46.10642" lon="4.62116">
        <ele>469.8</ele>
        <time>2020-10-24T08:33:55Z</time>
      </trkpt>
      <trkpt lat="46.10644" lon="4.62114">
        <ele>469</ele>
        <time>2020-10-24T08:33:56Z</time>
      </trkpt>
      <trkpt lat="46.10645" lon="4.62112">
        <ele>469</ele>
        <time>2020-10-24T08:33:57Z</time>
      </trkpt>
      <trkpt lat="46.10645" lon="4.62112">
        <ele>468.8</ele>
        <time>2020-10-24T08:33:58Z</time>
      </trkpt>
      <trkpt lat="46.10647" lon="4.62108">
        <ele>468.4</ele>
        <time>2020-10-24T08:33:59Z</time>
      </trkpt>
      <trkpt lat="46.10649" lon="4.62106">
        <ele>468</ele>
        <time>2020-10-24T08:34:00Z</time>
      </trkpt>
      <trkpt lat="46.1065" lon="4.62103">
        <ele>468</ele>
        <time>2020-10-24T08:34:01Z</time>
      </trkpt>
      <trkpt lat="46.1065" lon="4.621">
        <ele>467.2</ele>
        <time>2020-10-24T08:34:02Z</time>
      </trkpt>
      <trkpt lat="46.10651" lon="4.62097">
        <ele>466.6</ele>
        <time>2020-10-24T08:34:03Z</time>
      </trkpt>
      <trkpt lat="46.10652" lon="4.62093">
        <ele>466.4</ele>
        <time>2020-10-24T08:34:04Z</time>
      </trkpt>
      <trkpt lat="46.10652" lon="4.6209">
        <ele>466</ele>
        <time>2020-10-24T08:34:05Z</time>
      </trkpt>
      <trkpt lat="46.10652" lon="4.62087">
        <ele>465.4</ele>
        <time>2020-10-24T08:34:06Z</time>
      </trkpt>
      <trkpt lat="46.10653" lon="4.62083">
        <ele>465.4</ele>
        <time>2020-10-24T08:34:07Z</time>
      </trkpt>
      <trkpt lat="46.10654" lon="4.62079">
        <ele>465</ele>
        <time>2020-10-24T08:34:08Z</time>
      </trkpt>
      <trkpt lat="46.10654" lon="4.62075">
        <ele>464.4</ele>
        <time>2020-10-24T08:34:09Z</time>
      </trkpt>
      <trkpt lat="46.10655" lon="4.62071">
        <ele>464.4</ele>
        <time>2020-10-24T08:34:10Z</time>
      </trkpt>
      <trkpt lat="46.10656" lon="4.62067">
        <ele>464</ele>
        <time>2020-10-24T08:34:11Z</time>
      </trkpt>
      <trkpt lat="46.10657" lon="4.62063">
        <ele>463.8</ele>
        <time>2020-10-24T08:34:12Z</time>
      </trkpt>
      <trkpt lat="46.10658" lon="4.62059">
        <ele>463.8</ele>
        <time>2020-10-24T08:34:13Z</time>
      </trkpt>
      <trkpt lat="46.10659" lon="4.62056">
        <ele>463.4</ele>
        <time>2020-10-24T08:34:14Z</time>
      </trkpt>
      <trkpt lat="46.1066" lon="4.62052">
        <ele>463.2</ele>
        <time>2020-10-24T08:34:15Z</time>
      </trkpt>
      <trkpt lat="46.1066" lon="4.62049">
        <ele>462.8</ele>
        <time>2020-10-24T08:34:16Z</time>
      </trkpt>
      <trkpt lat="46.10661" lon="4.62046">
        <ele>462.6</ele>
        <time>2020-10-24T08:34:17Z</time>
      </trkpt>
      <trkpt lat="46.10662" lon="4.62043">
        <ele>462.6</ele>
        <time>2020-10-24T08:34:18Z</time>
      </trkpt>
      <trkpt lat="46.10663" lon="4.6204">
        <ele>462.4</ele>
        <time>2020-10-24T08:34:19Z</time>
      </trkpt>
      <trkpt lat="46.10664" lon="4.62037">
        <ele>462.2</ele>
        <time>2020-10-24T08:34:20Z</time>
      </trkpt>
      <trkpt lat="46.10665" lon="4.62034">
        <ele>462.4</ele>
        <time>2020-10-24T08:34:21Z</time>
      </trkpt>
      <trkpt lat="46.10666" lon="4.62031">
        <ele>462.2</ele>
        <time>2020-10-24T08:34:22Z</time>
      </trkpt>
      <trkpt lat="46.10667" lon="4.62028">
        <ele>462</ele>
        <time>2020-10-24T08:34:23Z</time>
      </trkpt>
      <trkpt lat="46.10668" lon="4.62024">
        <ele>462</ele>
        <time>2020-10-24T08:34:24Z</time>
      </trkpt>
      <trkpt lat="46.10669" lon="4.62021">
        <ele>462</ele>
        <time>2020-10-24T08:34:25Z</time>
      </trkpt>
      <trkpt lat="46.1067" lon="4.62018">
        <ele>461.6</ele>
        <time>2020-10-24T08:34:26Z</time>
      </trkpt>
      <trkpt lat="46.10671" lon="4.62015">
        <ele>461.8</ele>
        <time>2020-10-24T08:34:27Z</time>
      </trkpt>
      <trkpt lat="46.10673" lon="4.62012">
        <ele>461.4</ele>
        <time>2020-10-24T08:34:28Z</time>
      </trkpt>
      <trkpt lat="46.10674" lon="4.62009">
        <ele>461.4</ele>
        <time>2020-10-24T08:34:29Z</time>
      </trkpt>
      <trkpt lat="46.10675" lon="4.62005">
        <ele>461.4</ele>
        <time>2020-10-24T08:34:30Z</time>
      </trkpt>
      <trkpt lat="46.10676" lon="4.62002">
        <ele>461</ele>
        <time>2020-10-24T08:34:31Z</time>
      </trkpt>
      <trkpt lat="46.10677" lon="4.61998">
        <ele>461</ele>
        <time>2020-10-24T08:34:32Z</time>
      </trkpt>
      <trkpt lat="46.10678" lon="4.61995">
        <ele>461</ele>
        <time>2020-10-24T08:34:33Z</time>
      </trkpt>
      <trkpt lat="46.10679" lon="4.61992">
        <ele>460.8</ele>
        <time>2020-10-24T08:34:34Z</time>
      </trkpt>
      <trkpt lat="46.1068" lon="4.61989">
        <ele>460.8</ele>
        <time>2020-10-24T08:34:35Z</time>
      </trkpt>
      <trkpt lat="46.10681" lon="4.61986">
        <ele>460.6</ele>
        <time>2020-10-24T08:34:36Z</time>
      </trkpt>
      <trkpt lat="46.10682" lon="4.61983">
        <ele>460.4</ele>
        <time>2020-10-24T08:34:37Z</time>
      </trkpt>
      <trkpt lat="46.10683" lon="4.6198">
        <ele>460.6</ele>
        <time>2020-10-24T08:34:38Z</time>
      </trkpt>
      <trkpt lat="46.10684" lon="4.61978">
        <ele>460.4</ele>
        <time>2020-10-24T08:34:39Z</time>
      </trkpt>
      <trkpt lat="46.10685" lon="4.61974">
        <ele>460</ele>
        <time>2020-10-24T08:34:40Z</time>
      </trkpt>
      <trkpt lat="46.10686" lon="4.61972">
        <ele>460.4</ele>
        <time>2020-10-24T08:34:41Z</time>
      </trkpt>
      <trkpt lat="46.10687" lon="4.61969">
        <ele>460.2</ele>
        <time>2020-10-24T08:34:42Z</time>
      </trkpt>
      <trkpt lat="46.10688" lon="4.61966">
        <ele>460</ele>
        <time>2020-10-24T08:34:43Z</time>
      </trkpt>
      <trkpt lat="46.10689" lon="4.61964">
        <ele>460.4</ele>
        <time>2020-10-24T08:34:44Z</time>
      </trkpt>
      <trkpt lat="46.1069" lon="4.61961">
        <ele>460.2</ele>
        <time>2020-10-24T08:34:45Z</time>
      </trkpt>
      <trkpt lat="46.10691" lon="4.61958">
        <ele>460</ele>
        <time>2020-10-24T08:34:46Z</time>
      </trkpt>
      <trkpt lat="46.10692" lon="4.61955">
        <ele>460.2</ele>
        <time>2020-10-24T08:34:47Z</time>
      </trkpt>
      <trkpt lat="46.10693" lon="4.61952">
        <ele>460.2</ele>
        <time>2020-10-24T08:34:48Z</time>
      </trkpt>
      <trkpt lat="46.10694" lon="4.61948">
        <ele>460.2</ele>
        <time>2020-10-24T08:34:49Z</time>
      </trkpt>
      <trkpt lat="46.10695" lon="4.61945">
        <ele>460.4</ele>
        <time>2020-10-24T08:34:50Z</time>
      </trkpt>
      <trkpt lat="46.10696" lon="4.61942">
        <ele>460.2</ele>
        <time>2020-10-24T08:34:51Z</time>
      </trkpt>
      <trkpt lat="46.10696" lon="4.61939">
        <ele>460.2</ele>
        <time>2020-10-24T08:34:52Z</time>
      </trkpt>
      <trkpt lat="46.10697" lon="4.61936">
        <ele>460.2</ele>
        <time>2020-10-24T08:34:53Z</time>
      </trkpt>
      <trkpt lat="46.10698" lon="4.61934">
        <ele>460.2</ele>
        <time>2020-10-24T08:34:54Z</time>
      </trkpt>
      <trkpt lat="46.107" lon="4.61931">
        <ele>460.2</ele>
        <time>2020-10-24T08:34:55Z</time>
      </trkpt>
      <trkpt lat="46.10701" lon="4.61928">
        <ele>460.4</ele>
        <time>2020-10-24T08:34:56Z</time>
      </trkpt>
      <trkpt lat="46.10702" lon="4.61926">
        <ele>460.4</ele>
        <time>2020-10-24T08:34:57Z</time>
      </trkpt>
      <trkpt lat="46.10702" lon="4.61926">
        <ele>460.2</ele>
        <time>2020-10-24T08:34:58Z</time>
      </trkpt>
      <trkpt lat="46.10704" lon="4.61919">
        <ele>460.2</ele>
        <time>2020-10-24T08:34:59Z</time>
      </trkpt>
      <trkpt lat="46.10704" lon="4.61916">
        <ele>460</ele>
        <time>2020-10-24T08:35:00Z</time>
      </trkpt>
      <trkpt lat="46.10705" lon="4.61914">
        <ele>459.8</ele>
        <time>2020-10-24T08:35:01Z</time>
      </trkpt>
      <trkpt lat="46.10705" lon="4.61911">
        <ele>459.8</ele>
        <time>2020-10-24T08:35:02Z</time>
      </trkpt>
      <trkpt lat="46.10706" lon="4.61907">
        <ele>459.4</ele>
        <time>2020-10-24T08:35:03Z</time>
      </trkpt>
      <trkpt lat="46.10706" lon="4.61904">
        <ele>459.2</ele>
        <time>2020-10-24T08:35:04Z</time>
      </trkpt>
      <trkpt lat="46.10707" lon="4.61901">
        <ele>459.2</ele>
        <time>2020-10-24T08:35:05Z</time>
      </trkpt>
      <trkpt lat="46.10707" lon="4.61898">
        <ele>459</ele>
        <time>2020-10-24T08:35:06Z</time>
      </trkpt>
      <trkpt lat="46.10708" lon="4.61895">
        <ele>458.6</ele>
        <time>2020-10-24T08:35:07Z</time>
      </trkpt>
      <trkpt lat="46.10709" lon="4.61892">
        <ele>458.8</ele>
        <time>2020-10-24T08:35:08Z</time>
      </trkpt>
      <trkpt lat="46.1071" lon="4.6189">
        <ele>458.4</ele>
        <time>2020-10-24T08:35:09Z</time>
      </trkpt>
      <trkpt lat="46.10711" lon="4.61887">
        <ele>458.2</ele>
        <time>2020-10-24T08:35:10Z</time>
      </trkpt>
      <trkpt lat="46.10712" lon="4.61883">
        <ele>458</ele>
        <time>2020-10-24T08:35:11Z</time>
      </trkpt>
      <trkpt lat="46.10712" lon="4.6188">
        <ele>458</ele>
        <time>2020-10-24T08:35:12Z</time>
      </trkpt>
      <trkpt lat="46.10713" lon="4.61877">
        <ele>457.4</ele>
        <time>2020-10-24T08:35:13Z</time>
      </trkpt>
      <trkpt lat="46.10714" lon="4.61874">
        <ele>457.4</ele>
        <time>2020-10-24T08:35:14Z</time>
      </trkpt>
      <trkpt lat="46.10715" lon="4.61871">
        <ele>457.2</ele>
        <time>2020-10-24T08:35:15Z</time>
      </trkpt>
      <trkpt lat="46.10716" lon="4.61868">
        <ele>456.8</ele>
        <time>2020-10-24T08:35:16Z</time>
      </trkpt>
      <trkpt lat="46.10717" lon="4.61865">
        <ele>456.8</ele>
        <time>2020-10-24T08:35:17Z</time>
      </trkpt>
      <trkpt lat="46.10718" lon="4.61862">
        <ele>456.2</ele>
        <time>2020-10-24T08:35:18Z</time>
      </trkpt>
      <trkpt lat="46.1072" lon="4.6186">
        <ele>455.8</ele>
        <time>2020-10-24T08:35:19Z</time>
      </trkpt>
      <trkpt lat="46.10721" lon="4.61858">
        <ele>455.8</ele>
        <time>2020-10-24T08:35:20Z</time>
      </trkpt>
      <trkpt lat="46.10723" lon="4.61856">
        <ele>455.4</ele>
        <time>2020-10-24T08:35:21Z</time>
      </trkpt>
      <trkpt lat="46.10725" lon="4.61853">
        <ele>455.4</ele>
        <time>2020-10-24T08:35:22Z</time>
      </trkpt>
      <trkpt lat="46.10726" lon="4.61851">
        <ele>455</ele>
        <time>2020-10-24T08:35:23Z</time>
      </trkpt>
      <trkpt lat="46.10728" lon="4.6185">
        <ele>454.6</ele>
        <time>2020-10-24T08:35:24Z</time>
      </trkpt>
      <trkpt lat="46.10729" lon="4.61848">
        <ele>454.2</ele>
        <time>2020-10-24T08:35:25Z</time>
      </trkpt>
      <trkpt lat="46.10731" lon="4.61846">
        <ele>453.8</ele>
        <time>2020-10-24T08:35:26Z</time>
      </trkpt>
      <trkpt lat="46.10732" lon="4.61844">
        <ele>453.2</ele>
        <time>2020-10-24T08:35:27Z</time>
      </trkpt>
      <trkpt lat="46.10734" lon="4.61843">
        <ele>452.6</ele>
        <time>2020-10-24T08:35:28Z</time>
      </trkpt>
      <trkpt lat="46.10735" lon="4.61841">
        <ele>452.2</ele>
        <time>2020-10-24T08:35:29Z</time>
      </trkpt>
      <trkpt lat="46.10737" lon="4.61839">
        <ele>452</ele>
        <time>2020-10-24T08:35:30Z</time>
      </trkpt>
      <trkpt lat="46.10739" lon="4.61837">
        <ele>451.4</ele>
        <time>2020-10-24T08:35:31Z</time>
      </trkpt>
      <trkpt lat="46.10741" lon="4.61835">
        <ele>451.2</ele>
        <time>2020-10-24T08:35:32Z</time>
      </trkpt>
      <trkpt lat="46.10742" lon="4.61833">
        <ele>450.6</ele>
        <time>2020-10-24T08:35:33Z</time>
      </trkpt>
      <trkpt lat="46.10743" lon="4.61831">
        <ele>449.6</ele>
        <time>2020-10-24T08:35:34Z</time>
      </trkpt>
      <trkpt lat="46.10745" lon="4.61829">
        <ele>449</ele>
        <time>2020-10-24T08:35:35Z</time>
      </trkpt>
      <trkpt lat="46.10745" lon="4.61829">
        <ele>448.6</ele>
        <time>2020-10-24T08:35:36Z</time>
      </trkpt>
      <trkpt lat="46.10745" lon="4.61826">
        <ele>448</ele>
        <time>2020-10-24T08:35:37Z</time>
      </trkpt>
      <trkpt lat="46.10745" lon="4.61826">
        <ele>447.6</ele>
        <time>2020-10-24T08:35:38Z</time>
      </trkpt>
      <trkpt lat="46.10745" lon="4.61826">
        <ele>447.4</ele>
        <time>2020-10-24T08:35:39Z</time>
      </trkpt>
      <trkpt lat="46.10745" lon="4.61826">
        <ele>447.2</ele>
        <time>2020-10-24T08:35:40Z</time>
      </trkpt>
      <trkpt lat="46.10745" lon="4.61826">
        <ele>447</ele>
        <time>2020-10-24T08:35:41Z</time>
      </trkpt>
      <trkpt lat="46.10745" lon="4.61826">
        <ele>447</ele>
        <time>2020-10-24T08:35:42Z</time>
      </trkpt>
      <trkpt lat="46.10745" lon="4.61826">
        <ele>447</ele>
        <time>2020-10-24T08:35:43Z</time>
      </trkpt>
      <trkpt lat="46.10745" lon="4.61826">
        <ele>446.8</ele>
        <time>2020-10-24T08:35:44Z</time>
      </trkpt>
      <trkpt lat="46.10745" lon="4.61826">
        <ele>446.6</ele>
        <time>2020-10-24T08:35:45Z</time>
      </trkpt>
      <trkpt lat="46.10745" lon="4.61826">
        <ele>446.6</ele>
        <time>2020-10-24T08:35:46Z</time>
      </trkpt>
      <trkpt lat="46.10745" lon="4.61826">
        <ele>446.6</ele>
        <time>2020-10-24T08:35:47Z</time>
      </trkpt>
      <trkpt lat="46.10745" lon="4.61826">
        <ele>446.6</ele>
        <time>2020-10-24T08:35:48Z</time>
      </trkpt>
      <trkpt lat="46.10745" lon="4.61826">
        <ele>446.4</ele>
        <time>2020-10-24T08:35:49Z</time>
      </trkpt>
      <trkpt lat="46.10745" lon="4.61826">
        <ele>446.4</ele>
        <time>2020-10-24T08:35:50Z</time>
      </trkpt>
      <trkpt lat="46.10745" lon="4.61826">
        <ele>446.4</ele>
        <time>2020-10-24T08:35:51Z</time>
      </trkpt>
      <trkpt lat="46.10745" lon="4.61826">
        <ele>446.2</ele>
        <time>2020-10-24T08:35:52Z</time>
      </trkpt>
      <trkpt lat="46.10745" lon="4.61826">
        <ele>446</ele>
        <time>2020-10-24T08:35:53Z</time>
      </trkpt>
      <trkpt lat="46.10745" lon="4.61826">
        <ele>446</ele>
        <time>2020-10-24T08:35:54Z</time>
      </trkpt>
      <trkpt lat="46.10745" lon="4.61826">
        <ele>446.4</ele>
        <time>2020-10-24T08:35:55Z</time>
      </trkpt>
      <trkpt lat="46.10745" lon="4.61826">
        <ele>446.2</ele>
        <time>2020-10-24T08:35:56Z</time>
      </trkpt>
      <trkpt lat="46.10745" lon="4.61826">
        <ele>446.4</ele>
        <time>2020-10-24T08:35:57Z</time>
      </trkpt>
      <trkpt lat="46.10745" lon="4.61826">
        <ele>446.2</ele>
        <time>2020-10-24T08:35:58Z</time>
      </trkpt>
      <trkpt lat="46.10745" lon="4.61826">
        <ele>446.4</ele>
        <time>2020-10-24T08:35:59Z</time>
      </trkpt>
      <trkpt lat="46.10745" lon="4.61826">
        <ele>446.2</ele>
        <time>2020-10-24T08:36:00Z</time>
      </trkpt>
      <trkpt lat="46.10745" lon="4.61826">
        <ele>446.4</ele>
        <time>2020-10-24T08:36:01Z</time>
      </trkpt>
      <trkpt lat="46.10745" lon="4.61826">
        <ele>446.6</ele>
        <time>2020-10-24T08:36:02Z</time>
      </trkpt>
      <trkpt lat="46.10745" lon="4.61826">
        <ele>446.4</ele>
        <time>2020-10-24T08:36:03Z</time>
      </trkpt>
      <trkpt lat="46.10745" lon="4.61826">
        <ele>446.6</ele>
        <time>2020-10-24T08:36:04Z</time>
      </trkpt>
      <trkpt lat="46.10745" lon="4.61826">
        <ele>446.8</ele>
        <time>2020-10-24T08:36:05Z</time>
      </trkpt>
      <trkpt lat="46.10745" lon="4.61826">
        <ele>447.2</ele>
        <time>2020-10-24T08:36:06Z</time>
      </trkpt>
      <trkpt lat="46.10745" lon="4.61826">
        <ele>447.6</ele>
        <time>2020-10-24T08:36:07Z</time>
      </trkpt>
      <trkpt lat="46.10746" lon="4.61829">
        <ele>447.6</ele>
        <time>2020-10-24T08:36:08Z</time>
      </trkpt>
      <trkpt lat="46.10746" lon="4.61829">
        <ele>447.6</ele>
        <time>2020-10-24T08:36:09Z</time>
      </trkpt>
      <trkpt lat="46.10746" lon="4.61829">
        <ele>447.4</ele>
        <time>2020-10-24T08:36:10Z</time>
      </trkpt>
      <trkpt lat="46.10746" lon="4.61829">
        <ele>447.2</ele>
        <time>2020-10-24T08:36:11Z</time>
      </trkpt>
      <trkpt lat="46.10746" lon="4.61829">
        <ele>447</ele>
        <time>2020-10-24T08:36:12Z</time>
      </trkpt>
      <trkpt lat="46.10746" lon="4.61829">
        <ele>447.2</ele>
        <time>2020-10-24T08:36:13Z</time>
      </trkpt>
      <trkpt lat="46.10746" lon="4.61829">
        <ele>447.2</ele>
        <time>2020-10-24T08:36:14Z</time>
      </trkpt>
      <trkpt lat="46.10746" lon="4.61829">
        <ele>447.2</ele>
        <time>2020-10-24T08:36:15Z</time>
      </trkpt>
      <trkpt lat="46.10746" lon="4.61829">
        <ele>447</ele>
        <time>2020-10-24T08:36:16Z</time>
      </trkpt>
      <trkpt lat="46.10746" lon="4.61829">
        <ele>447.2</ele>
        <time>2020-10-24T08:36:17Z</time>
      </trkpt>
      <trkpt lat="46.10748" lon="4.61827">
        <ele>447.2</ele>
        <time>2020-10-24T08:36:18Z</time>
      </trkpt>
      <trkpt lat="46.10748" lon="4.61827">
        <ele>447.4</ele>
        <time>2020-10-24T08:36:19Z</time>
      </trkpt>
      <trkpt lat="46.10748" lon="4.61824">
        <ele>447.2</ele>
        <time>2020-10-24T08:36:20Z</time>
      </trkpt>
      <trkpt lat="46.10748" lon="4.61824">
        <ele>447.2</ele>
        <time>2020-10-24T08:36:21Z</time>
      </trkpt>
      <trkpt lat="46.10749" lon="4.61822">
        <ele>447</ele>
        <time>2020-10-24T08:36:22Z</time>
      </trkpt>
      <trkpt lat="46.10749" lon="4.61822">
        <ele>446.6</ele>
        <time>2020-10-24T08:36:23Z</time>
      </trkpt>
      <trkpt lat="46.10749" lon="4.61822">
        <ele>446.4</ele>
        <time>2020-10-24T08:36:24Z</time>
      </trkpt>
      <trkpt lat="46.10751" lon="4.61818">
        <ele>446.2</ele>
        <time>2020-10-24T08:36:25Z</time>
      </trkpt>
      <trkpt lat="46.10751" lon="4.61817">
        <ele>446.2</ele>
        <time>2020-10-24T08:36:26Z</time>
      </trkpt>
      <trkpt lat="46.10751" lon="4.61817">
        <ele>445.8</ele>
        <time>2020-10-24T08:36:27Z</time>
      </trkpt>
      <trkpt lat="46.10751" lon="4.61817">
        <ele>445.6</ele>
        <time>2020-10-24T08:36:28Z</time>
      </trkpt>
      <trkpt lat="46.10751" lon="4.61817">
        <ele>445.4</ele>
        <time>2020-10-24T08:36:29Z</time>
      </trkpt>
      <trkpt lat="46.10751" lon="4.61817">
        <ele>445.4</ele>
        <time>2020-10-24T08:36:30Z</time>
      </trkpt>
      <trkpt lat="46.10751" lon="4.61817">
        <ele>445.4</ele>
        <time>2020-10-24T08:36:31Z</time>
      </trkpt>
      <trkpt lat="46.10751" lon="4.61817">
        <ele>445.2</ele>
        <time>2020-10-24T08:36:32Z</time>
      </trkpt>
      <trkpt lat="46.10751" lon="4.61817">
        <ele>445.6</ele>
        <time>2020-10-24T08:36:33Z</time>
      </trkpt>
      <trkpt lat="46.10751" lon="4.61817">
        <ele>445.6</ele>
        <time>2020-10-24T08:36:34Z</time>
      </trkpt>
      <trkpt lat="46.10751" lon="4.61817">
        <ele>445.8</ele>
        <time>2020-10-24T08:36:35Z</time>
      </trkpt>
      <trkpt lat="46.10751" lon="4.61817">
        <ele>445.6</ele>
        <time>2020-10-24T08:36:36Z</time>
      </trkpt>
      <trkpt lat="46.10751" lon="4.61817">
        <ele>445.4</ele>
        <time>2020-10-24T08:36:37Z</time>
      </trkpt>
      <trkpt lat="46.10751" lon="4.61817">
        <ele>445.8</ele>
        <time>2020-10-24T08:36:38Z</time>
      </trkpt>
      <trkpt lat="46.10751" lon="4.61817">
        <ele>445.8</ele>
        <time>2020-10-24T08:36:39Z</time>
      </trkpt>
      <trkpt lat="46.10751" lon="4.61817">
        <ele>446.2</ele>
        <time>2020-10-24T08:36:40Z</time>
      </trkpt>
      <trkpt lat="46.10751" lon="4.61817">
        <ele>446</ele>
        <time>2020-10-24T08:36:41Z</time>
      </trkpt>
      <trkpt lat="46.10751" lon="4.61817">
        <ele>446.2</ele>
        <time>2020-10-24T08:36:42Z</time>
      </trkpt>
      <trkpt lat="46.10751" lon="4.61817">
        <ele>445.8</ele>
        <time>2020-10-24T08:36:43Z</time>
      </trkpt>
      <trkpt lat="46.10751" lon="4.61817">
        <ele>446</ele>
        <time>2020-10-24T08:36:44Z</time>
      </trkpt>
      <trkpt lat="46.10751" lon="4.61817">
        <ele>445.8</ele>
        <time>2020-10-24T08:36:45Z</time>
      </trkpt>
      <trkpt lat="46.10752" lon="4.61814">
        <ele>445.6</ele>
        <time>2020-10-24T08:36:46Z</time>
      </trkpt>
      <trkpt lat="46.10752" lon="4.61814">
        <ele>445.4</ele>
        <time>2020-10-24T08:36:47Z</time>
      </trkpt>
      <trkpt lat="46.10752" lon="4.61814">
        <ele>445.4</ele>
        <time>2020-10-24T08:36:48Z</time>
      </trkpt>
      <trkpt lat="46.10752" lon="4.61814">
        <ele>445.6</ele>
        <time>2020-10-24T08:36:49Z</time>
      </trkpt>
      <trkpt lat="46.10752" lon="4.61814">
        <ele>445.6</ele>
        <time>2020-10-24T08:36:50Z</time>
      </trkpt>
      <trkpt lat="46.10752" lon="4.61814">
        <ele>445.6</ele>
        <time>2020-10-24T08:36:51Z</time>
      </trkpt>
      <trkpt lat="46.10752" lon="4.61814">
        <ele>445.8</ele>
        <time>2020-10-24T08:36:52Z</time>
      </trkpt>
      <trkpt lat="46.10752" lon="4.61814">
        <ele>446</ele>
        <time>2020-10-24T08:36:53Z</time>
      </trkpt>
      <trkpt lat="46.10752" lon="4.61814">
        <ele>446</ele>
        <time>2020-10-24T08:36:54Z</time>
      </trkpt>
      <trkpt lat="46.10752" lon="4.61814">
        <ele>445.8</ele>
        <time>2020-10-24T08:36:55Z</time>
      </trkpt>
      <trkpt lat="46.10752" lon="4.61814">
        <ele>446</ele>
        <time>2020-10-24T08:36:56Z</time>
      </trkpt>
      <trkpt lat="46.10752" lon="4.61814">
        <ele>446</ele>
        <time>2020-10-24T08:36:57Z</time>
      </trkpt>
      <trkpt lat="46.10752" lon="4.61814">
        <ele>445.8</ele>
        <time>2020-10-24T08:36:58Z</time>
      </trkpt>
      <trkpt lat="46.10752" lon="4.61814">
        <ele>446</ele>
        <time>2020-10-24T08:36:59Z</time>
      </trkpt>
      <trkpt lat="46.10752" lon="4.61814">
        <ele>446</ele>
        <time>2020-10-24T08:37:00Z</time>
      </trkpt>
      <trkpt lat="46.10752" lon="4.61814">
        <ele>445.8</ele>
        <time>2020-10-24T08:37:01Z</time>
      </trkpt>
      <trkpt lat="46.10752" lon="4.61814">
        <ele>445.8</ele>
        <time>2020-10-24T08:37:02Z</time>
      </trkpt>
      <trkpt lat="46.10752" lon="4.61814">
        <ele>446.2</ele>
        <time>2020-10-24T08:37:03Z</time>
      </trkpt>
      <trkpt lat="46.10752" lon="4.61814">
        <ele>446.4</ele>
        <time>2020-10-24T08:37:04Z</time>
      </trkpt>
      <trkpt lat="46.10752" lon="4.61814">
        <ele>446.2</ele>
        <time>2020-10-24T08:37:05Z</time>
      </trkpt>
      <trkpt lat="46.10754" lon="4.61814">
        <ele>446.2</ele>
        <time>2020-10-24T08:37:06Z</time>
      </trkpt>
      <trkpt lat="46.10754" lon="4.61814">
        <ele>446</ele>
        <time>2020-10-24T08:37:07Z</time>
      </trkpt>
      <trkpt lat="46.10756" lon="4.61814">
        <ele>445.8</ele>
        <time>2020-10-24T08:37:08Z</time>
      </trkpt>
      <trkpt lat="46.10756" lon="4.61814">
        <ele>445.6</ele>
        <time>2020-10-24T08:37:09Z</time>
      </trkpt>
      <trkpt lat="46.10756" lon="4.61814">
        <ele>445.4</ele>
        <time>2020-10-24T08:37:10Z</time>
      </trkpt>
      <trkpt lat="46.10756" lon="4.61814">
        <ele>445</ele>
        <time>2020-10-24T08:37:11Z</time>
      </trkpt>
      <trkpt lat="46.10756" lon="4.61814">
        <ele>444.8</ele>
        <time>2020-10-24T08:37:12Z</time>
      </trkpt>
      <trkpt lat="46.10756" lon="4.61814">
        <ele>444.6</ele>
        <time>2020-10-24T08:37:13Z</time>
      </trkpt>
      <trkpt lat="46.10756" lon="4.61814">
        <ele>444.6</ele>
        <time>2020-10-24T08:37:14Z</time>
      </trkpt>
      <trkpt lat="46.10756" lon="4.61814">
        <ele>444.6</ele>
        <time>2020-10-24T08:37:15Z</time>
      </trkpt>
      <trkpt lat="46.10758" lon="4.61815">
        <ele>444.4</ele>
        <time>2020-10-24T08:37:16Z</time>
      </trkpt>
      <trkpt lat="46.10758" lon="4.61815">
        <ele>444.4</ele>
        <time>2020-10-24T08:37:17Z</time>
      </trkpt>
      <trkpt lat="46.1076" lon="4.61815">
        <ele>444.4</ele>
        <time>2020-10-24T08:37:18Z</time>
      </trkpt>
      <trkpt lat="46.1076" lon="4.61815">
        <ele>444.2</ele>
        <time>2020-10-24T08:37:19Z</time>
      </trkpt>
      <trkpt lat="46.1076" lon="4.61815">
        <ele>444</ele>
        <time>2020-10-24T08:37:20Z</time>
      </trkpt>
      <trkpt lat="46.10763" lon="4.61814">
        <ele>443.6</ele>
        <time>2020-10-24T08:37:21Z</time>
      </trkpt>
      <trkpt lat="46.10763" lon="4.61814">
        <ele>443.4</ele>
        <time>2020-10-24T08:37:22Z</time>
      </trkpt>
      <trkpt lat="46.10765" lon="4.61814">
        <ele>443.2</ele>
        <time>2020-10-24T08:37:23Z</time>
      </trkpt>
      <trkpt lat="46.10766" lon="4.61814">
        <ele>442.8</ele>
        <time>2020-10-24T08:37:24Z</time>
      </trkpt>
      <trkpt lat="46.10766" lon="4.61814">
        <ele>442.6</ele>
        <time>2020-10-24T08:37:25Z</time>
      </trkpt>
      <trkpt lat="46.10768" lon="4.61811">
        <ele>442.2</ele>
        <time>2020-10-24T08:37:26Z</time>
      </trkpt>
      <trkpt lat="46.10768" lon="4.61811">
        <ele>441.8</ele>
        <time>2020-10-24T08:37:27Z</time>
      </trkpt>
      <trkpt lat="46.10769" lon="4.61808">
        <ele>441.4</ele>
        <time>2020-10-24T08:37:28Z</time>
      </trkpt>
      <trkpt lat="46.10769" lon="4.61808">
        <ele>440.4</ele>
        <time>2020-10-24T08:37:29Z</time>
      </trkpt>
      <trkpt lat="46.10767" lon="4.61803">
        <ele>440.4</ele>
        <time>2020-10-24T08:37:30Z</time>
      </trkpt>
      <trkpt lat="46.10766" lon="4.618">
        <ele>439.6</ele>
        <time>2020-10-24T08:37:31Z</time>
      </trkpt>
      <trkpt lat="46.10765" lon="4.61797">
        <ele>439</ele>
        <time>2020-10-24T08:37:32Z</time>
      </trkpt>
      <trkpt lat="46.10764" lon="4.61795">
        <ele>439</ele>
        <time>2020-10-24T08:37:33Z</time>
      </trkpt>
      <trkpt lat="46.10763" lon="4.61792">
        <ele>438.6</ele>
        <time>2020-10-24T08:37:34Z</time>
      </trkpt>
      <trkpt lat="46.10762" lon="4.6179">
        <ele>438.2</ele>
        <time>2020-10-24T08:37:35Z</time>
      </trkpt>
      <trkpt lat="46.10762" lon="4.61787">
        <ele>438.2</ele>
        <time>2020-10-24T08:37:36Z</time>
      </trkpt>
      <trkpt lat="46.10761" lon="4.61784">
        <ele>437.8</ele>
        <time>2020-10-24T08:37:37Z</time>
      </trkpt>
      <trkpt lat="46.1076" lon="4.61781">
        <ele>437.2</ele>
        <time>2020-10-24T08:37:38Z</time>
      </trkpt>
      <trkpt lat="46.10759" lon="4.61778">
        <ele>437.2</ele>
        <time>2020-10-24T08:37:39Z</time>
      </trkpt>
      <trkpt lat="46.10758" lon="4.61775">
        <ele>436.8</ele>
        <time>2020-10-24T08:37:40Z</time>
      </trkpt>
      <trkpt lat="46.10757" lon="4.61772">
        <ele>436.6</ele>
        <time>2020-10-24T08:37:41Z</time>
      </trkpt>
      <trkpt lat="46.10756" lon="4.61769">
        <ele>436.6</ele>
        <time>2020-10-24T08:37:42Z</time>
      </trkpt>
      <trkpt lat="46.10756" lon="4.61765">
        <ele>436.2</ele>
        <time>2020-10-24T08:37:43Z</time>
      </trkpt>
      <trkpt lat="46.10755" lon="4.61762">
        <ele>435.8</ele>
        <time>2020-10-24T08:37:44Z</time>
      </trkpt>
      <trkpt lat="46.10754" lon="4.61759">
        <ele>435.4</ele>
        <time>2020-10-24T08:37:45Z</time>
      </trkpt>
      <trkpt lat="46.10753" lon="4.61756">
        <ele>435</ele>
        <time>2020-10-24T08:37:46Z</time>
      </trkpt>
      <trkpt lat="46.10752" lon="4.61753">
        <ele>434.6</ele>
        <time>2020-10-24T08:37:47Z</time>
      </trkpt>
      <trkpt lat="46.10751" lon="4.6175">
        <ele>434</ele>
        <time>2020-10-24T08:37:48Z</time>
      </trkpt>
      <trkpt lat="46.10751" lon="4.61747">
        <ele>433.4</ele>
        <time>2020-10-24T08:37:49Z</time>
      </trkpt>
      <trkpt lat="46.1075" lon="4.61744">
        <ele>433.2</ele>
        <time>2020-10-24T08:37:50Z</time>
      </trkpt>
      <trkpt lat="46.10749" lon="4.61741">
        <ele>433.2</ele>
        <time>2020-10-24T08:37:51Z</time>
      </trkpt>
      <trkpt lat="46.10748" lon="4.61739">
        <ele>433</ele>
        <time>2020-10-24T08:37:52Z</time>
      </trkpt>
      <trkpt lat="46.10747" lon="4.61736">
        <ele>432.2</ele>
        <time>2020-10-24T08:37:53Z</time>
      </trkpt>
      <trkpt lat="46.10746" lon="4.61733">
        <ele>431.8</ele>
        <time>2020-10-24T08:37:54Z</time>
      </trkpt>
      <trkpt lat="46.10745" lon="4.61731">
        <ele>431.2</ele>
        <time>2020-10-24T08:37:55Z</time>
      </trkpt>
      <trkpt lat="46.10744" lon="4.61728">
        <ele>430.8</ele>
        <time>2020-10-24T08:37:56Z</time>
      </trkpt>
      <trkpt lat="46.10743" lon="4.61725">
        <ele>430</ele>
        <time>2020-10-24T08:37:57Z</time>
      </trkpt>
      <trkpt lat="46.10742" lon="4.61722">
        <ele>429.6</ele>
        <time>2020-10-24T08:37:58Z</time>
      </trkpt>
      <trkpt lat="46.10742" lon="4.61719">
        <ele>428.6</ele>
        <time>2020-10-24T08:37:59Z</time>
      </trkpt>
      <trkpt lat="46.10741" lon="4.61716">
        <ele>428</ele>
        <time>2020-10-24T08:38:00Z</time>
      </trkpt>
      <trkpt lat="46.10741" lon="4.61713">
        <ele>427.4</ele>
        <time>2020-10-24T08:38:01Z</time>
      </trkpt>
      <trkpt lat="46.10741" lon="4.61711">
        <ele>426.6</ele>
        <time>2020-10-24T08:38:02Z</time>
      </trkpt>
      <trkpt lat="46.10741" lon="4.61711">
        <ele>426</ele>
        <time>2020-10-24T08:38:03Z</time>
      </trkpt>
      <trkpt lat="46.10741" lon="4.61707">
        <ele>425.4</ele>
        <time>2020-10-24T08:38:04Z</time>
      </trkpt>
      <trkpt lat="46.10741" lon="4.61707">
        <ele>425</ele>
        <time>2020-10-24T08:38:05Z</time>
      </trkpt>
      <trkpt lat="46.10741" lon="4.61701">
        <ele>424.6</ele>
        <time>2020-10-24T08:38:06Z</time>
      </trkpt>
      <trkpt lat="46.10741" lon="4.61698">
        <ele>423.8</ele>
        <time>2020-10-24T08:38:07Z</time>
      </trkpt>
      <trkpt lat="46.10742" lon="4.61694">
        <ele>423.2</ele>
        <time>2020-10-24T08:38:08Z</time>
      </trkpt>
      <trkpt lat="46.10744" lon="4.61691">
        <ele>422.8</ele>
        <time>2020-10-24T08:38:09Z</time>
      </trkpt>
      <trkpt lat="46.10746" lon="4.6169">
        <ele>422</ele>
        <time>2020-10-24T08:38:10Z</time>
      </trkpt>
      <trkpt lat="46.10749" lon="4.6169">
        <ele>421.8</ele>
        <time>2020-10-24T08:38:11Z</time>
      </trkpt>
      <trkpt lat="46.10752" lon="4.6169">
        <ele>421</ele>
        <time>2020-10-24T08:38:12Z</time>
      </trkpt>
      <trkpt lat="46.10755" lon="4.61691">
        <ele>420.6</ele>
        <time>2020-10-24T08:38:13Z</time>
      </trkpt>
      <trkpt lat="46.10758" lon="4.61692">
        <ele>420</ele>
        <time>2020-10-24T08:38:14Z</time>
      </trkpt>
      <trkpt lat="46.10761" lon="4.61694">
        <ele>419.2</ele>
        <time>2020-10-24T08:38:15Z</time>
      </trkpt>
      <trkpt lat="46.10763" lon="4.61695">
        <ele>419.2</ele>
        <time>2020-10-24T08:38:16Z</time>
      </trkpt>
      <trkpt lat="46.10766" lon="4.61697">
        <ele>418.6</ele>
        <time>2020-10-24T08:38:17Z</time>
      </trkpt>
      <trkpt lat="46.10769" lon="4.61699">
        <ele>418.2</ele>
        <time>2020-10-24T08:38:18Z</time>
      </trkpt>
      <trkpt lat="46.10771" lon="4.617">
        <ele>418.2</ele>
        <time>2020-10-24T08:38:19Z</time>
      </trkpt>
      <trkpt lat="46.10774" lon="4.61701">
        <ele>418</ele>
        <time>2020-10-24T08:38:20Z</time>
      </trkpt>
      <trkpt lat="46.10777" lon="4.61703">
        <ele>417.2</ele>
        <time>2020-10-24T08:38:21Z</time>
      </trkpt>
      <trkpt lat="46.10779" lon="4.61705">
        <ele>417.4</ele>
        <time>2020-10-24T08:38:22Z</time>
      </trkpt>
      <trkpt lat="46.10781" lon="4.61708">
        <ele>417.2</ele>
        <time>2020-10-24T08:38:23Z</time>
      </trkpt>
      <trkpt lat="46.10784" lon="4.61711">
        <ele>417.4</ele>
        <time>2020-10-24T08:38:24Z</time>
      </trkpt>
      <trkpt lat="46.10786" lon="4.61713">
        <ele>417.2</ele>
        <time>2020-10-24T08:38:25Z</time>
      </trkpt>
      <trkpt lat="46.10788" lon="4.61715">
        <ele>416.8</ele>
        <time>2020-10-24T08:38:26Z</time>
      </trkpt>
      <trkpt lat="46.1079" lon="4.61718">
        <ele>416.6</ele>
        <time>2020-10-24T08:38:27Z</time>
      </trkpt>
      <trkpt lat="46.10792" lon="4.6172">
        <ele>416.8</ele>
        <time>2020-10-24T08:38:28Z</time>
      </trkpt>
      <trkpt lat="46.10794" lon="4.61722">
        <ele>416.4</ele>
        <time>2020-10-24T08:38:29Z</time>
      </trkpt>
      <trkpt lat="46.10796" lon="4.61724">
        <ele>416.4</ele>
        <time>2020-10-24T08:38:30Z</time>
      </trkpt>
      <trkpt lat="46.10799" lon="4.61727">
        <ele>416.4</ele>
        <time>2020-10-24T08:38:31Z</time>
      </trkpt>
      <trkpt lat="46.10801" lon="4.6173">
        <ele>416.2</ele>
        <time>2020-10-24T08:38:32Z</time>
      </trkpt>
      <trkpt lat="46.10803" lon="4.61732">
        <ele>416</ele>
        <time>2020-10-24T08:38:33Z</time>
      </trkpt>
      <trkpt lat="46.10805" lon="4.61735">
        <ele>416.2</ele>
        <time>2020-10-24T08:38:34Z</time>
      </trkpt>
      <trkpt lat="46.10806" lon="4.61737">
        <ele>415.8</ele>
        <time>2020-10-24T08:38:35Z</time>
      </trkpt>
      <trkpt lat="46.10808" lon="4.6174">
        <ele>415.8</ele>
        <time>2020-10-24T08:38:36Z</time>
      </trkpt>
      <trkpt lat="46.1081" lon="4.61743">
        <ele>415.8</ele>
        <time>2020-10-24T08:38:37Z</time>
      </trkpt>
      <trkpt lat="46.10812" lon="4.61746">
        <ele>415.6</ele>
        <time>2020-10-24T08:38:38Z</time>
      </trkpt>
      <trkpt lat="46.10813" lon="4.61749">
        <ele>415.4</ele>
        <time>2020-10-24T08:38:39Z</time>
      </trkpt>
      <trkpt lat="46.10814" lon="4.61752">
        <ele>415.6</ele>
        <time>2020-10-24T08:38:40Z</time>
      </trkpt>
      <trkpt lat="46.10816" lon="4.61755">
        <ele>415.2</ele>
        <time>2020-10-24T08:38:41Z</time>
      </trkpt>
      <trkpt lat="46.10819" lon="4.61759">
        <ele>415.2</ele>
        <time>2020-10-24T08:38:42Z</time>
      </trkpt>
      <trkpt lat="46.10821" lon="4.61762">
        <ele>415.6</ele>
        <time>2020-10-24T08:38:43Z</time>
      </trkpt>
      <trkpt lat="46.10823" lon="4.61765">
        <ele>415.2</ele>
        <time>2020-10-24T08:38:44Z</time>
      </trkpt>
      <trkpt lat="46.10825" lon="4.61768">
        <ele>415</ele>
        <time>2020-10-24T08:38:45Z</time>
      </trkpt>
      <trkpt lat="46.10827" lon="4.61771">
        <ele>415</ele>
        <time>2020-10-24T08:38:46Z</time>
      </trkpt>
      <trkpt lat="46.10828" lon="4.61774">
        <ele>414.8</ele>
        <time>2020-10-24T08:38:47Z</time>
      </trkpt>
      <trkpt lat="46.1083" lon="4.61776">
        <ele>414.6</ele>
        <time>2020-10-24T08:38:48Z</time>
      </trkpt>
      <trkpt lat="46.10831" lon="4.61779">
        <ele>414.8</ele>
        <time>2020-10-24T08:38:49Z</time>
      </trkpt>
      <trkpt lat="46.10833" lon="4.61782">
        <ele>414.6</ele>
        <time>2020-10-24T08:38:50Z</time>
      </trkpt>
      <trkpt lat="46.10835" lon="4.61785">
        <ele>414.6</ele>
        <time>2020-10-24T08:38:51Z</time>
      </trkpt>
      <trkpt lat="46.10836" lon="4.61788">
        <ele>414.6</ele>
        <time>2020-10-24T08:38:52Z</time>
      </trkpt>
      <trkpt lat="46.10838" lon="4.61791">
        <ele>414.4</ele>
        <time>2020-10-24T08:38:53Z</time>
      </trkpt>
      <trkpt lat="46.10839" lon="4.61794">
        <ele>414.2</ele>
        <time>2020-10-24T08:38:54Z</time>
      </trkpt>
      <trkpt lat="46.10841" lon="4.61797">
        <ele>414.2</ele>
        <time>2020-10-24T08:38:55Z</time>
      </trkpt>
      <trkpt lat="46.10842" lon="4.618">
        <ele>414</ele>
        <time>2020-10-24T08:38:56Z</time>
      </trkpt>
      <trkpt lat="46.10844" lon="4.61803">
        <ele>413.4</ele>
        <time>2020-10-24T08:38:57Z</time>
      </trkpt>
      <trkpt lat="46.10845" lon="4.61805">
        <ele>413.6</ele>
        <time>2020-10-24T08:38:58Z</time>
      </trkpt>
      <trkpt lat="46.10847" lon="4.61808">
        <ele>413.4</ele>
        <time>2020-10-24T08:38:59Z</time>
      </trkpt>
      <trkpt lat="46.10848" lon="4.61811">
        <ele>413</ele>
        <time>2020-10-24T08:39:00Z</time>
      </trkpt>
      <trkpt lat="46.10849" lon="4.61814">
        <ele>413</ele>
        <time>2020-10-24T08:39:01Z</time>
      </trkpt>
      <trkpt lat="46.10851" lon="4.61817">
        <ele>412.8</ele>
        <time>2020-10-24T08:39:02Z</time>
      </trkpt>
      <trkpt lat="46.10853" lon="4.6182">
        <ele>412.4</ele>
        <time>2020-10-24T08:39:03Z</time>
      </trkpt>
      <trkpt lat="46.10855" lon="4.61824">
        <ele>412.4</ele>
        <time>2020-10-24T08:39:04Z</time>
      </trkpt>
      <trkpt lat="46.10856" lon="4.61827">
        <ele>412</ele>
        <time>2020-10-24T08:39:05Z</time>
      </trkpt>
      <trkpt lat="46.10858" lon="4.61831">
        <ele>411.6</ele>
        <time>2020-10-24T08:39:06Z</time>
      </trkpt>
      <trkpt lat="46.1086" lon="4.61834">
        <ele>411.6</ele>
        <time>2020-10-24T08:39:07Z</time>
      </trkpt>
      <trkpt lat="46.10862" lon="4.61838">
        <ele>411.4</ele>
        <time>2020-10-24T08:39:08Z</time>
      </trkpt>
      <trkpt lat="46.10863" lon="4.61842">
        <ele>411</ele>
        <time>2020-10-24T08:39:09Z</time>
      </trkpt>
      <trkpt lat="46.10865" lon="4.61845">
        <ele>411.2</ele>
        <time>2020-10-24T08:39:10Z</time>
      </trkpt>
      <trkpt lat="46.10867" lon="4.61848">
        <ele>410.6</ele>
        <time>2020-10-24T08:39:11Z</time>
      </trkpt>
      <trkpt lat="46.10868" lon="4.61851">
        <ele>410.4</ele>
        <time>2020-10-24T08:39:12Z</time>
      </trkpt>
      <trkpt lat="46.10869" lon="4.61854">
        <ele>410.4</ele>
        <time>2020-10-24T08:39:13Z</time>
      </trkpt>
      <trkpt lat="46.10871" lon="4.61857">
        <ele>410</ele>
        <time>2020-10-24T08:39:14Z</time>
      </trkpt>
      <trkpt lat="46.10872" lon="4.61861">
        <ele>409.8</ele>
        <time>2020-10-24T08:39:15Z</time>
      </trkpt>
      <trkpt lat="46.10873" lon="4.61864">
        <ele>410</ele>
        <time>2020-10-24T08:39:16Z</time>
      </trkpt>
      <trkpt lat="46.10874" lon="4.61867">
        <ele>409.6</ele>
        <time>2020-10-24T08:39:17Z</time>
      </trkpt>
      <trkpt lat="46.10875" lon="4.61869">
        <ele>409.2</ele>
        <time>2020-10-24T08:39:18Z</time>
      </trkpt>
      <trkpt lat="46.10877" lon="4.61872">
        <ele>409.6</ele>
        <time>2020-10-24T08:39:19Z</time>
      </trkpt>
      <trkpt lat="46.10877" lon="4.61875">
        <ele>409.4</ele>
        <time>2020-10-24T08:39:20Z</time>
      </trkpt>
      <trkpt lat="46.10877" lon="4.61875">
        <ele>409</ele>
        <time>2020-10-24T08:39:21Z</time>
      </trkpt>
      <trkpt lat="46.10879" lon="4.61879">
        <ele>408.8</ele>
        <time>2020-10-24T08:39:22Z</time>
      </trkpt>
      <trkpt lat="46.10879" lon="4.61879">
        <ele>408.6</ele>
        <time>2020-10-24T08:39:23Z</time>
      </trkpt>
      <trkpt lat="46.10879" lon="4.61883">
        <ele>408.6</ele>
        <time>2020-10-24T08:39:24Z</time>
      </trkpt>
      <trkpt lat="46.10879" lon="4.61883">
        <ele>409</ele>
        <time>2020-10-24T08:39:25Z</time>
      </trkpt>
      <trkpt lat="46.10879" lon="4.61883">
        <ele>409</ele>
        <time>2020-10-24T08:39:26Z</time>
      </trkpt>
      <trkpt lat="46.10879" lon="4.61883">
        <ele>409</ele>
        <time>2020-10-24T08:39:27Z</time>
      </trkpt>
      <trkpt lat="46.10879" lon="4.61883">
        <ele>408.8</ele>
        <time>2020-10-24T08:39:28Z</time>
      </trkpt>
      <trkpt lat="46.10878" lon="4.61886">
        <ele>409</ele>
        <time>2020-10-24T08:39:29Z</time>
      </trkpt>
      <trkpt lat="46.10878" lon="4.61886">
        <ele>408.8</ele>
        <time>2020-10-24T08:39:30Z</time>
      </trkpt>
      <trkpt lat="46.10878" lon="4.61886">
        <ele>408.8</ele>
        <time>2020-10-24T08:39:31Z</time>
      </trkpt>
      <trkpt lat="46.10878" lon="4.61886">
        <ele>408.8</ele>
        <time>2020-10-24T08:39:32Z</time>
      </trkpt>
      <trkpt lat="46.10878" lon="4.61886">
        <ele>408.8</ele>
        <time>2020-10-24T08:39:33Z</time>
      </trkpt>
      <trkpt lat="46.10878" lon="4.61886">
        <ele>408.8</ele>
        <time>2020-10-24T08:39:34Z</time>
      </trkpt>
      <trkpt lat="46.10878" lon="4.61886">
        <ele>408.8</ele>
        <time>2020-10-24T08:39:35Z</time>
      </trkpt>
      <trkpt lat="46.10877" lon="4.61889">
        <ele>408.6</ele>
        <time>2020-10-24T08:39:36Z</time>
      </trkpt>
      <trkpt lat="46.10877" lon="4.61889">
        <ele>408.8</ele>
        <time>2020-10-24T08:39:37Z</time>
      </trkpt>
      <trkpt lat="46.10877" lon="4.61889">
        <ele>409</ele>
        <time>2020-10-24T08:39:38Z</time>
      </trkpt>
      <trkpt lat="46.10876" lon="4.61893">
        <ele>409</ele>
        <time>2020-10-24T08:39:39Z</time>
      </trkpt>
      <trkpt lat="46.10875" lon="4.61894">
        <ele>409</ele>
        <time>2020-10-24T08:39:40Z</time>
      </trkpt>
      <trkpt lat="46.10875" lon="4.61894">
        <ele>409</ele>
        <time>2020-10-24T08:39:41Z</time>
      </trkpt>
      <trkpt lat="46.10873" lon="4.61897">
        <ele>409.2</ele>
        <time>2020-10-24T08:39:42Z</time>
      </trkpt>
      <trkpt lat="46.10873" lon="4.61897">
        <ele>409.4</ele>
        <time>2020-10-24T08:39:43Z</time>
      </trkpt>
      <trkpt lat="46.10872" lon="4.61901">
        <ele>409.4</ele>
        <time>2020-10-24T08:39:44Z</time>
      </trkpt>
      <trkpt lat="46.10872" lon="4.61901">
        <ele>409.6</ele>
        <time>2020-10-24T08:39:45Z</time>
      </trkpt>
      <trkpt lat="46.10871" lon="4.61904">
        <ele>409.8</ele>
        <time>2020-10-24T08:39:46Z</time>
      </trkpt>
      <trkpt lat="46.10871" lon="4.61904">
        <ele>410</ele>
        <time>2020-10-24T08:39:47Z</time>
      </trkpt>
      <trkpt lat="46.1087" lon="4.61906">
        <ele>410</ele>
        <time>2020-10-24T08:39:48Z</time>
      </trkpt>
      <trkpt lat="46.1087" lon="4.61906">
        <ele>410.4</ele>
        <time>2020-10-24T08:39:49Z</time>
      </trkpt>
      <trkpt lat="46.10869" lon="4.6191">
        <ele>410.6</ele>
        <time>2020-10-24T08:39:50Z</time>
      </trkpt>
      <trkpt lat="46.10869" lon="4.6191">
        <ele>410.8</ele>
        <time>2020-10-24T08:39:51Z</time>
      </trkpt>
      <trkpt lat="46.10868" lon="4.61913">
        <ele>410.8</ele>
        <time>2020-10-24T08:39:52Z</time>
      </trkpt>
      <trkpt lat="46.10868" lon="4.61913">
        <ele>411</ele>
        <time>2020-10-24T08:39:53Z</time>
      </trkpt>
      <trkpt lat="46.10866" lon="4.61915">
        <ele>411.2</ele>
        <time>2020-10-24T08:39:54Z</time>
      </trkpt>
      <trkpt lat="46.10866" lon="4.61915">
        <ele>411.6</ele>
        <time>2020-10-24T08:39:55Z</time>
      </trkpt>
      <trkpt lat="46.10865" lon="4.61917">
        <ele>411.8</ele>
        <time>2020-10-24T08:39:56Z</time>
      </trkpt>
      <trkpt lat="46.10865" lon="4.61917">
        <ele>412</ele>
        <time>2020-10-24T08:39:57Z</time>
      </trkpt>
      <trkpt lat="46.10863" lon="4.6192">
        <ele>412</ele>
        <time>2020-10-24T08:39:58Z</time>
      </trkpt>
      <trkpt lat="46.10863" lon="4.6192">
        <ele>412.2</ele>
        <time>2020-10-24T08:39:59Z</time>
      </trkpt>
      <trkpt lat="46.10862" lon="4.61922">
        <ele>412.2</ele>
        <time>2020-10-24T08:40:00Z</time>
      </trkpt>
      <trkpt lat="46.10862" lon="4.61922">
        <ele>412.6</ele>
        <time>2020-10-24T08:40:01Z</time>
      </trkpt>
      <trkpt lat="46.1086" lon="4.61925">
        <ele>412.8</ele>
        <time>2020-10-24T08:40:02Z</time>
      </trkpt>
      <trkpt lat="46.1086" lon="4.61925">
        <ele>413</ele>
        <time>2020-10-24T08:40:03Z</time>
      </trkpt>
      <trkpt lat="46.10859" lon="4.61928">
        <ele>413.2</ele>
        <time>2020-10-24T08:40:04Z</time>
      </trkpt>
      <trkpt lat="46.10859" lon="4.61928">
        <ele>413.2</ele>
        <time>2020-10-24T08:40:05Z</time>
      </trkpt>
      <trkpt lat="46.10857" lon="4.6193">
        <ele>413.2</ele>
        <time>2020-10-24T08:40:06Z</time>
      </trkpt>
      <trkpt lat="46.10857" lon="4.6193">
        <ele>413.4</ele>
        <time>2020-10-24T08:40:07Z</time>
      </trkpt>
      <trkpt lat="46.10855" lon="4.61933">
        <ele>413.6</ele>
        <time>2020-10-24T08:40:08Z</time>
      </trkpt>
      <trkpt lat="46.10855" lon="4.61933">
        <ele>413.8</ele>
        <time>2020-10-24T08:40:09Z</time>
      </trkpt>
      <trkpt lat="46.10853" lon="4.61934">
        <ele>413.8</ele>
        <time>2020-10-24T08:40:10Z</time>
      </trkpt>
      <trkpt lat="46.10853" lon="4.61934">
        <ele>414</ele>
        <time>2020-10-24T08:40:11Z</time>
      </trkpt>
      <trkpt lat="46.10853" lon="4.61934">
        <ele>414.4</ele>
        <time>2020-10-24T08:40:12Z</time>
      </trkpt>
      <trkpt lat="46.10853" lon="4.61934">
        <ele>414.6</ele>
        <time>2020-10-24T08:40:13Z</time>
      </trkpt>
      <trkpt lat="46.10853" lon="4.61934">
        <ele>415</ele>
        <time>2020-10-24T08:40:14Z</time>
      </trkpt>
      <trkpt lat="46.10853" lon="4.61934">
        <ele>415.2</ele>
        <time>2020-10-24T08:40:15Z</time>
      </trkpt>
      <trkpt lat="46.10853" lon="4.61937">
        <ele>415.4</ele>
        <time>2020-10-24T08:40:16Z</time>
      </trkpt>
      <trkpt lat="46.10853" lon="4.61937">
        <ele>415.2</ele>
        <time>2020-10-24T08:40:17Z</time>
      </trkpt>
      <trkpt lat="46.1085" lon="4.61939">
        <ele>415.2</ele>
        <time>2020-10-24T08:40:18Z</time>
      </trkpt>
      <trkpt lat="46.1085" lon="4.61939">
        <ele>415</ele>
        <time>2020-10-24T08:40:19Z</time>
      </trkpt>
      <trkpt lat="46.10848" lon="4.61939">
        <ele>415</ele>
        <time>2020-10-24T08:40:20Z</time>
      </trkpt>
      <trkpt lat="46.10848" lon="4.61939">
        <ele>414.8</ele>
        <time>2020-10-24T08:40:21Z</time>
      </trkpt>
      <trkpt lat="46.10848" lon="4.61939">
        <ele>414.8</ele>
        <time>2020-10-24T08:40:22Z</time>
      </trkpt>
      <trkpt lat="46.10845" lon="4.61944">
        <ele>414.8</ele>
        <time>2020-10-24T08:40:23Z</time>
      </trkpt>
      <trkpt lat="46.10844" lon="4.61945">
        <ele>414.8</ele>
        <time>2020-10-24T08:40:24Z</time>
      </trkpt>
      <trkpt lat="46.10844" lon="4.61945">
        <ele>414.8</ele>
        <time>2020-10-24T08:40:25Z</time>
      </trkpt>
      <trkpt lat="46.10843" lon="4.61949">
        <ele>415</ele>
        <time>2020-10-24T08:40:26Z</time>
      </trkpt>
      <trkpt lat="46.10843" lon="4.61949">
        <ele>415</ele>
        <time>2020-10-24T08:40:27Z</time>
      </trkpt>
      <trkpt lat="46.10843" lon="4.61949">
        <ele>415.2</ele>
        <time>2020-10-24T08:40:28Z</time>
      </trkpt>
      <trkpt lat="46.10843" lon="4.61949">
        <ele>415.4</ele>
        <time>2020-10-24T08:40:29Z</time>
      </trkpt>
      <trkpt lat="46.10841" lon="4.61951">
        <ele>415.6</ele>
        <time>2020-10-24T08:40:30Z</time>
      </trkpt>
      <trkpt lat="46.10841" lon="4.61951">
        <ele>415.8</ele>
        <time>2020-10-24T08:40:31Z</time>
      </trkpt>
      <trkpt lat="46.10841" lon="4.61951">
        <ele>415.8</ele>
        <time>2020-10-24T08:40:32Z</time>
      </trkpt>
      <trkpt lat="46.10841" lon="4.61951">
        <ele>415.8</ele>
        <time>2020-10-24T08:40:33Z</time>
      </trkpt>
      <trkpt lat="46.10841" lon="4.61953">
        <ele>415.8</ele>
        <time>2020-10-24T08:40:34Z</time>
      </trkpt>
      <trkpt lat="46.10841" lon="4.61953">
        <ele>416</ele>
        <time>2020-10-24T08:40:35Z</time>
      </trkpt>
      <trkpt lat="46.1084" lon="4.61957">
        <ele>416.4</ele>
        <time>2020-10-24T08:40:36Z</time>
      </trkpt>
      <trkpt lat="46.1084" lon="4.61957">
        <ele>416.6</ele>
        <time>2020-10-24T08:40:37Z</time>
      </trkpt>
      <trkpt lat="46.10839" lon="4.6196">
        <ele>416.4</ele>
        <time>2020-10-24T08:40:38Z</time>
      </trkpt>
      <trkpt lat="46.10839" lon="4.6196">
        <ele>416.4</ele>
        <time>2020-10-24T08:40:39Z</time>
      </trkpt>
      <trkpt lat="46.10838" lon="4.61963">
        <ele>416.6</ele>
        <time>2020-10-24T08:40:40Z</time>
      </trkpt>
      <trkpt lat="46.10838" lon="4.61963">
        <ele>416.4</ele>
        <time>2020-10-24T08:40:41Z</time>
      </trkpt>
      <trkpt lat="46.10837" lon="4.61967">
        <ele>416.4</ele>
        <time>2020-10-24T08:40:42Z</time>
      </trkpt>
      <trkpt lat="46.10836" lon="4.61969">
        <ele>417</ele>
        <time>2020-10-24T08:40:43Z</time>
      </trkpt>
      <trkpt lat="46.10836" lon="4.61972">
        <ele>417</ele>
        <time>2020-10-24T08:40:44Z</time>
      </trkpt>
      <trkpt lat="46.10835" lon="4.61975">
        <ele>417.2</ele>
        <time>2020-10-24T08:40:45Z</time>
      </trkpt>
      <trkpt lat="46.10834" lon="4.61978">
        <ele>417.4</ele>
        <time>2020-10-24T08:40:46Z</time>
      </trkpt>
      <trkpt lat="46.10833" lon="4.61981">
        <ele>417.4</ele>
        <time>2020-10-24T08:40:47Z</time>
      </trkpt>
      <trkpt lat="46.10832" lon="4.61984">
        <ele>417.6</ele>
        <time>2020-10-24T08:40:48Z</time>
      </trkpt>
      <trkpt lat="46.10831" lon="4.61986">
        <ele>417.6</ele>
        <time>2020-10-24T08:40:49Z</time>
      </trkpt>
      <trkpt lat="46.10831" lon="4.61986">
        <ele>417.6</ele>
        <time>2020-10-24T08:40:50Z</time>
      </trkpt>
      <trkpt lat="46.10828" lon="4.61992">
        <ele>417.6</ele>
        <time>2020-10-24T08:40:51Z</time>
      </trkpt>
      <trkpt lat="46.10827" lon="4.61995">
        <ele>417.4</ele>
        <time>2020-10-24T08:40:52Z</time>
      </trkpt>
      <trkpt lat="46.10825" lon="4.62">
        <ele>417.2</ele>
        <time>2020-10-24T08:40:53Z</time>
      </trkpt>
      <trkpt lat="46.10824" lon="4.62003">
        <ele>417.4</ele>
        <time>2020-10-24T08:40:54Z</time>
      </trkpt>
      <trkpt lat="46.10823" lon="4.62005">
        <ele>417.2</ele>
        <time>2020-10-24T08:40:55Z</time>
      </trkpt>
      <trkpt lat="46.10822" lon="4.62008">
        <ele>417</ele>
        <time>2020-10-24T08:40:56Z</time>
      </trkpt>
      <trkpt lat="46.10821" lon="4.62012">
        <ele>417.2</ele>
        <time>2020-10-24T08:40:57Z</time>
      </trkpt>
      <trkpt lat="46.10821" lon="4.62012">
        <ele>417</ele>
        <time>2020-10-24T08:40:58Z</time>
      </trkpt>
      <trkpt lat="46.10819" lon="4.62019">
        <ele>417</ele>
        <time>2020-10-24T08:40:59Z</time>
      </trkpt>
      <trkpt lat="46.10818" lon="4.62022">
        <ele>417</ele>
        <time>2020-10-24T08:41:00Z</time>
      </trkpt>
      <trkpt lat="46.10817" lon="4.62026">
        <ele>416.8</ele>
        <time>2020-10-24T08:41:01Z</time>
      </trkpt>
      <trkpt lat="46.10816" lon="4.6203">
        <ele>416.8</ele>
        <time>2020-10-24T08:41:02Z</time>
      </trkpt>
      <trkpt lat="46.10815" lon="4.62033">
        <ele>416.4</ele>
        <time>2020-10-24T08:41:03Z</time>
      </trkpt>
      <trkpt lat="46.10815" lon="4.62037">
        <ele>415.8</ele>
        <time>2020-10-24T08:41:04Z</time>
      </trkpt>
      <trkpt lat="46.10815" lon="4.62042">
        <ele>416.2</ele>
        <time>2020-10-24T08:41:05Z</time>
      </trkpt>
      <trkpt lat="46.10815" lon="4.62046">
        <ele>416</ele>
        <time>2020-10-24T08:41:06Z</time>
      </trkpt>
      <trkpt lat="46.10816" lon="4.62051">
        <ele>415.8</ele>
        <time>2020-10-24T08:41:07Z</time>
      </trkpt>
      <trkpt lat="46.10816" lon="4.62054">
        <ele>415.8</ele>
        <time>2020-10-24T08:41:08Z</time>
      </trkpt>
      <trkpt lat="46.10816" lon="4.62058">
        <ele>415.6</ele>
        <time>2020-10-24T08:41:09Z</time>
      </trkpt>
      <trkpt lat="46.10815" lon="4.62062">
        <ele>415.6</ele>
        <time>2020-10-24T08:41:10Z</time>
      </trkpt>
      <trkpt lat="46.10815" lon="4.62065">
        <ele>415.4</ele>
        <time>2020-10-24T08:41:11Z</time>
      </trkpt>
      <trkpt lat="46.10817" lon="4.62075">
        <ele>415</ele>
        <time>2020-10-24T08:41:12Z</time>
      </trkpt>
      <trkpt lat="46.10817" lon="4.62078">
        <ele>415.4</ele>
        <time>2020-10-24T08:41:13Z</time>
      </trkpt>
      <trkpt lat="46.10818" lon="4.62081">
        <ele>415</ele>
        <time>2020-10-24T08:41:14Z</time>
      </trkpt>
      <trkpt lat="46.10819" lon="4.62085">
        <ele>414.8</ele>
        <time>2020-10-24T08:41:15Z</time>
      </trkpt>
      <trkpt lat="46.1082" lon="4.62088">
        <ele>415</ele>
        <time>2020-10-24T08:41:16Z</time>
      </trkpt>
      <trkpt lat="46.1082" lon="4.62091">
        <ele>414.8</ele>
        <time>2020-10-24T08:41:17Z</time>
      </trkpt>
      <trkpt lat="46.10821" lon="4.62095">
        <ele>414.6</ele>
        <time>2020-10-24T08:41:18Z</time>
      </trkpt>
      <trkpt lat="46.10821" lon="4.62095">
        <ele>414.8</ele>
        <time>2020-10-24T08:41:19Z</time>
      </trkpt>
      <trkpt lat="46.10824" lon="4.62104">
        <ele>414.6</ele>
        <time>2020-10-24T08:41:20Z</time>
      </trkpt>
      <trkpt lat="46.10824" lon="4.62106">
        <ele>414.8</ele>
        <time>2020-10-24T08:41:21Z</time>
      </trkpt>
      <trkpt lat="46.10824" lon="4.6211">
        <ele>414.8</ele>
        <time>2020-10-24T08:41:22Z</time>
      </trkpt>
      <trkpt lat="46.10825" lon="4.62114">
        <ele>414.4</ele>
        <time>2020-10-24T08:41:23Z</time>
      </trkpt>
      <trkpt lat="46.10825" lon="4.62118">
        <ele>414.6</ele>
        <time>2020-10-24T08:41:24Z</time>
      </trkpt>
      <trkpt lat="46.10826" lon="4.62122">
        <ele>414.4</ele>
        <time>2020-10-24T08:41:25Z</time>
      </trkpt>
      <trkpt lat="46.10826" lon="4.62127">
        <ele>414</ele>
        <time>2020-10-24T08:41:26Z</time>
      </trkpt>
      <trkpt lat="46.10826" lon="4.6213">
        <ele>414.4</ele>
        <time>2020-10-24T08:41:27Z</time>
      </trkpt>
      <trkpt lat="46.10827" lon="4.62133">
        <ele>414.4</ele>
        <time>2020-10-24T08:41:28Z</time>
      </trkpt>
      <trkpt lat="46.10827" lon="4.62136">
        <ele>414.4</ele>
        <time>2020-10-24T08:41:29Z</time>
      </trkpt>
      <trkpt lat="46.10828" lon="4.6214">
        <ele>414.6</ele>
        <time>2020-10-24T08:41:30Z</time>
      </trkpt>
      <trkpt lat="46.10829" lon="4.62144">
        <ele>414.8</ele>
        <time>2020-10-24T08:41:31Z</time>
      </trkpt>
      <trkpt lat="46.10829" lon="4.62147">
        <ele>415</ele>
        <time>2020-10-24T08:41:32Z</time>
      </trkpt>
      <trkpt lat="46.1083" lon="4.62149">
        <ele>415</ele>
        <time>2020-10-24T08:41:33Z</time>
      </trkpt>
      <trkpt lat="46.10831" lon="4.62153">
        <ele>415.2</ele>
        <time>2020-10-24T08:41:34Z</time>
      </trkpt>
      <trkpt lat="46.10831" lon="4.62155">
        <ele>415.4</ele>
        <time>2020-10-24T08:41:35Z</time>
      </trkpt>
      <trkpt lat="46.10832" lon="4.62159">
        <ele>415.4</ele>
        <time>2020-10-24T08:41:36Z</time>
      </trkpt>
      <trkpt lat="46.10833" lon="4.62162">
        <ele>415.2</ele>
        <time>2020-10-24T08:41:37Z</time>
      </trkpt>
      <trkpt lat="46.10835" lon="4.62165">
        <ele>415.8</ele>
        <time>2020-10-24T08:41:38Z</time>
      </trkpt>
      <trkpt lat="46.10836" lon="4.62169">
        <ele>415.8</ele>
        <time>2020-10-24T08:41:39Z</time>
      </trkpt>
      <trkpt lat="46.10837" lon="4.62172">
        <ele>415.4</ele>
        <time>2020-10-24T08:41:40Z</time>
      </trkpt>
      <trkpt lat="46.10838" lon="4.62176">
        <ele>415.8</ele>
        <time>2020-10-24T08:41:41Z</time>
      </trkpt>
      <trkpt lat="46.1084" lon="4.62179">
        <ele>415.8</ele>
        <time>2020-10-24T08:41:42Z</time>
      </trkpt>
      <trkpt lat="46.10841" lon="4.62183">
        <ele>416</ele>
        <time>2020-10-24T08:41:43Z</time>
      </trkpt>
      <trkpt lat="46.10842" lon="4.62185">
        <ele>416</ele>
        <time>2020-10-24T08:41:44Z</time>
      </trkpt>
      <trkpt lat="46.10843" lon="4.62188">
        <ele>415.8</ele>
        <time>2020-10-24T08:41:45Z</time>
      </trkpt>
      <trkpt lat="46.10844" lon="4.62191">
        <ele>416.2</ele>
        <time>2020-10-24T08:41:46Z</time>
      </trkpt>
      <trkpt lat="46.10846" lon="4.62194">
        <ele>415.8</ele>
        <time>2020-10-24T08:41:47Z</time>
      </trkpt>
      <trkpt lat="46.10847" lon="4.62197">
        <ele>415.6</ele>
        <time>2020-10-24T08:41:48Z</time>
      </trkpt>
      <trkpt lat="46.10848" lon="4.622">
        <ele>416</ele>
        <time>2020-10-24T08:41:49Z</time>
      </trkpt>
      <trkpt lat="46.1085" lon="4.62203">
        <ele>415.8</ele>
        <time>2020-10-24T08:41:50Z</time>
      </trkpt>
      <trkpt lat="46.10851" lon="4.62206">
        <ele>415.4</ele>
        <time>2020-10-24T08:41:51Z</time>
      </trkpt>
      <trkpt lat="46.10853" lon="4.6221">
        <ele>415.8</ele>
        <time>2020-10-24T08:41:52Z</time>
      </trkpt>
      <trkpt lat="46.10854" lon="4.62213">
        <ele>415.8</ele>
        <time>2020-10-24T08:41:53Z</time>
      </trkpt>
      <trkpt lat="46.10856" lon="4.62216">
        <ele>416.2</ele>
        <time>2020-10-24T08:41:54Z</time>
      </trkpt>
      <trkpt lat="46.10857" lon="4.6222">
        <ele>416.2</ele>
        <time>2020-10-24T08:41:55Z</time>
      </trkpt>
      <trkpt lat="46.10859" lon="4.62223">
        <ele>416.2</ele>
        <time>2020-10-24T08:41:56Z</time>
      </trkpt>
      <trkpt lat="46.1086" lon="4.62226">
        <ele>416.6</ele>
        <time>2020-10-24T08:41:57Z</time>
      </trkpt>
      <trkpt lat="46.10862" lon="4.62229">
        <ele>416.2</ele>
        <time>2020-10-24T08:41:58Z</time>
      </trkpt>
      <trkpt lat="46.10864" lon="4.62233">
        <ele>416.2</ele>
        <time>2020-10-24T08:41:59Z</time>
      </trkpt>
      <trkpt lat="46.10865" lon="4.62236">
        <ele>416.6</ele>
        <time>2020-10-24T08:42:00Z</time>
      </trkpt>
      <trkpt lat="46.10867" lon="4.62239">
        <ele>416.8</ele>
        <time>2020-10-24T08:42:01Z</time>
      </trkpt>
      <trkpt lat="46.10868" lon="4.62243">
        <ele>416.8</ele>
        <time>2020-10-24T08:42:02Z</time>
      </trkpt>
      <trkpt lat="46.1087" lon="4.62246">
        <ele>417.2</ele>
        <time>2020-10-24T08:42:03Z</time>
      </trkpt>
      <trkpt lat="46.10871" lon="4.62249">
        <ele>417.4</ele>
        <time>2020-10-24T08:42:04Z</time>
      </trkpt>
      <trkpt lat="46.10871" lon="4.62249">
        <ele>417.8</ele>
        <time>2020-10-24T08:42:05Z</time>
      </trkpt>
      <trkpt lat="46.10873" lon="4.62254">
        <ele>417.4</ele>
        <time>2020-10-24T08:42:06Z</time>
      </trkpt>
      <trkpt lat="46.10875" lon="4.62257">
        <ele>417.4</ele>
        <time>2020-10-24T08:42:07Z</time>
      </trkpt>
      <trkpt lat="46.10877" lon="4.6226">
        <ele>418</ele>
        <time>2020-10-24T08:42:08Z</time>
      </trkpt>
      <trkpt lat="46.10878" lon="4.62263">
        <ele>418.2</ele>
        <time>2020-10-24T08:42:09Z</time>
      </trkpt>
      <trkpt lat="46.10878" lon="4.62263">
        <ele>418</ele>
        <time>2020-10-24T08:42:10Z</time>
      </trkpt>
      <trkpt lat="46.10881" lon="4.62268">
        <ele>418.6</ele>
        <time>2020-10-24T08:42:11Z</time>
      </trkpt>
      <trkpt lat="46.10882" lon="4.62271">
        <ele>418.6</ele>
        <time>2020-10-24T08:42:12Z</time>
      </trkpt>
      <trkpt lat="46.10883" lon="4.62274">
        <ele>419</ele>
        <time>2020-10-24T08:42:13Z</time>
      </trkpt>
      <trkpt lat="46.10883" lon="4.62274">
        <ele>419</ele>
        <time>2020-10-24T08:42:14Z</time>
      </trkpt>
      <trkpt lat="46.10886" lon="4.6228">
        <ele>419</ele>
        <time>2020-10-24T08:42:15Z</time>
      </trkpt>
      <trkpt lat="46.10888" lon="4.62283">
        <ele>419.4</ele>
        <time>2020-10-24T08:42:16Z</time>
      </trkpt>
      <trkpt lat="46.1089" lon="4.62286">
        <ele>419.4</ele>
        <time>2020-10-24T08:42:17Z</time>
      </trkpt>
      <trkpt lat="46.10892" lon="4.62289">
        <ele>419.4</ele>
        <time>2020-10-24T08:42:18Z</time>
      </trkpt>
      <trkpt lat="46.10893" lon="4.62292">
        <ele>419.6</ele>
        <time>2020-10-24T08:42:19Z</time>
      </trkpt>
      <trkpt lat="46.10896" lon="4.62295">
        <ele>419.2</ele>
        <time>2020-10-24T08:42:20Z</time>
      </trkpt>
      <trkpt lat="46.10897" lon="4.62298">
        <ele>419.2</ele>
        <time>2020-10-24T08:42:21Z</time>
      </trkpt>
      <trkpt lat="46.10898" lon="4.62301">
        <ele>419.8</ele>
        <time>2020-10-24T08:42:22Z</time>
      </trkpt>
      <trkpt lat="46.109" lon="4.62304">
        <ele>419.8</ele>
        <time>2020-10-24T08:42:23Z</time>
      </trkpt>
      <trkpt lat="46.10902" lon="4.62307">
        <ele>419.6</ele>
        <time>2020-10-24T08:42:24Z</time>
      </trkpt>
      <trkpt lat="46.10903" lon="4.6231">
        <ele>419.8</ele>
        <time>2020-10-24T08:42:25Z</time>
      </trkpt>
      <trkpt lat="46.10905" lon="4.62313">
        <ele>419.6</ele>
        <time>2020-10-24T08:42:26Z</time>
      </trkpt>
      <trkpt lat="46.10906" lon="4.62316">
        <ele>419.4</ele>
        <time>2020-10-24T08:42:27Z</time>
      </trkpt>
      <trkpt lat="46.10907" lon="4.62319">
        <ele>419.8</ele>
        <time>2020-10-24T08:42:28Z</time>
      </trkpt>
      <trkpt lat="46.10909" lon="4.62323">
        <ele>419.6</ele>
        <time>2020-10-24T08:42:29Z</time>
      </trkpt>
      <trkpt lat="46.1091" lon="4.62326">
        <ele>419.8</ele>
        <time>2020-10-24T08:42:30Z</time>
      </trkpt>
      <trkpt lat="46.10912" lon="4.62328">
        <ele>420</ele>
        <time>2020-10-24T08:42:31Z</time>
      </trkpt>
      <trkpt lat="46.10913" lon="4.62331">
        <ele>419.6</ele>
        <time>2020-10-24T08:42:32Z</time>
      </trkpt>
      <trkpt lat="46.10914" lon="4.62334">
        <ele>419.8</ele>
        <time>2020-10-24T08:42:33Z</time>
      </trkpt>
      <trkpt lat="46.10915" lon="4.62338">
        <ele>419.8</ele>
        <time>2020-10-24T08:42:34Z</time>
      </trkpt>
      <trkpt lat="46.10916" lon="4.62341">
        <ele>419.8</ele>
        <time>2020-10-24T08:42:35Z</time>
      </trkpt>
      <trkpt lat="46.10918" lon="4.62343">
        <ele>420.2</ele>
        <time>2020-10-24T08:42:36Z</time>
      </trkpt>
      <trkpt lat="46.10919" lon="4.62346">
        <ele>420</ele>
        <time>2020-10-24T08:42:37Z</time>
      </trkpt>
      <trkpt lat="46.1092" lon="4.62348">
        <ele>419.8</ele>
        <time>2020-10-24T08:42:38Z</time>
      </trkpt>
      <trkpt lat="46.10921" lon="4.62351">
        <ele>420.2</ele>
        <time>2020-10-24T08:42:39Z</time>
      </trkpt>
      <trkpt lat="46.10922" lon="4.62353">
        <ele>420</ele>
        <time>2020-10-24T08:42:40Z</time>
      </trkpt>
      <trkpt lat="46.10923" lon="4.62356">
        <ele>419.8</ele>
        <time>2020-10-24T08:42:41Z</time>
      </trkpt>
      <trkpt lat="46.10924" lon="4.62359">
        <ele>420.4</ele>
        <time>2020-10-24T08:42:42Z</time>
      </trkpt>
      <trkpt lat="46.10925" lon="4.62362">
        <ele>420.4</ele>
        <time>2020-10-24T08:42:43Z</time>
      </trkpt>
      <trkpt lat="46.10927" lon="4.62364">
        <ele>420.8</ele>
        <time>2020-10-24T08:42:44Z</time>
      </trkpt>
      <trkpt lat="46.10928" lon="4.62366">
        <ele>421.2</ele>
        <time>2020-10-24T08:42:45Z</time>
      </trkpt>
      <trkpt lat="46.10929" lon="4.62369">
        <ele>421</ele>
        <time>2020-10-24T08:42:46Z</time>
      </trkpt>
      <trkpt lat="46.1093" lon="4.62372">
        <ele>420.6</ele>
        <time>2020-10-24T08:42:47Z</time>
      </trkpt>
      <trkpt lat="46.10931" lon="4.62375">
        <ele>420.8</ele>
        <time>2020-10-24T08:42:48Z</time>
      </trkpt>
      <trkpt lat="46.10932" lon="4.62378">
        <ele>420.8</ele>
        <time>2020-10-24T08:42:49Z</time>
      </trkpt>
      <trkpt lat="46.10933" lon="4.62381">
        <ele>421</ele>
        <time>2020-10-24T08:42:50Z</time>
      </trkpt>
      <trkpt lat="46.10935" lon="4.62384">
        <ele>420.6</ele>
        <time>2020-10-24T08:42:51Z</time>
      </trkpt>
      <trkpt lat="46.10935" lon="4.62388">
        <ele>420.4</ele>
        <time>2020-10-24T08:42:52Z</time>
      </trkpt>
      <trkpt lat="46.10936" lon="4.62391">
        <ele>420.8</ele>
        <time>2020-10-24T08:42:53Z</time>
      </trkpt>
      <trkpt lat="46.10938" lon="4.62394">
        <ele>420.6</ele>
        <time>2020-10-24T08:42:54Z</time>
      </trkpt>
      <trkpt lat="46.10939" lon="4.62397">
        <ele>420.6</ele>
        <time>2020-10-24T08:42:55Z</time>
      </trkpt>
      <trkpt lat="46.1094" lon="4.624">
        <ele>421</ele>
        <time>2020-10-24T08:42:56Z</time>
      </trkpt>
      <trkpt lat="46.10941" lon="4.62403">
        <ele>420.6</ele>
        <time>2020-10-24T08:42:57Z</time>
      </trkpt>
      <trkpt lat="46.10942" lon="4.62406">
        <ele>420.6</ele>
        <time>2020-10-24T08:42:58Z</time>
      </trkpt>
      <trkpt lat="46.10943" lon="4.62409">
        <ele>421</ele>
        <time>2020-10-24T08:42:59Z</time>
      </trkpt>
      <trkpt lat="46.10944" lon="4.62413">
        <ele>420.8</ele>
        <time>2020-10-24T08:43:00Z</time>
      </trkpt>
      <trkpt lat="46.10945" lon="4.62416">
        <ele>420.8</ele>
        <time>2020-10-24T08:43:01Z</time>
      </trkpt>
      <trkpt lat="46.10945" lon="4.6242">
        <ele>421</ele>
        <time>2020-10-24T08:43:02Z</time>
      </trkpt>
      <trkpt lat="46.10946" lon="4.62424">
        <ele>421</ele>
        <time>2020-10-24T08:43:03Z</time>
      </trkpt>
      <trkpt lat="46.10946" lon="4.62428">
        <ele>421.2</ele>
        <time>2020-10-24T08:43:04Z</time>
      </trkpt>
      <trkpt lat="46.10945" lon="4.62431">
        <ele>421.6</ele>
        <time>2020-10-24T08:43:05Z</time>
      </trkpt>
      <trkpt lat="46.10945" lon="4.62435">
        <ele>421.4</ele>
        <time>2020-10-24T08:43:06Z</time>
      </trkpt>
      <trkpt lat="46.10944" lon="4.62439">
        <ele>421</ele>
        <time>2020-10-24T08:43:07Z</time>
      </trkpt>
      <trkpt lat="46.10943" lon="4.62443">
        <ele>421.2</ele>
        <time>2020-10-24T08:43:08Z</time>
      </trkpt>
      <trkpt lat="46.10942" lon="4.62447">
        <ele>420.8</ele>
        <time>2020-10-24T08:43:09Z</time>
      </trkpt>
      <trkpt lat="46.10941" lon="4.6245">
        <ele>420.6</ele>
        <time>2020-10-24T08:43:10Z</time>
      </trkpt>
      <trkpt lat="46.1094" lon="4.62453">
        <ele>420.8</ele>
        <time>2020-10-24T08:43:11Z</time>
      </trkpt>
      <trkpt lat="46.10939" lon="4.62456">
        <ele>420.6</ele>
        <time>2020-10-24T08:43:12Z</time>
      </trkpt>
      <trkpt lat="46.10938" lon="4.62459">
        <ele>420.6</ele>
        <time>2020-10-24T08:43:13Z</time>
      </trkpt>
      <trkpt lat="46.10938" lon="4.62462">
        <ele>420.4</ele>
        <time>2020-10-24T08:43:14Z</time>
      </trkpt>
      <trkpt lat="46.10937" lon="4.62465">
        <ele>420.4</ele>
        <time>2020-10-24T08:43:15Z</time>
      </trkpt>
      <trkpt lat="46.10936" lon="4.62469">
        <ele>420.4</ele>
        <time>2020-10-24T08:43:16Z</time>
      </trkpt>
      <trkpt lat="46.10936" lon="4.62472">
        <ele>420.2</ele>
        <time>2020-10-24T08:43:17Z</time>
      </trkpt>
      <trkpt lat="46.10935" lon="4.62475">
        <ele>419.8</ele>
        <time>2020-10-24T08:43:18Z</time>
      </trkpt>
      <trkpt lat="46.10934" lon="4.62478">
        <ele>419.8</ele>
        <time>2020-10-24T08:43:19Z</time>
      </trkpt>
      <trkpt lat="46.10934" lon="4.62478">
        <ele>419.4</ele>
        <time>2020-10-24T08:43:20Z</time>
      </trkpt>
      <trkpt lat="46.10933" lon="4.62482">
        <ele>419.4</ele>
        <time>2020-10-24T08:43:21Z</time>
      </trkpt>
      <trkpt lat="46.10933" lon="4.62482">
        <ele>419.2</ele>
        <time>2020-10-24T08:43:22Z</time>
      </trkpt>
      <trkpt lat="46.10933" lon="4.62486">
        <ele>419</ele>
        <time>2020-10-24T08:43:23Z</time>
      </trkpt>
      <trkpt lat="46.10933" lon="4.62486">
        <ele>418.8</ele>
        <time>2020-10-24T08:43:24Z</time>
      </trkpt>
      <trkpt lat="46.10933" lon="4.62491">
        <ele>418.4</ele>
        <time>2020-10-24T08:43:25Z</time>
      </trkpt>
      <trkpt lat="46.10933" lon="4.62491">
        <ele>418</ele>
        <time>2020-10-24T08:43:26Z</time>
      </trkpt>
      <trkpt lat="46.10933" lon="4.62496">
        <ele>417.8</ele>
        <time>2020-10-24T08:43:27Z</time>
      </trkpt>
      <trkpt lat="46.10933" lon="4.62496">
        <ele>417.6</ele>
        <time>2020-10-24T08:43:28Z</time>
      </trkpt>
      <trkpt lat="46.10933" lon="4.625">
        <ele>417.4</ele>
        <time>2020-10-24T08:43:29Z</time>
      </trkpt>
      <trkpt lat="46.10933" lon="4.625">
        <ele>417.2</ele>
        <time>2020-10-24T08:43:30Z</time>
      </trkpt>
      <trkpt lat="46.10933" lon="4.62504">
        <ele>417.2</ele>
        <time>2020-10-24T08:43:31Z</time>
      </trkpt>
      <trkpt lat="46.10934" lon="4.62507">
        <ele>417.2</ele>
        <time>2020-10-24T08:43:32Z</time>
      </trkpt>
      <trkpt lat="46.10935" lon="4.62509">
        <ele>417</ele>
        <time>2020-10-24T08:43:33Z</time>
      </trkpt>
      <trkpt lat="46.10935" lon="4.62509">
        <ele>416.8</ele>
        <time>2020-10-24T08:43:34Z</time>
      </trkpt>
      <trkpt lat="46.10936" lon="4.62514">
        <ele>416.4</ele>
        <time>2020-10-24T08:43:35Z</time>
      </trkpt>
      <trkpt lat="46.10936" lon="4.62514">
        <ele>416</ele>
        <time>2020-10-24T08:43:36Z</time>
      </trkpt>
      <trkpt lat="46.10938" lon="4.62519">
        <ele>415.8</ele>
        <time>2020-10-24T08:43:37Z</time>
      </trkpt>
      <trkpt lat="46.10938" lon="4.62521">
        <ele>415.2</ele>
        <time>2020-10-24T08:43:38Z</time>
      </trkpt>
      <trkpt lat="46.1094" lon="4.62524">
        <ele>414.8</ele>
        <time>2020-10-24T08:43:39Z</time>
      </trkpt>
      <trkpt lat="46.10941" lon="4.62527">
        <ele>414.2</ele>
        <time>2020-10-24T08:43:40Z</time>
      </trkpt>
      <trkpt lat="46.10942" lon="4.6253">
        <ele>413.6</ele>
        <time>2020-10-24T08:43:41Z</time>
      </trkpt>
      <trkpt lat="46.10943" lon="4.62532">
        <ele>413.4</ele>
        <time>2020-10-24T08:43:42Z</time>
      </trkpt>
      <trkpt lat="46.10944" lon="4.62534">
        <ele>412.8</ele>
        <time>2020-10-24T08:43:43Z</time>
      </trkpt>
      <trkpt lat="46.10946" lon="4.62536">
        <ele>412.2</ele>
        <time>2020-10-24T08:43:44Z</time>
      </trkpt>
      <trkpt lat="46.10946" lon="4.62536">
        <ele>412</ele>
        <time>2020-10-24T08:43:45Z</time>
      </trkpt>
      <trkpt lat="46.10949" lon="4.62539">
        <ele>411.6</ele>
        <time>2020-10-24T08:43:46Z</time>
      </trkpt>
      <trkpt lat="46.10951" lon="4.62541">
        <ele>411.2</ele>
        <time>2020-10-24T08:43:47Z</time>
      </trkpt>
      <trkpt lat="46.10953" lon="4.62544">
        <ele>410.4</ele>
        <time>2020-10-24T08:43:48Z</time>
      </trkpt>
      <trkpt lat="46.10955" lon="4.62546">
        <ele>409.8</ele>
        <time>2020-10-24T08:43:49Z</time>
      </trkpt>
      <trkpt lat="46.10957" lon="4.62549">
        <ele>409.2</ele>
        <time>2020-10-24T08:43:50Z</time>
      </trkpt>
      <trkpt lat="46.10959" lon="4.62553">
        <ele>408.2</ele>
        <time>2020-10-24T08:43:51Z</time>
      </trkpt>
      <trkpt lat="46.10961" lon="4.62556">
        <ele>408.2</ele>
        <time>2020-10-24T08:43:52Z</time>
      </trkpt>
      <trkpt lat="46.10961" lon="4.62556">
        <ele>407.6</ele>
        <time>2020-10-24T08:43:53Z</time>
      </trkpt>
      <trkpt lat="46.10965" lon="4.62562">
        <ele>407.2</ele>
        <time>2020-10-24T08:43:54Z</time>
      </trkpt>
      <trkpt lat="46.10966" lon="4.62566">
        <ele>407</ele>
        <time>2020-10-24T08:43:55Z</time>
      </trkpt>
      <trkpt lat="46.10968" lon="4.62569">
        <ele>406.2</ele>
        <time>2020-10-24T08:43:56Z</time>
      </trkpt>
      <trkpt lat="46.1097" lon="4.62573">
        <ele>405.8</ele>
        <time>2020-10-24T08:43:57Z</time>
      </trkpt>
      <trkpt lat="46.1097" lon="4.62573">
        <ele>404.8</ele>
        <time>2020-10-24T08:43:58Z</time>
      </trkpt>
      <trkpt lat="46.10973" lon="4.62581">
        <ele>404.2</ele>
        <time>2020-10-24T08:43:59Z</time>
      </trkpt>
      <trkpt lat="46.10974" lon="4.62584">
        <ele>404</ele>
        <time>2020-10-24T08:44:00Z</time>
      </trkpt>
      <trkpt lat="46.10974" lon="4.62584">
        <ele>403.2</ele>
        <time>2020-10-24T08:44:01Z</time>
      </trkpt>
      <trkpt lat="46.10977" lon="4.62593">
        <ele>402.6</ele>
        <time>2020-10-24T08:44:02Z</time>
      </trkpt>
      <trkpt lat="46.10978" lon="4.62596">
        <ele>402.4</ele>
        <time>2020-10-24T08:44:03Z</time>
      </trkpt>
      <trkpt lat="46.10979" lon="4.626">
        <ele>401.6</ele>
        <time>2020-10-24T08:44:04Z</time>
      </trkpt>
      <trkpt lat="46.1098" lon="4.62603">
        <ele>401.2</ele>
        <time>2020-10-24T08:44:05Z</time>
      </trkpt>
      <trkpt lat="46.10981" lon="4.62606">
        <ele>400.4</ele>
        <time>2020-10-24T08:44:06Z</time>
      </trkpt>
      <trkpt lat="46.10982" lon="4.6261">
        <ele>399.8</ele>
        <time>2020-10-24T08:44:07Z</time>
      </trkpt>
      <trkpt lat="46.10984" lon="4.62613">
        <ele>399.8</ele>
        <time>2020-10-24T08:44:08Z</time>
      </trkpt>
      <trkpt lat="46.10986" lon="4.62616">
        <ele>399</ele>
        <time>2020-10-24T08:44:09Z</time>
      </trkpt>
      <trkpt lat="46.10987" lon="4.62619">
        <ele>398.4</ele>
        <time>2020-10-24T08:44:10Z</time>
      </trkpt>
      <trkpt lat="46.10988" lon="4.62623">
        <ele>398.2</ele>
        <time>2020-10-24T08:44:11Z</time>
      </trkpt>
      <trkpt lat="46.10989" lon="4.62627">
        <ele>397.8</ele>
        <time>2020-10-24T08:44:12Z</time>
      </trkpt>
      <trkpt lat="46.1099" lon="4.6263">
        <ele>396.6</ele>
        <time>2020-10-24T08:44:13Z</time>
      </trkpt>
      <trkpt lat="46.10992" lon="4.62634">
        <ele>396.6</ele>
        <time>2020-10-24T08:44:14Z</time>
      </trkpt>
      <trkpt lat="46.10993" lon="4.62637">
        <ele>396</ele>
        <time>2020-10-24T08:44:15Z</time>
      </trkpt>
      <trkpt lat="46.10995" lon="4.62641">
        <ele>395.4</ele>
        <time>2020-10-24T08:44:16Z</time>
      </trkpt>
      <trkpt lat="46.10997" lon="4.62645">
        <ele>395.2</ele>
        <time>2020-10-24T08:44:17Z</time>
      </trkpt>
      <trkpt lat="46.10999" lon="4.62651">
        <ele>394.2</ele>
        <time>2020-10-24T08:44:18Z</time>
      </trkpt>
      <trkpt lat="46.11" lon="4.62655">
        <ele>393.8</ele>
        <time>2020-10-24T08:44:19Z</time>
      </trkpt>
      <trkpt lat="46.11002" lon="4.62659">
        <ele>393</ele>
        <time>2020-10-24T08:44:20Z</time>
      </trkpt>
      <trkpt lat="46.11002" lon="4.62659">
        <ele>392.6</ele>
        <time>2020-10-24T08:44:21Z</time>
      </trkpt>
      <trkpt lat="46.11004" lon="4.62668">
        <ele>391.8</ele>
        <time>2020-10-24T08:44:22Z</time>
      </trkpt>
      <trkpt lat="46.11004" lon="4.62673">
        <ele>391.6</ele>
        <time>2020-10-24T08:44:23Z</time>
      </trkpt>
      <trkpt lat="46.11005" lon="4.62677">
        <ele>390.8</ele>
        <time>2020-10-24T08:44:24Z</time>
      </trkpt>
      <trkpt lat="46.11005" lon="4.62681">
        <ele>389.8</ele>
        <time>2020-10-24T08:44:25Z</time>
      </trkpt>
      <trkpt lat="46.11005" lon="4.62684">
        <ele>389.8</ele>
        <time>2020-10-24T08:44:26Z</time>
      </trkpt>
      <trkpt lat="46.11003" lon="4.62687">
        <ele>389.4</ele>
        <time>2020-10-24T08:44:27Z</time>
      </trkpt>
      <trkpt lat="46.11001" lon="4.62689">
        <ele>389</ele>
        <time>2020-10-24T08:44:28Z</time>
      </trkpt>
      <trkpt lat="46.10999" lon="4.62692">
        <ele>388.8</ele>
        <time>2020-10-24T08:44:29Z</time>
      </trkpt>
      <trkpt lat="46.10997" lon="4.62694">
        <ele>389</ele>
        <time>2020-10-24T08:44:30Z</time>
      </trkpt>
      <trkpt lat="46.10995" lon="4.62695">
        <ele>388.8</ele>
        <time>2020-10-24T08:44:31Z</time>
      </trkpt>
      <trkpt lat="46.10992" lon="4.62697">
        <ele>388.6</ele>
        <time>2020-10-24T08:44:32Z</time>
      </trkpt>
      <trkpt lat="46.1099" lon="4.62698">
        <ele>389</ele>
        <time>2020-10-24T08:44:33Z</time>
      </trkpt>
      <trkpt lat="46.10989" lon="4.627">
        <ele>389.2</ele>
        <time>2020-10-24T08:44:34Z</time>
      </trkpt>
      <trkpt lat="46.10987" lon="4.62702">
        <ele>389</ele>
        <time>2020-10-24T08:44:35Z</time>
      </trkpt>
      <trkpt lat="46.10986" lon="4.62705">
        <ele>389.4</ele>
        <time>2020-10-24T08:44:36Z</time>
      </trkpt>
      <trkpt lat="46.10984" lon="4.62706">
        <ele>389.4</ele>
        <time>2020-10-24T08:44:37Z</time>
      </trkpt>
      <trkpt lat="46.10984" lon="4.62706">
        <ele>389.2</ele>
        <time>2020-10-24T08:44:38Z</time>
      </trkpt>
      <trkpt lat="46.10982" lon="4.6271">
        <ele>389.6</ele>
        <time>2020-10-24T08:44:39Z</time>
      </trkpt>
      <trkpt lat="46.10982" lon="4.6271">
        <ele>389.8</ele>
        <time>2020-10-24T08:44:40Z</time>
      </trkpt>
      <trkpt lat="46.1098" lon="4.62712">
        <ele>389.8</ele>
        <time>2020-10-24T08:44:41Z</time>
      </trkpt>
      <trkpt lat="46.1098" lon="4.62712">
        <ele>390</ele>
        <time>2020-10-24T08:44:42Z</time>
      </trkpt>
      <trkpt lat="46.10977" lon="4.62714">
        <ele>390.4</ele>
        <time>2020-10-24T08:44:43Z</time>
      </trkpt>
      <trkpt lat="46.10977" lon="4.62714">
        <ele>390.6</ele>
        <time>2020-10-24T08:44:44Z</time>
      </trkpt>
      <trkpt lat="46.10975" lon="4.62719">
        <ele>390.6</ele>
        <time>2020-10-24T08:44:45Z</time>
      </trkpt>
      <trkpt lat="46.10973" lon="4.62721">
        <ele>390.4</ele>
        <time>2020-10-24T08:44:46Z</time>
      </trkpt>
      <trkpt lat="46.10972" lon="4.62724">
        <ele>390.6</ele>
        <time>2020-10-24T08:44:47Z</time>
      </trkpt>
      <trkpt lat="46.1097" lon="4.62726">
        <ele>390.8</ele>
        <time>2020-10-24T08:44:48Z</time>
      </trkpt>
      <trkpt lat="46.10969" lon="4.62729">
        <ele>390.6</ele>
        <time>2020-10-24T08:44:49Z</time>
      </trkpt>
      <trkpt lat="46.10967" lon="4.62732">
        <ele>390.8</ele>
        <time>2020-10-24T08:44:50Z</time>
      </trkpt>
      <trkpt lat="46.10966" lon="4.62735">
        <ele>391.2</ele>
        <time>2020-10-24T08:44:51Z</time>
      </trkpt>
      <trkpt lat="46.10964" lon="4.62738">
        <ele>390.8</ele>
        <time>2020-10-24T08:44:52Z</time>
      </trkpt>
      <trkpt lat="46.10962" lon="4.62741">
        <ele>391</ele>
        <time>2020-10-24T08:44:53Z</time>
      </trkpt>
      <trkpt lat="46.10961" lon="4.62744">
        <ele>390.6</ele>
        <time>2020-10-24T08:44:54Z</time>
      </trkpt>
      <trkpt lat="46.10959" lon="4.62747">
        <ele>390.4</ele>
        <time>2020-10-24T08:44:55Z</time>
      </trkpt>
      <trkpt lat="46.10958" lon="4.6275">
        <ele>390.8</ele>
        <time>2020-10-24T08:44:56Z</time>
      </trkpt>
      <trkpt lat="46.10956" lon="4.62752">
        <ele>390.8</ele>
        <time>2020-10-24T08:44:57Z</time>
      </trkpt>
      <trkpt lat="46.10954" lon="4.62755">
        <ele>390.4</ele>
        <time>2020-10-24T08:44:58Z</time>
      </trkpt>
      <trkpt lat="46.10953" lon="4.62758">
        <ele>390.8</ele>
        <time>2020-10-24T08:44:59Z</time>
      </trkpt>
      <trkpt lat="46.10952" lon="4.62762">
        <ele>390.6</ele>
        <time>2020-10-24T08:45:00Z</time>
      </trkpt>
      <trkpt lat="46.1095" lon="4.62765">
        <ele>390.4</ele>
        <time>2020-10-24T08:45:01Z</time>
      </trkpt>
      <trkpt lat="46.10949" lon="4.62768">
        <ele>390.4</ele>
        <time>2020-10-24T08:45:02Z</time>
      </trkpt>
      <trkpt lat="46.10948" lon="4.62771">
        <ele>390</ele>
        <time>2020-10-24T08:45:03Z</time>
      </trkpt>
      <trkpt lat="46.10947" lon="4.62774">
        <ele>389.8</ele>
        <time>2020-10-24T08:45:04Z</time>
      </trkpt>
      <trkpt lat="46.10945" lon="4.62777">
        <ele>389.8</ele>
        <time>2020-10-24T08:45:05Z</time>
      </trkpt>
      <trkpt lat="46.10945" lon="4.62781">
        <ele>389.2</ele>
        <time>2020-10-24T08:45:06Z</time>
      </trkpt>
      <trkpt lat="46.10945" lon="4.62784">
        <ele>388.4</ele>
        <time>2020-10-24T08:45:07Z</time>
      </trkpt>
      <trkpt lat="46.10945" lon="4.62787">
        <ele>388</ele>
        <time>2020-10-24T08:45:08Z</time>
      </trkpt>
      <trkpt lat="46.10945" lon="4.62791">
        <ele>387.4</ele>
        <time>2020-10-24T08:45:09Z</time>
      </trkpt>
      <trkpt lat="46.10945" lon="4.62795">
        <ele>387</ele>
        <time>2020-10-24T08:45:10Z</time>
      </trkpt>
      <trkpt lat="46.10944" lon="4.62798">
        <ele>386.8</ele>
        <time>2020-10-24T08:45:11Z</time>
      </trkpt>
      <trkpt lat="46.10942" lon="4.62802">
        <ele>386</ele>
        <time>2020-10-24T08:45:12Z</time>
      </trkpt>
      <trkpt lat="46.10941" lon="4.62805">
        <ele>385.6</ele>
        <time>2020-10-24T08:45:13Z</time>
      </trkpt>
      <trkpt lat="46.10939" lon="4.62808">
        <ele>385.4</ele>
        <time>2020-10-24T08:45:14Z</time>
      </trkpt>
      <trkpt lat="46.10936" lon="4.62811">
        <ele>384.6</ele>
        <time>2020-10-24T08:45:15Z</time>
      </trkpt>
      <trkpt lat="46.10934" lon="4.62814">
        <ele>384.2</ele>
        <time>2020-10-24T08:45:16Z</time>
      </trkpt>
      <trkpt lat="46.10932" lon="4.62818">
        <ele>384</ele>
        <time>2020-10-24T08:45:17Z</time>
      </trkpt>
      <trkpt lat="46.1093" lon="4.6282">
        <ele>383.4</ele>
        <time>2020-10-24T08:45:18Z</time>
      </trkpt>
      <trkpt lat="46.10928" lon="4.62823">
        <ele>383.4</ele>
        <time>2020-10-24T08:45:19Z</time>
      </trkpt>
      <trkpt lat="46.10926" lon="4.62825">
        <ele>383</ele>
        <time>2020-10-24T08:45:20Z</time>
      </trkpt>
      <trkpt lat="46.10924" lon="4.62828">
        <ele>382.4</ele>
        <time>2020-10-24T08:45:21Z</time>
      </trkpt>
      <trkpt lat="46.10921" lon="4.62831">
        <ele>382.4</ele>
        <time>2020-10-24T08:45:22Z</time>
      </trkpt>
      <trkpt lat="46.10919" lon="4.62834">
        <ele>382</ele>
        <time>2020-10-24T08:45:23Z</time>
      </trkpt>
      <trkpt lat="46.10916" lon="4.62836">
        <ele>381.6</ele>
        <time>2020-10-24T08:45:24Z</time>
      </trkpt>
      <trkpt lat="46.10914" lon="4.62837">
        <ele>381.6</ele>
        <time>2020-10-24T08:45:25Z</time>
      </trkpt>
      <trkpt lat="46.10911" lon="4.62839">
        <ele>381.2</ele>
        <time>2020-10-24T08:45:26Z</time>
      </trkpt>
      <trkpt lat="46.10908" lon="4.6284">
        <ele>380.6</ele>
        <time>2020-10-24T08:45:27Z</time>
      </trkpt>
      <trkpt lat="46.10905" lon="4.62842">
        <ele>381</ele>
        <time>2020-10-24T08:45:28Z</time>
      </trkpt>
      <trkpt lat="46.10902" lon="4.62843">
        <ele>380.6</ele>
        <time>2020-10-24T08:45:29Z</time>
      </trkpt>
      <trkpt lat="46.10899" lon="4.62844">
        <ele>380.4</ele>
        <time>2020-10-24T08:45:30Z</time>
      </trkpt>
      <trkpt lat="46.10897" lon="4.62845">
        <ele>380.6</ele>
        <time>2020-10-24T08:45:31Z</time>
      </trkpt>
      <trkpt lat="46.10894" lon="4.62846">
        <ele>380.2</ele>
        <time>2020-10-24T08:45:32Z</time>
      </trkpt>
      <trkpt lat="46.10891" lon="4.62847">
        <ele>379.8</ele>
        <time>2020-10-24T08:45:33Z</time>
      </trkpt>
      <trkpt lat="46.10888" lon="4.62848">
        <ele>379.8</ele>
        <time>2020-10-24T08:45:34Z</time>
      </trkpt>
      <trkpt lat="46.10885" lon="4.62849">
        <ele>379</ele>
        <time>2020-10-24T08:45:35Z</time>
      </trkpt>
      <trkpt lat="46.10882" lon="4.6285">
        <ele>378.8</ele>
        <time>2020-10-24T08:45:36Z</time>
      </trkpt>
      <trkpt lat="46.10879" lon="4.62851">
        <ele>378.6</ele>
        <time>2020-10-24T08:45:37Z</time>
      </trkpt>
      <trkpt lat="46.10876" lon="4.62853">
        <ele>378</ele>
        <time>2020-10-24T08:45:38Z</time>
      </trkpt>
      <trkpt lat="46.10874" lon="4.62855">
        <ele>378.2</ele>
        <time>2020-10-24T08:45:39Z</time>
      </trkpt>
      <trkpt lat="46.10871" lon="4.62856">
        <ele>377.8</ele>
        <time>2020-10-24T08:45:40Z</time>
      </trkpt>
      <trkpt lat="46.10868" lon="4.62858">
        <ele>377.8</ele>
        <time>2020-10-24T08:45:41Z</time>
      </trkpt>
      <trkpt lat="46.10866" lon="4.6286">
        <ele>377.2</ele>
        <time>2020-10-24T08:45:42Z</time>
      </trkpt>
      <trkpt lat="46.10863" lon="4.62862">
        <ele>376.4</ele>
        <time>2020-10-24T08:45:43Z</time>
      </trkpt>
      <trkpt lat="46.10862" lon="4.62864">
        <ele>376.6</ele>
        <time>2020-10-24T08:45:44Z</time>
      </trkpt>
      <trkpt lat="46.10861" lon="4.62867">
        <ele>376.2</ele>
        <time>2020-10-24T08:45:45Z</time>
      </trkpt>
      <trkpt lat="46.10861" lon="4.62871">
        <ele>376</ele>
        <time>2020-10-24T08:45:46Z</time>
      </trkpt>
      <trkpt lat="46.10861" lon="4.62874">
        <ele>375.4</ele>
        <time>2020-10-24T08:45:47Z</time>
      </trkpt>
      <trkpt lat="46.10863" lon="4.62877">
        <ele>374.6</ele>
        <time>2020-10-24T08:45:48Z</time>
      </trkpt>
      <trkpt lat="46.10865" lon="4.62879">
        <ele>374.2</ele>
        <time>2020-10-24T08:45:49Z</time>
      </trkpt>
      <trkpt lat="46.10867" lon="4.62881">
        <ele>373.6</ele>
        <time>2020-10-24T08:45:50Z</time>
      </trkpt>
      <trkpt lat="46.10869" lon="4.62884">
        <ele>373.4</ele>
        <time>2020-10-24T08:45:51Z</time>
      </trkpt>
      <trkpt lat="46.10872" lon="4.62887">
        <ele>372.8</ele>
        <time>2020-10-24T08:45:52Z</time>
      </trkpt>
      <trkpt lat="46.10875" lon="4.62889">
        <ele>372.2</ele>
        <time>2020-10-24T08:45:53Z</time>
      </trkpt>
      <trkpt lat="46.10878" lon="4.62892">
        <ele>371.6</ele>
        <time>2020-10-24T08:45:54Z</time>
      </trkpt>
      <trkpt lat="46.10881" lon="4.62894">
        <ele>370.8</ele>
        <time>2020-10-24T08:45:55Z</time>
      </trkpt>
      <trkpt lat="46.10883" lon="4.62896">
        <ele>370.6</ele>
        <time>2020-10-24T08:45:56Z</time>
      </trkpt>
      <trkpt lat="46.10886" lon="4.62899">
        <ele>370.2</ele>
        <time>2020-10-24T08:45:57Z</time>
      </trkpt>
      <trkpt lat="46.10888" lon="4.62901">
        <ele>369.6</ele>
        <time>2020-10-24T08:45:58Z</time>
      </trkpt>
      <trkpt lat="46.1089" lon="4.62903">
        <ele>369.2</ele>
        <time>2020-10-24T08:45:59Z</time>
      </trkpt>
      <trkpt lat="46.10892" lon="4.62906">
        <ele>368.6</ele>
        <time>2020-10-24T08:46:00Z</time>
      </trkpt>
      <trkpt lat="46.10894" lon="4.62908">
        <ele>368.2</ele>
        <time>2020-10-24T08:46:01Z</time>
      </trkpt>
      <trkpt lat="46.10896" lon="4.6291">
        <ele>367.8</ele>
        <time>2020-10-24T08:46:02Z</time>
      </trkpt>
      <trkpt lat="46.10898" lon="4.6291">
        <ele>367.4</ele>
        <time>2020-10-24T08:46:03Z</time>
      </trkpt>
      <trkpt lat="46.109" lon="4.6291">
        <ele>367.4</ele>
        <time>2020-10-24T08:46:04Z</time>
      </trkpt>
      <trkpt lat="46.10902" lon="4.6291">
        <ele>367.4</ele>
        <time>2020-10-24T08:46:05Z</time>
      </trkpt>
      <trkpt lat="46.10904" lon="4.6291">
        <ele>367</ele>
        <time>2020-10-24T08:46:06Z</time>
      </trkpt>
      <trkpt lat="46.10906" lon="4.62909">
        <ele>366.8</ele>
        <time>2020-10-24T08:46:07Z</time>
      </trkpt>
      <trkpt lat="46.10908" lon="4.62908">
        <ele>366.4</ele>
        <time>2020-10-24T08:46:08Z</time>
      </trkpt>
      <trkpt lat="46.10911" lon="4.62909">
        <ele>365.8</ele>
        <time>2020-10-24T08:46:09Z</time>
      </trkpt>
      <trkpt lat="46.10913" lon="4.62909">
        <ele>365.4</ele>
        <time>2020-10-24T08:46:10Z</time>
      </trkpt>
      <trkpt lat="46.10915" lon="4.62908">
        <ele>365.2</ele>
        <time>2020-10-24T08:46:11Z</time>
      </trkpt>
      <trkpt lat="46.10918" lon="4.62909">
        <ele>364.6</ele>
        <time>2020-10-24T08:46:12Z</time>
      </trkpt>
      <trkpt lat="46.1092" lon="4.62909">
        <ele>364</ele>
        <time>2020-10-24T08:46:13Z</time>
      </trkpt>
      <trkpt lat="46.10922" lon="4.62909">
        <ele>363.8</ele>
        <time>2020-10-24T08:46:14Z</time>
      </trkpt>
      <trkpt lat="46.10924" lon="4.62909">
        <ele>363.6</ele>
        <time>2020-10-24T08:46:15Z</time>
      </trkpt>
      <trkpt lat="46.10927" lon="4.62909">
        <ele>363.2</ele>
        <time>2020-10-24T08:46:16Z</time>
      </trkpt>
      <trkpt lat="46.10929" lon="4.62909">
        <ele>363</ele>
        <time>2020-10-24T08:46:17Z</time>
      </trkpt>
      <trkpt lat="46.10931" lon="4.62908">
        <ele>362.8</ele>
        <time>2020-10-24T08:46:18Z</time>
      </trkpt>
      <trkpt lat="46.10933" lon="4.62908">
        <ele>362.4</ele>
        <time>2020-10-24T08:46:19Z</time>
      </trkpt>
      <trkpt lat="46.10936" lon="4.62908">
        <ele>362.2</ele>
        <time>2020-10-24T08:46:20Z</time>
      </trkpt>
      <trkpt lat="46.10938" lon="4.62908">
        <ele>361.6</ele>
        <time>2020-10-24T08:46:21Z</time>
      </trkpt>
      <trkpt lat="46.1094" lon="4.62908">
        <ele>361.2</ele>
        <time>2020-10-24T08:46:22Z</time>
      </trkpt>
      <trkpt lat="46.10942" lon="4.62908">
        <ele>361</ele>
        <time>2020-10-24T08:46:23Z</time>
      </trkpt>
      <trkpt lat="46.10944" lon="4.62908">
        <ele>360.6</ele>
        <time>2020-10-24T08:46:24Z</time>
      </trkpt>
      <trkpt lat="46.10944" lon="4.62908">
        <ele>360.2</ele>
        <time>2020-10-24T08:46:25Z</time>
      </trkpt>
      <trkpt lat="46.10944" lon="4.62908">
        <ele>359.8</ele>
        <time>2020-10-24T08:46:26Z</time>
      </trkpt>
      <trkpt lat="46.10944" lon="4.62908">
        <ele>359.4</ele>
        <time>2020-10-24T08:46:27Z</time>
      </trkpt>
      <trkpt lat="46.10944" lon="4.62908">
        <ele>359.2</ele>
        <time>2020-10-24T08:46:28Z</time>
      </trkpt>
      <trkpt lat="46.10946" lon="4.62909">
        <ele>358.8</ele>
        <time>2020-10-24T08:46:29Z</time>
      </trkpt>
      <trkpt lat="46.10946" lon="4.62909">
        <ele>358.6</ele>
        <time>2020-10-24T08:46:30Z</time>
      </trkpt>
      <trkpt lat="46.10951" lon="4.62908">
        <ele>358.4</ele>
        <time>2020-10-24T08:46:31Z</time>
      </trkpt>
      <trkpt lat="46.10952" lon="4.62907">
        <ele>358.4</ele>
        <time>2020-10-24T08:46:32Z</time>
      </trkpt>
      <trkpt lat="46.10955" lon="4.62906">
        <ele>358</ele>
        <time>2020-10-24T08:46:33Z</time>
      </trkpt>
      <trkpt lat="46.10955" lon="4.62906">
        <ele>357.8</ele>
        <time>2020-10-24T08:46:34Z</time>
      </trkpt>
      <trkpt lat="46.10959" lon="4.62905">
        <ele>357.8</ele>
        <time>2020-10-24T08:46:35Z</time>
      </trkpt>
      <trkpt lat="46.10962" lon="4.62904">
        <ele>357.4</ele>
        <time>2020-10-24T08:46:36Z</time>
      </trkpt>
      <trkpt lat="46.10965" lon="4.62904">
        <ele>357</ele>
        <time>2020-10-24T08:46:37Z</time>
      </trkpt>
      <trkpt lat="46.10967" lon="4.62904">
        <ele>357</ele>
        <time>2020-10-24T08:46:38Z</time>
      </trkpt>
      <trkpt lat="46.1097" lon="4.62904">
        <ele>357</ele>
        <time>2020-10-24T08:46:39Z</time>
      </trkpt>
      <trkpt lat="46.10972" lon="4.62904">
        <ele>356.4</ele>
        <time>2020-10-24T08:46:40Z</time>
      </trkpt>
      <trkpt lat="46.10975" lon="4.62904">
        <ele>356.2</ele>
        <time>2020-10-24T08:46:41Z</time>
      </trkpt>
      <trkpt lat="46.10977" lon="4.62904">
        <ele>356</ele>
        <time>2020-10-24T08:46:42Z</time>
      </trkpt>
      <trkpt lat="46.1098" lon="4.62904">
        <ele>355.4</ele>
        <time>2020-10-24T08:46:43Z</time>
      </trkpt>
      <trkpt lat="46.10983" lon="4.62904">
        <ele>355.2</ele>
        <time>2020-10-24T08:46:44Z</time>
      </trkpt>
      <trkpt lat="46.10985" lon="4.62904">
        <ele>354.8</ele>
        <time>2020-10-24T08:46:45Z</time>
      </trkpt>
      <trkpt lat="46.10988" lon="4.62904">
        <ele>354.4</ele>
        <time>2020-10-24T08:46:46Z</time>
      </trkpt>
      <trkpt lat="46.1099" lon="4.62904">
        <ele>354.2</ele>
        <time>2020-10-24T08:46:47Z</time>
      </trkpt>
      <trkpt lat="46.10993" lon="4.62904">
        <ele>353.8</ele>
        <time>2020-10-24T08:46:48Z</time>
      </trkpt>
      <trkpt lat="46.10996" lon="4.62905">
        <ele>353.4</ele>
        <time>2020-10-24T08:46:49Z</time>
      </trkpt>
      <trkpt lat="46.10996" lon="4.62905">
        <ele>353.2</ele>
        <time>2020-10-24T08:46:50Z</time>
      </trkpt>
      <trkpt lat="46.11001" lon="4.62906">
        <ele>352.8</ele>
        <time>2020-10-24T08:46:51Z</time>
      </trkpt>
      <trkpt lat="46.11003" lon="4.62906">
        <ele>352.4</ele>
        <time>2020-10-24T08:46:52Z</time>
      </trkpt>
      <trkpt lat="46.11003" lon="4.62906">
        <ele>352.4</ele>
        <time>2020-10-24T08:46:53Z</time>
      </trkpt>
      <trkpt lat="46.11008" lon="4.62906">
        <ele>352</ele>
        <time>2020-10-24T08:46:54Z</time>
      </trkpt>
      <trkpt lat="46.11011" lon="4.62907">
        <ele>351.6</ele>
        <time>2020-10-24T08:46:55Z</time>
      </trkpt>
      <trkpt lat="46.11013" lon="4.62908">
        <ele>351.8</ele>
        <time>2020-10-24T08:46:56Z</time>
      </trkpt>
      <trkpt lat="46.11016" lon="4.6291">
        <ele>351.6</ele>
        <time>2020-10-24T08:46:57Z</time>
      </trkpt>
      <trkpt lat="46.11019" lon="4.62911">
        <ele>351.2</ele>
        <time>2020-10-24T08:46:58Z</time>
      </trkpt>
      <trkpt lat="46.11021" lon="4.62913">
        <ele>351</ele>
        <time>2020-10-24T08:46:59Z</time>
      </trkpt>
      <trkpt lat="46.11024" lon="4.62914">
        <ele>350.4</ele>
        <time>2020-10-24T08:47:00Z</time>
      </trkpt>
      <trkpt lat="46.11026" lon="4.62915">
        <ele>350.2</ele>
        <time>2020-10-24T08:47:01Z</time>
      </trkpt>
      <trkpt lat="46.11028" lon="4.62917">
        <ele>350</ele>
        <time>2020-10-24T08:47:02Z</time>
      </trkpt>
      <trkpt lat="46.1103" lon="4.62919">
        <ele>349.6</ele>
        <time>2020-10-24T08:47:03Z</time>
      </trkpt>
      <trkpt lat="46.11032" lon="4.62921">
        <ele>349</ele>
        <time>2020-10-24T08:47:04Z</time>
      </trkpt>
      <trkpt lat="46.11035" lon="4.62923">
        <ele>349</ele>
        <time>2020-10-24T08:47:05Z</time>
      </trkpt>
      <trkpt lat="46.11037" lon="4.62925">
        <ele>348.6</ele>
        <time>2020-10-24T08:47:06Z</time>
      </trkpt>
      <trkpt lat="46.11039" lon="4.62928">
        <ele>347.8</ele>
        <time>2020-10-24T08:47:07Z</time>
      </trkpt>
      <trkpt lat="46.1104" lon="4.6293">
        <ele>347.6</ele>
        <time>2020-10-24T08:47:08Z</time>
      </trkpt>
      <trkpt lat="46.11042" lon="4.62933">
        <ele>347.2</ele>
        <time>2020-10-24T08:47:09Z</time>
      </trkpt>
      <trkpt lat="46.11043" lon="4.62935">
        <ele>346.8</ele>
        <time>2020-10-24T08:47:10Z</time>
      </trkpt>
      <trkpt lat="46.11045" lon="4.62938">
        <ele>346.8</ele>
        <time>2020-10-24T08:47:11Z</time>
      </trkpt>
      <trkpt lat="46.11046" lon="4.62941">
        <ele>346.4</ele>
        <time>2020-10-24T08:47:12Z</time>
      </trkpt>
      <trkpt lat="46.11046" lon="4.62941">
        <ele>345.6</ele>
        <time>2020-10-24T08:47:13Z</time>
      </trkpt>
      <trkpt lat="46.1105" lon="4.62947">
        <ele>345.6</ele>
        <time>2020-10-24T08:47:14Z</time>
      </trkpt>
      <trkpt lat="46.11051" lon="4.62951">
        <ele>345.2</ele>
        <time>2020-10-24T08:47:15Z</time>
      </trkpt>
      <trkpt lat="46.11053" lon="4.62954">
        <ele>344.6</ele>
        <time>2020-10-24T08:47:16Z</time>
      </trkpt>
      <trkpt lat="46.11054" lon="4.62956">
        <ele>344.6</ele>
        <time>2020-10-24T08:47:17Z</time>
      </trkpt>
      <trkpt lat="46.11056" lon="4.62959">
        <ele>344</ele>
        <time>2020-10-24T08:47:18Z</time>
      </trkpt>
      <trkpt lat="46.11057" lon="4.62962">
        <ele>343.6</ele>
        <time>2020-10-24T08:47:19Z</time>
      </trkpt>
      <trkpt lat="46.11059" lon="4.62964">
        <ele>343.6</ele>
        <time>2020-10-24T08:47:20Z</time>
      </trkpt>
      <trkpt lat="46.1106" lon="4.62967">
        <ele>343.2</ele>
        <time>2020-10-24T08:47:21Z</time>
      </trkpt>
      <trkpt lat="46.11062" lon="4.6297">
        <ele>342.6</ele>
        <time>2020-10-24T08:47:22Z</time>
      </trkpt>
      <trkpt lat="46.11064" lon="4.62973">
        <ele>342.6</ele>
        <time>2020-10-24T08:47:23Z</time>
      </trkpt>
      <trkpt lat="46.11066" lon="4.62976">
        <ele>342.2</ele>
        <time>2020-10-24T08:47:24Z</time>
      </trkpt>
      <trkpt lat="46.11067" lon="4.62979">
        <ele>341.8</ele>
        <time>2020-10-24T08:47:25Z</time>
      </trkpt>
      <trkpt lat="46.11069" lon="4.62981">
        <ele>341.6</ele>
        <time>2020-10-24T08:47:26Z</time>
      </trkpt>
      <trkpt lat="46.11071" lon="4.62984">
        <ele>341</ele>
        <time>2020-10-24T08:47:27Z</time>
      </trkpt>
      <trkpt lat="46.11071" lon="4.62984">
        <ele>340.6</ele>
        <time>2020-10-24T08:47:28Z</time>
      </trkpt>
      <trkpt lat="46.11074" lon="4.62989">
        <ele>340.4</ele>
        <time>2020-10-24T08:47:29Z</time>
      </trkpt>
      <trkpt lat="46.11075" lon="4.62992">
        <ele>339.8</ele>
        <time>2020-10-24T08:47:30Z</time>
      </trkpt>
      <trkpt lat="46.11077" lon="4.62994">
        <ele>339.2</ele>
        <time>2020-10-24T08:47:31Z</time>
      </trkpt>
      <trkpt lat="46.11078" lon="4.62997">
        <ele>339</ele>
        <time>2020-10-24T08:47:32Z</time>
      </trkpt>
      <trkpt lat="46.11079" lon="4.62999">
        <ele>338.8</ele>
        <time>2020-10-24T08:47:33Z</time>
      </trkpt>
      <trkpt lat="46.11081" lon="4.63002">
        <ele>338.4</ele>
        <time>2020-10-24T08:47:34Z</time>
      </trkpt>
      <trkpt lat="46.11083" lon="4.63004">
        <ele>338.2</ele>
        <time>2020-10-24T08:47:35Z</time>
      </trkpt>
      <trkpt lat="46.11084" lon="4.63006">
        <ele>337.8</ele>
        <time>2020-10-24T08:47:36Z</time>
      </trkpt>
      <trkpt lat="46.11084" lon="4.63006">
        <ele>337.4</ele>
        <time>2020-10-24T08:47:37Z</time>
      </trkpt>
      <trkpt lat="46.11087" lon="4.63013">
        <ele>337.4</ele>
        <time>2020-10-24T08:47:38Z</time>
      </trkpt>
      <trkpt lat="46.11088" lon="4.63015">
        <ele>337</ele>
        <time>2020-10-24T08:47:39Z</time>
      </trkpt>
      <trkpt lat="46.1109" lon="4.63018">
        <ele>336.6</ele>
        <time>2020-10-24T08:47:40Z</time>
      </trkpt>
      <trkpt lat="46.11091" lon="4.63021">
        <ele>336.4</ele>
        <time>2020-10-24T08:47:41Z</time>
      </trkpt>
      <trkpt lat="46.11093" lon="4.63024">
        <ele>336</ele>
        <time>2020-10-24T08:47:42Z</time>
      </trkpt>
      <trkpt lat="46.11094" lon="4.63027">
        <ele>335.8</ele>
        <time>2020-10-24T08:47:43Z</time>
      </trkpt>
      <trkpt lat="46.11095" lon="4.6303">
        <ele>335.8</ele>
        <time>2020-10-24T08:47:44Z</time>
      </trkpt>
      <trkpt lat="46.11096" lon="4.63033">
        <ele>335.2</ele>
        <time>2020-10-24T08:47:45Z</time>
      </trkpt>
      <trkpt lat="46.11097" lon="4.63036">
        <ele>334.6</ele>
        <time>2020-10-24T08:47:46Z</time>
      </trkpt>
      <trkpt lat="46.11099" lon="4.63039">
        <ele>334.6</ele>
        <time>2020-10-24T08:47:47Z</time>
      </trkpt>
      <trkpt lat="46.111" lon="4.63043">
        <ele>334</ele>
        <time>2020-10-24T08:47:48Z</time>
      </trkpt>
      <trkpt lat="46.11101" lon="4.63046">
        <ele>333.4</ele>
        <time>2020-10-24T08:47:49Z</time>
      </trkpt>
      <trkpt lat="46.11103" lon="4.63049">
        <ele>333.6</ele>
        <time>2020-10-24T08:47:50Z</time>
      </trkpt>
      <trkpt lat="46.11105" lon="4.63052">
        <ele>333.2</ele>
        <time>2020-10-24T08:47:51Z</time>
      </trkpt>
      <trkpt lat="46.11107" lon="4.63057">
        <ele>333.2</ele>
        <time>2020-10-24T08:47:52Z</time>
      </trkpt>
      <trkpt lat="46.11107" lon="4.63058">
        <ele>332.6</ele>
        <time>2020-10-24T08:47:53Z</time>
      </trkpt>
      <trkpt lat="46.11109" lon="4.63062">
        <ele>332.2</ele>
        <time>2020-10-24T08:47:54Z</time>
      </trkpt>
      <trkpt lat="46.11111" lon="4.63065">
        <ele>331.8</ele>
        <time>2020-10-24T08:47:55Z</time>
      </trkpt>
      <trkpt lat="46.11112" lon="4.63067">
        <ele>331.8</ele>
        <time>2020-10-24T08:47:56Z</time>
      </trkpt>
      <trkpt lat="46.11113" lon="4.6307">
        <ele>331.4</ele>
        <time>2020-10-24T08:47:57Z</time>
      </trkpt>
      <trkpt lat="46.11115" lon="4.63074">
        <ele>331.2</ele>
        <time>2020-10-24T08:47:58Z</time>
      </trkpt>
      <trkpt lat="46.11116" lon="4.63077">
        <ele>331.2</ele>
        <time>2020-10-24T08:47:59Z</time>
      </trkpt>
      <trkpt lat="46.11117" lon="4.6308">
        <ele>330.6</ele>
        <time>2020-10-24T08:48:00Z</time>
      </trkpt>
      <trkpt lat="46.11118" lon="4.63082">
        <ele>330.6</ele>
        <time>2020-10-24T08:48:01Z</time>
      </trkpt>
      <trkpt lat="46.1112" lon="4.63085">
        <ele>330.4</ele>
        <time>2020-10-24T08:48:02Z</time>
      </trkpt>
      <trkpt lat="46.11121" lon="4.63088">
        <ele>330</ele>
        <time>2020-10-24T08:48:03Z</time>
      </trkpt>
      <trkpt lat="46.11122" lon="4.63091">
        <ele>329.8</ele>
        <time>2020-10-24T08:48:04Z</time>
      </trkpt>
      <trkpt lat="46.11122" lon="4.63091">
        <ele>329.8</ele>
        <time>2020-10-24T08:48:05Z</time>
      </trkpt>
      <trkpt lat="46.11125" lon="4.63097">
        <ele>329.2</ele>
        <time>2020-10-24T08:48:06Z</time>
      </trkpt>
      <trkpt lat="46.11127" lon="4.63101">
        <ele>328.8</ele>
        <time>2020-10-24T08:48:07Z</time>
      </trkpt>
      <trkpt lat="46.11128" lon="4.63104">
        <ele>328.6</ele>
        <time>2020-10-24T08:48:08Z</time>
      </trkpt>
      <trkpt lat="46.1113" lon="4.63106">
        <ele>328.2</ele>
        <time>2020-10-24T08:48:09Z</time>
      </trkpt>
      <trkpt lat="46.11131" lon="4.63109">
        <ele>327.8</ele>
        <time>2020-10-24T08:48:10Z</time>
      </trkpt>
      <trkpt lat="46.11132" lon="4.63111">
        <ele>327.8</ele>
        <time>2020-10-24T08:48:11Z</time>
      </trkpt>
      <trkpt lat="46.11134" lon="4.63114">
        <ele>327.4</ele>
        <time>2020-10-24T08:48:12Z</time>
      </trkpt>
      <trkpt lat="46.11135" lon="4.63117">
        <ele>327</ele>
        <time>2020-10-24T08:48:13Z</time>
      </trkpt>
      <trkpt lat="46.11137" lon="4.6312">
        <ele>327</ele>
        <time>2020-10-24T08:48:14Z</time>
      </trkpt>
      <trkpt lat="46.11139" lon="4.63122">
        <ele>326.6</ele>
        <time>2020-10-24T08:48:15Z</time>
      </trkpt>
      <trkpt lat="46.1114" lon="4.63125">
        <ele>326.2</ele>
        <time>2020-10-24T08:48:16Z</time>
      </trkpt>
      <trkpt lat="46.11142" lon="4.63128">
        <ele>326.4</ele>
        <time>2020-10-24T08:48:17Z</time>
      </trkpt>
      <trkpt lat="46.11143" lon="4.63131">
        <ele>326.2</ele>
        <time>2020-10-24T08:48:18Z</time>
      </trkpt>
      <trkpt lat="46.11144" lon="4.63134">
        <ele>326.4</ele>
        <time>2020-10-24T08:48:19Z</time>
      </trkpt>
      <trkpt lat="46.11144" lon="4.63134">
        <ele>326.4</ele>
        <time>2020-10-24T08:48:20Z</time>
      </trkpt>
      <trkpt lat="46.11147" lon="4.6314">
        <ele>325.8</ele>
        <time>2020-10-24T08:48:21Z</time>
      </trkpt>
      <trkpt lat="46.11149" lon="4.63143">
        <ele>325.4</ele>
        <time>2020-10-24T08:48:22Z</time>
      </trkpt>
      <trkpt lat="46.1115" lon="4.63146">
        <ele>325.4</ele>
        <time>2020-10-24T08:48:23Z</time>
      </trkpt>
      <trkpt lat="46.11152" lon="4.63149">
        <ele>325</ele>
        <time>2020-10-24T08:48:24Z</time>
      </trkpt>
      <trkpt lat="46.11154" lon="4.63152">
        <ele>324.6</ele>
        <time>2020-10-24T08:48:25Z</time>
      </trkpt>
      <trkpt lat="46.11155" lon="4.63154">
        <ele>324.8</ele>
        <time>2020-10-24T08:48:26Z</time>
      </trkpt>
      <trkpt lat="46.11157" lon="4.63156">
        <ele>324.4</ele>
        <time>2020-10-24T08:48:27Z</time>
      </trkpt>
      <trkpt lat="46.11158" lon="4.63159">
        <ele>324.4</ele>
        <time>2020-10-24T08:48:28Z</time>
      </trkpt>
      <trkpt lat="46.1116" lon="4.63161">
        <ele>324.4</ele>
        <time>2020-10-24T08:48:29Z</time>
      </trkpt>
      <trkpt lat="46.1116" lon="4.63162">
        <ele>324.2</ele>
        <time>2020-10-24T08:48:30Z</time>
      </trkpt>
      <trkpt lat="46.11161" lon="4.63164">
        <ele>324.2</ele>
        <time>2020-10-24T08:48:31Z</time>
      </trkpt>
      <trkpt lat="46.11162" lon="4.63165">
        <ele>324.2</ele>
        <time>2020-10-24T08:48:32Z</time>
      </trkpt>
      <trkpt lat="46.11163" lon="4.6317">
        <ele>324</ele>
        <time>2020-10-24T08:48:33Z</time>
      </trkpt>
      <trkpt lat="46.11165" lon="4.63171">
        <ele>323.8</ele>
        <time>2020-10-24T08:48:34Z</time>
      </trkpt>
      <trkpt lat="46.11165" lon="4.63174">
        <ele>323.6</ele>
        <time>2020-10-24T08:48:35Z</time>
      </trkpt>
      <trkpt lat="46.11164" lon="4.63177">
        <ele>323.6</ele>
        <time>2020-10-24T08:48:36Z</time>
      </trkpt>
      <trkpt lat="46.11162" lon="4.63181">
        <ele>323.2</ele>
        <time>2020-10-24T08:48:37Z</time>
      </trkpt>
      <trkpt lat="46.11161" lon="4.63183">
        <ele>323</ele>
        <time>2020-10-24T08:48:38Z</time>
      </trkpt>
      <trkpt lat="46.11159" lon="4.63186">
        <ele>323.2</ele>
        <time>2020-10-24T08:48:39Z</time>
      </trkpt>
      <trkpt lat="46.11158" lon="4.63189">
        <ele>323</ele>
        <time>2020-10-24T08:48:40Z</time>
      </trkpt>
      <trkpt lat="46.11156" lon="4.63192">
        <ele>322.6</ele>
        <time>2020-10-24T08:48:41Z</time>
      </trkpt>
      <trkpt lat="46.11155" lon="4.63195">
        <ele>322.8</ele>
        <time>2020-10-24T08:48:42Z</time>
      </trkpt>
      <trkpt lat="46.11153" lon="4.63198">
        <ele>322.6</ele>
        <time>2020-10-24T08:48:43Z</time>
      </trkpt>
      <trkpt lat="46.11151" lon="4.63202">
        <ele>322.4</ele>
        <time>2020-10-24T08:48:44Z</time>
      </trkpt>
      <trkpt lat="46.11149" lon="4.63205">
        <ele>322.4</ele>
        <time>2020-10-24T08:48:45Z</time>
      </trkpt>
      <trkpt lat="46.11148" lon="4.63208">
        <ele>322.2</ele>
        <time>2020-10-24T08:48:46Z</time>
      </trkpt>
      <trkpt lat="46.11146" lon="4.6321">
        <ele>321.8</ele>
        <time>2020-10-24T08:48:47Z</time>
      </trkpt>
      <trkpt lat="46.11145" lon="4.63213">
        <ele>322</ele>
        <time>2020-10-24T08:48:48Z</time>
      </trkpt>
      <trkpt lat="46.11143" lon="4.63217">
        <ele>321.8</ele>
        <time>2020-10-24T08:48:49Z</time>
      </trkpt>
      <trkpt lat="46.11142" lon="4.6322">
        <ele>321.6</ele>
        <time>2020-10-24T08:48:50Z</time>
      </trkpt>
      <trkpt lat="46.11142" lon="4.63223">
        <ele>321.6</ele>
        <time>2020-10-24T08:48:51Z</time>
      </trkpt>
      <trkpt lat="46.11142" lon="4.63227">
        <ele>321.4</ele>
        <time>2020-10-24T08:48:52Z</time>
      </trkpt>
      <trkpt lat="46.11141" lon="4.6323">
        <ele>321.2</ele>
        <time>2020-10-24T08:48:53Z</time>
      </trkpt>
      <trkpt lat="46.11141" lon="4.63233">
        <ele>321.2</ele>
        <time>2020-10-24T08:48:54Z</time>
      </trkpt>
      <trkpt lat="46.11142" lon="4.63237">
        <ele>320.8</ele>
        <time>2020-10-24T08:48:55Z</time>
      </trkpt>
      <trkpt lat="46.11142" lon="4.6324">
        <ele>320.2</ele>
        <time>2020-10-24T08:48:56Z</time>
      </trkpt>
      <trkpt lat="46.11143" lon="4.63243">
        <ele>320.2</ele>
        <time>2020-10-24T08:48:57Z</time>
      </trkpt>
      <trkpt lat="46.11143" lon="4.63246">
        <ele>320</ele>
        <time>2020-10-24T08:48:58Z</time>
      </trkpt>
      <trkpt lat="46.11144" lon="4.63249">
        <ele>320</ele>
        <time>2020-10-24T08:48:59Z</time>
      </trkpt>
      <trkpt lat="46.11145" lon="4.63252">
        <ele>319.8</ele>
        <time>2020-10-24T08:49:00Z</time>
      </trkpt>
      <trkpt lat="46.11145" lon="4.63255">
        <ele>319.4</ele>
        <time>2020-10-24T08:49:01Z</time>
      </trkpt>
      <trkpt lat="46.11146" lon="4.63258">
        <ele>319.2</ele>
        <time>2020-10-24T08:49:02Z</time>
      </trkpt>
      <trkpt lat="46.11147" lon="4.63262">
        <ele>319.2</ele>
        <time>2020-10-24T08:49:03Z</time>
      </trkpt>
      <trkpt lat="46.11147" lon="4.63265">
        <ele>318.8</ele>
        <time>2020-10-24T08:49:04Z</time>
      </trkpt>
      <trkpt lat="46.11148" lon="4.63268">
        <ele>318.6</ele>
        <time>2020-10-24T08:49:05Z</time>
      </trkpt>
      <trkpt lat="46.11149" lon="4.63271">
        <ele>318.6</ele>
        <time>2020-10-24T08:49:06Z</time>
      </trkpt>
      <trkpt lat="46.1115" lon="4.63274">
        <ele>318.2</ele>
        <time>2020-10-24T08:49:07Z</time>
      </trkpt>
      <trkpt lat="46.11151" lon="4.63277">
        <ele>318</ele>
        <time>2020-10-24T08:49:08Z</time>
      </trkpt>
      <trkpt lat="46.11152" lon="4.6328">
        <ele>318</ele>
        <time>2020-10-24T08:49:09Z</time>
      </trkpt>
      <trkpt lat="46.11153" lon="4.63283">
        <ele>317.6</ele>
        <time>2020-10-24T08:49:10Z</time>
      </trkpt>
      <trkpt lat="46.11155" lon="4.63287">
        <ele>317.6</ele>
        <time>2020-10-24T08:49:11Z</time>
      </trkpt>
      <trkpt lat="46.11156" lon="4.6329">
        <ele>317.4</ele>
        <time>2020-10-24T08:49:12Z</time>
      </trkpt>
      <trkpt lat="46.11157" lon="4.63294">
        <ele>317.2</ele>
        <time>2020-10-24T08:49:13Z</time>
      </trkpt>
      <trkpt lat="46.11158" lon="4.63297">
        <ele>317.2</ele>
        <time>2020-10-24T08:49:14Z</time>
      </trkpt>
      <trkpt lat="46.1116" lon="4.633">
        <ele>317.4</ele>
        <time>2020-10-24T08:49:15Z</time>
      </trkpt>
      <trkpt lat="46.11161" lon="4.63303">
        <ele>317</ele>
        <time>2020-10-24T08:49:16Z</time>
      </trkpt>
      <trkpt lat="46.11162" lon="4.63307">
        <ele>316.8</ele>
        <time>2020-10-24T08:49:17Z</time>
      </trkpt>
      <trkpt lat="46.11163" lon="4.6331">
        <ele>317</ele>
        <time>2020-10-24T08:49:18Z</time>
      </trkpt>
      <trkpt lat="46.11164" lon="4.63313">
        <ele>316.6</ele>
        <time>2020-10-24T08:49:19Z</time>
      </trkpt>
      <trkpt lat="46.11166" lon="4.63317">
        <ele>316.6</ele>
        <time>2020-10-24T08:49:20Z</time>
      </trkpt>
      <trkpt lat="46.11167" lon="4.63321">
        <ele>316.4</ele>
        <time>2020-10-24T08:49:21Z</time>
      </trkpt>
      <trkpt lat="46.11169" lon="4.63324">
        <ele>316</ele>
        <time>2020-10-24T08:49:22Z</time>
      </trkpt>
      <trkpt lat="46.1117" lon="4.63327">
        <ele>315.8</ele>
        <time>2020-10-24T08:49:23Z</time>
      </trkpt>
      <trkpt lat="46.11171" lon="4.6333">
        <ele>315.8</ele>
        <time>2020-10-24T08:49:24Z</time>
      </trkpt>
      <trkpt lat="46.11172" lon="4.63333">
        <ele>315.4</ele>
        <time>2020-10-24T08:49:25Z</time>
      </trkpt>
      <trkpt lat="46.11173" lon="4.63337">
        <ele>315.4</ele>
        <time>2020-10-24T08:49:26Z</time>
      </trkpt>
      <trkpt lat="46.11174" lon="4.6334">
        <ele>315</ele>
        <time>2020-10-24T08:49:27Z</time>
      </trkpt>
      <trkpt lat="46.11175" lon="4.63344">
        <ele>314.6</ele>
        <time>2020-10-24T08:49:28Z</time>
      </trkpt>
      <trkpt lat="46.11176" lon="4.63347">
        <ele>314.8</ele>
        <time>2020-10-24T08:49:29Z</time>
      </trkpt>
      <trkpt lat="46.11177" lon="4.63351">
        <ele>314.6</ele>
        <time>2020-10-24T08:49:30Z</time>
      </trkpt>
      <trkpt lat="46.11178" lon="4.63354">
        <ele>314.4</ele>
        <time>2020-10-24T08:49:31Z</time>
      </trkpt>
      <trkpt lat="46.11179" lon="4.63357">
        <ele>314.4</ele>
        <time>2020-10-24T08:49:32Z</time>
      </trkpt>
      <trkpt lat="46.1118" lon="4.6336">
        <ele>314.2</ele>
        <time>2020-10-24T08:49:33Z</time>
      </trkpt>
      <trkpt lat="46.1118" lon="4.63363">
        <ele>313.8</ele>
        <time>2020-10-24T08:49:34Z</time>
      </trkpt>
      <trkpt lat="46.11181" lon="4.63367">
        <ele>313.8</ele>
        <time>2020-10-24T08:49:35Z</time>
      </trkpt>
      <trkpt lat="46.11183" lon="4.6337">
        <ele>313.8</ele>
        <time>2020-10-24T08:49:36Z</time>
      </trkpt>
      <trkpt lat="46.11184" lon="4.63374">
        <ele>313.4</ele>
        <time>2020-10-24T08:49:37Z</time>
      </trkpt>
      <trkpt lat="46.11185" lon="4.63377">
        <ele>313.2</ele>
        <time>2020-10-24T08:49:38Z</time>
      </trkpt>
      <trkpt lat="46.11186" lon="4.6338">
        <ele>313</ele>
        <time>2020-10-24T08:49:39Z</time>
      </trkpt>
      <trkpt lat="46.11186" lon="4.63384">
        <ele>312.6</ele>
        <time>2020-10-24T08:49:40Z</time>
      </trkpt>
      <trkpt lat="46.11187" lon="4.63387">
        <ele>312.6</ele>
        <time>2020-10-24T08:49:41Z</time>
      </trkpt>
      <trkpt lat="46.11188" lon="4.6339">
        <ele>312.6</ele>
        <time>2020-10-24T08:49:42Z</time>
      </trkpt>
      <trkpt lat="46.11189" lon="4.63393">
        <ele>312.2</ele>
        <time>2020-10-24T08:49:43Z</time>
      </trkpt>
      <trkpt lat="46.1119" lon="4.63397">
        <ele>312.2</ele>
        <time>2020-10-24T08:49:44Z</time>
      </trkpt>
      <trkpt lat="46.11191" lon="4.634">
        <ele>312.4</ele>
        <time>2020-10-24T08:49:45Z</time>
      </trkpt>
      <trkpt lat="46.11192" lon="4.63404">
        <ele>312</ele>
        <time>2020-10-24T08:49:46Z</time>
      </trkpt>
      <trkpt lat="46.11193" lon="4.63407">
        <ele>311.6</ele>
        <time>2020-10-24T08:49:47Z</time>
      </trkpt>
      <trkpt lat="46.11194" lon="4.6341">
        <ele>311.8</ele>
        <time>2020-10-24T08:49:48Z</time>
      </trkpt>
      <trkpt lat="46.11194" lon="4.63414">
        <ele>311.2</ele>
        <time>2020-10-24T08:49:49Z</time>
      </trkpt>
      <trkpt lat="46.11195" lon="4.63417">
        <ele>310.8</ele>
        <time>2020-10-24T08:49:50Z</time>
      </trkpt>
      <trkpt lat="46.11196" lon="4.63421">
        <ele>310.8</ele>
        <time>2020-10-24T08:49:51Z</time>
      </trkpt>
      <trkpt lat="46.11197" lon="4.63424">
        <ele>310.6</ele>
        <time>2020-10-24T08:49:52Z</time>
      </trkpt>
      <trkpt lat="46.11198" lon="4.63427">
        <ele>310.2</ele>
        <time>2020-10-24T08:49:53Z</time>
      </trkpt>
      <trkpt lat="46.11199" lon="4.63431">
        <ele>310</ele>
        <time>2020-10-24T08:49:54Z</time>
      </trkpt>
      <trkpt lat="46.11199" lon="4.63434">
        <ele>309.8</ele>
        <time>2020-10-24T08:49:55Z</time>
      </trkpt>
      <trkpt lat="46.112" lon="4.63437">
        <ele>309.2</ele>
        <time>2020-10-24T08:49:56Z</time>
      </trkpt>
      <trkpt lat="46.11201" lon="4.6344">
        <ele>309.2</ele>
        <time>2020-10-24T08:49:57Z</time>
      </trkpt>
      <trkpt lat="46.11202" lon="4.63444">
        <ele>309</ele>
        <time>2020-10-24T08:49:58Z</time>
      </trkpt>
      <trkpt lat="46.11203" lon="4.63447">
        <ele>308.6</ele>
        <time>2020-10-24T08:49:59Z</time>
      </trkpt>
      <trkpt lat="46.11205" lon="4.63452">
        <ele>308.6</ele>
        <time>2020-10-24T08:50:00Z</time>
      </trkpt>
      <trkpt lat="46.11205" lon="4.63454">
        <ele>308.4</ele>
        <time>2020-10-24T08:50:01Z</time>
      </trkpt>
      <trkpt lat="46.11206" lon="4.63457">
        <ele>307.8</ele>
        <time>2020-10-24T08:50:02Z</time>
      </trkpt>
      <trkpt lat="46.11207" lon="4.6346">
        <ele>307.8</ele>
        <time>2020-10-24T08:50:03Z</time>
      </trkpt>
      <trkpt lat="46.11208" lon="4.63463">
        <ele>307.8</ele>
        <time>2020-10-24T08:50:04Z</time>
      </trkpt>
      <trkpt lat="46.11209" lon="4.63467">
        <ele>307.4</ele>
        <time>2020-10-24T08:50:05Z</time>
      </trkpt>
      <trkpt lat="46.1121" lon="4.6347">
        <ele>307.2</ele>
        <time>2020-10-24T08:50:06Z</time>
      </trkpt>
      <trkpt lat="46.11211" lon="4.63474">
        <ele>307.2</ele>
        <time>2020-10-24T08:50:07Z</time>
      </trkpt>
      <trkpt lat="46.11212" lon="4.63477">
        <ele>306.6</ele>
        <time>2020-10-24T08:50:08Z</time>
      </trkpt>
      <trkpt lat="46.11213" lon="4.6348">
        <ele>306.6</ele>
        <time>2020-10-24T08:50:09Z</time>
      </trkpt>
      <trkpt lat="46.11214" lon="4.63483">
        <ele>306</ele>
        <time>2020-10-24T08:50:10Z</time>
      </trkpt>
      <trkpt lat="46.11215" lon="4.63486">
        <ele>305.8</ele>
        <time>2020-10-24T08:50:11Z</time>
      </trkpt>
      <trkpt lat="46.11216" lon="4.6349">
        <ele>305.8</ele>
        <time>2020-10-24T08:50:12Z</time>
      </trkpt>
      <trkpt lat="46.11217" lon="4.63493">
        <ele>305.6</ele>
        <time>2020-10-24T08:50:13Z</time>
      </trkpt>
      <trkpt lat="46.11217" lon="4.63496">
        <ele>305.4</ele>
        <time>2020-10-24T08:50:14Z</time>
      </trkpt>
      <trkpt lat="46.11218" lon="4.63499">
        <ele>305.4</ele>
        <time>2020-10-24T08:50:15Z</time>
      </trkpt>
      <trkpt lat="46.11218" lon="4.63503">
        <ele>305.2</ele>
        <time>2020-10-24T08:50:16Z</time>
      </trkpt>
      <trkpt lat="46.11219" lon="4.63506">
        <ele>304.8</ele>
        <time>2020-10-24T08:50:17Z</time>
      </trkpt>
      <trkpt lat="46.1122" lon="4.63509">
        <ele>305</ele>
        <time>2020-10-24T08:50:18Z</time>
      </trkpt>
      <trkpt lat="46.11221" lon="4.63512">
        <ele>304.6</ele>
        <time>2020-10-24T08:50:19Z</time>
      </trkpt>
      <trkpt lat="46.11222" lon="4.63516">
        <ele>304.8</ele>
        <time>2020-10-24T08:50:20Z</time>
      </trkpt>
      <trkpt lat="46.11224" lon="4.63521">
        <ele>304.8</ele>
        <time>2020-10-24T08:50:21Z</time>
      </trkpt>
      <trkpt lat="46.11224" lon="4.63523">
        <ele>304.2</ele>
        <time>2020-10-24T08:50:22Z</time>
      </trkpt>
      <trkpt lat="46.11225" lon="4.63526">
        <ele>304.2</ele>
        <time>2020-10-24T08:50:23Z</time>
      </trkpt>
      <trkpt lat="46.11226" lon="4.63529">
        <ele>304</ele>
        <time>2020-10-24T08:50:24Z</time>
      </trkpt>
      <trkpt lat="46.11227" lon="4.63533">
        <ele>303.6</ele>
        <time>2020-10-24T08:50:25Z</time>
      </trkpt>
      <trkpt lat="46.11228" lon="4.63536">
        <ele>303.6</ele>
        <time>2020-10-24T08:50:26Z</time>
      </trkpt>
      <trkpt lat="46.11229" lon="4.63539">
        <ele>303.8</ele>
        <time>2020-10-24T08:50:27Z</time>
      </trkpt>
      <trkpt lat="46.11231" lon="4.63543">
        <ele>303.4</ele>
        <time>2020-10-24T08:50:28Z</time>
      </trkpt>
      <trkpt lat="46.11232" lon="4.63547">
        <ele>303.2</ele>
        <time>2020-10-24T08:50:29Z</time>
      </trkpt>
      <trkpt lat="46.11233" lon="4.63551">
        <ele>303</ele>
        <time>2020-10-24T08:50:30Z</time>
      </trkpt>
      <trkpt lat="46.11234" lon="4.63554">
        <ele>302.6</ele>
        <time>2020-10-24T08:50:31Z</time>
      </trkpt>
      <trkpt lat="46.11236" lon="4.63558">
        <ele>302.6</ele>
        <time>2020-10-24T08:50:32Z</time>
      </trkpt>
      <trkpt lat="46.11237" lon="4.63562">
        <ele>302.6</ele>
        <time>2020-10-24T08:50:33Z</time>
      </trkpt>
      <trkpt lat="46.11238" lon="4.63565">
        <ele>302.4</ele>
        <time>2020-10-24T08:50:34Z</time>
      </trkpt>
      <trkpt lat="46.11238" lon="4.63569">
        <ele>302.4</ele>
        <time>2020-10-24T08:50:35Z</time>
      </trkpt>
      <trkpt lat="46.11239" lon="4.63572">
        <ele>302.2</ele>
        <time>2020-10-24T08:50:36Z</time>
      </trkpt>
      <trkpt lat="46.1124" lon="4.63576">
        <ele>302</ele>
        <time>2020-10-24T08:50:37Z</time>
      </trkpt>
      <trkpt lat="46.11241" lon="4.63579">
        <ele>301.8</ele>
        <time>2020-10-24T08:50:38Z</time>
      </trkpt>
      <trkpt lat="46.11242" lon="4.63583">
        <ele>301.4</ele>
        <time>2020-10-24T08:50:39Z</time>
      </trkpt>
      <trkpt lat="46.11244" lon="4.63587">
        <ele>301</ele>
        <time>2020-10-24T08:50:40Z</time>
      </trkpt>
      <trkpt lat="46.11244" lon="4.6359">
        <ele>301.2</ele>
        <time>2020-10-24T08:50:41Z</time>
      </trkpt>
      <trkpt lat="46.11245" lon="4.63594">
        <ele>301.6</ele>
        <time>2020-10-24T08:50:42Z</time>
      </trkpt>
      <trkpt lat="46.11246" lon="4.63597">
        <ele>301</ele>
        <time>2020-10-24T08:50:43Z</time>
      </trkpt>
      <trkpt lat="46.11247" lon="4.636">
        <ele>301</ele>
        <time>2020-10-24T08:50:44Z</time>
      </trkpt>
      <trkpt lat="46.11248" lon="4.63604">
        <ele>300.6</ele>
        <time>2020-10-24T08:50:45Z</time>
      </trkpt>
      <trkpt lat="46.11249" lon="4.63607">
        <ele>300</ele>
        <time>2020-10-24T08:50:46Z</time>
      </trkpt>
      <trkpt lat="46.1125" lon="4.6361">
        <ele>300.2</ele>
        <time>2020-10-24T08:50:47Z</time>
      </trkpt>
      <trkpt lat="46.11252" lon="4.63614">
        <ele>300</ele>
        <time>2020-10-24T08:50:48Z</time>
      </trkpt>
      <trkpt lat="46.11253" lon="4.63617">
        <ele>299.6</ele>
        <time>2020-10-24T08:50:49Z</time>
      </trkpt>
      <trkpt lat="46.11254" lon="4.6362">
        <ele>299.6</ele>
        <time>2020-10-24T08:50:50Z</time>
      </trkpt>
      <trkpt lat="46.11255" lon="4.63623">
        <ele>299.4</ele>
        <time>2020-10-24T08:50:51Z</time>
      </trkpt>
      <trkpt lat="46.11256" lon="4.63627">
        <ele>299</ele>
        <time>2020-10-24T08:50:52Z</time>
      </trkpt>
      <trkpt lat="46.11257" lon="4.6363">
        <ele>299.2</ele>
        <time>2020-10-24T08:50:53Z</time>
      </trkpt>
      <trkpt lat="46.11258" lon="4.63633">
        <ele>298.8</ele>
        <time>2020-10-24T08:50:54Z</time>
      </trkpt>
      <trkpt lat="46.1126" lon="4.63637">
        <ele>298.6</ele>
        <time>2020-10-24T08:50:55Z</time>
      </trkpt>
      <trkpt lat="46.11261" lon="4.6364">
        <ele>298.6</ele>
        <time>2020-10-24T08:50:56Z</time>
      </trkpt>
      <trkpt lat="46.11262" lon="4.63644">
        <ele>298.4</ele>
        <time>2020-10-24T08:50:57Z</time>
      </trkpt>
      <trkpt lat="46.11263" lon="4.63647">
        <ele>298.2</ele>
        <time>2020-10-24T08:50:58Z</time>
      </trkpt>
      <trkpt lat="46.11264" lon="4.6365">
        <ele>298.2</ele>
        <time>2020-10-24T08:50:59Z</time>
      </trkpt>
      <trkpt lat="46.11265" lon="4.63652">
        <ele>298.4</ele>
        <time>2020-10-24T08:51:00Z</time>
      </trkpt>
      <trkpt lat="46.11265" lon="4.63652">
        <ele>298</ele>
        <time>2020-10-24T08:51:01Z</time>
      </trkpt>
      <trkpt lat="46.11266" lon="4.63655">
        <ele>297.8</ele>
        <time>2020-10-24T08:51:02Z</time>
      </trkpt>
      <trkpt lat="46.11266" lon="4.63655">
        <ele>297.4</ele>
        <time>2020-10-24T08:51:03Z</time>
      </trkpt>
      <trkpt lat="46.11266" lon="4.63655">
        <ele>297.2</ele>
        <time>2020-10-24T08:51:04Z</time>
      </trkpt>
      <trkpt lat="46.11268" lon="4.63655">
        <ele>297.2</ele>
        <time>2020-10-24T08:51:05Z</time>
      </trkpt>
      <trkpt lat="46.11268" lon="4.63655">
        <ele>297.6</ele>
        <time>2020-10-24T08:51:06Z</time>
      </trkpt>
      <trkpt lat="46.11271" lon="4.63655">
        <ele>297.8</ele>
        <time>2020-10-24T08:51:07Z</time>
      </trkpt>
      <trkpt lat="46.11273" lon="4.63655">
        <ele>298</ele>
        <time>2020-10-24T08:51:08Z</time>
      </trkpt>
      <trkpt lat="46.11275" lon="4.63655">
        <ele>297.8</ele>
        <time>2020-10-24T08:51:09Z</time>
      </trkpt>
      <trkpt lat="46.11277" lon="4.63654">
        <ele>297.6</ele>
        <time>2020-10-24T08:51:10Z</time>
      </trkpt>
      <trkpt lat="46.1128" lon="4.63653">
        <ele>297.4</ele>
        <time>2020-10-24T08:51:11Z</time>
      </trkpt>
      <trkpt lat="46.11282" lon="4.63652">
        <ele>297.2</ele>
        <time>2020-10-24T08:51:12Z</time>
      </trkpt>
      <trkpt lat="46.11284" lon="4.63651">
        <ele>297.4</ele>
        <time>2020-10-24T08:51:13Z</time>
      </trkpt>
      <trkpt lat="46.11284" lon="4.63651">
        <ele>297.4</ele>
        <time>2020-10-24T08:51:14Z</time>
      </trkpt>
      <trkpt lat="46.11289" lon="4.6365">
        <ele>297.4</ele>
        <time>2020-10-24T08:51:15Z</time>
      </trkpt>
      <trkpt lat="46.11292" lon="4.63649">
        <ele>297.6</ele>
        <time>2020-10-24T08:51:16Z</time>
      </trkpt>
      <trkpt lat="46.11294" lon="4.63648">
        <ele>298</ele>
        <time>2020-10-24T08:51:17Z</time>
      </trkpt>
      <trkpt lat="46.11296" lon="4.63647">
        <ele>298.2</ele>
        <time>2020-10-24T08:51:18Z</time>
      </trkpt>
      <trkpt lat="46.11298" lon="4.63646">
        <ele>298.2</ele>
        <time>2020-10-24T08:51:19Z</time>
      </trkpt>
      <trkpt lat="46.113" lon="4.63645">
        <ele>298.2</ele>
        <time>2020-10-24T08:51:20Z</time>
      </trkpt>
      <trkpt lat="46.11302" lon="4.63643">
        <ele>297.6</ele>
        <time>2020-10-24T08:51:21Z</time>
      </trkpt>
      <trkpt lat="46.11304" lon="4.63642">
        <ele>297.8</ele>
        <time>2020-10-24T08:51:22Z</time>
      </trkpt>
      <trkpt lat="46.11306" lon="4.6364">
        <ele>297.8</ele>
        <time>2020-10-24T08:51:23Z</time>
      </trkpt>
      <trkpt lat="46.11309" lon="4.63638">
        <ele>297.2</ele>
        <time>2020-10-24T08:51:24Z</time>
      </trkpt>
      <trkpt lat="46.11311" lon="4.63637">
        <ele>297.6</ele>
        <time>2020-10-24T08:51:25Z</time>
      </trkpt>
      <trkpt lat="46.11313" lon="4.63635">
        <ele>297.6</ele>
        <time>2020-10-24T08:51:26Z</time>
      </trkpt>
      <trkpt lat="46.11315" lon="4.63634">
        <ele>297.6</ele>
        <time>2020-10-24T08:51:27Z</time>
      </trkpt>
      <trkpt lat="46.11318" lon="4.63632">
        <ele>297.8</ele>
        <time>2020-10-24T08:51:28Z</time>
      </trkpt>
      <trkpt lat="46.1132" lon="4.63631">
        <ele>298</ele>
        <time>2020-10-24T08:51:29Z</time>
      </trkpt>
      <trkpt lat="46.11322" lon="4.63629">
        <ele>298</ele>
        <time>2020-10-24T08:51:30Z</time>
      </trkpt>
      <trkpt lat="46.11325" lon="4.63628">
        <ele>298.2</ele>
        <time>2020-10-24T08:51:31Z</time>
      </trkpt>
      <trkpt lat="46.11328" lon="4.63627">
        <ele>298.4</ele>
        <time>2020-10-24T08:51:32Z</time>
      </trkpt>
      <trkpt lat="46.1133" lon="4.63625">
        <ele>298.6</ele>
        <time>2020-10-24T08:51:33Z</time>
      </trkpt>
      <trkpt lat="46.11332" lon="4.63624">
        <ele>298.4</ele>
        <time>2020-10-24T08:51:34Z</time>
      </trkpt>
      <trkpt lat="46.11335" lon="4.63622">
        <ele>298.2</ele>
        <time>2020-10-24T08:51:35Z</time>
      </trkpt>
      <trkpt lat="46.11338" lon="4.6362">
        <ele>298.6</ele>
        <time>2020-10-24T08:51:36Z</time>
      </trkpt>
      <trkpt lat="46.1134" lon="4.63619">
        <ele>298.2</ele>
        <time>2020-10-24T08:51:37Z</time>
      </trkpt>
      <trkpt lat="46.11343" lon="4.63617">
        <ele>298</ele>
        <time>2020-10-24T08:51:38Z</time>
      </trkpt>
      <trkpt lat="46.11345" lon="4.63615">
        <ele>298.4</ele>
        <time>2020-10-24T08:51:39Z</time>
      </trkpt>
      <trkpt lat="46.11348" lon="4.63613">
        <ele>298.2</ele>
        <time>2020-10-24T08:51:40Z</time>
      </trkpt>
      <trkpt lat="46.1135" lon="4.63612">
        <ele>298</ele>
        <time>2020-10-24T08:51:41Z</time>
      </trkpt>
      <trkpt lat="46.11352" lon="4.6361">
        <ele>298.2</ele>
        <time>2020-10-24T08:51:42Z</time>
      </trkpt>
      <trkpt lat="46.11354" lon="4.63609">
        <ele>298</ele>
        <time>2020-10-24T08:51:43Z</time>
      </trkpt>
      <trkpt lat="46.11357" lon="4.63607">
        <ele>297.6</ele>
        <time>2020-10-24T08:51:44Z</time>
      </trkpt>
      <trkpt lat="46.11359" lon="4.63605">
        <ele>298</ele>
        <time>2020-10-24T08:51:45Z</time>
      </trkpt>
      <trkpt lat="46.11362" lon="4.63603">
        <ele>297.8</ele>
        <time>2020-10-24T08:51:46Z</time>
      </trkpt>
      <trkpt lat="46.11364" lon="4.63601">
        <ele>297.6</ele>
        <time>2020-10-24T08:51:47Z</time>
      </trkpt>
      <trkpt lat="46.11367" lon="4.63599">
        <ele>297.8</ele>
        <time>2020-10-24T08:51:48Z</time>
      </trkpt>
      <trkpt lat="46.11369" lon="4.63597">
        <ele>297.6</ele>
        <time>2020-10-24T08:51:49Z</time>
      </trkpt>
      <trkpt lat="46.11372" lon="4.63595">
        <ele>297.4</ele>
        <time>2020-10-24T08:51:50Z</time>
      </trkpt>
      <trkpt lat="46.11374" lon="4.63592">
        <ele>297.4</ele>
        <time>2020-10-24T08:51:51Z</time>
      </trkpt>
      <trkpt lat="46.11377" lon="4.63589">
        <ele>297.2</ele>
        <time>2020-10-24T08:51:52Z</time>
      </trkpt>
      <trkpt lat="46.11379" lon="4.63586">
        <ele>296.8</ele>
        <time>2020-10-24T08:51:53Z</time>
      </trkpt>
      <trkpt lat="46.11382" lon="4.63584">
        <ele>296.8</ele>
        <time>2020-10-24T08:51:54Z</time>
      </trkpt>
      <trkpt lat="46.11384" lon="4.63581">
        <ele>296.4</ele>
        <time>2020-10-24T08:51:55Z</time>
      </trkpt>
      <trkpt lat="46.11386" lon="4.63578">
        <ele>296</ele>
        <time>2020-10-24T08:51:56Z</time>
      </trkpt>
      <trkpt lat="46.11388" lon="4.63575">
        <ele>296</ele>
        <time>2020-10-24T08:51:57Z</time>
      </trkpt>
      <trkpt lat="46.1139" lon="4.63572">
        <ele>295.6</ele>
        <time>2020-10-24T08:51:58Z</time>
      </trkpt>
      <trkpt lat="46.11392" lon="4.63569">
        <ele>295</ele>
        <time>2020-10-24T08:51:59Z</time>
      </trkpt>
      <trkpt lat="46.11393" lon="4.63566">
        <ele>295.2</ele>
        <time>2020-10-24T08:52:00Z</time>
      </trkpt>
      <trkpt lat="46.11395" lon="4.63563">
        <ele>294.8</ele>
        <time>2020-10-24T08:52:01Z</time>
      </trkpt>
      <trkpt lat="46.11396" lon="4.6356">
        <ele>294.8</ele>
        <time>2020-10-24T08:52:02Z</time>
      </trkpt>
      <trkpt lat="46.11397" lon="4.63556">
        <ele>294.6</ele>
        <time>2020-10-24T08:52:03Z</time>
      </trkpt>
      <trkpt lat="46.11398" lon="4.63553">
        <ele>294.4</ele>
        <time>2020-10-24T08:52:04Z</time>
      </trkpt>
      <trkpt lat="46.11399" lon="4.6355">
        <ele>294.6</ele>
        <time>2020-10-24T08:52:05Z</time>
      </trkpt>
      <trkpt lat="46.11401" lon="4.63546">
        <ele>294.4</ele>
        <time>2020-10-24T08:52:06Z</time>
      </trkpt>
      <trkpt lat="46.11401" lon="4.63546">
        <ele>294.2</ele>
        <time>2020-10-24T08:52:07Z</time>
      </trkpt>
      <trkpt lat="46.11403" lon="4.63541">
        <ele>294.4</ele>
        <time>2020-10-24T08:52:08Z</time>
      </trkpt>
      <trkpt lat="46.11405" lon="4.63539">
        <ele>294.2</ele>
        <time>2020-10-24T08:52:09Z</time>
      </trkpt>
      <trkpt lat="46.11407" lon="4.63536">
        <ele>294.2</ele>
        <time>2020-10-24T08:52:10Z</time>
      </trkpt>
      <trkpt lat="46.11408" lon="4.63532">
        <ele>294</ele>
        <time>2020-10-24T08:52:11Z</time>
      </trkpt>
      <trkpt lat="46.1141" lon="4.63528">
        <ele>294</ele>
        <time>2020-10-24T08:52:12Z</time>
      </trkpt>
      <trkpt lat="46.11411" lon="4.63524">
        <ele>293.4</ele>
        <time>2020-10-24T08:52:13Z</time>
      </trkpt>
      <trkpt lat="46.11412" lon="4.6352">
        <ele>293.8</ele>
        <time>2020-10-24T08:52:14Z</time>
      </trkpt>
      <trkpt lat="46.11413" lon="4.63516">
        <ele>293.6</ele>
        <time>2020-10-24T08:52:15Z</time>
      </trkpt>
      <trkpt lat="46.11414" lon="4.63513">
        <ele>293.6</ele>
        <time>2020-10-24T08:52:16Z</time>
      </trkpt>
      <trkpt lat="46.11415" lon="4.63508">
        <ele>293.8</ele>
        <time>2020-10-24T08:52:17Z</time>
      </trkpt>
      <trkpt lat="46.11416" lon="4.63505">
        <ele>293.6</ele>
        <time>2020-10-24T08:52:18Z</time>
      </trkpt>
      <trkpt lat="46.11417" lon="4.63501">
        <ele>293.6</ele>
        <time>2020-10-24T08:52:19Z</time>
      </trkpt>
      <trkpt lat="46.11418" lon="4.63497">
        <ele>293.6</ele>
        <time>2020-10-24T08:52:20Z</time>
      </trkpt>
      <trkpt lat="46.11419" lon="4.63493">
        <ele>293.4</ele>
        <time>2020-10-24T08:52:21Z</time>
      </trkpt>
      <trkpt lat="46.1142" lon="4.63489">
        <ele>293.6</ele>
        <time>2020-10-24T08:52:22Z</time>
      </trkpt>
      <trkpt lat="46.11421" lon="4.63485">
        <ele>293.4</ele>
        <time>2020-10-24T08:52:23Z</time>
      </trkpt>
      <trkpt lat="46.11421" lon="4.63481">
        <ele>293.2</ele>
        <time>2020-10-24T08:52:24Z</time>
      </trkpt>
      <trkpt lat="46.11422" lon="4.63477">
        <ele>293.4</ele>
        <time>2020-10-24T08:52:25Z</time>
      </trkpt>
      <trkpt lat="46.11423" lon="4.63473">
        <ele>293.2</ele>
        <time>2020-10-24T08:52:26Z</time>
      </trkpt>
      <trkpt lat="46.11423" lon="4.6347">
        <ele>292.8</ele>
        <time>2020-10-24T08:52:27Z</time>
      </trkpt>
      <trkpt lat="46.11424" lon="4.63466">
        <ele>293</ele>
        <time>2020-10-24T08:52:28Z</time>
      </trkpt>
      <trkpt lat="46.11424" lon="4.63462">
        <ele>293</ele>
        <time>2020-10-24T08:52:29Z</time>
      </trkpt>
      <trkpt lat="46.11424" lon="4.63459">
        <ele>293</ele>
        <time>2020-10-24T08:52:30Z</time>
      </trkpt>
      <trkpt lat="46.11425" lon="4.63455">
        <ele>293</ele>
        <time>2020-10-24T08:52:31Z</time>
      </trkpt>
      <trkpt lat="46.11425" lon="4.63452">
        <ele>292.6</ele>
        <time>2020-10-24T08:52:32Z</time>
      </trkpt>
      <trkpt lat="46.11425" lon="4.63448">
        <ele>292.6</ele>
        <time>2020-10-24T08:52:33Z</time>
      </trkpt>
      <trkpt lat="46.11425" lon="4.63444">
        <ele>292.6</ele>
        <time>2020-10-24T08:52:34Z</time>
      </trkpt>
      <trkpt lat="46.11425" lon="4.63441">
        <ele>292.4</ele>
        <time>2020-10-24T08:52:35Z</time>
      </trkpt>
      <trkpt lat="46.11425" lon="4.63438">
        <ele>292.4</ele>
        <time>2020-10-24T08:52:36Z</time>
      </trkpt>
      <trkpt lat="46.11425" lon="4.63434">
        <ele>292.2</ele>
        <time>2020-10-24T08:52:37Z</time>
      </trkpt>
      <trkpt lat="46.11425" lon="4.6343">
        <ele>292</ele>
        <time>2020-10-24T08:52:38Z</time>
      </trkpt>
      <trkpt lat="46.11425" lon="4.63426">
        <ele>292.2</ele>
        <time>2020-10-24T08:52:39Z</time>
      </trkpt>
      <trkpt lat="46.11425" lon="4.63422">
        <ele>292</ele>
        <time>2020-10-24T08:52:40Z</time>
      </trkpt>
      <trkpt lat="46.11424" lon="4.63418">
        <ele>291.8</ele>
        <time>2020-10-24T08:52:41Z</time>
      </trkpt>
      <trkpt lat="46.11423" lon="4.63414">
        <ele>291.8</ele>
        <time>2020-10-24T08:52:42Z</time>
      </trkpt>
      <trkpt lat="46.11423" lon="4.63411">
        <ele>291.4</ele>
        <time>2020-10-24T08:52:43Z</time>
      </trkpt>
      <trkpt lat="46.11423" lon="4.63407">
        <ele>291.2</ele>
        <time>2020-10-24T08:52:44Z</time>
      </trkpt>
      <trkpt lat="46.11422" lon="4.63404">
        <ele>291.2</ele>
        <time>2020-10-24T08:52:45Z</time>
      </trkpt>
      <trkpt lat="46.11421" lon="4.634">
        <ele>291</ele>
        <time>2020-10-24T08:52:46Z</time>
      </trkpt>
      <trkpt lat="46.11421" lon="4.63396">
        <ele>290.6</ele>
        <time>2020-10-24T08:52:47Z</time>
      </trkpt>
      <trkpt lat="46.1142" lon="4.63392">
        <ele>290.8</ele>
        <time>2020-10-24T08:52:48Z</time>
      </trkpt>
      <trkpt lat="46.11419" lon="4.63388">
        <ele>290.6</ele>
        <time>2020-10-24T08:52:49Z</time>
      </trkpt>
      <trkpt lat="46.11418" lon="4.63384">
        <ele>290.6</ele>
        <time>2020-10-24T08:52:50Z</time>
      </trkpt>
      <trkpt lat="46.11418" lon="4.6338">
        <ele>290.6</ele>
        <time>2020-10-24T08:52:51Z</time>
      </trkpt>
      <trkpt lat="46.11417" lon="4.63376">
        <ele>290.6</ele>
        <time>2020-10-24T08:52:52Z</time>
      </trkpt>
      <trkpt lat="46.11416" lon="4.63372">
        <ele>290.6</ele>
        <time>2020-10-24T08:52:53Z</time>
      </trkpt>
      <trkpt lat="46.11415" lon="4.63369">
        <ele>290.6</ele>
        <time>2020-10-24T08:52:54Z</time>
      </trkpt>
      <trkpt lat="46.11415" lon="4.63365">
        <ele>290.4</ele>
        <time>2020-10-24T08:52:55Z</time>
      </trkpt>
      <trkpt lat="46.11414" lon="4.63362">
        <ele>290.6</ele>
        <time>2020-10-24T08:52:56Z</time>
      </trkpt>
      <trkpt lat="46.11413" lon="4.63358">
        <ele>290.4</ele>
        <time>2020-10-24T08:52:57Z</time>
      </trkpt>
      <trkpt lat="46.11412" lon="4.63354">
        <ele>290.2</ele>
        <time>2020-10-24T08:52:58Z</time>
      </trkpt>
      <trkpt lat="46.11411" lon="4.63351">
        <ele>290.4</ele>
        <time>2020-10-24T08:52:59Z</time>
      </trkpt>
      <trkpt lat="46.1141" lon="4.63347">
        <ele>290.2</ele>
        <time>2020-10-24T08:53:00Z</time>
      </trkpt>
      <trkpt lat="46.11409" lon="4.63343">
        <ele>289.6</ele>
        <time>2020-10-24T08:53:01Z</time>
      </trkpt>
      <trkpt lat="46.11408" lon="4.6334">
        <ele>290</ele>
        <time>2020-10-24T08:53:02Z</time>
      </trkpt>
      <trkpt lat="46.11406" lon="4.63336">
        <ele>289.8</ele>
        <time>2020-10-24T08:53:03Z</time>
      </trkpt>
      <trkpt lat="46.11405" lon="4.63332">
        <ele>289.8</ele>
        <time>2020-10-24T08:53:04Z</time>
      </trkpt>
      <trkpt lat="46.11405" lon="4.63329">
        <ele>289.6</ele>
        <time>2020-10-24T08:53:05Z</time>
      </trkpt>
      <trkpt lat="46.11404" lon="4.63325">
        <ele>289.6</ele>
        <time>2020-10-24T08:53:06Z</time>
      </trkpt>
      <trkpt lat="46.11403" lon="4.63321">
        <ele>289.8</ele>
        <time>2020-10-24T08:53:07Z</time>
      </trkpt>
      <trkpt lat="46.11403" lon="4.63318">
        <ele>290</ele>
        <time>2020-10-24T08:53:08Z</time>
      </trkpt>
      <trkpt lat="46.11402" lon="4.63314">
        <ele>290</ele>
        <time>2020-10-24T08:53:09Z</time>
      </trkpt>
      <trkpt lat="46.11402" lon="4.6331">
        <ele>290</ele>
        <time>2020-10-24T08:53:10Z</time>
      </trkpt>
      <trkpt lat="46.11401" lon="4.63305">
        <ele>289.6</ele>
        <time>2020-10-24T08:53:11Z</time>
      </trkpt>
      <trkpt lat="46.11401" lon="4.63301">
        <ele>289.4</ele>
        <time>2020-10-24T08:53:12Z</time>
      </trkpt>
      <trkpt lat="46.114" lon="4.63297">
        <ele>289.6</ele>
        <time>2020-10-24T08:53:13Z</time>
      </trkpt>
      <trkpt lat="46.11399" lon="4.63294">
        <ele>289.4</ele>
        <time>2020-10-24T08:53:14Z</time>
      </trkpt>
      <trkpt lat="46.11399" lon="4.6329">
        <ele>289.4</ele>
        <time>2020-10-24T08:53:15Z</time>
      </trkpt>
      <trkpt lat="46.11398" lon="4.63286">
        <ele>289.4</ele>
        <time>2020-10-24T08:53:16Z</time>
      </trkpt>
      <trkpt lat="46.11397" lon="4.63283">
        <ele>289.2</ele>
        <time>2020-10-24T08:53:17Z</time>
      </trkpt>
      <trkpt lat="46.11396" lon="4.63279">
        <ele>289.2</ele>
        <time>2020-10-24T08:53:18Z</time>
      </trkpt>
      <trkpt lat="46.11395" lon="4.63275">
        <ele>288.8</ele>
        <time>2020-10-24T08:53:19Z</time>
      </trkpt>
      <trkpt lat="46.11394" lon="4.63272">
        <ele>288.6</ele>
        <time>2020-10-24T08:53:20Z</time>
      </trkpt>
      <trkpt lat="46.11394" lon="4.63268">
        <ele>288.8</ele>
        <time>2020-10-24T08:53:21Z</time>
      </trkpt>
      <trkpt lat="46.11393" lon="4.63264">
        <ele>288.6</ele>
        <time>2020-10-24T08:53:22Z</time>
      </trkpt>
      <trkpt lat="46.11392" lon="4.6326">
        <ele>288.4</ele>
        <time>2020-10-24T08:53:23Z</time>
      </trkpt>
      <trkpt lat="46.11391" lon="4.63256">
        <ele>288.4</ele>
        <time>2020-10-24T08:53:24Z</time>
      </trkpt>
      <trkpt lat="46.11391" lon="4.63252">
        <ele>288.2</ele>
        <time>2020-10-24T08:53:25Z</time>
      </trkpt>
      <trkpt lat="46.1139" lon="4.63249">
        <ele>288</ele>
        <time>2020-10-24T08:53:26Z</time>
      </trkpt>
      <trkpt lat="46.11389" lon="4.63246">
        <ele>288.2</ele>
        <time>2020-10-24T08:53:27Z</time>
      </trkpt>
      <trkpt lat="46.11388" lon="4.63242">
        <ele>287.8</ele>
        <time>2020-10-24T08:53:28Z</time>
      </trkpt>
      <trkpt lat="46.11387" lon="4.63239">
        <ele>287.8</ele>
        <time>2020-10-24T08:53:29Z</time>
      </trkpt>
      <trkpt lat="46.11386" lon="4.63236">
        <ele>287.4</ele>
        <time>2020-10-24T08:53:30Z</time>
      </trkpt>
      <trkpt lat="46.11385" lon="4.63232">
        <ele>287.2</ele>
        <time>2020-10-24T08:53:31Z</time>
      </trkpt>
      <trkpt lat="46.11384" lon="4.63229">
        <ele>287.2</ele>
        <time>2020-10-24T08:53:32Z</time>
      </trkpt>
      <trkpt lat="46.11384" lon="4.63226">
        <ele>287.2</ele>
        <time>2020-10-24T08:53:33Z</time>
      </trkpt>
      <trkpt lat="46.11383" lon="4.63223">
        <ele>287</ele>
        <time>2020-10-24T08:53:34Z</time>
      </trkpt>
      <trkpt lat="46.11382" lon="4.6322">
        <ele>287.2</ele>
        <time>2020-10-24T08:53:35Z</time>
      </trkpt>
      <trkpt lat="46.11382" lon="4.6322">
        <ele>287.2</ele>
        <time>2020-10-24T08:53:36Z</time>
      </trkpt>
      <trkpt lat="46.1138" lon="4.63214">
        <ele>287</ele>
        <time>2020-10-24T08:53:37Z</time>
      </trkpt>
      <trkpt lat="46.11379" lon="4.6321">
        <ele>286.8</ele>
        <time>2020-10-24T08:53:38Z</time>
      </trkpt>
      <trkpt lat="46.11378" lon="4.63207">
        <ele>286.8</ele>
        <time>2020-10-24T08:53:39Z</time>
      </trkpt>
      <trkpt lat="46.11377" lon="4.63203">
        <ele>286.8</ele>
        <time>2020-10-24T08:53:40Z</time>
      </trkpt>
      <trkpt lat="46.11376" lon="4.632">
        <ele>287</ele>
        <time>2020-10-24T08:53:41Z</time>
      </trkpt>
      <trkpt lat="46.11375" lon="4.63196">
        <ele>286.8</ele>
        <time>2020-10-24T08:53:42Z</time>
      </trkpt>
      <trkpt lat="46.11375" lon="4.63193">
        <ele>286.6</ele>
        <time>2020-10-24T08:53:43Z</time>
      </trkpt>
      <trkpt lat="46.11375" lon="4.63193">
        <ele>286.8</ele>
        <time>2020-10-24T08:53:44Z</time>
      </trkpt>
      <trkpt lat="46.11373" lon="4.63186">
        <ele>286.6</ele>
        <time>2020-10-24T08:53:45Z</time>
      </trkpt>
      <trkpt lat="46.11373" lon="4.63183">
        <ele>286.6</ele>
        <time>2020-10-24T08:53:46Z</time>
      </trkpt>
      <trkpt lat="46.11372" lon="4.63179">
        <ele>286.4</ele>
        <time>2020-10-24T08:53:47Z</time>
      </trkpt>
      <trkpt lat="46.11371" lon="4.63176">
        <ele>286.2</ele>
        <time>2020-10-24T08:53:48Z</time>
      </trkpt>
      <trkpt lat="46.1137" lon="4.63172">
        <ele>286.4</ele>
        <time>2020-10-24T08:53:49Z</time>
      </trkpt>
      <trkpt lat="46.1137" lon="4.63168">
        <ele>286.6</ele>
        <time>2020-10-24T08:53:50Z</time>
      </trkpt>
      <trkpt lat="46.11369" lon="4.63164">
        <ele>286.4</ele>
        <time>2020-10-24T08:53:51Z</time>
      </trkpt>
      <trkpt lat="46.11368" lon="4.6316">
        <ele>286.4</ele>
        <time>2020-10-24T08:53:52Z</time>
      </trkpt>
      <trkpt lat="46.11367" lon="4.63157">
        <ele>286.4</ele>
        <time>2020-10-24T08:53:53Z</time>
      </trkpt>
      <trkpt lat="46.11367" lon="4.63153">
        <ele>286.2</ele>
        <time>2020-10-24T08:53:54Z</time>
      </trkpt>
      <trkpt lat="46.11366" lon="4.63149">
        <ele>286.2</ele>
        <time>2020-10-24T08:53:55Z</time>
      </trkpt>
      <trkpt lat="46.11365" lon="4.63145">
        <ele>286.4</ele>
        <time>2020-10-24T08:53:56Z</time>
      </trkpt>
      <trkpt lat="46.11364" lon="4.63142">
        <ele>285.8</ele>
        <time>2020-10-24T08:53:57Z</time>
      </trkpt>
      <trkpt lat="46.11363" lon="4.63138">
        <ele>286</ele>
        <time>2020-10-24T08:53:58Z</time>
      </trkpt>
      <trkpt lat="46.11363" lon="4.63134">
        <ele>285.8</ele>
        <time>2020-10-24T08:53:59Z</time>
      </trkpt>
      <trkpt lat="46.11362" lon="4.6313">
        <ele>285.4</ele>
        <time>2020-10-24T08:54:00Z</time>
      </trkpt>
      <trkpt lat="46.11361" lon="4.63127">
        <ele>285.6</ele>
        <time>2020-10-24T08:54:01Z</time>
      </trkpt>
      <trkpt lat="46.11361" lon="4.63123">
        <ele>285.6</ele>
        <time>2020-10-24T08:54:02Z</time>
      </trkpt>
      <trkpt lat="46.11361" lon="4.63123">
        <ele>285.2</ele>
        <time>2020-10-24T08:54:03Z</time>
      </trkpt>
      <trkpt lat="46.11359" lon="4.63116">
        <ele>285.4</ele>
        <time>2020-10-24T08:54:04Z</time>
      </trkpt>
      <trkpt lat="46.11359" lon="4.63113">
        <ele>285.2</ele>
        <time>2020-10-24T08:54:05Z</time>
      </trkpt>
      <trkpt lat="46.11358" lon="4.63109">
        <ele>284.8</ele>
        <time>2020-10-24T08:54:06Z</time>
      </trkpt>
      <trkpt lat="46.11357" lon="4.63105">
        <ele>285.2</ele>
        <time>2020-10-24T08:54:07Z</time>
      </trkpt>
      <trkpt lat="46.11357" lon="4.63101">
        <ele>285</ele>
        <time>2020-10-24T08:54:08Z</time>
      </trkpt>
      <trkpt lat="46.11356" lon="4.63097">
        <ele>284.8</ele>
        <time>2020-10-24T08:54:09Z</time>
      </trkpt>
      <trkpt lat="46.11355" lon="4.63094">
        <ele>285</ele>
        <time>2020-10-24T08:54:10Z</time>
      </trkpt>
      <trkpt lat="46.11355" lon="4.6309">
        <ele>284.8</ele>
        <time>2020-10-24T08:54:11Z</time>
      </trkpt>
      <trkpt lat="46.11354" lon="4.63086">
        <ele>284.6</ele>
        <time>2020-10-24T08:54:12Z</time>
      </trkpt>
      <trkpt lat="46.11353" lon="4.63083">
        <ele>284.6</ele>
        <time>2020-10-24T08:54:13Z</time>
      </trkpt>
      <trkpt lat="46.11353" lon="4.63079">
        <ele>284.4</ele>
        <time>2020-10-24T08:54:14Z</time>
      </trkpt>
      <trkpt lat="46.11352" lon="4.63075">
        <ele>284</ele>
        <time>2020-10-24T08:54:15Z</time>
      </trkpt>
      <trkpt lat="46.11351" lon="4.63072">
        <ele>284.2</ele>
        <time>2020-10-24T08:54:16Z</time>
      </trkpt>
      <trkpt lat="46.11351" lon="4.63068">
        <ele>284</ele>
        <time>2020-10-24T08:54:17Z</time>
      </trkpt>
      <trkpt lat="46.1135" lon="4.63065">
        <ele>283.6</ele>
        <time>2020-10-24T08:54:18Z</time>
      </trkpt>
      <trkpt lat="46.11349" lon="4.63061">
        <ele>284</ele>
        <time>2020-10-24T08:54:19Z</time>
      </trkpt>
      <trkpt lat="46.11348" lon="4.63057">
        <ele>283.8</ele>
        <time>2020-10-24T08:54:20Z</time>
      </trkpt>
      <trkpt lat="46.11348" lon="4.63053">
        <ele>283.4</ele>
        <time>2020-10-24T08:54:21Z</time>
      </trkpt>
      <trkpt lat="46.11347" lon="4.63049">
        <ele>283.6</ele>
        <time>2020-10-24T08:54:22Z</time>
      </trkpt>
      <trkpt lat="46.11346" lon="4.63045">
        <ele>283.4</ele>
        <time>2020-10-24T08:54:23Z</time>
      </trkpt>
      <trkpt lat="46.11346" lon="4.63041">
        <ele>283.4</ele>
        <time>2020-10-24T08:54:24Z</time>
      </trkpt>
      <trkpt lat="46.11345" lon="4.63037">
        <ele>283.4</ele>
        <time>2020-10-24T08:54:25Z</time>
      </trkpt>
      <trkpt lat="46.11344" lon="4.63034">
        <ele>283</ele>
        <time>2020-10-24T08:54:26Z</time>
      </trkpt>
      <trkpt lat="46.11344" lon="4.6303">
        <ele>282.6</ele>
        <time>2020-10-24T08:54:27Z</time>
      </trkpt>
      <trkpt lat="46.11343" lon="4.63026">
        <ele>282.8</ele>
        <time>2020-10-24T08:54:28Z</time>
      </trkpt>
      <trkpt lat="46.11342" lon="4.63022">
        <ele>282.4</ele>
        <time>2020-10-24T08:54:29Z</time>
      </trkpt>
      <trkpt lat="46.11342" lon="4.63018">
        <ele>282</ele>
        <time>2020-10-24T08:54:30Z</time>
      </trkpt>
      <trkpt lat="46.11341" lon="4.63015">
        <ele>282</ele>
        <time>2020-10-24T08:54:31Z</time>
      </trkpt>
      <trkpt lat="46.1134" lon="4.63011">
        <ele>281.8</ele>
        <time>2020-10-24T08:54:32Z</time>
      </trkpt>
      <trkpt lat="46.1134" lon="4.63007">
        <ele>281.8</ele>
        <time>2020-10-24T08:54:33Z</time>
      </trkpt>
      <trkpt lat="46.11339" lon="4.63003">
        <ele>281.8</ele>
        <time>2020-10-24T08:54:34Z</time>
      </trkpt>
      <trkpt lat="46.11338" lon="4.62999">
        <ele>281.2</ele>
        <time>2020-10-24T08:54:35Z</time>
      </trkpt>
      <trkpt lat="46.11338" lon="4.62996">
        <ele>281.2</ele>
        <time>2020-10-24T08:54:36Z</time>
      </trkpt>
      <trkpt lat="46.11337" lon="4.62992">
        <ele>281.2</ele>
        <time>2020-10-24T08:54:37Z</time>
      </trkpt>
      <trkpt lat="46.11336" lon="4.62987">
        <ele>281</ele>
        <time>2020-10-24T08:54:38Z</time>
      </trkpt>
      <trkpt lat="46.11336" lon="4.62983">
        <ele>281</ele>
        <time>2020-10-24T08:54:39Z</time>
      </trkpt>
      <trkpt lat="46.11335" lon="4.62979">
        <ele>280.8</ele>
        <time>2020-10-24T08:54:40Z</time>
      </trkpt>
      <trkpt lat="46.11334" lon="4.62975">
        <ele>280.4</ele>
        <time>2020-10-24T08:54:41Z</time>
      </trkpt>
      <trkpt lat="46.11334" lon="4.62972">
        <ele>280.6</ele>
        <time>2020-10-24T08:54:42Z</time>
      </trkpt>
      <trkpt lat="46.11333" lon="4.62969">
        <ele>280.4</ele>
        <time>2020-10-24T08:54:43Z</time>
      </trkpt>
      <trkpt lat="46.11332" lon="4.62965">
        <ele>280</ele>
        <time>2020-10-24T08:54:44Z</time>
      </trkpt>
      <trkpt lat="46.11332" lon="4.62962">
        <ele>280.2</ele>
        <time>2020-10-24T08:54:45Z</time>
      </trkpt>
      <trkpt lat="46.11331" lon="4.62958">
        <ele>279.8</ele>
        <time>2020-10-24T08:54:46Z</time>
      </trkpt>
      <trkpt lat="46.11331" lon="4.62955">
        <ele>279.6</ele>
        <time>2020-10-24T08:54:47Z</time>
      </trkpt>
      <trkpt lat="46.1133" lon="4.62951">
        <ele>279.8</ele>
        <time>2020-10-24T08:54:48Z</time>
      </trkpt>
      <trkpt lat="46.11329" lon="4.62947">
        <ele>280</ele>
        <time>2020-10-24T08:54:49Z</time>
      </trkpt>
      <trkpt lat="46.11328" lon="4.62944">
        <ele>280</ele>
        <time>2020-10-24T08:54:50Z</time>
      </trkpt>
      <trkpt lat="46.11328" lon="4.62941">
        <ele>280.2</ele>
        <time>2020-10-24T08:54:51Z</time>
      </trkpt>
      <trkpt lat="46.11327" lon="4.62937">
        <ele>279.8</ele>
        <time>2020-10-24T08:54:52Z</time>
      </trkpt>
      <trkpt lat="46.11326" lon="4.62933">
        <ele>279.4</ele>
        <time>2020-10-24T08:54:53Z</time>
      </trkpt>
      <trkpt lat="46.11325" lon="4.6293">
        <ele>279.6</ele>
        <time>2020-10-24T08:54:54Z</time>
      </trkpt>
      <trkpt lat="46.11325" lon="4.62926">
        <ele>279.4</ele>
        <time>2020-10-24T08:54:55Z</time>
      </trkpt>
      <trkpt lat="46.11324" lon="4.62922">
        <ele>279</ele>
        <time>2020-10-24T08:54:56Z</time>
      </trkpt>
      <trkpt lat="46.11323" lon="4.62919">
        <ele>279.2</ele>
        <time>2020-10-24T08:54:57Z</time>
      </trkpt>
      <trkpt lat="46.11322" lon="4.62915">
        <ele>278.8</ele>
        <time>2020-10-24T08:54:58Z</time>
      </trkpt>
      <trkpt lat="46.11322" lon="4.62911">
        <ele>278.6</ele>
        <time>2020-10-24T08:54:59Z</time>
      </trkpt>
      <trkpt lat="46.11321" lon="4.62908">
        <ele>278.8</ele>
        <time>2020-10-24T08:55:00Z</time>
      </trkpt>
      <trkpt lat="46.11321" lon="4.62904">
        <ele>278.6</ele>
        <time>2020-10-24T08:55:01Z</time>
      </trkpt>
      <trkpt lat="46.1132" lon="4.629">
        <ele>278.4</ele>
        <time>2020-10-24T08:55:02Z</time>
      </trkpt>
      <trkpt lat="46.11319" lon="4.62897">
        <ele>278.8</ele>
        <time>2020-10-24T08:55:03Z</time>
      </trkpt>
      <trkpt lat="46.11319" lon="4.62893">
        <ele>278.6</ele>
        <time>2020-10-24T08:55:04Z</time>
      </trkpt>
      <trkpt lat="46.11318" lon="4.62889">
        <ele>278.2</ele>
        <time>2020-10-24T08:55:05Z</time>
      </trkpt>
      <trkpt lat="46.11317" lon="4.62885">
        <ele>278.4</ele>
        <time>2020-10-24T08:55:06Z</time>
      </trkpt>
      <trkpt lat="46.11317" lon="4.62882">
        <ele>278.4</ele>
        <time>2020-10-24T08:55:07Z</time>
      </trkpt>
      <trkpt lat="46.11316" lon="4.62879">
        <ele>278.2</ele>
        <time>2020-10-24T08:55:08Z</time>
      </trkpt>
      <trkpt lat="46.11315" lon="4.62875">
        <ele>278.4</ele>
        <time>2020-10-24T08:55:09Z</time>
      </trkpt>
      <trkpt lat="46.11315" lon="4.62871">
        <ele>278</ele>
        <time>2020-10-24T08:55:10Z</time>
      </trkpt>
      <trkpt lat="46.11314" lon="4.62867">
        <ele>278</ele>
        <time>2020-10-24T08:55:11Z</time>
      </trkpt>
      <trkpt lat="46.11313" lon="4.62864">
        <ele>278.2</ele>
        <time>2020-10-24T08:55:12Z</time>
      </trkpt>
      <trkpt lat="46.11313" lon="4.6286">
        <ele>277.8</ele>
        <time>2020-10-24T08:55:13Z</time>
      </trkpt>
      <trkpt lat="46.11312" lon="4.62857">
        <ele>277.8</ele>
        <time>2020-10-24T08:55:14Z</time>
      </trkpt>
      <trkpt lat="46.11311" lon="4.62853">
        <ele>277.8</ele>
        <time>2020-10-24T08:55:15Z</time>
      </trkpt>
      <trkpt lat="46.11311" lon="4.62849">
        <ele>277.6</ele>
        <time>2020-10-24T08:55:16Z</time>
      </trkpt>
      <trkpt lat="46.1131" lon="4.62845">
        <ele>277.8</ele>
        <time>2020-10-24T08:55:17Z</time>
      </trkpt>
      <trkpt lat="46.11309" lon="4.62841">
        <ele>277.8</ele>
        <time>2020-10-24T08:55:18Z</time>
      </trkpt>
      <trkpt lat="46.11309" lon="4.62837">
        <ele>277.4</ele>
        <time>2020-10-24T08:55:19Z</time>
      </trkpt>
      <trkpt lat="46.11308" lon="4.62834">
        <ele>277.6</ele>
        <time>2020-10-24T08:55:20Z</time>
      </trkpt>
      <trkpt lat="46.11308" lon="4.62834">
        <ele>277.4</ele>
        <time>2020-10-24T08:55:21Z</time>
      </trkpt>
      <trkpt lat="46.11307" lon="4.62826">
        <ele>277.2</ele>
        <time>2020-10-24T08:55:22Z</time>
      </trkpt>
      <trkpt lat="46.11306" lon="4.62822">
        <ele>277.2</ele>
        <time>2020-10-24T08:55:23Z</time>
      </trkpt>
      <trkpt lat="46.11305" lon="4.62819">
        <ele>277</ele>
        <time>2020-10-24T08:55:24Z</time>
      </trkpt>
      <trkpt lat="46.11305" lon="4.62819">
        <ele>276.6</ele>
        <time>2020-10-24T08:55:25Z</time>
      </trkpt>
      <trkpt lat="46.11304" lon="4.62812">
        <ele>277</ele>
        <time>2020-10-24T08:55:26Z</time>
      </trkpt>
      <trkpt lat="46.11303" lon="4.62809">
        <ele>276.6</ele>
        <time>2020-10-24T08:55:27Z</time>
      </trkpt>
      <trkpt lat="46.11302" lon="4.62806">
        <ele>276.4</ele>
        <time>2020-10-24T08:55:28Z</time>
      </trkpt>
      <trkpt lat="46.11301" lon="4.62803">
        <ele>277</ele>
        <time>2020-10-24T08:55:29Z</time>
      </trkpt>
      <trkpt lat="46.11301" lon="4.62799">
        <ele>276.6</ele>
        <time>2020-10-24T08:55:30Z</time>
      </trkpt>
      <trkpt lat="46.113" lon="4.62796">
        <ele>276.4</ele>
        <time>2020-10-24T08:55:31Z</time>
      </trkpt>
      <trkpt lat="46.11299" lon="4.62792">
        <ele>276.6</ele>
        <time>2020-10-24T08:55:32Z</time>
      </trkpt>
      <trkpt lat="46.11298" lon="4.62789">
        <ele>276.4</ele>
        <time>2020-10-24T08:55:33Z</time>
      </trkpt>
      <trkpt lat="46.11297" lon="4.62785">
        <ele>276</ele>
        <time>2020-10-24T08:55:34Z</time>
      </trkpt>
      <trkpt lat="46.11296" lon="4.62781">
        <ele>276.2</ele>
        <time>2020-10-24T08:55:35Z</time>
      </trkpt>
      <trkpt lat="46.11295" lon="4.62777">
        <ele>276</ele>
        <time>2020-10-24T08:55:36Z</time>
      </trkpt>
      <trkpt lat="46.11295" lon="4.62777">
        <ele>275.8</ele>
        <time>2020-10-24T08:55:37Z</time>
      </trkpt>
      <trkpt lat="46.11293" lon="4.6277">
        <ele>276</ele>
        <time>2020-10-24T08:55:38Z</time>
      </trkpt>
      <trkpt lat="46.11292" lon="4.62766">
        <ele>275.6</ele>
        <time>2020-10-24T08:55:39Z</time>
      </trkpt>
      <trkpt lat="46.1129" lon="4.62762">
        <ele>275.8</ele>
        <time>2020-10-24T08:55:40Z</time>
      </trkpt>
      <trkpt lat="46.1129" lon="4.62762">
        <ele>275.6</ele>
        <time>2020-10-24T08:55:41Z</time>
      </trkpt>
      <trkpt lat="46.11288" lon="4.62755">
        <ele>275.6</ele>
        <time>2020-10-24T08:55:42Z</time>
      </trkpt>
      <trkpt lat="46.11287" lon="4.62752">
        <ele>275.8</ele>
        <time>2020-10-24T08:55:43Z</time>
      </trkpt>
      <trkpt lat="46.11287" lon="4.62752">
        <ele>275.6</ele>
        <time>2020-10-24T08:55:44Z</time>
      </trkpt>
      <trkpt lat="46.11285" lon="4.62746">
        <ele>275.2</ele>
        <time>2020-10-24T08:55:45Z</time>
      </trkpt>
      <trkpt lat="46.11284" lon="4.62743">
        <ele>275.4</ele>
        <time>2020-10-24T08:55:46Z</time>
      </trkpt>
      <trkpt lat="46.11283" lon="4.62739">
        <ele>275.2</ele>
        <time>2020-10-24T08:55:47Z</time>
      </trkpt>
      <trkpt lat="46.11283" lon="4.62736">
        <ele>275</ele>
        <time>2020-10-24T08:55:48Z</time>
      </trkpt>
      <trkpt lat="46.11282" lon="4.62732">
        <ele>275.4</ele>
        <time>2020-10-24T08:55:49Z</time>
      </trkpt>
      <trkpt lat="46.11281" lon="4.62729">
        <ele>275.2</ele>
        <time>2020-10-24T08:55:50Z</time>
      </trkpt>
      <trkpt lat="46.1128" lon="4.62726">
        <ele>274.8</ele>
        <time>2020-10-24T08:55:51Z</time>
      </trkpt>
      <trkpt lat="46.11278" lon="4.62722">
        <ele>275.2</ele>
        <time>2020-10-24T08:55:52Z</time>
      </trkpt>
      <trkpt lat="46.11277" lon="4.62718">
        <ele>274.8</ele>
        <time>2020-10-24T08:55:53Z</time>
      </trkpt>
      <trkpt lat="46.11276" lon="4.62715">
        <ele>275</ele>
        <time>2020-10-24T08:55:54Z</time>
      </trkpt>
      <trkpt lat="46.11275" lon="4.62711">
        <ele>275</ele>
        <time>2020-10-24T08:55:55Z</time>
      </trkpt>
      <trkpt lat="46.11274" lon="4.62708">
        <ele>274.6</ele>
        <time>2020-10-24T08:55:56Z</time>
      </trkpt>
      <trkpt lat="46.11273" lon="4.62704">
        <ele>274.8</ele>
        <time>2020-10-24T08:55:57Z</time>
      </trkpt>
      <trkpt lat="46.11272" lon="4.62701">
        <ele>274.8</ele>
        <time>2020-10-24T08:55:58Z</time>
      </trkpt>
      <trkpt lat="46.11271" lon="4.62697">
        <ele>274.4</ele>
        <time>2020-10-24T08:55:59Z</time>
      </trkpt>
      <trkpt lat="46.1127" lon="4.62694">
        <ele>274.8</ele>
        <time>2020-10-24T08:56:00Z</time>
      </trkpt>
      <trkpt lat="46.11269" lon="4.62691">
        <ele>274.6</ele>
        <time>2020-10-24T08:56:01Z</time>
      </trkpt>
      <trkpt lat="46.11268" lon="4.62688">
        <ele>274.6</ele>
        <time>2020-10-24T08:56:02Z</time>
      </trkpt>
      <trkpt lat="46.11267" lon="4.62685">
        <ele>274.8</ele>
        <time>2020-10-24T08:56:03Z</time>
      </trkpt>
      <trkpt lat="46.11266" lon="4.62682">
        <ele>274.6</ele>
        <time>2020-10-24T08:56:04Z</time>
      </trkpt>
      <trkpt lat="46.11265" lon="4.62679">
        <ele>274.8</ele>
        <time>2020-10-24T08:56:05Z</time>
      </trkpt>
      <trkpt lat="46.11264" lon="4.62676">
        <ele>274.8</ele>
        <time>2020-10-24T08:56:06Z</time>
      </trkpt>
      <trkpt lat="46.11262" lon="4.62672">
        <ele>274.6</ele>
        <time>2020-10-24T08:56:07Z</time>
      </trkpt>
      <trkpt lat="46.11261" lon="4.62669">
        <ele>274.8</ele>
        <time>2020-10-24T08:56:08Z</time>
      </trkpt>
      <trkpt lat="46.1126" lon="4.62665">
        <ele>274.4</ele>
        <time>2020-10-24T08:56:09Z</time>
      </trkpt>
      <trkpt lat="46.11259" lon="4.62661">
        <ele>274.4</ele>
        <time>2020-10-24T08:56:10Z</time>
      </trkpt>
      <trkpt lat="46.11259" lon="4.62657">
        <ele>274.4</ele>
        <time>2020-10-24T08:56:11Z</time>
      </trkpt>
      <trkpt lat="46.11258" lon="4.62654">
        <ele>274</ele>
        <time>2020-10-24T08:56:12Z</time>
      </trkpt>
      <trkpt lat="46.11257" lon="4.6265">
        <ele>273.8</ele>
        <time>2020-10-24T08:56:13Z</time>
      </trkpt>
      <trkpt lat="46.11257" lon="4.62646">
        <ele>274</ele>
        <time>2020-10-24T08:56:14Z</time>
      </trkpt>
      <trkpt lat="46.11256" lon="4.62642">
        <ele>273.8</ele>
        <time>2020-10-24T08:56:15Z</time>
      </trkpt>
      <trkpt lat="46.11256" lon="4.62638">
        <ele>273.6</ele>
        <time>2020-10-24T08:56:16Z</time>
      </trkpt>
      <trkpt lat="46.11256" lon="4.62634">
        <ele>273.8</ele>
        <time>2020-10-24T08:56:17Z</time>
      </trkpt>
      <trkpt lat="46.11255" lon="4.62629">
        <ele>273.6</ele>
        <time>2020-10-24T08:56:18Z</time>
      </trkpt>
      <trkpt lat="46.11255" lon="4.62625">
        <ele>273.6</ele>
        <time>2020-10-24T08:56:19Z</time>
      </trkpt>
      <trkpt lat="46.11255" lon="4.62625">
        <ele>273.4</ele>
        <time>2020-10-24T08:56:20Z</time>
      </trkpt>
      <trkpt lat="46.11255" lon="4.62616">
        <ele>273.2</ele>
        <time>2020-10-24T08:56:21Z</time>
      </trkpt>
      <trkpt lat="46.11255" lon="4.62612">
        <ele>273.2</ele>
        <time>2020-10-24T08:56:22Z</time>
      </trkpt>
      <trkpt lat="46.11255" lon="4.62608">
        <ele>273.2</ele>
        <time>2020-10-24T08:56:23Z</time>
      </trkpt>
      <trkpt lat="46.11255" lon="4.62604">
        <ele>273.2</ele>
        <time>2020-10-24T08:56:24Z</time>
      </trkpt>
      <trkpt lat="46.11256" lon="4.626">
        <ele>273.4</ele>
        <time>2020-10-24T08:56:25Z</time>
      </trkpt>
      <trkpt lat="46.11256" lon="4.62596">
        <ele>273.2</ele>
        <time>2020-10-24T08:56:26Z</time>
      </trkpt>
      <trkpt lat="46.11256" lon="4.62592">
        <ele>273</ele>
        <time>2020-10-24T08:56:27Z</time>
      </trkpt>
      <trkpt lat="46.11256" lon="4.62588">
        <ele>273.2</ele>
        <time>2020-10-24T08:56:28Z</time>
      </trkpt>
      <trkpt lat="46.11256" lon="4.62585">
        <ele>273</ele>
        <time>2020-10-24T08:56:29Z</time>
      </trkpt>
      <trkpt lat="46.11257" lon="4.62581">
        <ele>272.8</ele>
        <time>2020-10-24T08:56:30Z</time>
      </trkpt>
      <trkpt lat="46.11257" lon="4.62577">
        <ele>273</ele>
        <time>2020-10-24T08:56:31Z</time>
      </trkpt>
      <trkpt lat="46.11257" lon="4.62577">
        <ele>272.8</ele>
        <time>2020-10-24T08:56:32Z</time>
      </trkpt>
      <trkpt lat="46.11258" lon="4.6257">
        <ele>272.6</ele>
        <time>2020-10-24T08:56:33Z</time>
      </trkpt>
      <trkpt lat="46.11259" lon="4.62566">
        <ele>272.8</ele>
        <time>2020-10-24T08:56:34Z</time>
      </trkpt>
      <trkpt lat="46.1126" lon="4.62562">
        <ele>272.4</ele>
        <time>2020-10-24T08:56:35Z</time>
      </trkpt>
      <trkpt lat="46.11261" lon="4.62558">
        <ele>272.4</ele>
        <time>2020-10-24T08:56:36Z</time>
      </trkpt>
      <trkpt lat="46.11261" lon="4.62558">
        <ele>272.4</ele>
        <time>2020-10-24T08:56:37Z</time>
      </trkpt>
      <trkpt lat="46.11261" lon="4.6255">
        <ele>272</ele>
        <time>2020-10-24T08:56:38Z</time>
      </trkpt>
      <trkpt lat="46.11261" lon="4.62546">
        <ele>272.2</ele>
        <time>2020-10-24T08:56:39Z</time>
      </trkpt>
      <trkpt lat="46.11261" lon="4.62543">
        <ele>271.8</ele>
        <time>2020-10-24T08:56:40Z</time>
      </trkpt>
      <trkpt lat="46.11262" lon="4.62538">
        <ele>271.8</ele>
        <time>2020-10-24T08:56:41Z</time>
      </trkpt>
      <trkpt lat="46.11262" lon="4.62536">
        <ele>271.8</ele>
        <time>2020-10-24T08:56:42Z</time>
      </trkpt>
      <trkpt lat="46.11262" lon="4.62533">
        <ele>271.4</ele>
        <time>2020-10-24T08:56:43Z</time>
      </trkpt>
      <trkpt lat="46.11262" lon="4.62529">
        <ele>271.6</ele>
        <time>2020-10-24T08:56:44Z</time>
      </trkpt>
      <trkpt lat="46.11262" lon="4.62525">
        <ele>271.8</ele>
        <time>2020-10-24T08:56:45Z</time>
      </trkpt>
      <trkpt lat="46.11263" lon="4.62522">
        <ele>271.4</ele>
        <time>2020-10-24T08:56:46Z</time>
      </trkpt>
      <trkpt lat="46.11263" lon="4.62517">
        <ele>271.6</ele>
        <time>2020-10-24T08:56:47Z</time>
      </trkpt>
      <trkpt lat="46.11263" lon="4.62513">
        <ele>271.4</ele>
        <time>2020-10-24T08:56:48Z</time>
      </trkpt>
      <trkpt lat="46.11263" lon="4.62509">
        <ele>271</ele>
        <time>2020-10-24T08:56:49Z</time>
      </trkpt>
      <trkpt lat="46.11263" lon="4.62509">
        <ele>271.4</ele>
        <time>2020-10-24T08:56:50Z</time>
      </trkpt>
      <trkpt lat="46.11264" lon="4.62501">
        <ele>271</ele>
        <time>2020-10-24T08:56:51Z</time>
      </trkpt>
      <trkpt lat="46.11264" lon="4.62497">
        <ele>270.6</ele>
        <time>2020-10-24T08:56:52Z</time>
      </trkpt>
      <trkpt lat="46.11264" lon="4.62493">
        <ele>271</ele>
        <time>2020-10-24T08:56:53Z</time>
      </trkpt>
      <trkpt lat="46.11264" lon="4.62488">
        <ele>270.6</ele>
        <time>2020-10-24T08:56:54Z</time>
      </trkpt>
      <trkpt lat="46.11265" lon="4.62484">
        <ele>270.6</ele>
        <time>2020-10-24T08:56:55Z</time>
      </trkpt>
      <trkpt lat="46.11265" lon="4.62479">
        <ele>270.6</ele>
        <time>2020-10-24T08:56:56Z</time>
      </trkpt>
      <trkpt lat="46.11265" lon="4.62475">
        <ele>270.4</ele>
        <time>2020-10-24T08:56:57Z</time>
      </trkpt>
      <trkpt lat="46.11265" lon="4.6247">
        <ele>270.6</ele>
        <time>2020-10-24T08:56:58Z</time>
      </trkpt>
      <trkpt lat="46.11265" lon="4.6247">
        <ele>270.4</ele>
        <time>2020-10-24T08:56:59Z</time>
      </trkpt>
      <trkpt lat="46.11266" lon="4.62462">
        <ele>270.2</ele>
        <time>2020-10-24T08:57:00Z</time>
      </trkpt>
      <trkpt lat="46.11266" lon="4.62458">
        <ele>270.6</ele>
        <time>2020-10-24T08:57:01Z</time>
      </trkpt>
      <trkpt lat="46.11266" lon="4.62454">
        <ele>270.4</ele>
        <time>2020-10-24T08:57:02Z</time>
      </trkpt>
      <trkpt lat="46.11266" lon="4.62451">
        <ele>270.4</ele>
        <time>2020-10-24T08:57:03Z</time>
      </trkpt>
      <trkpt lat="46.11267" lon="4.62446">
        <ele>270.6</ele>
        <time>2020-10-24T08:57:04Z</time>
      </trkpt>
      <trkpt lat="46.11267" lon="4.62442">
        <ele>270.2</ele>
        <time>2020-10-24T08:57:05Z</time>
      </trkpt>
      <trkpt lat="46.11267" lon="4.62438">
        <ele>270.6</ele>
        <time>2020-10-24T08:57:06Z</time>
      </trkpt>
      <trkpt lat="46.11267" lon="4.62434">
        <ele>270.2</ele>
        <time>2020-10-24T08:57:07Z</time>
      </trkpt>
      <trkpt lat="46.11268" lon="4.62431">
        <ele>270</ele>
        <time>2020-10-24T08:57:08Z</time>
      </trkpt>
      <trkpt lat="46.11268" lon="4.62429">
        <ele>270.4</ele>
        <time>2020-10-24T08:57:09Z</time>
      </trkpt>
      <trkpt lat="46.11268" lon="4.62426">
        <ele>270.2</ele>
        <time>2020-10-24T08:57:10Z</time>
      </trkpt>
      <trkpt lat="46.11269" lon="4.62423">
        <ele>270</ele>
        <time>2020-10-24T08:57:11Z</time>
      </trkpt>
      <trkpt lat="46.11269" lon="4.6242">
        <ele>270.4</ele>
        <time>2020-10-24T08:57:12Z</time>
      </trkpt>
      <trkpt lat="46.1127" lon="4.62417">
        <ele>270</ele>
        <time>2020-10-24T08:57:13Z</time>
      </trkpt>
      <trkpt lat="46.11271" lon="4.62414">
        <ele>270.2</ele>
        <time>2020-10-24T08:57:14Z</time>
      </trkpt>
      <trkpt lat="46.11273" lon="4.62405">
        <ele>270.4</ele>
        <time>2020-10-24T08:57:15Z</time>
      </trkpt>
      <trkpt lat="46.11275" lon="4.62401">
        <ele>270.2</ele>
        <time>2020-10-24T08:57:16Z</time>
      </trkpt>
      <trkpt lat="46.11276" lon="4.62396">
        <ele>270.4</ele>
        <time>2020-10-24T08:57:17Z</time>
      </trkpt>
      <trkpt lat="46.11277" lon="4.62392">
        <ele>270.2</ele>
        <time>2020-10-24T08:57:18Z</time>
      </trkpt>
      <trkpt lat="46.11278" lon="4.62388">
        <ele>269.8</ele>
        <time>2020-10-24T08:57:19Z</time>
      </trkpt>
      <trkpt lat="46.11279" lon="4.62383">
        <ele>270.2</ele>
        <time>2020-10-24T08:57:20Z</time>
      </trkpt>
      <trkpt lat="46.11279" lon="4.62383">
        <ele>269.8</ele>
        <time>2020-10-24T08:57:21Z</time>
      </trkpt>
      <trkpt lat="46.11282" lon="4.62375">
        <ele>269.6</ele>
        <time>2020-10-24T08:57:22Z</time>
      </trkpt>
      <trkpt lat="46.11284" lon="4.62371">
        <ele>270.2</ele>
        <time>2020-10-24T08:57:23Z</time>
      </trkpt>
      <trkpt lat="46.11284" lon="4.62371">
        <ele>270</ele>
        <time>2020-10-24T08:57:24Z</time>
      </trkpt>
      <trkpt lat="46.11287" lon="4.62364">
        <ele>270.2</ele>
        <time>2020-10-24T08:57:25Z</time>
      </trkpt>
      <trkpt lat="46.1129" lon="4.62362">
        <ele>270.2</ele>
        <time>2020-10-24T08:57:26Z</time>
      </trkpt>
      <trkpt lat="46.11292" lon="4.62359">
        <ele>270</ele>
        <time>2020-10-24T08:57:27Z</time>
      </trkpt>
      <trkpt lat="46.11295" lon="4.62357">
        <ele>270.2</ele>
        <time>2020-10-24T08:57:28Z</time>
      </trkpt>
      <trkpt lat="46.11297" lon="4.62355">
        <ele>270</ele>
        <time>2020-10-24T08:57:29Z</time>
      </trkpt>
      <trkpt lat="46.11301" lon="4.62354">
        <ele>269.8</ele>
        <time>2020-10-24T08:57:30Z</time>
      </trkpt>
      <trkpt lat="46.11304" lon="4.62351">
        <ele>270.2</ele>
        <time>2020-10-24T08:57:31Z</time>
      </trkpt>
      <trkpt lat="46.11304" lon="4.62351">
        <ele>270</ele>
        <time>2020-10-24T08:57:32Z</time>
      </trkpt>
      <trkpt lat="46.11309" lon="4.62347">
        <ele>270</ele>
        <time>2020-10-24T08:57:33Z</time>
      </trkpt>
      <trkpt lat="46.11311" lon="4.62345">
        <ele>270</ele>
        <time>2020-10-24T08:57:34Z</time>
      </trkpt>
      <trkpt lat="46.11314" lon="4.62344">
        <ele>269.8</ele>
        <time>2020-10-24T08:57:35Z</time>
      </trkpt>
      <trkpt lat="46.11316" lon="4.62341">
        <ele>270</ele>
        <time>2020-10-24T08:57:36Z</time>
      </trkpt>
      <trkpt lat="46.11318" lon="4.6234">
        <ele>270</ele>
        <time>2020-10-24T08:57:37Z</time>
      </trkpt>
      <trkpt lat="46.11321" lon="4.62339">
        <ele>269.6</ele>
        <time>2020-10-24T08:57:38Z</time>
      </trkpt>
      <trkpt lat="46.11323" lon="4.62337">
        <ele>270</ele>
        <time>2020-10-24T08:57:39Z</time>
      </trkpt>
      <trkpt lat="46.11326" lon="4.62337">
        <ele>270</ele>
        <time>2020-10-24T08:57:40Z</time>
      </trkpt>
      <trkpt lat="46.11329" lon="4.62336">
        <ele>270</ele>
        <time>2020-10-24T08:57:41Z</time>
      </trkpt>
      <trkpt lat="46.11332" lon="4.62334">
        <ele>270</ele>
        <time>2020-10-24T08:57:42Z</time>
      </trkpt>
      <trkpt lat="46.11335" lon="4.62332">
        <ele>270</ele>
        <time>2020-10-24T08:57:43Z</time>
      </trkpt>
      <trkpt lat="46.11337" lon="4.6233">
        <ele>270.2</ele>
        <time>2020-10-24T08:57:44Z</time>
      </trkpt>
      <trkpt lat="46.1134" lon="4.62329">
        <ele>270</ele>
        <time>2020-10-24T08:57:45Z</time>
      </trkpt>
      <trkpt lat="46.11343" lon="4.62327">
        <ele>269.8</ele>
        <time>2020-10-24T08:57:46Z</time>
      </trkpt>
      <trkpt lat="46.11346" lon="4.62326">
        <ele>270.4</ele>
        <time>2020-10-24T08:57:47Z</time>
      </trkpt>
      <trkpt lat="46.11349" lon="4.62324">
        <ele>270.4</ele>
        <time>2020-10-24T08:57:48Z</time>
      </trkpt>
      <trkpt lat="46.11352" lon="4.62323">
        <ele>270</ele>
        <time>2020-10-24T08:57:49Z</time>
      </trkpt>
      <trkpt lat="46.11354" lon="4.62322">
        <ele>270.4</ele>
        <time>2020-10-24T08:57:50Z</time>
      </trkpt>
      <trkpt lat="46.11357" lon="4.62321">
        <ele>270.4</ele>
        <time>2020-10-24T08:57:51Z</time>
      </trkpt>
      <trkpt lat="46.1136" lon="4.6232">
        <ele>270.6</ele>
        <time>2020-10-24T08:57:52Z</time>
      </trkpt>
      <trkpt lat="46.11362" lon="4.62318">
        <ele>270.6</ele>
        <time>2020-10-24T08:57:53Z</time>
      </trkpt>
      <trkpt lat="46.11365" lon="4.62317">
        <ele>270.2</ele>
        <time>2020-10-24T08:57:54Z</time>
      </trkpt>
      <trkpt lat="46.11367" lon="4.62316">
        <ele>270.6</ele>
        <time>2020-10-24T08:57:55Z</time>
      </trkpt>
      <trkpt lat="46.1137" lon="4.62315">
        <ele>270.4</ele>
        <time>2020-10-24T08:57:56Z</time>
      </trkpt>
      <trkpt lat="46.11372" lon="4.62313">
        <ele>270</ele>
        <time>2020-10-24T08:57:57Z</time>
      </trkpt>
      <trkpt lat="46.11375" lon="4.62312">
        <ele>270.6</ele>
        <time>2020-10-24T08:57:58Z</time>
      </trkpt>
      <trkpt lat="46.11377" lon="4.6231">
        <ele>270.4</ele>
        <time>2020-10-24T08:57:59Z</time>
      </trkpt>
      <trkpt lat="46.1138" lon="4.62308">
        <ele>270.2</ele>
        <time>2020-10-24T08:58:00Z</time>
      </trkpt>
      <trkpt lat="46.11382" lon="4.62307">
        <ele>270.6</ele>
        <time>2020-10-24T08:58:01Z</time>
      </trkpt>
      <trkpt lat="46.11384" lon="4.62306">
        <ele>270.6</ele>
        <time>2020-10-24T08:58:02Z</time>
      </trkpt>
      <trkpt lat="46.11387" lon="4.62304">
        <ele>270.8</ele>
        <time>2020-10-24T08:58:03Z</time>
      </trkpt>
      <trkpt lat="46.1139" lon="4.62303">
        <ele>271.2</ele>
        <time>2020-10-24T08:58:04Z</time>
      </trkpt>
      <trkpt lat="46.11393" lon="4.62302">
        <ele>270.8</ele>
        <time>2020-10-24T08:58:05Z</time>
      </trkpt>
      <trkpt lat="46.11395" lon="4.62301">
        <ele>271</ele>
        <time>2020-10-24T08:58:06Z</time>
      </trkpt>
      <trkpt lat="46.11397" lon="4.623">
        <ele>271</ele>
        <time>2020-10-24T08:58:07Z</time>
      </trkpt>
      <trkpt lat="46.114" lon="4.62299">
        <ele>270.8</ele>
        <time>2020-10-24T08:58:08Z</time>
      </trkpt>
      <trkpt lat="46.11403" lon="4.62297">
        <ele>271.2</ele>
        <time>2020-10-24T08:58:09Z</time>
      </trkpt>
      <trkpt lat="46.11406" lon="4.62296">
        <ele>271</ele>
        <time>2020-10-24T08:58:10Z</time>
      </trkpt>
      <trkpt lat="46.11408" lon="4.62296">
        <ele>270.8</ele>
        <time>2020-10-24T08:58:11Z</time>
      </trkpt>
      <trkpt lat="46.11411" lon="4.62295">
        <ele>271</ele>
        <time>2020-10-24T08:58:12Z</time>
      </trkpt>
      <trkpt lat="46.11413" lon="4.62294">
        <ele>271</ele>
        <time>2020-10-24T08:58:13Z</time>
      </trkpt>
      <trkpt lat="46.11416" lon="4.62293">
        <ele>271.2</ele>
        <time>2020-10-24T08:58:14Z</time>
      </trkpt>
      <trkpt lat="46.11419" lon="4.62292">
        <ele>271.4</ele>
        <time>2020-10-24T08:58:15Z</time>
      </trkpt>
      <trkpt lat="46.11421" lon="4.62292">
        <ele>271.4</ele>
        <time>2020-10-24T08:58:16Z</time>
      </trkpt>
      <trkpt lat="46.11423" lon="4.62292">
        <ele>271.4</ele>
        <time>2020-10-24T08:58:17Z</time>
      </trkpt>
      <trkpt lat="46.11425" lon="4.62292">
        <ele>271.4</ele>
        <time>2020-10-24T08:58:18Z</time>
      </trkpt>
      <trkpt lat="46.11427" lon="4.62293">
        <ele>271.6</ele>
        <time>2020-10-24T08:58:19Z</time>
      </trkpt>
      <trkpt lat="46.11427" lon="4.62293">
        <ele>271.6</ele>
        <time>2020-10-24T08:58:20Z</time>
      </trkpt>
      <trkpt lat="46.1143" lon="4.62294">
        <ele>271.6</ele>
        <time>2020-10-24T08:58:21Z</time>
      </trkpt>
      <trkpt lat="46.1143" lon="4.62294">
        <ele>271.6</ele>
        <time>2020-10-24T08:58:22Z</time>
      </trkpt>
      <trkpt lat="46.11433" lon="4.62294">
        <ele>271.6</ele>
        <time>2020-10-24T08:58:23Z</time>
      </trkpt>
      <trkpt lat="46.11433" lon="4.62294">
        <ele>271.6</ele>
        <time>2020-10-24T08:58:24Z</time>
      </trkpt>
      <trkpt lat="46.11436" lon="4.62293">
        <ele>271.6</ele>
        <time>2020-10-24T08:58:25Z</time>
      </trkpt>
      <trkpt lat="46.11436" lon="4.62293">
        <ele>271.6</ele>
        <time>2020-10-24T08:58:26Z</time>
      </trkpt>
      <trkpt lat="46.11438" lon="4.6229">
        <ele>271.2</ele>
        <time>2020-10-24T08:58:27Z</time>
      </trkpt>
      <trkpt lat="46.11438" lon="4.6229">
        <ele>271.2</ele>
        <time>2020-10-24T08:58:28Z</time>
      </trkpt>
      <trkpt lat="46.11438" lon="4.62287">
        <ele>271.4</ele>
        <time>2020-10-24T08:58:29Z</time>
      </trkpt>
      <trkpt lat="46.11438" lon="4.62287">
        <ele>271.6</ele>
        <time>2020-10-24T08:58:30Z</time>
      </trkpt>
      <trkpt lat="46.11437" lon="4.62283">
        <ele>271.4</ele>
        <time>2020-10-24T08:58:31Z</time>
      </trkpt>
      <trkpt lat="46.11437" lon="4.62283">
        <ele>271.2</ele>
        <time>2020-10-24T08:58:32Z</time>
      </trkpt>
      <trkpt lat="46.11434" lon="4.6228">
        <ele>271.2</ele>
        <time>2020-10-24T08:58:33Z</time>
      </trkpt>
      <trkpt lat="46.11433" lon="4.62278">
        <ele>271</ele>
        <time>2020-10-24T08:58:34Z</time>
      </trkpt>
      <trkpt lat="46.11433" lon="4.62278">
        <ele>270.8</ele>
        <time>2020-10-24T08:58:35Z</time>
      </trkpt>
      <trkpt lat="46.11431" lon="4.62274">
        <ele>270.8</ele>
        <time>2020-10-24T08:58:36Z</time>
      </trkpt>
      <trkpt lat="46.11431" lon="4.62274">
        <ele>270.8</ele>
        <time>2020-10-24T08:58:37Z</time>
      </trkpt>
      <trkpt lat="46.1143" lon="4.6227">
        <ele>270.6</ele>
        <time>2020-10-24T08:58:38Z</time>
      </trkpt>
      <trkpt lat="46.1143" lon="4.6227">
        <ele>270.6</ele>
        <time>2020-10-24T08:58:39Z</time>
      </trkpt>
      <trkpt lat="46.11428" lon="4.62265">
        <ele>270.8</ele>
        <time>2020-10-24T08:58:40Z</time>
      </trkpt>
      <trkpt lat="46.11428" lon="4.62265">
        <ele>271</ele>
        <time>2020-10-24T08:58:41Z</time>
      </trkpt>
      <trkpt lat="46.11427" lon="4.62261">
        <ele>271.2</ele>
        <time>2020-10-24T08:58:42Z</time>
      </trkpt>
      <trkpt lat="46.11427" lon="4.62261">
        <ele>270.8</ele>
        <time>2020-10-24T08:58:43Z</time>
      </trkpt>
      <trkpt lat="46.11425" lon="4.62257">
        <ele>270.6</ele>
        <time>2020-10-24T08:58:44Z</time>
      </trkpt>
      <trkpt lat="46.11424" lon="4.62254">
        <ele>270.2</ele>
        <time>2020-10-24T08:58:45Z</time>
      </trkpt>
      <trkpt lat="46.11423" lon="4.62252">
        <ele>270.6</ele>
        <time>2020-10-24T08:58:46Z</time>
      </trkpt>
      <trkpt lat="46.11423" lon="4.62249">
        <ele>271</ele>
        <time>2020-10-24T08:58:47Z</time>
      </trkpt>
      <trkpt lat="46.11423" lon="4.62249">
        <ele>271.2</ele>
        <time>2020-10-24T08:58:48Z</time>
      </trkpt>
      <trkpt lat="46.11421" lon="4.62245">
        <ele>271</ele>
        <time>2020-10-24T08:58:49Z</time>
      </trkpt>
      <trkpt lat="46.11421" lon="4.62245">
        <ele>270.8</ele>
        <time>2020-10-24T08:58:50Z</time>
      </trkpt>
      <trkpt lat="46.11421" lon="4.62245">
        <ele>270.8</ele>
        <time>2020-10-24T08:58:51Z</time>
      </trkpt>
      <trkpt lat="46.11419" lon="4.62239">
        <ele>270.6</ele>
        <time>2020-10-24T08:58:52Z</time>
      </trkpt>
      <trkpt lat="46.11418" lon="4.62236">
        <ele>270.4</ele>
        <time>2020-10-24T08:58:53Z</time>
      </trkpt>
      <trkpt lat="46.11418" lon="4.62236">
        <ele>270.4</ele>
        <time>2020-10-24T08:58:54Z</time>
      </trkpt>
      <trkpt lat="46.11417" lon="4.62232">
        <ele>270</ele>
        <time>2020-10-24T08:58:55Z</time>
      </trkpt>
      <trkpt lat="46.11417" lon="4.62232">
        <ele>270</ele>
        <time>2020-10-24T08:58:56Z</time>
      </trkpt>
      <trkpt lat="46.11416" lon="4.62228">
        <ele>270</ele>
        <time>2020-10-24T08:58:57Z</time>
      </trkpt>
      <trkpt lat="46.11416" lon="4.62228">
        <ele>269.8</ele>
        <time>2020-10-24T08:58:58Z</time>
      </trkpt>
      <trkpt lat="46.11414" lon="4.62224">
        <ele>269.8</ele>
        <time>2020-10-24T08:58:59Z</time>
      </trkpt>
      <trkpt lat="46.11414" lon="4.62224">
        <ele>269.8</ele>
        <time>2020-10-24T08:59:00Z</time>
      </trkpt>
      <trkpt lat="46.11413" lon="4.6222">
        <ele>269.6</ele>
        <time>2020-10-24T08:59:01Z</time>
      </trkpt>
      <trkpt lat="46.11412" lon="4.62218">
        <ele>269.4</ele>
        <time>2020-10-24T08:59:02Z</time>
      </trkpt>
      <trkpt lat="46.11411" lon="4.62215">
        <ele>269.4</ele>
        <time>2020-10-24T08:59:03Z</time>
      </trkpt>
      <trkpt lat="46.11411" lon="4.62215">
        <ele>269.6</ele>
        <time>2020-10-24T08:59:04Z</time>
      </trkpt>
      <trkpt lat="46.1141" lon="4.62211">
        <ele>269.4</ele>
        <time>2020-10-24T08:59:05Z</time>
      </trkpt>
      <trkpt lat="46.1141" lon="4.62211">
        <ele>269.4</ele>
        <time>2020-10-24T08:59:06Z</time>
      </trkpt>
      <trkpt lat="46.11408" lon="4.62207">
        <ele>269.2</ele>
        <time>2020-10-24T08:59:07Z</time>
      </trkpt>
      <trkpt lat="46.11408" lon="4.62207">
        <ele>269.2</ele>
        <time>2020-10-24T08:59:08Z</time>
      </trkpt>
      <trkpt lat="46.11407" lon="4.62203">
        <ele>269.2</ele>
        <time>2020-10-24T08:59:09Z</time>
      </trkpt>
      <trkpt lat="46.11407" lon="4.62203">
        <ele>268.8</ele>
        <time>2020-10-24T08:59:10Z</time>
      </trkpt>
      <trkpt lat="46.11405" lon="4.62199">
        <ele>268.6</ele>
        <time>2020-10-24T08:59:11Z</time>
      </trkpt>
      <trkpt lat="46.11405" lon="4.62199">
        <ele>268.2</ele>
        <time>2020-10-24T08:59:12Z</time>
      </trkpt>
      <trkpt lat="46.11404" lon="4.62195">
        <ele>268.2</ele>
        <time>2020-10-24T08:59:13Z</time>
      </trkpt>
      <trkpt lat="46.11404" lon="4.62195">
        <ele>268.2</ele>
        <time>2020-10-24T08:59:14Z</time>
      </trkpt>
      <trkpt lat="46.11402" lon="4.62192">
        <ele>268.2</ele>
        <time>2020-10-24T08:59:15Z</time>
      </trkpt>
      <trkpt lat="46.11402" lon="4.62192">
        <ele>268</ele>
        <time>2020-10-24T08:59:16Z</time>
      </trkpt>
      <trkpt lat="46.114" lon="4.62188">
        <ele>267.8</ele>
        <time>2020-10-24T08:59:17Z</time>
      </trkpt>
      <trkpt lat="46.114" lon="4.62188">
        <ele>267.6</ele>
        <time>2020-10-24T08:59:18Z</time>
      </trkpt>
      <trkpt lat="46.11398" lon="4.62184">
        <ele>267.6</ele>
        <time>2020-10-24T08:59:19Z</time>
      </trkpt>
      <trkpt lat="46.11398" lon="4.62184">
        <ele>267.4</ele>
        <time>2020-10-24T08:59:20Z</time>
      </trkpt>
      <trkpt lat="46.11397" lon="4.62181">
        <ele>267.4</ele>
        <time>2020-10-24T08:59:21Z</time>
      </trkpt>
      <trkpt lat="46.11397" lon="4.62181">
        <ele>267.4</ele>
        <time>2020-10-24T08:59:22Z</time>
      </trkpt>
      <trkpt lat="46.11395" lon="4.62177">
        <ele>267.4</ele>
        <time>2020-10-24T08:59:23Z</time>
      </trkpt>
      <trkpt lat="46.11395" lon="4.62177">
        <ele>267.4</ele>
        <time>2020-10-24T08:59:24Z</time>
      </trkpt>
      <trkpt lat="46.11394" lon="4.62173">
        <ele>267.4</ele>
        <time>2020-10-24T08:59:25Z</time>
      </trkpt>
      <trkpt lat="46.11394" lon="4.62173">
        <ele>267.4</ele>
        <time>2020-10-24T08:59:26Z</time>
      </trkpt>
      <trkpt lat="46.11393" lon="4.62169">
        <ele>267.2</ele>
        <time>2020-10-24T08:59:27Z</time>
      </trkpt>
      <trkpt lat="46.11393" lon="4.62169">
        <ele>267.2</ele>
        <time>2020-10-24T08:59:28Z</time>
      </trkpt>
      <trkpt lat="46.11391" lon="4.62166">
        <ele>267.2</ele>
        <time>2020-10-24T08:59:29Z</time>
      </trkpt>
      <trkpt lat="46.11391" lon="4.62166">
        <ele>267.2</ele>
        <time>2020-10-24T08:59:30Z</time>
      </trkpt>
      <trkpt lat="46.1139" lon="4.62162">
        <ele>267.2</ele>
        <time>2020-10-24T08:59:31Z</time>
      </trkpt>
      <trkpt lat="46.1139" lon="4.62162">
        <ele>267.2</ele>
        <time>2020-10-24T08:59:32Z</time>
      </trkpt>
      <trkpt lat="46.11388" lon="4.62158">
        <ele>267</ele>
        <time>2020-10-24T08:59:33Z</time>
      </trkpt>
      <trkpt lat="46.11388" lon="4.62158">
        <ele>266.8</ele>
        <time>2020-10-24T08:59:34Z</time>
      </trkpt>
      <trkpt lat="46.11387" lon="4.62155">
        <ele>267</ele>
        <time>2020-10-24T08:59:35Z</time>
      </trkpt>
      <trkpt lat="46.11387" lon="4.62155">
        <ele>266.8</ele>
        <time>2020-10-24T08:59:36Z</time>
      </trkpt>
      <trkpt lat="46.11385" lon="4.62151">
        <ele>266.8</ele>
        <time>2020-10-24T08:59:37Z</time>
      </trkpt>
      <trkpt lat="46.11385" lon="4.62151">
        <ele>266.8</ele>
        <time>2020-10-24T08:59:38Z</time>
      </trkpt>
      <trkpt lat="46.11384" lon="4.62146">
        <ele>266.8</ele>
        <time>2020-10-24T08:59:39Z</time>
      </trkpt>
      <trkpt lat="46.11384" lon="4.62146">
        <ele>266.8</ele>
        <time>2020-10-24T08:59:40Z</time>
      </trkpt>
      <trkpt lat="46.11382" lon="4.62143">
        <ele>266.8</ele>
        <time>2020-10-24T08:59:41Z</time>
      </trkpt>
      <trkpt lat="46.11382" lon="4.62143">
        <ele>266.8</ele>
        <time>2020-10-24T08:59:42Z</time>
      </trkpt>
      <trkpt lat="46.11381" lon="4.62139">
        <ele>267.2</ele>
        <time>2020-10-24T08:59:43Z</time>
      </trkpt>
      <trkpt lat="46.1138" lon="4.62136">
        <ele>267.2</ele>
        <time>2020-10-24T08:59:44Z</time>
      </trkpt>
      <trkpt lat="46.11379" lon="4.62134">
        <ele>267.4</ele>
        <time>2020-10-24T08:59:45Z</time>
      </trkpt>
      <trkpt lat="46.11379" lon="4.62131">
        <ele>267.4</ele>
        <time>2020-10-24T08:59:46Z</time>
      </trkpt>
      <trkpt lat="46.11378" lon="4.62128">
        <ele>267.4</ele>
        <time>2020-10-24T08:59:47Z</time>
      </trkpt>
      <trkpt lat="46.11378" lon="4.62128">
        <ele>267.6</ele>
        <time>2020-10-24T08:59:48Z</time>
      </trkpt>
      <trkpt lat="46.11377" lon="4.62124">
        <ele>267.4</ele>
        <time>2020-10-24T08:59:49Z</time>
      </trkpt>
      <trkpt lat="46.11376" lon="4.62122">
        <ele>267.4</ele>
        <time>2020-10-24T08:59:50Z</time>
      </trkpt>
      <trkpt lat="46.11375" lon="4.62119">
        <ele>267.2</ele>
        <time>2020-10-24T08:59:51Z</time>
      </trkpt>
      <trkpt lat="46.11375" lon="4.62117">
        <ele>267.4</ele>
        <time>2020-10-24T08:59:52Z</time>
      </trkpt>
      <trkpt lat="46.11375" lon="4.62117">
        <ele>267.4</ele>
        <time>2020-10-24T08:59:53Z</time>
      </trkpt>
      <trkpt lat="46.11374" lon="4.62112">
        <ele>267.4</ele>
        <time>2020-10-24T08:59:54Z</time>
      </trkpt>
      <trkpt lat="46.11373" lon="4.6211">
        <ele>267.4</ele>
        <time>2020-10-24T08:59:55Z</time>
      </trkpt>
      <trkpt lat="46.11373" lon="4.6211">
        <ele>267.6</ele>
        <time>2020-10-24T08:59:56Z</time>
      </trkpt>
      <trkpt lat="46.11372" lon="4.62105">
        <ele>267.4</ele>
        <time>2020-10-24T08:59:57Z</time>
      </trkpt>
      <trkpt lat="46.11372" lon="4.62105">
        <ele>267.4</ele>
        <time>2020-10-24T08:59:58Z</time>
      </trkpt>
      <trkpt lat="46.11371" lon="4.621">
        <ele>267.6</ele>
        <time>2020-10-24T08:59:59Z</time>
      </trkpt>
      <trkpt lat="46.11371" lon="4.621">
        <ele>268</ele>
        <time>2020-10-24T09:00:01Z</time>
      </trkpt>
      <trkpt lat="46.11369" lon="4.62094">
        <ele>268.2</ele>
        <time>2020-10-24T09:00:02Z</time>
      </trkpt>
      <trkpt lat="46.11369" lon="4.62092">
        <ele>268.2</ele>
        <time>2020-10-24T09:00:03Z</time>
      </trkpt>
      <trkpt lat="46.11369" lon="4.62092">
        <ele>268.4</ele>
        <time>2020-10-24T09:00:04Z</time>
      </trkpt>
      <trkpt lat="46.11368" lon="4.62088">
        <ele>268.2</ele>
        <time>2020-10-24T09:00:05Z</time>
      </trkpt>
      <trkpt lat="46.11368" lon="4.62085">
        <ele>268.4</ele>
        <time>2020-10-24T09:00:06Z</time>
      </trkpt>
      <trkpt lat="46.11368" lon="4.62081">
        <ele>268.4</ele>
        <time>2020-10-24T09:00:07Z</time>
      </trkpt>
      <trkpt lat="46.11368" lon="4.62081">
        <ele>268.4</ele>
        <time>2020-10-24T09:00:08Z</time>
      </trkpt>
      <trkpt lat="46.11367" lon="4.62076">
        <ele>268.2</ele>
        <time>2020-10-24T09:00:09Z</time>
      </trkpt>
      <trkpt lat="46.11367" lon="4.62076">
        <ele>268.2</ele>
        <time>2020-10-24T09:00:10Z</time>
      </trkpt>
      <trkpt lat="46.11366" lon="4.62072">
        <ele>268.2</ele>
        <time>2020-10-24T09:00:11Z</time>
      </trkpt>
      <trkpt lat="46.11366" lon="4.62072">
        <ele>268.2</ele>
        <time>2020-10-24T09:00:12Z</time>
      </trkpt>
      <trkpt lat="46.11365" lon="4.62068">
        <ele>268.2</ele>
        <time>2020-10-24T09:00:13Z</time>
      </trkpt>
      <trkpt lat="46.11364" lon="4.62065">
        <ele>268.2</ele>
        <time>2020-10-24T09:00:14Z</time>
      </trkpt>
      <trkpt lat="46.11364" lon="4.62065">
        <ele>268.2</ele>
        <time>2020-10-24T09:00:15Z</time>
      </trkpt>
      <trkpt lat="46.11363" lon="4.62061">
        <ele>268.2</ele>
        <time>2020-10-24T09:00:16Z</time>
      </trkpt>
      <trkpt lat="46.11363" lon="4.62058">
        <ele>268.2</ele>
        <time>2020-10-24T09:00:17Z</time>
      </trkpt>
      <trkpt lat="46.11363" lon="4.62058">
        <ele>268.2</ele>
        <time>2020-10-24T09:00:18Z</time>
      </trkpt>
      <trkpt lat="46.11362" lon="4.62054">
        <ele>268</ele>
        <time>2020-10-24T09:00:19Z</time>
      </trkpt>
      <trkpt lat="46.11362" lon="4.62054">
        <ele>268</ele>
        <time>2020-10-24T09:00:20Z</time>
      </trkpt>
      <trkpt lat="46.11361" lon="4.6205">
        <ele>268.2</ele>
        <time>2020-10-24T09:00:21Z</time>
      </trkpt>
      <trkpt lat="46.11361" lon="4.6205">
        <ele>268</ele>
        <time>2020-10-24T09:00:22Z</time>
      </trkpt>
      <trkpt lat="46.1136" lon="4.62047">
        <ele>268.2</ele>
        <time>2020-10-24T09:00:23Z</time>
      </trkpt>
      <trkpt lat="46.1136" lon="4.62047">
        <ele>268.2</ele>
        <time>2020-10-24T09:00:24Z</time>
      </trkpt>
      <trkpt lat="46.1136" lon="4.62047">
        <ele>268.2</ele>
        <time>2020-10-24T09:00:25Z</time>
      </trkpt>
      <trkpt lat="46.11358" lon="4.62042">
        <ele>268.2</ele>
        <time>2020-10-24T09:00:26Z</time>
      </trkpt>
      <trkpt lat="46.11358" lon="4.6204">
        <ele>268.2</ele>
        <time>2020-10-24T09:00:27Z</time>
      </trkpt>
      <trkpt lat="46.11358" lon="4.6204">
        <ele>268.4</ele>
        <time>2020-10-24T09:00:28Z</time>
      </trkpt>
      <trkpt lat="46.11358" lon="4.6204">
        <ele>268.4</ele>
        <time>2020-10-24T09:00:29Z</time>
      </trkpt>
      <trkpt lat="46.11358" lon="4.62034">
        <ele>268.4</ele>
        <time>2020-10-24T09:00:30Z</time>
      </trkpt>
      <trkpt lat="46.11357" lon="4.62031">
        <ele>268.4</ele>
        <time>2020-10-24T09:00:31Z</time>
      </trkpt>
      <trkpt lat="46.11357" lon="4.62031">
        <ele>268.4</ele>
        <time>2020-10-24T09:00:32Z</time>
      </trkpt>
      <trkpt lat="46.11356" lon="4.62028">
        <ele>268.4</ele>
        <time>2020-10-24T09:00:33Z</time>
      </trkpt>
      <trkpt lat="46.11356" lon="4.62028">
        <ele>268.6</ele>
        <time>2020-10-24T09:00:34Z</time>
      </trkpt>
      <trkpt lat="46.11356" lon="4.62023">
        <ele>268.8</ele>
        <time>2020-10-24T09:00:35Z</time>
      </trkpt>
      <trkpt lat="46.11356" lon="4.62021">
        <ele>269</ele>
        <time>2020-10-24T09:00:36Z</time>
      </trkpt>
      <trkpt lat="46.11357" lon="4.62019">
        <ele>269.2</ele>
        <time>2020-10-24T09:00:37Z</time>
      </trkpt>
      <trkpt lat="46.11358" lon="4.62017">
        <ele>269.2</ele>
        <time>2020-10-24T09:00:38Z</time>
      </trkpt>
      <trkpt lat="46.11359" lon="4.62015">
        <ele>269.4</ele>
        <time>2020-10-24T09:00:39Z</time>
      </trkpt>
      <trkpt lat="46.11359" lon="4.62015">
        <ele>269.4</ele>
        <time>2020-10-24T09:00:40Z</time>
      </trkpt>
      <trkpt lat="46.11359" lon="4.62015">
        <ele>269.6</ele>
        <time>2020-10-24T09:00:41Z</time>
      </trkpt>
      <trkpt lat="46.11362" lon="4.6201">
        <ele>269.6</ele>
        <time>2020-10-24T09:00:42Z</time>
      </trkpt>
      <trkpt lat="46.11363" lon="4.62008">
        <ele>269.8</ele>
        <time>2020-10-24T09:00:43Z</time>
      </trkpt>
      <trkpt lat="46.11363" lon="4.62008">
        <ele>269.8</ele>
        <time>2020-10-24T09:00:44Z</time>
      </trkpt>
      <trkpt lat="46.11365" lon="4.62006">
        <ele>270</ele>
        <time>2020-10-24T09:00:45Z</time>
      </trkpt>
      <trkpt lat="46.11365" lon="4.62006">
        <ele>270.2</ele>
        <time>2020-10-24T09:00:46Z</time>
      </trkpt>
      <trkpt lat="46.11368" lon="4.62004">
        <ele>270.4</ele>
        <time>2020-10-24T09:00:47Z</time>
      </trkpt>
      <trkpt lat="46.11368" lon="4.62004">
        <ele>270.6</ele>
        <time>2020-10-24T09:00:48Z</time>
      </trkpt>
      <trkpt lat="46.11371" lon="4.62002">
        <ele>270.8</ele>
        <time>2020-10-24T09:00:49Z</time>
      </trkpt>
      <trkpt lat="46.11371" lon="4.62002">
        <ele>271</ele>
        <time>2020-10-24T09:00:50Z</time>
      </trkpt>
      <trkpt lat="46.11374" lon="4.62001">
        <ele>271.4</ele>
        <time>2020-10-24T09:00:51Z</time>
      </trkpt>
      <trkpt lat="46.11374" lon="4.62001">
        <ele>271.8</ele>
        <time>2020-10-24T09:00:52Z</time>
      </trkpt>
      <trkpt lat="46.11376" lon="4.62001">
        <ele>272</ele>
        <time>2020-10-24T09:00:53Z</time>
      </trkpt>
      <trkpt lat="46.11376" lon="4.62001">
        <ele>272.2</ele>
        <time>2020-10-24T09:00:54Z</time>
      </trkpt>
      <trkpt lat="46.11379" lon="4.62">
        <ele>272.4</ele>
        <time>2020-10-24T09:00:55Z</time>
      </trkpt>
      <trkpt lat="46.11379" lon="4.62">
        <ele>272.6</ele>
        <time>2020-10-24T09:00:56Z</time>
      </trkpt>
      <trkpt lat="46.11379" lon="4.62">
        <ele>272.6</ele>
        <time>2020-10-24T09:00:57Z</time>
      </trkpt>
      <trkpt lat="46.11383" lon="4.62001">
        <ele>273</ele>
        <time>2020-10-24T09:00:58Z</time>
      </trkpt>
      <trkpt lat="46.11383" lon="4.62001">
        <ele>273.2</ele>
        <time>2020-10-24T09:00:59Z</time>
      </trkpt>
      <trkpt lat="46.11386" lon="4.62002">
        <ele>273.4</ele>
        <time>2020-10-24T09:01:00Z</time>
      </trkpt>
      <trkpt lat="46.11387" lon="4.62003">
        <ele>273.6</ele>
        <time>2020-10-24T09:01:01Z</time>
      </trkpt>
      <trkpt lat="46.11387" lon="4.62003">
        <ele>273.8</ele>
        <time>2020-10-24T09:01:02Z</time>
      </trkpt>
      <trkpt lat="46.11389" lon="4.62004">
        <ele>273.8</ele>
        <time>2020-10-24T09:01:03Z</time>
      </trkpt>
      <trkpt lat="46.11389" lon="4.62004">
        <ele>274</ele>
        <time>2020-10-24T09:01:04Z</time>
      </trkpt>
      <trkpt lat="46.11391" lon="4.62006">
        <ele>274.2</ele>
        <time>2020-10-24T09:01:05Z</time>
      </trkpt>
      <trkpt lat="46.11391" lon="4.62006">
        <ele>274.2</ele>
        <time>2020-10-24T09:01:06Z</time>
      </trkpt>
      <trkpt lat="46.11393" lon="4.62008">
        <ele>274.6</ele>
        <time>2020-10-24T09:01:07Z</time>
      </trkpt>
      <trkpt lat="46.11393" lon="4.62008">
        <ele>275</ele>
        <time>2020-10-24T09:01:08Z</time>
      </trkpt>
      <trkpt lat="46.11396" lon="4.6201">
        <ele>275.2</ele>
        <time>2020-10-24T09:01:09Z</time>
      </trkpt>
      <trkpt lat="46.11396" lon="4.6201">
        <ele>275.4</ele>
        <time>2020-10-24T09:01:10Z</time>
      </trkpt>
      <trkpt lat="46.11398" lon="4.62011">
        <ele>275.6</ele>
        <time>2020-10-24T09:01:11Z</time>
      </trkpt>
      <trkpt lat="46.11398" lon="4.62011">
        <ele>275.8</ele>
        <time>2020-10-24T09:01:12Z</time>
      </trkpt>
      <trkpt lat="46.114" lon="4.62011">
        <ele>276.2</ele>
        <time>2020-10-24T09:01:13Z</time>
      </trkpt>
      <trkpt lat="46.114" lon="4.62011">
        <ele>276.4</ele>
        <time>2020-10-24T09:01:14Z</time>
      </trkpt>
      <trkpt lat="46.11403" lon="4.62012">
        <ele>276.6</ele>
        <time>2020-10-24T09:01:15Z</time>
      </trkpt>
      <trkpt lat="46.11403" lon="4.62012">
        <ele>276.8</ele>
        <time>2020-10-24T09:01:16Z</time>
      </trkpt>
      <trkpt lat="46.11406" lon="4.62012">
        <ele>276.8</ele>
        <time>2020-10-24T09:01:17Z</time>
      </trkpt>
      <trkpt lat="46.11406" lon="4.62012">
        <ele>277.2</ele>
        <time>2020-10-24T09:01:18Z</time>
      </trkpt>
      <trkpt lat="46.11408" lon="4.62011">
        <ele>277.4</ele>
        <time>2020-10-24T09:01:19Z</time>
      </trkpt>
      <trkpt lat="46.11408" lon="4.62011">
        <ele>277.8</ele>
        <time>2020-10-24T09:01:20Z</time>
      </trkpt>
      <trkpt lat="46.11408" lon="4.62011">
        <ele>278</ele>
        <time>2020-10-24T09:01:21Z</time>
      </trkpt>
      <trkpt lat="46.11411" lon="4.62009">
        <ele>278.2</ele>
        <time>2020-10-24T09:01:22Z</time>
      </trkpt>
      <trkpt lat="46.11413" lon="4.62008">
        <ele>278.4</ele>
        <time>2020-10-24T09:01:23Z</time>
      </trkpt>
      <trkpt lat="46.11413" lon="4.62008">
        <ele>278.6</ele>
        <time>2020-10-24T09:01:24Z</time>
      </trkpt>
      <trkpt lat="46.11415" lon="4.62006">
        <ele>278.8</ele>
        <time>2020-10-24T09:01:25Z</time>
      </trkpt>
      <trkpt lat="46.11415" lon="4.62006">
        <ele>279</ele>
        <time>2020-10-24T09:01:26Z</time>
      </trkpt>
      <trkpt lat="46.11417" lon="4.62005">
        <ele>279.2</ele>
        <time>2020-10-24T09:01:27Z</time>
      </trkpt>
      <trkpt lat="46.11417" lon="4.62005">
        <ele>279.4</ele>
        <time>2020-10-24T09:01:28Z</time>
      </trkpt>
      <trkpt lat="46.11419" lon="4.62004">
        <ele>279.6</ele>
        <time>2020-10-24T09:01:29Z</time>
      </trkpt>
      <trkpt lat="46.11419" lon="4.62004">
        <ele>280</ele>
        <time>2020-10-24T09:01:30Z</time>
      </trkpt>
      <trkpt lat="46.11419" lon="4.62004">
        <ele>280.4</ele>
        <time>2020-10-24T09:01:31Z</time>
      </trkpt>
      <trkpt lat="46.11423" lon="4.62001">
        <ele>280.4</ele>
        <time>2020-10-24T09:01:32Z</time>
      </trkpt>
      <trkpt lat="46.11425" lon="4.61999">
        <ele>280.6</ele>
        <time>2020-10-24T09:01:33Z</time>
      </trkpt>
      <trkpt lat="46.11425" lon="4.61999">
        <ele>280.6</ele>
        <time>2020-10-24T09:01:34Z</time>
      </trkpt>
      <trkpt lat="46.11427" lon="4.61997">
        <ele>280.8</ele>
        <time>2020-10-24T09:01:35Z</time>
      </trkpt>
      <trkpt lat="46.11427" lon="4.61997">
        <ele>281</ele>
        <time>2020-10-24T09:01:36Z</time>
      </trkpt>
      <trkpt lat="46.11427" lon="4.61997">
        <ele>281.2</ele>
        <time>2020-10-24T09:01:37Z</time>
      </trkpt>
      <trkpt lat="46.1143" lon="4.61993">
        <ele>281.4</ele>
        <time>2020-10-24T09:01:38Z</time>
      </trkpt>
      <trkpt lat="46.1143" lon="4.61993">
        <ele>281.4</ele>
        <time>2020-10-24T09:01:39Z</time>
      </trkpt>
      <trkpt lat="46.11433" lon="4.61991">
        <ele>281.8</ele>
        <time>2020-10-24T09:01:40Z</time>
      </trkpt>
      <trkpt lat="46.11434" lon="4.6199">
        <ele>282</ele>
        <time>2020-10-24T09:01:41Z</time>
      </trkpt>
      <trkpt lat="46.11434" lon="4.6199">
        <ele>282.2</ele>
        <time>2020-10-24T09:01:42Z</time>
      </trkpt>
      <trkpt lat="46.11436" lon="4.61987">
        <ele>282.6</ele>
        <time>2020-10-24T09:01:43Z</time>
      </trkpt>
      <trkpt lat="46.11436" lon="4.61987">
        <ele>282.8</ele>
        <time>2020-10-24T09:01:44Z</time>
      </trkpt>
      <trkpt lat="46.11436" lon="4.61987">
        <ele>283</ele>
        <time>2020-10-24T09:01:45Z</time>
      </trkpt>
      <trkpt lat="46.1144" lon="4.61984">
        <ele>283.4</ele>
        <time>2020-10-24T09:01:46Z</time>
      </trkpt>
      <trkpt lat="46.11441" lon="4.61983">
        <ele>283.6</ele>
        <time>2020-10-24T09:01:47Z</time>
      </trkpt>
      <trkpt lat="46.11441" lon="4.61983">
        <ele>283.6</ele>
        <time>2020-10-24T09:01:48Z</time>
      </trkpt>
      <trkpt lat="46.11443" lon="4.6198">
        <ele>283.8</ele>
        <time>2020-10-24T09:01:49Z</time>
      </trkpt>
      <trkpt lat="46.11443" lon="4.6198">
        <ele>284.2</ele>
        <time>2020-10-24T09:01:50Z</time>
      </trkpt>
      <trkpt lat="46.11446" lon="4.61977">
        <ele>284.4</ele>
        <time>2020-10-24T09:01:51Z</time>
      </trkpt>
      <trkpt lat="46.11446" lon="4.61977">
        <ele>284.6</ele>
        <time>2020-10-24T09:01:52Z</time>
      </trkpt>
      <trkpt lat="46.11448" lon="4.61975">
        <ele>284.8</ele>
        <time>2020-10-24T09:01:53Z</time>
      </trkpt>
      <trkpt lat="46.11448" lon="4.61975">
        <ele>285</ele>
        <time>2020-10-24T09:01:54Z</time>
      </trkpt>
      <trkpt lat="46.11451" lon="4.61973">
        <ele>285.2</ele>
        <time>2020-10-24T09:01:55Z</time>
      </trkpt>
      <trkpt lat="46.11451" lon="4.61973">
        <ele>285.4</ele>
        <time>2020-10-24T09:01:56Z</time>
      </trkpt>
      <trkpt lat="46.11453" lon="4.61971">
        <ele>285.4</ele>
        <time>2020-10-24T09:01:57Z</time>
      </trkpt>
      <trkpt lat="46.11453" lon="4.61971">
        <ele>285.4</ele>
        <time>2020-10-24T09:01:58Z</time>
      </trkpt>
      <trkpt lat="46.11455" lon="4.61968">
        <ele>285.4</ele>
        <time>2020-10-24T09:01:59Z</time>
      </trkpt>
      <trkpt lat="46.11455" lon="4.61968">
        <ele>285.2</ele>
        <time>2020-10-24T09:02:00Z</time>
      </trkpt>
      <trkpt lat="46.11458" lon="4.61965">
        <ele>285.2</ele>
        <time>2020-10-24T09:02:01Z</time>
      </trkpt>
      <trkpt lat="46.11458" lon="4.61965">
        <ele>285.2</ele>
        <time>2020-10-24T09:02:02Z</time>
      </trkpt>
      <trkpt lat="46.1146" lon="4.61963">
        <ele>285.4</ele>
        <time>2020-10-24T09:02:03Z</time>
      </trkpt>
      <trkpt lat="46.1146" lon="4.61963">
        <ele>285.6</ele>
        <time>2020-10-24T09:02:04Z</time>
      </trkpt>
      <trkpt lat="46.11462" lon="4.61961">
        <ele>285.6</ele>
        <time>2020-10-24T09:02:05Z</time>
      </trkpt>
      <trkpt lat="46.11462" lon="4.61961">
        <ele>285.8</ele>
        <time>2020-10-24T09:02:06Z</time>
      </trkpt>
      <trkpt lat="46.11465" lon="4.61959">
        <ele>285.8</ele>
        <time>2020-10-24T09:02:07Z</time>
      </trkpt>
      <trkpt lat="46.11465" lon="4.61959">
        <ele>286</ele>
        <time>2020-10-24T09:02:08Z</time>
      </trkpt>
      <trkpt lat="46.11468" lon="4.61956">
        <ele>285.8</ele>
        <time>2020-10-24T09:02:09Z</time>
      </trkpt>
      <trkpt lat="46.11468" lon="4.61956">
        <ele>286</ele>
        <time>2020-10-24T09:02:10Z</time>
      </trkpt>
      <trkpt lat="46.11468" lon="4.61956">
        <ele>286</ele>
        <time>2020-10-24T09:02:11Z</time>
      </trkpt>
      <trkpt lat="46.11472" lon="4.61953">
        <ele>286</ele>
        <time>2020-10-24T09:02:12Z</time>
      </trkpt>
      <trkpt lat="46.11473" lon="4.61952">
        <ele>286</ele>
        <time>2020-10-24T09:02:13Z</time>
      </trkpt>
      <trkpt lat="46.11473" lon="4.61952">
        <ele>286</ele>
        <time>2020-10-24T09:02:14Z</time>
      </trkpt>
      <trkpt lat="46.11475" lon="4.61949">
        <ele>286.2</ele>
        <time>2020-10-24T09:02:15Z</time>
      </trkpt>
      <trkpt lat="46.11475" lon="4.61949">
        <ele>286.2</ele>
        <time>2020-10-24T09:02:16Z</time>
      </trkpt>
      <trkpt lat="46.11478" lon="4.61946">
        <ele>286.2</ele>
        <time>2020-10-24T09:02:17Z</time>
      </trkpt>
      <trkpt lat="46.11478" lon="4.61946">
        <ele>286.4</ele>
        <time>2020-10-24T09:02:18Z</time>
      </trkpt>
      <trkpt lat="46.1148" lon="4.61944">
        <ele>286.6</ele>
        <time>2020-10-24T09:02:19Z</time>
      </trkpt>
      <trkpt lat="46.1148" lon="4.61944">
        <ele>286.6</ele>
        <time>2020-10-24T09:02:20Z</time>
      </trkpt>
      <trkpt lat="46.11483" lon="4.61942">
        <ele>286.8</ele>
        <time>2020-10-24T09:02:21Z</time>
      </trkpt>
      <trkpt lat="46.11483" lon="4.61942">
        <ele>287</ele>
        <time>2020-10-24T09:02:22Z</time>
      </trkpt>
      <trkpt lat="46.11485" lon="4.61939">
        <ele>287.2</ele>
        <time>2020-10-24T09:02:23Z</time>
      </trkpt>
      <trkpt lat="46.11485" lon="4.61939">
        <ele>287.4</ele>
        <time>2020-10-24T09:02:24Z</time>
      </trkpt>
      <trkpt lat="46.11488" lon="4.61937">
        <ele>287.6</ele>
        <time>2020-10-24T09:02:25Z</time>
      </trkpt>
      <trkpt lat="46.11488" lon="4.61937">
        <ele>287.4</ele>
        <time>2020-10-24T09:02:26Z</time>
      </trkpt>
      <trkpt lat="46.1149" lon="4.61934">
        <ele>287.6</ele>
        <time>2020-10-24T09:02:27Z</time>
      </trkpt>
      <trkpt lat="46.1149" lon="4.61934">
        <ele>287.8</ele>
        <time>2020-10-24T09:02:28Z</time>
      </trkpt>
      <trkpt lat="46.11493" lon="4.61932">
        <ele>288</ele>
        <time>2020-10-24T09:02:29Z</time>
      </trkpt>
      <trkpt lat="46.11493" lon="4.61932">
        <ele>287.8</ele>
        <time>2020-10-24T09:02:30Z</time>
      </trkpt>
      <trkpt lat="46.11495" lon="4.61929">
        <ele>288</ele>
        <time>2020-10-24T09:02:31Z</time>
      </trkpt>
      <trkpt lat="46.11495" lon="4.61929">
        <ele>288</ele>
        <time>2020-10-24T09:02:32Z</time>
      </trkpt>
      <trkpt lat="46.11498" lon="4.61927">
        <ele>288</ele>
        <time>2020-10-24T09:02:33Z</time>
      </trkpt>
      <trkpt lat="46.11498" lon="4.61927">
        <ele>288</ele>
        <time>2020-10-24T09:02:34Z</time>
      </trkpt>
      <trkpt lat="46.115" lon="4.61925">
        <ele>288.2</ele>
        <time>2020-10-24T09:02:35Z</time>
      </trkpt>
      <trkpt lat="46.115" lon="4.61925">
        <ele>288.4</ele>
        <time>2020-10-24T09:02:36Z</time>
      </trkpt>
      <trkpt lat="46.11502" lon="4.61922">
        <ele>288.4</ele>
        <time>2020-10-24T09:02:37Z</time>
      </trkpt>
      <trkpt lat="46.11502" lon="4.61922">
        <ele>288.6</ele>
        <time>2020-10-24T09:02:38Z</time>
      </trkpt>
      <trkpt lat="46.11505" lon="4.61919">
        <ele>288.6</ele>
        <time>2020-10-24T09:02:39Z</time>
      </trkpt>
      <trkpt lat="46.11505" lon="4.61919">
        <ele>288.8</ele>
        <time>2020-10-24T09:02:40Z</time>
      </trkpt>
      <trkpt lat="46.11507" lon="4.61917">
        <ele>289</ele>
        <time>2020-10-24T09:02:41Z</time>
      </trkpt>
      <trkpt lat="46.11507" lon="4.61917">
        <ele>289</ele>
        <time>2020-10-24T09:02:42Z</time>
      </trkpt>
      <trkpt lat="46.11509" lon="4.61914">
        <ele>289</ele>
        <time>2020-10-24T09:02:43Z</time>
      </trkpt>
      <trkpt lat="46.11509" lon="4.61914">
        <ele>289.2</ele>
        <time>2020-10-24T09:02:44Z</time>
      </trkpt>
      <trkpt lat="46.11512" lon="4.61912">
        <ele>289.4</ele>
        <time>2020-10-24T09:02:45Z</time>
      </trkpt>
      <trkpt lat="46.11512" lon="4.61912">
        <ele>289.6</ele>
        <time>2020-10-24T09:02:46Z</time>
      </trkpt>
      <trkpt lat="46.11515" lon="4.61909">
        <ele>289.8</ele>
        <time>2020-10-24T09:02:47Z</time>
      </trkpt>
      <trkpt lat="46.11515" lon="4.61909">
        <ele>289.8</ele>
        <time>2020-10-24T09:02:48Z</time>
      </trkpt>
      <trkpt lat="46.11515" lon="4.61909">
        <ele>290</ele>
        <time>2020-10-24T09:02:49Z</time>
      </trkpt>
      <trkpt lat="46.11515" lon="4.61909">
        <ele>290.2</ele>
        <time>2020-10-24T09:02:50Z</time>
      </trkpt>
      <trkpt lat="46.11518" lon="4.61907">
        <ele>290.6</ele>
        <time>2020-10-24T09:02:51Z</time>
      </trkpt>
      <trkpt lat="46.1152" lon="4.61905">
        <ele>290.8</ele>
        <time>2020-10-24T09:02:52Z</time>
      </trkpt>
      <trkpt lat="46.1152" lon="4.61905">
        <ele>290.8</ele>
        <time>2020-10-24T09:02:53Z</time>
      </trkpt>
      <trkpt lat="46.11523" lon="4.61903">
        <ele>290.8</ele>
        <time>2020-10-24T09:02:54Z</time>
      </trkpt>
      <trkpt lat="46.11523" lon="4.61903">
        <ele>291</ele>
        <time>2020-10-24T09:02:55Z</time>
      </trkpt>
      <trkpt lat="46.11526" lon="4.619">
        <ele>291</ele>
        <time>2020-10-24T09:02:56Z</time>
      </trkpt>
      <trkpt lat="46.11526" lon="4.619">
        <ele>291</ele>
        <time>2020-10-24T09:02:57Z</time>
      </trkpt>
      <trkpt lat="46.11528" lon="4.61897">
        <ele>290.8</ele>
        <time>2020-10-24T09:02:58Z</time>
      </trkpt>
      <trkpt lat="46.1153" lon="4.61896">
        <ele>291</ele>
        <time>2020-10-24T09:02:59Z</time>
      </trkpt>
      <trkpt lat="46.11532" lon="4.61895">
        <ele>290.8</ele>
        <time>2020-10-24T09:03:00Z</time>
      </trkpt>
      <trkpt lat="46.11532" lon="4.61895">
        <ele>290.8</ele>
        <time>2020-10-24T09:03:01Z</time>
      </trkpt>
      <trkpt lat="46.11535" lon="4.61892">
        <ele>290.8</ele>
        <time>2020-10-24T09:03:02Z</time>
      </trkpt>
      <trkpt lat="46.11535" lon="4.61892">
        <ele>290.8</ele>
        <time>2020-10-24T09:03:03Z</time>
      </trkpt>
      <trkpt lat="46.11538" lon="4.6189">
        <ele>291</ele>
        <time>2020-10-24T09:03:04Z</time>
      </trkpt>
      <trkpt lat="46.11539" lon="4.61888">
        <ele>291</ele>
        <time>2020-10-24T09:03:05Z</time>
      </trkpt>
      <trkpt lat="46.11541" lon="4.61887">
        <ele>291</ele>
        <time>2020-10-24T09:03:06Z</time>
      </trkpt>
      <trkpt lat="46.11541" lon="4.61887">
        <ele>291</ele>
        <time>2020-10-24T09:03:07Z</time>
      </trkpt>
      <trkpt lat="46.11544" lon="4.61884">
        <ele>291.2</ele>
        <time>2020-10-24T09:03:08Z</time>
      </trkpt>
      <trkpt lat="46.11544" lon="4.61884">
        <ele>291.2</ele>
        <time>2020-10-24T09:03:09Z</time>
      </trkpt>
      <trkpt lat="46.11547" lon="4.61881">
        <ele>291.2</ele>
        <time>2020-10-24T09:03:10Z</time>
      </trkpt>
      <trkpt lat="46.11547" lon="4.61881">
        <ele>291.2</ele>
        <time>2020-10-24T09:03:11Z</time>
      </trkpt>
      <trkpt lat="46.11549" lon="4.61878">
        <ele>291.4</ele>
        <time>2020-10-24T09:03:12Z</time>
      </trkpt>
      <trkpt lat="46.11549" lon="4.61878">
        <ele>291.4</ele>
        <time>2020-10-24T09:03:13Z</time>
      </trkpt>
      <trkpt lat="46.11552" lon="4.61876">
        <ele>291.4</ele>
        <time>2020-10-24T09:03:14Z</time>
      </trkpt>
      <trkpt lat="46.11552" lon="4.61876">
        <ele>291.4</ele>
        <time>2020-10-24T09:03:15Z</time>
      </trkpt>
      <trkpt lat="46.11555" lon="4.61873">
        <ele>291.4</ele>
        <time>2020-10-24T09:03:16Z</time>
      </trkpt>
      <trkpt lat="46.11555" lon="4.61873">
        <ele>291.4</ele>
        <time>2020-10-24T09:03:17Z</time>
      </trkpt>
      <trkpt lat="46.11557" lon="4.61871">
        <ele>291.4</ele>
        <time>2020-10-24T09:03:18Z</time>
      </trkpt>
      <trkpt lat="46.11557" lon="4.61871">
        <ele>291.4</ele>
        <time>2020-10-24T09:03:19Z</time>
      </trkpt>
      <trkpt lat="46.1156" lon="4.61868">
        <ele>291.4</ele>
        <time>2020-10-24T09:03:20Z</time>
      </trkpt>
      <trkpt lat="46.1156" lon="4.61868">
        <ele>291.6</ele>
        <time>2020-10-24T09:03:21Z</time>
      </trkpt>
      <trkpt lat="46.11562" lon="4.61865">
        <ele>291.6</ele>
        <time>2020-10-24T09:03:22Z</time>
      </trkpt>
      <trkpt lat="46.11562" lon="4.61865">
        <ele>291.8</ele>
        <time>2020-10-24T09:03:23Z</time>
      </trkpt>
      <trkpt lat="46.11564" lon="4.61862">
        <ele>291.8</ele>
        <time>2020-10-24T09:03:24Z</time>
      </trkpt>
      <trkpt lat="46.11564" lon="4.61862">
        <ele>291.8</ele>
        <time>2020-10-24T09:03:25Z</time>
      </trkpt>
      <trkpt lat="46.11567" lon="4.6186">
        <ele>292</ele>
        <time>2020-10-24T09:03:26Z</time>
      </trkpt>
      <trkpt lat="46.11567" lon="4.6186">
        <ele>292.2</ele>
        <time>2020-10-24T09:03:27Z</time>
      </trkpt>
      <trkpt lat="46.1157" lon="4.61858">
        <ele>292.2</ele>
        <time>2020-10-24T09:03:28Z</time>
      </trkpt>
      <trkpt lat="46.1157" lon="4.61858">
        <ele>292.2</ele>
        <time>2020-10-24T09:03:29Z</time>
      </trkpt>
      <trkpt lat="46.11573" lon="4.61855">
        <ele>292.4</ele>
        <time>2020-10-24T09:03:30Z</time>
      </trkpt>
      <trkpt lat="46.11573" lon="4.61855">
        <ele>292.4</ele>
        <time>2020-10-24T09:03:31Z</time>
      </trkpt>
      <trkpt lat="46.11575" lon="4.61853">
        <ele>292.4</ele>
        <time>2020-10-24T09:03:32Z</time>
      </trkpt>
      <trkpt lat="46.11575" lon="4.61853">
        <ele>292.4</ele>
        <time>2020-10-24T09:03:33Z</time>
      </trkpt>
      <trkpt lat="46.11578" lon="4.6185">
        <ele>292.6</ele>
        <time>2020-10-24T09:03:34Z</time>
      </trkpt>
      <trkpt lat="46.11578" lon="4.6185">
        <ele>292.6</ele>
        <time>2020-10-24T09:03:35Z</time>
      </trkpt>
      <trkpt lat="46.11581" lon="4.61848">
        <ele>292.6</ele>
        <time>2020-10-24T09:03:36Z</time>
      </trkpt>
      <trkpt lat="46.11581" lon="4.61848">
        <ele>292.8</ele>
        <time>2020-10-24T09:03:37Z</time>
      </trkpt>
      <trkpt lat="46.11584" lon="4.61845">
        <ele>293</ele>
        <time>2020-10-24T09:03:38Z</time>
      </trkpt>
      <trkpt lat="46.11585" lon="4.61844">
        <ele>293.4</ele>
        <time>2020-10-24T09:03:39Z</time>
      </trkpt>
      <trkpt lat="46.11585" lon="4.61844">
        <ele>293.8</ele>
        <time>2020-10-24T09:03:40Z</time>
      </trkpt>
      <trkpt lat="46.11588" lon="4.61841">
        <ele>293.6</ele>
        <time>2020-10-24T09:03:41Z</time>
      </trkpt>
      <trkpt lat="46.11588" lon="4.61841">
        <ele>293.8</ele>
        <time>2020-10-24T09:03:42Z</time>
      </trkpt>
      <trkpt lat="46.1159" lon="4.61838">
        <ele>293.8</ele>
        <time>2020-10-24T09:03:43Z</time>
      </trkpt>
      <trkpt lat="46.1159" lon="4.61838">
        <ele>293.8</ele>
        <time>2020-10-24T09:03:44Z</time>
      </trkpt>
      <trkpt lat="46.11593" lon="4.61836">
        <ele>294</ele>
        <time>2020-10-24T09:03:45Z</time>
      </trkpt>
      <trkpt lat="46.11593" lon="4.61836">
        <ele>294</ele>
        <time>2020-10-24T09:03:46Z</time>
      </trkpt>
      <trkpt lat="46.11595" lon="4.61834">
        <ele>294</ele>
        <time>2020-10-24T09:03:47Z</time>
      </trkpt>
      <trkpt lat="46.11595" lon="4.61834">
        <ele>294.2</ele>
        <time>2020-10-24T09:03:48Z</time>
      </trkpt>
      <trkpt lat="46.11598" lon="4.61831">
        <ele>294.2</ele>
        <time>2020-10-24T09:03:49Z</time>
      </trkpt>
      <trkpt lat="46.11598" lon="4.61831">
        <ele>294.2</ele>
        <time>2020-10-24T09:03:50Z</time>
      </trkpt>
      <trkpt lat="46.116" lon="4.61828">
        <ele>294.2</ele>
        <time>2020-10-24T09:03:51Z</time>
      </trkpt>
      <trkpt lat="46.116" lon="4.61828">
        <ele>294.2</ele>
        <time>2020-10-24T09:03:52Z</time>
      </trkpt>
      <trkpt lat="46.11603" lon="4.61826">
        <ele>294.2</ele>
        <time>2020-10-24T09:03:53Z</time>
      </trkpt>
      <trkpt lat="46.11603" lon="4.61826">
        <ele>294.4</ele>
        <time>2020-10-24T09:03:54Z</time>
      </trkpt>
      <trkpt lat="46.11606" lon="4.61823">
        <ele>294.4</ele>
        <time>2020-10-24T09:03:55Z</time>
      </trkpt>
      <trkpt lat="46.11606" lon="4.61823">
        <ele>294.6</ele>
        <time>2020-10-24T09:03:56Z</time>
      </trkpt>
      <trkpt lat="46.11608" lon="4.61821">
        <ele>294.6</ele>
        <time>2020-10-24T09:03:57Z</time>
      </trkpt>
      <trkpt lat="46.11608" lon="4.61821">
        <ele>294.8</ele>
        <time>2020-10-24T09:03:58Z</time>
      </trkpt>
      <trkpt lat="46.11611" lon="4.61819">
        <ele>294.8</ele>
        <time>2020-10-24T09:03:59Z</time>
      </trkpt>
      <trkpt lat="46.11611" lon="4.61819">
        <ele>294.8</ele>
        <time>2020-10-24T09:04:00Z</time>
      </trkpt>
      <trkpt lat="46.11614" lon="4.61817">
        <ele>295</ele>
        <time>2020-10-24T09:04:01Z</time>
      </trkpt>
      <trkpt lat="46.11614" lon="4.61817">
        <ele>295.2</ele>
        <time>2020-10-24T09:04:02Z</time>
      </trkpt>
      <trkpt lat="46.11617" lon="4.61815">
        <ele>295.4</ele>
        <time>2020-10-24T09:04:03Z</time>
      </trkpt>
      <trkpt lat="46.11617" lon="4.61815">
        <ele>295.4</ele>
        <time>2020-10-24T09:04:04Z</time>
      </trkpt>
      <trkpt lat="46.1162" lon="4.61812">
        <ele>295.4</ele>
        <time>2020-10-24T09:04:05Z</time>
      </trkpt>
      <trkpt lat="46.1162" lon="4.61812">
        <ele>295.6</ele>
        <time>2020-10-24T09:04:06Z</time>
      </trkpt>
      <trkpt lat="46.1162" lon="4.61812">
        <ele>295.6</ele>
        <time>2020-10-24T09:04:07Z</time>
      </trkpt>
      <trkpt lat="46.11624" lon="4.61809">
        <ele>295.6</ele>
        <time>2020-10-24T09:04:08Z</time>
      </trkpt>
      <trkpt lat="46.11625" lon="4.61808">
        <ele>295.8</ele>
        <time>2020-10-24T09:04:09Z</time>
      </trkpt>
      <trkpt lat="46.11625" lon="4.61808">
        <ele>295.8</ele>
        <time>2020-10-24T09:04:10Z</time>
      </trkpt>
      <trkpt lat="46.11628" lon="4.61806">
        <ele>296</ele>
        <time>2020-10-24T09:04:11Z</time>
      </trkpt>
      <trkpt lat="46.11628" lon="4.61806">
        <ele>296</ele>
        <time>2020-10-24T09:04:12Z</time>
      </trkpt>
      <trkpt lat="46.11631" lon="4.61804">
        <ele>296.2</ele>
        <time>2020-10-24T09:04:13Z</time>
      </trkpt>
      <trkpt lat="46.11631" lon="4.61804">
        <ele>296.4</ele>
        <time>2020-10-24T09:04:14Z</time>
      </trkpt>
      <trkpt lat="46.11634" lon="4.61801">
        <ele>296.6</ele>
        <time>2020-10-24T09:04:15Z</time>
      </trkpt>
      <trkpt lat="46.11634" lon="4.61801">
        <ele>296.6</ele>
        <time>2020-10-24T09:04:16Z</time>
      </trkpt>
      <trkpt lat="46.11636" lon="4.61799">
        <ele>296.8</ele>
        <time>2020-10-24T09:04:17Z</time>
      </trkpt>
      <trkpt lat="46.11636" lon="4.61799">
        <ele>296.8</ele>
        <time>2020-10-24T09:04:18Z</time>
      </trkpt>
      <trkpt lat="46.11639" lon="4.61798">
        <ele>296.8</ele>
        <time>2020-10-24T09:04:19Z</time>
      </trkpt>
      <trkpt lat="46.11641" lon="4.61796">
        <ele>297.2</ele>
        <time>2020-10-24T09:04:20Z</time>
      </trkpt>
      <trkpt lat="46.11641" lon="4.61796">
        <ele>297.8</ele>
        <time>2020-10-24T09:04:21Z</time>
      </trkpt>
      <trkpt lat="46.11643" lon="4.61794">
        <ele>297.8</ele>
        <time>2020-10-24T09:04:22Z</time>
      </trkpt>
      <trkpt lat="46.11643" lon="4.61794">
        <ele>297.8</ele>
        <time>2020-10-24T09:04:23Z</time>
      </trkpt>
      <trkpt lat="46.11646" lon="4.61792">
        <ele>297.8</ele>
        <time>2020-10-24T09:04:24Z</time>
      </trkpt>
      <trkpt lat="46.11646" lon="4.61792">
        <ele>297.8</ele>
        <time>2020-10-24T09:04:25Z</time>
      </trkpt>
      <trkpt lat="46.11648" lon="4.6179">
        <ele>297.8</ele>
        <time>2020-10-24T09:04:26Z</time>
      </trkpt>
      <trkpt lat="46.11648" lon="4.6179">
        <ele>298</ele>
        <time>2020-10-24T09:04:27Z</time>
      </trkpt>
      <trkpt lat="46.11651" lon="4.61788">
        <ele>298</ele>
        <time>2020-10-24T09:04:28Z</time>
      </trkpt>
      <trkpt lat="46.11651" lon="4.61788">
        <ele>298.2</ele>
        <time>2020-10-24T09:04:29Z</time>
      </trkpt>
      <trkpt lat="46.11654" lon="4.61785">
        <ele>298.4</ele>
        <time>2020-10-24T09:04:30Z</time>
      </trkpt>
      <trkpt lat="46.11654" lon="4.61785">
        <ele>298.6</ele>
        <time>2020-10-24T09:04:31Z</time>
      </trkpt>
      <trkpt lat="46.11656" lon="4.61783">
        <ele>298.8</ele>
        <time>2020-10-24T09:04:32Z</time>
      </trkpt>
      <trkpt lat="46.11656" lon="4.61783">
        <ele>299</ele>
        <time>2020-10-24T09:04:33Z</time>
      </trkpt>
      <trkpt lat="46.11659" lon="4.61781">
        <ele>299.2</ele>
        <time>2020-10-24T09:04:34Z</time>
      </trkpt>
      <trkpt lat="46.11659" lon="4.61781">
        <ele>299.4</ele>
        <time>2020-10-24T09:04:35Z</time>
      </trkpt>
      <trkpt lat="46.11662" lon="4.61779">
        <ele>299.6</ele>
        <time>2020-10-24T09:04:36Z</time>
      </trkpt>
      <trkpt lat="46.11662" lon="4.61779">
        <ele>299.8</ele>
        <time>2020-10-24T09:04:37Z</time>
      </trkpt>
      <trkpt lat="46.11665" lon="4.61776">
        <ele>300</ele>
        <time>2020-10-24T09:04:38Z</time>
      </trkpt>
      <trkpt lat="46.11665" lon="4.61776">
        <ele>300.2</ele>
        <time>2020-10-24T09:04:39Z</time>
      </trkpt>
      <trkpt lat="46.11667" lon="4.61774">
        <ele>300.4</ele>
        <time>2020-10-24T09:04:40Z</time>
      </trkpt>
      <trkpt lat="46.11667" lon="4.61774">
        <ele>300.4</ele>
        <time>2020-10-24T09:04:41Z</time>
      </trkpt>
      <trkpt lat="46.11669" lon="4.61772">
        <ele>300.6</ele>
        <time>2020-10-24T09:04:42Z</time>
      </trkpt>
      <trkpt lat="46.11669" lon="4.61772">
        <ele>300.6</ele>
        <time>2020-10-24T09:04:43Z</time>
      </trkpt>
      <trkpt lat="46.11672" lon="4.61769">
        <ele>300.8</ele>
        <time>2020-10-24T09:04:44Z</time>
      </trkpt>
      <trkpt lat="46.11672" lon="4.61769">
        <ele>300.8</ele>
        <time>2020-10-24T09:04:45Z</time>
      </trkpt>
      <trkpt lat="46.11674" lon="4.61767">
        <ele>301</ele>
        <time>2020-10-24T09:04:46Z</time>
      </trkpt>
      <trkpt lat="46.11674" lon="4.61767">
        <ele>301</ele>
        <time>2020-10-24T09:04:47Z</time>
      </trkpt>
      <trkpt lat="46.11676" lon="4.61765">
        <ele>301</ele>
        <time>2020-10-24T09:04:48Z</time>
      </trkpt>
      <trkpt lat="46.11676" lon="4.61765">
        <ele>301.2</ele>
        <time>2020-10-24T09:04:49Z</time>
      </trkpt>
      <trkpt lat="46.11679" lon="4.61762">
        <ele>301.4</ele>
        <time>2020-10-24T09:04:50Z</time>
      </trkpt>
      <trkpt lat="46.11679" lon="4.61762">
        <ele>301.4</ele>
        <time>2020-10-24T09:04:51Z</time>
      </trkpt>
      <trkpt lat="46.11681" lon="4.6176">
        <ele>301.6</ele>
        <time>2020-10-24T09:04:52Z</time>
      </trkpt>
      <trkpt lat="46.11681" lon="4.6176">
        <ele>301.4</ele>
        <time>2020-10-24T09:04:53Z</time>
      </trkpt>
      <trkpt lat="46.11684" lon="4.61757">
        <ele>301.6</ele>
        <time>2020-10-24T09:04:54Z</time>
      </trkpt>
      <trkpt lat="46.11684" lon="4.61757">
        <ele>301.6</ele>
        <time>2020-10-24T09:04:55Z</time>
      </trkpt>
      <trkpt lat="46.11686" lon="4.61755">
        <ele>302</ele>
        <time>2020-10-24T09:04:56Z</time>
      </trkpt>
      <trkpt lat="46.11686" lon="4.61755">
        <ele>302.2</ele>
        <time>2020-10-24T09:04:57Z</time>
      </trkpt>
      <trkpt lat="46.11689" lon="4.61752">
        <ele>302.4</ele>
        <time>2020-10-24T09:04:58Z</time>
      </trkpt>
      <trkpt lat="46.11689" lon="4.61752">
        <ele>302.4</ele>
        <time>2020-10-24T09:04:59Z</time>
      </trkpt>
      <trkpt lat="46.11692" lon="4.6175">
        <ele>303</ele>
        <time>2020-10-24T09:05:00Z</time>
      </trkpt>
      <trkpt lat="46.11692" lon="4.6175">
        <ele>303.4</ele>
        <time>2020-10-24T09:05:01Z</time>
      </trkpt>
      <trkpt lat="46.11694" lon="4.61747">
        <ele>303.8</ele>
        <time>2020-10-24T09:05:02Z</time>
      </trkpt>
      <trkpt lat="46.11694" lon="4.61747">
        <ele>303.8</ele>
        <time>2020-10-24T09:05:03Z</time>
      </trkpt>
      <trkpt lat="46.11697" lon="4.61745">
        <ele>303.8</ele>
        <time>2020-10-24T09:05:04Z</time>
      </trkpt>
      <trkpt lat="46.11697" lon="4.61745">
        <ele>304</ele>
        <time>2020-10-24T09:05:05Z</time>
      </trkpt>
      <trkpt lat="46.11699" lon="4.61742">
        <ele>304.2</ele>
        <time>2020-10-24T09:05:06Z</time>
      </trkpt>
      <trkpt lat="46.11699" lon="4.61742">
        <ele>304.2</ele>
        <time>2020-10-24T09:05:07Z</time>
      </trkpt>
      <trkpt lat="46.11701" lon="4.6174">
        <ele>304.2</ele>
        <time>2020-10-24T09:05:08Z</time>
      </trkpt>
      <trkpt lat="46.11701" lon="4.6174">
        <ele>304.2</ele>
        <time>2020-10-24T09:05:09Z</time>
      </trkpt>
      <trkpt lat="46.11701" lon="4.6174">
        <ele>304.4</ele>
        <time>2020-10-24T09:05:10Z</time>
      </trkpt>
      <trkpt lat="46.11705" lon="4.61737">
        <ele>304.2</ele>
        <time>2020-10-24T09:05:11Z</time>
      </trkpt>
      <trkpt lat="46.11707" lon="4.61736">
        <ele>304.4</ele>
        <time>2020-10-24T09:05:12Z</time>
      </trkpt>
      <trkpt lat="46.11707" lon="4.61736">
        <ele>304.4</ele>
        <time>2020-10-24T09:05:13Z</time>
      </trkpt>
      <trkpt lat="46.11709" lon="4.61733">
        <ele>304.6</ele>
        <time>2020-10-24T09:05:14Z</time>
      </trkpt>
      <trkpt lat="46.11709" lon="4.61733">
        <ele>304.6</ele>
        <time>2020-10-24T09:05:15Z</time>
      </trkpt>
      <trkpt lat="46.1171" lon="4.61731">
        <ele>304.6</ele>
        <time>2020-10-24T09:05:16Z</time>
      </trkpt>
      <trkpt lat="46.1171" lon="4.61731">
        <ele>304.6</ele>
        <time>2020-10-24T09:05:17Z</time>
      </trkpt>
      <trkpt lat="46.11712" lon="4.61729">
        <ele>304.8</ele>
        <time>2020-10-24T09:05:18Z</time>
      </trkpt>
      <trkpt lat="46.11712" lon="4.61729">
        <ele>305</ele>
        <time>2020-10-24T09:05:19Z</time>
      </trkpt>
      <trkpt lat="46.11712" lon="4.61729">
        <ele>305</ele>
        <time>2020-10-24T09:05:20Z</time>
      </trkpt>
      <trkpt lat="46.11715" lon="4.61723">
        <ele>305.2</ele>
        <time>2020-10-24T09:05:21Z</time>
      </trkpt>
      <trkpt lat="46.11716" lon="4.61721">
        <ele>305.2</ele>
        <time>2020-10-24T09:05:22Z</time>
      </trkpt>
      <trkpt lat="46.11716" lon="4.61719">
        <ele>305.4</ele>
        <time>2020-10-24T09:05:23Z</time>
      </trkpt>
      <trkpt lat="46.11716" lon="4.61719">
        <ele>305.6</ele>
        <time>2020-10-24T09:05:24Z</time>
      </trkpt>
      <trkpt lat="46.11718" lon="4.61714">
        <ele>305.8</ele>
        <time>2020-10-24T09:05:25Z</time>
      </trkpt>
      <trkpt lat="46.11718" lon="4.61714">
        <ele>306</ele>
        <time>2020-10-24T09:05:26Z</time>
      </trkpt>
      <trkpt lat="46.1172" lon="4.61711">
        <ele>306.4</ele>
        <time>2020-10-24T09:05:27Z</time>
      </trkpt>
      <trkpt lat="46.1172" lon="4.61711">
        <ele>306.8</ele>
        <time>2020-10-24T09:05:28Z</time>
      </trkpt>
      <trkpt lat="46.11722" lon="4.61708">
        <ele>307</ele>
        <time>2020-10-24T09:05:29Z</time>
      </trkpt>
      <trkpt lat="46.11722" lon="4.61708">
        <ele>307</ele>
        <time>2020-10-24T09:05:30Z</time>
      </trkpt>
      <trkpt lat="46.11722" lon="4.61708">
        <ele>307.2</ele>
        <time>2020-10-24T09:05:31Z</time>
      </trkpt>
      <trkpt lat="46.11726" lon="4.61703">
        <ele>307.4</ele>
        <time>2020-10-24T09:05:32Z</time>
      </trkpt>
      <trkpt lat="46.11727" lon="4.61702">
        <ele>307.4</ele>
        <time>2020-10-24T09:05:33Z</time>
      </trkpt>
      <trkpt lat="46.11729" lon="4.61701">
        <ele>307.6</ele>
        <time>2020-10-24T09:05:34Z</time>
      </trkpt>
      <trkpt lat="46.11729" lon="4.61701">
        <ele>307.8</ele>
        <time>2020-10-24T09:05:35Z</time>
      </trkpt>
      <trkpt lat="46.11732" lon="4.617">
        <ele>308</ele>
        <time>2020-10-24T09:05:36Z</time>
      </trkpt>
      <trkpt lat="46.11732" lon="4.617">
        <ele>308</ele>
        <time>2020-10-24T09:05:37Z</time>
      </trkpt>
      <trkpt lat="46.11736" lon="4.61699">
        <ele>308.2</ele>
        <time>2020-10-24T09:05:38Z</time>
      </trkpt>
      <trkpt lat="46.11738" lon="4.61699">
        <ele>308.4</ele>
        <time>2020-10-24T09:05:39Z</time>
      </trkpt>
      <trkpt lat="46.11738" lon="4.61699">
        <ele>308.4</ele>
        <time>2020-10-24T09:05:40Z</time>
      </trkpt>
      <trkpt lat="46.11742" lon="4.617">
        <ele>308.6</ele>
        <time>2020-10-24T09:05:41Z</time>
      </trkpt>
      <trkpt lat="46.11744" lon="4.61701">
        <ele>308.8</ele>
        <time>2020-10-24T09:05:42Z</time>
      </trkpt>
      <trkpt lat="46.11746" lon="4.61703">
        <ele>309</ele>
        <time>2020-10-24T09:05:43Z</time>
      </trkpt>
      <trkpt lat="46.11746" lon="4.61703">
        <ele>309</ele>
        <time>2020-10-24T09:05:44Z</time>
      </trkpt>
      <trkpt lat="46.11748" lon="4.61704">
        <ele>309</ele>
        <time>2020-10-24T09:05:45Z</time>
      </trkpt>
      <trkpt lat="46.11748" lon="4.61704">
        <ele>309.4</ele>
        <time>2020-10-24T09:05:46Z</time>
      </trkpt>
      <trkpt lat="46.11751" lon="4.61706">
        <ele>309.6</ele>
        <time>2020-10-24T09:05:47Z</time>
      </trkpt>
      <trkpt lat="46.11751" lon="4.61706">
        <ele>309.6</ele>
        <time>2020-10-24T09:05:48Z</time>
      </trkpt>
      <trkpt lat="46.11754" lon="4.61708">
        <ele>309.8</ele>
        <time>2020-10-24T09:05:49Z</time>
      </trkpt>
      <trkpt lat="46.11754" lon="4.61708">
        <ele>310.2</ele>
        <time>2020-10-24T09:05:50Z</time>
      </trkpt>
      <trkpt lat="46.11756" lon="4.61709">
        <ele>310.2</ele>
        <time>2020-10-24T09:05:51Z</time>
      </trkpt>
      <trkpt lat="46.11756" lon="4.61709">
        <ele>310.2</ele>
        <time>2020-10-24T09:05:52Z</time>
      </trkpt>
      <trkpt lat="46.11758" lon="4.61711">
        <ele>310.4</ele>
        <time>2020-10-24T09:05:53Z</time>
      </trkpt>
      <trkpt lat="46.11758" lon="4.61711">
        <ele>310.4</ele>
        <time>2020-10-24T09:05:54Z</time>
      </trkpt>
      <trkpt lat="46.11761" lon="4.61714">
        <ele>310.4</ele>
        <time>2020-10-24T09:05:55Z</time>
      </trkpt>
      <trkpt lat="46.11761" lon="4.61714">
        <ele>310.4</ele>
        <time>2020-10-24T09:05:56Z</time>
      </trkpt>
      <trkpt lat="46.11763" lon="4.61717">
        <ele>310.4</ele>
        <time>2020-10-24T09:05:57Z</time>
      </trkpt>
      <trkpt lat="46.11763" lon="4.61717">
        <ele>310.6</ele>
        <time>2020-10-24T09:05:58Z</time>
      </trkpt>
      <trkpt lat="46.11766" lon="4.61718">
        <ele>310.4</ele>
        <time>2020-10-24T09:05:59Z</time>
      </trkpt>
      <trkpt lat="46.11766" lon="4.61718">
        <ele>310.6</ele>
        <time>2020-10-24T09:06:00Z</time>
      </trkpt>
      <trkpt lat="46.11768" lon="4.6172">
        <ele>310.8</ele>
        <time>2020-10-24T09:06:01Z</time>
      </trkpt>
      <trkpt lat="46.11768" lon="4.6172">
        <ele>310.8</ele>
        <time>2020-10-24T09:06:02Z</time>
      </trkpt>
      <trkpt lat="46.11771" lon="4.61722">
        <ele>310.8</ele>
        <time>2020-10-24T09:06:03Z</time>
      </trkpt>
      <trkpt lat="46.11771" lon="4.61722">
        <ele>311</ele>
        <time>2020-10-24T09:06:04Z</time>
      </trkpt>
      <trkpt lat="46.11771" lon="4.61722">
        <ele>311.2</ele>
        <time>2020-10-24T09:06:05Z</time>
      </trkpt>
      <trkpt lat="46.11775" lon="4.61724">
        <ele>311.4</ele>
        <time>2020-10-24T09:06:06Z</time>
      </trkpt>
      <trkpt lat="46.11777" lon="4.61725">
        <ele>311.4</ele>
        <time>2020-10-24T09:06:07Z</time>
      </trkpt>
      <trkpt lat="46.11777" lon="4.61725">
        <ele>311.2</ele>
        <time>2020-10-24T09:06:08Z</time>
      </trkpt>
      <trkpt lat="46.1178" lon="4.61728">
        <ele>311.4</ele>
        <time>2020-10-24T09:06:09Z</time>
      </trkpt>
      <trkpt lat="46.1178" lon="4.61728">
        <ele>311.2</ele>
        <time>2020-10-24T09:06:10Z</time>
      </trkpt>
      <trkpt lat="46.11783" lon="4.6173">
        <ele>311.4</ele>
        <time>2020-10-24T09:06:11Z</time>
      </trkpt>
      <trkpt lat="46.11783" lon="4.6173">
        <ele>311.6</ele>
        <time>2020-10-24T09:06:12Z</time>
      </trkpt>
      <trkpt lat="46.11785" lon="4.61732">
        <ele>311.6</ele>
        <time>2020-10-24T09:06:13Z</time>
      </trkpt>
      <trkpt lat="46.11785" lon="4.61732">
        <ele>311.4</ele>
        <time>2020-10-24T09:06:14Z</time>
      </trkpt>
      <trkpt lat="46.11788" lon="4.61734">
        <ele>311.4</ele>
        <time>2020-10-24T09:06:15Z</time>
      </trkpt>
      <trkpt lat="46.11788" lon="4.61734">
        <ele>311.4</ele>
        <time>2020-10-24T09:06:16Z</time>
      </trkpt>
      <trkpt lat="46.11791" lon="4.61737">
        <ele>311.2</ele>
        <time>2020-10-24T09:06:17Z</time>
      </trkpt>
      <trkpt lat="46.11791" lon="4.61737">
        <ele>311.2</ele>
        <time>2020-10-24T09:06:18Z</time>
      </trkpt>
      <trkpt lat="46.11793" lon="4.6174">
        <ele>311.2</ele>
        <time>2020-10-24T09:06:19Z</time>
      </trkpt>
      <trkpt lat="46.11793" lon="4.6174">
        <ele>311.4</ele>
        <time>2020-10-24T09:06:20Z</time>
      </trkpt>
      <trkpt lat="46.11796" lon="4.61742">
        <ele>311.6</ele>
        <time>2020-10-24T09:06:21Z</time>
      </trkpt>
      <trkpt lat="46.11798" lon="4.61742">
        <ele>311.4</ele>
        <time>2020-10-24T09:06:22Z</time>
      </trkpt>
      <trkpt lat="46.11798" lon="4.61742">
        <ele>311.2</ele>
        <time>2020-10-24T09:06:23Z</time>
      </trkpt>
      <trkpt lat="46.118" lon="4.61744">
        <ele>311.2</ele>
        <time>2020-10-24T09:06:24Z</time>
      </trkpt>
      <trkpt lat="46.118" lon="4.61744">
        <ele>311</ele>
        <time>2020-10-24T09:06:25Z</time>
      </trkpt>
      <trkpt lat="46.11803" lon="4.61746">
        <ele>311</ele>
        <time>2020-10-24T09:06:26Z</time>
      </trkpt>
      <trkpt lat="46.11803" lon="4.61746">
        <ele>310.8</ele>
        <time>2020-10-24T09:06:27Z</time>
      </trkpt>
      <trkpt lat="46.11805" lon="4.61747">
        <ele>310.8</ele>
        <time>2020-10-24T09:06:28Z</time>
      </trkpt>
      <trkpt lat="46.11805" lon="4.61747">
        <ele>310.8</ele>
        <time>2020-10-24T09:06:29Z</time>
      </trkpt>
      <trkpt lat="46.11807" lon="4.61747">
        <ele>310.8</ele>
        <time>2020-10-24T09:06:30Z</time>
      </trkpt>
      <trkpt lat="46.11807" lon="4.61747">
        <ele>310.8</ele>
        <time>2020-10-24T09:06:31Z</time>
      </trkpt>
      <trkpt lat="46.1181" lon="4.61747">
        <ele>310.8</ele>
        <time>2020-10-24T09:06:32Z</time>
      </trkpt>
      <trkpt lat="46.1181" lon="4.61747">
        <ele>310.8</ele>
        <time>2020-10-24T09:06:33Z</time>
      </trkpt>
      <trkpt lat="46.11813" lon="4.61749">
        <ele>310.8</ele>
        <time>2020-10-24T09:06:34Z</time>
      </trkpt>
      <trkpt lat="46.11815" lon="4.6175">
        <ele>310.6</ele>
        <time>2020-10-24T09:06:35Z</time>
      </trkpt>
      <trkpt lat="46.11815" lon="4.6175">
        <ele>310.4</ele>
        <time>2020-10-24T09:06:36Z</time>
      </trkpt>
      <trkpt lat="46.11818" lon="4.61751">
        <ele>310.6</ele>
        <time>2020-10-24T09:06:37Z</time>
      </trkpt>
      <trkpt lat="46.11818" lon="4.61751">
        <ele>310.6</ele>
        <time>2020-10-24T09:06:38Z</time>
      </trkpt>
      <trkpt lat="46.11822" lon="4.61752">
        <ele>310.8</ele>
        <time>2020-10-24T09:06:39Z</time>
      </trkpt>
      <trkpt lat="46.11822" lon="4.61752">
        <ele>311</ele>
        <time>2020-10-24T09:06:40Z</time>
      </trkpt>
      <trkpt lat="46.11825" lon="4.61751">
        <ele>310.6</ele>
        <time>2020-10-24T09:06:41Z</time>
      </trkpt>
      <trkpt lat="46.11825" lon="4.61751">
        <ele>310.4</ele>
        <time>2020-10-24T09:06:42Z</time>
      </trkpt>
      <trkpt lat="46.11827" lon="4.61749">
        <ele>310.4</ele>
        <time>2020-10-24T09:06:43Z</time>
      </trkpt>
      <trkpt lat="46.11827" lon="4.61749">
        <ele>310.4</ele>
        <time>2020-10-24T09:06:44Z</time>
      </trkpt>
      <trkpt lat="46.11828" lon="4.61746">
        <ele>310.2</ele>
        <time>2020-10-24T09:06:45Z</time>
      </trkpt>
      <trkpt lat="46.11828" lon="4.61746">
        <ele>310.2</ele>
        <time>2020-10-24T09:06:46Z</time>
      </trkpt>
      <trkpt lat="46.11829" lon="4.61742">
        <ele>310.2</ele>
        <time>2020-10-24T09:06:47Z</time>
      </trkpt>
      <trkpt lat="46.11829" lon="4.61742">
        <ele>310.4</ele>
        <time>2020-10-24T09:06:48Z</time>
      </trkpt>
      <trkpt lat="46.1183" lon="4.61738">
        <ele>310.4</ele>
        <time>2020-10-24T09:06:49Z</time>
      </trkpt>
      <trkpt lat="46.1183" lon="4.61738">
        <ele>310.6</ele>
        <time>2020-10-24T09:06:50Z</time>
      </trkpt>
      <trkpt lat="46.11831" lon="4.61734">
        <ele>310.8</ele>
        <time>2020-10-24T09:06:51Z</time>
      </trkpt>
      <trkpt lat="46.11831" lon="4.61734">
        <ele>310.8</ele>
        <time>2020-10-24T09:06:52Z</time>
      </trkpt>
      <trkpt lat="46.11832" lon="4.6173">
        <ele>311</ele>
        <time>2020-10-24T09:06:53Z</time>
      </trkpt>
      <trkpt lat="46.11832" lon="4.6173">
        <ele>311.2</ele>
        <time>2020-10-24T09:06:54Z</time>
      </trkpt>
      <trkpt lat="46.11833" lon="4.61726">
        <ele>311.2</ele>
        <time>2020-10-24T09:06:55Z</time>
      </trkpt>
      <trkpt lat="46.11833" lon="4.61726">
        <ele>311.2</ele>
        <time>2020-10-24T09:06:56Z</time>
      </trkpt>
      <trkpt lat="46.11833" lon="4.61722">
        <ele>311.4</ele>
        <time>2020-10-24T09:06:57Z</time>
      </trkpt>
      <trkpt lat="46.11833" lon="4.61722">
        <ele>311.4</ele>
        <time>2020-10-24T09:06:58Z</time>
      </trkpt>
      <trkpt lat="46.11833" lon="4.61718">
        <ele>311.2</ele>
        <time>2020-10-24T09:06:59Z</time>
      </trkpt>
      <trkpt lat="46.11833" lon="4.61718">
        <ele>311.2</ele>
        <time>2020-10-24T09:07:00Z</time>
      </trkpt>
      <trkpt lat="46.11834" lon="4.61714">
        <ele>311.4</ele>
        <time>2020-10-24T09:07:01Z</time>
      </trkpt>
      <trkpt lat="46.11834" lon="4.61714">
        <ele>311.4</ele>
        <time>2020-10-24T09:07:02Z</time>
      </trkpt>
      <trkpt lat="46.11834" lon="4.61709">
        <ele>311.6</ele>
        <time>2020-10-24T09:07:03Z</time>
      </trkpt>
      <trkpt lat="46.11834" lon="4.61709">
        <ele>311.6</ele>
        <time>2020-10-24T09:07:04Z</time>
      </trkpt>
      <trkpt lat="46.11835" lon="4.61705">
        <ele>311.6</ele>
        <time>2020-10-24T09:07:05Z</time>
      </trkpt>
      <trkpt lat="46.11835" lon="4.61705">
        <ele>311.8</ele>
        <time>2020-10-24T09:07:06Z</time>
      </trkpt>
      <trkpt lat="46.11835" lon="4.61702">
        <ele>311.8</ele>
        <time>2020-10-24T09:07:07Z</time>
      </trkpt>
      <trkpt lat="46.11835" lon="4.61702">
        <ele>312</ele>
        <time>2020-10-24T09:07:08Z</time>
      </trkpt>
      <trkpt lat="46.11836" lon="4.61698">
        <ele>312</ele>
        <time>2020-10-24T09:07:09Z</time>
      </trkpt>
      <trkpt lat="46.11836" lon="4.61698">
        <ele>312.2</ele>
        <time>2020-10-24T09:07:10Z</time>
      </trkpt>
      <trkpt lat="46.11837" lon="4.61694">
        <ele>312.2</ele>
        <time>2020-10-24T09:07:11Z</time>
      </trkpt>
      <trkpt lat="46.11837" lon="4.61694">
        <ele>312.2</ele>
        <time>2020-10-24T09:07:12Z</time>
      </trkpt>
      <trkpt lat="46.11837" lon="4.6169">
        <ele>312.2</ele>
        <time>2020-10-24T09:07:13Z</time>
      </trkpt>
      <trkpt lat="46.11837" lon="4.6169">
        <ele>312.2</ele>
        <time>2020-10-24T09:07:14Z</time>
      </trkpt>
      <trkpt lat="46.11837" lon="4.61687">
        <ele>312.2</ele>
        <time>2020-10-24T09:07:15Z</time>
      </trkpt>
      <trkpt lat="46.11837" lon="4.61687">
        <ele>312.2</ele>
        <time>2020-10-24T09:07:16Z</time>
      </trkpt>
      <trkpt lat="46.11838" lon="4.61682">
        <ele>312.4</ele>
        <time>2020-10-24T09:07:17Z</time>
      </trkpt>
      <trkpt lat="46.11838" lon="4.61682">
        <ele>312.6</ele>
        <time>2020-10-24T09:07:18Z</time>
      </trkpt>
      <trkpt lat="46.11838" lon="4.61679">
        <ele>312.8</ele>
        <time>2020-10-24T09:07:19Z</time>
      </trkpt>
      <trkpt lat="46.11838" lon="4.61679">
        <ele>313</ele>
        <time>2020-10-24T09:07:20Z</time>
      </trkpt>
      <trkpt lat="46.11839" lon="4.61675">
        <ele>313</ele>
        <time>2020-10-24T09:07:21Z</time>
      </trkpt>
      <trkpt lat="46.11839" lon="4.61675">
        <ele>313.2</ele>
        <time>2020-10-24T09:07:22Z</time>
      </trkpt>
      <trkpt lat="46.11839" lon="4.6167">
        <ele>313.2</ele>
        <time>2020-10-24T09:07:23Z</time>
      </trkpt>
      <trkpt lat="46.11839" lon="4.6167">
        <ele>313.4</ele>
        <time>2020-10-24T09:07:24Z</time>
      </trkpt>
      <trkpt lat="46.11839" lon="4.6167">
        <ele>313.6</ele>
        <time>2020-10-24T09:07:25Z</time>
      </trkpt>
      <trkpt lat="46.1184" lon="4.61664">
        <ele>313.8</ele>
        <time>2020-10-24T09:07:26Z</time>
      </trkpt>
      <trkpt lat="46.1184" lon="4.61662">
        <ele>314</ele>
        <time>2020-10-24T09:07:27Z</time>
      </trkpt>
      <trkpt lat="46.1184" lon="4.61662">
        <ele>314.2</ele>
        <time>2020-10-24T09:07:28Z</time>
      </trkpt>
      <trkpt lat="46.1184" lon="4.61658">
        <ele>314.4</ele>
        <time>2020-10-24T09:07:29Z</time>
      </trkpt>
      <trkpt lat="46.1184" lon="4.61658">
        <ele>314.4</ele>
        <time>2020-10-24T09:07:30Z</time>
      </trkpt>
      <trkpt lat="46.11839" lon="4.61655">
        <ele>314.6</ele>
        <time>2020-10-24T09:07:31Z</time>
      </trkpt>
      <trkpt lat="46.11839" lon="4.61655">
        <ele>314.6</ele>
        <time>2020-10-24T09:07:32Z</time>
      </trkpt>
      <trkpt lat="46.11839" lon="4.61651">
        <ele>314.6</ele>
        <time>2020-10-24T09:07:33Z</time>
      </trkpt>
      <trkpt lat="46.11839" lon="4.61651">
        <ele>314.6</ele>
        <time>2020-10-24T09:07:34Z</time>
      </trkpt>
      <trkpt lat="46.11839" lon="4.61647">
        <ele>315.4</ele>
        <time>2020-10-24T09:07:35Z</time>
      </trkpt>
      <trkpt lat="46.11839" lon="4.61645">
        <ele>316</ele>
        <time>2020-10-24T09:07:36Z</time>
      </trkpt>
      <trkpt lat="46.11839" lon="4.61643">
        <ele>316.2</ele>
        <time>2020-10-24T09:07:37Z</time>
      </trkpt>
      <trkpt lat="46.1184" lon="4.61641">
        <ele>316</ele>
        <time>2020-10-24T09:07:38Z</time>
      </trkpt>
      <trkpt lat="46.1184" lon="4.61641">
        <ele>316.2</ele>
        <time>2020-10-24T09:07:39Z</time>
      </trkpt>
      <trkpt lat="46.1184" lon="4.61636">
        <ele>316.2</ele>
        <time>2020-10-24T09:07:40Z</time>
      </trkpt>
      <trkpt lat="46.1184" lon="4.61634">
        <ele>316.4</ele>
        <time>2020-10-24T09:07:41Z</time>
      </trkpt>
      <trkpt lat="46.1184" lon="4.61632">
        <ele>316.4</ele>
        <time>2020-10-24T09:07:42Z</time>
      </trkpt>
      <trkpt lat="46.11841" lon="4.6163">
        <ele>316.2</ele>
        <time>2020-10-24T09:07:43Z</time>
      </trkpt>
      <trkpt lat="46.11841" lon="4.6163">
        <ele>316.4</ele>
        <time>2020-10-24T09:07:44Z</time>
      </trkpt>
      <trkpt lat="46.1184" lon="4.61626">
        <ele>316.6</ele>
        <time>2020-10-24T09:07:45Z</time>
      </trkpt>
      <trkpt lat="46.1184" lon="4.61626">
        <ele>316.6</ele>
        <time>2020-10-24T09:07:46Z</time>
      </trkpt>
      <trkpt lat="46.1184" lon="4.61623">
        <ele>316.8</ele>
        <time>2020-10-24T09:07:47Z</time>
      </trkpt>
      <trkpt lat="46.1184" lon="4.61623">
        <ele>317</ele>
        <time>2020-10-24T09:07:48Z</time>
      </trkpt>
      <trkpt lat="46.11842" lon="4.61619">
        <ele>317.2</ele>
        <time>2020-10-24T09:07:49Z</time>
      </trkpt>
      <trkpt lat="46.11842" lon="4.61619">
        <ele>317.4</ele>
        <time>2020-10-24T09:07:50Z</time>
      </trkpt>
      <trkpt lat="46.11843" lon="4.61614">
        <ele>317.6</ele>
        <time>2020-10-24T09:07:51Z</time>
      </trkpt>
      <trkpt lat="46.11843" lon="4.61612">
        <ele>317.8</ele>
        <time>2020-10-24T09:07:52Z</time>
      </trkpt>
      <trkpt lat="46.11843" lon="4.61612">
        <ele>317.8</ele>
        <time>2020-10-24T09:07:53Z</time>
      </trkpt>
      <trkpt lat="46.11843" lon="4.61612">
        <ele>318</ele>
        <time>2020-10-24T09:07:54Z</time>
      </trkpt>
      <trkpt lat="46.11844" lon="4.61608">
        <ele>318</ele>
        <time>2020-10-24T09:07:55Z</time>
      </trkpt>
      <trkpt lat="46.11845" lon="4.61606">
        <ele>318.2</ele>
        <time>2020-10-24T09:07:56Z</time>
      </trkpt>
      <trkpt lat="46.11845" lon="4.61604">
        <ele>318.4</ele>
        <time>2020-10-24T09:07:57Z</time>
      </trkpt>
      <trkpt lat="46.11846" lon="4.61602">
        <ele>318.6</ele>
        <time>2020-10-24T09:07:58Z</time>
      </trkpt>
      <trkpt lat="46.11846" lon="4.616">
        <ele>319</ele>
        <time>2020-10-24T09:07:59Z</time>
      </trkpt>
      <trkpt lat="46.11846" lon="4.61598">
        <ele>319</ele>
        <time>2020-10-24T09:08:00Z</time>
      </trkpt>
      <trkpt lat="46.11847" lon="4.61596">
        <ele>319.2</ele>
        <time>2020-10-24T09:08:01Z</time>
      </trkpt>
      <trkpt lat="46.11847" lon="4.61594">
        <ele>319.4</ele>
        <time>2020-10-24T09:08:02Z</time>
      </trkpt>
      <trkpt lat="46.11847" lon="4.61591">
        <ele>319.6</ele>
        <time>2020-10-24T09:08:03Z</time>
      </trkpt>
      <trkpt lat="46.11847" lon="4.61589">
        <ele>319.6</ele>
        <time>2020-10-24T09:08:04Z</time>
      </trkpt>
      <trkpt lat="46.11847" lon="4.61587">
        <ele>319.8</ele>
        <time>2020-10-24T09:08:05Z</time>
      </trkpt>
      <trkpt lat="46.11847" lon="4.61585">
        <ele>319.8</ele>
        <time>2020-10-24T09:08:06Z</time>
      </trkpt>
      <trkpt lat="46.11847" lon="4.61582">
        <ele>320</ele>
        <time>2020-10-24T09:08:07Z</time>
      </trkpt>
      <trkpt lat="46.11848" lon="4.6158">
        <ele>320.4</ele>
        <time>2020-10-24T09:08:08Z</time>
      </trkpt>
      <trkpt lat="46.11849" lon="4.61577">
        <ele>320.6</ele>
        <time>2020-10-24T09:08:09Z</time>
      </trkpt>
      <trkpt lat="46.1185" lon="4.61575">
        <ele>320.8</ele>
        <time>2020-10-24T09:08:10Z</time>
      </trkpt>
      <trkpt lat="46.1185" lon="4.61573">
        <ele>321</ele>
        <time>2020-10-24T09:08:11Z</time>
      </trkpt>
      <trkpt lat="46.1185" lon="4.61573">
        <ele>321.2</ele>
        <time>2020-10-24T09:08:12Z</time>
      </trkpt>
      <trkpt lat="46.11851" lon="4.61568">
        <ele>321.6</ele>
        <time>2020-10-24T09:08:13Z</time>
      </trkpt>
      <trkpt lat="46.11851" lon="4.61568">
        <ele>321.8</ele>
        <time>2020-10-24T09:08:14Z</time>
      </trkpt>
      <trkpt lat="46.11852" lon="4.61566">
        <ele>321.8</ele>
        <time>2020-10-24T09:08:15Z</time>
      </trkpt>
      <trkpt lat="46.11852" lon="4.61566">
        <ele>322</ele>
        <time>2020-10-24T09:08:16Z</time>
      </trkpt>
      <trkpt lat="46.11852" lon="4.61562">
        <ele>322.2</ele>
        <time>2020-10-24T09:08:17Z</time>
      </trkpt>
      <trkpt lat="46.11852" lon="4.61562">
        <ele>322.2</ele>
        <time>2020-10-24T09:08:18Z</time>
      </trkpt>
      <trkpt lat="46.11853" lon="4.61559">
        <ele>322.8</ele>
        <time>2020-10-24T09:08:19Z</time>
      </trkpt>
      <trkpt lat="46.11853" lon="4.61559">
        <ele>323</ele>
        <time>2020-10-24T09:08:20Z</time>
      </trkpt>
      <trkpt lat="46.11855" lon="4.61556">
        <ele>323</ele>
        <time>2020-10-24T09:08:21Z</time>
      </trkpt>
      <trkpt lat="46.11855" lon="4.61556">
        <ele>323</ele>
        <time>2020-10-24T09:08:22Z</time>
      </trkpt>
      <trkpt lat="46.11855" lon="4.61556">
        <ele>323</ele>
        <time>2020-10-24T09:08:23Z</time>
      </trkpt>
      <trkpt lat="46.11857" lon="4.61553">
        <ele>323</ele>
        <time>2020-10-24T09:08:24Z</time>
      </trkpt>
      <trkpt lat="46.11857" lon="4.61553">
        <ele>323.2</ele>
        <time>2020-10-24T09:08:25Z</time>
      </trkpt>
      <trkpt lat="46.11859" lon="4.61552">
        <ele>323.4</ele>
        <time>2020-10-24T09:08:26Z</time>
      </trkpt>
      <trkpt lat="46.11859" lon="4.61552">
        <ele>323.6</ele>
        <time>2020-10-24T09:08:27Z</time>
      </trkpt>
      <trkpt lat="46.11859" lon="4.61552">
        <ele>323.8</ele>
        <time>2020-10-24T09:08:28Z</time>
      </trkpt>
      <trkpt lat="46.1186" lon="4.61548">
        <ele>324.2</ele>
        <time>2020-10-24T09:08:29Z</time>
      </trkpt>
      <trkpt lat="46.1186" lon="4.61548">
        <ele>324.4</ele>
        <time>2020-10-24T09:08:30Z</time>
      </trkpt>
      <trkpt lat="46.1186" lon="4.61548">
        <ele>324.6</ele>
        <time>2020-10-24T09:08:31Z</time>
      </trkpt>
      <trkpt lat="46.11862" lon="4.61545">
        <ele>324.8</ele>
        <time>2020-10-24T09:08:32Z</time>
      </trkpt>
      <trkpt lat="46.11862" lon="4.61545">
        <ele>325</ele>
        <time>2020-10-24T09:08:33Z</time>
      </trkpt>
      <trkpt lat="46.11862" lon="4.61545">
        <ele>325.2</ele>
        <time>2020-10-24T09:08:34Z</time>
      </trkpt>
      <trkpt lat="46.11862" lon="4.61545">
        <ele>325.6</ele>
        <time>2020-10-24T09:08:35Z</time>
      </trkpt>
      <trkpt lat="46.11862" lon="4.61545">
        <ele>325.8</ele>
        <time>2020-10-24T09:08:36Z</time>
      </trkpt>
      <trkpt lat="46.11862" lon="4.61545">
        <ele>326</ele>
        <time>2020-10-24T09:08:37Z</time>
      </trkpt>
      <trkpt lat="46.11862" lon="4.61545">
        <ele>326.2</ele>
        <time>2020-10-24T09:08:38Z</time>
      </trkpt>
      <trkpt lat="46.11862" lon="4.61545">
        <ele>326.4</ele>
        <time>2020-10-24T09:08:39Z</time>
      </trkpt>
      <trkpt lat="46.11862" lon="4.61545">
        <ele>326.4</ele>
        <time>2020-10-24T09:08:40Z</time>
      </trkpt>
      <trkpt lat="46.11862" lon="4.61545">
        <ele>326.4</ele>
        <time>2020-10-24T09:08:41Z</time>
      </trkpt>
      <trkpt lat="46.11862" lon="4.61545">
        <ele>326.4</ele>
        <time>2020-10-24T09:08:42Z</time>
      </trkpt>
      <trkpt lat="46.11862" lon="4.61545">
        <ele>326.2</ele>
        <time>2020-10-24T09:08:43Z</time>
      </trkpt>
      <trkpt lat="46.11862" lon="4.61545">
        <ele>326.2</ele>
        <time>2020-10-24T09:08:44Z</time>
      </trkpt>
      <trkpt lat="46.11862" lon="4.61545">
        <ele>326.4</ele>
        <time>2020-10-24T09:08:45Z</time>
      </trkpt>
      <trkpt lat="46.11862" lon="4.61545">
        <ele>326.2</ele>
        <time>2020-10-24T09:08:46Z</time>
      </trkpt>
      <trkpt lat="46.11862" lon="4.61545">
        <ele>326.2</ele>
        <time>2020-10-24T09:08:47Z</time>
      </trkpt>
      <trkpt lat="46.11862" lon="4.61545">
        <ele>326.2</ele>
        <time>2020-10-24T09:08:48Z</time>
      </trkpt>
      <trkpt lat="46.11862" lon="4.61545">
        <ele>326.2</ele>
        <time>2020-10-24T09:08:49Z</time>
      </trkpt>
      <trkpt lat="46.11862" lon="4.61545">
        <ele>326.2</ele>
        <time>2020-10-24T09:08:50Z</time>
      </trkpt>
      <trkpt lat="46.11862" lon="4.61545">
        <ele>326</ele>
        <time>2020-10-24T09:08:51Z</time>
      </trkpt>
      <trkpt lat="46.11862" lon="4.61545">
        <ele>325.8</ele>
        <time>2020-10-24T09:08:52Z</time>
      </trkpt>
      <trkpt lat="46.11862" lon="4.61545">
        <ele>325.6</ele>
        <time>2020-10-24T09:08:53Z</time>
      </trkpt>
      <trkpt lat="46.11862" lon="4.61545">
        <ele>325.4</ele>
        <time>2020-10-24T09:08:54Z</time>
      </trkpt>
      <trkpt lat="46.11862" lon="4.61545">
        <ele>325.4</ele>
        <time>2020-10-24T09:08:55Z</time>
      </trkpt>
      <trkpt lat="46.11862" lon="4.61545">
        <ele>325.2</ele>
        <time>2020-10-24T09:08:56Z</time>
      </trkpt>
      <trkpt lat="46.11862" lon="4.61545">
        <ele>325</ele>
        <time>2020-10-24T09:08:57Z</time>
      </trkpt>
      <trkpt lat="46.11862" lon="4.61545">
        <ele>324.8</ele>
        <time>2020-10-24T09:08:58Z</time>
      </trkpt>
      <trkpt lat="46.11862" lon="4.61545">
        <ele>324.8</ele>
        <time>2020-10-24T09:08:59Z</time>
      </trkpt>
      <trkpt lat="46.11862" lon="4.61545">
        <ele>324.8</ele>
        <time>2020-10-24T09:09:00Z</time>
      </trkpt>
      <trkpt lat="46.11862" lon="4.61545">
        <ele>324.6</ele>
        <time>2020-10-24T09:09:01Z</time>
      </trkpt>
      <trkpt lat="46.11862" lon="4.61542">
        <ele>324.6</ele>
        <time>2020-10-24T09:09:02Z</time>
      </trkpt>
      <trkpt lat="46.11862" lon="4.61542">
        <ele>324.6</ele>
        <time>2020-10-24T09:09:03Z</time>
      </trkpt>
      <trkpt lat="46.11862" lon="4.61542">
        <ele>324.8</ele>
        <time>2020-10-24T09:09:04Z</time>
      </trkpt>
      <trkpt lat="46.11862" lon="4.61542">
        <ele>324.8</ele>
        <time>2020-10-24T09:09:05Z</time>
      </trkpt>
      <trkpt lat="46.11862" lon="4.61542">
        <ele>325</ele>
        <time>2020-10-24T09:09:06Z</time>
      </trkpt>
      <trkpt lat="46.11862" lon="4.61542">
        <ele>325</ele>
        <time>2020-10-24T09:09:07Z</time>
      </trkpt>
      <trkpt lat="46.11862" lon="4.61542">
        <ele>325</ele>
        <time>2020-10-24T09:09:08Z</time>
      </trkpt>
      <trkpt lat="46.11862" lon="4.61542">
        <ele>324.8</ele>
        <time>2020-10-24T09:09:09Z</time>
      </trkpt>
      <trkpt lat="46.11862" lon="4.61542">
        <ele>324.8</ele>
        <time>2020-10-24T09:09:10Z</time>
      </trkpt>
      <trkpt lat="46.11862" lon="4.61542">
        <ele>324.8</ele>
        <time>2020-10-24T09:09:11Z</time>
      </trkpt>
      <trkpt lat="46.11862" lon="4.61542">
        <ele>324.6</ele>
        <time>2020-10-24T09:09:12Z</time>
      </trkpt>
      <trkpt lat="46.11862" lon="4.61542">
        <ele>324.2</ele>
        <time>2020-10-24T09:09:13Z</time>
      </trkpt>
      <trkpt lat="46.11862" lon="4.61542">
        <ele>324</ele>
        <time>2020-10-24T09:09:14Z</time>
      </trkpt>
      <trkpt lat="46.11862" lon="4.61542">
        <ele>324</ele>
        <time>2020-10-24T09:09:15Z</time>
      </trkpt>
      <trkpt lat="46.11863" lon="4.6154">
        <ele>324.2</ele>
        <time>2020-10-24T09:09:16Z</time>
      </trkpt>
      <trkpt lat="46.11863" lon="4.6154">
        <ele>324.2</ele>
        <time>2020-10-24T09:09:17Z</time>
      </trkpt>
      <trkpt lat="46.11863" lon="4.6154">
        <ele>324</ele>
        <time>2020-10-24T09:09:18Z</time>
      </trkpt>
      <trkpt lat="46.11863" lon="4.6154">
        <ele>323.8</ele>
        <time>2020-10-24T09:09:19Z</time>
      </trkpt>
      <trkpt lat="46.11863" lon="4.6154">
        <ele>323.8</ele>
        <time>2020-10-24T09:09:20Z</time>
      </trkpt>
      <trkpt lat="46.11863" lon="4.6154">
        <ele>324</ele>
        <time>2020-10-24T09:09:21Z</time>
      </trkpt>
      <trkpt lat="46.11863" lon="4.6154">
        <ele>323.8</ele>
        <time>2020-10-24T09:09:22Z</time>
      </trkpt>
      <trkpt lat="46.11863" lon="4.6154">
        <ele>323.8</ele>
        <time>2020-10-24T09:09:23Z</time>
      </trkpt>
      <trkpt lat="46.11863" lon="4.6154">
        <ele>323.6</ele>
        <time>2020-10-24T09:09:24Z</time>
      </trkpt>
      <trkpt lat="46.11863" lon="4.6154">
        <ele>323.8</ele>
        <time>2020-10-24T09:09:25Z</time>
      </trkpt>
      <trkpt lat="46.11863" lon="4.6154">
        <ele>324</ele>
        <time>2020-10-24T09:09:26Z</time>
      </trkpt>
      <trkpt lat="46.11863" lon="4.6154">
        <ele>324.2</ele>
        <time>2020-10-24T09:09:27Z</time>
      </trkpt>
      <trkpt lat="46.11864" lon="4.61538">
        <ele>324.2</ele>
        <time>2020-10-24T09:09:28Z</time>
      </trkpt>
      <trkpt lat="46.11864" lon="4.61538">
        <ele>323.8</ele>
        <time>2020-10-24T09:09:29Z</time>
      </trkpt>
      <trkpt lat="46.11864" lon="4.61538">
        <ele>323.8</ele>
        <time>2020-10-24T09:09:30Z</time>
      </trkpt>
      <trkpt lat="46.11864" lon="4.61538">
        <ele>323.8</ele>
        <time>2020-10-24T09:09:31Z</time>
      </trkpt>
      <trkpt lat="46.11864" lon="4.61538">
        <ele>324</ele>
        <time>2020-10-24T09:09:32Z</time>
      </trkpt>
      <trkpt lat="46.11866" lon="4.61538">
        <ele>324</ele>
        <time>2020-10-24T09:09:33Z</time>
      </trkpt>
      <trkpt lat="46.11866" lon="4.61538">
        <ele>324</ele>
        <time>2020-10-24T09:09:34Z</time>
      </trkpt>
      <trkpt lat="46.11866" lon="4.61538">
        <ele>323.8</ele>
        <time>2020-10-24T09:09:35Z</time>
      </trkpt>
      <trkpt lat="46.11866" lon="4.61538">
        <ele>323.8</ele>
        <time>2020-10-24T09:09:36Z</time>
      </trkpt>
      <trkpt lat="46.11866" lon="4.61538">
        <ele>324</ele>
        <time>2020-10-24T09:09:37Z</time>
      </trkpt>
      <trkpt lat="46.11866" lon="4.61538">
        <ele>324</ele>
        <time>2020-10-24T09:09:38Z</time>
      </trkpt>
      <trkpt lat="46.11865" lon="4.61539">
        <ele>324.2</ele>
        <time>2020-10-24T09:09:39Z</time>
      </trkpt>
      <trkpt lat="46.11865" lon="4.61539">
        <ele>324.2</ele>
        <time>2020-10-24T09:09:40Z</time>
      </trkpt>
      <trkpt lat="46.11865" lon="4.61539">
        <ele>324.4</ele>
        <time>2020-10-24T09:09:41Z</time>
      </trkpt>
      <trkpt lat="46.11865" lon="4.61539">
        <ele>324</ele>
        <time>2020-10-24T09:09:42Z</time>
      </trkpt>
      <trkpt lat="46.11865" lon="4.61539">
        <ele>323.8</ele>
        <time>2020-10-24T09:09:43Z</time>
      </trkpt>
      <trkpt lat="46.11865" lon="4.61539">
        <ele>323.6</ele>
        <time>2020-10-24T09:09:44Z</time>
      </trkpt>
      <trkpt lat="46.11865" lon="4.61539">
        <ele>323.6</ele>
        <time>2020-10-24T09:09:45Z</time>
      </trkpt>
      <trkpt lat="46.11863" lon="4.61537">
        <ele>323.6</ele>
        <time>2020-10-24T09:09:46Z</time>
      </trkpt>
      <trkpt lat="46.11863" lon="4.61537">
        <ele>323.8</ele>
        <time>2020-10-24T09:09:47Z</time>
      </trkpt>
      <trkpt lat="46.11863" lon="4.61537">
        <ele>324</ele>
        <time>2020-10-24T09:09:48Z</time>
      </trkpt>
      <trkpt lat="46.11863" lon="4.61537">
        <ele>323.8</ele>
        <time>2020-10-24T09:09:49Z</time>
      </trkpt>
      <trkpt lat="46.11863" lon="4.61537">
        <ele>323.6</ele>
        <time>2020-10-24T09:09:50Z</time>
      </trkpt>
      <trkpt lat="46.11863" lon="4.61537">
        <ele>323.4</ele>
        <time>2020-10-24T09:09:51Z</time>
      </trkpt>
      <trkpt lat="46.11863" lon="4.61537">
        <ele>323.4</ele>
        <time>2020-10-24T09:09:52Z</time>
      </trkpt>
      <trkpt lat="46.11863" lon="4.61537">
        <ele>323.4</ele>
        <time>2020-10-24T09:09:53Z</time>
      </trkpt>
      <trkpt lat="46.11864" lon="4.61539">
        <ele>323.4</ele>
        <time>2020-10-24T09:09:54Z</time>
      </trkpt>
      <trkpt lat="46.11864" lon="4.61539">
        <ele>323.6</ele>
        <time>2020-10-24T09:09:55Z</time>
      </trkpt>
      <trkpt lat="46.11864" lon="4.61539">
        <ele>324.2</ele>
        <time>2020-10-24T09:09:56Z</time>
      </trkpt>
      <trkpt lat="46.11864" lon="4.61539">
        <ele>324.6</ele>
        <time>2020-10-24T09:09:57Z</time>
      </trkpt>
      <trkpt lat="46.11864" lon="4.61539">
        <ele>324.6</ele>
        <time>2020-10-24T09:09:58Z</time>
      </trkpt>
      <trkpt lat="46.11864" lon="4.61539">
        <ele>324.4</ele>
        <time>2020-10-24T09:09:59Z</time>
      </trkpt>
      <trkpt lat="46.11864" lon="4.61539">
        <ele>324.4</ele>
        <time>2020-10-24T09:10:01Z</time>
      </trkpt>
      <trkpt lat="46.11864" lon="4.61539">
        <ele>324.2</ele>
        <time>2020-10-24T09:10:02Z</time>
      </trkpt>
      <trkpt lat="46.11864" lon="4.61539">
        <ele>324.4</ele>
        <time>2020-10-24T09:10:03Z</time>
      </trkpt>
      <trkpt lat="46.11864" lon="4.61539">
        <ele>324.6</ele>
        <time>2020-10-24T09:10:04Z</time>
      </trkpt>
      <trkpt lat="46.11864" lon="4.61539">
        <ele>324.6</ele>
        <time>2020-10-24T09:10:05Z</time>
      </trkpt>
      <trkpt lat="46.11864" lon="4.61539">
        <ele>324.8</ele>
        <time>2020-10-24T09:10:06Z</time>
      </trkpt>
      <trkpt lat="46.11864" lon="4.61539">
        <ele>324.8</ele>
        <time>2020-10-24T09:10:07Z</time>
      </trkpt>
      <trkpt lat="46.11864" lon="4.61539">
        <ele>324.8</ele>
        <time>2020-10-24T09:10:08Z</time>
      </trkpt>
      <trkpt lat="46.11864" lon="4.61539">
        <ele>325</ele>
        <time>2020-10-24T09:10:09Z</time>
      </trkpt>
      <trkpt lat="46.11864" lon="4.61539">
        <ele>325</ele>
        <time>2020-10-24T09:10:10Z</time>
      </trkpt>
      <trkpt lat="46.11864" lon="4.61539">
        <ele>325.2</ele>
        <time>2020-10-24T09:10:11Z</time>
      </trkpt>
      <trkpt lat="46.11864" lon="4.61539">
        <ele>325.4</ele>
        <time>2020-10-24T09:10:12Z</time>
      </trkpt>
      <trkpt lat="46.11864" lon="4.61539">
        <ele>326</ele>
        <time>2020-10-24T09:10:13Z</time>
      </trkpt>
      <trkpt lat="46.11864" lon="4.61539">
        <ele>326.4</ele>
        <time>2020-10-24T09:10:14Z</time>
      </trkpt>
      <trkpt lat="46.11864" lon="4.61539">
        <ele>326.6</ele>
        <time>2020-10-24T09:10:15Z</time>
      </trkpt>
      <trkpt lat="46.11864" lon="4.61539">
        <ele>327</ele>
        <time>2020-10-24T09:10:16Z</time>
      </trkpt>
      <trkpt lat="46.11864" lon="4.61539">
        <ele>327.4</ele>
        <time>2020-10-24T09:10:17Z</time>
      </trkpt>
      <trkpt lat="46.11864" lon="4.61539">
        <ele>327.6</ele>
        <time>2020-10-24T09:10:18Z</time>
      </trkpt>
      <trkpt lat="46.11864" lon="4.61539">
        <ele>327.6</ele>
        <time>2020-10-24T09:10:19Z</time>
      </trkpt>
      <trkpt lat="46.11864" lon="4.61539">
        <ele>327.6</ele>
        <time>2020-10-24T09:10:20Z</time>
      </trkpt>
      <trkpt lat="46.11864" lon="4.61539">
        <ele>327.8</ele>
        <time>2020-10-24T09:10:21Z</time>
      </trkpt>
      <trkpt lat="46.11864" lon="4.61539">
        <ele>327.8</ele>
        <time>2020-10-24T09:10:22Z</time>
      </trkpt>
      <trkpt lat="46.11864" lon="4.61539">
        <ele>327.8</ele>
        <time>2020-10-24T09:10:23Z</time>
      </trkpt>
      <trkpt lat="46.11864" lon="4.61539">
        <ele>327.8</ele>
        <time>2020-10-24T09:10:24Z</time>
      </trkpt>
      <trkpt lat="46.11864" lon="4.61539">
        <ele>328</ele>
        <time>2020-10-24T09:10:25Z</time>
      </trkpt>
      <trkpt lat="46.11864" lon="4.61539">
        <ele>328.2</ele>
        <time>2020-10-24T09:10:26Z</time>
      </trkpt>
      <trkpt lat="46.11864" lon="4.61539">
        <ele>328</ele>
        <time>2020-10-24T09:10:27Z</time>
      </trkpt>
      <trkpt lat="46.11864" lon="4.61539">
        <ele>328</ele>
        <time>2020-10-24T09:10:28Z</time>
      </trkpt>
      <trkpt lat="46.11864" lon="4.61539">
        <ele>328.2</ele>
        <time>2020-10-24T09:10:29Z</time>
      </trkpt>
      <trkpt lat="46.11864" lon="4.61539">
        <ele>328.2</ele>
        <time>2020-10-24T09:10:30Z</time>
      </trkpt>
      <trkpt lat="46.11864" lon="4.61539">
        <ele>328.2</ele>
        <time>2020-10-24T09:10:31Z</time>
      </trkpt>
      <trkpt lat="46.11864" lon="4.61539">
        <ele>328.2</ele>
        <time>2020-10-24T09:10:32Z</time>
      </trkpt>
      <trkpt lat="46.11864" lon="4.61539">
        <ele>328.2</ele>
        <time>2020-10-24T09:10:33Z</time>
      </trkpt>
      <trkpt lat="46.11864" lon="4.61539">
        <ele>328.4</ele>
        <time>2020-10-24T09:10:34Z</time>
      </trkpt>
      <trkpt lat="46.11864" lon="4.61539">
        <ele>328.4</ele>
        <time>2020-10-24T09:10:35Z</time>
      </trkpt>
      <trkpt lat="46.11864" lon="4.61539">
        <ele>328.4</ele>
        <time>2020-10-24T09:10:36Z</time>
      </trkpt>
      <trkpt lat="46.11864" lon="4.61539">
        <ele>328.6</ele>
        <time>2020-10-24T09:10:37Z</time>
      </trkpt>
      <trkpt lat="46.11864" lon="4.61539">
        <ele>328.6</ele>
        <time>2020-10-24T09:10:38Z</time>
      </trkpt>
      <trkpt lat="46.11864" lon="4.61539">
        <ele>328.4</ele>
        <time>2020-10-24T09:10:39Z</time>
      </trkpt>
      <trkpt lat="46.11864" lon="4.61539">
        <ele>328.4</ele>
        <time>2020-10-24T09:10:40Z</time>
      </trkpt>
      <trkpt lat="46.11864" lon="4.61539">
        <ele>328.2</ele>
        <time>2020-10-24T09:10:41Z</time>
      </trkpt>
      <trkpt lat="46.11864" lon="4.61539">
        <ele>328.2</ele>
        <time>2020-10-24T09:10:42Z</time>
      </trkpt>
      <trkpt lat="46.11864" lon="4.61539">
        <ele>328.2</ele>
        <time>2020-10-24T09:10:43Z</time>
      </trkpt>
      <trkpt lat="46.11864" lon="4.61539">
        <ele>328.2</ele>
        <time>2020-10-24T09:10:44Z</time>
      </trkpt>
      <trkpt lat="46.11864" lon="4.61539">
        <ele>328.4</ele>
        <time>2020-10-24T09:10:45Z</time>
      </trkpt>
      <trkpt lat="46.11865" lon="4.61542">
        <ele>328.2</ele>
        <time>2020-10-24T09:10:46Z</time>
      </trkpt>
      <trkpt lat="46.11865" lon="4.61542">
        <ele>328</ele>
        <time>2020-10-24T09:10:47Z</time>
      </trkpt>
      <trkpt lat="46.11865" lon="4.61542">
        <ele>327.8</ele>
        <time>2020-10-24T09:10:48Z</time>
      </trkpt>
      <trkpt lat="46.11865" lon="4.61542">
        <ele>327.6</ele>
        <time>2020-10-24T09:10:49Z</time>
      </trkpt>
      <trkpt lat="46.11865" lon="4.61542">
        <ele>327.4</ele>
        <time>2020-10-24T09:10:50Z</time>
      </trkpt>
      <trkpt lat="46.11865" lon="4.61542">
        <ele>327.6</ele>
        <time>2020-10-24T09:10:51Z</time>
      </trkpt>
      <trkpt lat="46.11865" lon="4.61542">
        <ele>327.6</ele>
        <time>2020-10-24T09:10:52Z</time>
      </trkpt>
      <trkpt lat="46.11865" lon="4.61542">
        <ele>327.6</ele>
        <time>2020-10-24T09:10:53Z</time>
      </trkpt>
      <trkpt lat="46.11865" lon="4.61542">
        <ele>327.8</ele>
        <time>2020-10-24T09:10:54Z</time>
      </trkpt>
      <trkpt lat="46.11865" lon="4.61542">
        <ele>327.8</ele>
        <time>2020-10-24T09:10:55Z</time>
      </trkpt>
      <trkpt lat="46.11865" lon="4.61542">
        <ele>327.8</ele>
        <time>2020-10-24T09:10:56Z</time>
      </trkpt>
      <trkpt lat="46.11865" lon="4.61542">
        <ele>328</ele>
        <time>2020-10-24T09:10:57Z</time>
      </trkpt>
      <trkpt lat="46.11865" lon="4.61542">
        <ele>328</ele>
        <time>2020-10-24T09:10:58Z</time>
      </trkpt>
      <trkpt lat="46.11865" lon="4.61542">
        <ele>328</ele>
        <time>2020-10-24T09:10:59Z</time>
      </trkpt>
      <trkpt lat="46.11865" lon="4.61542">
        <ele>328</ele>
        <time>2020-10-24T09:11:00Z</time>
      </trkpt>
      <trkpt lat="46.11865" lon="4.61542">
        <ele>328</ele>
        <time>2020-10-24T09:11:01Z</time>
      </trkpt>
      <trkpt lat="46.11865" lon="4.61542">
        <ele>328</ele>
        <time>2020-10-24T09:11:02Z</time>
      </trkpt>
      <trkpt lat="46.11865" lon="4.61542">
        <ele>328</ele>
        <time>2020-10-24T09:11:03Z</time>
      </trkpt>
      <trkpt lat="46.11865" lon="4.61542">
        <ele>328</ele>
        <time>2020-10-24T09:11:04Z</time>
      </trkpt>
      <trkpt lat="46.11865" lon="4.61542">
        <ele>328</ele>
        <time>2020-10-24T09:11:05Z</time>
      </trkpt>
      <trkpt lat="46.11865" lon="4.61542">
        <ele>328</ele>
        <time>2020-10-24T09:11:06Z</time>
      </trkpt>
      <trkpt lat="46.11865" lon="4.61542">
        <ele>328</ele>
        <time>2020-10-24T09:11:07Z</time>
      </trkpt>
      <trkpt lat="46.11865" lon="4.61542">
        <ele>328</ele>
        <time>2020-10-24T09:11:08Z</time>
      </trkpt>
      <trkpt lat="46.11865" lon="4.61542">
        <ele>328.2</ele>
        <time>2020-10-24T09:11:09Z</time>
      </trkpt>
      <trkpt lat="46.11865" lon="4.61542">
        <ele>327.8</ele>
        <time>2020-10-24T09:11:10Z</time>
      </trkpt>
      <trkpt lat="46.11865" lon="4.61542">
        <ele>327.4</ele>
        <time>2020-10-24T09:11:11Z</time>
      </trkpt>
      <trkpt lat="46.11865" lon="4.61542">
        <ele>327.2</ele>
        <time>2020-10-24T09:11:12Z</time>
      </trkpt>
      <trkpt lat="46.11865" lon="4.61542">
        <ele>327</ele>
        <time>2020-10-24T09:11:13Z</time>
      </trkpt>
      <trkpt lat="46.11865" lon="4.61542">
        <ele>326.8</ele>
        <time>2020-10-24T09:11:14Z</time>
      </trkpt>
      <trkpt lat="46.11865" lon="4.61542">
        <ele>326.6</ele>
        <time>2020-10-24T09:11:15Z</time>
      </trkpt>
      <trkpt lat="46.11865" lon="4.61542">
        <ele>326.4</ele>
        <time>2020-10-24T09:11:16Z</time>
      </trkpt>
      <trkpt lat="46.11865" lon="4.61542">
        <ele>326.4</ele>
        <time>2020-10-24T09:11:17Z</time>
      </trkpt>
      <trkpt lat="46.11865" lon="4.61542">
        <ele>326.2</ele>
        <time>2020-10-24T09:11:18Z</time>
      </trkpt>
      <trkpt lat="46.11865" lon="4.61542">
        <ele>326.2</ele>
        <time>2020-10-24T09:11:19Z</time>
      </trkpt>
      <trkpt lat="46.11865" lon="4.61542">
        <ele>326</ele>
        <time>2020-10-24T09:11:20Z</time>
      </trkpt>
      <trkpt lat="46.11865" lon="4.61542">
        <ele>326</ele>
        <time>2020-10-24T09:11:21Z</time>
      </trkpt>
      <trkpt lat="46.11865" lon="4.61542">
        <ele>326</ele>
        <time>2020-10-24T09:11:22Z</time>
      </trkpt>
      <trkpt lat="46.11865" lon="4.61542">
        <ele>326</ele>
        <time>2020-10-24T09:11:23Z</time>
      </trkpt>
      <trkpt lat="46.11865" lon="4.61542">
        <ele>326</ele>
        <time>2020-10-24T09:11:24Z</time>
      </trkpt>
      <trkpt lat="46.11865" lon="4.61542">
        <ele>326.6</ele>
        <time>2020-10-24T09:11:25Z</time>
      </trkpt>
      <trkpt lat="46.11865" lon="4.61542">
        <ele>326.8</ele>
        <time>2020-10-24T09:11:26Z</time>
      </trkpt>
      <trkpt lat="46.11863" lon="4.61544">
        <ele>327.2</ele>
        <time>2020-10-24T09:11:27Z</time>
      </trkpt>
      <trkpt lat="46.11863" lon="4.61544">
        <ele>326.8</ele>
        <time>2020-10-24T09:11:28Z</time>
      </trkpt>
      <trkpt lat="46.11863" lon="4.61544">
        <ele>326.8</ele>
        <time>2020-10-24T09:11:29Z</time>
      </trkpt>
      <trkpt lat="46.11863" lon="4.61544">
        <ele>326.6</ele>
        <time>2020-10-24T09:11:30Z</time>
      </trkpt>
      <trkpt lat="46.11863" lon="4.61544">
        <ele>326.4</ele>
        <time>2020-10-24T09:11:31Z</time>
      </trkpt>
      <trkpt lat="46.11863" lon="4.61544">
        <ele>326.4</ele>
        <time>2020-10-24T09:11:32Z</time>
      </trkpt>
      <trkpt lat="46.11863" lon="4.61544">
        <ele>326.2</ele>
        <time>2020-10-24T09:11:33Z</time>
      </trkpt>
      <trkpt lat="46.11863" lon="4.61544">
        <ele>326.2</ele>
        <time>2020-10-24T09:11:34Z</time>
      </trkpt>
      <trkpt lat="46.11863" lon="4.61544">
        <ele>326.2</ele>
        <time>2020-10-24T09:11:35Z</time>
      </trkpt>
      <trkpt lat="46.11863" lon="4.61544">
        <ele>326</ele>
        <time>2020-10-24T09:11:36Z</time>
      </trkpt>
      <trkpt lat="46.11863" lon="4.61544">
        <ele>326</ele>
        <time>2020-10-24T09:11:37Z</time>
      </trkpt>
      <trkpt lat="46.11863" lon="4.61544">
        <ele>326</ele>
        <time>2020-10-24T09:11:38Z</time>
      </trkpt>
      <trkpt lat="46.11863" lon="4.61544">
        <ele>326.2</ele>
        <time>2020-10-24T09:11:39Z</time>
      </trkpt>
      <trkpt lat="46.11863" lon="4.61544">
        <ele>326.2</ele>
        <time>2020-10-24T09:11:40Z</time>
      </trkpt>
      <trkpt lat="46.11863" lon="4.61544">
        <ele>326.4</ele>
        <time>2020-10-24T09:11:41Z</time>
      </trkpt>
      <trkpt lat="46.11863" lon="4.61544">
        <ele>326.4</ele>
        <time>2020-10-24T09:11:42Z</time>
      </trkpt>
      <trkpt lat="46.11863" lon="4.61544">
        <ele>326.4</ele>
        <time>2020-10-24T09:11:43Z</time>
      </trkpt>
      <trkpt lat="46.11863" lon="4.61544">
        <ele>326.4</ele>
        <time>2020-10-24T09:11:44Z</time>
      </trkpt>
      <trkpt lat="46.11863" lon="4.61544">
        <ele>326.2</ele>
        <time>2020-10-24T09:11:45Z</time>
      </trkpt>
      <trkpt lat="46.11863" lon="4.61544">
        <ele>326.2</ele>
        <time>2020-10-24T09:11:46Z</time>
      </trkpt>
      <trkpt lat="46.11863" lon="4.61544">
        <ele>326.2</ele>
        <time>2020-10-24T09:11:47Z</time>
      </trkpt>
      <trkpt lat="46.11863" lon="4.61544">
        <ele>326.4</ele>
        <time>2020-10-24T09:11:48Z</time>
      </trkpt>
      <trkpt lat="46.11863" lon="4.61544">
        <ele>326.4</ele>
        <time>2020-10-24T09:11:49Z</time>
      </trkpt>
      <trkpt lat="46.11863" lon="4.61544">
        <ele>326.4</ele>
        <time>2020-10-24T09:11:50Z</time>
      </trkpt>
      <trkpt lat="46.11863" lon="4.61544">
        <ele>326.2</ele>
        <time>2020-10-24T09:11:51Z</time>
      </trkpt>
      <trkpt lat="46.11863" lon="4.61544">
        <ele>326.2</ele>
        <time>2020-10-24T09:11:52Z</time>
      </trkpt>
      <trkpt lat="46.11863" lon="4.61544">
        <ele>326.2</ele>
        <time>2020-10-24T09:11:53Z</time>
      </trkpt>
      <trkpt lat="46.11863" lon="4.61544">
        <ele>326.2</ele>
        <time>2020-10-24T09:11:54Z</time>
      </trkpt>
      <trkpt lat="46.11863" lon="4.61544">
        <ele>326.2</ele>
        <time>2020-10-24T09:11:55Z</time>
      </trkpt>
      <trkpt lat="46.11863" lon="4.61544">
        <ele>326.2</ele>
        <time>2020-10-24T09:11:56Z</time>
      </trkpt>
      <trkpt lat="46.11863" lon="4.61544">
        <ele>326.2</ele>
        <time>2020-10-24T09:11:57Z</time>
      </trkpt>
      <trkpt lat="46.11863" lon="4.61544">
        <ele>326.2</ele>
        <time>2020-10-24T09:11:58Z</time>
      </trkpt>
      <trkpt lat="46.11863" lon="4.61544">
        <ele>326.2</ele>
        <time>2020-10-24T09:11:59Z</time>
      </trkpt>
      <trkpt lat="46.11863" lon="4.61544">
        <ele>326.2</ele>
        <time>2020-10-24T09:12:00Z</time>
      </trkpt>
      <trkpt lat="46.11863" lon="4.61544">
        <ele>326.2</ele>
        <time>2020-10-24T09:12:01Z</time>
      </trkpt>
      <trkpt lat="46.11863" lon="4.61544">
        <ele>326.4</ele>
        <time>2020-10-24T09:12:02Z</time>
      </trkpt>
      <trkpt lat="46.11863" lon="4.61544">
        <ele>326.4</ele>
        <time>2020-10-24T09:12:03Z</time>
      </trkpt>
      <trkpt lat="46.11863" lon="4.61544">
        <ele>326.4</ele>
        <time>2020-10-24T09:12:04Z</time>
      </trkpt>
      <trkpt lat="46.11863" lon="4.61544">
        <ele>326.6</ele>
        <time>2020-10-24T09:12:05Z</time>
      </trkpt>
      <trkpt lat="46.11863" lon="4.61544">
        <ele>326.6</ele>
        <time>2020-10-24T09:12:06Z</time>
      </trkpt>
      <trkpt lat="46.11863" lon="4.61544">
        <ele>326.6</ele>
        <time>2020-10-24T09:12:07Z</time>
      </trkpt>
      <trkpt lat="46.11863" lon="4.61544">
        <ele>326.4</ele>
        <time>2020-10-24T09:12:08Z</time>
      </trkpt>
      <trkpt lat="46.11861" lon="4.61542">
        <ele>326.4</ele>
        <time>2020-10-24T09:12:09Z</time>
      </trkpt>
      <trkpt lat="46.11861" lon="4.61542">
        <ele>326.4</ele>
        <time>2020-10-24T09:12:10Z</time>
      </trkpt>
      <trkpt lat="46.11861" lon="4.61542">
        <ele>326.4</ele>
        <time>2020-10-24T09:12:11Z</time>
      </trkpt>
      <trkpt lat="46.11861" lon="4.61542">
        <ele>326.4</ele>
        <time>2020-10-24T09:12:12Z</time>
      </trkpt>
      <trkpt lat="46.11861" lon="4.61542">
        <ele>326.4</ele>
        <time>2020-10-24T09:12:13Z</time>
      </trkpt>
      <trkpt lat="46.11861" lon="4.61542">
        <ele>326.4</ele>
        <time>2020-10-24T09:12:14Z</time>
      </trkpt>
      <trkpt lat="46.11861" lon="4.61542">
        <ele>326.2</ele>
        <time>2020-10-24T09:12:15Z</time>
      </trkpt>
      <trkpt lat="46.11861" lon="4.61542">
        <ele>326.2</ele>
        <time>2020-10-24T09:12:16Z</time>
      </trkpt>
      <trkpt lat="46.11861" lon="4.61542">
        <ele>326.2</ele>
        <time>2020-10-24T09:12:17Z</time>
      </trkpt>
      <trkpt lat="46.11861" lon="4.61542">
        <ele>326.2</ele>
        <time>2020-10-24T09:12:18Z</time>
      </trkpt>
      <trkpt lat="46.11861" lon="4.61542">
        <ele>326.2</ele>
        <time>2020-10-24T09:12:19Z</time>
      </trkpt>
      <trkpt lat="46.11861" lon="4.61542">
        <ele>326.4</ele>
        <time>2020-10-24T09:12:20Z</time>
      </trkpt>
      <trkpt lat="46.11861" lon="4.61542">
        <ele>326.4</ele>
        <time>2020-10-24T09:12:21Z</time>
      </trkpt>
      <trkpt lat="46.11861" lon="4.61542">
        <ele>326.4</ele>
        <time>2020-10-24T09:12:22Z</time>
      </trkpt>
      <trkpt lat="46.11861" lon="4.61542">
        <ele>326.4</ele>
        <time>2020-10-24T09:12:23Z</time>
      </trkpt>
      <trkpt lat="46.11861" lon="4.61542">
        <ele>326.6</ele>
        <time>2020-10-24T09:12:24Z</time>
      </trkpt>
      <trkpt lat="46.11861" lon="4.61542">
        <ele>326.6</ele>
        <time>2020-10-24T09:12:25Z</time>
      </trkpt>
      <trkpt lat="46.11861" lon="4.61542">
        <ele>326.6</ele>
        <time>2020-10-24T09:12:26Z</time>
      </trkpt>
      <trkpt lat="46.11861" lon="4.61542">
        <ele>326.6</ele>
        <time>2020-10-24T09:12:27Z</time>
      </trkpt>
      <trkpt lat="46.11861" lon="4.61542">
        <ele>326.6</ele>
        <time>2020-10-24T09:12:28Z</time>
      </trkpt>
      <trkpt lat="46.11861" lon="4.61542">
        <ele>326.8</ele>
        <time>2020-10-24T09:12:29Z</time>
      </trkpt>
      <trkpt lat="46.11861" lon="4.61542">
        <ele>326.6</ele>
        <time>2020-10-24T09:12:30Z</time>
      </trkpt>
      <trkpt lat="46.11861" lon="4.61542">
        <ele>326.8</ele>
        <time>2020-10-24T09:12:31Z</time>
      </trkpt>
      <trkpt lat="46.11861" lon="4.61542">
        <ele>326.6</ele>
        <time>2020-10-24T09:12:32Z</time>
      </trkpt>
      <trkpt lat="46.11861" lon="4.61542">
        <ele>326.6</ele>
        <time>2020-10-24T09:12:33Z</time>
      </trkpt>
      <trkpt lat="46.11861" lon="4.61542">
        <ele>326.6</ele>
        <time>2020-10-24T09:12:34Z</time>
      </trkpt>
      <trkpt lat="46.11861" lon="4.61542">
        <ele>326.6</ele>
        <time>2020-10-24T09:12:35Z</time>
      </trkpt>
      <trkpt lat="46.11861" lon="4.61542">
        <ele>326.6</ele>
        <time>2020-10-24T09:12:36Z</time>
      </trkpt>
      <trkpt lat="46.11861" lon="4.61542">
        <ele>326.4</ele>
        <time>2020-10-24T09:12:37Z</time>
      </trkpt>
      <trkpt lat="46.11861" lon="4.61542">
        <ele>326.8</ele>
        <time>2020-10-24T09:12:38Z</time>
      </trkpt>
      <trkpt lat="46.11861" lon="4.61542">
        <ele>327.2</ele>
        <time>2020-10-24T09:12:39Z</time>
      </trkpt>
      <trkpt lat="46.11861" lon="4.61542">
        <ele>327.2</ele>
        <time>2020-10-24T09:12:40Z</time>
      </trkpt>
      <trkpt lat="46.11861" lon="4.61542">
        <ele>327.4</ele>
        <time>2020-10-24T09:12:41Z</time>
      </trkpt>
      <trkpt lat="46.11861" lon="4.61542">
        <ele>327.2</ele>
        <time>2020-10-24T09:12:42Z</time>
      </trkpt>
      <trkpt lat="46.11861" lon="4.61542">
        <ele>327</ele>
        <time>2020-10-24T09:12:43Z</time>
      </trkpt>
      <trkpt lat="46.11861" lon="4.61542">
        <ele>326.8</ele>
        <time>2020-10-24T09:12:44Z</time>
      </trkpt>
      <trkpt lat="46.11861" lon="4.61542">
        <ele>326.8</ele>
        <time>2020-10-24T09:12:45Z</time>
      </trkpt>
      <trkpt lat="46.11861" lon="4.61542">
        <ele>326.8</ele>
        <time>2020-10-24T09:12:46Z</time>
      </trkpt>
      <trkpt lat="46.11861" lon="4.61542">
        <ele>326.6</ele>
        <time>2020-10-24T09:12:47Z</time>
      </trkpt>
      <trkpt lat="46.11861" lon="4.61542">
        <ele>326.6</ele>
        <time>2020-10-24T09:12:48Z</time>
      </trkpt>
      <trkpt lat="46.11861" lon="4.61542">
        <ele>326.6</ele>
        <time>2020-10-24T09:12:49Z</time>
      </trkpt>
      <trkpt lat="46.11861" lon="4.61542">
        <ele>326.8</ele>
        <time>2020-10-24T09:12:50Z</time>
      </trkpt>
      <trkpt lat="46.11861" lon="4.61542">
        <ele>326.6</ele>
        <time>2020-10-24T09:12:51Z</time>
      </trkpt>
      <trkpt lat="46.11861" lon="4.61542">
        <ele>326.6</ele>
        <time>2020-10-24T09:12:52Z</time>
      </trkpt>
      <trkpt lat="46.11861" lon="4.61542">
        <ele>326.6</ele>
        <time>2020-10-24T09:12:53Z</time>
      </trkpt>
      <trkpt lat="46.11861" lon="4.61542">
        <ele>326.6</ele>
        <time>2020-10-24T09:12:54Z</time>
      </trkpt>
      <trkpt lat="46.11861" lon="4.61542">
        <ele>326.8</ele>
        <time>2020-10-24T09:12:55Z</time>
      </trkpt>
      <trkpt lat="46.11861" lon="4.61542">
        <ele>327</ele>
        <time>2020-10-24T09:12:56Z</time>
      </trkpt>
      <trkpt lat="46.11861" lon="4.61542">
        <ele>327</ele>
        <time>2020-10-24T09:12:57Z</time>
      </trkpt>
      <trkpt lat="46.11861" lon="4.61542">
        <ele>327</ele>
        <time>2020-10-24T09:12:58Z</time>
      </trkpt>
      <trkpt lat="46.11861" lon="4.61542">
        <ele>327.2</ele>
        <time>2020-10-24T09:12:59Z</time>
      </trkpt>
      <trkpt lat="46.11861" lon="4.61542">
        <ele>327</ele>
        <time>2020-10-24T09:13:00Z</time>
      </trkpt>
      <trkpt lat="46.11861" lon="4.61542">
        <ele>327.2</ele>
        <time>2020-10-24T09:13:01Z</time>
      </trkpt>
      <trkpt lat="46.11861" lon="4.61542">
        <ele>327.2</ele>
        <time>2020-10-24T09:13:02Z</time>
      </trkpt>
      <trkpt lat="46.11861" lon="4.61542">
        <ele>327.2</ele>
        <time>2020-10-24T09:13:03Z</time>
      </trkpt>
      <trkpt lat="46.11861" lon="4.61542">
        <ele>327.2</ele>
        <time>2020-10-24T09:13:04Z</time>
      </trkpt>
      <trkpt lat="46.11861" lon="4.61542">
        <ele>327.2</ele>
        <time>2020-10-24T09:13:05Z</time>
      </trkpt>
      <trkpt lat="46.11861" lon="4.61542">
        <ele>327.2</ele>
        <time>2020-10-24T09:13:06Z</time>
      </trkpt>
      <trkpt lat="46.11861" lon="4.61542">
        <ele>327.2</ele>
        <time>2020-10-24T09:13:07Z</time>
      </trkpt>
      <trkpt lat="46.11861" lon="4.61542">
        <ele>327.2</ele>
        <time>2020-10-24T09:13:08Z</time>
      </trkpt>
      <trkpt lat="46.11861" lon="4.61542">
        <ele>327.4</ele>
        <time>2020-10-24T09:13:09Z</time>
      </trkpt>
      <trkpt lat="46.11861" lon="4.61542">
        <ele>327.4</ele>
        <time>2020-10-24T09:13:10Z</time>
      </trkpt>
      <trkpt lat="46.11861" lon="4.61542">
        <ele>327.4</ele>
        <time>2020-10-24T09:13:11Z</time>
      </trkpt>
      <trkpt lat="46.11861" lon="4.61542">
        <ele>327.6</ele>
        <time>2020-10-24T09:13:12Z</time>
      </trkpt>
      <trkpt lat="46.11861" lon="4.61542">
        <ele>327.4</ele>
        <time>2020-10-24T09:13:13Z</time>
      </trkpt>
      <trkpt lat="46.11861" lon="4.61542">
        <ele>327.6</ele>
        <time>2020-10-24T09:13:14Z</time>
      </trkpt>
      <trkpt lat="46.11861" lon="4.61542">
        <ele>327.6</ele>
        <time>2020-10-24T09:13:15Z</time>
      </trkpt>
      <trkpt lat="46.11861" lon="4.61542">
        <ele>327.6</ele>
        <time>2020-10-24T09:13:16Z</time>
      </trkpt>
      <trkpt lat="46.11861" lon="4.61542">
        <ele>327.6</ele>
        <time>2020-10-24T09:13:17Z</time>
      </trkpt>
      <trkpt lat="46.11861" lon="4.61542">
        <ele>327.6</ele>
        <time>2020-10-24T09:13:18Z</time>
      </trkpt>
      <trkpt lat="46.11861" lon="4.61542">
        <ele>327.6</ele>
        <time>2020-10-24T09:13:19Z</time>
      </trkpt>
      <trkpt lat="46.11861" lon="4.61542">
        <ele>327.6</ele>
        <time>2020-10-24T09:13:20Z</time>
      </trkpt>
      <trkpt lat="46.11861" lon="4.61542">
        <ele>327.8</ele>
        <time>2020-10-24T09:13:21Z</time>
      </trkpt>
      <trkpt lat="46.11861" lon="4.61542">
        <ele>327.6</ele>
        <time>2020-10-24T09:13:22Z</time>
      </trkpt>
      <trkpt lat="46.11861" lon="4.61542">
        <ele>327.6</ele>
        <time>2020-10-24T09:13:23Z</time>
      </trkpt>
      <trkpt lat="46.11861" lon="4.61542">
        <ele>327.8</ele>
        <time>2020-10-24T09:13:24Z</time>
      </trkpt>
      <trkpt lat="46.11861" lon="4.61542">
        <ele>327.8</ele>
        <time>2020-10-24T09:13:25Z</time>
      </trkpt>
      <trkpt lat="46.11861" lon="4.61542">
        <ele>327.8</ele>
        <time>2020-10-24T09:13:26Z</time>
      </trkpt>
      <trkpt lat="46.11861" lon="4.61542">
        <ele>328</ele>
        <time>2020-10-24T09:13:27Z</time>
      </trkpt>
      <trkpt lat="46.11861" lon="4.61542">
        <ele>328</ele>
        <time>2020-10-24T09:13:28Z</time>
      </trkpt>
      <trkpt lat="46.11861" lon="4.61542">
        <ele>328.2</ele>
        <time>2020-10-24T09:13:29Z</time>
      </trkpt>
      <trkpt lat="46.11861" lon="4.61542">
        <ele>328.2</ele>
        <time>2020-10-24T09:13:30Z</time>
      </trkpt>
      <trkpt lat="46.11861" lon="4.61542">
        <ele>328.2</ele>
        <time>2020-10-24T09:13:31Z</time>
      </trkpt>
      <trkpt lat="46.11861" lon="4.61542">
        <ele>328.2</ele>
        <time>2020-10-24T09:13:32Z</time>
      </trkpt>
      <trkpt lat="46.11861" lon="4.61542">
        <ele>328</ele>
        <time>2020-10-24T09:13:33Z</time>
      </trkpt>
      <trkpt lat="46.11861" lon="4.61542">
        <ele>328</ele>
        <time>2020-10-24T09:13:34Z</time>
      </trkpt>
      <trkpt lat="46.11861" lon="4.61542">
        <ele>328</ele>
        <time>2020-10-24T09:13:35Z</time>
      </trkpt>
      <trkpt lat="46.11861" lon="4.61542">
        <ele>328</ele>
        <time>2020-10-24T09:13:36Z</time>
      </trkpt>
      <trkpt lat="46.11861" lon="4.61542">
        <ele>328.2</ele>
        <time>2020-10-24T09:13:37Z</time>
      </trkpt>
      <trkpt lat="46.11861" lon="4.61542">
        <ele>328.2</ele>
        <time>2020-10-24T09:13:38Z</time>
      </trkpt>
      <trkpt lat="46.11861" lon="4.61542">
        <ele>328.2</ele>
        <time>2020-10-24T09:13:39Z</time>
      </trkpt>
      <trkpt lat="46.11861" lon="4.61542">
        <ele>328.2</ele>
        <time>2020-10-24T09:13:40Z</time>
      </trkpt>
      <trkpt lat="46.11861" lon="4.61542">
        <ele>328.2</ele>
        <time>2020-10-24T09:13:41Z</time>
      </trkpt>
      <trkpt lat="46.11861" lon="4.61542">
        <ele>328.4</ele>
        <time>2020-10-24T09:13:42Z</time>
      </trkpt>
      <trkpt lat="46.11861" lon="4.61542">
        <ele>328.2</ele>
        <time>2020-10-24T09:13:43Z</time>
      </trkpt>
      <trkpt lat="46.11861" lon="4.61542">
        <ele>328.2</ele>
        <time>2020-10-24T09:13:44Z</time>
      </trkpt>
      <trkpt lat="46.11861" lon="4.61542">
        <ele>328.2</ele>
        <time>2020-10-24T09:13:45Z</time>
      </trkpt>
      <trkpt lat="46.11861" lon="4.61542">
        <ele>327.8</ele>
        <time>2020-10-24T09:13:46Z</time>
      </trkpt>
      <trkpt lat="46.11861" lon="4.61542">
        <ele>327.8</ele>
        <time>2020-10-24T09:13:47Z</time>
      </trkpt>
      <trkpt lat="46.11861" lon="4.61542">
        <ele>327.8</ele>
        <time>2020-10-24T09:13:48Z</time>
      </trkpt>
      <trkpt lat="46.11861" lon="4.61542">
        <ele>327.8</ele>
        <time>2020-10-24T09:13:49Z</time>
      </trkpt>
      <trkpt lat="46.11861" lon="4.61542">
        <ele>328</ele>
        <time>2020-10-24T09:13:50Z</time>
      </trkpt>
      <trkpt lat="46.11861" lon="4.61542">
        <ele>327.8</ele>
        <time>2020-10-24T09:13:51Z</time>
      </trkpt>
      <trkpt lat="46.11861" lon="4.61542">
        <ele>327.8</ele>
        <time>2020-10-24T09:13:52Z</time>
      </trkpt>
      <trkpt lat="46.11861" lon="4.61542">
        <ele>327.8</ele>
        <time>2020-10-24T09:13:53Z</time>
      </trkpt>
      <trkpt lat="46.11861" lon="4.61542">
        <ele>327.8</ele>
        <time>2020-10-24T09:13:54Z</time>
      </trkpt>
      <trkpt lat="46.11861" lon="4.61542">
        <ele>327.8</ele>
        <time>2020-10-24T09:13:55Z</time>
      </trkpt>
      <trkpt lat="46.11861" lon="4.61542">
        <ele>327.8</ele>
        <time>2020-10-24T09:13:56Z</time>
      </trkpt>
      <trkpt lat="46.11861" lon="4.61542">
        <ele>328</ele>
        <time>2020-10-24T09:13:57Z</time>
      </trkpt>
      <trkpt lat="46.11861" lon="4.61542">
        <ele>327.8</ele>
        <time>2020-10-24T09:13:58Z</time>
      </trkpt>
      <trkpt lat="46.11861" lon="4.61542">
        <ele>327.6</ele>
        <time>2020-10-24T09:13:59Z</time>
      </trkpt>
      <trkpt lat="46.11861" lon="4.61542">
        <ele>327.4</ele>
        <time>2020-10-24T09:14:00Z</time>
      </trkpt>
      <trkpt lat="46.11861" lon="4.61542">
        <ele>327.6</ele>
        <time>2020-10-24T09:14:01Z</time>
      </trkpt>
      <trkpt lat="46.11861" lon="4.61542">
        <ele>327.6</ele>
        <time>2020-10-24T09:14:02Z</time>
      </trkpt>
      <trkpt lat="46.11861" lon="4.61542">
        <ele>327.6</ele>
        <time>2020-10-24T09:14:03Z</time>
      </trkpt>
      <trkpt lat="46.11861" lon="4.61542">
        <ele>327.6</ele>
        <time>2020-10-24T09:14:04Z</time>
      </trkpt>
      <trkpt lat="46.11861" lon="4.61542">
        <ele>327.8</ele>
        <time>2020-10-24T09:14:05Z</time>
      </trkpt>
      <trkpt lat="46.11861" lon="4.61542">
        <ele>327.8</ele>
        <time>2020-10-24T09:14:06Z</time>
      </trkpt>
      <trkpt lat="46.11861" lon="4.61542">
        <ele>327.8</ele>
        <time>2020-10-24T09:14:07Z</time>
      </trkpt>
      <trkpt lat="46.11861" lon="4.61542">
        <ele>327.8</ele>
        <time>2020-10-24T09:14:08Z</time>
      </trkpt>
      <trkpt lat="46.11861" lon="4.61542">
        <ele>327.8</ele>
        <time>2020-10-24T09:14:09Z</time>
      </trkpt>
      <trkpt lat="46.11861" lon="4.61542">
        <ele>327.8</ele>
        <time>2020-10-24T09:14:10Z</time>
      </trkpt>
      <trkpt lat="46.11861" lon="4.61542">
        <ele>327.8</ele>
        <time>2020-10-24T09:14:11Z</time>
      </trkpt>
      <trkpt lat="46.11861" lon="4.61542">
        <ele>327.8</ele>
        <time>2020-10-24T09:14:12Z</time>
      </trkpt>
      <trkpt lat="46.11861" lon="4.61542">
        <ele>327.8</ele>
        <time>2020-10-24T09:14:13Z</time>
      </trkpt>
      <trkpt lat="46.11861" lon="4.61542">
        <ele>327.6</ele>
        <time>2020-10-24T09:14:14Z</time>
      </trkpt>
      <trkpt lat="46.11861" lon="4.61542">
        <ele>327.6</ele>
        <time>2020-10-24T09:14:15Z</time>
      </trkpt>
      <trkpt lat="46.11859" lon="4.61542">
        <ele>327.4</ele>
        <time>2020-10-24T09:14:16Z</time>
      </trkpt>
      <trkpt lat="46.11859" lon="4.61542">
        <ele>327.6</ele>
        <time>2020-10-24T09:14:17Z</time>
      </trkpt>
      <trkpt lat="46.11859" lon="4.61542">
        <ele>327.8</ele>
        <time>2020-10-24T09:14:18Z</time>
      </trkpt>
      <trkpt lat="46.11857" lon="4.61542">
        <ele>327.6</ele>
        <time>2020-10-24T09:14:19Z</time>
      </trkpt>
      <trkpt lat="46.11857" lon="4.61542">
        <ele>327.8</ele>
        <time>2020-10-24T09:14:20Z</time>
      </trkpt>
      <trkpt lat="46.11856" lon="4.6154">
        <ele>328</ele>
        <time>2020-10-24T09:14:21Z</time>
      </trkpt>
      <trkpt lat="46.11856" lon="4.6154">
        <ele>328</ele>
        <time>2020-10-24T09:14:22Z</time>
      </trkpt>
      <trkpt lat="46.11854" lon="4.61539">
        <ele>328.2</ele>
        <time>2020-10-24T09:14:23Z</time>
      </trkpt>
      <trkpt lat="46.11854" lon="4.61539">
        <ele>328.4</ele>
        <time>2020-10-24T09:14:24Z</time>
      </trkpt>
      <trkpt lat="46.11851" lon="4.61537">
        <ele>328.6</ele>
        <time>2020-10-24T09:14:25Z</time>
      </trkpt>
      <trkpt lat="46.11849" lon="4.61536">
        <ele>329</ele>
        <time>2020-10-24T09:14:26Z</time>
      </trkpt>
      <trkpt lat="46.11846" lon="4.61536">
        <ele>329</ele>
        <time>2020-10-24T09:14:27Z</time>
      </trkpt>
      <trkpt lat="46.11844" lon="4.61534">
        <ele>328.8</ele>
        <time>2020-10-24T09:14:28Z</time>
      </trkpt>
      <trkpt lat="46.11841" lon="4.61533">
        <ele>329.2</ele>
        <time>2020-10-24T09:14:29Z</time>
      </trkpt>
      <trkpt lat="46.11839" lon="4.61533">
        <ele>329.2</ele>
        <time>2020-10-24T09:14:30Z</time>
      </trkpt>
      <trkpt lat="46.11837" lon="4.61532">
        <ele>329.6</ele>
        <time>2020-10-24T09:14:31Z</time>
      </trkpt>
      <trkpt lat="46.11834" lon="4.61532">
        <ele>329.4</ele>
        <time>2020-10-24T09:14:32Z</time>
      </trkpt>
      <trkpt lat="46.11831" lon="4.61532">
        <ele>329</ele>
        <time>2020-10-24T09:14:33Z</time>
      </trkpt>
      <trkpt lat="46.11829" lon="4.61531">
        <ele>329.4</ele>
        <time>2020-10-24T09:14:34Z</time>
      </trkpt>
      <trkpt lat="46.11827" lon="4.6153">
        <ele>329.6</ele>
        <time>2020-10-24T09:14:35Z</time>
      </trkpt>
      <trkpt lat="46.11825" lon="4.61529">
        <ele>330</ele>
        <time>2020-10-24T09:14:36Z</time>
      </trkpt>
      <trkpt lat="46.11825" lon="4.61529">
        <ele>329.8</ele>
        <time>2020-10-24T09:14:37Z</time>
      </trkpt>
      <trkpt lat="46.11821" lon="4.61528">
        <ele>329.8</ele>
        <time>2020-10-24T09:14:38Z</time>
      </trkpt>
      <trkpt lat="46.1182" lon="4.61527">
        <ele>330</ele>
        <time>2020-10-24T09:14:39Z</time>
      </trkpt>
      <trkpt lat="46.11818" lon="4.61526">
        <ele>330.2</ele>
        <time>2020-10-24T09:14:40Z</time>
      </trkpt>
      <trkpt lat="46.11816" lon="4.61524">
        <ele>330.2</ele>
        <time>2020-10-24T09:14:41Z</time>
      </trkpt>
      <trkpt lat="46.11814" lon="4.61523">
        <ele>330.6</ele>
        <time>2020-10-24T09:14:42Z</time>
      </trkpt>
      <trkpt lat="46.11812" lon="4.61521">
        <ele>330.6</ele>
        <time>2020-10-24T09:14:43Z</time>
      </trkpt>
      <trkpt lat="46.1181" lon="4.6152">
        <ele>331</ele>
        <time>2020-10-24T09:14:44Z</time>
      </trkpt>
      <trkpt lat="46.11808" lon="4.61517">
        <ele>330.8</ele>
        <time>2020-10-24T09:14:45Z</time>
      </trkpt>
      <trkpt lat="46.11807" lon="4.61515">
        <ele>331</ele>
        <time>2020-10-24T09:14:46Z</time>
      </trkpt>
      <trkpt lat="46.11805" lon="4.61513">
        <ele>331.4</ele>
        <time>2020-10-24T09:14:47Z</time>
      </trkpt>
      <trkpt lat="46.11804" lon="4.6151">
        <ele>331.6</ele>
        <time>2020-10-24T09:14:48Z</time>
      </trkpt>
      <trkpt lat="46.11802" lon="4.61508">
        <ele>332.4</ele>
        <time>2020-10-24T09:14:49Z</time>
      </trkpt>
      <trkpt lat="46.118" lon="4.61505">
        <ele>332.2</ele>
        <time>2020-10-24T09:14:50Z</time>
      </trkpt>
      <trkpt lat="46.11799" lon="4.61502">
        <ele>332.2</ele>
        <time>2020-10-24T09:14:51Z</time>
      </trkpt>
      <trkpt lat="46.11797" lon="4.61499">
        <ele>332.6</ele>
        <time>2020-10-24T09:14:52Z</time>
      </trkpt>
      <trkpt lat="46.11795" lon="4.61497">
        <ele>332.6</ele>
        <time>2020-10-24T09:14:53Z</time>
      </trkpt>
      <trkpt lat="46.11794" lon="4.61494">
        <ele>333.2</ele>
        <time>2020-10-24T09:14:54Z</time>
      </trkpt>
      <trkpt lat="46.11794" lon="4.61494">
        <ele>333.2</ele>
        <time>2020-10-24T09:14:55Z</time>
      </trkpt>
      <trkpt lat="46.11793" lon="4.6149">
        <ele>333.2</ele>
        <time>2020-10-24T09:14:56Z</time>
      </trkpt>
      <trkpt lat="46.11793" lon="4.61487">
        <ele>333.2</ele>
        <time>2020-10-24T09:14:57Z</time>
      </trkpt>
      <trkpt lat="46.11793" lon="4.61487">
        <ele>333.4</ele>
        <time>2020-10-24T09:14:58Z</time>
      </trkpt>
      <trkpt lat="46.11792" lon="4.61482">
        <ele>333.8</ele>
        <time>2020-10-24T09:14:59Z</time>
      </trkpt>
      <trkpt lat="46.11793" lon="4.61481">
        <ele>334</ele>
        <time>2020-10-24T09:15:00Z</time>
      </trkpt>
      <trkpt lat="46.11794" lon="4.61479">
        <ele>334.2</ele>
        <time>2020-10-24T09:15:01Z</time>
      </trkpt>
      <trkpt lat="46.11794" lon="4.61477">
        <ele>334.4</ele>
        <time>2020-10-24T09:15:02Z</time>
      </trkpt>
      <trkpt lat="46.11796" lon="4.61475">
        <ele>334.6</ele>
        <time>2020-10-24T09:15:03Z</time>
      </trkpt>
      <trkpt lat="46.11796" lon="4.61472">
        <ele>335</ele>
        <time>2020-10-24T09:15:04Z</time>
      </trkpt>
      <trkpt lat="46.11797" lon="4.61469">
        <ele>335.4</ele>
        <time>2020-10-24T09:15:05Z</time>
      </trkpt>
      <trkpt lat="46.11797" lon="4.61469">
        <ele>335.6</ele>
        <time>2020-10-24T09:15:06Z</time>
      </trkpt>
      <trkpt lat="46.11798" lon="4.61466">
        <ele>335.6</ele>
        <time>2020-10-24T09:15:07Z</time>
      </trkpt>
      <trkpt lat="46.11798" lon="4.61466">
        <ele>335.8</ele>
        <time>2020-10-24T09:15:08Z</time>
      </trkpt>
      <trkpt lat="46.11799" lon="4.61462">
        <ele>336</ele>
        <time>2020-10-24T09:15:09Z</time>
      </trkpt>
      <trkpt lat="46.11799" lon="4.61462">
        <ele>336</ele>
        <time>2020-10-24T09:15:10Z</time>
      </trkpt>
      <trkpt lat="46.11799" lon="4.61462">
        <ele>336.2</ele>
        <time>2020-10-24T09:15:11Z</time>
      </trkpt>
      <trkpt lat="46.11801" lon="4.61457">
        <ele>336.4</ele>
        <time>2020-10-24T09:15:12Z</time>
      </trkpt>
      <trkpt lat="46.11802" lon="4.61455">
        <ele>336.6</ele>
        <time>2020-10-24T09:15:13Z</time>
      </trkpt>
      <trkpt lat="46.11803" lon="4.61452">
        <ele>336.8</ele>
        <time>2020-10-24T09:15:14Z</time>
      </trkpt>
      <trkpt lat="46.11803" lon="4.61452">
        <ele>337</ele>
        <time>2020-10-24T09:15:15Z</time>
      </trkpt>
      <trkpt lat="46.11805" lon="4.61447">
        <ele>337.4</ele>
        <time>2020-10-24T09:15:16Z</time>
      </trkpt>
      <trkpt lat="46.11805" lon="4.61445">
        <ele>337.8</ele>
        <time>2020-10-24T09:15:17Z</time>
      </trkpt>
      <trkpt lat="46.11805" lon="4.61445">
        <ele>338.2</ele>
        <time>2020-10-24T09:15:18Z</time>
      </trkpt>
      <trkpt lat="46.11806" lon="4.6144">
        <ele>338.8</ele>
        <time>2020-10-24T09:15:19Z</time>
      </trkpt>
      <trkpt lat="46.11806" lon="4.6144">
        <ele>339</ele>
        <time>2020-10-24T09:15:20Z</time>
      </trkpt>
      <trkpt lat="46.11807" lon="4.61436">
        <ele>339.2</ele>
        <time>2020-10-24T09:15:21Z</time>
      </trkpt>
      <trkpt lat="46.11807" lon="4.61436">
        <ele>339</ele>
        <time>2020-10-24T09:15:22Z</time>
      </trkpt>
      <trkpt lat="46.11808" lon="4.61432">
        <ele>338.6</ele>
        <time>2020-10-24T09:15:23Z</time>
      </trkpt>
      <trkpt lat="46.11808" lon="4.61432">
        <ele>338.6</ele>
        <time>2020-10-24T09:15:24Z</time>
      </trkpt>
      <trkpt lat="46.11808" lon="4.61428">
        <ele>338.6</ele>
        <time>2020-10-24T09:15:25Z</time>
      </trkpt>
      <trkpt lat="46.11808" lon="4.61428">
        <ele>338.8</ele>
        <time>2020-10-24T09:15:26Z</time>
      </trkpt>
      <trkpt lat="46.11808" lon="4.61428">
        <ele>338.8</ele>
        <time>2020-10-24T09:15:27Z</time>
      </trkpt>
      <trkpt lat="46.1181" lon="4.61422">
        <ele>339.2</ele>
        <time>2020-10-24T09:15:28Z</time>
      </trkpt>
      <trkpt lat="46.11811" lon="4.6142">
        <ele>339.2</ele>
        <time>2020-10-24T09:15:29Z</time>
      </trkpt>
      <trkpt lat="46.11811" lon="4.6142">
        <ele>339.2</ele>
        <time>2020-10-24T09:15:30Z</time>
      </trkpt>
      <trkpt lat="46.11812" lon="4.61416">
        <ele>339.2</ele>
        <time>2020-10-24T09:15:31Z</time>
      </trkpt>
      <trkpt lat="46.11812" lon="4.61416">
        <ele>339.6</ele>
        <time>2020-10-24T09:15:32Z</time>
      </trkpt>
      <trkpt lat="46.11813" lon="4.61413">
        <ele>339.8</ele>
        <time>2020-10-24T09:15:33Z</time>
      </trkpt>
      <trkpt lat="46.11812" lon="4.6141">
        <ele>339.8</ele>
        <time>2020-10-24T09:15:34Z</time>
      </trkpt>
      <trkpt lat="46.11812" lon="4.6141">
        <ele>340</ele>
        <time>2020-10-24T09:15:35Z</time>
      </trkpt>
      <trkpt lat="46.11813" lon="4.61406">
        <ele>340.4</ele>
        <time>2020-10-24T09:15:36Z</time>
      </trkpt>
      <trkpt lat="46.11813" lon="4.61406">
        <ele>340.8</ele>
        <time>2020-10-24T09:15:37Z</time>
      </trkpt>
      <trkpt lat="46.11814" lon="4.61403">
        <ele>341</ele>
        <time>2020-10-24T09:15:38Z</time>
      </trkpt>
      <trkpt lat="46.11814" lon="4.61403">
        <ele>341.4</ele>
        <time>2020-10-24T09:15:39Z</time>
      </trkpt>
      <trkpt lat="46.11814" lon="4.61398">
        <ele>341.6</ele>
        <time>2020-10-24T09:15:40Z</time>
      </trkpt>
      <trkpt lat="46.11814" lon="4.61398">
        <ele>341.8</ele>
        <time>2020-10-24T09:15:41Z</time>
      </trkpt>
      <trkpt lat="46.11815" lon="4.61394">
        <ele>341.8</ele>
        <time>2020-10-24T09:15:42Z</time>
      </trkpt>
      <trkpt lat="46.11815" lon="4.61394">
        <ele>342.2</ele>
        <time>2020-10-24T09:15:43Z</time>
      </trkpt>
      <trkpt lat="46.11816" lon="4.61391">
        <ele>342.4</ele>
        <time>2020-10-24T09:15:44Z</time>
      </trkpt>
      <trkpt lat="46.11816" lon="4.61391">
        <ele>342.8</ele>
        <time>2020-10-24T09:15:45Z</time>
      </trkpt>
      <trkpt lat="46.11818" lon="4.6139">
        <ele>343.2</ele>
        <time>2020-10-24T09:15:46Z</time>
      </trkpt>
      <trkpt lat="46.11818" lon="4.6139">
        <ele>343.8</ele>
        <time>2020-10-24T09:15:47Z</time>
      </trkpt>
      <trkpt lat="46.11819" lon="4.61388">
        <ele>344.2</ele>
        <time>2020-10-24T09:15:48Z</time>
      </trkpt>
      <trkpt lat="46.11819" lon="4.61388">
        <ele>344</ele>
        <time>2020-10-24T09:15:49Z</time>
      </trkpt>
      <trkpt lat="46.1182" lon="4.61383">
        <ele>343.8</ele>
        <time>2020-10-24T09:15:50Z</time>
      </trkpt>
      <trkpt lat="46.1182" lon="4.61383">
        <ele>344</ele>
        <time>2020-10-24T09:15:51Z</time>
      </trkpt>
      <trkpt lat="46.11821" lon="4.61379">
        <ele>344.2</ele>
        <time>2020-10-24T09:15:52Z</time>
      </trkpt>
      <trkpt lat="46.11821" lon="4.61379">
        <ele>344</ele>
        <time>2020-10-24T09:15:53Z</time>
      </trkpt>
      <trkpt lat="46.11822" lon="4.61375">
        <ele>344</ele>
        <time>2020-10-24T09:15:54Z</time>
      </trkpt>
      <trkpt lat="46.11822" lon="4.61375">
        <ele>344</ele>
        <time>2020-10-24T09:15:55Z</time>
      </trkpt>
      <trkpt lat="46.11822" lon="4.6137">
        <ele>344.2</ele>
        <time>2020-10-24T09:15:56Z</time>
      </trkpt>
      <trkpt lat="46.11823" lon="4.61368">
        <ele>344.2</ele>
        <time>2020-10-24T09:15:57Z</time>
      </trkpt>
      <trkpt lat="46.11823" lon="4.61368">
        <ele>344.4</ele>
        <time>2020-10-24T09:15:58Z</time>
      </trkpt>
      <trkpt lat="46.11824" lon="4.61363">
        <ele>344.8</ele>
        <time>2020-10-24T09:15:59Z</time>
      </trkpt>
      <trkpt lat="46.11824" lon="4.61363">
        <ele>345.2</ele>
        <time>2020-10-24T09:16:00Z</time>
      </trkpt>
      <trkpt lat="46.11825" lon="4.6136">
        <ele>345.6</ele>
        <time>2020-10-24T09:16:01Z</time>
      </trkpt>
      <trkpt lat="46.11825" lon="4.6136">
        <ele>345.8</ele>
        <time>2020-10-24T09:16:02Z</time>
      </trkpt>
      <trkpt lat="46.11826" lon="4.61356">
        <ele>346.2</ele>
        <time>2020-10-24T09:16:03Z</time>
      </trkpt>
      <trkpt lat="46.11826" lon="4.61356">
        <ele>346.6</ele>
        <time>2020-10-24T09:16:04Z</time>
      </trkpt>
      <trkpt lat="46.11827" lon="4.61353">
        <ele>346.8</ele>
        <time>2020-10-24T09:16:05Z</time>
      </trkpt>
      <trkpt lat="46.11827" lon="4.61353">
        <ele>347.2</ele>
        <time>2020-10-24T09:16:06Z</time>
      </trkpt>
      <trkpt lat="46.11829" lon="4.6135">
        <ele>347.4</ele>
        <time>2020-10-24T09:16:07Z</time>
      </trkpt>
      <trkpt lat="46.11829" lon="4.6135">
        <ele>347.4</ele>
        <time>2020-10-24T09:16:08Z</time>
      </trkpt>
      <trkpt lat="46.1183" lon="4.61346">
        <ele>347.6</ele>
        <time>2020-10-24T09:16:09Z</time>
      </trkpt>
      <trkpt lat="46.1183" lon="4.61346">
        <ele>347.8</ele>
        <time>2020-10-24T09:16:10Z</time>
      </trkpt>
      <trkpt lat="46.11832" lon="4.61343">
        <ele>347.8</ele>
        <time>2020-10-24T09:16:11Z</time>
      </trkpt>
      <trkpt lat="46.11832" lon="4.61343">
        <ele>347.8</ele>
        <time>2020-10-24T09:16:12Z</time>
      </trkpt>
      <trkpt lat="46.11833" lon="4.61339">
        <ele>348</ele>
        <time>2020-10-24T09:16:13Z</time>
      </trkpt>
      <trkpt lat="46.11833" lon="4.61339">
        <ele>348.2</ele>
        <time>2020-10-24T09:16:14Z</time>
      </trkpt>
      <trkpt lat="46.11834" lon="4.61335">
        <ele>348.4</ele>
        <time>2020-10-24T09:16:15Z</time>
      </trkpt>
      <trkpt lat="46.11834" lon="4.61335">
        <ele>348.6</ele>
        <time>2020-10-24T09:16:16Z</time>
      </trkpt>
      <trkpt lat="46.11835" lon="4.61331">
        <ele>348.8</ele>
        <time>2020-10-24T09:16:17Z</time>
      </trkpt>
      <trkpt lat="46.11835" lon="4.61331">
        <ele>349</ele>
        <time>2020-10-24T09:16:18Z</time>
      </trkpt>
      <trkpt lat="46.11836" lon="4.61328">
        <ele>349</ele>
        <time>2020-10-24T09:16:19Z</time>
      </trkpt>
      <trkpt lat="46.11836" lon="4.61328">
        <ele>349.2</ele>
        <time>2020-10-24T09:16:20Z</time>
      </trkpt>
      <trkpt lat="46.11837" lon="4.61324">
        <ele>349.2</ele>
        <time>2020-10-24T09:16:21Z</time>
      </trkpt>
      <trkpt lat="46.11837" lon="4.61324">
        <ele>349.2</ele>
        <time>2020-10-24T09:16:22Z</time>
      </trkpt>
      <trkpt lat="46.11837" lon="4.6132">
        <ele>349.4</ele>
        <time>2020-10-24T09:16:23Z</time>
      </trkpt>
      <trkpt lat="46.11837" lon="4.6132">
        <ele>349.4</ele>
        <time>2020-10-24T09:16:24Z</time>
      </trkpt>
      <trkpt lat="46.11839" lon="4.61317">
        <ele>349.4</ele>
        <time>2020-10-24T09:16:25Z</time>
      </trkpt>
      <trkpt lat="46.11839" lon="4.61317">
        <ele>349.8</ele>
        <time>2020-10-24T09:16:26Z</time>
      </trkpt>
      <trkpt lat="46.1184" lon="4.61313">
        <ele>349.8</ele>
        <time>2020-10-24T09:16:27Z</time>
      </trkpt>
      <trkpt lat="46.1184" lon="4.61313">
        <ele>350</ele>
        <time>2020-10-24T09:16:28Z</time>
      </trkpt>
      <trkpt lat="46.11842" lon="4.61309">
        <ele>350</ele>
        <time>2020-10-24T09:16:29Z</time>
      </trkpt>
      <trkpt lat="46.11842" lon="4.61309">
        <ele>350</ele>
        <time>2020-10-24T09:16:30Z</time>
      </trkpt>
      <trkpt lat="46.11843" lon="4.61306">
        <ele>350</ele>
        <time>2020-10-24T09:16:31Z</time>
      </trkpt>
      <trkpt lat="46.11843" lon="4.61306">
        <ele>350</ele>
        <time>2020-10-24T09:16:32Z</time>
      </trkpt>
      <trkpt lat="46.11844" lon="4.61302">
        <ele>349.8</ele>
        <time>2020-10-24T09:16:33Z</time>
      </trkpt>
      <trkpt lat="46.11844" lon="4.61302">
        <ele>349.8</ele>
        <time>2020-10-24T09:16:34Z</time>
      </trkpt>
      <trkpt lat="46.11844" lon="4.61302">
        <ele>349.8</ele>
        <time>2020-10-24T09:16:35Z</time>
      </trkpt>
      <trkpt lat="46.11845" lon="4.61298">
        <ele>349.8</ele>
        <time>2020-10-24T09:16:36Z</time>
      </trkpt>
      <trkpt lat="46.11846" lon="4.61296">
        <ele>349.8</ele>
        <time>2020-10-24T09:16:37Z</time>
      </trkpt>
      <trkpt lat="46.11846" lon="4.61296">
        <ele>349.8</ele>
        <time>2020-10-24T09:16:38Z</time>
      </trkpt>
      <trkpt lat="46.11847" lon="4.61293">
        <ele>350</ele>
        <time>2020-10-24T09:16:39Z</time>
      </trkpt>
      <trkpt lat="46.11847" lon="4.61293">
        <ele>350</ele>
        <time>2020-10-24T09:16:40Z</time>
      </trkpt>
      <trkpt lat="46.11849" lon="4.6129">
        <ele>350.2</ele>
        <time>2020-10-24T09:16:41Z</time>
      </trkpt>
      <trkpt lat="46.11849" lon="4.6129">
        <ele>350.2</ele>
        <time>2020-10-24T09:16:42Z</time>
      </trkpt>
      <trkpt lat="46.11849" lon="4.6129">
        <ele>350.2</ele>
        <time>2020-10-24T09:16:43Z</time>
      </trkpt>
      <trkpt lat="46.1185" lon="4.61284">
        <ele>350.2</ele>
        <time>2020-10-24T09:16:44Z</time>
      </trkpt>
      <trkpt lat="46.11851" lon="4.61282">
        <ele>350.2</ele>
        <time>2020-10-24T09:16:45Z</time>
      </trkpt>
      <trkpt lat="46.11851" lon="4.61279">
        <ele>350.2</ele>
        <time>2020-10-24T09:16:46Z</time>
      </trkpt>
      <trkpt lat="46.11851" lon="4.61276">
        <ele>350.4</ele>
        <time>2020-10-24T09:16:47Z</time>
      </trkpt>
      <trkpt lat="46.11852" lon="4.61274">
        <ele>350.4</ele>
        <time>2020-10-24T09:16:48Z</time>
      </trkpt>
      <trkpt lat="46.11852" lon="4.61274">
        <ele>350.2</ele>
        <time>2020-10-24T09:16:49Z</time>
      </trkpt>
      <trkpt lat="46.11853" lon="4.6127">
        <ele>350.6</ele>
        <time>2020-10-24T09:16:50Z</time>
      </trkpt>
      <trkpt lat="46.11853" lon="4.6127">
        <ele>351</ele>
        <time>2020-10-24T09:16:51Z</time>
      </trkpt>
      <trkpt lat="46.11853" lon="4.6127">
        <ele>351</ele>
        <time>2020-10-24T09:16:52Z</time>
      </trkpt>
      <trkpt lat="46.11854" lon="4.61264">
        <ele>350.8</ele>
        <time>2020-10-24T09:16:53Z</time>
      </trkpt>
      <trkpt lat="46.11855" lon="4.61262">
        <ele>350.8</ele>
        <time>2020-10-24T09:16:54Z</time>
      </trkpt>
      <trkpt lat="46.11855" lon="4.61262">
        <ele>351</ele>
        <time>2020-10-24T09:16:55Z</time>
      </trkpt>
      <trkpt lat="46.11855" lon="4.61257">
        <ele>351.2</ele>
        <time>2020-10-24T09:16:56Z</time>
      </trkpt>
      <trkpt lat="46.11855" lon="4.61257">
        <ele>351.4</ele>
        <time>2020-10-24T09:16:57Z</time>
      </trkpt>
      <trkpt lat="46.11857" lon="4.61253">
        <ele>351.2</ele>
        <time>2020-10-24T09:16:58Z</time>
      </trkpt>
      <trkpt lat="46.11857" lon="4.61253">
        <ele>351.4</ele>
        <time>2020-10-24T09:16:59Z</time>
      </trkpt>
      <trkpt lat="46.11857" lon="4.6125">
        <ele>351.4</ele>
        <time>2020-10-24T09:17:00Z</time>
      </trkpt>
      <trkpt lat="46.11857" lon="4.6125">
        <ele>351.2</ele>
        <time>2020-10-24T09:17:01Z</time>
      </trkpt>
      <trkpt lat="46.11858" lon="4.61246">
        <ele>351.4</ele>
        <time>2020-10-24T09:17:02Z</time>
      </trkpt>
      <trkpt lat="46.11858" lon="4.61246">
        <ele>351.6</ele>
        <time>2020-10-24T09:17:03Z</time>
      </trkpt>
      <trkpt lat="46.11859" lon="4.61241">
        <ele>351.8</ele>
        <time>2020-10-24T09:17:04Z</time>
      </trkpt>
      <trkpt lat="46.11859" lon="4.61241">
        <ele>352</ele>
        <time>2020-10-24T09:17:05Z</time>
      </trkpt>
      <trkpt lat="46.11861" lon="4.61237">
        <ele>352</ele>
        <time>2020-10-24T09:17:06Z</time>
      </trkpt>
      <trkpt lat="46.11861" lon="4.61237">
        <ele>352.2</ele>
        <time>2020-10-24T09:17:07Z</time>
      </trkpt>
      <trkpt lat="46.11862" lon="4.61233">
        <ele>352.4</ele>
        <time>2020-10-24T09:17:08Z</time>
      </trkpt>
      <trkpt lat="46.11862" lon="4.61233">
        <ele>352.6</ele>
        <time>2020-10-24T09:17:09Z</time>
      </trkpt>
      <trkpt lat="46.11863" lon="4.6123">
        <ele>352.8</ele>
        <time>2020-10-24T09:17:10Z</time>
      </trkpt>
      <trkpt lat="46.11863" lon="4.6123">
        <ele>353.2</ele>
        <time>2020-10-24T09:17:11Z</time>
      </trkpt>
      <trkpt lat="46.11864" lon="4.61227">
        <ele>353.2</ele>
        <time>2020-10-24T09:17:12Z</time>
      </trkpt>
      <trkpt lat="46.11864" lon="4.61227">
        <ele>353.4</ele>
        <time>2020-10-24T09:17:13Z</time>
      </trkpt>
      <trkpt lat="46.11866" lon="4.61223">
        <ele>353.4</ele>
        <time>2020-10-24T09:17:14Z</time>
      </trkpt>
      <trkpt lat="46.11866" lon="4.61223">
        <ele>353.6</ele>
        <time>2020-10-24T09:17:15Z</time>
      </trkpt>
      <trkpt lat="46.11868" lon="4.61218">
        <ele>353.8</ele>
        <time>2020-10-24T09:17:16Z</time>
      </trkpt>
      <trkpt lat="46.11868" lon="4.61218">
        <ele>353.8</ele>
        <time>2020-10-24T09:17:17Z</time>
      </trkpt>
      <trkpt lat="46.1187" lon="4.61214">
        <ele>353.8</ele>
        <time>2020-10-24T09:17:18Z</time>
      </trkpt>
      <trkpt lat="46.1187" lon="4.61214">
        <ele>354</ele>
        <time>2020-10-24T09:17:19Z</time>
      </trkpt>
      <trkpt lat="46.11872" lon="4.6121">
        <ele>354.4</ele>
        <time>2020-10-24T09:17:20Z</time>
      </trkpt>
      <trkpt lat="46.11872" lon="4.6121">
        <ele>354.4</ele>
        <time>2020-10-24T09:17:21Z</time>
      </trkpt>
      <trkpt lat="46.11873" lon="4.61206">
        <ele>354.4</ele>
        <time>2020-10-24T09:17:22Z</time>
      </trkpt>
      <trkpt lat="46.11873" lon="4.61206">
        <ele>354.4</ele>
        <time>2020-10-24T09:17:23Z</time>
      </trkpt>
      <trkpt lat="46.11875" lon="4.61203">
        <ele>354.6</ele>
        <time>2020-10-24T09:17:24Z</time>
      </trkpt>
      <trkpt lat="46.11875" lon="4.61203">
        <ele>354.4</ele>
        <time>2020-10-24T09:17:25Z</time>
      </trkpt>
      <trkpt lat="46.11875" lon="4.61203">
        <ele>354.6</ele>
        <time>2020-10-24T09:17:26Z</time>
      </trkpt>
      <trkpt lat="46.11878" lon="4.61197">
        <ele>354.8</ele>
        <time>2020-10-24T09:17:27Z</time>
      </trkpt>
      <trkpt lat="46.11878" lon="4.61197">
        <ele>355</ele>
        <time>2020-10-24T09:17:28Z</time>
      </trkpt>
      <trkpt lat="46.1188" lon="4.61194">
        <ele>355.2</ele>
        <time>2020-10-24T09:17:29Z</time>
      </trkpt>
      <trkpt lat="46.11881" lon="4.61192">
        <ele>355.2</ele>
        <time>2020-10-24T09:17:30Z</time>
      </trkpt>
      <trkpt lat="46.11881" lon="4.61192">
        <ele>355.6</ele>
        <time>2020-10-24T09:17:31Z</time>
      </trkpt>
      <trkpt lat="46.11881" lon="4.61192">
        <ele>355.6</ele>
        <time>2020-10-24T09:17:32Z</time>
      </trkpt>
      <trkpt lat="46.11884" lon="4.61188">
        <ele>356</ele>
        <time>2020-10-24T09:17:33Z</time>
      </trkpt>
      <trkpt lat="46.11885" lon="4.61186">
        <ele>356.2</ele>
        <time>2020-10-24T09:17:34Z</time>
      </trkpt>
      <trkpt lat="46.11885" lon="4.61186">
        <ele>356.4</ele>
        <time>2020-10-24T09:17:35Z</time>
      </trkpt>
      <trkpt lat="46.11887" lon="4.61184">
        <ele>356.6</ele>
        <time>2020-10-24T09:17:36Z</time>
      </trkpt>
      <trkpt lat="46.11887" lon="4.61184">
        <ele>357</ele>
        <time>2020-10-24T09:17:37Z</time>
      </trkpt>
      <trkpt lat="46.11888" lon="4.6118">
        <ele>357</ele>
        <time>2020-10-24T09:17:38Z</time>
      </trkpt>
      <trkpt lat="46.11888" lon="4.6118">
        <ele>357</ele>
        <time>2020-10-24T09:17:39Z</time>
      </trkpt>
      <trkpt lat="46.11888" lon="4.6118">
        <ele>357</ele>
        <time>2020-10-24T09:17:40Z</time>
      </trkpt>
      <trkpt lat="46.11891" lon="4.61176">
        <ele>357.2</ele>
        <time>2020-10-24T09:17:41Z</time>
      </trkpt>
      <trkpt lat="46.11892" lon="4.61174">
        <ele>357.4</ele>
        <time>2020-10-24T09:17:42Z</time>
      </trkpt>
      <trkpt lat="46.11892" lon="4.61174">
        <ele>357.6</ele>
        <time>2020-10-24T09:17:43Z</time>
      </trkpt>
      <trkpt lat="46.11893" lon="4.61171">
        <ele>357.8</ele>
        <time>2020-10-24T09:17:44Z</time>
      </trkpt>
      <trkpt lat="46.11893" lon="4.61171">
        <ele>358.2</ele>
        <time>2020-10-24T09:17:45Z</time>
      </trkpt>
      <trkpt lat="46.11895" lon="4.61168">
        <ele>358.4</ele>
        <time>2020-10-24T09:17:46Z</time>
      </trkpt>
      <trkpt lat="46.11895" lon="4.61168">
        <ele>358.4</ele>
        <time>2020-10-24T09:17:47Z</time>
      </trkpt>
      <trkpt lat="46.11895" lon="4.61164">
        <ele>358.6</ele>
        <time>2020-10-24T09:17:48Z</time>
      </trkpt>
      <trkpt lat="46.11895" lon="4.61164">
        <ele>358.8</ele>
        <time>2020-10-24T09:17:49Z</time>
      </trkpt>
      <trkpt lat="46.11896" lon="4.6116">
        <ele>359</ele>
        <time>2020-10-24T09:17:50Z</time>
      </trkpt>
      <trkpt lat="46.11896" lon="4.6116">
        <ele>359.2</ele>
        <time>2020-10-24T09:17:51Z</time>
      </trkpt>
      <trkpt lat="46.11895" lon="4.61156">
        <ele>359.4</ele>
        <time>2020-10-24T09:17:52Z</time>
      </trkpt>
      <trkpt lat="46.11895" lon="4.61156">
        <ele>359.6</ele>
        <time>2020-10-24T09:17:53Z</time>
      </trkpt>
      <trkpt lat="46.11895" lon="4.61153">
        <ele>359.8</ele>
        <time>2020-10-24T09:17:54Z</time>
      </trkpt>
      <trkpt lat="46.11895" lon="4.61153">
        <ele>360</ele>
        <time>2020-10-24T09:17:55Z</time>
      </trkpt>
      <trkpt lat="46.11895" lon="4.61149">
        <ele>360.2</ele>
        <time>2020-10-24T09:17:56Z</time>
      </trkpt>
      <trkpt lat="46.11895" lon="4.61149">
        <ele>360.4</ele>
        <time>2020-10-24T09:17:57Z</time>
      </trkpt>
      <trkpt lat="46.11896" lon="4.61146">
        <ele>360.6</ele>
        <time>2020-10-24T09:17:58Z</time>
      </trkpt>
      <trkpt lat="46.11896" lon="4.61146">
        <ele>361</ele>
        <time>2020-10-24T09:17:59Z</time>
      </trkpt>
      <trkpt lat="46.11895" lon="4.61142">
        <ele>361.2</ele>
        <time>2020-10-24T09:18:00Z</time>
      </trkpt>
      <trkpt lat="46.11895" lon="4.61142">
        <ele>361.4</ele>
        <time>2020-10-24T09:18:01Z</time>
      </trkpt>
      <trkpt lat="46.11895" lon="4.61138">
        <ele>361.6</ele>
        <time>2020-10-24T09:18:02Z</time>
      </trkpt>
      <trkpt lat="46.11895" lon="4.61138">
        <ele>361.8</ele>
        <time>2020-10-24T09:18:03Z</time>
      </trkpt>
      <trkpt lat="46.11895" lon="4.61134">
        <ele>362</ele>
        <time>2020-10-24T09:18:04Z</time>
      </trkpt>
      <trkpt lat="46.11895" lon="4.61134">
        <ele>362.4</ele>
        <time>2020-10-24T09:18:05Z</time>
      </trkpt>
      <trkpt lat="46.11895" lon="4.61131">
        <ele>362.6</ele>
        <time>2020-10-24T09:18:06Z</time>
      </trkpt>
      <trkpt lat="46.11895" lon="4.61131">
        <ele>362.8</ele>
        <time>2020-10-24T09:18:07Z</time>
      </trkpt>
      <trkpt lat="46.11895" lon="4.61127">
        <ele>363</ele>
        <time>2020-10-24T09:18:08Z</time>
      </trkpt>
      <trkpt lat="46.11895" lon="4.61127">
        <ele>363.2</ele>
        <time>2020-10-24T09:18:09Z</time>
      </trkpt>
      <trkpt lat="46.11895" lon="4.61123">
        <ele>363.6</ele>
        <time>2020-10-24T09:18:10Z</time>
      </trkpt>
      <trkpt lat="46.11895" lon="4.61123">
        <ele>363.8</ele>
        <time>2020-10-24T09:18:11Z</time>
      </trkpt>
      <trkpt lat="46.11895" lon="4.61119">
        <ele>364</ele>
        <time>2020-10-24T09:18:12Z</time>
      </trkpt>
      <trkpt lat="46.11895" lon="4.61119">
        <ele>364.2</ele>
        <time>2020-10-24T09:18:13Z</time>
      </trkpt>
      <trkpt lat="46.11894" lon="4.61115">
        <ele>364.4</ele>
        <time>2020-10-24T09:18:14Z</time>
      </trkpt>
      <trkpt lat="46.11894" lon="4.61112">
        <ele>364.6</ele>
        <time>2020-10-24T09:18:15Z</time>
      </trkpt>
      <trkpt lat="46.11894" lon="4.61112">
        <ele>365</ele>
        <time>2020-10-24T09:18:16Z</time>
      </trkpt>
      <trkpt lat="46.11895" lon="4.61109">
        <ele>365.2</ele>
        <time>2020-10-24T09:18:17Z</time>
      </trkpt>
      <trkpt lat="46.11895" lon="4.61109">
        <ele>365.4</ele>
        <time>2020-10-24T09:18:18Z</time>
      </trkpt>
      <trkpt lat="46.11894" lon="4.61106">
        <ele>365.8</ele>
        <time>2020-10-24T09:18:19Z</time>
      </trkpt>
      <trkpt lat="46.11894" lon="4.61106">
        <ele>366</ele>
        <time>2020-10-24T09:18:20Z</time>
      </trkpt>
      <trkpt lat="46.11894" lon="4.61102">
        <ele>366.2</ele>
        <time>2020-10-24T09:18:21Z</time>
      </trkpt>
      <trkpt lat="46.11894" lon="4.61102">
        <ele>366.4</ele>
        <time>2020-10-24T09:18:22Z</time>
      </trkpt>
      <trkpt lat="46.11894" lon="4.61098">
        <ele>366.4</ele>
        <time>2020-10-24T09:18:23Z</time>
      </trkpt>
      <trkpt lat="46.11894" lon="4.61098">
        <ele>366.6</ele>
        <time>2020-10-24T09:18:24Z</time>
      </trkpt>
      <trkpt lat="46.11894" lon="4.61094">
        <ele>366.6</ele>
        <time>2020-10-24T09:18:25Z</time>
      </trkpt>
      <trkpt lat="46.11894" lon="4.61094">
        <ele>366.8</ele>
        <time>2020-10-24T09:18:26Z</time>
      </trkpt>
      <trkpt lat="46.11894" lon="4.6109">
        <ele>367.2</ele>
        <time>2020-10-24T09:18:27Z</time>
      </trkpt>
      <trkpt lat="46.11894" lon="4.6109">
        <ele>367.6</ele>
        <time>2020-10-24T09:18:28Z</time>
      </trkpt>
      <trkpt lat="46.11894" lon="4.61085">
        <ele>367.6</ele>
        <time>2020-10-24T09:18:29Z</time>
      </trkpt>
      <trkpt lat="46.11894" lon="4.61085">
        <ele>368</ele>
        <time>2020-10-24T09:18:30Z</time>
      </trkpt>
      <trkpt lat="46.11894" lon="4.61085">
        <ele>368.4</ele>
        <time>2020-10-24T09:18:31Z</time>
      </trkpt>
      <trkpt lat="46.11895" lon="4.61079">
        <ele>368.4</ele>
        <time>2020-10-24T09:18:32Z</time>
      </trkpt>
      <trkpt lat="46.11895" lon="4.61077">
        <ele>368.6</ele>
        <time>2020-10-24T09:18:33Z</time>
      </trkpt>
      <trkpt lat="46.11895" lon="4.61077">
        <ele>368.8</ele>
        <time>2020-10-24T09:18:34Z</time>
      </trkpt>
      <trkpt lat="46.11895" lon="4.61073">
        <ele>369</ele>
        <time>2020-10-24T09:18:35Z</time>
      </trkpt>
      <trkpt lat="46.11895" lon="4.61073">
        <ele>369.4</ele>
        <time>2020-10-24T09:18:36Z</time>
      </trkpt>
      <trkpt lat="46.11894" lon="4.61069">
        <ele>369.6</ele>
        <time>2020-10-24T09:18:37Z</time>
      </trkpt>
      <trkpt lat="46.11894" lon="4.61069">
        <ele>369.8</ele>
        <time>2020-10-24T09:18:38Z</time>
      </trkpt>
      <trkpt lat="46.11894" lon="4.61065">
        <ele>369.8</ele>
        <time>2020-10-24T09:18:39Z</time>
      </trkpt>
      <trkpt lat="46.11894" lon="4.61065">
        <ele>369.8</ele>
        <time>2020-10-24T09:18:40Z</time>
      </trkpt>
      <trkpt lat="46.11895" lon="4.61061">
        <ele>370</ele>
        <time>2020-10-24T09:18:41Z</time>
      </trkpt>
      <trkpt lat="46.11895" lon="4.61061">
        <ele>370</ele>
        <time>2020-10-24T09:18:42Z</time>
      </trkpt>
      <trkpt lat="46.11896" lon="4.61058">
        <ele>370.2</ele>
        <time>2020-10-24T09:18:43Z</time>
      </trkpt>
      <trkpt lat="46.11896" lon="4.61058">
        <ele>370.6</ele>
        <time>2020-10-24T09:18:44Z</time>
      </trkpt>
      <trkpt lat="46.11896" lon="4.61058">
        <ele>370.6</ele>
        <time>2020-10-24T09:18:45Z</time>
      </trkpt>
      <trkpt lat="46.11897" lon="4.61056">
        <ele>370.6</ele>
        <time>2020-10-24T09:18:46Z</time>
      </trkpt>
      <trkpt lat="46.11897" lon="4.61056">
        <ele>370.6</ele>
        <time>2020-10-24T09:18:47Z</time>
      </trkpt>
      <trkpt lat="46.11897" lon="4.61056">
        <ele>370.6</ele>
        <time>2020-10-24T09:18:48Z</time>
      </trkpt>
      <trkpt lat="46.11897" lon="4.61056">
        <ele>370.6</ele>
        <time>2020-10-24T09:18:49Z</time>
      </trkpt>
      <trkpt lat="46.11897" lon="4.61056">
        <ele>370.6</ele>
        <time>2020-10-24T09:18:50Z</time>
      </trkpt>
      <trkpt lat="46.11896" lon="4.61052">
        <ele>370.6</ele>
        <time>2020-10-24T09:18:51Z</time>
      </trkpt>
      <trkpt lat="46.11896" lon="4.61052">
        <ele>370.8</ele>
        <time>2020-10-24T09:18:52Z</time>
      </trkpt>
      <trkpt lat="46.11897" lon="4.61048">
        <ele>371</ele>
        <time>2020-10-24T09:18:53Z</time>
      </trkpt>
      <trkpt lat="46.11897" lon="4.61048">
        <ele>371.2</ele>
        <time>2020-10-24T09:18:54Z</time>
      </trkpt>
      <trkpt lat="46.11897" lon="4.61045">
        <ele>371.2</ele>
        <time>2020-10-24T09:18:55Z</time>
      </trkpt>
      <trkpt lat="46.11897" lon="4.61045">
        <ele>371.4</ele>
        <time>2020-10-24T09:18:56Z</time>
      </trkpt>
      <trkpt lat="46.11898" lon="4.61041">
        <ele>371.8</ele>
        <time>2020-10-24T09:18:57Z</time>
      </trkpt>
      <trkpt lat="46.11898" lon="4.61041">
        <ele>371.8</ele>
        <time>2020-10-24T09:18:58Z</time>
      </trkpt>
      <trkpt lat="46.11899" lon="4.61038">
        <ele>372</ele>
        <time>2020-10-24T09:18:59Z</time>
      </trkpt>
      <trkpt lat="46.11899" lon="4.61038">
        <ele>372.2</ele>
        <time>2020-10-24T09:19:00Z</time>
      </trkpt>
      <trkpt lat="46.119" lon="4.61034">
        <ele>372.4</ele>
        <time>2020-10-24T09:19:01Z</time>
      </trkpt>
      <trkpt lat="46.119" lon="4.61034">
        <ele>372.4</ele>
        <time>2020-10-24T09:19:02Z</time>
      </trkpt>
      <trkpt lat="46.119" lon="4.6103">
        <ele>372.4</ele>
        <time>2020-10-24T09:19:03Z</time>
      </trkpt>
      <trkpt lat="46.119" lon="4.6103">
        <ele>372.4</ele>
        <time>2020-10-24T09:19:04Z</time>
      </trkpt>
      <trkpt lat="46.11901" lon="4.61026">
        <ele>372.6</ele>
        <time>2020-10-24T09:19:05Z</time>
      </trkpt>
      <trkpt lat="46.11901" lon="4.61026">
        <ele>372.8</ele>
        <time>2020-10-24T09:19:06Z</time>
      </trkpt>
      <trkpt lat="46.11902" lon="4.61023">
        <ele>373</ele>
        <time>2020-10-24T09:19:07Z</time>
      </trkpt>
      <trkpt lat="46.11902" lon="4.61023">
        <ele>373</ele>
        <time>2020-10-24T09:19:08Z</time>
      </trkpt>
      <trkpt lat="46.11902" lon="4.61023">
        <ele>373</ele>
        <time>2020-10-24T09:19:09Z</time>
      </trkpt>
      <trkpt lat="46.11903" lon="4.61018">
        <ele>373.2</ele>
        <time>2020-10-24T09:19:10Z</time>
      </trkpt>
      <trkpt lat="46.11904" lon="4.61016">
        <ele>373.6</ele>
        <time>2020-10-24T09:19:11Z</time>
      </trkpt>
      <trkpt lat="46.11904" lon="4.61016">
        <ele>373.6</ele>
        <time>2020-10-24T09:19:12Z</time>
      </trkpt>
      <trkpt lat="46.11905" lon="4.61012">
        <ele>373.8</ele>
        <time>2020-10-24T09:19:13Z</time>
      </trkpt>
      <trkpt lat="46.11905" lon="4.61012">
        <ele>373.8</ele>
        <time>2020-10-24T09:19:14Z</time>
      </trkpt>
      <trkpt lat="46.11906" lon="4.61009">
        <ele>374</ele>
        <time>2020-10-24T09:19:15Z</time>
      </trkpt>
      <trkpt lat="46.11906" lon="4.61009">
        <ele>374.4</ele>
        <time>2020-10-24T09:19:16Z</time>
      </trkpt>
      <trkpt lat="46.11907" lon="4.61005">
        <ele>374.4</ele>
        <time>2020-10-24T09:19:17Z</time>
      </trkpt>
      <trkpt lat="46.11907" lon="4.61005">
        <ele>374.6</ele>
        <time>2020-10-24T09:19:18Z</time>
      </trkpt>
      <trkpt lat="46.11908" lon="4.61002">
        <ele>374.6</ele>
        <time>2020-10-24T09:19:19Z</time>
      </trkpt>
      <trkpt lat="46.11908" lon="4.61002">
        <ele>375</ele>
        <time>2020-10-24T09:19:20Z</time>
      </trkpt>
      <trkpt lat="46.11909" lon="4.60999">
        <ele>375.4</ele>
        <time>2020-10-24T09:19:21Z</time>
      </trkpt>
      <trkpt lat="46.11909" lon="4.60999">
        <ele>375.4</ele>
        <time>2020-10-24T09:19:22Z</time>
      </trkpt>
      <trkpt lat="46.11909" lon="4.60995">
        <ele>375.8</ele>
        <time>2020-10-24T09:19:23Z</time>
      </trkpt>
      <trkpt lat="46.11909" lon="4.60995">
        <ele>376.4</ele>
        <time>2020-10-24T09:19:24Z</time>
      </trkpt>
      <trkpt lat="46.1191" lon="4.60992">
        <ele>376.8</ele>
        <time>2020-10-24T09:19:25Z</time>
      </trkpt>
      <trkpt lat="46.1191" lon="4.60992">
        <ele>376.6</ele>
        <time>2020-10-24T09:19:26Z</time>
      </trkpt>
      <trkpt lat="46.1191" lon="4.60989">
        <ele>376.6</ele>
        <time>2020-10-24T09:19:27Z</time>
      </trkpt>
      <trkpt lat="46.1191" lon="4.60989">
        <ele>376.6</ele>
        <time>2020-10-24T09:19:28Z</time>
      </trkpt>
      <trkpt lat="46.11911" lon="4.60985">
        <ele>376.6</ele>
        <time>2020-10-24T09:19:29Z</time>
      </trkpt>
      <trkpt lat="46.11911" lon="4.60985">
        <ele>376.8</ele>
        <time>2020-10-24T09:19:30Z</time>
      </trkpt>
      <trkpt lat="46.11912" lon="4.60981">
        <ele>376.8</ele>
        <time>2020-10-24T09:19:31Z</time>
      </trkpt>
      <trkpt lat="46.11912" lon="4.60981">
        <ele>377</ele>
        <time>2020-10-24T09:19:32Z</time>
      </trkpt>
      <trkpt lat="46.11912" lon="4.60978">
        <ele>377.2</ele>
        <time>2020-10-24T09:19:33Z</time>
      </trkpt>
      <trkpt lat="46.11912" lon="4.60978">
        <ele>377.4</ele>
        <time>2020-10-24T09:19:34Z</time>
      </trkpt>
      <trkpt lat="46.11912" lon="4.60974">
        <ele>377.4</ele>
        <time>2020-10-24T09:19:35Z</time>
      </trkpt>
      <trkpt lat="46.11912" lon="4.60974">
        <ele>377.6</ele>
        <time>2020-10-24T09:19:36Z</time>
      </trkpt>
      <trkpt lat="46.11912" lon="4.6097">
        <ele>378</ele>
        <time>2020-10-24T09:19:37Z</time>
      </trkpt>
      <trkpt lat="46.11912" lon="4.6097">
        <ele>378.4</ele>
        <time>2020-10-24T09:19:38Z</time>
      </trkpt>
      <trkpt lat="46.11912" lon="4.60966">
        <ele>378.4</ele>
        <time>2020-10-24T09:19:39Z</time>
      </trkpt>
      <trkpt lat="46.11912" lon="4.60966">
        <ele>378.6</ele>
        <time>2020-10-24T09:19:40Z</time>
      </trkpt>
      <trkpt lat="46.11912" lon="4.60963">
        <ele>378.8</ele>
        <time>2020-10-24T09:19:41Z</time>
      </trkpt>
      <trkpt lat="46.11912" lon="4.60963">
        <ele>379</ele>
        <time>2020-10-24T09:19:42Z</time>
      </trkpt>
      <trkpt lat="46.11912" lon="4.60959">
        <ele>379.2</ele>
        <time>2020-10-24T09:19:43Z</time>
      </trkpt>
      <trkpt lat="46.11912" lon="4.60959">
        <ele>379.4</ele>
        <time>2020-10-24T09:19:44Z</time>
      </trkpt>
      <trkpt lat="46.11912" lon="4.60955">
        <ele>379.6</ele>
        <time>2020-10-24T09:19:45Z</time>
      </trkpt>
      <trkpt lat="46.11912" lon="4.60955">
        <ele>380</ele>
        <time>2020-10-24T09:19:46Z</time>
      </trkpt>
      <trkpt lat="46.11913" lon="4.60951">
        <ele>380.4</ele>
        <time>2020-10-24T09:19:47Z</time>
      </trkpt>
      <trkpt lat="46.11913" lon="4.60951">
        <ele>380.6</ele>
        <time>2020-10-24T09:19:48Z</time>
      </trkpt>
      <trkpt lat="46.11913" lon="4.60948">
        <ele>380.8</ele>
        <time>2020-10-24T09:19:49Z</time>
      </trkpt>
      <trkpt lat="46.11913" lon="4.60948">
        <ele>380.4</ele>
        <time>2020-10-24T09:19:50Z</time>
      </trkpt>
      <trkpt lat="46.11913" lon="4.60944">
        <ele>380.4</ele>
        <time>2020-10-24T09:19:51Z</time>
      </trkpt>
      <trkpt lat="46.11913" lon="4.60944">
        <ele>380.4</ele>
        <time>2020-10-24T09:19:52Z</time>
      </trkpt>
      <trkpt lat="46.11912" lon="4.60941">
        <ele>380.2</ele>
        <time>2020-10-24T09:19:53Z</time>
      </trkpt>
      <trkpt lat="46.11912" lon="4.60941">
        <ele>380.2</ele>
        <time>2020-10-24T09:19:54Z</time>
      </trkpt>
      <trkpt lat="46.11912" lon="4.60937">
        <ele>380.4</ele>
        <time>2020-10-24T09:19:55Z</time>
      </trkpt>
      <trkpt lat="46.11912" lon="4.60937">
        <ele>380.4</ele>
        <time>2020-10-24T09:19:56Z</time>
      </trkpt>
      <trkpt lat="46.11912" lon="4.60933">
        <ele>380.8</ele>
        <time>2020-10-24T09:19:57Z</time>
      </trkpt>
      <trkpt lat="46.11912" lon="4.60933">
        <ele>380.8</ele>
        <time>2020-10-24T09:19:58Z</time>
      </trkpt>
      <trkpt lat="46.11912" lon="4.6093">
        <ele>380.8</ele>
        <time>2020-10-24T09:19:59Z</time>
      </trkpt>
      <trkpt lat="46.11912" lon="4.60926">
        <ele>380.8</ele>
        <time>2020-10-24T09:20:01Z</time>
      </trkpt>
      <trkpt lat="46.11912" lon="4.60926">
        <ele>380.6</ele>
        <time>2020-10-24T09:20:02Z</time>
      </trkpt>
      <trkpt lat="46.11912" lon="4.60923">
        <ele>380.6</ele>
        <time>2020-10-24T09:20:03Z</time>
      </trkpt>
      <trkpt lat="46.11912" lon="4.60923">
        <ele>380.8</ele>
        <time>2020-10-24T09:20:04Z</time>
      </trkpt>
      <trkpt lat="46.11912" lon="4.60919">
        <ele>381</ele>
        <time>2020-10-24T09:20:05Z</time>
      </trkpt>
      <trkpt lat="46.11912" lon="4.60919">
        <ele>381</ele>
        <time>2020-10-24T09:20:06Z</time>
      </trkpt>
      <trkpt lat="46.11912" lon="4.60919">
        <ele>381.2</ele>
        <time>2020-10-24T09:20:07Z</time>
      </trkpt>
      <trkpt lat="46.11913" lon="4.60913">
        <ele>381.6</ele>
        <time>2020-10-24T09:20:08Z</time>
      </trkpt>
      <trkpt lat="46.11913" lon="4.60911">
        <ele>381.8</ele>
        <time>2020-10-24T09:20:09Z</time>
      </trkpt>
      <trkpt lat="46.11913" lon="4.60911">
        <ele>382</ele>
        <time>2020-10-24T09:20:10Z</time>
      </trkpt>
      <trkpt lat="46.11913" lon="4.60908">
        <ele>382.4</ele>
        <time>2020-10-24T09:20:11Z</time>
      </trkpt>
      <trkpt lat="46.11913" lon="4.60908">
        <ele>382.8</ele>
        <time>2020-10-24T09:20:12Z</time>
      </trkpt>
      <trkpt lat="46.11913" lon="4.60904">
        <ele>383</ele>
        <time>2020-10-24T09:20:13Z</time>
      </trkpt>
      <trkpt lat="46.11913" lon="4.60904">
        <ele>383</ele>
        <time>2020-10-24T09:20:14Z</time>
      </trkpt>
      <trkpt lat="46.11913" lon="4.60901">
        <ele>383.4</ele>
        <time>2020-10-24T09:20:15Z</time>
      </trkpt>
      <trkpt lat="46.11913" lon="4.60901">
        <ele>383.8</ele>
        <time>2020-10-24T09:20:16Z</time>
      </trkpt>
      <trkpt lat="46.11913" lon="4.60898">
        <ele>384</ele>
        <time>2020-10-24T09:20:17Z</time>
      </trkpt>
      <trkpt lat="46.11913" lon="4.60898">
        <ele>384.2</ele>
        <time>2020-10-24T09:20:18Z</time>
      </trkpt>
      <trkpt lat="46.11913" lon="4.60895">
        <ele>384.8</ele>
        <time>2020-10-24T09:20:19Z</time>
      </trkpt>
      <trkpt lat="46.11913" lon="4.60895">
        <ele>385.2</ele>
        <time>2020-10-24T09:20:20Z</time>
      </trkpt>
      <trkpt lat="46.11913" lon="4.60891">
        <ele>385.8</ele>
        <time>2020-10-24T09:20:21Z</time>
      </trkpt>
      <trkpt lat="46.11913" lon="4.60891">
        <ele>385.8</ele>
        <time>2020-10-24T09:20:22Z</time>
      </trkpt>
      <trkpt lat="46.11914" lon="4.60887">
        <ele>385.8</ele>
        <time>2020-10-24T09:20:23Z</time>
      </trkpt>
      <trkpt lat="46.11914" lon="4.60887">
        <ele>385.8</ele>
        <time>2020-10-24T09:20:24Z</time>
      </trkpt>
      <trkpt lat="46.11914" lon="4.60884">
        <ele>386</ele>
        <time>2020-10-24T09:20:25Z</time>
      </trkpt>
      <trkpt lat="46.11914" lon="4.60884">
        <ele>386</ele>
        <time>2020-10-24T09:20:26Z</time>
      </trkpt>
      <trkpt lat="46.11914" lon="4.60881">
        <ele>386</ele>
        <time>2020-10-24T09:20:27Z</time>
      </trkpt>
      <trkpt lat="46.11914" lon="4.60881">
        <ele>386.2</ele>
        <time>2020-10-24T09:20:28Z</time>
      </trkpt>
      <trkpt lat="46.11914" lon="4.60878">
        <ele>386.4</ele>
        <time>2020-10-24T09:20:29Z</time>
      </trkpt>
      <trkpt lat="46.11914" lon="4.60878">
        <ele>386.4</ele>
        <time>2020-10-24T09:20:30Z</time>
      </trkpt>
      <trkpt lat="46.11914" lon="4.60878">
        <ele>386.4</ele>
        <time>2020-10-24T09:20:31Z</time>
      </trkpt>
      <trkpt lat="46.11914" lon="4.60873">
        <ele>386.4</ele>
        <time>2020-10-24T09:20:32Z</time>
      </trkpt>
      <trkpt lat="46.11914" lon="4.60872">
        <ele>386.4</ele>
        <time>2020-10-24T09:20:33Z</time>
      </trkpt>
      <trkpt lat="46.11914" lon="4.60872">
        <ele>386.4</ele>
        <time>2020-10-24T09:20:34Z</time>
      </trkpt>
      <trkpt lat="46.11914" lon="4.60867">
        <ele>386.8</ele>
        <time>2020-10-24T09:20:35Z</time>
      </trkpt>
      <trkpt lat="46.11914" lon="4.60867">
        <ele>386.8</ele>
        <time>2020-10-24T09:20:36Z</time>
      </trkpt>
      <trkpt lat="46.11914" lon="4.60864">
        <ele>387.2</ele>
        <time>2020-10-24T09:20:37Z</time>
      </trkpt>
      <trkpt lat="46.11914" lon="4.60864">
        <ele>387.4</ele>
        <time>2020-10-24T09:20:38Z</time>
      </trkpt>
      <trkpt lat="46.11913" lon="4.60861">
        <ele>387.4</ele>
        <time>2020-10-24T09:20:39Z</time>
      </trkpt>
      <trkpt lat="46.11913" lon="4.60861">
        <ele>387.4</ele>
        <time>2020-10-24T09:20:40Z</time>
      </trkpt>
      <trkpt lat="46.11913" lon="4.60861">
        <ele>387.6</ele>
        <time>2020-10-24T09:20:41Z</time>
      </trkpt>
      <trkpt lat="46.11912" lon="4.60855">
        <ele>387.8</ele>
        <time>2020-10-24T09:20:42Z</time>
      </trkpt>
      <trkpt lat="46.11913" lon="4.60854">
        <ele>388</ele>
        <time>2020-10-24T09:20:43Z</time>
      </trkpt>
      <trkpt lat="46.11913" lon="4.60854">
        <ele>388.2</ele>
        <time>2020-10-24T09:20:44Z</time>
      </trkpt>
      <trkpt lat="46.11913" lon="4.6085">
        <ele>388.4</ele>
        <time>2020-10-24T09:20:45Z</time>
      </trkpt>
      <trkpt lat="46.11913" lon="4.6085">
        <ele>388.6</ele>
        <time>2020-10-24T09:20:46Z</time>
      </trkpt>
      <trkpt lat="46.11913" lon="4.6085">
        <ele>388.8</ele>
        <time>2020-10-24T09:20:47Z</time>
      </trkpt>
      <trkpt lat="46.11912" lon="4.60845">
        <ele>389</ele>
        <time>2020-10-24T09:20:48Z</time>
      </trkpt>
      <trkpt lat="46.11912" lon="4.60843">
        <ele>389.4</ele>
        <time>2020-10-24T09:20:49Z</time>
      </trkpt>
      <trkpt lat="46.11912" lon="4.60843">
        <ele>389.6</ele>
        <time>2020-10-24T09:20:50Z</time>
      </trkpt>
      <trkpt lat="46.11912" lon="4.60839">
        <ele>389.8</ele>
        <time>2020-10-24T09:20:51Z</time>
      </trkpt>
      <trkpt lat="46.11912" lon="4.60839">
        <ele>389.8</ele>
        <time>2020-10-24T09:20:52Z</time>
      </trkpt>
      <trkpt lat="46.11913" lon="4.60835">
        <ele>390</ele>
        <time>2020-10-24T09:20:53Z</time>
      </trkpt>
      <trkpt lat="46.11913" lon="4.60835">
        <ele>390</ele>
        <time>2020-10-24T09:20:54Z</time>
      </trkpt>
      <trkpt lat="46.11913" lon="4.60831">
        <ele>390</ele>
        <time>2020-10-24T09:20:55Z</time>
      </trkpt>
      <trkpt lat="46.11913" lon="4.60831">
        <ele>390.4</ele>
        <time>2020-10-24T09:20:56Z</time>
      </trkpt>
      <trkpt lat="46.11914" lon="4.60827">
        <ele>390.4</ele>
        <time>2020-10-24T09:20:57Z</time>
      </trkpt>
      <trkpt lat="46.11914" lon="4.60827">
        <ele>390.8</ele>
        <time>2020-10-24T09:20:58Z</time>
      </trkpt>
      <trkpt lat="46.11914" lon="4.60822">
        <ele>391</ele>
        <time>2020-10-24T09:20:59Z</time>
      </trkpt>
      <trkpt lat="46.11914" lon="4.60822">
        <ele>391</ele>
        <time>2020-10-24T09:21:00Z</time>
      </trkpt>
      <trkpt lat="46.11915" lon="4.60818">
        <ele>391</ele>
        <time>2020-10-24T09:21:01Z</time>
      </trkpt>
      <trkpt lat="46.11915" lon="4.60818">
        <ele>391</ele>
        <time>2020-10-24T09:21:02Z</time>
      </trkpt>
      <trkpt lat="46.11916" lon="4.60814">
        <ele>391.2</ele>
        <time>2020-10-24T09:21:03Z</time>
      </trkpt>
      <trkpt lat="46.11916" lon="4.60814">
        <ele>391.6</ele>
        <time>2020-10-24T09:21:04Z</time>
      </trkpt>
      <trkpt lat="46.11916" lon="4.6081">
        <ele>392</ele>
        <time>2020-10-24T09:21:05Z</time>
      </trkpt>
      <trkpt lat="46.11916" lon="4.6081">
        <ele>392.2</ele>
        <time>2020-10-24T09:21:06Z</time>
      </trkpt>
      <trkpt lat="46.11916" lon="4.6081">
        <ele>392.2</ele>
        <time>2020-10-24T09:21:07Z</time>
      </trkpt>
      <trkpt lat="46.11917" lon="4.60804">
        <ele>392.2</ele>
        <time>2020-10-24T09:21:08Z</time>
      </trkpt>
      <trkpt lat="46.11917" lon="4.60802">
        <ele>392.2</ele>
        <time>2020-10-24T09:21:09Z</time>
      </trkpt>
      <trkpt lat="46.11917" lon="4.60802">
        <ele>392.4</ele>
        <time>2020-10-24T09:21:10Z</time>
      </trkpt>
      <trkpt lat="46.11917" lon="4.60798">
        <ele>392.6</ele>
        <time>2020-10-24T09:21:11Z</time>
      </trkpt>
      <trkpt lat="46.11917" lon="4.60798">
        <ele>392.8</ele>
        <time>2020-10-24T09:21:12Z</time>
      </trkpt>
      <trkpt lat="46.11918" lon="4.60795">
        <ele>393.2</ele>
        <time>2020-10-24T09:21:13Z</time>
      </trkpt>
      <trkpt lat="46.11918" lon="4.60795">
        <ele>393.4</ele>
        <time>2020-10-24T09:21:14Z</time>
      </trkpt>
      <trkpt lat="46.11919" lon="4.60792">
        <ele>393.6</ele>
        <time>2020-10-24T09:21:15Z</time>
      </trkpt>
      <trkpt lat="46.11919" lon="4.60792">
        <ele>393.6</ele>
        <time>2020-10-24T09:21:16Z</time>
      </trkpt>
      <trkpt lat="46.1192" lon="4.60788">
        <ele>393.8</ele>
        <time>2020-10-24T09:21:17Z</time>
      </trkpt>
      <trkpt lat="46.1192" lon="4.60788">
        <ele>394</ele>
        <time>2020-10-24T09:21:18Z</time>
      </trkpt>
      <trkpt lat="46.1192" lon="4.60788">
        <ele>394</ele>
        <time>2020-10-24T09:21:19Z</time>
      </trkpt>
      <trkpt lat="46.11921" lon="4.60784">
        <ele>393.8</ele>
        <time>2020-10-24T09:21:20Z</time>
      </trkpt>
      <trkpt lat="46.11921" lon="4.60782">
        <ele>393.8</ele>
        <time>2020-10-24T09:21:21Z</time>
      </trkpt>
      <trkpt lat="46.11921" lon="4.60782">
        <ele>393.8</ele>
        <time>2020-10-24T09:21:22Z</time>
      </trkpt>
      <trkpt lat="46.11921" lon="4.60778">
        <ele>394</ele>
        <time>2020-10-24T09:21:23Z</time>
      </trkpt>
      <trkpt lat="46.11921" lon="4.60778">
        <ele>394</ele>
        <time>2020-10-24T09:21:24Z</time>
      </trkpt>
      <trkpt lat="46.11921" lon="4.60774">
        <ele>394</ele>
        <time>2020-10-24T09:21:25Z</time>
      </trkpt>
      <trkpt lat="46.11921" lon="4.60774">
        <ele>394</ele>
        <time>2020-10-24T09:21:26Z</time>
      </trkpt>
      <trkpt lat="46.11921" lon="4.60771">
        <ele>394.2</ele>
        <time>2020-10-24T09:21:27Z</time>
      </trkpt>
      <trkpt lat="46.11921" lon="4.60771">
        <ele>394.2</ele>
        <time>2020-10-24T09:21:28Z</time>
      </trkpt>
      <trkpt lat="46.11922" lon="4.60767">
        <ele>394.4</ele>
        <time>2020-10-24T09:21:29Z</time>
      </trkpt>
      <trkpt lat="46.11922" lon="4.60767">
        <ele>394.6</ele>
        <time>2020-10-24T09:21:30Z</time>
      </trkpt>
      <trkpt lat="46.11922" lon="4.60767">
        <ele>394.6</ele>
        <time>2020-10-24T09:21:31Z</time>
      </trkpt>
      <trkpt lat="46.11922" lon="4.60762">
        <ele>395</ele>
        <time>2020-10-24T09:21:32Z</time>
      </trkpt>
      <trkpt lat="46.11922" lon="4.60759">
        <ele>395.2</ele>
        <time>2020-10-24T09:21:33Z</time>
      </trkpt>
      <trkpt lat="46.11922" lon="4.60759">
        <ele>395.2</ele>
        <time>2020-10-24T09:21:34Z</time>
      </trkpt>
      <trkpt lat="46.11922" lon="4.60755">
        <ele>395.2</ele>
        <time>2020-10-24T09:21:35Z</time>
      </trkpt>
      <trkpt lat="46.11922" lon="4.60755">
        <ele>395.4</ele>
        <time>2020-10-24T09:21:36Z</time>
      </trkpt>
      <trkpt lat="46.11922" lon="4.60751">
        <ele>395.6</ele>
        <time>2020-10-24T09:21:37Z</time>
      </trkpt>
      <trkpt lat="46.11922" lon="4.60751">
        <ele>396</ele>
        <time>2020-10-24T09:21:38Z</time>
      </trkpt>
      <trkpt lat="46.11921" lon="4.60747">
        <ele>396.2</ele>
        <time>2020-10-24T09:21:39Z</time>
      </trkpt>
      <trkpt lat="46.11921" lon="4.60747">
        <ele>396.2</ele>
        <time>2020-10-24T09:21:40Z</time>
      </trkpt>
      <trkpt lat="46.11921" lon="4.60742">
        <ele>396.2</ele>
        <time>2020-10-24T09:21:41Z</time>
      </trkpt>
      <trkpt lat="46.11921" lon="4.60742">
        <ele>396.4</ele>
        <time>2020-10-24T09:21:42Z</time>
      </trkpt>
      <trkpt lat="46.11921" lon="4.60742">
        <ele>396.4</ele>
        <time>2020-10-24T09:21:43Z</time>
      </trkpt>
      <trkpt lat="46.11921" lon="4.60736">
        <ele>396.6</ele>
        <time>2020-10-24T09:21:44Z</time>
      </trkpt>
      <trkpt lat="46.11921" lon="4.60735">
        <ele>397</ele>
        <time>2020-10-24T09:21:45Z</time>
      </trkpt>
      <trkpt lat="46.11921" lon="4.60735">
        <ele>397</ele>
        <time>2020-10-24T09:21:46Z</time>
      </trkpt>
      <trkpt lat="46.11921" lon="4.60731">
        <ele>397</ele>
        <time>2020-10-24T09:21:47Z</time>
      </trkpt>
      <trkpt lat="46.11921" lon="4.60731">
        <ele>397.2</ele>
        <time>2020-10-24T09:21:48Z</time>
      </trkpt>
      <trkpt lat="46.11921" lon="4.60727">
        <ele>397.4</ele>
        <time>2020-10-24T09:21:49Z</time>
      </trkpt>
      <trkpt lat="46.11921" lon="4.60727">
        <ele>397.6</ele>
        <time>2020-10-24T09:21:50Z</time>
      </trkpt>
      <trkpt lat="46.11921" lon="4.60724">
        <ele>397.8</ele>
        <time>2020-10-24T09:21:51Z</time>
      </trkpt>
      <trkpt lat="46.11921" lon="4.60724">
        <ele>398</ele>
        <time>2020-10-24T09:21:52Z</time>
      </trkpt>
      <trkpt lat="46.1192" lon="4.60721">
        <ele>398</ele>
        <time>2020-10-24T09:21:53Z</time>
      </trkpt>
      <trkpt lat="46.1192" lon="4.60721">
        <ele>398</ele>
        <time>2020-10-24T09:21:54Z</time>
      </trkpt>
      <trkpt lat="46.1192" lon="4.60716">
        <ele>398.2</ele>
        <time>2020-10-24T09:21:55Z</time>
      </trkpt>
      <trkpt lat="46.1192" lon="4.60716">
        <ele>398.4</ele>
        <time>2020-10-24T09:21:56Z</time>
      </trkpt>
      <trkpt lat="46.11921" lon="4.60711">
        <ele>398.8</ele>
        <time>2020-10-24T09:21:57Z</time>
      </trkpt>
      <trkpt lat="46.11921" lon="4.60711">
        <ele>398.8</ele>
        <time>2020-10-24T09:21:58Z</time>
      </trkpt>
      <trkpt lat="46.11921" lon="4.60706">
        <ele>399</ele>
        <time>2020-10-24T09:21:59Z</time>
      </trkpt>
      <trkpt lat="46.11921" lon="4.60706">
        <ele>399.2</ele>
        <time>2020-10-24T09:22:00Z</time>
      </trkpt>
      <trkpt lat="46.11921" lon="4.60706">
        <ele>399.4</ele>
        <time>2020-10-24T09:22:01Z</time>
      </trkpt>
      <trkpt lat="46.11923" lon="4.607">
        <ele>399.6</ele>
        <time>2020-10-24T09:22:02Z</time>
      </trkpt>
      <trkpt lat="46.11923" lon="4.60698">
        <ele>399.8</ele>
        <time>2020-10-24T09:22:03Z</time>
      </trkpt>
      <trkpt lat="46.11923" lon="4.60698">
        <ele>399.8</ele>
        <time>2020-10-24T09:22:04Z</time>
      </trkpt>
      <trkpt lat="46.11923" lon="4.60695">
        <ele>400</ele>
        <time>2020-10-24T09:22:05Z</time>
      </trkpt>
      <trkpt lat="46.11923" lon="4.60695">
        <ele>400.2</ele>
        <time>2020-10-24T09:22:06Z</time>
      </trkpt>
      <trkpt lat="46.11924" lon="4.60692">
        <ele>400.2</ele>
        <time>2020-10-24T09:22:07Z</time>
      </trkpt>
      <trkpt lat="46.11924" lon="4.60692">
        <ele>400.4</ele>
        <time>2020-10-24T09:22:08Z</time>
      </trkpt>
      <trkpt lat="46.11925" lon="4.60688">
        <ele>400.6</ele>
        <time>2020-10-24T09:22:09Z</time>
      </trkpt>
      <trkpt lat="46.11925" lon="4.60688">
        <ele>400.6</ele>
        <time>2020-10-24T09:22:10Z</time>
      </trkpt>
      <trkpt lat="46.11926" lon="4.60685">
        <ele>400.6</ele>
        <time>2020-10-24T09:22:11Z</time>
      </trkpt>
      <trkpt lat="46.11926" lon="4.60685">
        <ele>400.8</ele>
        <time>2020-10-24T09:22:12Z</time>
      </trkpt>
      <trkpt lat="46.11927" lon="4.6068">
        <ele>401</ele>
        <time>2020-10-24T09:22:13Z</time>
      </trkpt>
      <trkpt lat="46.11927" lon="4.6068">
        <ele>401.2</ele>
        <time>2020-10-24T09:22:14Z</time>
      </trkpt>
      <trkpt lat="46.11928" lon="4.60677">
        <ele>401.2</ele>
        <time>2020-10-24T09:22:15Z</time>
      </trkpt>
      <trkpt lat="46.11928" lon="4.60677">
        <ele>401.4</ele>
        <time>2020-10-24T09:22:16Z</time>
      </trkpt>
      <trkpt lat="46.1193" lon="4.60674">
        <ele>401.6</ele>
        <time>2020-10-24T09:22:17Z</time>
      </trkpt>
      <trkpt lat="46.1193" lon="4.60674">
        <ele>401.8</ele>
        <time>2020-10-24T09:22:18Z</time>
      </trkpt>
      <trkpt lat="46.11932" lon="4.60671">
        <ele>402</ele>
        <time>2020-10-24T09:22:19Z</time>
      </trkpt>
      <trkpt lat="46.11932" lon="4.60671">
        <ele>402.2</ele>
        <time>2020-10-24T09:22:20Z</time>
      </trkpt>
      <trkpt lat="46.11934" lon="4.60668">
        <ele>402.4</ele>
        <time>2020-10-24T09:22:21Z</time>
      </trkpt>
      <trkpt lat="46.11934" lon="4.60668">
        <ele>402.6</ele>
        <time>2020-10-24T09:22:22Z</time>
      </trkpt>
      <trkpt lat="46.11934" lon="4.60668">
        <ele>402.6</ele>
        <time>2020-10-24T09:22:23Z</time>
      </trkpt>
      <trkpt lat="46.11935" lon="4.60665">
        <ele>402.8</ele>
        <time>2020-10-24T09:22:24Z</time>
      </trkpt>
      <trkpt lat="46.11935" lon="4.60665">
        <ele>402.8</ele>
        <time>2020-10-24T09:22:25Z</time>
      </trkpt>
      <trkpt lat="46.11935" lon="4.60665">
        <ele>403</ele>
        <time>2020-10-24T09:22:26Z</time>
      </trkpt>
      <trkpt lat="46.11938" lon="4.6066">
        <ele>403.4</ele>
        <time>2020-10-24T09:22:27Z</time>
      </trkpt>
      <trkpt lat="46.11938" lon="4.60659">
        <ele>403.6</ele>
        <time>2020-10-24T09:22:28Z</time>
      </trkpt>
      <trkpt lat="46.11938" lon="4.60659">
        <ele>403.8</ele>
        <time>2020-10-24T09:22:29Z</time>
      </trkpt>
      <trkpt lat="46.11938" lon="4.60656">
        <ele>403.8</ele>
        <time>2020-10-24T09:22:30Z</time>
      </trkpt>
      <trkpt lat="46.11938" lon="4.60656">
        <ele>403.8</ele>
        <time>2020-10-24T09:22:31Z</time>
      </trkpt>
      <trkpt lat="46.11937" lon="4.60653">
        <ele>404</ele>
        <time>2020-10-24T09:22:32Z</time>
      </trkpt>
      <trkpt lat="46.11937" lon="4.60653">
        <ele>404.2</ele>
        <time>2020-10-24T09:22:33Z</time>
      </trkpt>
      <trkpt lat="46.11935" lon="4.6065">
        <ele>404.4</ele>
        <time>2020-10-24T09:22:34Z</time>
      </trkpt>
      <trkpt lat="46.11935" lon="4.6065">
        <ele>404.4</ele>
        <time>2020-10-24T09:22:35Z</time>
      </trkpt>
      <trkpt lat="46.11933" lon="4.60646">
        <ele>404.4</ele>
        <time>2020-10-24T09:22:36Z</time>
      </trkpt>
      <trkpt lat="46.11933" lon="4.60646">
        <ele>404.4</ele>
        <time>2020-10-24T09:22:37Z</time>
      </trkpt>
      <trkpt lat="46.11931" lon="4.60642">
        <ele>404.6</ele>
        <time>2020-10-24T09:22:38Z</time>
      </trkpt>
      <trkpt lat="46.11931" lon="4.60642">
        <ele>404.4</ele>
        <time>2020-10-24T09:22:39Z</time>
      </trkpt>
      <trkpt lat="46.11929" lon="4.60639">
        <ele>404.4</ele>
        <time>2020-10-24T09:22:40Z</time>
      </trkpt>
      <trkpt lat="46.11929" lon="4.60639">
        <ele>404.6</ele>
        <time>2020-10-24T09:22:41Z</time>
      </trkpt>
      <trkpt lat="46.11929" lon="4.60639">
        <ele>404.6</ele>
        <time>2020-10-24T09:22:42Z</time>
      </trkpt>
      <trkpt lat="46.11926" lon="4.60634">
        <ele>404.6</ele>
        <time>2020-10-24T09:22:43Z</time>
      </trkpt>
      <trkpt lat="46.11925" lon="4.60632">
        <ele>404.6</ele>
        <time>2020-10-24T09:22:44Z</time>
      </trkpt>
      <trkpt lat="46.11924" lon="4.6063">
        <ele>404.6</ele>
        <time>2020-10-24T09:22:45Z</time>
      </trkpt>
      <trkpt lat="46.11923" lon="4.60627">
        <ele>405.2</ele>
        <time>2020-10-24T09:22:46Z</time>
      </trkpt>
      <trkpt lat="46.11921" lon="4.60625">
        <ele>405.4</ele>
        <time>2020-10-24T09:22:47Z</time>
      </trkpt>
      <trkpt lat="46.1192" lon="4.60622">
        <ele>405.4</ele>
        <time>2020-10-24T09:22:48Z</time>
      </trkpt>
      <trkpt lat="46.11919" lon="4.60618">
        <ele>405.6</ele>
        <time>2020-10-24T09:22:49Z</time>
      </trkpt>
      <trkpt lat="46.11919" lon="4.60618">
        <ele>405.6</ele>
        <time>2020-10-24T09:22:50Z</time>
      </trkpt>
      <trkpt lat="46.11917" lon="4.60611">
        <ele>405.8</ele>
        <time>2020-10-24T09:22:51Z</time>
      </trkpt>
      <trkpt lat="46.11916" lon="4.60607">
        <ele>405.4</ele>
        <time>2020-10-24T09:22:52Z</time>
      </trkpt>
      <trkpt lat="46.11916" lon="4.60604">
        <ele>405.2</ele>
        <time>2020-10-24T09:22:53Z</time>
      </trkpt>
      <trkpt lat="46.11915" lon="4.606">
        <ele>405.6</ele>
        <time>2020-10-24T09:22:54Z</time>
      </trkpt>
      <trkpt lat="46.11914" lon="4.60597">
        <ele>405.4</ele>
        <time>2020-10-24T09:22:55Z</time>
      </trkpt>
      <trkpt lat="46.11913" lon="4.60593">
        <ele>405.4</ele>
        <time>2020-10-24T09:22:56Z</time>
      </trkpt>
      <trkpt lat="46.11912" lon="4.60589">
        <ele>405.6</ele>
        <time>2020-10-24T09:22:57Z</time>
      </trkpt>
      <trkpt lat="46.11911" lon="4.60586">
        <ele>405.4</ele>
        <time>2020-10-24T09:22:58Z</time>
      </trkpt>
      <trkpt lat="46.1191" lon="4.60582">
        <ele>405.4</ele>
        <time>2020-10-24T09:22:59Z</time>
      </trkpt>
      <trkpt lat="46.11909" lon="4.60578">
        <ele>405</ele>
        <time>2020-10-24T09:23:00Z</time>
      </trkpt>
      <trkpt lat="46.11908" lon="4.60575">
        <ele>404.6</ele>
        <time>2020-10-24T09:23:01Z</time>
      </trkpt>
      <trkpt lat="46.11907" lon="4.60571">
        <ele>404.8</ele>
        <time>2020-10-24T09:23:02Z</time>
      </trkpt>
      <trkpt lat="46.11907" lon="4.60571">
        <ele>404.6</ele>
        <time>2020-10-24T09:23:03Z</time>
      </trkpt>
      <trkpt lat="46.11906" lon="4.60563">
        <ele>404.6</ele>
        <time>2020-10-24T09:23:04Z</time>
      </trkpt>
      <trkpt lat="46.11905" lon="4.6056">
        <ele>404.6</ele>
        <time>2020-10-24T09:23:05Z</time>
      </trkpt>
      <trkpt lat="46.11905" lon="4.60556">
        <ele>404.4</ele>
        <time>2020-10-24T09:23:06Z</time>
      </trkpt>
      <trkpt lat="46.11904" lon="4.60552">
        <ele>404.4</ele>
        <time>2020-10-24T09:23:07Z</time>
      </trkpt>
      <trkpt lat="46.11902" lon="4.60548">
        <ele>404.2</ele>
        <time>2020-10-24T09:23:08Z</time>
      </trkpt>
      <trkpt lat="46.11902" lon="4.60545">
        <ele>404</ele>
        <time>2020-10-24T09:23:09Z</time>
      </trkpt>
      <trkpt lat="46.11901" lon="4.60541">
        <ele>404.2</ele>
        <time>2020-10-24T09:23:10Z</time>
      </trkpt>
      <trkpt lat="46.11899" lon="4.60538">
        <ele>404</ele>
        <time>2020-10-24T09:23:11Z</time>
      </trkpt>
      <trkpt lat="46.11898" lon="4.60534">
        <ele>403.8</ele>
        <time>2020-10-24T09:23:12Z</time>
      </trkpt>
      <trkpt lat="46.11898" lon="4.6053">
        <ele>403.8</ele>
        <time>2020-10-24T09:23:13Z</time>
      </trkpt>
      <trkpt lat="46.11897" lon="4.60526">
        <ele>403.6</ele>
        <time>2020-10-24T09:23:14Z</time>
      </trkpt>
      <trkpt lat="46.11896" lon="4.60522">
        <ele>403.8</ele>
        <time>2020-10-24T09:23:15Z</time>
      </trkpt>
      <trkpt lat="46.11895" lon="4.60518">
        <ele>403.4</ele>
        <time>2020-10-24T09:23:16Z</time>
      </trkpt>
      <trkpt lat="46.11894" lon="4.60513">
        <ele>403.2</ele>
        <time>2020-10-24T09:23:17Z</time>
      </trkpt>
      <trkpt lat="46.11892" lon="4.60509">
        <ele>403.8</ele>
        <time>2020-10-24T09:23:18Z</time>
      </trkpt>
      <trkpt lat="46.11891" lon="4.60506">
        <ele>403.6</ele>
        <time>2020-10-24T09:23:19Z</time>
      </trkpt>
      <trkpt lat="46.1189" lon="4.60502">
        <ele>403.8</ele>
        <time>2020-10-24T09:23:20Z</time>
      </trkpt>
      <trkpt lat="46.11889" lon="4.60499">
        <ele>403.8</ele>
        <time>2020-10-24T09:23:21Z</time>
      </trkpt>
      <trkpt lat="46.11889" lon="4.60499">
        <ele>403.6</ele>
        <time>2020-10-24T09:23:22Z</time>
      </trkpt>
      <trkpt lat="46.11887" lon="4.60491">
        <ele>403.8</ele>
        <time>2020-10-24T09:23:23Z</time>
      </trkpt>
      <trkpt lat="46.11886" lon="4.60488">
        <ele>403.4</ele>
        <time>2020-10-24T09:23:24Z</time>
      </trkpt>
      <trkpt lat="46.11885" lon="4.60485">
        <ele>403.2</ele>
        <time>2020-10-24T09:23:25Z</time>
      </trkpt>
      <trkpt lat="46.11885" lon="4.60485">
        <ele>403.4</ele>
        <time>2020-10-24T09:23:26Z</time>
      </trkpt>
      <trkpt lat="46.11882" lon="4.60478">
        <ele>403.2</ele>
        <time>2020-10-24T09:23:27Z</time>
      </trkpt>
      <trkpt lat="46.11881" lon="4.60476">
        <ele>402.8</ele>
        <time>2020-10-24T09:23:28Z</time>
      </trkpt>
      <trkpt lat="46.11879" lon="4.60472">
        <ele>403.2</ele>
        <time>2020-10-24T09:23:29Z</time>
      </trkpt>
      <trkpt lat="46.11877" lon="4.60469">
        <ele>403.2</ele>
        <time>2020-10-24T09:23:30Z</time>
      </trkpt>
      <trkpt lat="46.11876" lon="4.60466">
        <ele>403.4</ele>
        <time>2020-10-24T09:23:31Z</time>
      </trkpt>
      <trkpt lat="46.11874" lon="4.60463">
        <ele>403.4</ele>
        <time>2020-10-24T09:23:32Z</time>
      </trkpt>
      <trkpt lat="46.11873" lon="4.60459">
        <ele>403.4</ele>
        <time>2020-10-24T09:23:33Z</time>
      </trkpt>
      <trkpt lat="46.11871" lon="4.60456">
        <ele>403.8</ele>
        <time>2020-10-24T09:23:34Z</time>
      </trkpt>
      <trkpt lat="46.11869" lon="4.60453">
        <ele>403.8</ele>
        <time>2020-10-24T09:23:35Z</time>
      </trkpt>
      <trkpt lat="46.11867" lon="4.60451">
        <ele>403.6</ele>
        <time>2020-10-24T09:23:36Z</time>
      </trkpt>
      <trkpt lat="46.11865" lon="4.60449">
        <ele>403.6</ele>
        <time>2020-10-24T09:23:37Z</time>
      </trkpt>
      <trkpt lat="46.11864" lon="4.60446">
        <ele>403.6</ele>
        <time>2020-10-24T09:23:38Z</time>
      </trkpt>
      <trkpt lat="46.11862" lon="4.60444">
        <ele>404</ele>
        <time>2020-10-24T09:23:39Z</time>
      </trkpt>
      <trkpt lat="46.1186" lon="4.60441">
        <ele>403.8</ele>
        <time>2020-10-24T09:23:40Z</time>
      </trkpt>
      <trkpt lat="46.11858" lon="4.60439">
        <ele>403.6</ele>
        <time>2020-10-24T09:23:41Z</time>
      </trkpt>
      <trkpt lat="46.11855" lon="4.60438">
        <ele>404.2</ele>
        <time>2020-10-24T09:23:42Z</time>
      </trkpt>
      <trkpt lat="46.11853" lon="4.60436">
        <ele>404.2</ele>
        <time>2020-10-24T09:23:43Z</time>
      </trkpt>
      <trkpt lat="46.11851" lon="4.60434">
        <ele>404.6</ele>
        <time>2020-10-24T09:23:44Z</time>
      </trkpt>
      <trkpt lat="46.11848" lon="4.60432">
        <ele>404.6</ele>
        <time>2020-10-24T09:23:45Z</time>
      </trkpt>
      <trkpt lat="46.11846" lon="4.60431">
        <ele>404.4</ele>
        <time>2020-10-24T09:23:46Z</time>
      </trkpt>
      <trkpt lat="46.11844" lon="4.6043">
        <ele>405</ele>
        <time>2020-10-24T09:23:47Z</time>
      </trkpt>
      <trkpt lat="46.11841" lon="4.60428">
        <ele>405.2</ele>
        <time>2020-10-24T09:23:48Z</time>
      </trkpt>
      <trkpt lat="46.11839" lon="4.60427">
        <ele>405.4</ele>
        <time>2020-10-24T09:23:49Z</time>
      </trkpt>
      <trkpt lat="46.11837" lon="4.60426">
        <ele>405.6</ele>
        <time>2020-10-24T09:23:50Z</time>
      </trkpt>
      <trkpt lat="46.11835" lon="4.60425">
        <ele>405.4</ele>
        <time>2020-10-24T09:23:51Z</time>
      </trkpt>
      <trkpt lat="46.11833" lon="4.60424">
        <ele>406</ele>
        <time>2020-10-24T09:23:52Z</time>
      </trkpt>
      <trkpt lat="46.1183" lon="4.60424">
        <ele>406</ele>
        <time>2020-10-24T09:23:53Z</time>
      </trkpt>
      <trkpt lat="46.11828" lon="4.60424">
        <ele>405.8</ele>
        <time>2020-10-24T09:23:54Z</time>
      </trkpt>
      <trkpt lat="46.11826" lon="4.60424">
        <ele>406</ele>
        <time>2020-10-24T09:23:55Z</time>
      </trkpt>
      <trkpt lat="46.11824" lon="4.60425">
        <ele>406.2</ele>
        <time>2020-10-24T09:23:56Z</time>
      </trkpt>
      <trkpt lat="46.11822" lon="4.60425">
        <ele>406.6</ele>
        <time>2020-10-24T09:23:57Z</time>
      </trkpt>
      <trkpt lat="46.11819" lon="4.60425">
        <ele>406.4</ele>
        <time>2020-10-24T09:23:58Z</time>
      </trkpt>
      <trkpt lat="46.11817" lon="4.60425">
        <ele>406.4</ele>
        <time>2020-10-24T09:23:59Z</time>
      </trkpt>
      <trkpt lat="46.11814" lon="4.60425">
        <ele>407</ele>
        <time>2020-10-24T09:24:00Z</time>
      </trkpt>
      <trkpt lat="46.11812" lon="4.60426">
        <ele>407</ele>
        <time>2020-10-24T09:24:01Z</time>
      </trkpt>
      <trkpt lat="46.11809" lon="4.60426">
        <ele>407.4</ele>
        <time>2020-10-24T09:24:02Z</time>
      </trkpt>
      <trkpt lat="46.11806" lon="4.60427">
        <ele>407.6</ele>
        <time>2020-10-24T09:24:03Z</time>
      </trkpt>
      <trkpt lat="46.11804" lon="4.60428">
        <ele>407.8</ele>
        <time>2020-10-24T09:24:04Z</time>
      </trkpt>
      <trkpt lat="46.11802" lon="4.60429">
        <ele>408.2</ele>
        <time>2020-10-24T09:24:05Z</time>
      </trkpt>
      <trkpt lat="46.118" lon="4.60429">
        <ele>408</ele>
        <time>2020-10-24T09:24:06Z</time>
      </trkpt>
      <trkpt lat="46.118" lon="4.60429">
        <ele>407.8</ele>
        <time>2020-10-24T09:24:07Z</time>
      </trkpt>
      <trkpt lat="46.11794" lon="4.6043">
        <ele>408.4</ele>
        <time>2020-10-24T09:24:08Z</time>
      </trkpt>
      <trkpt lat="46.11792" lon="4.6043">
        <ele>408.4</ele>
        <time>2020-10-24T09:24:09Z</time>
      </trkpt>
      <trkpt lat="46.1179" lon="4.60431">
        <ele>408.6</ele>
        <time>2020-10-24T09:24:10Z</time>
      </trkpt>
      <trkpt lat="46.11787" lon="4.60431">
        <ele>409</ele>
        <time>2020-10-24T09:24:11Z</time>
      </trkpt>
      <trkpt lat="46.11785" lon="4.60432">
        <ele>409</ele>
        <time>2020-10-24T09:24:12Z</time>
      </trkpt>
      <trkpt lat="46.11783" lon="4.60432">
        <ele>409.6</ele>
        <time>2020-10-24T09:24:13Z</time>
      </trkpt>
      <trkpt lat="46.1178" lon="4.60431">
        <ele>409.4</ele>
        <time>2020-10-24T09:24:14Z</time>
      </trkpt>
      <trkpt lat="46.11777" lon="4.6043">
        <ele>409.2</ele>
        <time>2020-10-24T09:24:15Z</time>
      </trkpt>
      <trkpt lat="46.11774" lon="4.60429">
        <ele>409.8</ele>
        <time>2020-10-24T09:24:16Z</time>
      </trkpt>
      <trkpt lat="46.11772" lon="4.60428">
        <ele>409.8</ele>
        <time>2020-10-24T09:24:17Z</time>
      </trkpt>
      <trkpt lat="46.11769" lon="4.60427">
        <ele>410.2</ele>
        <time>2020-10-24T09:24:18Z</time>
      </trkpt>
      <trkpt lat="46.11766" lon="4.60426">
        <ele>410.4</ele>
        <time>2020-10-24T09:24:19Z</time>
      </trkpt>
      <trkpt lat="46.11764" lon="4.60425">
        <ele>410.4</ele>
        <time>2020-10-24T09:24:20Z</time>
      </trkpt>
      <trkpt lat="46.11761" lon="4.60424">
        <ele>411</ele>
        <time>2020-10-24T09:24:21Z</time>
      </trkpt>
      <trkpt lat="46.11759" lon="4.60423">
        <ele>411.2</ele>
        <time>2020-10-24T09:24:22Z</time>
      </trkpt>
      <trkpt lat="46.11757" lon="4.60421">
        <ele>411</ele>
        <time>2020-10-24T09:24:23Z</time>
      </trkpt>
      <trkpt lat="46.11755" lon="4.6042">
        <ele>411.6</ele>
        <time>2020-10-24T09:24:24Z</time>
      </trkpt>
      <trkpt lat="46.11755" lon="4.6042">
        <ele>411.6</ele>
        <time>2020-10-24T09:24:25Z</time>
      </trkpt>
      <trkpt lat="46.11751" lon="4.60416">
        <ele>411.8</ele>
        <time>2020-10-24T09:24:26Z</time>
      </trkpt>
      <trkpt lat="46.11749" lon="4.60415">
        <ele>412</ele>
        <time>2020-10-24T09:24:27Z</time>
      </trkpt>
      <trkpt lat="46.11747" lon="4.60413">
        <ele>412</ele>
        <time>2020-10-24T09:24:28Z</time>
      </trkpt>
      <trkpt lat="46.11745" lon="4.60411">
        <ele>412.6</ele>
        <time>2020-10-24T09:24:29Z</time>
      </trkpt>
      <trkpt lat="46.11744" lon="4.60409">
        <ele>412.6</ele>
        <time>2020-10-24T09:24:30Z</time>
      </trkpt>
      <trkpt lat="46.11742" lon="4.60408">
        <ele>412.8</ele>
        <time>2020-10-24T09:24:31Z</time>
      </trkpt>
      <trkpt lat="46.1174" lon="4.60406">
        <ele>413.2</ele>
        <time>2020-10-24T09:24:32Z</time>
      </trkpt>
      <trkpt lat="46.11738" lon="4.60405">
        <ele>413.2</ele>
        <time>2020-10-24T09:24:33Z</time>
      </trkpt>
      <trkpt lat="46.11736" lon="4.60403">
        <ele>414</ele>
        <time>2020-10-24T09:24:34Z</time>
      </trkpt>
      <trkpt lat="46.11734" lon="4.60401">
        <ele>413.8</ele>
        <time>2020-10-24T09:24:35Z</time>
      </trkpt>
      <trkpt lat="46.11732" lon="4.604">
        <ele>413.8</ele>
        <time>2020-10-24T09:24:36Z</time>
      </trkpt>
      <trkpt lat="46.1173" lon="4.60398">
        <ele>414.4</ele>
        <time>2020-10-24T09:24:37Z</time>
      </trkpt>
      <trkpt lat="46.11728" lon="4.60396">
        <ele>414.4</ele>
        <time>2020-10-24T09:24:38Z</time>
      </trkpt>
      <trkpt lat="46.11726" lon="4.60394">
        <ele>414.8</ele>
        <time>2020-10-24T09:24:39Z</time>
      </trkpt>
      <trkpt lat="46.11724" lon="4.60392">
        <ele>414.8</ele>
        <time>2020-10-24T09:24:40Z</time>
      </trkpt>
      <trkpt lat="46.11723" lon="4.6039">
        <ele>414.8</ele>
        <time>2020-10-24T09:24:41Z</time>
      </trkpt>
      <trkpt lat="46.11721" lon="4.60388">
        <ele>415.2</ele>
        <time>2020-10-24T09:24:42Z</time>
      </trkpt>
      <trkpt lat="46.11718" lon="4.60386">
        <ele>415.4</ele>
        <time>2020-10-24T09:24:43Z</time>
      </trkpt>
      <trkpt lat="46.11717" lon="4.60384">
        <ele>415</ele>
        <time>2020-10-24T09:24:44Z</time>
      </trkpt>
      <trkpt lat="46.11715" lon="4.60382">
        <ele>415.2</ele>
        <time>2020-10-24T09:24:45Z</time>
      </trkpt>
      <trkpt lat="46.11712" lon="4.60379">
        <ele>415.2</ele>
        <time>2020-10-24T09:24:46Z</time>
      </trkpt>
      <trkpt lat="46.1171" lon="4.60377">
        <ele>414.8</ele>
        <time>2020-10-24T09:24:47Z</time>
      </trkpt>
      <trkpt lat="46.11708" lon="4.60375">
        <ele>415</ele>
        <time>2020-10-24T09:24:48Z</time>
      </trkpt>
      <trkpt lat="46.11706" lon="4.60372">
        <ele>415</ele>
        <time>2020-10-24T09:24:49Z</time>
      </trkpt>
      <trkpt lat="46.11704" lon="4.6037">
        <ele>414.4</ele>
        <time>2020-10-24T09:24:50Z</time>
      </trkpt>
      <trkpt lat="46.11703" lon="4.60367">
        <ele>414.6</ele>
        <time>2020-10-24T09:24:51Z</time>
      </trkpt>
      <trkpt lat="46.117" lon="4.60365">
        <ele>414.4</ele>
        <time>2020-10-24T09:24:52Z</time>
      </trkpt>
      <trkpt lat="46.11699" lon="4.60362">
        <ele>413.8</ele>
        <time>2020-10-24T09:24:53Z</time>
      </trkpt>
      <trkpt lat="46.11697" lon="4.6036">
        <ele>414</ele>
        <time>2020-10-24T09:24:54Z</time>
      </trkpt>
      <trkpt lat="46.11695" lon="4.60357">
        <ele>413.6</ele>
        <time>2020-10-24T09:24:55Z</time>
      </trkpt>
      <trkpt lat="46.11694" lon="4.60354">
        <ele>413.2</ele>
        <time>2020-10-24T09:24:56Z</time>
      </trkpt>
      <trkpt lat="46.11693" lon="4.60351">
        <ele>413.4</ele>
        <time>2020-10-24T09:24:57Z</time>
      </trkpt>
      <trkpt lat="46.11691" lon="4.60348">
        <ele>413</ele>
        <time>2020-10-24T09:24:58Z</time>
      </trkpt>
      <trkpt lat="46.1169" lon="4.60345">
        <ele>412.6</ele>
        <time>2020-10-24T09:24:59Z</time>
      </trkpt>
      <trkpt lat="46.11689" lon="4.60342">
        <ele>412.8</ele>
        <time>2020-10-24T09:25:00Z</time>
      </trkpt>
      <trkpt lat="46.11687" lon="4.60338">
        <ele>412.4</ele>
        <time>2020-10-24T09:25:01Z</time>
      </trkpt>
      <trkpt lat="46.11686" lon="4.60335">
        <ele>412.2</ele>
        <time>2020-10-24T09:25:02Z</time>
      </trkpt>
      <trkpt lat="46.11685" lon="4.60332">
        <ele>412.2</ele>
        <time>2020-10-24T09:25:03Z</time>
      </trkpt>
      <trkpt lat="46.11685" lon="4.60329">
        <ele>411.8</ele>
        <time>2020-10-24T09:25:04Z</time>
      </trkpt>
      <trkpt lat="46.11684" lon="4.60326">
        <ele>411.6</ele>
        <time>2020-10-24T09:25:05Z</time>
      </trkpt>
      <trkpt lat="46.11683" lon="4.60323">
        <ele>411.8</ele>
        <time>2020-10-24T09:25:06Z</time>
      </trkpt>
      <trkpt lat="46.11682" lon="4.60319">
        <ele>411.4</ele>
        <time>2020-10-24T09:25:07Z</time>
      </trkpt>
      <trkpt lat="46.11682" lon="4.60316">
        <ele>411</ele>
        <time>2020-10-24T09:25:08Z</time>
      </trkpt>
      <trkpt lat="46.11681" lon="4.60312">
        <ele>411.4</ele>
        <time>2020-10-24T09:25:09Z</time>
      </trkpt>
      <trkpt lat="46.1168" lon="4.60309">
        <ele>410.8</ele>
        <time>2020-10-24T09:25:10Z</time>
      </trkpt>
      <trkpt lat="46.11679" lon="4.60305">
        <ele>410.8</ele>
        <time>2020-10-24T09:25:11Z</time>
      </trkpt>
      <trkpt lat="46.11678" lon="4.60302">
        <ele>410.8</ele>
        <time>2020-10-24T09:25:12Z</time>
      </trkpt>
      <trkpt lat="46.11678" lon="4.60298">
        <ele>410.4</ele>
        <time>2020-10-24T09:25:13Z</time>
      </trkpt>
      <trkpt lat="46.11677" lon="4.60295">
        <ele>410.4</ele>
        <time>2020-10-24T09:25:14Z</time>
      </trkpt>
      <trkpt lat="46.11676" lon="4.60291">
        <ele>410.4</ele>
        <time>2020-10-24T09:25:15Z</time>
      </trkpt>
      <trkpt lat="46.11676" lon="4.60288">
        <ele>410</ele>
        <time>2020-10-24T09:25:16Z</time>
      </trkpt>
      <trkpt lat="46.11675" lon="4.60284">
        <ele>410</ele>
        <time>2020-10-24T09:25:17Z</time>
      </trkpt>
      <trkpt lat="46.11675" lon="4.6028">
        <ele>410</ele>
        <time>2020-10-24T09:25:18Z</time>
      </trkpt>
      <trkpt lat="46.11674" lon="4.60277">
        <ele>409.6</ele>
        <time>2020-10-24T09:25:19Z</time>
      </trkpt>
      <trkpt lat="46.11673" lon="4.60274">
        <ele>409.8</ele>
        <time>2020-10-24T09:25:20Z</time>
      </trkpt>
      <trkpt lat="46.11673" lon="4.6027">
        <ele>409.6</ele>
        <time>2020-10-24T09:25:21Z</time>
      </trkpt>
      <trkpt lat="46.11672" lon="4.60266">
        <ele>409.4</ele>
        <time>2020-10-24T09:25:22Z</time>
      </trkpt>
      <trkpt lat="46.11671" lon="4.60262">
        <ele>409.6</ele>
        <time>2020-10-24T09:25:23Z</time>
      </trkpt>
      <trkpt lat="46.1167" lon="4.60259">
        <ele>409.4</ele>
        <time>2020-10-24T09:25:24Z</time>
      </trkpt>
      <trkpt lat="46.1167" lon="4.60255">
        <ele>409.2</ele>
        <time>2020-10-24T09:25:25Z</time>
      </trkpt>
      <trkpt lat="46.11669" lon="4.60252">
        <ele>409.4</ele>
        <time>2020-10-24T09:25:26Z</time>
      </trkpt>
      <trkpt lat="46.11669" lon="4.60248">
        <ele>409.2</ele>
        <time>2020-10-24T09:25:27Z</time>
      </trkpt>
      <trkpt lat="46.11669" lon="4.60244">
        <ele>408.8</ele>
        <time>2020-10-24T09:25:28Z</time>
      </trkpt>
      <trkpt lat="46.11668" lon="4.6024">
        <ele>409</ele>
        <time>2020-10-24T09:25:29Z</time>
      </trkpt>
      <trkpt lat="46.11667" lon="4.60236">
        <ele>408.4</ele>
        <time>2020-10-24T09:25:30Z</time>
      </trkpt>
      <trkpt lat="46.11667" lon="4.60233">
        <ele>408.6</ele>
        <time>2020-10-24T09:25:31Z</time>
      </trkpt>
      <trkpt lat="46.11666" lon="4.60229">
        <ele>408.8</ele>
        <time>2020-10-24T09:25:32Z</time>
      </trkpt>
      <trkpt lat="46.11666" lon="4.60225">
        <ele>408</ele>
        <time>2020-10-24T09:25:33Z</time>
      </trkpt>
      <trkpt lat="46.11666" lon="4.60221">
        <ele>408.2</ele>
        <time>2020-10-24T09:25:34Z</time>
      </trkpt>
      <trkpt lat="46.11666" lon="4.60216">
        <ele>408</ele>
        <time>2020-10-24T09:25:35Z</time>
      </trkpt>
      <trkpt lat="46.11666" lon="4.60212">
        <ele>407.4</ele>
        <time>2020-10-24T09:25:36Z</time>
      </trkpt>
      <trkpt lat="46.11666" lon="4.60207">
        <ele>408</ele>
        <time>2020-10-24T09:25:37Z</time>
      </trkpt>
      <trkpt lat="46.11666" lon="4.60203">
        <ele>407.6</ele>
        <time>2020-10-24T09:25:38Z</time>
      </trkpt>
      <trkpt lat="46.11666" lon="4.60199">
        <ele>407.2</ele>
        <time>2020-10-24T09:25:39Z</time>
      </trkpt>
      <trkpt lat="46.11666" lon="4.60196">
        <ele>407.8</ele>
        <time>2020-10-24T09:25:40Z</time>
      </trkpt>
      <trkpt lat="46.11666" lon="4.60192">
        <ele>407.8</ele>
        <time>2020-10-24T09:25:41Z</time>
      </trkpt>
      <trkpt lat="46.11665" lon="4.60188">
        <ele>407.8</ele>
        <time>2020-10-24T09:25:42Z</time>
      </trkpt>
      <trkpt lat="46.11665" lon="4.60185">
        <ele>408.2</ele>
        <time>2020-10-24T09:25:43Z</time>
      </trkpt>
      <trkpt lat="46.11664" lon="4.60181">
        <ele>407.8</ele>
        <time>2020-10-24T09:25:44Z</time>
      </trkpt>
      <trkpt lat="46.11664" lon="4.60177">
        <ele>408</ele>
        <time>2020-10-24T09:25:45Z</time>
      </trkpt>
      <trkpt lat="46.11664" lon="4.60174">
        <ele>407.8</ele>
        <time>2020-10-24T09:25:46Z</time>
      </trkpt>
      <trkpt lat="46.11664" lon="4.6017">
        <ele>407.4</ele>
        <time>2020-10-24T09:25:47Z</time>
      </trkpt>
      <trkpt lat="46.11664" lon="4.60167">
        <ele>407.8</ele>
        <time>2020-10-24T09:25:48Z</time>
      </trkpt>
      <trkpt lat="46.11665" lon="4.60163">
        <ele>407.6</ele>
        <time>2020-10-24T09:25:49Z</time>
      </trkpt>
      <trkpt lat="46.11665" lon="4.6016">
        <ele>407.2</ele>
        <time>2020-10-24T09:25:50Z</time>
      </trkpt>
      <trkpt lat="46.11665" lon="4.60156">
        <ele>407.6</ele>
        <time>2020-10-24T09:25:51Z</time>
      </trkpt>
      <trkpt lat="46.11665" lon="4.60153">
        <ele>407.2</ele>
        <time>2020-10-24T09:25:52Z</time>
      </trkpt>
      <trkpt lat="46.11665" lon="4.6015">
        <ele>407</ele>
        <time>2020-10-24T09:25:53Z</time>
      </trkpt>
      <trkpt lat="46.11665" lon="4.6015">
        <ele>406.6</ele>
        <time>2020-10-24T09:25:54Z</time>
      </trkpt>
      <trkpt lat="46.11665" lon="4.60145">
        <ele>406.4</ele>
        <time>2020-10-24T09:25:55Z</time>
      </trkpt>
      <trkpt lat="46.11665" lon="4.60145">
        <ele>406.2</ele>
        <time>2020-10-24T09:25:56Z</time>
      </trkpt>
      <trkpt lat="46.11664" lon="4.6014">
        <ele>406.2</ele>
        <time>2020-10-24T09:25:57Z</time>
      </trkpt>
      <trkpt lat="46.11664" lon="4.60137">
        <ele>406.4</ele>
        <time>2020-10-24T09:25:58Z</time>
      </trkpt>
      <trkpt lat="46.11664" lon="4.60134">
        <ele>406</ele>
        <time>2020-10-24T09:25:59Z</time>
      </trkpt>
      <trkpt lat="46.11664" lon="4.60131">
        <ele>405.8</ele>
        <time>2020-10-24T09:26:00Z</time>
      </trkpt>
      <trkpt lat="46.11664" lon="4.60127">
        <ele>406</ele>
        <time>2020-10-24T09:26:01Z</time>
      </trkpt>
      <trkpt lat="46.11664" lon="4.60123">
        <ele>405.8</ele>
        <time>2020-10-24T09:26:02Z</time>
      </trkpt>
      <trkpt lat="46.11664" lon="4.6012">
        <ele>405.6</ele>
        <time>2020-10-24T09:26:03Z</time>
      </trkpt>
      <trkpt lat="46.11664" lon="4.60116">
        <ele>406</ele>
        <time>2020-10-24T09:26:04Z</time>
      </trkpt>
      <trkpt lat="46.11663" lon="4.60113">
        <ele>405.8</ele>
        <time>2020-10-24T09:26:05Z</time>
      </trkpt>
      <trkpt lat="46.11663" lon="4.6011">
        <ele>405.6</ele>
        <time>2020-10-24T09:26:06Z</time>
      </trkpt>
      <trkpt lat="46.11663" lon="4.60106">
        <ele>405.8</ele>
        <time>2020-10-24T09:26:07Z</time>
      </trkpt>
      <trkpt lat="46.11662" lon="4.60102">
        <ele>405.8</ele>
        <time>2020-10-24T09:26:08Z</time>
      </trkpt>
      <trkpt lat="46.11662" lon="4.60099">
        <ele>405.6</ele>
        <time>2020-10-24T09:26:09Z</time>
      </trkpt>
      <trkpt lat="46.11662" lon="4.60095">
        <ele>405.8</ele>
        <time>2020-10-24T09:26:10Z</time>
      </trkpt>
      <trkpt lat="46.11661" lon="4.60092">
        <ele>405.2</ele>
        <time>2020-10-24T09:26:11Z</time>
      </trkpt>
      <trkpt lat="46.11661" lon="4.60088">
        <ele>405.2</ele>
        <time>2020-10-24T09:26:12Z</time>
      </trkpt>
      <trkpt lat="46.1166" lon="4.60084">
        <ele>405.2</ele>
        <time>2020-10-24T09:26:13Z</time>
      </trkpt>
      <trkpt lat="46.1166" lon="4.6008">
        <ele>404.8</ele>
        <time>2020-10-24T09:26:14Z</time>
      </trkpt>
      <trkpt lat="46.1166" lon="4.60076">
        <ele>404.4</ele>
        <time>2020-10-24T09:26:15Z</time>
      </trkpt>
      <trkpt lat="46.11659" lon="4.60072">
        <ele>404.6</ele>
        <time>2020-10-24T09:26:16Z</time>
      </trkpt>
      <trkpt lat="46.11659" lon="4.60069">
        <ele>404</ele>
        <time>2020-10-24T09:26:17Z</time>
      </trkpt>
      <trkpt lat="46.11658" lon="4.60065">
        <ele>404.2</ele>
        <time>2020-10-24T09:26:18Z</time>
      </trkpt>
      <trkpt lat="46.11658" lon="4.60061">
        <ele>404</ele>
        <time>2020-10-24T09:26:19Z</time>
      </trkpt>
      <trkpt lat="46.11657" lon="4.60058">
        <ele>403.6</ele>
        <time>2020-10-24T09:26:20Z</time>
      </trkpt>
      <trkpt lat="46.11657" lon="4.60054">
        <ele>403.8</ele>
        <time>2020-10-24T09:26:21Z</time>
      </trkpt>
      <trkpt lat="46.11657" lon="4.6005">
        <ele>403.6</ele>
        <time>2020-10-24T09:26:22Z</time>
      </trkpt>
      <trkpt lat="46.11657" lon="4.60047">
        <ele>403.4</ele>
        <time>2020-10-24T09:26:23Z</time>
      </trkpt>
      <trkpt lat="46.11656" lon="4.60043">
        <ele>403.6</ele>
        <time>2020-10-24T09:26:24Z</time>
      </trkpt>
      <trkpt lat="46.11656" lon="4.60039">
        <ele>403.4</ele>
        <time>2020-10-24T09:26:25Z</time>
      </trkpt>
      <trkpt lat="46.11656" lon="4.60036">
        <ele>403</ele>
        <time>2020-10-24T09:26:26Z</time>
      </trkpt>
      <trkpt lat="46.11655" lon="4.60032">
        <ele>403.2</ele>
        <time>2020-10-24T09:26:27Z</time>
      </trkpt>
      <trkpt lat="46.11655" lon="4.60028">
        <ele>402.8</ele>
        <time>2020-10-24T09:26:28Z</time>
      </trkpt>
      <trkpt lat="46.11655" lon="4.60025">
        <ele>402.6</ele>
        <time>2020-10-24T09:26:29Z</time>
      </trkpt>
      <trkpt lat="46.11655" lon="4.60021">
        <ele>402.6</ele>
        <time>2020-10-24T09:26:30Z</time>
      </trkpt>
      <trkpt lat="46.11654" lon="4.60017">
        <ele>402.4</ele>
        <time>2020-10-24T09:26:31Z</time>
      </trkpt>
      <trkpt lat="46.11654" lon="4.60014">
        <ele>402.4</ele>
        <time>2020-10-24T09:26:32Z</time>
      </trkpt>
      <trkpt lat="46.11654" lon="4.6001">
        <ele>402.6</ele>
        <time>2020-10-24T09:26:33Z</time>
      </trkpt>
      <trkpt lat="46.11654" lon="4.60006">
        <ele>402.4</ele>
        <time>2020-10-24T09:26:34Z</time>
      </trkpt>
      <trkpt lat="46.11654" lon="4.60002">
        <ele>402.4</ele>
        <time>2020-10-24T09:26:35Z</time>
      </trkpt>
      <trkpt lat="46.11654" lon="4.59998">
        <ele>402.2</ele>
        <time>2020-10-24T09:26:36Z</time>
      </trkpt>
      <trkpt lat="46.11654" lon="4.59995">
        <ele>402</ele>
        <time>2020-10-24T09:26:37Z</time>
      </trkpt>
      <trkpt lat="46.11654" lon="4.59992">
        <ele>402.4</ele>
        <time>2020-10-24T09:26:38Z</time>
      </trkpt>
      <trkpt lat="46.11654" lon="4.59989">
        <ele>402</ele>
        <time>2020-10-24T09:26:39Z</time>
      </trkpt>
      <trkpt lat="46.11654" lon="4.59986">
        <ele>401.8</ele>
        <time>2020-10-24T09:26:40Z</time>
      </trkpt>
      <trkpt lat="46.11654" lon="4.59982">
        <ele>402.2</ele>
        <time>2020-10-24T09:26:41Z</time>
      </trkpt>
      <trkpt lat="46.11655" lon="4.59978">
        <ele>402</ele>
        <time>2020-10-24T09:26:42Z</time>
      </trkpt>
      <trkpt lat="46.11655" lon="4.59975">
        <ele>401.8</ele>
        <time>2020-10-24T09:26:43Z</time>
      </trkpt>
      <trkpt lat="46.11655" lon="4.59971">
        <ele>402.2</ele>
        <time>2020-10-24T09:26:44Z</time>
      </trkpt>
      <trkpt lat="46.11655" lon="4.59968">
        <ele>402</ele>
        <time>2020-10-24T09:26:45Z</time>
      </trkpt>
      <trkpt lat="46.11654" lon="4.59965">
        <ele>401.8</ele>
        <time>2020-10-24T09:26:46Z</time>
      </trkpt>
      <trkpt lat="46.11654" lon="4.59963">
        <ele>402</ele>
        <time>2020-10-24T09:26:47Z</time>
      </trkpt>
      <trkpt lat="46.11653" lon="4.5996">
        <ele>401.8</ele>
        <time>2020-10-24T09:26:48Z</time>
      </trkpt>
      <trkpt lat="46.11652" lon="4.59957">
        <ele>401.4</ele>
        <time>2020-10-24T09:26:49Z</time>
      </trkpt>
      <trkpt lat="46.11651" lon="4.59954">
        <ele>401.6</ele>
        <time>2020-10-24T09:26:50Z</time>
      </trkpt>
      <trkpt lat="46.1165" lon="4.59951">
        <ele>401.4</ele>
        <time>2020-10-24T09:26:51Z</time>
      </trkpt>
      <trkpt lat="46.11648" lon="4.59948">
        <ele>401.2</ele>
        <time>2020-10-24T09:26:52Z</time>
      </trkpt>
      <trkpt lat="46.11647" lon="4.59945">
        <ele>401</ele>
        <time>2020-10-24T09:26:53Z</time>
      </trkpt>
      <trkpt lat="46.11646" lon="4.59942">
        <ele>400.8</ele>
        <time>2020-10-24T09:26:54Z</time>
      </trkpt>
      <trkpt lat="46.11644" lon="4.59939">
        <ele>401</ele>
        <time>2020-10-24T09:26:55Z</time>
      </trkpt>
      <trkpt lat="46.11643" lon="4.59937">
        <ele>400.8</ele>
        <time>2020-10-24T09:26:56Z</time>
      </trkpt>
      <trkpt lat="46.11642" lon="4.59935">
        <ele>400.4</ele>
        <time>2020-10-24T09:26:57Z</time>
      </trkpt>
      <trkpt lat="46.1164" lon="4.59932">
        <ele>400.6</ele>
        <time>2020-10-24T09:26:58Z</time>
      </trkpt>
      <trkpt lat="46.11639" lon="4.5993">
        <ele>400.8</ele>
        <time>2020-10-24T09:26:59Z</time>
      </trkpt>
      <trkpt lat="46.11638" lon="4.59927">
        <ele>400.8</ele>
        <time>2020-10-24T09:27:00Z</time>
      </trkpt>
      <trkpt lat="46.11636" lon="4.59925">
        <ele>401</ele>
        <time>2020-10-24T09:27:01Z</time>
      </trkpt>
      <trkpt lat="46.11635" lon="4.59923">
        <ele>401</ele>
        <time>2020-10-24T09:27:02Z</time>
      </trkpt>
      <trkpt lat="46.11633" lon="4.59921">
        <ele>401.2</ele>
        <time>2020-10-24T09:27:03Z</time>
      </trkpt>
      <trkpt lat="46.11631" lon="4.59918">
        <ele>401.4</ele>
        <time>2020-10-24T09:27:04Z</time>
      </trkpt>
      <trkpt lat="46.1163" lon="4.59916">
        <ele>401.2</ele>
        <time>2020-10-24T09:27:05Z</time>
      </trkpt>
      <trkpt lat="46.11628" lon="4.59914">
        <ele>401.8</ele>
        <time>2020-10-24T09:27:06Z</time>
      </trkpt>
      <trkpt lat="46.11627" lon="4.59912">
        <ele>401.6</ele>
        <time>2020-10-24T09:27:07Z</time>
      </trkpt>
      <trkpt lat="46.11625" lon="4.5991">
        <ele>401.6</ele>
        <time>2020-10-24T09:27:08Z</time>
      </trkpt>
      <trkpt lat="46.11624" lon="4.59908">
        <ele>401.8</ele>
        <time>2020-10-24T09:27:09Z</time>
      </trkpt>
      <trkpt lat="46.11622" lon="4.59906">
        <ele>401.8</ele>
        <time>2020-10-24T09:27:10Z</time>
      </trkpt>
      <trkpt lat="46.1162" lon="4.59904">
        <ele>402.2</ele>
        <time>2020-10-24T09:27:11Z</time>
      </trkpt>
      <trkpt lat="46.11619" lon="4.59902">
        <ele>402.4</ele>
        <time>2020-10-24T09:27:12Z</time>
      </trkpt>
      <trkpt lat="46.11619" lon="4.59902">
        <ele>402.6</ele>
        <time>2020-10-24T09:27:13Z</time>
      </trkpt>
      <trkpt lat="46.11616" lon="4.599">
        <ele>402.8</ele>
        <time>2020-10-24T09:27:14Z</time>
      </trkpt>
      <trkpt lat="46.11616" lon="4.599">
        <ele>403</ele>
        <time>2020-10-24T09:27:15Z</time>
      </trkpt>
      <trkpt lat="46.11613" lon="4.59898">
        <ele>403.2</ele>
        <time>2020-10-24T09:27:16Z</time>
      </trkpt>
      <trkpt lat="46.11613" lon="4.59898">
        <ele>403</ele>
        <time>2020-10-24T09:27:17Z</time>
      </trkpt>
      <trkpt lat="46.1161" lon="4.59897">
        <ele>402.8</ele>
        <time>2020-10-24T09:27:18Z</time>
      </trkpt>
      <trkpt lat="46.1161" lon="4.59897">
        <ele>402.8</ele>
        <time>2020-10-24T09:27:19Z</time>
      </trkpt>
      <trkpt lat="46.11607" lon="4.59895">
        <ele>402.8</ele>
        <time>2020-10-24T09:27:20Z</time>
      </trkpt>
      <trkpt lat="46.11607" lon="4.59895">
        <ele>403</ele>
        <time>2020-10-24T09:27:21Z</time>
      </trkpt>
      <trkpt lat="46.11605" lon="4.59893">
        <ele>403.2</ele>
        <time>2020-10-24T09:27:22Z</time>
      </trkpt>
      <trkpt lat="46.11605" lon="4.59893">
        <ele>403.2</ele>
        <time>2020-10-24T09:27:23Z</time>
      </trkpt>
      <trkpt lat="46.11602" lon="4.59892">
        <ele>403.2</ele>
        <time>2020-10-24T09:27:24Z</time>
      </trkpt>
      <trkpt lat="46.11602" lon="4.59892">
        <ele>403.2</ele>
        <time>2020-10-24T09:27:25Z</time>
      </trkpt>
      <trkpt lat="46.116" lon="4.5989">
        <ele>403.2</ele>
        <time>2020-10-24T09:27:26Z</time>
      </trkpt>
      <trkpt lat="46.116" lon="4.5989">
        <ele>403.4</ele>
        <time>2020-10-24T09:27:27Z</time>
      </trkpt>
      <trkpt lat="46.11598" lon="4.59889">
        <ele>403.6</ele>
        <time>2020-10-24T09:27:28Z</time>
      </trkpt>
      <trkpt lat="46.11598" lon="4.59889">
        <ele>403.8</ele>
        <time>2020-10-24T09:27:29Z</time>
      </trkpt>
      <trkpt lat="46.11596" lon="4.59888">
        <ele>403.8</ele>
        <time>2020-10-24T09:27:30Z</time>
      </trkpt>
      <trkpt lat="46.11596" lon="4.59888">
        <ele>404.2</ele>
        <time>2020-10-24T09:27:31Z</time>
      </trkpt>
      <trkpt lat="46.11593" lon="4.59887">
        <ele>404.4</ele>
        <time>2020-10-24T09:27:32Z</time>
      </trkpt>
      <trkpt lat="46.11593" lon="4.59887">
        <ele>404.4</ele>
        <time>2020-10-24T09:27:33Z</time>
      </trkpt>
      <trkpt lat="46.1159" lon="4.59887">
        <ele>404.4</ele>
        <time>2020-10-24T09:27:34Z</time>
      </trkpt>
      <trkpt lat="46.1159" lon="4.59887">
        <ele>404.6</ele>
        <time>2020-10-24T09:27:35Z</time>
      </trkpt>
      <trkpt lat="46.11587" lon="4.59886">
        <ele>404.6</ele>
        <time>2020-10-24T09:27:36Z</time>
      </trkpt>
      <trkpt lat="46.11587" lon="4.59886">
        <ele>404.8</ele>
        <time>2020-10-24T09:27:37Z</time>
      </trkpt>
      <trkpt lat="46.11584" lon="4.59885">
        <ele>405</ele>
        <time>2020-10-24T09:27:38Z</time>
      </trkpt>
      <trkpt lat="46.11584" lon="4.59885">
        <ele>405</ele>
        <time>2020-10-24T09:27:39Z</time>
      </trkpt>
      <trkpt lat="46.11582" lon="4.59885">
        <ele>405.2</ele>
        <time>2020-10-24T09:27:40Z</time>
      </trkpt>
      <trkpt lat="46.11582" lon="4.59885">
        <ele>405.4</ele>
        <time>2020-10-24T09:27:41Z</time>
      </trkpt>
      <trkpt lat="46.1158" lon="4.59884">
        <ele>405.6</ele>
        <time>2020-10-24T09:27:42Z</time>
      </trkpt>
      <trkpt lat="46.1158" lon="4.59884">
        <ele>405.6</ele>
        <time>2020-10-24T09:27:43Z</time>
      </trkpt>
      <trkpt lat="46.11577" lon="4.59883">
        <ele>405.6</ele>
        <time>2020-10-24T09:27:44Z</time>
      </trkpt>
      <trkpt lat="46.11577" lon="4.59883">
        <ele>405.8</ele>
        <time>2020-10-24T09:27:45Z</time>
      </trkpt>
      <trkpt lat="46.11575" lon="4.59881">
        <ele>405.8</ele>
        <time>2020-10-24T09:27:46Z</time>
      </trkpt>
      <trkpt lat="46.11575" lon="4.59881">
        <ele>405.8</ele>
        <time>2020-10-24T09:27:47Z</time>
      </trkpt>
      <trkpt lat="46.11573" lon="4.59879">
        <ele>406</ele>
        <time>2020-10-24T09:27:48Z</time>
      </trkpt>
      <trkpt lat="46.11573" lon="4.59879">
        <ele>406.2</ele>
        <time>2020-10-24T09:27:49Z</time>
      </trkpt>
      <trkpt lat="46.11571" lon="4.59877">
        <ele>406.4</ele>
        <time>2020-10-24T09:27:50Z</time>
      </trkpt>
      <trkpt lat="46.11571" lon="4.59877">
        <ele>406.8</ele>
        <time>2020-10-24T09:27:51Z</time>
      </trkpt>
      <trkpt lat="46.11568" lon="4.59874">
        <ele>407</ele>
        <time>2020-10-24T09:27:52Z</time>
      </trkpt>
      <trkpt lat="46.11568" lon="4.59874">
        <ele>407</ele>
        <time>2020-10-24T09:27:53Z</time>
      </trkpt>
      <trkpt lat="46.11566" lon="4.59871">
        <ele>407.4</ele>
        <time>2020-10-24T09:27:54Z</time>
      </trkpt>
      <trkpt lat="46.11566" lon="4.59871">
        <ele>407.8</ele>
        <time>2020-10-24T09:27:55Z</time>
      </trkpt>
      <trkpt lat="46.11564" lon="4.59869">
        <ele>408.4</ele>
        <time>2020-10-24T09:27:56Z</time>
      </trkpt>
      <trkpt lat="46.11564" lon="4.59869">
        <ele>408.8</ele>
        <time>2020-10-24T09:27:57Z</time>
      </trkpt>
      <trkpt lat="46.11561" lon="4.59867">
        <ele>409.4</ele>
        <time>2020-10-24T09:27:58Z</time>
      </trkpt>
      <trkpt lat="46.11561" lon="4.59867">
        <ele>409.6</ele>
        <time>2020-10-24T09:27:59Z</time>
      </trkpt>
      <trkpt lat="46.1156" lon="4.59863">
        <ele>410</ele>
        <time>2020-10-24T09:28:00Z</time>
      </trkpt>
      <trkpt lat="46.1156" lon="4.59863">
        <ele>410.2</ele>
        <time>2020-10-24T09:28:01Z</time>
      </trkpt>
      <trkpt lat="46.11558" lon="4.5986">
        <ele>410.4</ele>
        <time>2020-10-24T09:28:02Z</time>
      </trkpt>
      <trkpt lat="46.11558" lon="4.5986">
        <ele>410.6</ele>
        <time>2020-10-24T09:28:03Z</time>
      </trkpt>
      <trkpt lat="46.11556" lon="4.59857">
        <ele>410.8</ele>
        <time>2020-10-24T09:28:04Z</time>
      </trkpt>
      <trkpt lat="46.11556" lon="4.59857">
        <ele>411</ele>
        <time>2020-10-24T09:28:05Z</time>
      </trkpt>
      <trkpt lat="46.11555" lon="4.59854">
        <ele>411.4</ele>
        <time>2020-10-24T09:28:06Z</time>
      </trkpt>
      <trkpt lat="46.11555" lon="4.59854">
        <ele>411.8</ele>
        <time>2020-10-24T09:28:07Z</time>
      </trkpt>
      <trkpt lat="46.11553" lon="4.59851">
        <ele>412</ele>
        <time>2020-10-24T09:28:08Z</time>
      </trkpt>
      <trkpt lat="46.11553" lon="4.59851">
        <ele>412.2</ele>
        <time>2020-10-24T09:28:09Z</time>
      </trkpt>
      <trkpt lat="46.11552" lon="4.59848">
        <ele>412.4</ele>
        <time>2020-10-24T09:28:10Z</time>
      </trkpt>
      <trkpt lat="46.11552" lon="4.59848">
        <ele>412.6</ele>
        <time>2020-10-24T09:28:11Z</time>
      </trkpt>
      <trkpt lat="46.1155" lon="4.59846">
        <ele>412.8</ele>
        <time>2020-10-24T09:28:12Z</time>
      </trkpt>
      <trkpt lat="46.1155" lon="4.59846">
        <ele>412.8</ele>
        <time>2020-10-24T09:28:13Z</time>
      </trkpt>
      <trkpt lat="46.11548" lon="4.59842">
        <ele>413</ele>
        <time>2020-10-24T09:28:14Z</time>
      </trkpt>
      <trkpt lat="46.11548" lon="4.59842">
        <ele>413.2</ele>
        <time>2020-10-24T09:28:15Z</time>
      </trkpt>
      <trkpt lat="46.11546" lon="4.5984">
        <ele>413.6</ele>
        <time>2020-10-24T09:28:16Z</time>
      </trkpt>
      <trkpt lat="46.11544" lon="4.59839">
        <ele>413.6</ele>
        <time>2020-10-24T09:28:17Z</time>
      </trkpt>
      <trkpt lat="46.11542" lon="4.59837">
        <ele>413.4</ele>
        <time>2020-10-24T09:28:18Z</time>
      </trkpt>
      <trkpt lat="46.1154" lon="4.59836">
        <ele>413.6</ele>
        <time>2020-10-24T09:28:19Z</time>
      </trkpt>
      <trkpt lat="46.11538" lon="4.59834">
        <ele>413.2</ele>
        <time>2020-10-24T09:28:20Z</time>
      </trkpt>
      <trkpt lat="46.11536" lon="4.59832">
        <ele>412.8</ele>
        <time>2020-10-24T09:28:21Z</time>
      </trkpt>
      <trkpt lat="46.11534" lon="4.5983">
        <ele>412.8</ele>
        <time>2020-10-24T09:28:22Z</time>
      </trkpt>
      <trkpt lat="46.11532" lon="4.59828">
        <ele>412.8</ele>
        <time>2020-10-24T09:28:23Z</time>
      </trkpt>
      <trkpt lat="46.1153" lon="4.59826">
        <ele>412.4</ele>
        <time>2020-10-24T09:28:24Z</time>
      </trkpt>
      <trkpt lat="46.11528" lon="4.59824">
        <ele>412.4</ele>
        <time>2020-10-24T09:28:25Z</time>
      </trkpt>
      <trkpt lat="46.11526" lon="4.59822">
        <ele>412</ele>
        <time>2020-10-24T09:28:26Z</time>
      </trkpt>
      <trkpt lat="46.11524" lon="4.5982">
        <ele>411.8</ele>
        <time>2020-10-24T09:28:27Z</time>
      </trkpt>
      <trkpt lat="46.11522" lon="4.59818">
        <ele>412</ele>
        <time>2020-10-24T09:28:28Z</time>
      </trkpt>
      <trkpt lat="46.1152" lon="4.59815">
        <ele>411.6</ele>
        <time>2020-10-24T09:28:29Z</time>
      </trkpt>
      <trkpt lat="46.11518" lon="4.59813">
        <ele>411.4</ele>
        <time>2020-10-24T09:28:30Z</time>
      </trkpt>
      <trkpt lat="46.11516" lon="4.59811">
        <ele>411.4</ele>
        <time>2020-10-24T09:28:31Z</time>
      </trkpt>
      <trkpt lat="46.11514" lon="4.59809">
        <ele>411.2</ele>
        <time>2020-10-24T09:28:32Z</time>
      </trkpt>
      <trkpt lat="46.11512" lon="4.59807">
        <ele>410.6</ele>
        <time>2020-10-24T09:28:33Z</time>
      </trkpt>
      <trkpt lat="46.1151" lon="4.59804">
        <ele>410.8</ele>
        <time>2020-10-24T09:28:34Z</time>
      </trkpt>
      <trkpt lat="46.11509" lon="4.59801">
        <ele>410.4</ele>
        <time>2020-10-24T09:28:35Z</time>
      </trkpt>
      <trkpt lat="46.11507" lon="4.59799">
        <ele>410</ele>
        <time>2020-10-24T09:28:36Z</time>
      </trkpt>
      <trkpt lat="46.11506" lon="4.59796">
        <ele>410</ele>
        <time>2020-10-24T09:28:37Z</time>
      </trkpt>
      <trkpt lat="46.11504" lon="4.59793">
        <ele>409.8</ele>
        <time>2020-10-24T09:28:38Z</time>
      </trkpt>
      <trkpt lat="46.11503" lon="4.5979">
        <ele>409.4</ele>
        <time>2020-10-24T09:28:39Z</time>
      </trkpt>
      <trkpt lat="46.11501" lon="4.59787">
        <ele>409.6</ele>
        <time>2020-10-24T09:28:40Z</time>
      </trkpt>
      <trkpt lat="46.115" lon="4.59783">
        <ele>409.2</ele>
        <time>2020-10-24T09:28:41Z</time>
      </trkpt>
      <trkpt lat="46.11499" lon="4.5978">
        <ele>409</ele>
        <time>2020-10-24T09:28:42Z</time>
      </trkpt>
      <trkpt lat="46.11497" lon="4.59776">
        <ele>409</ele>
        <time>2020-10-24T09:28:43Z</time>
      </trkpt>
      <trkpt lat="46.11496" lon="4.59773">
        <ele>408.8</ele>
        <time>2020-10-24T09:28:44Z</time>
      </trkpt>
      <trkpt lat="46.11495" lon="4.5977">
        <ele>408.8</ele>
        <time>2020-10-24T09:28:45Z</time>
      </trkpt>
      <trkpt lat="46.11494" lon="4.59766">
        <ele>408.8</ele>
        <time>2020-10-24T09:28:46Z</time>
      </trkpt>
      <trkpt lat="46.11493" lon="4.59763">
        <ele>408.4</ele>
        <time>2020-10-24T09:28:47Z</time>
      </trkpt>
      <trkpt lat="46.11492" lon="4.5976">
        <ele>408.6</ele>
        <time>2020-10-24T09:28:48Z</time>
      </trkpt>
      <trkpt lat="46.11491" lon="4.59756">
        <ele>408.4</ele>
        <time>2020-10-24T09:28:49Z</time>
      </trkpt>
      <trkpt lat="46.1149" lon="4.59752">
        <ele>407.8</ele>
        <time>2020-10-24T09:28:50Z</time>
      </trkpt>
      <trkpt lat="46.1149" lon="4.59749">
        <ele>408.2</ele>
        <time>2020-10-24T09:28:51Z</time>
      </trkpt>
      <trkpt lat="46.11489" lon="4.59745">
        <ele>407.8</ele>
        <time>2020-10-24T09:28:52Z</time>
      </trkpt>
      <trkpt lat="46.11488" lon="4.59742">
        <ele>407.4</ele>
        <time>2020-10-24T09:28:53Z</time>
      </trkpt>
      <trkpt lat="46.11488" lon="4.59738">
        <ele>408</ele>
        <time>2020-10-24T09:28:54Z</time>
      </trkpt>
      <trkpt lat="46.11487" lon="4.59735">
        <ele>407.8</ele>
        <time>2020-10-24T09:28:55Z</time>
      </trkpt>
      <trkpt lat="46.11487" lon="4.59731">
        <ele>407.8</ele>
        <time>2020-10-24T09:28:56Z</time>
      </trkpt>
      <trkpt lat="46.11487" lon="4.59728">
        <ele>407.8</ele>
        <time>2020-10-24T09:28:57Z</time>
      </trkpt>
      <trkpt lat="46.11487" lon="4.59724">
        <ele>407.4</ele>
        <time>2020-10-24T09:28:58Z</time>
      </trkpt>
      <trkpt lat="46.11487" lon="4.59721">
        <ele>407.6</ele>
        <time>2020-10-24T09:28:59Z</time>
      </trkpt>
      <trkpt lat="46.11487" lon="4.59718">
        <ele>408</ele>
        <time>2020-10-24T09:29:00Z</time>
      </trkpt>
      <trkpt lat="46.11487" lon="4.59714">
        <ele>408.2</ele>
        <time>2020-10-24T09:29:01Z</time>
      </trkpt>
      <trkpt lat="46.11487" lon="4.59711">
        <ele>408.6</ele>
        <time>2020-10-24T09:29:02Z</time>
      </trkpt>
      <trkpt lat="46.11487" lon="4.59708">
        <ele>408.6</ele>
        <time>2020-10-24T09:29:03Z</time>
      </trkpt>
      <trkpt lat="46.11487" lon="4.59704">
        <ele>408.6</ele>
        <time>2020-10-24T09:29:04Z</time>
      </trkpt>
      <trkpt lat="46.11487" lon="4.59701">
        <ele>409</ele>
        <time>2020-10-24T09:29:05Z</time>
      </trkpt>
      <trkpt lat="46.11487" lon="4.59698">
        <ele>409</ele>
        <time>2020-10-24T09:29:06Z</time>
      </trkpt>
      <trkpt lat="46.11486" lon="4.59695">
        <ele>408.8</ele>
        <time>2020-10-24T09:29:07Z</time>
      </trkpt>
      <trkpt lat="46.11486" lon="4.59691">
        <ele>409.2</ele>
        <time>2020-10-24T09:29:08Z</time>
      </trkpt>
      <trkpt lat="46.11486" lon="4.59688">
        <ele>409.4</ele>
        <time>2020-10-24T09:29:09Z</time>
      </trkpt>
      <trkpt lat="46.11486" lon="4.59686">
        <ele>409.8</ele>
        <time>2020-10-24T09:29:10Z</time>
      </trkpt>
      <trkpt lat="46.11485" lon="4.59682">
        <ele>409.6</ele>
        <time>2020-10-24T09:29:11Z</time>
      </trkpt>
      <trkpt lat="46.11485" lon="4.59679">
        <ele>409.4</ele>
        <time>2020-10-24T09:29:12Z</time>
      </trkpt>
      <trkpt lat="46.11484" lon="4.59674">
        <ele>410</ele>
        <time>2020-10-24T09:29:13Z</time>
      </trkpt>
      <trkpt lat="46.11484" lon="4.5967">
        <ele>409.8</ele>
        <time>2020-10-24T09:29:14Z</time>
      </trkpt>
      <trkpt lat="46.11484" lon="4.59666">
        <ele>409.6</ele>
        <time>2020-10-24T09:29:15Z</time>
      </trkpt>
      <trkpt lat="46.11484" lon="4.59663">
        <ele>410</ele>
        <time>2020-10-24T09:29:16Z</time>
      </trkpt>
      <trkpt lat="46.11483" lon="4.59659">
        <ele>410</ele>
        <time>2020-10-24T09:29:17Z</time>
      </trkpt>
      <trkpt lat="46.11483" lon="4.59656">
        <ele>410.4</ele>
        <time>2020-10-24T09:29:18Z</time>
      </trkpt>
      <trkpt lat="46.11483" lon="4.59654">
        <ele>410.2</ele>
        <time>2020-10-24T09:29:19Z</time>
      </trkpt>
      <trkpt lat="46.11483" lon="4.5965">
        <ele>410.4</ele>
        <time>2020-10-24T09:29:20Z</time>
      </trkpt>
      <trkpt lat="46.11482" lon="4.59648">
        <ele>410.8</ele>
        <time>2020-10-24T09:29:21Z</time>
      </trkpt>
      <trkpt lat="46.11481" lon="4.59645">
        <ele>410.8</ele>
        <time>2020-10-24T09:29:22Z</time>
      </trkpt>
      <trkpt lat="46.1148" lon="4.59642">
        <ele>410.8</ele>
        <time>2020-10-24T09:29:23Z</time>
      </trkpt>
      <trkpt lat="46.11479" lon="4.59638">
        <ele>411</ele>
        <time>2020-10-24T09:29:24Z</time>
      </trkpt>
      <trkpt lat="46.11478" lon="4.59635">
        <ele>410.6</ele>
        <time>2020-10-24T09:29:25Z</time>
      </trkpt>
      <trkpt lat="46.11477" lon="4.59632">
        <ele>410.4</ele>
        <time>2020-10-24T09:29:26Z</time>
      </trkpt>
      <trkpt lat="46.11476" lon="4.59629">
        <ele>410.6</ele>
        <time>2020-10-24T09:29:27Z</time>
      </trkpt>
      <trkpt lat="46.11475" lon="4.59626">
        <ele>410.2</ele>
        <time>2020-10-24T09:29:28Z</time>
      </trkpt>
      <trkpt lat="46.11475" lon="4.59623">
        <ele>410</ele>
        <time>2020-10-24T09:29:29Z</time>
      </trkpt>
      <trkpt lat="46.11474" lon="4.5962">
        <ele>410</ele>
        <time>2020-10-24T09:29:30Z</time>
      </trkpt>
      <trkpt lat="46.11473" lon="4.59617">
        <ele>409.8</ele>
        <time>2020-10-24T09:29:31Z</time>
      </trkpt>
      <trkpt lat="46.11471" lon="4.59614">
        <ele>409.4</ele>
        <time>2020-10-24T09:29:32Z</time>
      </trkpt>
      <trkpt lat="46.1147" lon="4.59611">
        <ele>409.8</ele>
        <time>2020-10-24T09:29:33Z</time>
      </trkpt>
      <trkpt lat="46.11468" lon="4.59608">
        <ele>409.6</ele>
        <time>2020-10-24T09:29:34Z</time>
      </trkpt>
      <trkpt lat="46.11466" lon="4.59605">
        <ele>409.6</ele>
        <time>2020-10-24T09:29:35Z</time>
      </trkpt>
      <trkpt lat="46.11464" lon="4.59603">
        <ele>409.4</ele>
        <time>2020-10-24T09:29:36Z</time>
      </trkpt>
      <trkpt lat="46.11463" lon="4.59601">
        <ele>409.2</ele>
        <time>2020-10-24T09:29:37Z</time>
      </trkpt>
      <trkpt lat="46.11461" lon="4.59599">
        <ele>409.4</ele>
        <time>2020-10-24T09:29:38Z</time>
      </trkpt>
      <trkpt lat="46.11458" lon="4.59597">
        <ele>409.4</ele>
        <time>2020-10-24T09:29:39Z</time>
      </trkpt>
      <trkpt lat="46.11456" lon="4.59594">
        <ele>408.8</ele>
        <time>2020-10-24T09:29:40Z</time>
      </trkpt>
      <trkpt lat="46.11454" lon="4.59591">
        <ele>409.2</ele>
        <time>2020-10-24T09:29:41Z</time>
      </trkpt>
      <trkpt lat="46.11452" lon="4.59589">
        <ele>408.4</ele>
        <time>2020-10-24T09:29:42Z</time>
      </trkpt>
      <trkpt lat="46.1145" lon="4.59587">
        <ele>408.2</ele>
        <time>2020-10-24T09:29:43Z</time>
      </trkpt>
      <trkpt lat="46.11448" lon="4.59584">
        <ele>408.4</ele>
        <time>2020-10-24T09:29:44Z</time>
      </trkpt>
      <trkpt lat="46.11446" lon="4.59582">
        <ele>408</ele>
        <time>2020-10-24T09:29:45Z</time>
      </trkpt>
      <trkpt lat="46.11444" lon="4.5958">
        <ele>407.4</ele>
        <time>2020-10-24T09:29:46Z</time>
      </trkpt>
      <trkpt lat="46.11442" lon="4.59577">
        <ele>407.8</ele>
        <time>2020-10-24T09:29:47Z</time>
      </trkpt>
      <trkpt lat="46.1144" lon="4.59575">
        <ele>407.4</ele>
        <time>2020-10-24T09:29:48Z</time>
      </trkpt>
      <trkpt lat="46.11438" lon="4.59573">
        <ele>407</ele>
        <time>2020-10-24T09:29:49Z</time>
      </trkpt>
      <trkpt lat="46.11435" lon="4.59571">
        <ele>407.4</ele>
        <time>2020-10-24T09:29:50Z</time>
      </trkpt>
      <trkpt lat="46.11434" lon="4.59569">
        <ele>407.2</ele>
        <time>2020-10-24T09:29:51Z</time>
      </trkpt>
      <trkpt lat="46.11431" lon="4.59567">
        <ele>407</ele>
        <time>2020-10-24T09:29:52Z</time>
      </trkpt>
      <trkpt lat="46.11429" lon="4.59564">
        <ele>407</ele>
        <time>2020-10-24T09:29:53Z</time>
      </trkpt>
      <trkpt lat="46.11427" lon="4.59562">
        <ele>406.8</ele>
        <time>2020-10-24T09:29:54Z</time>
      </trkpt>
      <trkpt lat="46.11425" lon="4.59559">
        <ele>407</ele>
        <time>2020-10-24T09:29:55Z</time>
      </trkpt>
      <trkpt lat="46.11422" lon="4.59557">
        <ele>407</ele>
        <time>2020-10-24T09:29:56Z</time>
      </trkpt>
      <trkpt lat="46.1142" lon="4.59555">
        <ele>406.4</ele>
        <time>2020-10-24T09:29:57Z</time>
      </trkpt>
      <trkpt lat="46.11419" lon="4.59553">
        <ele>406.6</ele>
        <time>2020-10-24T09:29:58Z</time>
      </trkpt>
      <trkpt lat="46.11416" lon="4.5955">
        <ele>406.4</ele>
        <time>2020-10-24T09:29:59Z</time>
      </trkpt>
      <trkpt lat="46.11413" lon="4.59547">
        <ele>406.4</ele>
        <time>2020-10-24T09:30:00Z</time>
      </trkpt>
      <trkpt lat="46.11412" lon="4.59546">
        <ele>406.4</ele>
        <time>2020-10-24T09:30:01Z</time>
      </trkpt>
      <trkpt lat="46.1141" lon="4.59544">
        <ele>406</ele>
        <time>2020-10-24T09:30:02Z</time>
      </trkpt>
      <trkpt lat="46.11407" lon="4.59541">
        <ele>405.6</ele>
        <time>2020-10-24T09:30:03Z</time>
      </trkpt>
      <trkpt lat="46.11405" lon="4.59539">
        <ele>405.8</ele>
        <time>2020-10-24T09:30:04Z</time>
      </trkpt>
      <trkpt lat="46.11403" lon="4.59536">
        <ele>405.6</ele>
        <time>2020-10-24T09:30:05Z</time>
      </trkpt>
      <trkpt lat="46.11401" lon="4.59534">
        <ele>405.2</ele>
        <time>2020-10-24T09:30:06Z</time>
      </trkpt>
      <trkpt lat="46.11399" lon="4.59531">
        <ele>405.6</ele>
        <time>2020-10-24T09:30:07Z</time>
      </trkpt>
      <trkpt lat="46.11397" lon="4.59529">
        <ele>405.4</ele>
        <time>2020-10-24T09:30:08Z</time>
      </trkpt>
      <trkpt lat="46.11395" lon="4.59527">
        <ele>405.2</ele>
        <time>2020-10-24T09:30:09Z</time>
      </trkpt>
      <trkpt lat="46.11393" lon="4.59524">
        <ele>405.4</ele>
        <time>2020-10-24T09:30:10Z</time>
      </trkpt>
      <trkpt lat="46.11391" lon="4.59521">
        <ele>405.2</ele>
        <time>2020-10-24T09:30:11Z</time>
      </trkpt>
      <trkpt lat="46.11389" lon="4.59519">
        <ele>405</ele>
        <time>2020-10-24T09:30:12Z</time>
      </trkpt>
      <trkpt lat="46.11387" lon="4.59516">
        <ele>405</ele>
        <time>2020-10-24T09:30:13Z</time>
      </trkpt>
      <trkpt lat="46.11385" lon="4.59514">
        <ele>404.8</ele>
        <time>2020-10-24T09:30:14Z</time>
      </trkpt>
      <trkpt lat="46.11383" lon="4.59511">
        <ele>404.8</ele>
        <time>2020-10-24T09:30:15Z</time>
      </trkpt>
      <trkpt lat="46.11381" lon="4.59509">
        <ele>405</ele>
        <time>2020-10-24T09:30:16Z</time>
      </trkpt>
      <trkpt lat="46.11379" lon="4.59506">
        <ele>404.6</ele>
        <time>2020-10-24T09:30:17Z</time>
      </trkpt>
      <trkpt lat="46.11377" lon="4.59503">
        <ele>404.8</ele>
        <time>2020-10-24T09:30:18Z</time>
      </trkpt>
      <trkpt lat="46.11375" lon="4.595">
        <ele>404.8</ele>
        <time>2020-10-24T09:30:19Z</time>
      </trkpt>
      <trkpt lat="46.11373" lon="4.59498">
        <ele>404.2</ele>
        <time>2020-10-24T09:30:20Z</time>
      </trkpt>
      <trkpt lat="46.11371" lon="4.59495">
        <ele>404.2</ele>
        <time>2020-10-24T09:30:21Z</time>
      </trkpt>
      <trkpt lat="46.11369" lon="4.59491">
        <ele>403.8</ele>
        <time>2020-10-24T09:30:22Z</time>
      </trkpt>
      <trkpt lat="46.11367" lon="4.59489">
        <ele>403.4</ele>
        <time>2020-10-24T09:30:23Z</time>
      </trkpt>
      <trkpt lat="46.11365" lon="4.59485">
        <ele>403.8</ele>
        <time>2020-10-24T09:30:24Z</time>
      </trkpt>
      <trkpt lat="46.11362" lon="4.59481">
        <ele>403.8</ele>
        <time>2020-10-24T09:30:25Z</time>
      </trkpt>
      <trkpt lat="46.11361" lon="4.59479">
        <ele>403</ele>
        <time>2020-10-24T09:30:26Z</time>
      </trkpt>
      <trkpt lat="46.11359" lon="4.59476">
        <ele>403.4</ele>
        <time>2020-10-24T09:30:27Z</time>
      </trkpt>
      <trkpt lat="46.11358" lon="4.59473">
        <ele>403</ele>
        <time>2020-10-24T09:30:28Z</time>
      </trkpt>
      <trkpt lat="46.11356" lon="4.5947">
        <ele>402.8</ele>
        <time>2020-10-24T09:30:29Z</time>
      </trkpt>
      <trkpt lat="46.11355" lon="4.59467">
        <ele>403.2</ele>
        <time>2020-10-24T09:30:30Z</time>
      </trkpt>
      <trkpt lat="46.11354" lon="4.59463">
        <ele>402.6</ele>
        <time>2020-10-24T09:30:31Z</time>
      </trkpt>
      <trkpt lat="46.11352" lon="4.5946">
        <ele>402.4</ele>
        <time>2020-10-24T09:30:32Z</time>
      </trkpt>
      <trkpt lat="46.11351" lon="4.59457">
        <ele>402.6</ele>
        <time>2020-10-24T09:30:33Z</time>
      </trkpt>
      <trkpt lat="46.1135" lon="4.59453">
        <ele>402.2</ele>
        <time>2020-10-24T09:30:34Z</time>
      </trkpt>
      <trkpt lat="46.11349" lon="4.59449">
        <ele>402.4</ele>
        <time>2020-10-24T09:30:35Z</time>
      </trkpt>
      <trkpt lat="46.11348" lon="4.59446">
        <ele>402.2</ele>
        <time>2020-10-24T09:30:36Z</time>
      </trkpt>
      <trkpt lat="46.11347" lon="4.59442">
        <ele>401.6</ele>
        <time>2020-10-24T09:30:37Z</time>
      </trkpt>
      <trkpt lat="46.11346" lon="4.59439">
        <ele>401.6</ele>
        <time>2020-10-24T09:30:38Z</time>
      </trkpt>
      <trkpt lat="46.11345" lon="4.59435">
        <ele>401.6</ele>
        <time>2020-10-24T09:30:39Z</time>
      </trkpt>
      <trkpt lat="46.11343" lon="4.59431">
        <ele>400.8</ele>
        <time>2020-10-24T09:30:40Z</time>
      </trkpt>
      <trkpt lat="46.11343" lon="4.59427">
        <ele>400.8</ele>
        <time>2020-10-24T09:30:41Z</time>
      </trkpt>
      <trkpt lat="46.11342" lon="4.59423">
        <ele>400.6</ele>
        <time>2020-10-24T09:30:42Z</time>
      </trkpt>
      <trkpt lat="46.11341" lon="4.59419">
        <ele>400.2</ele>
        <time>2020-10-24T09:30:43Z</time>
      </trkpt>
      <trkpt lat="46.1134" lon="4.59416">
        <ele>400.2</ele>
        <time>2020-10-24T09:30:44Z</time>
      </trkpt>
      <trkpt lat="46.11339" lon="4.59412">
        <ele>400</ele>
        <time>2020-10-24T09:30:45Z</time>
      </trkpt>
      <trkpt lat="46.11339" lon="4.59408">
        <ele>399.4</ele>
        <time>2020-10-24T09:30:46Z</time>
      </trkpt>
      <trkpt lat="46.11338" lon="4.59405">
        <ele>399.2</ele>
        <time>2020-10-24T09:30:47Z</time>
      </trkpt>
      <trkpt lat="46.11338" lon="4.59402">
        <ele>398.8</ele>
        <time>2020-10-24T09:30:48Z</time>
      </trkpt>
      <trkpt lat="46.11337" lon="4.59398">
        <ele>398.8</ele>
        <time>2020-10-24T09:30:49Z</time>
      </trkpt>
      <trkpt lat="46.11337" lon="4.59395">
        <ele>398.6</ele>
        <time>2020-10-24T09:30:50Z</time>
      </trkpt>
      <trkpt lat="46.11336" lon="4.59391">
        <ele>398</ele>
        <time>2020-10-24T09:30:51Z</time>
      </trkpt>
      <trkpt lat="46.11335" lon="4.59387">
        <ele>397.4</ele>
        <time>2020-10-24T09:30:52Z</time>
      </trkpt>
      <trkpt lat="46.11334" lon="4.59383">
        <ele>397.4</ele>
        <time>2020-10-24T09:30:53Z</time>
      </trkpt>
      <trkpt lat="46.11333" lon="4.5938">
        <ele>397</ele>
        <time>2020-10-24T09:30:54Z</time>
      </trkpt>
      <trkpt lat="46.11332" lon="4.59376">
        <ele>396.4</ele>
        <time>2020-10-24T09:30:55Z</time>
      </trkpt>
      <trkpt lat="46.11332" lon="4.59372">
        <ele>396.4</ele>
        <time>2020-10-24T09:30:56Z</time>
      </trkpt>
      <trkpt lat="46.11331" lon="4.59368">
        <ele>396.2</ele>
        <time>2020-10-24T09:30:57Z</time>
      </trkpt>
      <trkpt lat="46.1133" lon="4.59364">
        <ele>395.4</ele>
        <time>2020-10-24T09:30:58Z</time>
      </trkpt>
      <trkpt lat="46.1133" lon="4.5936">
        <ele>395.6</ele>
        <time>2020-10-24T09:30:59Z</time>
      </trkpt>
      <trkpt lat="46.1133" lon="4.59355">
        <ele>395</ele>
        <time>2020-10-24T09:31:00Z</time>
      </trkpt>
      <trkpt lat="46.1133" lon="4.59351">
        <ele>394.6</ele>
        <time>2020-10-24T09:31:01Z</time>
      </trkpt>
      <trkpt lat="46.1133" lon="4.59347">
        <ele>394.4</ele>
        <time>2020-10-24T09:31:02Z</time>
      </trkpt>
      <trkpt lat="46.1133" lon="4.59343">
        <ele>394</ele>
        <time>2020-10-24T09:31:03Z</time>
      </trkpt>
      <trkpt lat="46.1133" lon="4.5934">
        <ele>393.2</ele>
        <time>2020-10-24T09:31:04Z</time>
      </trkpt>
      <trkpt lat="46.11329" lon="4.59336">
        <ele>393</ele>
        <time>2020-10-24T09:31:05Z</time>
      </trkpt>
      <trkpt lat="46.11329" lon="4.59333">
        <ele>392.2</ele>
        <time>2020-10-24T09:31:06Z</time>
      </trkpt>
      <trkpt lat="46.11329" lon="4.59329">
        <ele>392.2</ele>
        <time>2020-10-24T09:31:07Z</time>
      </trkpt>
      <trkpt lat="46.11329" lon="4.59326">
        <ele>391.6</ele>
        <time>2020-10-24T09:31:08Z</time>
      </trkpt>
      <trkpt lat="46.11329" lon="4.59322">
        <ele>391</ele>
        <time>2020-10-24T09:31:09Z</time>
      </trkpt>
      <trkpt lat="46.11329" lon="4.59318">
        <ele>390.6</ele>
        <time>2020-10-24T09:31:10Z</time>
      </trkpt>
      <trkpt lat="46.11329" lon="4.59314">
        <ele>390</ele>
        <time>2020-10-24T09:31:11Z</time>
      </trkpt>
      <trkpt lat="46.11329" lon="4.59311">
        <ele>389.6</ele>
        <time>2020-10-24T09:31:12Z</time>
      </trkpt>
      <trkpt lat="46.11329" lon="4.59307">
        <ele>389.4</ele>
        <time>2020-10-24T09:31:13Z</time>
      </trkpt>
      <trkpt lat="46.1133" lon="4.59304">
        <ele>388.6</ele>
        <time>2020-10-24T09:31:14Z</time>
      </trkpt>
      <trkpt lat="46.1133" lon="4.593">
        <ele>388.2</ele>
        <time>2020-10-24T09:31:15Z</time>
      </trkpt>
      <trkpt lat="46.1133" lon="4.59296">
        <ele>387.8</ele>
        <time>2020-10-24T09:31:16Z</time>
      </trkpt>
      <trkpt lat="46.11331" lon="4.59292">
        <ele>387</ele>
        <time>2020-10-24T09:31:17Z</time>
      </trkpt>
      <trkpt lat="46.11331" lon="4.59288">
        <ele>386.8</ele>
        <time>2020-10-24T09:31:18Z</time>
      </trkpt>
      <trkpt lat="46.11332" lon="4.59284">
        <ele>385.8</ele>
        <time>2020-10-24T09:31:19Z</time>
      </trkpt>
      <trkpt lat="46.11334" lon="4.5928">
        <ele>385.2</ele>
        <time>2020-10-24T09:31:20Z</time>
      </trkpt>
      <trkpt lat="46.11335" lon="4.59277">
        <ele>385.4</ele>
        <time>2020-10-24T09:31:21Z</time>
      </trkpt>
      <trkpt lat="46.11337" lon="4.59274">
        <ele>385</ele>
        <time>2020-10-24T09:31:22Z</time>
      </trkpt>
      <trkpt lat="46.11338" lon="4.59271">
        <ele>384.6</ele>
        <time>2020-10-24T09:31:23Z</time>
      </trkpt>
      <trkpt lat="46.1134" lon="4.59268">
        <ele>384.8</ele>
        <time>2020-10-24T09:31:24Z</time>
      </trkpt>
      <trkpt lat="46.11342" lon="4.59265">
        <ele>384.4</ele>
        <time>2020-10-24T09:31:25Z</time>
      </trkpt>
      <trkpt lat="46.11344" lon="4.59263">
        <ele>384.6</ele>
        <time>2020-10-24T09:31:26Z</time>
      </trkpt>
      <trkpt lat="46.11346" lon="4.5926">
        <ele>384.4</ele>
        <time>2020-10-24T09:31:27Z</time>
      </trkpt>
      <trkpt lat="46.11348" lon="4.59257">
        <ele>384.2</ele>
        <time>2020-10-24T09:31:28Z</time>
      </trkpt>
      <trkpt lat="46.1135" lon="4.59255">
        <ele>384.6</ele>
        <time>2020-10-24T09:31:29Z</time>
      </trkpt>
      <trkpt lat="46.11352" lon="4.59253">
        <ele>384.6</ele>
        <time>2020-10-24T09:31:30Z</time>
      </trkpt>
      <trkpt lat="46.11354" lon="4.5925">
        <ele>384.6</ele>
        <time>2020-10-24T09:31:31Z</time>
      </trkpt>
      <trkpt lat="46.11356" lon="4.59248">
        <ele>385</ele>
        <time>2020-10-24T09:31:32Z</time>
      </trkpt>
      <trkpt lat="46.11358" lon="4.59246">
        <ele>384.6</ele>
        <time>2020-10-24T09:31:33Z</time>
      </trkpt>
      <trkpt lat="46.1136" lon="4.59243">
        <ele>384.4</ele>
        <time>2020-10-24T09:31:34Z</time>
      </trkpt>
      <trkpt lat="46.11362" lon="4.59241">
        <ele>384.8</ele>
        <time>2020-10-24T09:31:35Z</time>
      </trkpt>
      <trkpt lat="46.11364" lon="4.59239">
        <ele>384.6</ele>
        <time>2020-10-24T09:31:36Z</time>
      </trkpt>
      <trkpt lat="46.11366" lon="4.59238">
        <ele>385</ele>
        <time>2020-10-24T09:31:37Z</time>
      </trkpt>
      <trkpt lat="46.11368" lon="4.59236">
        <ele>384.8</ele>
        <time>2020-10-24T09:31:38Z</time>
      </trkpt>
      <trkpt lat="46.1137" lon="4.59234">
        <ele>384.6</ele>
        <time>2020-10-24T09:31:39Z</time>
      </trkpt>
      <trkpt lat="46.11372" lon="4.59231">
        <ele>385.2</ele>
        <time>2020-10-24T09:31:40Z</time>
      </trkpt>
      <trkpt lat="46.11374" lon="4.59229">
        <ele>385.2</ele>
        <time>2020-10-24T09:31:41Z</time>
      </trkpt>
      <trkpt lat="46.11376" lon="4.59227">
        <ele>384.8</ele>
        <time>2020-10-24T09:31:42Z</time>
      </trkpt>
      <trkpt lat="46.11378" lon="4.59224">
        <ele>385.2</ele>
        <time>2020-10-24T09:31:43Z</time>
      </trkpt>
      <trkpt lat="46.11379" lon="4.59222">
        <ele>385.2</ele>
        <time>2020-10-24T09:31:44Z</time>
      </trkpt>
      <trkpt lat="46.11381" lon="4.5922">
        <ele>385.4</ele>
        <time>2020-10-24T09:31:45Z</time>
      </trkpt>
      <trkpt lat="46.11383" lon="4.59217">
        <ele>385.6</ele>
        <time>2020-10-24T09:31:46Z</time>
      </trkpt>
      <trkpt lat="46.11385" lon="4.59215">
        <ele>385.6</ele>
        <time>2020-10-24T09:31:47Z</time>
      </trkpt>
      <trkpt lat="46.11387" lon="4.59213">
        <ele>386</ele>
        <time>2020-10-24T09:31:48Z</time>
      </trkpt>
      <trkpt lat="46.11389" lon="4.5921">
        <ele>386</ele>
        <time>2020-10-24T09:31:49Z</time>
      </trkpt>
      <trkpt lat="46.11391" lon="4.59207">
        <ele>386.2</ele>
        <time>2020-10-24T09:31:50Z</time>
      </trkpt>
      <trkpt lat="46.11393" lon="4.59205">
        <ele>386.4</ele>
        <time>2020-10-24T09:31:51Z</time>
      </trkpt>
      <trkpt lat="46.11395" lon="4.59202">
        <ele>386.2</ele>
        <time>2020-10-24T09:31:52Z</time>
      </trkpt>
      <trkpt lat="46.11397" lon="4.59199">
        <ele>386.2</ele>
        <time>2020-10-24T09:31:53Z</time>
      </trkpt>
      <trkpt lat="46.11399" lon="4.59196">
        <ele>386.6</ele>
        <time>2020-10-24T09:31:54Z</time>
      </trkpt>
      <trkpt lat="46.114" lon="4.59194">
        <ele>386.6</ele>
        <time>2020-10-24T09:31:55Z</time>
      </trkpt>
      <trkpt lat="46.11402" lon="4.5919">
        <ele>386.4</ele>
        <time>2020-10-24T09:31:56Z</time>
      </trkpt>
      <trkpt lat="46.11404" lon="4.59186">
        <ele>386.8</ele>
        <time>2020-10-24T09:31:57Z</time>
      </trkpt>
      <trkpt lat="46.11406" lon="4.59184">
        <ele>386.6</ele>
        <time>2020-10-24T09:31:58Z</time>
      </trkpt>
      <trkpt lat="46.11408" lon="4.59181">
        <ele>386.4</ele>
        <time>2020-10-24T09:31:59Z</time>
      </trkpt>
      <trkpt lat="46.1141" lon="4.59179">
        <ele>386.8</ele>
        <time>2020-10-24T09:32:00Z</time>
      </trkpt>
      <trkpt lat="46.11412" lon="4.59177">
        <ele>386.6</ele>
        <time>2020-10-24T09:32:01Z</time>
      </trkpt>
      <trkpt lat="46.11414" lon="4.59175">
        <ele>386.2</ele>
        <time>2020-10-24T09:32:02Z</time>
      </trkpt>
      <trkpt lat="46.11416" lon="4.59172">
        <ele>386.6</ele>
        <time>2020-10-24T09:32:03Z</time>
      </trkpt>
      <trkpt lat="46.11418" lon="4.59169">
        <ele>386.4</ele>
        <time>2020-10-24T09:32:04Z</time>
      </trkpt>
      <trkpt lat="46.1142" lon="4.59166">
        <ele>386</ele>
        <time>2020-10-24T09:32:05Z</time>
      </trkpt>
      <trkpt lat="46.11423" lon="4.59164">
        <ele>386.4</ele>
        <time>2020-10-24T09:32:06Z</time>
      </trkpt>
      <trkpt lat="46.11425" lon="4.59161">
        <ele>386</ele>
        <time>2020-10-24T09:32:07Z</time>
      </trkpt>
      <trkpt lat="46.11427" lon="4.59158">
        <ele>386</ele>
        <time>2020-10-24T09:32:08Z</time>
      </trkpt>
      <trkpt lat="46.11429" lon="4.59155">
        <ele>386</ele>
        <time>2020-10-24T09:32:09Z</time>
      </trkpt>
      <trkpt lat="46.1143" lon="4.59153">
        <ele>385.6</ele>
        <time>2020-10-24T09:32:10Z</time>
      </trkpt>
      <trkpt lat="46.11432" lon="4.5915">
        <ele>385.8</ele>
        <time>2020-10-24T09:32:11Z</time>
      </trkpt>
      <trkpt lat="46.11434" lon="4.59147">
        <ele>385.8</ele>
        <time>2020-10-24T09:32:12Z</time>
      </trkpt>
      <trkpt lat="46.11436" lon="4.59145">
        <ele>385.4</ele>
        <time>2020-10-24T09:32:13Z</time>
      </trkpt>
      <trkpt lat="46.11438" lon="4.59142">
        <ele>385.6</ele>
        <time>2020-10-24T09:32:14Z</time>
      </trkpt>
      <trkpt lat="46.1144" lon="4.59139">
        <ele>385.4</ele>
        <time>2020-10-24T09:32:15Z</time>
      </trkpt>
      <trkpt lat="46.11442" lon="4.59136">
        <ele>384.8</ele>
        <time>2020-10-24T09:32:16Z</time>
      </trkpt>
      <trkpt lat="46.11444" lon="4.59133">
        <ele>385</ele>
        <time>2020-10-24T09:32:17Z</time>
      </trkpt>
      <trkpt lat="46.11446" lon="4.59131">
        <ele>384.8</ele>
        <time>2020-10-24T09:32:18Z</time>
      </trkpt>
      <trkpt lat="46.11448" lon="4.59129">
        <ele>384.4</ele>
        <time>2020-10-24T09:32:19Z</time>
      </trkpt>
      <trkpt lat="46.1145" lon="4.59125">
        <ele>384.8</ele>
        <time>2020-10-24T09:32:20Z</time>
      </trkpt>
      <trkpt lat="46.11452" lon="4.59122">
        <ele>384.4</ele>
        <time>2020-10-24T09:32:21Z</time>
      </trkpt>
      <trkpt lat="46.11454" lon="4.5912">
        <ele>384.2</ele>
        <time>2020-10-24T09:32:22Z</time>
      </trkpt>
      <trkpt lat="46.11456" lon="4.59118">
        <ele>384.6</ele>
        <time>2020-10-24T09:32:23Z</time>
      </trkpt>
      <trkpt lat="46.11458" lon="4.59115">
        <ele>384</ele>
        <time>2020-10-24T09:32:24Z</time>
      </trkpt>
      <trkpt lat="46.11461" lon="4.59112">
        <ele>384</ele>
        <time>2020-10-24T09:32:25Z</time>
      </trkpt>
      <trkpt lat="46.11463" lon="4.5911">
        <ele>384.2</ele>
        <time>2020-10-24T09:32:26Z</time>
      </trkpt>
      <trkpt lat="46.11465" lon="4.59108">
        <ele>383.8</ele>
        <time>2020-10-24T09:32:27Z</time>
      </trkpt>
      <trkpt lat="46.11468" lon="4.59106">
        <ele>383.8</ele>
        <time>2020-10-24T09:32:28Z</time>
      </trkpt>
      <trkpt lat="46.1147" lon="4.59103">
        <ele>383.6</ele>
        <time>2020-10-24T09:32:29Z</time>
      </trkpt>
      <trkpt lat="46.11472" lon="4.59101">
        <ele>383.2</ele>
        <time>2020-10-24T09:32:30Z</time>
      </trkpt>
      <trkpt lat="46.11475" lon="4.591">
        <ele>383.4</ele>
        <time>2020-10-24T09:32:31Z</time>
      </trkpt>
      <trkpt lat="46.11478" lon="4.59099">
        <ele>383.2</ele>
        <time>2020-10-24T09:32:32Z</time>
      </trkpt>
      <trkpt lat="46.1148" lon="4.59098">
        <ele>383</ele>
        <time>2020-10-24T09:32:33Z</time>
      </trkpt>
      <trkpt lat="46.11483" lon="4.59097">
        <ele>383.2</ele>
        <time>2020-10-24T09:32:34Z</time>
      </trkpt>
      <trkpt lat="46.11486" lon="4.59096">
        <ele>383</ele>
        <time>2020-10-24T09:32:35Z</time>
      </trkpt>
      <trkpt lat="46.11489" lon="4.59095">
        <ele>382.6</ele>
        <time>2020-10-24T09:32:36Z</time>
      </trkpt>
      <trkpt lat="46.11492" lon="4.59093">
        <ele>382.8</ele>
        <time>2020-10-24T09:32:37Z</time>
      </trkpt>
      <trkpt lat="46.11493" lon="4.59091">
        <ele>382.4</ele>
        <time>2020-10-24T09:32:38Z</time>
      </trkpt>
      <trkpt lat="46.11494" lon="4.59088">
        <ele>382</ele>
        <time>2020-10-24T09:32:39Z</time>
      </trkpt>
      <trkpt lat="46.11494" lon="4.59088">
        <ele>382.2</ele>
        <time>2020-10-24T09:32:40Z</time>
      </trkpt>
      <trkpt lat="46.11492" lon="4.59085">
        <ele>381.8</ele>
        <time>2020-10-24T09:32:41Z</time>
      </trkpt>
      <trkpt lat="46.1149" lon="4.59085">
        <ele>381.8</ele>
        <time>2020-10-24T09:32:42Z</time>
      </trkpt>
      <trkpt lat="46.11487" lon="4.59085">
        <ele>381.4</ele>
        <time>2020-10-24T09:32:43Z</time>
      </trkpt>
      <trkpt lat="46.11485" lon="4.59085">
        <ele>381</ele>
        <time>2020-10-24T09:32:44Z</time>
      </trkpt>
      <trkpt lat="46.11482" lon="4.59086">
        <ele>381</ele>
        <time>2020-10-24T09:32:45Z</time>
      </trkpt>
      <trkpt lat="46.1148" lon="4.59087">
        <ele>380.6</ele>
        <time>2020-10-24T09:32:46Z</time>
      </trkpt>
      <trkpt lat="46.11478" lon="4.59088">
        <ele>380.4</ele>
        <time>2020-10-24T09:32:47Z</time>
      </trkpt>
      <trkpt lat="46.11475" lon="4.59088">
        <ele>380.2</ele>
        <time>2020-10-24T09:32:48Z</time>
      </trkpt>
      <trkpt lat="46.11472" lon="4.59089">
        <ele>379.8</ele>
        <time>2020-10-24T09:32:49Z</time>
      </trkpt>
      <trkpt lat="46.11469" lon="4.59089">
        <ele>379.6</ele>
        <time>2020-10-24T09:32:50Z</time>
      </trkpt>
      <trkpt lat="46.11467" lon="4.59089">
        <ele>379.6</ele>
        <time>2020-10-24T09:32:51Z</time>
      </trkpt>
      <trkpt lat="46.11465" lon="4.5909">
        <ele>379.6</ele>
        <time>2020-10-24T09:32:52Z</time>
      </trkpt>
      <trkpt lat="46.11462" lon="4.59092">
        <ele>379</ele>
        <time>2020-10-24T09:32:53Z</time>
      </trkpt>
      <trkpt lat="46.1146" lon="4.59092">
        <ele>379</ele>
        <time>2020-10-24T09:32:54Z</time>
      </trkpt>
      <trkpt lat="46.11458" lon="4.59093">
        <ele>378.8</ele>
        <time>2020-10-24T09:32:55Z</time>
      </trkpt>
      <trkpt lat="46.11456" lon="4.59093">
        <ele>378.2</ele>
        <time>2020-10-24T09:32:56Z</time>
      </trkpt>
      <trkpt lat="46.11454" lon="4.59094">
        <ele>378</ele>
        <time>2020-10-24T09:32:57Z</time>
      </trkpt>
      <trkpt lat="46.11452" lon="4.59094">
        <ele>378</ele>
        <time>2020-10-24T09:32:58Z</time>
      </trkpt>
      <trkpt lat="46.1145" lon="4.59094">
        <ele>377.6</ele>
        <time>2020-10-24T09:32:59Z</time>
      </trkpt>
      <trkpt lat="46.11447" lon="4.59094">
        <ele>377.4</ele>
        <time>2020-10-24T09:33:00Z</time>
      </trkpt>
      <trkpt lat="46.11445" lon="4.59095">
        <ele>377.2</ele>
        <time>2020-10-24T09:33:01Z</time>
      </trkpt>
      <trkpt lat="46.11442" lon="4.59096">
        <ele>376.8</ele>
        <time>2020-10-24T09:33:02Z</time>
      </trkpt>
      <trkpt lat="46.1144" lon="4.59097">
        <ele>376.4</ele>
        <time>2020-10-24T09:33:03Z</time>
      </trkpt>
      <trkpt lat="46.11437" lon="4.59097">
        <ele>376.2</ele>
        <time>2020-10-24T09:33:04Z</time>
      </trkpt>
      <trkpt lat="46.11435" lon="4.59098">
        <ele>376</ele>
        <time>2020-10-24T09:33:05Z</time>
      </trkpt>
      <trkpt lat="46.11432" lon="4.59098">
        <ele>375.6</ele>
        <time>2020-10-24T09:33:06Z</time>
      </trkpt>
      <trkpt lat="46.1143" lon="4.59099">
        <ele>375.6</ele>
        <time>2020-10-24T09:33:07Z</time>
      </trkpt>
      <trkpt lat="46.11428" lon="4.591">
        <ele>375.4</ele>
        <time>2020-10-24T09:33:08Z</time>
      </trkpt>
      <trkpt lat="46.11425" lon="4.59101">
        <ele>375</ele>
        <time>2020-10-24T09:33:09Z</time>
      </trkpt>
      <trkpt lat="46.11423" lon="4.59102">
        <ele>375</ele>
        <time>2020-10-24T09:33:10Z</time>
      </trkpt>
      <trkpt lat="46.11421" lon="4.59104">
        <ele>374.4</ele>
        <time>2020-10-24T09:33:11Z</time>
      </trkpt>
      <trkpt lat="46.11419" lon="4.59106">
        <ele>374.2</ele>
        <time>2020-10-24T09:33:12Z</time>
      </trkpt>
      <trkpt lat="46.11417" lon="4.59107">
        <ele>374</ele>
        <time>2020-10-24T09:33:13Z</time>
      </trkpt>
      <trkpt lat="46.11414" lon="4.59109">
        <ele>373.6</ele>
        <time>2020-10-24T09:33:14Z</time>
      </trkpt>
      <trkpt lat="46.11412" lon="4.59111">
        <ele>373</ele>
        <time>2020-10-24T09:33:15Z</time>
      </trkpt>
      <trkpt lat="46.1141" lon="4.59113">
        <ele>373</ele>
        <time>2020-10-24T09:33:16Z</time>
      </trkpt>
      <trkpt lat="46.11409" lon="4.59114">
        <ele>372.4</ele>
        <time>2020-10-24T09:33:17Z</time>
      </trkpt>
      <trkpt lat="46.11407" lon="4.59115">
        <ele>372.2</ele>
        <time>2020-10-24T09:33:18Z</time>
      </trkpt>
      <trkpt lat="46.11407" lon="4.59115">
        <ele>372.2</ele>
        <time>2020-10-24T09:33:19Z</time>
      </trkpt>
      <trkpt lat="46.11406" lon="4.5911">
        <ele>371.8</ele>
        <time>2020-10-24T09:33:20Z</time>
      </trkpt>
      <trkpt lat="46.11408" lon="4.59107">
        <ele>371.8</ele>
        <time>2020-10-24T09:33:21Z</time>
      </trkpt>
      <trkpt lat="46.1141" lon="4.59104">
        <ele>371.4</ele>
        <time>2020-10-24T09:33:22Z</time>
      </trkpt>
      <trkpt lat="46.11413" lon="4.59101">
        <ele>370.8</ele>
        <time>2020-10-24T09:33:23Z</time>
      </trkpt>
      <trkpt lat="46.11414" lon="4.59098">
        <ele>371</ele>
        <time>2020-10-24T09:33:24Z</time>
      </trkpt>
      <trkpt lat="46.11416" lon="4.59095">
        <ele>370.8</ele>
        <time>2020-10-24T09:33:25Z</time>
      </trkpt>
      <trkpt lat="46.11418" lon="4.59093">
        <ele>370.2</ele>
        <time>2020-10-24T09:33:26Z</time>
      </trkpt>
      <trkpt lat="46.1142" lon="4.59089">
        <ele>370.6</ele>
        <time>2020-10-24T09:33:27Z</time>
      </trkpt>
      <trkpt lat="46.11422" lon="4.59086">
        <ele>370.4</ele>
        <time>2020-10-24T09:33:28Z</time>
      </trkpt>
      <trkpt lat="46.11423" lon="4.59083">
        <ele>370</ele>
        <time>2020-10-24T09:33:29Z</time>
      </trkpt>
      <trkpt lat="46.11424" lon="4.5908">
        <ele>370.2</ele>
        <time>2020-10-24T09:33:30Z</time>
      </trkpt>
      <trkpt lat="46.11426" lon="4.59077">
        <ele>370</ele>
        <time>2020-10-24T09:33:31Z</time>
      </trkpt>
      <trkpt lat="46.11427" lon="4.59075">
        <ele>370</ele>
        <time>2020-10-24T09:33:32Z</time>
      </trkpt>
      <trkpt lat="46.11428" lon="4.59072">
        <ele>370</ele>
        <time>2020-10-24T09:33:33Z</time>
      </trkpt>
      <trkpt lat="46.11429" lon="4.59068">
        <ele>369.8</ele>
        <time>2020-10-24T09:33:34Z</time>
      </trkpt>
      <trkpt lat="46.1143" lon="4.59065">
        <ele>369.8</ele>
        <time>2020-10-24T09:33:35Z</time>
      </trkpt>
      <trkpt lat="46.11431" lon="4.59061">
        <ele>370</ele>
        <time>2020-10-24T09:33:36Z</time>
      </trkpt>
      <trkpt lat="46.11431" lon="4.59058">
        <ele>369.6</ele>
        <time>2020-10-24T09:33:37Z</time>
      </trkpt>
      <trkpt lat="46.11431" lon="4.59054">
        <ele>369.8</ele>
        <time>2020-10-24T09:33:38Z</time>
      </trkpt>
      <trkpt lat="46.11431" lon="4.59051">
        <ele>369.6</ele>
        <time>2020-10-24T09:33:39Z</time>
      </trkpt>
      <trkpt lat="46.11431" lon="4.59047">
        <ele>369.4</ele>
        <time>2020-10-24T09:33:40Z</time>
      </trkpt>
      <trkpt lat="46.11429" lon="4.59044">
        <ele>369.4</ele>
        <time>2020-10-24T09:33:41Z</time>
      </trkpt>
      <trkpt lat="46.11428" lon="4.59041">
        <ele>369</ele>
        <time>2020-10-24T09:33:42Z</time>
      </trkpt>
      <trkpt lat="46.11427" lon="4.59038">
        <ele>368.8</ele>
        <time>2020-10-24T09:33:43Z</time>
      </trkpt>
      <trkpt lat="46.11424" lon="4.59036">
        <ele>369</ele>
        <time>2020-10-24T09:33:44Z</time>
      </trkpt>
      <trkpt lat="46.11422" lon="4.59034">
        <ele>368.8</ele>
        <time>2020-10-24T09:33:45Z</time>
      </trkpt>
      <trkpt lat="46.1142" lon="4.59032">
        <ele>368.4</ele>
        <time>2020-10-24T09:33:46Z</time>
      </trkpt>
      <trkpt lat="46.11418" lon="4.59031">
        <ele>369</ele>
        <time>2020-10-24T09:33:47Z</time>
      </trkpt>
      <trkpt lat="46.11415" lon="4.59031">
        <ele>368.8</ele>
        <time>2020-10-24T09:33:48Z</time>
      </trkpt>
      <trkpt lat="46.11413" lon="4.59031">
        <ele>368.6</ele>
        <time>2020-10-24T09:33:49Z</time>
      </trkpt>
      <trkpt lat="46.11411" lon="4.59031">
        <ele>368.6</ele>
        <time>2020-10-24T09:33:50Z</time>
      </trkpt>
      <trkpt lat="46.11408" lon="4.59031">
        <ele>368.4</ele>
        <time>2020-10-24T09:33:51Z</time>
      </trkpt>
      <trkpt lat="46.11406" lon="4.59031">
        <ele>368.4</ele>
        <time>2020-10-24T09:33:52Z</time>
      </trkpt>
      <trkpt lat="46.11404" lon="4.59032">
        <ele>368.4</ele>
        <time>2020-10-24T09:33:53Z</time>
      </trkpt>
      <trkpt lat="46.11401" lon="4.59032">
        <ele>368.2</ele>
        <time>2020-10-24T09:33:54Z</time>
      </trkpt>
      <trkpt lat="46.11399" lon="4.59033">
        <ele>368.2</ele>
        <time>2020-10-24T09:33:55Z</time>
      </trkpt>
      <trkpt lat="46.11396" lon="4.59033">
        <ele>368</ele>
        <time>2020-10-24T09:33:56Z</time>
      </trkpt>
      <trkpt lat="46.11393" lon="4.59033">
        <ele>367.8</ele>
        <time>2020-10-24T09:33:57Z</time>
      </trkpt>
      <trkpt lat="46.11391" lon="4.59033">
        <ele>368</ele>
        <time>2020-10-24T09:33:58Z</time>
      </trkpt>
      <trkpt lat="46.11388" lon="4.59032">
        <ele>367.8</ele>
        <time>2020-10-24T09:33:59Z</time>
      </trkpt>
      <trkpt lat="46.11386" lon="4.59032">
        <ele>367.6</ele>
        <time>2020-10-24T09:34:00Z</time>
      </trkpt>
      <trkpt lat="46.11384" lon="4.59032">
        <ele>368</ele>
        <time>2020-10-24T09:34:01Z</time>
      </trkpt>
      <trkpt lat="46.11381" lon="4.59032">
        <ele>368</ele>
        <time>2020-10-24T09:34:02Z</time>
      </trkpt>
      <trkpt lat="46.11378" lon="4.59032">
        <ele>367.8</ele>
        <time>2020-10-24T09:34:03Z</time>
      </trkpt>
      <trkpt lat="46.11376" lon="4.59031">
        <ele>368</ele>
        <time>2020-10-24T09:34:04Z</time>
      </trkpt>
      <trkpt lat="46.11373" lon="4.5903">
        <ele>367.8</ele>
        <time>2020-10-24T09:34:05Z</time>
      </trkpt>
      <trkpt lat="46.11371" lon="4.59029">
        <ele>368</ele>
        <time>2020-10-24T09:34:06Z</time>
      </trkpt>
      <trkpt lat="46.11368" lon="4.59027">
        <ele>368</ele>
        <time>2020-10-24T09:34:07Z</time>
      </trkpt>
      <trkpt lat="46.11366" lon="4.59026">
        <ele>367.8</ele>
        <time>2020-10-24T09:34:08Z</time>
      </trkpt>
      <trkpt lat="46.11363" lon="4.59024">
        <ele>368.2</ele>
        <time>2020-10-24T09:34:09Z</time>
      </trkpt>
      <trkpt lat="46.11361" lon="4.59023">
        <ele>368</ele>
        <time>2020-10-24T09:34:10Z</time>
      </trkpt>
      <trkpt lat="46.11359" lon="4.59021">
        <ele>367.8</ele>
        <time>2020-10-24T09:34:11Z</time>
      </trkpt>
      <trkpt lat="46.11357" lon="4.59019">
        <ele>368.4</ele>
        <time>2020-10-24T09:34:12Z</time>
      </trkpt>
      <trkpt lat="46.11355" lon="4.59017">
        <ele>368.2</ele>
        <time>2020-10-24T09:34:13Z</time>
      </trkpt>
      <trkpt lat="46.11353" lon="4.59016">
        <ele>367.8</ele>
        <time>2020-10-24T09:34:14Z</time>
      </trkpt>
      <trkpt lat="46.11351" lon="4.59014">
        <ele>368.4</ele>
        <time>2020-10-24T09:34:15Z</time>
      </trkpt>
      <trkpt lat="46.11349" lon="4.59013">
        <ele>368.4</ele>
        <time>2020-10-24T09:34:16Z</time>
      </trkpt>
      <trkpt lat="46.11347" lon="4.59011">
        <ele>368</ele>
        <time>2020-10-24T09:34:17Z</time>
      </trkpt>
      <trkpt lat="46.11345" lon="4.59009">
        <ele>368.4</ele>
        <time>2020-10-24T09:34:18Z</time>
      </trkpt>
      <trkpt lat="46.11343" lon="4.59008">
        <ele>368.4</ele>
        <time>2020-10-24T09:34:19Z</time>
      </trkpt>
      <trkpt lat="46.11341" lon="4.59006">
        <ele>368.6</ele>
        <time>2020-10-24T09:34:20Z</time>
      </trkpt>
      <trkpt lat="46.11339" lon="4.59004">
        <ele>368.6</ele>
        <time>2020-10-24T09:34:21Z</time>
      </trkpt>
      <trkpt lat="46.11337" lon="4.59002">
        <ele>368.6</ele>
        <time>2020-10-24T09:34:22Z</time>
      </trkpt>
      <trkpt lat="46.11335" lon="4.59001">
        <ele>368.8</ele>
        <time>2020-10-24T09:34:23Z</time>
      </trkpt>
      <trkpt lat="46.11333" lon="4.58999">
        <ele>368.4</ele>
        <time>2020-10-24T09:34:24Z</time>
      </trkpt>
      <trkpt lat="46.11331" lon="4.58997">
        <ele>368.4</ele>
        <time>2020-10-24T09:34:25Z</time>
      </trkpt>
      <trkpt lat="46.11329" lon="4.58995">
        <ele>368.8</ele>
        <time>2020-10-24T09:34:26Z</time>
      </trkpt>
      <trkpt lat="46.11328" lon="4.58994">
        <ele>368.6</ele>
        <time>2020-10-24T09:34:27Z</time>
      </trkpt>
      <trkpt lat="46.11326" lon="4.58992">
        <ele>368.6</ele>
        <time>2020-10-24T09:34:28Z</time>
      </trkpt>
      <trkpt lat="46.11324" lon="4.5899">
        <ele>368.6</ele>
        <time>2020-10-24T09:34:29Z</time>
      </trkpt>
      <trkpt lat="46.11322" lon="4.58989">
        <ele>368.4</ele>
        <time>2020-10-24T09:34:30Z</time>
      </trkpt>
      <trkpt lat="46.1132" lon="4.58987">
        <ele>368</ele>
        <time>2020-10-24T09:34:31Z</time>
      </trkpt>
      <trkpt lat="46.11318" lon="4.58985">
        <ele>368.6</ele>
        <time>2020-10-24T09:34:32Z</time>
      </trkpt>
      <trkpt lat="46.11317" lon="4.58983">
        <ele>368.4</ele>
        <time>2020-10-24T09:34:33Z</time>
      </trkpt>
      <trkpt lat="46.11315" lon="4.58982">
        <ele>368</ele>
        <time>2020-10-24T09:34:34Z</time>
      </trkpt>
      <trkpt lat="46.11313" lon="4.5898">
        <ele>368.6</ele>
        <time>2020-10-24T09:34:35Z</time>
      </trkpt>
      <trkpt lat="46.11311" lon="4.58978">
        <ele>368.4</ele>
        <time>2020-10-24T09:34:36Z</time>
      </trkpt>
      <trkpt lat="46.11309" lon="4.58977">
        <ele>368.8</ele>
        <time>2020-10-24T09:34:37Z</time>
      </trkpt>
      <trkpt lat="46.11307" lon="4.58975">
        <ele>369</ele>
        <time>2020-10-24T09:34:38Z</time>
      </trkpt>
      <trkpt lat="46.11305" lon="4.58974">
        <ele>368.8</ele>
        <time>2020-10-24T09:34:39Z</time>
      </trkpt>
      <trkpt lat="46.11303" lon="4.58972">
        <ele>369</ele>
        <time>2020-10-24T09:34:40Z</time>
      </trkpt>
      <trkpt lat="46.11301" lon="4.58971">
        <ele>368.8</ele>
        <time>2020-10-24T09:34:41Z</time>
      </trkpt>
      <trkpt lat="46.11299" lon="4.58969">
        <ele>368.6</ele>
        <time>2020-10-24T09:34:42Z</time>
      </trkpt>
      <trkpt lat="46.11297" lon="4.58968">
        <ele>368.6</ele>
        <time>2020-10-24T09:34:43Z</time>
      </trkpt>
      <trkpt lat="46.11295" lon="4.58966">
        <ele>368.6</ele>
        <time>2020-10-24T09:34:44Z</time>
      </trkpt>
      <trkpt lat="46.11293" lon="4.58964">
        <ele>368.6</ele>
        <time>2020-10-24T09:34:45Z</time>
      </trkpt>
      <trkpt lat="46.11292" lon="4.58963">
        <ele>368.8</ele>
        <time>2020-10-24T09:34:46Z</time>
      </trkpt>
      <trkpt lat="46.1129" lon="4.5896">
        <ele>368.6</ele>
        <time>2020-10-24T09:34:47Z</time>
      </trkpt>
      <trkpt lat="46.11288" lon="4.58959">
        <ele>368.4</ele>
        <time>2020-10-24T09:34:48Z</time>
      </trkpt>
      <trkpt lat="46.11286" lon="4.58957">
        <ele>368.8</ele>
        <time>2020-10-24T09:34:49Z</time>
      </trkpt>
      <trkpt lat="46.11284" lon="4.58956">
        <ele>368.8</ele>
        <time>2020-10-24T09:34:50Z</time>
      </trkpt>
      <trkpt lat="46.11282" lon="4.58954">
        <ele>368.8</ele>
        <time>2020-10-24T09:34:51Z</time>
      </trkpt>
      <trkpt lat="46.1128" lon="4.58953">
        <ele>369</ele>
        <time>2020-10-24T09:34:52Z</time>
      </trkpt>
      <trkpt lat="46.11278" lon="4.58951">
        <ele>369</ele>
        <time>2020-10-24T09:34:53Z</time>
      </trkpt>
      <trkpt lat="46.11276" lon="4.58949">
        <ele>368.6</ele>
        <time>2020-10-24T09:34:54Z</time>
      </trkpt>
      <trkpt lat="46.11274" lon="4.58947">
        <ele>369</ele>
        <time>2020-10-24T09:34:55Z</time>
      </trkpt>
      <trkpt lat="46.11272" lon="4.58946">
        <ele>368.8</ele>
        <time>2020-10-24T09:34:56Z</time>
      </trkpt>
      <trkpt lat="46.1127" lon="4.58944">
        <ele>368.8</ele>
        <time>2020-10-24T09:34:57Z</time>
      </trkpt>
      <trkpt lat="46.11268" lon="4.58942">
        <ele>369</ele>
        <time>2020-10-24T09:34:58Z</time>
      </trkpt>
      <trkpt lat="46.11266" lon="4.58941">
        <ele>368.8</ele>
        <time>2020-10-24T09:34:59Z</time>
      </trkpt>
      <trkpt lat="46.11265" lon="4.58939">
        <ele>369</ele>
        <time>2020-10-24T09:35:00Z</time>
      </trkpt>
      <trkpt lat="46.11263" lon="4.58937">
        <ele>369</ele>
        <time>2020-10-24T09:35:01Z</time>
      </trkpt>
      <trkpt lat="46.11261" lon="4.58935">
        <ele>369</ele>
        <time>2020-10-24T09:35:02Z</time>
      </trkpt>
      <trkpt lat="46.11259" lon="4.58934">
        <ele>369.6</ele>
        <time>2020-10-24T09:35:03Z</time>
      </trkpt>
      <trkpt lat="46.11257" lon="4.58932">
        <ele>369.2</ele>
        <time>2020-10-24T09:35:04Z</time>
      </trkpt>
      <trkpt lat="46.11255" lon="4.58931">
        <ele>369.2</ele>
        <time>2020-10-24T09:35:05Z</time>
      </trkpt>
      <trkpt lat="46.11252" lon="4.58929">
        <ele>369.8</ele>
        <time>2020-10-24T09:35:06Z</time>
      </trkpt>
      <trkpt lat="46.1125" lon="4.58927">
        <ele>369.4</ele>
        <time>2020-10-24T09:35:07Z</time>
      </trkpt>
      <trkpt lat="46.11249" lon="4.58926">
        <ele>369.4</ele>
        <time>2020-10-24T09:35:08Z</time>
      </trkpt>
      <trkpt lat="46.11247" lon="4.58924">
        <ele>370</ele>
        <time>2020-10-24T09:35:09Z</time>
      </trkpt>
      <trkpt lat="46.11245" lon="4.58922">
        <ele>369.8</ele>
        <time>2020-10-24T09:35:10Z</time>
      </trkpt>
      <trkpt lat="46.11243" lon="4.5892">
        <ele>369.4</ele>
        <time>2020-10-24T09:35:11Z</time>
      </trkpt>
      <trkpt lat="46.11241" lon="4.58919">
        <ele>369.8</ele>
        <time>2020-10-24T09:35:12Z</time>
      </trkpt>
      <trkpt lat="46.11239" lon="4.58917">
        <ele>369.8</ele>
        <time>2020-10-24T09:35:13Z</time>
      </trkpt>
      <trkpt lat="46.11237" lon="4.58915">
        <ele>369.6</ele>
        <time>2020-10-24T09:35:14Z</time>
      </trkpt>
      <trkpt lat="46.11235" lon="4.58913">
        <ele>370</ele>
        <time>2020-10-24T09:35:15Z</time>
      </trkpt>
      <trkpt lat="46.11233" lon="4.58912">
        <ele>370.2</ele>
        <time>2020-10-24T09:35:16Z</time>
      </trkpt>
      <trkpt lat="46.11231" lon="4.5891">
        <ele>370.2</ele>
        <time>2020-10-24T09:35:17Z</time>
      </trkpt>
      <trkpt lat="46.11229" lon="4.58908">
        <ele>370.4</ele>
        <time>2020-10-24T09:35:18Z</time>
      </trkpt>
      <trkpt lat="46.11227" lon="4.58907">
        <ele>370.4</ele>
        <time>2020-10-24T09:35:19Z</time>
      </trkpt>
      <trkpt lat="46.11225" lon="4.58905">
        <ele>370.8</ele>
        <time>2020-10-24T09:35:20Z</time>
      </trkpt>
      <trkpt lat="46.11223" lon="4.58903">
        <ele>370.8</ele>
        <time>2020-10-24T09:35:21Z</time>
      </trkpt>
      <trkpt lat="46.1122" lon="4.58902">
        <ele>370.8</ele>
        <time>2020-10-24T09:35:22Z</time>
      </trkpt>
      <trkpt lat="46.11218" lon="4.589">
        <ele>371.2</ele>
        <time>2020-10-24T09:35:23Z</time>
      </trkpt>
      <trkpt lat="46.11216" lon="4.58898">
        <ele>371</ele>
        <time>2020-10-24T09:35:24Z</time>
      </trkpt>
      <trkpt lat="46.11214" lon="4.58897">
        <ele>370.8</ele>
        <time>2020-10-24T09:35:25Z</time>
      </trkpt>
      <trkpt lat="46.11212" lon="4.58895">
        <ele>371.4</ele>
        <time>2020-10-24T09:35:26Z</time>
      </trkpt>
      <trkpt lat="46.1121" lon="4.58893">
        <ele>371.2</ele>
        <time>2020-10-24T09:35:27Z</time>
      </trkpt>
      <trkpt lat="46.11209" lon="4.58892">
        <ele>371</ele>
        <time>2020-10-24T09:35:28Z</time>
      </trkpt>
      <trkpt lat="46.11207" lon="4.5889">
        <ele>371.4</ele>
        <time>2020-10-24T09:35:29Z</time>
      </trkpt>
      <trkpt lat="46.11205" lon="4.58888">
        <ele>371.2</ele>
        <time>2020-10-24T09:35:30Z</time>
      </trkpt>
      <trkpt lat="46.11203" lon="4.58886">
        <ele>371.2</ele>
        <time>2020-10-24T09:35:31Z</time>
      </trkpt>
      <trkpt lat="46.11201" lon="4.58883">
        <ele>371.6</ele>
        <time>2020-10-24T09:35:32Z</time>
      </trkpt>
      <trkpt lat="46.112" lon="4.58881">
        <ele>371.6</ele>
        <time>2020-10-24T09:35:33Z</time>
      </trkpt>
      <trkpt lat="46.11198" lon="4.58879">
        <ele>371.2</ele>
        <time>2020-10-24T09:35:34Z</time>
      </trkpt>
      <trkpt lat="46.11196" lon="4.58877">
        <ele>371.8</ele>
        <time>2020-10-24T09:35:35Z</time>
      </trkpt>
      <trkpt lat="46.11194" lon="4.58874">
        <ele>371.8</ele>
        <time>2020-10-24T09:35:36Z</time>
      </trkpt>
      <trkpt lat="46.11193" lon="4.58872">
        <ele>372</ele>
        <time>2020-10-24T09:35:37Z</time>
      </trkpt>
      <trkpt lat="46.11193" lon="4.58872">
        <ele>372.4</ele>
        <time>2020-10-24T09:35:38Z</time>
      </trkpt>
      <trkpt lat="46.11191" lon="4.58868">
        <ele>372.6</ele>
        <time>2020-10-24T09:35:39Z</time>
      </trkpt>
      <trkpt lat="46.11191" lon="4.58868">
        <ele>372.6</ele>
        <time>2020-10-24T09:35:40Z</time>
      </trkpt>
      <trkpt lat="46.11189" lon="4.58865">
        <ele>372.8</ele>
        <time>2020-10-24T09:35:41Z</time>
      </trkpt>
      <trkpt lat="46.11189" lon="4.58865">
        <ele>372.6</ele>
        <time>2020-10-24T09:35:42Z</time>
      </trkpt>
      <trkpt lat="46.11187" lon="4.58862">
        <ele>372.4</ele>
        <time>2020-10-24T09:35:43Z</time>
      </trkpt>
      <trkpt lat="46.11187" lon="4.58862">
        <ele>372.4</ele>
        <time>2020-10-24T09:35:44Z</time>
      </trkpt>
      <trkpt lat="46.11186" lon="4.58859">
        <ele>372.2</ele>
        <time>2020-10-24T09:35:45Z</time>
      </trkpt>
      <trkpt lat="46.11186" lon="4.58859">
        <ele>372.2</ele>
        <time>2020-10-24T09:35:46Z</time>
      </trkpt>
      <trkpt lat="46.11186" lon="4.58859">
        <ele>372.4</ele>
        <time>2020-10-24T09:35:47Z</time>
      </trkpt>
      <trkpt lat="46.11185" lon="4.58857">
        <ele>372.4</ele>
        <time>2020-10-24T09:35:48Z</time>
      </trkpt>
      <trkpt lat="46.11185" lon="4.58857">
        <ele>372.2</ele>
        <time>2020-10-24T09:35:49Z</time>
      </trkpt>
      <trkpt lat="46.11185" lon="4.58857">
        <ele>372</ele>
        <time>2020-10-24T09:35:50Z</time>
      </trkpt>
      <trkpt lat="46.11185" lon="4.58857">
        <ele>371.8</ele>
        <time>2020-10-24T09:35:51Z</time>
      </trkpt>
      <trkpt lat="46.11185" lon="4.58857">
        <ele>371.6</ele>
        <time>2020-10-24T09:35:52Z</time>
      </trkpt>
      <trkpt lat="46.11185" lon="4.58857">
        <ele>371.4</ele>
        <time>2020-10-24T09:35:53Z</time>
      </trkpt>
      <trkpt lat="46.11185" lon="4.58857">
        <ele>371.4</ele>
        <time>2020-10-24T09:35:54Z</time>
      </trkpt>
      <trkpt lat="46.11185" lon="4.58857">
        <ele>371.2</ele>
        <time>2020-10-24T09:35:55Z</time>
      </trkpt>
      <trkpt lat="46.11185" lon="4.58857">
        <ele>371.2</ele>
        <time>2020-10-24T09:35:56Z</time>
      </trkpt>
      <trkpt lat="46.11185" lon="4.58857">
        <ele>371.2</ele>
        <time>2020-10-24T09:35:57Z</time>
      </trkpt>
      <trkpt lat="46.11185" lon="4.58857">
        <ele>371.6</ele>
        <time>2020-10-24T09:35:58Z</time>
      </trkpt>
      <trkpt lat="46.11185" lon="4.58857">
        <ele>371.6</ele>
        <time>2020-10-24T09:35:59Z</time>
      </trkpt>
      <trkpt lat="46.11185" lon="4.58857">
        <ele>371.4</ele>
        <time>2020-10-24T09:36:00Z</time>
      </trkpt>
      <trkpt lat="46.11187" lon="4.58858">
        <ele>371.4</ele>
        <time>2020-10-24T09:36:01Z</time>
      </trkpt>
      <trkpt lat="46.11187" lon="4.58858">
        <ele>371.4</ele>
        <time>2020-10-24T09:36:02Z</time>
      </trkpt>
      <trkpt lat="46.1119" lon="4.5886">
        <ele>372.2</ele>
        <time>2020-10-24T09:36:03Z</time>
      </trkpt>
      <trkpt lat="46.1119" lon="4.5886">
        <ele>372.6</ele>
        <time>2020-10-24T09:36:04Z</time>
      </trkpt>
      <trkpt lat="46.1119" lon="4.5886">
        <ele>372.6</ele>
        <time>2020-10-24T09:36:05Z</time>
      </trkpt>
      <trkpt lat="46.11192" lon="4.58862">
        <ele>372.4</ele>
        <time>2020-10-24T09:36:06Z</time>
      </trkpt>
      <trkpt lat="46.11192" lon="4.58862">
        <ele>372.4</ele>
        <time>2020-10-24T09:36:07Z</time>
      </trkpt>
      <trkpt lat="46.11192" lon="4.58862">
        <ele>372.6</ele>
        <time>2020-10-24T09:36:08Z</time>
      </trkpt>
      <trkpt lat="46.11192" lon="4.58862">
        <ele>372.6</ele>
        <time>2020-10-24T09:36:09Z</time>
      </trkpt>
      <trkpt lat="46.11192" lon="4.58862">
        <ele>372.6</ele>
        <time>2020-10-24T09:36:10Z</time>
      </trkpt>
      <trkpt lat="46.11192" lon="4.58862">
        <ele>372.8</ele>
        <time>2020-10-24T09:36:11Z</time>
      </trkpt>
      <trkpt lat="46.11192" lon="4.58862">
        <ele>372.8</ele>
        <time>2020-10-24T09:36:12Z</time>
      </trkpt>
      <trkpt lat="46.11192" lon="4.58862">
        <ele>373</ele>
        <time>2020-10-24T09:36:13Z</time>
      </trkpt>
      <trkpt lat="46.11192" lon="4.58862">
        <ele>372.8</ele>
        <time>2020-10-24T09:36:14Z</time>
      </trkpt>
      <trkpt lat="46.11192" lon="4.58862">
        <ele>372.8</ele>
        <time>2020-10-24T09:36:15Z</time>
      </trkpt>
      <trkpt lat="46.1119" lon="4.58862">
        <ele>372.6</ele>
        <time>2020-10-24T09:36:16Z</time>
      </trkpt>
      <trkpt lat="46.1119" lon="4.58862">
        <ele>372.6</ele>
        <time>2020-10-24T09:36:17Z</time>
      </trkpt>
      <trkpt lat="46.11188" lon="4.58859">
        <ele>372.8</ele>
        <time>2020-10-24T09:36:18Z</time>
      </trkpt>
    </trkseg>
  </trk>
</gpx>